<?xml version="1.0" encoding="UTF-8"?>
<gpx creator="Wikiloc - http://www.wikiloc.com" version="1.1" xmlns="http://www.topografix.com/GPX/1/1" xmlns:xsi="http://www.w3.org/2001/XMLSchema-instance" xsi:schemaLocation="http://www.topografix.com/GPX/1/1 http://www.topografix.com/GPX/1/1/gpx.xsd">
  <trk>
    <name>T3303249-0</name>
    <cmt>La ruta empieza en Ojos Negros. Hasta Santa Eulalia va por una carretera comarcal apenas transitada. Hay un tramo de unos 40 km durante el puerto del Escandón que no aparece reflejado en el track porque me quedé sin batería en el GPS pero la vía verde no tiene pérdida en esa zona</cmt>
    <desc>La ruta empieza en Ojos Negros. Hasta Santa Eulalia va por una carretera comarcal apenas transitada. Hay un tramo de unos 40 km durante el puerto del Escandón que no aparece reflejado en el track porque me quedé sin batería en el GPS pero la vía verde no tiene pérdida en esa zona</desc>
    <trkseg>
      <trkpt lat="40.738810" lon="-1.496887">
        <ele>1129.0</ele>
        <time>2012-08-18T10:06:55Z</time>
      </trkpt>
      <trkpt lat="40.738712" lon="-1.496966">
        <ele>1129.0</ele>
        <time>2012-08-18T10:06:59Z</time>
      </trkpt>
      <trkpt lat="40.738686" lon="-1.496988">
        <ele>1129.2</ele>
        <time>2012-08-18T10:07:00Z</time>
      </trkpt>
      <trkpt lat="40.738660" lon="-1.497001">
        <ele>1129.2</ele>
        <time>2012-08-18T10:07:01Z</time>
      </trkpt>
      <trkpt lat="40.738508" lon="-1.497096">
        <ele>1129.2</ele>
        <time>2012-08-18T10:07:07Z</time>
      </trkpt>
      <trkpt lat="40.738293" lon="-1.497206">
        <ele>1129.2</ele>
        <time>2012-08-18T10:07:13Z</time>
      </trkpt>
      <trkpt lat="40.738081" lon="-1.497342">
        <ele>1129.6</ele>
        <time>2012-08-18T10:07:19Z</time>
      </trkpt>
      <trkpt lat="40.738053" lon="-1.497374">
        <ele>1130.2</ele>
        <time>2012-08-18T10:07:20Z</time>
      </trkpt>
      <trkpt lat="40.738021" lon="-1.497406">
        <ele>1130.6</ele>
        <time>2012-08-18T10:07:21Z</time>
      </trkpt>
      <trkpt lat="40.737989" lon="-1.497433">
        <ele>1131.0</ele>
        <time>2012-08-18T10:07:22Z</time>
      </trkpt>
      <trkpt lat="40.737955" lon="-1.497452">
        <ele>1131.4</ele>
        <time>2012-08-18T10:07:23Z</time>
      </trkpt>
      <trkpt lat="40.737921" lon="-1.497466">
        <ele>1131.4</ele>
        <time>2012-08-18T10:07:24Z</time>
      </trkpt>
      <trkpt lat="40.737850" lon="-1.497502">
        <ele>1131.4</ele>
        <time>2012-08-18T10:07:26Z</time>
      </trkpt>
      <trkpt lat="40.737639" lon="-1.497608">
        <ele>1131.4</ele>
        <time>2012-08-18T10:07:31Z</time>
      </trkpt>
      <trkpt lat="40.737595" lon="-1.497622">
        <ele>1131.8</ele>
        <time>2012-08-18T10:07:32Z</time>
      </trkpt>
      <trkpt lat="40.737555" lon="-1.497634">
        <ele>1132.6</ele>
        <time>2012-08-18T10:07:33Z</time>
      </trkpt>
      <trkpt lat="40.737516" lon="-1.497646">
        <ele>1133.0</ele>
        <time>2012-08-18T10:07:34Z</time>
      </trkpt>
      <trkpt lat="40.737479" lon="-1.497655">
        <ele>1133.4</ele>
        <time>2012-08-18T10:07:35Z</time>
      </trkpt>
      <trkpt lat="40.737407" lon="-1.497687">
        <ele>1133.4</ele>
        <time>2012-08-18T10:07:37Z</time>
      </trkpt>
      <trkpt lat="40.737382" lon="-1.497725">
        <ele>1133.4</ele>
        <time>2012-08-18T10:07:38Z</time>
      </trkpt>
      <trkpt lat="40.737359" lon="-1.497823">
        <ele>1133.8</ele>
        <time>2012-08-18T10:07:40Z</time>
      </trkpt>
      <trkpt lat="40.737357" lon="-1.497870">
        <ele>1134.2</ele>
        <time>2012-08-18T10:07:41Z</time>
      </trkpt>
      <trkpt lat="40.737352" lon="-1.497919">
        <ele>1134.6</ele>
        <time>2012-08-18T10:07:42Z</time>
      </trkpt>
      <trkpt lat="40.737347" lon="-1.497969">
        <ele>1135.0</ele>
        <time>2012-08-18T10:07:43Z</time>
      </trkpt>
      <trkpt lat="40.737341" lon="-1.498020">
        <ele>1135.6</ele>
        <time>2012-08-18T10:07:44Z</time>
      </trkpt>
      <trkpt lat="40.737329" lon="-1.498107">
        <ele>1135.6</ele>
        <time>2012-08-18T10:07:46Z</time>
      </trkpt>
      <trkpt lat="40.737332" lon="-1.498195">
        <ele>1135.6</ele>
        <time>2012-08-18T10:07:48Z</time>
      </trkpt>
      <trkpt lat="40.737328" lon="-1.498239">
        <ele>1135.6</ele>
        <time>2012-08-18T10:07:49Z</time>
      </trkpt>
      <trkpt lat="40.737295" lon="-1.498379">
        <ele>1136.0</ele>
        <time>2012-08-18T10:07:52Z</time>
      </trkpt>
      <trkpt lat="40.737283" lon="-1.498427">
        <ele>1136.4</ele>
        <time>2012-08-18T10:07:53Z</time>
      </trkpt>
      <trkpt lat="40.737273" lon="-1.498476">
        <ele>1136.8</ele>
        <time>2012-08-18T10:07:54Z</time>
      </trkpt>
      <trkpt lat="40.737259" lon="-1.498522">
        <ele>1137.2</ele>
        <time>2012-08-18T10:07:55Z</time>
      </trkpt>
      <trkpt lat="40.737244" lon="-1.498559">
        <ele>1137.6</ele>
        <time>2012-08-18T10:07:56Z</time>
      </trkpt>
      <trkpt lat="40.737198" lon="-1.498673">
        <ele>1137.6</ele>
        <time>2012-08-18T10:07:59Z</time>
      </trkpt>
      <trkpt lat="40.737116" lon="-1.498874">
        <ele>1137.6</ele>
        <time>2012-08-18T10:08:05Z</time>
      </trkpt>
      <trkpt lat="40.737069" lon="-1.499042">
        <ele>1137.6</ele>
        <time>2012-08-18T10:08:10Z</time>
      </trkpt>
      <trkpt lat="40.737059" lon="-1.499083">
        <ele>1138.0</ele>
        <time>2012-08-18T10:08:11Z</time>
      </trkpt>
      <trkpt lat="40.737049" lon="-1.499123">
        <ele>1138.6</ele>
        <time>2012-08-18T10:08:12Z</time>
      </trkpt>
      <trkpt lat="40.737038" lon="-1.499167">
        <ele>1139.0</ele>
        <time>2012-08-18T10:08:13Z</time>
      </trkpt>
      <trkpt lat="40.737025" lon="-1.499211">
        <ele>1139.4</ele>
        <time>2012-08-18T10:08:14Z</time>
      </trkpt>
      <trkpt lat="40.737013" lon="-1.499256">
        <ele>1139.8</ele>
        <time>2012-08-18T10:08:15Z</time>
      </trkpt>
      <trkpt lat="40.736971" lon="-1.499392">
        <ele>1139.8</ele>
        <time>2012-08-18T10:08:18Z</time>
      </trkpt>
      <trkpt lat="40.736945" lon="-1.499669">
        <ele>1139.8</ele>
        <time>2012-08-18T10:08:24Z</time>
      </trkpt>
      <trkpt lat="40.737003" lon="-1.499976">
        <ele>1139.8</ele>
        <time>2012-08-18T10:08:31Z</time>
      </trkpt>
      <trkpt lat="40.737012" lon="-1.500129">
        <ele>1140.2</ele>
        <time>2012-08-18T10:08:35Z</time>
      </trkpt>
      <trkpt lat="40.737008" lon="-1.500170">
        <ele>1140.6</ele>
        <time>2012-08-18T10:08:36Z</time>
      </trkpt>
      <trkpt lat="40.736995" lon="-1.500214">
        <ele>1141.0</ele>
        <time>2012-08-18T10:08:37Z</time>
      </trkpt>
      <trkpt lat="40.736986" lon="-1.500254">
        <ele>1141.6</ele>
        <time>2012-08-18T10:08:38Z</time>
      </trkpt>
      <trkpt lat="40.736984" lon="-1.500295">
        <ele>1142.0</ele>
        <time>2012-08-18T10:08:39Z</time>
      </trkpt>
      <trkpt lat="40.736978" lon="-1.500376">
        <ele>1142.0</ele>
        <time>2012-08-18T10:08:41Z</time>
      </trkpt>
      <trkpt lat="40.736981" lon="-1.500459">
        <ele>1142.0</ele>
        <time>2012-08-18T10:08:43Z</time>
      </trkpt>
      <trkpt lat="40.736945" lon="-1.500667">
        <ele>1142.0</ele>
        <time>2012-08-18T10:08:48Z</time>
      </trkpt>
      <trkpt lat="40.736936" lon="-1.500776">
        <ele>1142.4</ele>
        <time>2012-08-18T10:08:51Z</time>
      </trkpt>
      <trkpt lat="40.736939" lon="-1.500803">
        <ele>1142.8</ele>
        <time>2012-08-18T10:08:52Z</time>
      </trkpt>
      <trkpt lat="40.736939" lon="-1.500827">
        <ele>1143.2</ele>
        <time>2012-08-18T10:08:53Z</time>
      </trkpt>
      <trkpt lat="40.736930" lon="-1.500849">
        <ele>1143.6</ele>
        <time>2012-08-18T10:08:54Z</time>
      </trkpt>
      <trkpt lat="40.736919" lon="-1.500870">
        <ele>1144.0</ele>
        <time>2012-08-18T10:08:55Z</time>
      </trkpt>
      <trkpt lat="40.736835" lon="-1.500929">
        <ele>1144.0</ele>
        <time>2012-08-18T10:08:58Z</time>
      </trkpt>
      <trkpt lat="40.736836" lon="-1.500928">
        <ele>1144.0</ele>
        <time>2012-08-18T10:08:59Z</time>
      </trkpt>
      <trkpt lat="40.736778" lon="-1.500963">
        <ele>1144.0</ele>
        <time>2012-08-18T10:09:22Z</time>
      </trkpt>
      <trkpt lat="40.736752" lon="-1.500971">
        <ele>1144.0</ele>
        <time>2012-08-18T10:09:26Z</time>
      </trkpt>
      <trkpt lat="40.736749" lon="-1.500975">
        <ele>1144.0</ele>
        <time>2012-08-18T10:09:31Z</time>
      </trkpt>
      <trkpt lat="40.736787" lon="-1.500995">
        <ele>1150.0</ele>
        <time>2012-08-18T10:31:43Z</time>
      </trkpt>
      <trkpt lat="40.736805" lon="-1.500994">
        <ele>1150.0</ele>
        <time>2012-08-18T10:31:44Z</time>
      </trkpt>
      <trkpt lat="40.736858" lon="-1.501095">
        <ele>1150.0</ele>
        <time>2012-08-18T10:31:48Z</time>
      </trkpt>
      <trkpt lat="40.736866" lon="-1.501178">
        <ele>1150.0</ele>
        <time>2012-08-18T10:31:50Z</time>
      </trkpt>
      <trkpt lat="40.736851" lon="-1.501352">
        <ele>1150.4</ele>
        <time>2012-08-18T10:31:54Z</time>
      </trkpt>
      <trkpt lat="40.736845" lon="-1.501390">
        <ele>1150.8</ele>
        <time>2012-08-18T10:31:55Z</time>
      </trkpt>
      <trkpt lat="40.736833" lon="-1.501431">
        <ele>1151.2</ele>
        <time>2012-08-18T10:31:56Z</time>
      </trkpt>
      <trkpt lat="40.736820" lon="-1.501473">
        <ele>1151.8</ele>
        <time>2012-08-18T10:31:57Z</time>
      </trkpt>
      <trkpt lat="40.736809" lon="-1.501511">
        <ele>1152.2</ele>
        <time>2012-08-18T10:31:58Z</time>
      </trkpt>
      <trkpt lat="40.736791" lon="-1.501595">
        <ele>1152.2</ele>
        <time>2012-08-18T10:32:00Z</time>
      </trkpt>
      <trkpt lat="40.736748" lon="-1.501913">
        <ele>1152.6</ele>
        <time>2012-08-18T10:32:07Z</time>
      </trkpt>
      <trkpt lat="40.736742" lon="-1.501957">
        <ele>1153.0</ele>
        <time>2012-08-18T10:32:08Z</time>
      </trkpt>
      <trkpt lat="40.736738" lon="-1.502004">
        <ele>1153.4</ele>
        <time>2012-08-18T10:32:09Z</time>
      </trkpt>
      <trkpt lat="40.736730" lon="-1.502056">
        <ele>1153.8</ele>
        <time>2012-08-18T10:32:10Z</time>
      </trkpt>
      <trkpt lat="40.736726" lon="-1.502106">
        <ele>1154.2</ele>
        <time>2012-08-18T10:32:11Z</time>
      </trkpt>
      <trkpt lat="40.736721" lon="-1.502312">
        <ele>1154.6</ele>
        <time>2012-08-18T10:32:15Z</time>
      </trkpt>
      <trkpt lat="40.736712" lon="-1.502358">
        <ele>1155.2</ele>
        <time>2012-08-18T10:32:16Z</time>
      </trkpt>
      <trkpt lat="40.736703" lon="-1.502405">
        <ele>1155.6</ele>
        <time>2012-08-18T10:32:17Z</time>
      </trkpt>
      <trkpt lat="40.736694" lon="-1.502453">
        <ele>1156.0</ele>
        <time>2012-08-18T10:32:18Z</time>
      </trkpt>
      <trkpt lat="40.736685" lon="-1.502504">
        <ele>1156.4</ele>
        <time>2012-08-18T10:32:19Z</time>
      </trkpt>
      <trkpt lat="40.736627" lon="-1.502717">
        <ele>1156.4</ele>
        <time>2012-08-18T10:32:24Z</time>
      </trkpt>
      <trkpt lat="40.736618" lon="-1.502757">
        <ele>1157.0</ele>
        <time>2012-08-18T10:32:25Z</time>
      </trkpt>
      <trkpt lat="40.736611" lon="-1.502792">
        <ele>1157.4</ele>
        <time>2012-08-18T10:32:26Z</time>
      </trkpt>
      <trkpt lat="40.736602" lon="-1.502834">
        <ele>1157.8</ele>
        <time>2012-08-18T10:32:27Z</time>
      </trkpt>
      <trkpt lat="40.736592" lon="-1.502874">
        <ele>1158.4</ele>
        <time>2012-08-18T10:32:28Z</time>
      </trkpt>
      <trkpt lat="40.736584" lon="-1.502915">
        <ele>1158.8</ele>
        <time>2012-08-18T10:32:29Z</time>
      </trkpt>
      <trkpt lat="40.736574" lon="-1.502956">
        <ele>1158.8</ele>
        <time>2012-08-18T10:32:30Z</time>
      </trkpt>
      <trkpt lat="40.736540" lon="-1.503077">
        <ele>1159.2</ele>
        <time>2012-08-18T10:32:33Z</time>
      </trkpt>
      <trkpt lat="40.736530" lon="-1.503120">
        <ele>1159.6</ele>
        <time>2012-08-18T10:32:34Z</time>
      </trkpt>
      <trkpt lat="40.736517" lon="-1.503162">
        <ele>1160.0</ele>
        <time>2012-08-18T10:32:35Z</time>
      </trkpt>
      <trkpt lat="40.736507" lon="-1.503207">
        <ele>1160.6</ele>
        <time>2012-08-18T10:32:36Z</time>
      </trkpt>
      <trkpt lat="40.736498" lon="-1.503250">
        <ele>1161.0</ele>
        <time>2012-08-18T10:32:37Z</time>
      </trkpt>
      <trkpt lat="40.736485" lon="-1.503288">
        <ele>1161.0</ele>
        <time>2012-08-18T10:32:38Z</time>
      </trkpt>
      <trkpt lat="40.736449" lon="-1.503427">
        <ele>1161.4</ele>
        <time>2012-08-18T10:32:42Z</time>
      </trkpt>
      <trkpt lat="40.736438" lon="-1.503464">
        <ele>1161.8</ele>
        <time>2012-08-18T10:32:43Z</time>
      </trkpt>
      <trkpt lat="40.736427" lon="-1.503506">
        <ele>1162.2</ele>
        <time>2012-08-18T10:32:44Z</time>
      </trkpt>
      <trkpt lat="40.736413" lon="-1.503542">
        <ele>1162.6</ele>
        <time>2012-08-18T10:32:45Z</time>
      </trkpt>
      <trkpt lat="40.736399" lon="-1.503582">
        <ele>1163.2</ele>
        <time>2012-08-18T10:32:46Z</time>
      </trkpt>
      <trkpt lat="40.736356" lon="-1.503690">
        <ele>1163.6</ele>
        <time>2012-08-18T10:32:49Z</time>
      </trkpt>
      <trkpt lat="40.736343" lon="-1.503727">
        <ele>1164.0</ele>
        <time>2012-08-18T10:32:50Z</time>
      </trkpt>
      <trkpt lat="40.736330" lon="-1.503761">
        <ele>1164.4</ele>
        <time>2012-08-18T10:32:51Z</time>
      </trkpt>
      <trkpt lat="40.736315" lon="-1.503794">
        <ele>1164.8</ele>
        <time>2012-08-18T10:32:52Z</time>
      </trkpt>
      <trkpt lat="40.736301" lon="-1.503829">
        <ele>1165.2</ele>
        <time>2012-08-18T10:32:53Z</time>
      </trkpt>
      <trkpt lat="40.736221" lon="-1.503994">
        <ele>1165.6</ele>
        <time>2012-08-18T10:32:58Z</time>
      </trkpt>
      <trkpt lat="40.736205" lon="-1.504031">
        <ele>1166.0</ele>
        <time>2012-08-18T10:32:59Z</time>
      </trkpt>
      <trkpt lat="40.736199" lon="-1.504065">
        <ele>1166.4</ele>
        <time>2012-08-18T10:33:00Z</time>
      </trkpt>
      <trkpt lat="40.736192" lon="-1.504098">
        <ele>1166.8</ele>
        <time>2012-08-18T10:33:01Z</time>
      </trkpt>
      <trkpt lat="40.736181" lon="-1.504133">
        <ele>1167.4</ele>
        <time>2012-08-18T10:33:02Z</time>
      </trkpt>
      <trkpt lat="40.736173" lon="-1.504278">
        <ele>1167.8</ele>
        <time>2012-08-18T10:33:06Z</time>
      </trkpt>
      <trkpt lat="40.736171" lon="-1.504318">
        <ele>1168.2</ele>
        <time>2012-08-18T10:33:07Z</time>
      </trkpt>
      <trkpt lat="40.736176" lon="-1.504357">
        <ele>1168.6</ele>
        <time>2012-08-18T10:33:08Z</time>
      </trkpt>
      <trkpt lat="40.736182" lon="-1.504395">
        <ele>1169.0</ele>
        <time>2012-08-18T10:33:09Z</time>
      </trkpt>
      <trkpt lat="40.736184" lon="-1.504436">
        <ele>1169.4</ele>
        <time>2012-08-18T10:33:10Z</time>
      </trkpt>
      <trkpt lat="40.736190" lon="-1.504514">
        <ele>1169.4</ele>
        <time>2012-08-18T10:33:12Z</time>
      </trkpt>
      <trkpt lat="40.736225" lon="-1.504726">
        <ele>1169.8</ele>
        <time>2012-08-18T10:33:18Z</time>
      </trkpt>
      <trkpt lat="40.736230" lon="-1.504762">
        <ele>1170.2</ele>
        <time>2012-08-18T10:33:19Z</time>
      </trkpt>
      <trkpt lat="40.736237" lon="-1.504801">
        <ele>1170.6</ele>
        <time>2012-08-18T10:33:20Z</time>
      </trkpt>
      <trkpt lat="40.736243" lon="-1.504840">
        <ele>1171.0</ele>
        <time>2012-08-18T10:33:21Z</time>
      </trkpt>
      <trkpt lat="40.736250" lon="-1.504880">
        <ele>1171.4</ele>
        <time>2012-08-18T10:33:22Z</time>
      </trkpt>
      <trkpt lat="40.736274" lon="-1.505111">
        <ele>1171.4</ele>
        <time>2012-08-18T10:33:28Z</time>
      </trkpt>
      <trkpt lat="40.736285" lon="-1.505186">
        <ele>1171.8</ele>
        <time>2012-08-18T10:33:30Z</time>
      </trkpt>
      <trkpt lat="40.736291" lon="-1.505223">
        <ele>1172.2</ele>
        <time>2012-08-18T10:33:31Z</time>
      </trkpt>
      <trkpt lat="40.736292" lon="-1.505263">
        <ele>1172.6</ele>
        <time>2012-08-18T10:33:32Z</time>
      </trkpt>
      <trkpt lat="40.736298" lon="-1.505302">
        <ele>1173.0</ele>
        <time>2012-08-18T10:33:33Z</time>
      </trkpt>
      <trkpt lat="40.736303" lon="-1.505339">
        <ele>1173.4</ele>
        <time>2012-08-18T10:33:34Z</time>
      </trkpt>
      <trkpt lat="40.736312" lon="-1.505456">
        <ele>1173.4</ele>
        <time>2012-08-18T10:33:37Z</time>
      </trkpt>
      <trkpt lat="40.736353" lon="-1.505808">
        <ele>1173.8</ele>
        <time>2012-08-18T10:33:46Z</time>
      </trkpt>
      <trkpt lat="40.736354" lon="-1.505848">
        <ele>1174.2</ele>
        <time>2012-08-18T10:33:47Z</time>
      </trkpt>
      <trkpt lat="40.736357" lon="-1.505882">
        <ele>1174.6</ele>
        <time>2012-08-18T10:33:48Z</time>
      </trkpt>
      <trkpt lat="40.736364" lon="-1.505920">
        <ele>1175.0</ele>
        <time>2012-08-18T10:33:49Z</time>
      </trkpt>
      <trkpt lat="40.736372" lon="-1.505958">
        <ele>1175.6</ele>
        <time>2012-08-18T10:33:50Z</time>
      </trkpt>
      <trkpt lat="40.736396" lon="-1.506028">
        <ele>1175.6</ele>
        <time>2012-08-18T10:33:52Z</time>
      </trkpt>
      <trkpt lat="40.736447" lon="-1.506075">
        <ele>1175.6</ele>
        <time>2012-08-18T10:33:54Z</time>
      </trkpt>
      <trkpt lat="40.736520" lon="-1.506065">
        <ele>1176.0</ele>
        <time>2012-08-18T10:33:56Z</time>
      </trkpt>
      <trkpt lat="40.736545" lon="-1.506033">
        <ele>1176.4</ele>
        <time>2012-08-18T10:33:57Z</time>
      </trkpt>
      <trkpt lat="40.736566" lon="-1.505998">
        <ele>1176.8</ele>
        <time>2012-08-18T10:33:58Z</time>
      </trkpt>
      <trkpt lat="40.736581" lon="-1.505952">
        <ele>1177.2</ele>
        <time>2012-08-18T10:33:59Z</time>
      </trkpt>
      <trkpt lat="40.736594" lon="-1.505901">
        <ele>1177.6</ele>
        <time>2012-08-18T10:34:00Z</time>
      </trkpt>
      <trkpt lat="40.736610" lon="-1.505717">
        <ele>1177.6</ele>
        <time>2012-08-18T10:34:04Z</time>
      </trkpt>
      <trkpt lat="40.736610" lon="-1.505670">
        <ele>1177.6</ele>
        <time>2012-08-18T10:34:05Z</time>
      </trkpt>
      <trkpt lat="40.736603" lon="-1.505582">
        <ele>1178.0</ele>
        <time>2012-08-18T10:34:07Z</time>
      </trkpt>
      <trkpt lat="40.736605" lon="-1.505542">
        <ele>1178.4</ele>
        <time>2012-08-18T10:34:08Z</time>
      </trkpt>
      <trkpt lat="40.736608" lon="-1.505500">
        <ele>1178.8</ele>
        <time>2012-08-18T10:34:09Z</time>
      </trkpt>
      <trkpt lat="40.736610" lon="-1.505461">
        <ele>1179.4</ele>
        <time>2012-08-18T10:34:10Z</time>
      </trkpt>
      <trkpt lat="40.736609" lon="-1.505424">
        <ele>1179.8</ele>
        <time>2012-08-18T10:34:11Z</time>
      </trkpt>
      <trkpt lat="40.736645" lon="-1.505155">
        <ele>1180.2</ele>
        <time>2012-08-18T10:34:18Z</time>
      </trkpt>
      <trkpt lat="40.736653" lon="-1.505126">
        <ele>1180.6</ele>
        <time>2012-08-18T10:34:19Z</time>
      </trkpt>
      <trkpt lat="40.736659" lon="-1.505092">
        <ele>1181.0</ele>
        <time>2012-08-18T10:34:20Z</time>
      </trkpt>
      <trkpt lat="40.736673" lon="-1.505059">
        <ele>1181.4</ele>
        <time>2012-08-18T10:34:21Z</time>
      </trkpt>
      <trkpt lat="40.736687" lon="-1.505029">
        <ele>1181.8</ele>
        <time>2012-08-18T10:34:22Z</time>
      </trkpt>
      <trkpt lat="40.736705" lon="-1.504999">
        <ele>1181.8</ele>
        <time>2012-08-18T10:34:23Z</time>
      </trkpt>
      <trkpt lat="40.736815" lon="-1.504965">
        <ele>1181.8</ele>
        <time>2012-08-18T10:34:27Z</time>
      </trkpt>
      <trkpt lat="40.736895" lon="-1.505017">
        <ele>1182.2</ele>
        <time>2012-08-18T10:34:30Z</time>
      </trkpt>
      <trkpt lat="40.736918" lon="-1.505042">
        <ele>1182.6</ele>
        <time>2012-08-18T10:34:31Z</time>
      </trkpt>
      <trkpt lat="40.736937" lon="-1.505068">
        <ele>1183.0</ele>
        <time>2012-08-18T10:34:32Z</time>
      </trkpt>
      <trkpt lat="40.736954" lon="-1.505099">
        <ele>1183.4</ele>
        <time>2012-08-18T10:34:33Z</time>
      </trkpt>
      <trkpt lat="40.736966" lon="-1.505133">
        <ele>1183.8</ele>
        <time>2012-08-18T10:34:34Z</time>
      </trkpt>
      <trkpt lat="40.736985" lon="-1.505207">
        <ele>1183.8</ele>
        <time>2012-08-18T10:34:36Z</time>
      </trkpt>
      <trkpt lat="40.736986" lon="-1.505241">
        <ele>1183.8</ele>
        <time>2012-08-18T10:34:37Z</time>
      </trkpt>
      <trkpt lat="40.736985" lon="-1.505352">
        <ele>1184.2</ele>
        <time>2012-08-18T10:34:40Z</time>
      </trkpt>
      <trkpt lat="40.736985" lon="-1.505387">
        <ele>1184.6</ele>
        <time>2012-08-18T10:34:41Z</time>
      </trkpt>
      <trkpt lat="40.736983" lon="-1.505415">
        <ele>1185.2</ele>
        <time>2012-08-18T10:34:42Z</time>
      </trkpt>
      <trkpt lat="40.736980" lon="-1.505447">
        <ele>1186.0</ele>
        <time>2012-08-18T10:34:43Z</time>
      </trkpt>
      <trkpt lat="40.736938" lon="-1.505648">
        <ele>1186.0</ele>
        <time>2012-08-18T10:34:49Z</time>
      </trkpt>
      <trkpt lat="40.736932" lon="-1.505679">
        <ele>1186.4</ele>
        <time>2012-08-18T10:34:50Z</time>
      </trkpt>
      <trkpt lat="40.736930" lon="-1.505716">
        <ele>1186.8</ele>
        <time>2012-08-18T10:34:51Z</time>
      </trkpt>
      <trkpt lat="40.736927" lon="-1.505749">
        <ele>1187.2</ele>
        <time>2012-08-18T10:34:52Z</time>
      </trkpt>
      <trkpt lat="40.736924" lon="-1.505784">
        <ele>1187.6</ele>
        <time>2012-08-18T10:34:53Z</time>
      </trkpt>
      <trkpt lat="40.736924" lon="-1.505817">
        <ele>1188.0</ele>
        <time>2012-08-18T10:34:54Z</time>
      </trkpt>
      <trkpt lat="40.736904" lon="-1.505881">
        <ele>1188.0</ele>
        <time>2012-08-18T10:34:56Z</time>
      </trkpt>
      <trkpt lat="40.736874" lon="-1.506089">
        <ele>1188.0</ele>
        <time>2012-08-18T10:35:03Z</time>
      </trkpt>
      <trkpt lat="40.736867" lon="-1.506117">
        <ele>1188.4</ele>
        <time>2012-08-18T10:35:04Z</time>
      </trkpt>
      <trkpt lat="40.736865" lon="-1.506144">
        <ele>1188.8</ele>
        <time>2012-08-18T10:35:05Z</time>
      </trkpt>
      <trkpt lat="40.736858" lon="-1.506172">
        <ele>1189.2</ele>
        <time>2012-08-18T10:35:06Z</time>
      </trkpt>
      <trkpt lat="40.736857" lon="-1.506199">
        <ele>1190.0</ele>
        <time>2012-08-18T10:35:07Z</time>
      </trkpt>
      <trkpt lat="40.736853" lon="-1.506240">
        <ele>1190.0</ele>
        <time>2012-08-18T10:35:09Z</time>
      </trkpt>
      <trkpt lat="40.736838" lon="-1.506379">
        <ele>1190.4</ele>
        <time>2012-08-18T10:35:14Z</time>
      </trkpt>
      <trkpt lat="40.736837" lon="-1.506406">
        <ele>1190.8</ele>
        <time>2012-08-18T10:35:15Z</time>
      </trkpt>
      <trkpt lat="40.736840" lon="-1.506439">
        <ele>1191.2</ele>
        <time>2012-08-18T10:35:16Z</time>
      </trkpt>
      <trkpt lat="40.736840" lon="-1.506469">
        <ele>1191.6</ele>
        <time>2012-08-18T10:35:17Z</time>
      </trkpt>
      <trkpt lat="40.736841" lon="-1.506498">
        <ele>1192.0</ele>
        <time>2012-08-18T10:35:18Z</time>
      </trkpt>
      <trkpt lat="40.736852" lon="-1.506571">
        <ele>1192.0</ele>
        <time>2012-08-18T10:35:21Z</time>
      </trkpt>
      <trkpt lat="40.736872" lon="-1.506692">
        <ele>1192.6</ele>
        <time>2012-08-18T10:35:26Z</time>
      </trkpt>
      <trkpt lat="40.736874" lon="-1.506718">
        <ele>1193.0</ele>
        <time>2012-08-18T10:35:27Z</time>
      </trkpt>
      <trkpt lat="40.736883" lon="-1.506744">
        <ele>1193.4</ele>
        <time>2012-08-18T10:35:28Z</time>
      </trkpt>
      <trkpt lat="40.736896" lon="-1.506773">
        <ele>1193.8</ele>
        <time>2012-08-18T10:35:29Z</time>
      </trkpt>
      <trkpt lat="40.736910" lon="-1.506803">
        <ele>1194.2</ele>
        <time>2012-08-18T10:35:30Z</time>
      </trkpt>
      <trkpt lat="40.736963" lon="-1.506893">
        <ele>1194.2</ele>
        <time>2012-08-18T10:35:34Z</time>
      </trkpt>
      <trkpt lat="40.737005" lon="-1.506959">
        <ele>1194.6</ele>
        <time>2012-08-18T10:35:37Z</time>
      </trkpt>
      <trkpt lat="40.737022" lon="-1.506976">
        <ele>1195.2</ele>
        <time>2012-08-18T10:35:38Z</time>
      </trkpt>
      <trkpt lat="40.737041" lon="-1.506993">
        <ele>1195.6</ele>
        <time>2012-08-18T10:35:39Z</time>
      </trkpt>
      <trkpt lat="40.737063" lon="-1.507009">
        <ele>1196.0</ele>
        <time>2012-08-18T10:35:40Z</time>
      </trkpt>
      <trkpt lat="40.737089" lon="-1.507025">
        <ele>1196.6</ele>
        <time>2012-08-18T10:35:41Z</time>
      </trkpt>
      <trkpt lat="40.737197" lon="-1.507092">
        <ele>1196.6</ele>
        <time>2012-08-18T10:35:46Z</time>
      </trkpt>
      <trkpt lat="40.737229" lon="-1.507113">
        <ele>1197.0</ele>
        <time>2012-08-18T10:35:48Z</time>
      </trkpt>
      <trkpt lat="40.737246" lon="-1.507127">
        <ele>1197.4</ele>
        <time>2012-08-18T10:35:49Z</time>
      </trkpt>
      <trkpt lat="40.737267" lon="-1.507141">
        <ele>1197.8</ele>
        <time>2012-08-18T10:35:50Z</time>
      </trkpt>
      <trkpt lat="40.737292" lon="-1.507148">
        <ele>1198.2</ele>
        <time>2012-08-18T10:35:51Z</time>
      </trkpt>
      <trkpt lat="40.737319" lon="-1.507158">
        <ele>1198.6</ele>
        <time>2012-08-18T10:35:52Z</time>
      </trkpt>
      <trkpt lat="40.737435" lon="-1.507231">
        <ele>1199.0</ele>
        <time>2012-08-18T10:35:58Z</time>
      </trkpt>
      <trkpt lat="40.737448" lon="-1.507236">
        <ele>1199.4</ele>
        <time>2012-08-18T10:35:59Z</time>
      </trkpt>
      <trkpt lat="40.737464" lon="-1.507244">
        <ele>1199.8</ele>
        <time>2012-08-18T10:36:00Z</time>
      </trkpt>
      <trkpt lat="40.737482" lon="-1.507258">
        <ele>1200.2</ele>
        <time>2012-08-18T10:36:01Z</time>
      </trkpt>
      <trkpt lat="40.737501" lon="-1.507271">
        <ele>1200.6</ele>
        <time>2012-08-18T10:36:02Z</time>
      </trkpt>
      <trkpt lat="40.737534" lon="-1.507293">
        <ele>1200.6</ele>
        <time>2012-08-18T10:36:04Z</time>
      </trkpt>
      <trkpt lat="40.737673" lon="-1.507379">
        <ele>1200.6</ele>
        <time>2012-08-18T10:36:11Z</time>
      </trkpt>
      <trkpt lat="40.737692" lon="-1.507388">
        <ele>1201.0</ele>
        <time>2012-08-18T10:36:12Z</time>
      </trkpt>
      <trkpt lat="40.737711" lon="-1.507409">
        <ele>1201.4</ele>
        <time>2012-08-18T10:36:13Z</time>
      </trkpt>
      <trkpt lat="40.737728" lon="-1.507429">
        <ele>1201.8</ele>
        <time>2012-08-18T10:36:14Z</time>
      </trkpt>
      <trkpt lat="40.737749" lon="-1.507442">
        <ele>1202.2</ele>
        <time>2012-08-18T10:36:15Z</time>
      </trkpt>
      <trkpt lat="40.737769" lon="-1.507457">
        <ele>1202.8</ele>
        <time>2012-08-18T10:36:16Z</time>
      </trkpt>
      <trkpt lat="40.737791" lon="-1.507473">
        <ele>1202.8</ele>
        <time>2012-08-18T10:36:17Z</time>
      </trkpt>
      <trkpt lat="40.737911" lon="-1.507558">
        <ele>1202.8</ele>
        <time>2012-08-18T10:36:23Z</time>
      </trkpt>
      <trkpt lat="40.737971" lon="-1.507615">
        <ele>1203.2</ele>
        <time>2012-08-18T10:36:27Z</time>
      </trkpt>
      <trkpt lat="40.737988" lon="-1.507627">
        <ele>1203.6</ele>
        <time>2012-08-18T10:36:28Z</time>
      </trkpt>
      <trkpt lat="40.738007" lon="-1.507642">
        <ele>1204.0</ele>
        <time>2012-08-18T10:36:29Z</time>
      </trkpt>
      <trkpt lat="40.738025" lon="-1.507657">
        <ele>1204.4</ele>
        <time>2012-08-18T10:36:30Z</time>
      </trkpt>
      <trkpt lat="40.738044" lon="-1.507673">
        <ele>1204.8</ele>
        <time>2012-08-18T10:36:31Z</time>
      </trkpt>
      <trkpt lat="40.738158" lon="-1.507773">
        <ele>1204.8</ele>
        <time>2012-08-18T10:36:37Z</time>
      </trkpt>
      <trkpt lat="40.738253" lon="-1.507926">
        <ele>1204.8</ele>
        <time>2012-08-18T10:36:44Z</time>
      </trkpt>
      <trkpt lat="40.738306" lon="-1.508014">
        <ele>1205.2</ele>
        <time>2012-08-18T10:36:48Z</time>
      </trkpt>
      <trkpt lat="40.738318" lon="-1.508038">
        <ele>1205.6</ele>
        <time>2012-08-18T10:36:49Z</time>
      </trkpt>
      <trkpt lat="40.738327" lon="-1.508063">
        <ele>1206.0</ele>
        <time>2012-08-18T10:36:50Z</time>
      </trkpt>
      <trkpt lat="40.738334" lon="-1.508091">
        <ele>1206.4</ele>
        <time>2012-08-18T10:36:51Z</time>
      </trkpt>
      <trkpt lat="40.738344" lon="-1.508119">
        <ele>1206.8</ele>
        <time>2012-08-18T10:36:52Z</time>
      </trkpt>
      <trkpt lat="40.738354" lon="-1.508148">
        <ele>1206.8</ele>
        <time>2012-08-18T10:36:53Z</time>
      </trkpt>
      <trkpt lat="40.738434" lon="-1.508466">
        <ele>1206.8</ele>
        <time>2012-08-18T10:37:04Z</time>
      </trkpt>
      <trkpt lat="40.738462" lon="-1.508615">
        <ele>1207.8</ele>
        <time>2012-08-18T10:37:09Z</time>
      </trkpt>
      <trkpt lat="40.738468" lon="-1.508646">
        <ele>1208.2</ele>
        <time>2012-08-18T10:37:10Z</time>
      </trkpt>
      <trkpt lat="40.738474" lon="-1.508682">
        <ele>1208.6</ele>
        <time>2012-08-18T10:37:11Z</time>
      </trkpt>
      <trkpt lat="40.738482" lon="-1.508713">
        <ele>1209.0</ele>
        <time>2012-08-18T10:37:12Z</time>
      </trkpt>
      <trkpt lat="40.738526" lon="-1.508922">
        <ele>1209.0</ele>
        <time>2012-08-18T10:37:18Z</time>
      </trkpt>
      <trkpt lat="40.738563" lon="-1.509103">
        <ele>1209.4</ele>
        <time>2012-08-18T10:37:23Z</time>
      </trkpt>
      <trkpt lat="40.738571" lon="-1.509136">
        <ele>1209.8</ele>
        <time>2012-08-18T10:37:24Z</time>
      </trkpt>
      <trkpt lat="40.738580" lon="-1.509166">
        <ele>1210.4</ele>
        <time>2012-08-18T10:37:25Z</time>
      </trkpt>
      <trkpt lat="40.738587" lon="-1.509198">
        <ele>1210.8</ele>
        <time>2012-08-18T10:37:26Z</time>
      </trkpt>
      <trkpt lat="40.738591" lon="-1.509235">
        <ele>1211.2</ele>
        <time>2012-08-18T10:37:27Z</time>
      </trkpt>
      <trkpt lat="40.738643" lon="-1.509464">
        <ele>1211.2</ele>
        <time>2012-08-18T10:37:34Z</time>
      </trkpt>
      <trkpt lat="40.738647" lon="-1.509494">
        <ele>1211.6</ele>
        <time>2012-08-18T10:37:35Z</time>
      </trkpt>
      <trkpt lat="40.738650" lon="-1.509523">
        <ele>1212.0</ele>
        <time>2012-08-18T10:37:36Z</time>
      </trkpt>
      <trkpt lat="40.738648" lon="-1.509554">
        <ele>1212.4</ele>
        <time>2012-08-18T10:37:37Z</time>
      </trkpt>
      <trkpt lat="40.738649" lon="-1.509583">
        <ele>1212.8</ele>
        <time>2012-08-18T10:37:38Z</time>
      </trkpt>
      <trkpt lat="40.738659" lon="-1.509616">
        <ele>1213.2</ele>
        <time>2012-08-18T10:37:39Z</time>
      </trkpt>
      <trkpt lat="40.738668" lon="-1.509645">
        <ele>1213.2</ele>
        <time>2012-08-18T10:37:40Z</time>
      </trkpt>
      <trkpt lat="40.738723" lon="-1.509876">
        <ele>1213.2</ele>
        <time>2012-08-18T10:37:48Z</time>
      </trkpt>
      <trkpt lat="40.738778" lon="-1.510056">
        <ele>1213.8</ele>
        <time>2012-08-18T10:37:55Z</time>
      </trkpt>
      <trkpt lat="40.738789" lon="-1.510081">
        <ele>1214.2</ele>
        <time>2012-08-18T10:37:56Z</time>
      </trkpt>
      <trkpt lat="40.738797" lon="-1.510107">
        <ele>1214.6</ele>
        <time>2012-08-18T10:37:57Z</time>
      </trkpt>
      <trkpt lat="40.738810" lon="-1.510130">
        <ele>1215.4</ele>
        <time>2012-08-18T10:37:58Z</time>
      </trkpt>
      <trkpt lat="40.738878" lon="-1.510262">
        <ele>1215.4</ele>
        <time>2012-08-18T10:38:03Z</time>
      </trkpt>
      <trkpt lat="40.738974" lon="-1.510459">
        <ele>1215.4</ele>
        <time>2012-08-18T10:38:08Z</time>
      </trkpt>
      <trkpt lat="40.739097" lon="-1.510693">
        <ele>1215.0</ele>
        <time>2012-08-18T10:38:14Z</time>
      </trkpt>
      <trkpt lat="40.739112" lon="-1.510741">
        <ele>1214.6</ele>
        <time>2012-08-18T10:38:15Z</time>
      </trkpt>
      <trkpt lat="40.739128" lon="-1.510779">
        <ele>1214.2</ele>
        <time>2012-08-18T10:38:16Z</time>
      </trkpt>
      <trkpt lat="40.739143" lon="-1.510809">
        <ele>1213.8</ele>
        <time>2012-08-18T10:38:17Z</time>
      </trkpt>
      <trkpt lat="40.739150" lon="-1.510832">
        <ele>1213.4</ele>
        <time>2012-08-18T10:38:18Z</time>
      </trkpt>
      <trkpt lat="40.739154" lon="-1.510850">
        <ele>1213.4</ele>
        <time>2012-08-18T10:38:19Z</time>
      </trkpt>
      <trkpt lat="40.739159" lon="-1.510861">
        <ele>1213.4</ele>
        <time>2012-08-18T10:38:22Z</time>
      </trkpt>
      <trkpt lat="40.739160" lon="-1.510861">
        <ele>1213.4</ele>
        <time>2012-08-18T10:38:23Z</time>
      </trkpt>
      <trkpt lat="40.739191" lon="-1.510976">
        <ele>1211.2</ele>
        <time>2012-08-18T10:42:38Z</time>
      </trkpt>
      <trkpt lat="40.739293" lon="-1.511237">
        <ele>1211.2</ele>
        <time>2012-08-18T10:42:43Z</time>
      </trkpt>
      <trkpt lat="40.739449" lon="-1.511637">
        <ele>1210.8</ele>
        <time>2012-08-18T10:42:48Z</time>
      </trkpt>
      <trkpt lat="40.739484" lon="-1.511730">
        <ele>1210.4</ele>
        <time>2012-08-18T10:42:49Z</time>
      </trkpt>
      <trkpt lat="40.739521" lon="-1.511824">
        <ele>1209.8</ele>
        <time>2012-08-18T10:42:50Z</time>
      </trkpt>
      <trkpt lat="40.739559" lon="-1.511918">
        <ele>1209.4</ele>
        <time>2012-08-18T10:42:51Z</time>
      </trkpt>
      <trkpt lat="40.739598" lon="-1.512017">
        <ele>1209.0</ele>
        <time>2012-08-18T10:42:52Z</time>
      </trkpt>
      <trkpt lat="40.739635" lon="-1.512117">
        <ele>1208.4</ele>
        <time>2012-08-18T10:42:53Z</time>
      </trkpt>
      <trkpt lat="40.739679" lon="-1.512218">
        <ele>1208.0</ele>
        <time>2012-08-18T10:42:54Z</time>
      </trkpt>
      <trkpt lat="40.739725" lon="-1.512310">
        <ele>1207.0</ele>
        <time>2012-08-18T10:42:55Z</time>
      </trkpt>
      <trkpt lat="40.739777" lon="-1.512396">
        <ele>1206.4</ele>
        <time>2012-08-18T10:42:56Z</time>
      </trkpt>
      <trkpt lat="40.739836" lon="-1.512474">
        <ele>1205.8</ele>
        <time>2012-08-18T10:42:57Z</time>
      </trkpt>
      <trkpt lat="40.739907" lon="-1.512533">
        <ele>1205.4</ele>
        <time>2012-08-18T10:42:58Z</time>
      </trkpt>
      <trkpt lat="40.739988" lon="-1.512576">
        <ele>1204.8</ele>
        <time>2012-08-18T10:42:59Z</time>
      </trkpt>
      <trkpt lat="40.740074" lon="-1.512601">
        <ele>1204.2</ele>
        <time>2012-08-18T10:43:00Z</time>
      </trkpt>
      <trkpt lat="40.740160" lon="-1.512620">
        <ele>1203.6</ele>
        <time>2012-08-18T10:43:01Z</time>
      </trkpt>
      <trkpt lat="40.740244" lon="-1.512641">
        <ele>1203.0</ele>
        <time>2012-08-18T10:43:02Z</time>
      </trkpt>
      <trkpt lat="40.740313" lon="-1.512673">
        <ele>1202.4</ele>
        <time>2012-08-18T10:43:03Z</time>
      </trkpt>
      <trkpt lat="40.740372" lon="-1.512707">
        <ele>1202.0</ele>
        <time>2012-08-18T10:43:04Z</time>
      </trkpt>
      <trkpt lat="40.740422" lon="-1.512747">
        <ele>1201.4</ele>
        <time>2012-08-18T10:43:05Z</time>
      </trkpt>
      <trkpt lat="40.740453" lon="-1.512794">
        <ele>1201.0</ele>
        <time>2012-08-18T10:43:06Z</time>
      </trkpt>
      <trkpt lat="40.740472" lon="-1.512841">
        <ele>1200.4</ele>
        <time>2012-08-18T10:43:07Z</time>
      </trkpt>
      <trkpt lat="40.740470" lon="-1.512893">
        <ele>1199.8</ele>
        <time>2012-08-18T10:43:08Z</time>
      </trkpt>
      <trkpt lat="40.740399" lon="-1.513004">
        <ele>1199.8</ele>
        <time>2012-08-18T10:43:11Z</time>
      </trkpt>
      <trkpt lat="40.740307" lon="-1.513002">
        <ele>1199.8</ele>
        <time>2012-08-18T10:43:13Z</time>
      </trkpt>
      <trkpt lat="40.740252" lon="-1.512974">
        <ele>1199.4</ele>
        <time>2012-08-18T10:43:14Z</time>
      </trkpt>
      <trkpt lat="40.740198" lon="-1.512956">
        <ele>1199.0</ele>
        <time>2012-08-18T10:43:15Z</time>
      </trkpt>
      <trkpt lat="40.740139" lon="-1.512946">
        <ele>1198.6</ele>
        <time>2012-08-18T10:43:16Z</time>
      </trkpt>
      <trkpt lat="40.740076" lon="-1.512936">
        <ele>1198.2</ele>
        <time>2012-08-18T10:43:17Z</time>
      </trkpt>
      <trkpt lat="40.740010" lon="-1.512928">
        <ele>1197.8</ele>
        <time>2012-08-18T10:43:18Z</time>
      </trkpt>
      <trkpt lat="40.739949" lon="-1.512916">
        <ele>1197.8</ele>
        <time>2012-08-18T10:43:19Z</time>
      </trkpt>
      <trkpt lat="40.739758" lon="-1.512876">
        <ele>1197.4</ele>
        <time>2012-08-18T10:43:22Z</time>
      </trkpt>
      <trkpt lat="40.739689" lon="-1.512863">
        <ele>1197.0</ele>
        <time>2012-08-18T10:43:23Z</time>
      </trkpt>
      <trkpt lat="40.739619" lon="-1.512851">
        <ele>1196.6</ele>
        <time>2012-08-18T10:43:24Z</time>
      </trkpt>
      <trkpt lat="40.739543" lon="-1.512845">
        <ele>1196.0</ele>
        <time>2012-08-18T10:43:25Z</time>
      </trkpt>
      <trkpt lat="40.739470" lon="-1.512842">
        <ele>1195.6</ele>
        <time>2012-08-18T10:43:26Z</time>
      </trkpt>
      <trkpt lat="40.739331" lon="-1.512871">
        <ele>1195.2</ele>
        <time>2012-08-18T10:43:28Z</time>
      </trkpt>
      <trkpt lat="40.739259" lon="-1.512906">
        <ele>1194.6</ele>
        <time>2012-08-18T10:43:29Z</time>
      </trkpt>
      <trkpt lat="40.739183" lon="-1.512957">
        <ele>1194.2</ele>
        <time>2012-08-18T10:43:30Z</time>
      </trkpt>
      <trkpt lat="40.739112" lon="-1.513028">
        <ele>1193.8</ele>
        <time>2012-08-18T10:43:31Z</time>
      </trkpt>
      <trkpt lat="40.739047" lon="-1.513116">
        <ele>1193.2</ele>
        <time>2012-08-18T10:43:32Z</time>
      </trkpt>
      <trkpt lat="40.738992" lon="-1.513224">
        <ele>1192.6</ele>
        <time>2012-08-18T10:43:33Z</time>
      </trkpt>
      <trkpt lat="40.738856" lon="-1.513752">
        <ele>1189.4</ele>
        <time>2012-08-18T10:43:35Z</time>
      </trkpt>
      <trkpt lat="40.738856" lon="-1.513752">
        <ele>1189.4</ele>
        <time>2012-08-18T10:43:37Z</time>
      </trkpt>
      <trkpt lat="40.738824" lon="-1.513895">
        <ele>1188.6</ele>
        <time>2012-08-18T10:43:38Z</time>
      </trkpt>
      <trkpt lat="40.738791" lon="-1.514038">
        <ele>1187.8</ele>
        <time>2012-08-18T10:43:39Z</time>
      </trkpt>
      <trkpt lat="40.738758" lon="-1.514184">
        <ele>1187.2</ele>
        <time>2012-08-18T10:43:40Z</time>
      </trkpt>
      <trkpt lat="40.738728" lon="-1.514332">
        <ele>1186.6</ele>
        <time>2012-08-18T10:43:41Z</time>
      </trkpt>
      <trkpt lat="40.738699" lon="-1.514482">
        <ele>1186.0</ele>
        <time>2012-08-18T10:43:42Z</time>
      </trkpt>
      <trkpt lat="40.738669" lon="-1.514629">
        <ele>1185.4</ele>
        <time>2012-08-18T10:43:43Z</time>
      </trkpt>
      <trkpt lat="40.738636" lon="-1.514774">
        <ele>1184.6</ele>
        <time>2012-08-18T10:43:44Z</time>
      </trkpt>
      <trkpt lat="40.738599" lon="-1.514915">
        <ele>1183.4</ele>
        <time>2012-08-18T10:43:45Z</time>
      </trkpt>
      <trkpt lat="40.738551" lon="-1.515049">
        <ele>1182.6</ele>
        <time>2012-08-18T10:43:46Z</time>
      </trkpt>
      <trkpt lat="40.738494" lon="-1.515174">
        <ele>1181.8</ele>
        <time>2012-08-18T10:43:47Z</time>
      </trkpt>
      <trkpt lat="40.738428" lon="-1.515299">
        <ele>1181.2</ele>
        <time>2012-08-18T10:43:48Z</time>
      </trkpt>
      <trkpt lat="40.738368" lon="-1.515423">
        <ele>1180.4</ele>
        <time>2012-08-18T10:43:49Z</time>
      </trkpt>
      <trkpt lat="40.738311" lon="-1.515545">
        <ele>1179.8</ele>
        <time>2012-08-18T10:43:50Z</time>
      </trkpt>
      <trkpt lat="40.738256" lon="-1.515662">
        <ele>1179.2</ele>
        <time>2012-08-18T10:43:51Z</time>
      </trkpt>
      <trkpt lat="40.738204" lon="-1.515775">
        <ele>1178.6</ele>
        <time>2012-08-18T10:43:52Z</time>
      </trkpt>
      <trkpt lat="40.738149" lon="-1.515881">
        <ele>1178.0</ele>
        <time>2012-08-18T10:43:53Z</time>
      </trkpt>
      <trkpt lat="40.738088" lon="-1.515987">
        <ele>1177.4</ele>
        <time>2012-08-18T10:43:54Z</time>
      </trkpt>
      <trkpt lat="40.738020" lon="-1.516086">
        <ele>1176.8</ele>
        <time>2012-08-18T10:43:55Z</time>
      </trkpt>
      <trkpt lat="40.737940" lon="-1.516186">
        <ele>1176.2</ele>
        <time>2012-08-18T10:43:56Z</time>
      </trkpt>
      <trkpt lat="40.737859" lon="-1.516272">
        <ele>1175.6</ele>
        <time>2012-08-18T10:43:57Z</time>
      </trkpt>
      <trkpt lat="40.737770" lon="-1.516348">
        <ele>1175.0</ele>
        <time>2012-08-18T10:43:58Z</time>
      </trkpt>
      <trkpt lat="40.737584" lon="-1.516471">
        <ele>1174.6</ele>
        <time>2012-08-18T10:44:00Z</time>
      </trkpt>
      <trkpt lat="40.737491" lon="-1.516524">
        <ele>1174.2</ele>
        <time>2012-08-18T10:44:01Z</time>
      </trkpt>
      <trkpt lat="40.737400" lon="-1.516577">
        <ele>1173.8</ele>
        <time>2012-08-18T10:44:02Z</time>
      </trkpt>
      <trkpt lat="40.737309" lon="-1.516632">
        <ele>1173.4</ele>
        <time>2012-08-18T10:44:03Z</time>
      </trkpt>
      <trkpt lat="40.737215" lon="-1.516688">
        <ele>1173.0</ele>
        <time>2012-08-18T10:44:04Z</time>
      </trkpt>
      <trkpt lat="40.736818" lon="-1.516971">
        <ele>1173.0</ele>
        <time>2012-08-18T10:44:09Z</time>
      </trkpt>
      <trkpt lat="40.736451" lon="-1.517353">
        <ele>1173.0</ele>
        <time>2012-08-18T10:44:14Z</time>
      </trkpt>
      <trkpt lat="40.736156" lon="-1.517663">
        <ele>1173.0</ele>
        <time>2012-08-18T10:44:21Z</time>
      </trkpt>
      <trkpt lat="40.736022" lon="-1.517776">
        <ele>1173.0</ele>
        <time>2012-08-18T10:44:24Z</time>
      </trkpt>
      <trkpt lat="40.735948" lon="-1.517849">
        <ele>1173.0</ele>
        <time>2012-08-18T10:44:26Z</time>
      </trkpt>
      <trkpt lat="40.735707" lon="-1.518123">
        <ele>1173.0</ele>
        <time>2012-08-18T10:44:33Z</time>
      </trkpt>
      <trkpt lat="40.735573" lon="-1.518305">
        <ele>1173.4</ele>
        <time>2012-08-18T10:44:37Z</time>
      </trkpt>
      <trkpt lat="40.735543" lon="-1.518352">
        <ele>1173.8</ele>
        <time>2012-08-18T10:44:38Z</time>
      </trkpt>
      <trkpt lat="40.735515" lon="-1.518399">
        <ele>1174.2</ele>
        <time>2012-08-18T10:44:39Z</time>
      </trkpt>
      <trkpt lat="40.735490" lon="-1.518446">
        <ele>1174.6</ele>
        <time>2012-08-18T10:44:40Z</time>
      </trkpt>
      <trkpt lat="40.735464" lon="-1.518493">
        <ele>1175.0</ele>
        <time>2012-08-18T10:44:41Z</time>
      </trkpt>
      <trkpt lat="40.735304" lon="-1.518795">
        <ele>1175.0</ele>
        <time>2012-08-18T10:44:48Z</time>
      </trkpt>
      <trkpt lat="40.735158" lon="-1.519077">
        <ele>1175.4</ele>
        <time>2012-08-18T10:44:55Z</time>
      </trkpt>
      <trkpt lat="40.735135" lon="-1.519111">
        <ele>1175.8</ele>
        <time>2012-08-18T10:44:56Z</time>
      </trkpt>
      <trkpt lat="40.735111" lon="-1.519150">
        <ele>1176.2</ele>
        <time>2012-08-18T10:44:57Z</time>
      </trkpt>
      <trkpt lat="40.735085" lon="-1.519192">
        <ele>1176.6</ele>
        <time>2012-08-18T10:44:58Z</time>
      </trkpt>
      <trkpt lat="40.735059" lon="-1.519230">
        <ele>1177.0</ele>
        <time>2012-08-18T10:44:59Z</time>
      </trkpt>
      <trkpt lat="40.734846" lon="-1.519492">
        <ele>1177.0</ele>
        <time>2012-08-18T10:45:07Z</time>
      </trkpt>
      <trkpt lat="40.734676" lon="-1.519670">
        <ele>1177.0</ele>
        <time>2012-08-18T10:45:13Z</time>
      </trkpt>
      <trkpt lat="40.734644" lon="-1.519694">
        <ele>1177.4</ele>
        <time>2012-08-18T10:45:14Z</time>
      </trkpt>
      <trkpt lat="40.734614" lon="-1.519720">
        <ele>1177.8</ele>
        <time>2012-08-18T10:45:15Z</time>
      </trkpt>
      <trkpt lat="40.734581" lon="-1.519746">
        <ele>1178.2</ele>
        <time>2012-08-18T10:45:16Z</time>
      </trkpt>
      <trkpt lat="40.734549" lon="-1.519775">
        <ele>1178.6</ele>
        <time>2012-08-18T10:45:17Z</time>
      </trkpt>
      <trkpt lat="40.734518" lon="-1.519803">
        <ele>1179.0</ele>
        <time>2012-08-18T10:45:18Z</time>
      </trkpt>
      <trkpt lat="40.734456" lon="-1.519858">
        <ele>1179.0</ele>
        <time>2012-08-18T10:45:20Z</time>
      </trkpt>
      <trkpt lat="40.734397" lon="-1.519923">
        <ele>1179.0</ele>
        <time>2012-08-18T10:45:22Z</time>
      </trkpt>
      <trkpt lat="40.734238" lon="-1.520072">
        <ele>1179.0</ele>
        <time>2012-08-18T10:45:27Z</time>
      </trkpt>
      <trkpt lat="40.733981" lon="-1.520292">
        <ele>1179.0</ele>
        <time>2012-08-18T10:45:35Z</time>
      </trkpt>
      <trkpt lat="40.733952" lon="-1.520322">
        <ele>1179.4</ele>
        <time>2012-08-18T10:45:36Z</time>
      </trkpt>
      <trkpt lat="40.733923" lon="-1.520350">
        <ele>1180.0</ele>
        <time>2012-08-18T10:45:37Z</time>
      </trkpt>
      <trkpt lat="40.733891" lon="-1.520376">
        <ele>1180.4</ele>
        <time>2012-08-18T10:45:38Z</time>
      </trkpt>
      <trkpt lat="40.733861" lon="-1.520404">
        <ele>1180.8</ele>
        <time>2012-08-18T10:45:39Z</time>
      </trkpt>
      <trkpt lat="40.733833" lon="-1.520429">
        <ele>1181.2</ele>
        <time>2012-08-18T10:45:40Z</time>
      </trkpt>
      <trkpt lat="40.733744" lon="-1.520508">
        <ele>1181.2</ele>
        <time>2012-08-18T10:45:43Z</time>
      </trkpt>
      <trkpt lat="40.733528" lon="-1.520698">
        <ele>1181.2</ele>
        <time>2012-08-18T10:45:50Z</time>
      </trkpt>
      <trkpt lat="40.733413" lon="-1.520800">
        <ele>1181.6</ele>
        <time>2012-08-18T10:45:54Z</time>
      </trkpt>
      <trkpt lat="40.733384" lon="-1.520826">
        <ele>1182.0</ele>
        <time>2012-08-18T10:45:55Z</time>
      </trkpt>
      <trkpt lat="40.733359" lon="-1.520853">
        <ele>1182.4</ele>
        <time>2012-08-18T10:45:56Z</time>
      </trkpt>
      <trkpt lat="40.733334" lon="-1.520873">
        <ele>1182.8</ele>
        <time>2012-08-18T10:45:57Z</time>
      </trkpt>
      <trkpt lat="40.733308" lon="-1.520893">
        <ele>1183.4</ele>
        <time>2012-08-18T10:45:58Z</time>
      </trkpt>
      <trkpt lat="40.733086" lon="-1.521088">
        <ele>1183.4</ele>
        <time>2012-08-18T10:46:06Z</time>
      </trkpt>
      <trkpt lat="40.732955" lon="-1.521198">
        <ele>1183.8</ele>
        <time>2012-08-18T10:46:11Z</time>
      </trkpt>
      <trkpt lat="40.732931" lon="-1.521220">
        <ele>1184.2</ele>
        <time>2012-08-18T10:46:12Z</time>
      </trkpt>
      <trkpt lat="40.732905" lon="-1.521241">
        <ele>1185.0</ele>
        <time>2012-08-18T10:46:13Z</time>
      </trkpt>
      <trkpt lat="40.732882" lon="-1.521261">
        <ele>1185.4</ele>
        <time>2012-08-18T10:46:14Z</time>
      </trkpt>
      <trkpt lat="40.732661" lon="-1.521468">
        <ele>1185.8</ele>
        <time>2012-08-18T10:46:23Z</time>
      </trkpt>
      <trkpt lat="40.732637" lon="-1.521490">
        <ele>1186.4</ele>
        <time>2012-08-18T10:46:24Z</time>
      </trkpt>
      <trkpt lat="40.732610" lon="-1.521509">
        <ele>1186.8</ele>
        <time>2012-08-18T10:46:25Z</time>
      </trkpt>
      <trkpt lat="40.732586" lon="-1.521531">
        <ele>1187.2</ele>
        <time>2012-08-18T10:46:26Z</time>
      </trkpt>
      <trkpt lat="40.732563" lon="-1.521552">
        <ele>1187.6</ele>
        <time>2012-08-18T10:46:27Z</time>
      </trkpt>
      <trkpt lat="40.732466" lon="-1.521637">
        <ele>1187.6</ele>
        <time>2012-08-18T10:46:31Z</time>
      </trkpt>
      <trkpt lat="40.732361" lon="-1.521729">
        <ele>1188.0</ele>
        <time>2012-08-18T10:46:35Z</time>
      </trkpt>
      <trkpt lat="40.732335" lon="-1.521753">
        <ele>1188.4</ele>
        <time>2012-08-18T10:46:36Z</time>
      </trkpt>
      <trkpt lat="40.732310" lon="-1.521773">
        <ele>1188.8</ele>
        <time>2012-08-18T10:46:37Z</time>
      </trkpt>
      <trkpt lat="40.732289" lon="-1.521796">
        <ele>1189.6</ele>
        <time>2012-08-18T10:46:38Z</time>
      </trkpt>
      <trkpt lat="40.732134" lon="-1.521936">
        <ele>1189.6</ele>
        <time>2012-08-18T10:46:45Z</time>
      </trkpt>
      <trkpt lat="40.732065" lon="-1.521996">
        <ele>1190.2</ele>
        <time>2012-08-18T10:46:48Z</time>
      </trkpt>
      <trkpt lat="40.732042" lon="-1.522015">
        <ele>1190.6</ele>
        <time>2012-08-18T10:46:49Z</time>
      </trkpt>
      <trkpt lat="40.732020" lon="-1.522039">
        <ele>1191.0</ele>
        <time>2012-08-18T10:46:50Z</time>
      </trkpt>
      <trkpt lat="40.731997" lon="-1.522060">
        <ele>1191.4</ele>
        <time>2012-08-18T10:46:51Z</time>
      </trkpt>
      <trkpt lat="40.731970" lon="-1.522078">
        <ele>1191.8</ele>
        <time>2012-08-18T10:46:52Z</time>
      </trkpt>
      <trkpt lat="40.731920" lon="-1.522123">
        <ele>1191.8</ele>
        <time>2012-08-18T10:46:54Z</time>
      </trkpt>
      <trkpt lat="40.731898" lon="-1.522147">
        <ele>1191.8</ele>
        <time>2012-08-18T10:46:55Z</time>
      </trkpt>
      <trkpt lat="40.731743" lon="-1.522304">
        <ele>1192.2</ele>
        <time>2012-08-18T10:47:02Z</time>
      </trkpt>
      <trkpt lat="40.731719" lon="-1.522324">
        <ele>1192.6</ele>
        <time>2012-08-18T10:47:03Z</time>
      </trkpt>
      <trkpt lat="40.731696" lon="-1.522348">
        <ele>1193.0</ele>
        <time>2012-08-18T10:47:04Z</time>
      </trkpt>
      <trkpt lat="40.731676" lon="-1.522372">
        <ele>1193.4</ele>
        <time>2012-08-18T10:47:05Z</time>
      </trkpt>
      <trkpt lat="40.731657" lon="-1.522399">
        <ele>1194.0</ele>
        <time>2012-08-18T10:47:06Z</time>
      </trkpt>
      <trkpt lat="40.731551" lon="-1.522532">
        <ele>1194.0</ele>
        <time>2012-08-18T10:47:11Z</time>
      </trkpt>
      <trkpt lat="40.731459" lon="-1.522676">
        <ele>1194.4</ele>
        <time>2012-08-18T10:47:16Z</time>
      </trkpt>
      <trkpt lat="40.731437" lon="-1.522701">
        <ele>1194.8</ele>
        <time>2012-08-18T10:47:17Z</time>
      </trkpt>
      <trkpt lat="40.731418" lon="-1.522730">
        <ele>1195.2</ele>
        <time>2012-08-18T10:47:18Z</time>
      </trkpt>
      <trkpt lat="40.731396" lon="-1.522760">
        <ele>1195.6</ele>
        <time>2012-08-18T10:47:19Z</time>
      </trkpt>
      <trkpt lat="40.731383" lon="-1.522789">
        <ele>1196.0</ele>
        <time>2012-08-18T10:47:20Z</time>
      </trkpt>
      <trkpt lat="40.731308" lon="-1.522886">
        <ele>1196.0</ele>
        <time>2012-08-18T10:47:24Z</time>
      </trkpt>
      <trkpt lat="40.731227" lon="-1.523017">
        <ele>1196.4</ele>
        <time>2012-08-18T10:47:29Z</time>
      </trkpt>
      <trkpt lat="40.731212" lon="-1.523039">
        <ele>1196.8</ele>
        <time>2012-08-18T10:47:30Z</time>
      </trkpt>
      <trkpt lat="40.731196" lon="-1.523066">
        <ele>1197.2</ele>
        <time>2012-08-18T10:47:31Z</time>
      </trkpt>
      <trkpt lat="40.731182" lon="-1.523092">
        <ele>1197.6</ele>
        <time>2012-08-18T10:47:32Z</time>
      </trkpt>
      <trkpt lat="40.731171" lon="-1.523120">
        <ele>1198.0</ele>
        <time>2012-08-18T10:47:33Z</time>
      </trkpt>
      <trkpt lat="40.731084" lon="-1.523259">
        <ele>1198.0</ele>
        <time>2012-08-18T10:47:38Z</time>
      </trkpt>
      <trkpt lat="40.730936" lon="-1.523472">
        <ele>1198.0</ele>
        <time>2012-08-18T10:47:46Z</time>
      </trkpt>
      <trkpt lat="40.730917" lon="-1.523496">
        <ele>1198.4</ele>
        <time>2012-08-18T10:47:47Z</time>
      </trkpt>
      <trkpt lat="40.730901" lon="-1.523522">
        <ele>1199.0</ele>
        <time>2012-08-18T10:47:48Z</time>
      </trkpt>
      <trkpt lat="40.730885" lon="-1.523550">
        <ele>1199.4</ele>
        <time>2012-08-18T10:47:49Z</time>
      </trkpt>
      <trkpt lat="40.730867" lon="-1.523579">
        <ele>1199.8</ele>
        <time>2012-08-18T10:47:50Z</time>
      </trkpt>
      <trkpt lat="40.730851" lon="-1.523606">
        <ele>1200.2</ele>
        <time>2012-08-18T10:47:51Z</time>
      </trkpt>
      <trkpt lat="40.730800" lon="-1.523696">
        <ele>1200.2</ele>
        <time>2012-08-18T10:47:54Z</time>
      </trkpt>
      <trkpt lat="40.730644" lon="-1.523929">
        <ele>1200.2</ele>
        <time>2012-08-18T10:48:01Z</time>
      </trkpt>
      <trkpt lat="40.730528" lon="-1.524119">
        <ele>1200.2</ele>
        <time>2012-08-18T10:48:07Z</time>
      </trkpt>
      <trkpt lat="40.730413" lon="-1.524320">
        <ele>1200.2</ele>
        <time>2012-08-18T10:48:13Z</time>
      </trkpt>
      <trkpt lat="40.730189" lon="-1.524651">
        <ele>1200.2</ele>
        <time>2012-08-18T10:48:23Z</time>
      </trkpt>
      <trkpt lat="40.729952" lon="-1.524944">
        <ele>1200.2</ele>
        <time>2012-08-18T10:48:31Z</time>
      </trkpt>
      <trkpt lat="40.729861" lon="-1.525012">
        <ele>1200.2</ele>
        <time>2012-08-18T10:48:33Z</time>
      </trkpt>
      <trkpt lat="40.729702" lon="-1.525105">
        <ele>1200.2</ele>
        <time>2012-08-18T10:48:36Z</time>
      </trkpt>
      <trkpt lat="40.729316" lon="-1.525356">
        <ele>1200.2</ele>
        <time>2012-08-18T10:48:43Z</time>
      </trkpt>
      <trkpt lat="40.728983" lon="-1.525718">
        <ele>1200.2</ele>
        <time>2012-08-18T10:48:50Z</time>
      </trkpt>
      <trkpt lat="40.728811" lon="-1.525934">
        <ele>1200.2</ele>
        <time>2012-08-18T10:48:54Z</time>
      </trkpt>
      <trkpt lat="40.728592" lon="-1.526196">
        <ele>1200.2</ele>
        <time>2012-08-18T10:48:59Z</time>
      </trkpt>
      <trkpt lat="40.728343" lon="-1.526510">
        <ele>1200.2</ele>
        <time>2012-08-18T10:49:06Z</time>
      </trkpt>
      <trkpt lat="40.728274" lon="-1.526591">
        <ele>1200.6</ele>
        <time>2012-08-18T10:49:08Z</time>
      </trkpt>
      <trkpt lat="40.728241" lon="-1.526631">
        <ele>1201.0</ele>
        <time>2012-08-18T10:49:09Z</time>
      </trkpt>
      <trkpt lat="40.728210" lon="-1.526673">
        <ele>1201.4</ele>
        <time>2012-08-18T10:49:10Z</time>
      </trkpt>
      <trkpt lat="40.728180" lon="-1.526712">
        <ele>1201.8</ele>
        <time>2012-08-18T10:49:11Z</time>
      </trkpt>
      <trkpt lat="40.728149" lon="-1.526752">
        <ele>1202.2</ele>
        <time>2012-08-18T10:49:12Z</time>
      </trkpt>
      <trkpt lat="40.728122" lon="-1.526795">
        <ele>1202.2</ele>
        <time>2012-08-18T10:49:13Z</time>
      </trkpt>
      <trkpt lat="40.727973" lon="-1.527105">
        <ele>1202.8</ele>
        <time>2012-08-18T10:49:20Z</time>
      </trkpt>
      <trkpt lat="40.727958" lon="-1.527150">
        <ele>1203.2</ele>
        <time>2012-08-18T10:49:21Z</time>
      </trkpt>
      <trkpt lat="40.727940" lon="-1.527190">
        <ele>1203.6</ele>
        <time>2012-08-18T10:49:22Z</time>
      </trkpt>
      <trkpt lat="40.727922" lon="-1.527229">
        <ele>1204.0</ele>
        <time>2012-08-18T10:49:23Z</time>
      </trkpt>
      <trkpt lat="40.727909" lon="-1.527270">
        <ele>1204.4</ele>
        <time>2012-08-18T10:49:24Z</time>
      </trkpt>
      <trkpt lat="40.727883" lon="-1.527391">
        <ele>1204.4</ele>
        <time>2012-08-18T10:49:27Z</time>
      </trkpt>
      <trkpt lat="40.727805" lon="-1.527747">
        <ele>1204.8</ele>
        <time>2012-08-18T10:49:36Z</time>
      </trkpt>
      <trkpt lat="40.727795" lon="-1.527787">
        <ele>1205.2</ele>
        <time>2012-08-18T10:49:37Z</time>
      </trkpt>
      <trkpt lat="40.727786" lon="-1.527829">
        <ele>1205.6</ele>
        <time>2012-08-18T10:49:38Z</time>
      </trkpt>
      <trkpt lat="40.727784" lon="-1.527872">
        <ele>1206.0</ele>
        <time>2012-08-18T10:49:39Z</time>
      </trkpt>
      <trkpt lat="40.727774" lon="-1.527911">
        <ele>1206.4</ele>
        <time>2012-08-18T10:49:40Z</time>
      </trkpt>
      <trkpt lat="40.727741" lon="-1.528031">
        <ele>1206.4</ele>
        <time>2012-08-18T10:49:43Z</time>
      </trkpt>
      <trkpt lat="40.727665" lon="-1.528409">
        <ele>1206.4</ele>
        <time>2012-08-18T10:49:51Z</time>
      </trkpt>
      <trkpt lat="40.727584" lon="-1.528830">
        <ele>1206.4</ele>
        <time>2012-08-18T10:49:58Z</time>
      </trkpt>
      <trkpt lat="40.727486" lon="-1.529302">
        <ele>1206.4</ele>
        <time>2012-08-18T10:50:04Z</time>
      </trkpt>
      <trkpt lat="40.727464" lon="-1.529387">
        <ele>1206.0</ele>
        <time>2012-08-18T10:50:05Z</time>
      </trkpt>
      <trkpt lat="40.727440" lon="-1.529478">
        <ele>1205.6</ele>
        <time>2012-08-18T10:50:06Z</time>
      </trkpt>
      <trkpt lat="40.727409" lon="-1.529567">
        <ele>1205.2</ele>
        <time>2012-08-18T10:50:07Z</time>
      </trkpt>
      <trkpt lat="40.727381" lon="-1.529660">
        <ele>1204.8</ele>
        <time>2012-08-18T10:50:08Z</time>
      </trkpt>
      <trkpt lat="40.727352" lon="-1.529753">
        <ele>1204.4</ele>
        <time>2012-08-18T10:50:09Z</time>
      </trkpt>
      <trkpt lat="40.727319" lon="-1.529842">
        <ele>1204.4</ele>
        <time>2012-08-18T10:50:10Z</time>
      </trkpt>
      <trkpt lat="40.727076" lon="-1.530532">
        <ele>1204.4</ele>
        <time>2012-08-18T10:50:18Z</time>
      </trkpt>
      <trkpt lat="40.727050" lon="-1.530605">
        <ele>1204.4</ele>
        <time>2012-08-18T10:50:19Z</time>
      </trkpt>
      <trkpt lat="40.726898" lon="-1.531015">
        <ele>1204.4</ele>
        <time>2012-08-18T10:50:25Z</time>
      </trkpt>
      <trkpt lat="40.726870" lon="-1.531070">
        <ele>1204.8</ele>
        <time>2012-08-18T10:50:26Z</time>
      </trkpt>
      <trkpt lat="40.726838" lon="-1.531126">
        <ele>1205.2</ele>
        <time>2012-08-18T10:50:27Z</time>
      </trkpt>
      <trkpt lat="40.726806" lon="-1.531182">
        <ele>1205.6</ele>
        <time>2012-08-18T10:50:28Z</time>
      </trkpt>
      <trkpt lat="40.726773" lon="-1.531233">
        <ele>1206.0</ele>
        <time>2012-08-18T10:50:29Z</time>
      </trkpt>
      <trkpt lat="40.726739" lon="-1.531284">
        <ele>1206.4</ele>
        <time>2012-08-18T10:50:30Z</time>
      </trkpt>
      <trkpt lat="40.726594" lon="-1.531474">
        <ele>1206.4</ele>
        <time>2012-08-18T10:50:34Z</time>
      </trkpt>
      <trkpt lat="40.726481" lon="-1.531592">
        <ele>1206.8</ele>
        <time>2012-08-18T10:50:37Z</time>
      </trkpt>
      <trkpt lat="40.726451" lon="-1.531623">
        <ele>1207.4</ele>
        <time>2012-08-18T10:50:38Z</time>
      </trkpt>
      <trkpt lat="40.726415" lon="-1.531646">
        <ele>1207.8</ele>
        <time>2012-08-18T10:50:39Z</time>
      </trkpt>
      <trkpt lat="40.726375" lon="-1.531671">
        <ele>1208.2</ele>
        <time>2012-08-18T10:50:40Z</time>
      </trkpt>
      <trkpt lat="40.726338" lon="-1.531696">
        <ele>1208.6</ele>
        <time>2012-08-18T10:50:41Z</time>
      </trkpt>
      <trkpt lat="40.726226" lon="-1.531762">
        <ele>1208.6</ele>
        <time>2012-08-18T10:50:44Z</time>
      </trkpt>
      <trkpt lat="40.726049" lon="-1.531864">
        <ele>1209.0</ele>
        <time>2012-08-18T10:50:49Z</time>
      </trkpt>
      <trkpt lat="40.726015" lon="-1.531883">
        <ele>1209.4</ele>
        <time>2012-08-18T10:50:50Z</time>
      </trkpt>
      <trkpt lat="40.725981" lon="-1.531901">
        <ele>1209.8</ele>
        <time>2012-08-18T10:50:51Z</time>
      </trkpt>
      <trkpt lat="40.725949" lon="-1.531916">
        <ele>1210.2</ele>
        <time>2012-08-18T10:50:52Z</time>
      </trkpt>
      <trkpt lat="40.725917" lon="-1.531938">
        <ele>1210.8</ele>
        <time>2012-08-18T10:50:53Z</time>
      </trkpt>
      <trkpt lat="40.725783" lon="-1.532011">
        <ele>1210.8</ele>
        <time>2012-08-18T10:50:57Z</time>
      </trkpt>
      <trkpt lat="40.725557" lon="-1.532132">
        <ele>1211.2</ele>
        <time>2012-08-18T10:51:04Z</time>
      </trkpt>
      <trkpt lat="40.725527" lon="-1.532152">
        <ele>1211.6</ele>
        <time>2012-08-18T10:51:05Z</time>
      </trkpt>
      <trkpt lat="40.725496" lon="-1.532170">
        <ele>1212.0</ele>
        <time>2012-08-18T10:51:06Z</time>
      </trkpt>
      <trkpt lat="40.725467" lon="-1.532187">
        <ele>1212.4</ele>
        <time>2012-08-18T10:51:07Z</time>
      </trkpt>
      <trkpt lat="40.725437" lon="-1.532206">
        <ele>1212.8</ele>
        <time>2012-08-18T10:51:08Z</time>
      </trkpt>
      <trkpt lat="40.725311" lon="-1.532272">
        <ele>1212.8</ele>
        <time>2012-08-18T10:51:12Z</time>
      </trkpt>
      <trkpt lat="40.725131" lon="-1.532377">
        <ele>1213.2</ele>
        <time>2012-08-18T10:51:18Z</time>
      </trkpt>
      <trkpt lat="40.725102" lon="-1.532391">
        <ele>1213.6</ele>
        <time>2012-08-18T10:51:19Z</time>
      </trkpt>
      <trkpt lat="40.725067" lon="-1.532405">
        <ele>1214.0</ele>
        <time>2012-08-18T10:51:20Z</time>
      </trkpt>
      <trkpt lat="40.725036" lon="-1.532419">
        <ele>1214.4</ele>
        <time>2012-08-18T10:51:21Z</time>
      </trkpt>
      <trkpt lat="40.725006" lon="-1.532432">
        <ele>1214.8</ele>
        <time>2012-08-18T10:51:22Z</time>
      </trkpt>
      <trkpt lat="40.724828" lon="-1.532486">
        <ele>1214.8</ele>
        <time>2012-08-18T10:51:28Z</time>
      </trkpt>
      <trkpt lat="40.724599" lon="-1.532541">
        <ele>1214.8</ele>
        <time>2012-08-18T10:51:36Z</time>
      </trkpt>
      <trkpt lat="40.724516" lon="-1.532555">
        <ele>1215.4</ele>
        <time>2012-08-18T10:51:39Z</time>
      </trkpt>
      <trkpt lat="40.724489" lon="-1.532560">
        <ele>1215.8</ele>
        <time>2012-08-18T10:51:40Z</time>
      </trkpt>
      <trkpt lat="40.724459" lon="-1.532561">
        <ele>1216.2</ele>
        <time>2012-08-18T10:51:41Z</time>
      </trkpt>
      <trkpt lat="40.724433" lon="-1.532567">
        <ele>1216.6</ele>
        <time>2012-08-18T10:51:42Z</time>
      </trkpt>
      <trkpt lat="40.724402" lon="-1.532573">
        <ele>1217.0</ele>
        <time>2012-08-18T10:51:43Z</time>
      </trkpt>
      <trkpt lat="40.724320" lon="-1.532594">
        <ele>1217.0</ele>
        <time>2012-08-18T10:51:46Z</time>
      </trkpt>
      <trkpt lat="40.724102" lon="-1.532628">
        <ele>1217.0</ele>
        <time>2012-08-18T10:51:54Z</time>
      </trkpt>
      <trkpt lat="40.724016" lon="-1.532642">
        <ele>1217.4</ele>
        <time>2012-08-18T10:51:57Z</time>
      </trkpt>
    </trkseg>
  </trk>
  <trk>
    <name>T3303249-1</name>
    <cmt>La ruta empieza en Ojos Negros. Hasta Santa Eulalia va por una carretera comarcal apenas transitada. Hay un tramo de unos 40 km durante el puerto del Escandón que no aparece reflejado en el track porque me quedé sin batería en el GPS pero la vía verde no tiene pérdida en esa zona</cmt>
    <desc>La ruta empieza en Ojos Negros. Hasta Santa Eulalia va por una carretera comarcal apenas transitada. Hay un tramo de unos 40 km durante el puerto del Escandón que no aparece reflejado en el track porque me quedé sin batería en el GPS pero la vía verde no tiene pérdida en esa zona</desc>
    <trkseg>
      <trkpt lat="40.723988" lon="-1.532653">
        <ele>1218.0</ele>
        <time>2012-08-18T10:51:58Z</time>
      </trkpt>
      <trkpt lat="40.723959" lon="-1.532660">
        <ele>1218.4</ele>
        <time>2012-08-18T10:51:59Z</time>
      </trkpt>
      <trkpt lat="40.723932" lon="-1.532670">
        <ele>1218.8</ele>
        <time>2012-08-18T10:52:00Z</time>
      </trkpt>
      <trkpt lat="40.723904" lon="-1.532677">
        <ele>1219.2</ele>
        <time>2012-08-18T10:52:01Z</time>
      </trkpt>
      <trkpt lat="40.723721" lon="-1.532704">
        <ele>1219.2</ele>
        <time>2012-08-18T10:52:08Z</time>
      </trkpt>
      <trkpt lat="40.723582" lon="-1.532731">
        <ele>1219.2</ele>
        <time>2012-08-18T10:52:13Z</time>
      </trkpt>
      <trkpt lat="40.723411" lon="-1.532760">
        <ele>1219.2</ele>
        <time>2012-08-18T10:52:19Z</time>
      </trkpt>
      <trkpt lat="40.723327" lon="-1.532789">
        <ele>1220.0</ele>
        <time>2012-08-18T10:52:22Z</time>
      </trkpt>
      <trkpt lat="40.723301" lon="-1.532799">
        <ele>1220.4</ele>
        <time>2012-08-18T10:52:23Z</time>
      </trkpt>
      <trkpt lat="40.723273" lon="-1.532804">
        <ele>1220.8</ele>
        <time>2012-08-18T10:52:24Z</time>
      </trkpt>
      <trkpt lat="40.723245" lon="-1.532809">
        <ele>1221.2</ele>
        <time>2012-08-18T10:52:25Z</time>
      </trkpt>
      <trkpt lat="40.723215" lon="-1.532816">
        <ele>1221.2</ele>
        <time>2012-08-18T10:52:26Z</time>
      </trkpt>
      <trkpt lat="40.723018" lon="-1.532845">
        <ele>1221.2</ele>
        <time>2012-08-18T10:52:33Z</time>
      </trkpt>
      <trkpt lat="40.722815" lon="-1.532851">
        <ele>1221.2</ele>
        <time>2012-08-18T10:52:40Z</time>
      </trkpt>
      <trkpt lat="40.722588" lon="-1.532799">
        <ele>1221.2</ele>
        <time>2012-08-18T10:52:48Z</time>
      </trkpt>
      <trkpt lat="40.722502" lon="-1.532772">
        <ele>1221.6</ele>
        <time>2012-08-18T10:52:51Z</time>
      </trkpt>
      <trkpt lat="40.722472" lon="-1.532762">
        <ele>1222.0</ele>
        <time>2012-08-18T10:52:52Z</time>
      </trkpt>
      <trkpt lat="40.722444" lon="-1.532753">
        <ele>1222.4</ele>
        <time>2012-08-18T10:52:53Z</time>
      </trkpt>
      <trkpt lat="40.722417" lon="-1.532744">
        <ele>1222.8</ele>
        <time>2012-08-18T10:52:54Z</time>
      </trkpt>
      <trkpt lat="40.722390" lon="-1.532734">
        <ele>1223.2</ele>
        <time>2012-08-18T10:52:55Z</time>
      </trkpt>
      <trkpt lat="40.722176" lon="-1.532661">
        <ele>1223.2</ele>
        <time>2012-08-18T10:53:03Z</time>
      </trkpt>
      <trkpt lat="40.722046" lon="-1.532609">
        <ele>1223.6</ele>
        <time>2012-08-18T10:53:08Z</time>
      </trkpt>
      <trkpt lat="40.722020" lon="-1.532599">
        <ele>1224.2</ele>
        <time>2012-08-18T10:53:09Z</time>
      </trkpt>
      <trkpt lat="40.721996" lon="-1.532592">
        <ele>1224.6</ele>
        <time>2012-08-18T10:53:10Z</time>
      </trkpt>
      <trkpt lat="40.721973" lon="-1.532584">
        <ele>1225.4</ele>
        <time>2012-08-18T10:53:11Z</time>
      </trkpt>
      <trkpt lat="40.721763" lon="-1.532516">
        <ele>1225.4</ele>
        <time>2012-08-18T10:53:19Z</time>
      </trkpt>
      <trkpt lat="40.721579" lon="-1.532449">
        <ele>1225.8</ele>
        <time>2012-08-18T10:53:26Z</time>
      </trkpt>
      <trkpt lat="40.721554" lon="-1.532441">
        <ele>1226.2</ele>
        <time>2012-08-18T10:53:27Z</time>
      </trkpt>
      <trkpt lat="40.721530" lon="-1.532432">
        <ele>1226.6</ele>
        <time>2012-08-18T10:53:28Z</time>
      </trkpt>
      <trkpt lat="40.721507" lon="-1.532424">
        <ele>1227.2</ele>
        <time>2012-08-18T10:53:29Z</time>
      </trkpt>
      <trkpt lat="40.721483" lon="-1.532415">
        <ele>1227.6</ele>
        <time>2012-08-18T10:53:30Z</time>
      </trkpt>
      <trkpt lat="40.721389" lon="-1.532384">
        <ele>1227.6</ele>
        <time>2012-08-18T10:53:34Z</time>
      </trkpt>
      <trkpt lat="40.721235" lon="-1.532314">
        <ele>1227.6</ele>
        <time>2012-08-18T10:53:41Z</time>
      </trkpt>
      <trkpt lat="40.721160" lon="-1.532293">
        <ele>1227.6</ele>
        <time>2012-08-18T10:53:45Z</time>
      </trkpt>
      <trkpt lat="40.721127" lon="-1.532281">
        <ele>1227.6</ele>
        <time>2012-08-18T10:53:47Z</time>
      </trkpt>
      <trkpt lat="40.721102" lon="-1.532275">
        <ele>1227.6</ele>
        <time>2012-08-18T10:53:49Z</time>
      </trkpt>
      <trkpt lat="40.721081" lon="-1.532275">
        <ele>1228.0</ele>
        <time>2012-08-18T10:53:52Z</time>
      </trkpt>
      <trkpt lat="40.721081" lon="-1.532275">
        <ele>1228.4</ele>
        <time>2012-08-18T10:53:53Z</time>
      </trkpt>
      <trkpt lat="40.721081" lon="-1.532275">
        <ele>1228.8</ele>
        <time>2012-08-18T10:53:54Z</time>
      </trkpt>
      <trkpt lat="40.721081" lon="-1.532275">
        <ele>1229.2</ele>
        <time>2012-08-18T10:53:55Z</time>
      </trkpt>
      <trkpt lat="40.721027" lon="-1.532214">
        <ele>1229.6</ele>
        <time>2012-08-18T11:02:14Z</time>
      </trkpt>
      <trkpt lat="40.720988" lon="-1.532202">
        <ele>1229.6</ele>
        <time>2012-08-18T11:02:16Z</time>
      </trkpt>
      <trkpt lat="40.720896" lon="-1.532176">
        <ele>1229.6</ele>
        <time>2012-08-18T11:02:19Z</time>
      </trkpt>
      <trkpt lat="40.720860" lon="-1.532159">
        <ele>1229.6</ele>
        <time>2012-08-18T11:02:20Z</time>
      </trkpt>
      <trkpt lat="40.720636" lon="-1.532065">
        <ele>1229.6</ele>
        <time>2012-08-18T11:02:25Z</time>
      </trkpt>
      <trkpt lat="40.720603" lon="-1.532047">
        <ele>1229.2</ele>
        <time>2012-08-18T11:02:26Z</time>
      </trkpt>
      <trkpt lat="40.720566" lon="-1.532028">
        <ele>1228.8</ele>
        <time>2012-08-18T11:02:27Z</time>
      </trkpt>
      <trkpt lat="40.720528" lon="-1.532004">
        <ele>1228.4</ele>
        <time>2012-08-18T11:02:28Z</time>
      </trkpt>
      <trkpt lat="40.720489" lon="-1.531973">
        <ele>1227.8</ele>
        <time>2012-08-18T11:02:29Z</time>
      </trkpt>
      <trkpt lat="40.720451" lon="-1.531931">
        <ele>1227.4</ele>
        <time>2012-08-18T11:02:30Z</time>
      </trkpt>
      <trkpt lat="40.720336" lon="-1.531756">
        <ele>1227.0</ele>
        <time>2012-08-18T11:02:33Z</time>
      </trkpt>
      <trkpt lat="40.720297" lon="-1.531677">
        <ele>1226.6</ele>
        <time>2012-08-18T11:02:34Z</time>
      </trkpt>
      <trkpt lat="40.720260" lon="-1.531593">
        <ele>1226.2</ele>
        <time>2012-08-18T11:02:35Z</time>
      </trkpt>
      <trkpt lat="40.720225" lon="-1.531502">
        <ele>1225.8</ele>
        <time>2012-08-18T11:02:36Z</time>
      </trkpt>
      <trkpt lat="40.720189" lon="-1.531405">
        <ele>1225.2</ele>
        <time>2012-08-18T11:02:37Z</time>
      </trkpt>
      <trkpt lat="40.720150" lon="-1.531301">
        <ele>1224.8</ele>
        <time>2012-08-18T11:02:38Z</time>
      </trkpt>
      <trkpt lat="40.720108" lon="-1.531194">
        <ele>1223.8</ele>
        <time>2012-08-18T11:02:39Z</time>
      </trkpt>
      <trkpt lat="40.720065" lon="-1.531081">
        <ele>1223.4</ele>
        <time>2012-08-18T11:02:40Z</time>
      </trkpt>
      <trkpt lat="40.720023" lon="-1.530967">
        <ele>1222.8</ele>
        <time>2012-08-18T11:02:41Z</time>
      </trkpt>
      <trkpt lat="40.719981" lon="-1.530846">
        <ele>1222.4</ele>
        <time>2012-08-18T11:02:42Z</time>
      </trkpt>
      <trkpt lat="40.719940" lon="-1.530735">
        <ele>1221.8</ele>
        <time>2012-08-18T11:02:43Z</time>
      </trkpt>
      <trkpt lat="40.719902" lon="-1.530625">
        <ele>1221.2</ele>
        <time>2012-08-18T11:02:44Z</time>
      </trkpt>
      <trkpt lat="40.719864" lon="-1.530516">
        <ele>1220.8</ele>
        <time>2012-08-18T11:02:45Z</time>
      </trkpt>
      <trkpt lat="40.719629" lon="-1.529900">
        <ele>1220.8</ele>
        <time>2012-08-18T11:02:51Z</time>
      </trkpt>
      <trkpt lat="40.719510" lon="-1.529660">
        <ele>1220.8</ele>
        <time>2012-08-18T11:02:54Z</time>
      </trkpt>
      <trkpt lat="40.719467" lon="-1.529600">
        <ele>1220.8</ele>
        <time>2012-08-18T11:02:55Z</time>
      </trkpt>
      <trkpt lat="40.719282" lon="-1.529397">
        <ele>1220.8</ele>
        <time>2012-08-18T11:03:00Z</time>
      </trkpt>
      <trkpt lat="40.719146" lon="-1.529268">
        <ele>1220.8</ele>
        <time>2012-08-18T11:03:06Z</time>
      </trkpt>
      <trkpt lat="40.719147" lon="-1.529269">
        <ele>1220.8</ele>
        <time>2012-08-18T11:03:07Z</time>
      </trkpt>
      <trkpt lat="40.719101" lon="-1.529221">
        <ele>1220.8</ele>
        <time>2012-08-18T11:03:23Z</time>
      </trkpt>
      <trkpt lat="40.719079" lon="-1.529202">
        <ele>1220.8</ele>
        <time>2012-08-18T11:03:24Z</time>
      </trkpt>
      <trkpt lat="40.718922" lon="-1.529039">
        <ele>1220.8</ele>
        <time>2012-08-18T11:03:30Z</time>
      </trkpt>
      <trkpt lat="40.718651" lon="-1.528759">
        <ele>1220.8</ele>
        <time>2012-08-18T11:03:38Z</time>
      </trkpt>
      <trkpt lat="40.718316" lon="-1.528418">
        <ele>1220.8</ele>
        <time>2012-08-18T11:03:46Z</time>
      </trkpt>
      <trkpt lat="40.717948" lon="-1.528011">
        <ele>1220.8</ele>
        <time>2012-08-18T11:03:54Z</time>
      </trkpt>
      <trkpt lat="40.717844" lon="-1.527906">
        <ele>1220.2</ele>
        <time>2012-08-18T11:03:56Z</time>
      </trkpt>
      <trkpt lat="40.717791" lon="-1.527851">
        <ele>1219.8</ele>
        <time>2012-08-18T11:03:57Z</time>
      </trkpt>
      <trkpt lat="40.717736" lon="-1.527795">
        <ele>1219.4</ele>
        <time>2012-08-18T11:03:58Z</time>
      </trkpt>
      <trkpt lat="40.717678" lon="-1.527738">
        <ele>1219.0</ele>
        <time>2012-08-18T11:03:59Z</time>
      </trkpt>
      <trkpt lat="40.717614" lon="-1.527676">
        <ele>1218.6</ele>
        <time>2012-08-18T11:04:00Z</time>
      </trkpt>
      <trkpt lat="40.717553" lon="-1.527615">
        <ele>1218.6</ele>
        <time>2012-08-18T11:04:01Z</time>
      </trkpt>
      <trkpt lat="40.717312" lon="-1.527363">
        <ele>1218.0</ele>
        <time>2012-08-18T11:04:05Z</time>
      </trkpt>
      <trkpt lat="40.717249" lon="-1.527296">
        <ele>1217.6</ele>
        <time>2012-08-18T11:04:06Z</time>
      </trkpt>
      <trkpt lat="40.717189" lon="-1.527231">
        <ele>1217.2</ele>
        <time>2012-08-18T11:04:07Z</time>
      </trkpt>
      <trkpt lat="40.717129" lon="-1.527167">
        <ele>1216.8</ele>
        <time>2012-08-18T11:04:08Z</time>
      </trkpt>
      <trkpt lat="40.717071" lon="-1.527104">
        <ele>1216.4</ele>
        <time>2012-08-18T11:04:09Z</time>
      </trkpt>
      <trkpt lat="40.717015" lon="-1.527040">
        <ele>1216.4</ele>
        <time>2012-08-18T11:04:10Z</time>
      </trkpt>
      <trkpt lat="40.716608" lon="-1.526616">
        <ele>1216.4</ele>
        <time>2012-08-18T11:04:17Z</time>
      </trkpt>
      <trkpt lat="40.716167" lon="-1.526130">
        <ele>1216.4</ele>
        <time>2012-08-18T11:04:25Z</time>
      </trkpt>
      <trkpt lat="40.716115" lon="-1.526074">
        <ele>1216.0</ele>
        <time>2012-08-18T11:04:26Z</time>
      </trkpt>
      <trkpt lat="40.716062" lon="-1.526018">
        <ele>1215.6</ele>
        <time>2012-08-18T11:04:27Z</time>
      </trkpt>
      <trkpt lat="40.716008" lon="-1.525962">
        <ele>1215.2</ele>
        <time>2012-08-18T11:04:28Z</time>
      </trkpt>
      <trkpt lat="40.715958" lon="-1.525904">
        <ele>1214.8</ele>
        <time>2012-08-18T11:04:29Z</time>
      </trkpt>
      <trkpt lat="40.715908" lon="-1.525850">
        <ele>1214.4</ele>
        <time>2012-08-18T11:04:30Z</time>
      </trkpt>
      <trkpt lat="40.715803" lon="-1.525719">
        <ele>1214.4</ele>
        <time>2012-08-18T11:04:32Z</time>
      </trkpt>
      <trkpt lat="40.715461" lon="-1.525359">
        <ele>1214.4</ele>
        <time>2012-08-18T11:04:39Z</time>
      </trkpt>
      <trkpt lat="40.715123" lon="-1.525030">
        <ele>1214.4</ele>
        <time>2012-08-18T11:04:46Z</time>
      </trkpt>
      <trkpt lat="40.714941" lon="-1.524872">
        <ele>1214.4</ele>
        <time>2012-08-18T11:04:50Z</time>
      </trkpt>
      <trkpt lat="40.714809" lon="-1.524794">
        <ele>1214.4</ele>
        <time>2012-08-18T11:04:53Z</time>
      </trkpt>
      <trkpt lat="40.714742" lon="-1.524750">
        <ele>1214.4</ele>
        <time>2012-08-18T11:04:55Z</time>
      </trkpt>
      <trkpt lat="40.714733" lon="-1.524719">
        <ele>1214.4</ele>
        <time>2012-08-18T11:04:56Z</time>
      </trkpt>
      <trkpt lat="40.714779" lon="-1.524672">
        <ele>1214.4</ele>
        <time>2012-08-18T11:04:59Z</time>
      </trkpt>
      <trkpt lat="40.714848" lon="-1.524753">
        <ele>1214.4</ele>
        <time>2012-08-18T11:05:03Z</time>
      </trkpt>
      <trkpt lat="40.714915" lon="-1.524806">
        <ele>1214.4</ele>
        <time>2012-08-18T11:05:06Z</time>
      </trkpt>
      <trkpt lat="40.714963" lon="-1.524856">
        <ele>1214.4</ele>
        <time>2012-08-18T11:05:08Z</time>
      </trkpt>
      <trkpt lat="40.714976" lon="-1.524895">
        <ele>1214.4</ele>
        <time>2012-08-18T11:05:09Z</time>
      </trkpt>
      <trkpt lat="40.714980" lon="-1.525026">
        <ele>1214.4</ele>
        <time>2012-08-18T11:05:12Z</time>
      </trkpt>
      <trkpt lat="40.714899" lon="-1.525214">
        <ele>1214.4</ele>
        <time>2012-08-18T11:05:17Z</time>
      </trkpt>
      <trkpt lat="40.714799" lon="-1.525389">
        <ele>1214.4</ele>
        <time>2012-08-18T11:05:24Z</time>
      </trkpt>
      <trkpt lat="40.714808" lon="-1.525434">
        <ele>1214.4</ele>
        <time>2012-08-18T11:05:27Z</time>
      </trkpt>
      <trkpt lat="40.714823" lon="-1.525455">
        <ele>1214.4</ele>
        <time>2012-08-18T11:05:29Z</time>
      </trkpt>
      <trkpt lat="40.714863" lon="-1.525498">
        <ele>1214.4</ele>
        <time>2012-08-18T11:05:33Z</time>
      </trkpt>
      <trkpt lat="40.714879" lon="-1.525511">
        <ele>1214.4</ele>
        <time>2012-08-18T11:05:35Z</time>
      </trkpt>
      <trkpt lat="40.714879" lon="-1.525510">
        <ele>1214.4</ele>
        <time>2012-08-18T11:05:37Z</time>
      </trkpt>
      <trkpt lat="40.714886" lon="-1.525565">
        <ele>1214.4</ele>
        <time>2012-08-18T11:07:17Z</time>
      </trkpt>
      <trkpt lat="40.714877" lon="-1.525609">
        <ele>1214.4</ele>
        <time>2012-08-18T11:07:19Z</time>
      </trkpt>
      <trkpt lat="40.714876" lon="-1.525672">
        <ele>1214.4</ele>
        <time>2012-08-18T11:07:21Z</time>
      </trkpt>
      <trkpt lat="40.714847" lon="-1.525850">
        <ele>1214.4</ele>
        <time>2012-08-18T11:07:27Z</time>
      </trkpt>
      <trkpt lat="40.714753" lon="-1.526079">
        <ele>1214.4</ele>
        <time>2012-08-18T11:07:35Z</time>
      </trkpt>
      <trkpt lat="40.714690" lon="-1.526238">
        <ele>1214.8</ele>
        <time>2012-08-18T11:07:41Z</time>
      </trkpt>
      <trkpt lat="40.714678" lon="-1.526265">
        <ele>1215.2</ele>
        <time>2012-08-18T11:07:42Z</time>
      </trkpt>
      <trkpt lat="40.714667" lon="-1.526292">
        <ele>1215.6</ele>
        <time>2012-08-18T11:07:43Z</time>
      </trkpt>
      <trkpt lat="40.714657" lon="-1.526319">
        <ele>1216.0</ele>
        <time>2012-08-18T11:07:44Z</time>
      </trkpt>
      <trkpt lat="40.714649" lon="-1.526341">
        <ele>1216.4</ele>
        <time>2012-08-18T11:07:45Z</time>
      </trkpt>
      <trkpt lat="40.714616" lon="-1.526409">
        <ele>1216.4</ele>
        <time>2012-08-18T11:07:48Z</time>
      </trkpt>
      <trkpt lat="40.714551" lon="-1.526628">
        <ele>1216.4</ele>
        <time>2012-08-18T11:07:55Z</time>
      </trkpt>
      <trkpt lat="40.714471" lon="-1.526827">
        <ele>1216.8</ele>
        <time>2012-08-18T11:08:01Z</time>
      </trkpt>
      <trkpt lat="40.714453" lon="-1.526855">
        <ele>1217.2</ele>
        <time>2012-08-18T11:08:02Z</time>
      </trkpt>
      <trkpt lat="40.714438" lon="-1.526885">
        <ele>1217.6</ele>
        <time>2012-08-18T11:08:03Z</time>
      </trkpt>
      <trkpt lat="40.714425" lon="-1.526915">
        <ele>1218.0</ele>
        <time>2012-08-18T11:08:04Z</time>
      </trkpt>
      <trkpt lat="40.714411" lon="-1.526943">
        <ele>1218.4</ele>
        <time>2012-08-18T11:08:05Z</time>
      </trkpt>
      <trkpt lat="40.714350" lon="-1.527077">
        <ele>1218.4</ele>
        <time>2012-08-18T11:08:11Z</time>
      </trkpt>
      <trkpt lat="40.714340" lon="-1.527113">
        <ele>1218.4</ele>
        <time>2012-08-18T11:08:14Z</time>
      </trkpt>
      <trkpt lat="40.714338" lon="-1.527114">
        <ele>1218.4</ele>
        <time>2012-08-18T11:08:16Z</time>
      </trkpt>
      <trkpt lat="40.714339" lon="-1.527114">
        <ele>1218.4</ele>
        <time>2012-08-18T11:08:17Z</time>
      </trkpt>
      <trkpt lat="40.714314" lon="-1.527170">
        <ele>1218.4</ele>
        <time>2012-08-18T11:08:39Z</time>
      </trkpt>
      <trkpt lat="40.714291" lon="-1.527216">
        <ele>1218.4</ele>
        <time>2012-08-18T11:08:41Z</time>
      </trkpt>
      <trkpt lat="40.714206" lon="-1.527389">
        <ele>1218.8</ele>
        <time>2012-08-18T11:08:48Z</time>
      </trkpt>
      <trkpt lat="40.714199" lon="-1.527416">
        <ele>1219.6</ele>
        <time>2012-08-18T11:08:49Z</time>
      </trkpt>
      <trkpt lat="40.714190" lon="-1.527443">
        <ele>1220.0</ele>
        <time>2012-08-18T11:08:50Z</time>
      </trkpt>
      <trkpt lat="40.714178" lon="-1.527470">
        <ele>1220.6</ele>
        <time>2012-08-18T11:08:51Z</time>
      </trkpt>
      <trkpt lat="40.714072" lon="-1.527689">
        <ele>1220.6</ele>
        <time>2012-08-18T11:08:59Z</time>
      </trkpt>
      <trkpt lat="40.713985" lon="-1.527877">
        <ele>1221.0</ele>
        <time>2012-08-18T11:09:05Z</time>
      </trkpt>
      <trkpt lat="40.713971" lon="-1.527909">
        <ele>1221.4</ele>
        <time>2012-08-18T11:09:06Z</time>
      </trkpt>
      <trkpt lat="40.713954" lon="-1.527939">
        <ele>1221.8</ele>
        <time>2012-08-18T11:09:07Z</time>
      </trkpt>
      <trkpt lat="40.713938" lon="-1.527970">
        <ele>1222.2</ele>
        <time>2012-08-18T11:09:08Z</time>
      </trkpt>
      <trkpt lat="40.713918" lon="-1.527998">
        <ele>1222.6</ele>
        <time>2012-08-18T11:09:09Z</time>
      </trkpt>
      <trkpt lat="40.713844" lon="-1.528148">
        <ele>1222.6</ele>
        <time>2012-08-18T11:09:14Z</time>
      </trkpt>
      <trkpt lat="40.713759" lon="-1.528329">
        <ele>1223.0</ele>
        <time>2012-08-18T11:09:20Z</time>
      </trkpt>
      <trkpt lat="40.713743" lon="-1.528356">
        <ele>1223.4</ele>
        <time>2012-08-18T11:09:21Z</time>
      </trkpt>
      <trkpt lat="40.713730" lon="-1.528383">
        <ele>1223.8</ele>
        <time>2012-08-18T11:09:22Z</time>
      </trkpt>
      <trkpt lat="40.713718" lon="-1.528415">
        <ele>1224.4</ele>
        <time>2012-08-18T11:09:23Z</time>
      </trkpt>
      <trkpt lat="40.713707" lon="-1.528446">
        <ele>1224.8</ele>
        <time>2012-08-18T11:09:24Z</time>
      </trkpt>
      <trkpt lat="40.713638" lon="-1.528595">
        <ele>1224.8</ele>
        <time>2012-08-18T11:09:29Z</time>
      </trkpt>
      <trkpt lat="40.713595" lon="-1.528680">
        <ele>1225.2</ele>
        <time>2012-08-18T11:09:32Z</time>
      </trkpt>
      <trkpt lat="40.713584" lon="-1.528709">
        <ele>1225.8</ele>
        <time>2012-08-18T11:09:33Z</time>
      </trkpt>
      <trkpt lat="40.713571" lon="-1.528739">
        <ele>1226.4</ele>
        <time>2012-08-18T11:09:34Z</time>
      </trkpt>
      <trkpt lat="40.713555" lon="-1.528768">
        <ele>1226.8</ele>
        <time>2012-08-18T11:09:35Z</time>
      </trkpt>
      <trkpt lat="40.713538" lon="-1.528798">
        <ele>1227.4</ele>
        <time>2012-08-18T11:09:36Z</time>
      </trkpt>
      <trkpt lat="40.713521" lon="-1.528831">
        <ele>1227.4</ele>
        <time>2012-08-18T11:09:37Z</time>
      </trkpt>
      <trkpt lat="40.713404" lon="-1.529072">
        <ele>1227.4</ele>
        <time>2012-08-18T11:09:45Z</time>
      </trkpt>
      <trkpt lat="40.713260" lon="-1.529348">
        <ele>1227.4</ele>
        <time>2012-08-18T11:09:54Z</time>
      </trkpt>
      <trkpt lat="40.713200" lon="-1.529467">
        <ele>1227.8</ele>
        <time>2012-08-18T11:09:58Z</time>
      </trkpt>
      <trkpt lat="40.713184" lon="-1.529496">
        <ele>1228.2</ele>
        <time>2012-08-18T11:09:59Z</time>
      </trkpt>
      <trkpt lat="40.713166" lon="-1.529527">
        <ele>1228.6</ele>
        <time>2012-08-18T11:10:00Z</time>
      </trkpt>
      <trkpt lat="40.713148" lon="-1.529558">
        <ele>1229.0</ele>
        <time>2012-08-18T11:10:01Z</time>
      </trkpt>
      <trkpt lat="40.713132" lon="-1.529585">
        <ele>1229.4</ele>
        <time>2012-08-18T11:10:02Z</time>
      </trkpt>
      <trkpt lat="40.713116" lon="-1.529614">
        <ele>1229.4</ele>
        <time>2012-08-18T11:10:03Z</time>
      </trkpt>
      <trkpt lat="40.713042" lon="-1.529782">
        <ele>1229.4</ele>
        <time>2012-08-18T11:10:10Z</time>
      </trkpt>
      <trkpt lat="40.713036" lon="-1.529802">
        <ele>1229.8</ele>
        <time>2012-08-18T11:10:11Z</time>
      </trkpt>
      <trkpt lat="40.713030" lon="-1.529825">
        <ele>1230.2</ele>
        <time>2012-08-18T11:10:12Z</time>
      </trkpt>
      <trkpt lat="40.713023" lon="-1.529848">
        <ele>1230.6</ele>
        <time>2012-08-18T11:10:13Z</time>
      </trkpt>
      <trkpt lat="40.713022" lon="-1.529872">
        <ele>1231.0</ele>
        <time>2012-08-18T11:10:14Z</time>
      </trkpt>
      <trkpt lat="40.713024" lon="-1.529897">
        <ele>1231.4</ele>
        <time>2012-08-18T11:10:15Z</time>
      </trkpt>
      <trkpt lat="40.713031" lon="-1.529921">
        <ele>1231.4</ele>
        <time>2012-08-18T11:10:16Z</time>
      </trkpt>
      <trkpt lat="40.713057" lon="-1.530015">
        <ele>1231.4</ele>
        <time>2012-08-18T11:10:22Z</time>
      </trkpt>
      <trkpt lat="40.713057" lon="-1.530015">
        <ele>1231.4</ele>
        <time>2012-08-18T11:10:23Z</time>
      </trkpt>
      <trkpt lat="40.713057" lon="-1.530016">
        <ele>1231.4</ele>
        <time>2012-08-18T11:10:25Z</time>
      </trkpt>
      <trkpt lat="40.713021" lon="-1.529966">
        <ele>1233.6</ele>
        <time>2012-08-18T11:11:39Z</time>
      </trkpt>
      <trkpt lat="40.712986" lon="-1.529947">
        <ele>1233.6</ele>
        <time>2012-08-18T11:11:41Z</time>
      </trkpt>
      <trkpt lat="40.712889" lon="-1.529857">
        <ele>1233.6</ele>
        <time>2012-08-18T11:11:46Z</time>
      </trkpt>
      <trkpt lat="40.712868" lon="-1.529841">
        <ele>1233.6</ele>
        <time>2012-08-18T11:11:47Z</time>
      </trkpt>
      <trkpt lat="40.712699" lon="-1.529698">
        <ele>1233.6</ele>
        <time>2012-08-18T11:11:54Z</time>
      </trkpt>
      <trkpt lat="40.712490" lon="-1.529529">
        <ele>1233.6</ele>
        <time>2012-08-18T11:12:01Z</time>
      </trkpt>
      <trkpt lat="40.712462" lon="-1.529498">
        <ele>1233.2</ele>
        <time>2012-08-18T11:12:02Z</time>
      </trkpt>
      <trkpt lat="40.712436" lon="-1.529465">
        <ele>1232.8</ele>
        <time>2012-08-18T11:12:03Z</time>
      </trkpt>
      <trkpt lat="40.712409" lon="-1.529434">
        <ele>1232.4</ele>
        <time>2012-08-18T11:12:04Z</time>
      </trkpt>
      <trkpt lat="40.712380" lon="-1.529405">
        <ele>1232.0</ele>
        <time>2012-08-18T11:12:05Z</time>
      </trkpt>
      <trkpt lat="40.712350" lon="-1.529378">
        <ele>1231.6</ele>
        <time>2012-08-18T11:12:06Z</time>
      </trkpt>
      <trkpt lat="40.712289" lon="-1.529320">
        <ele>1231.6</ele>
        <time>2012-08-18T11:12:08Z</time>
      </trkpt>
      <trkpt lat="40.712025" lon="-1.529099">
        <ele>1231.6</ele>
        <time>2012-08-18T11:12:17Z</time>
      </trkpt>
      <trkpt lat="40.711868" lon="-1.528937">
        <ele>1231.6</ele>
        <time>2012-08-18T11:12:23Z</time>
      </trkpt>
      <trkpt lat="40.711809" lon="-1.528868">
        <ele>1231.6</ele>
        <time>2012-08-18T11:12:28Z</time>
      </trkpt>
      <trkpt lat="40.711808" lon="-1.528868">
        <ele>1231.6</ele>
        <time>2012-08-18T11:12:29Z</time>
      </trkpt>
      <trkpt lat="40.711808" lon="-1.528869">
        <ele>1231.6</ele>
        <time>2012-08-18T11:12:30Z</time>
      </trkpt>
      <trkpt lat="40.711865" lon="-1.528818">
        <ele>1231.6</ele>
        <time>2012-08-18T11:12:43Z</time>
      </trkpt>
      <trkpt lat="40.711871" lon="-1.528807">
        <ele>1231.6</ele>
        <time>2012-08-18T11:12:44Z</time>
      </trkpt>
      <trkpt lat="40.711879" lon="-1.528802">
        <ele>1231.6</ele>
        <time>2012-08-18T11:12:49Z</time>
      </trkpt>
      <trkpt lat="40.711883" lon="-1.528827">
        <ele>1230.4</ele>
        <time>2012-08-18T11:12:54Z</time>
      </trkpt>
      <trkpt lat="40.711883" lon="-1.528827">
        <ele>1230.0</ele>
        <time>2012-08-18T11:12:55Z</time>
      </trkpt>
      <trkpt lat="40.711832" lon="-1.528870">
        <ele>1229.6</ele>
        <time>2012-08-18T11:13:07Z</time>
      </trkpt>
      <trkpt lat="40.711837" lon="-1.528875">
        <ele>1229.6</ele>
        <time>2012-08-18T11:13:09Z</time>
      </trkpt>
      <trkpt lat="40.711840" lon="-1.528882">
        <ele>1229.6</ele>
        <time>2012-08-18T11:13:10Z</time>
      </trkpt>
      <trkpt lat="40.711856" lon="-1.528911">
        <ele>1229.6</ele>
        <time>2012-08-18T11:13:13Z</time>
      </trkpt>
      <trkpt lat="40.711855" lon="-1.528921">
        <ele>1229.6</ele>
        <time>2012-08-18T11:13:14Z</time>
      </trkpt>
      <trkpt lat="40.711844" lon="-1.528936">
        <ele>1229.6</ele>
        <time>2012-08-18T11:13:16Z</time>
      </trkpt>
      <trkpt lat="40.711830" lon="-1.528944">
        <ele>1229.6</ele>
        <time>2012-08-18T11:13:20Z</time>
      </trkpt>
      <trkpt lat="40.711808" lon="-1.528939">
        <ele>1229.6</ele>
        <time>2012-08-18T11:13:23Z</time>
      </trkpt>
      <trkpt lat="40.711799" lon="-1.528931">
        <ele>1229.6</ele>
        <time>2012-08-18T11:13:24Z</time>
      </trkpt>
      <trkpt lat="40.711758" lon="-1.528900">
        <ele>1229.6</ele>
        <time>2012-08-18T11:13:29Z</time>
      </trkpt>
      <trkpt lat="40.711753" lon="-1.528893">
        <ele>1229.6</ele>
        <time>2012-08-18T11:13:30Z</time>
      </trkpt>
      <trkpt lat="40.711727" lon="-1.528825">
        <ele>1229.6</ele>
        <time>2012-08-18T11:13:36Z</time>
      </trkpt>
      <trkpt lat="40.711725" lon="-1.528804">
        <ele>1229.6</ele>
        <time>2012-08-18T11:13:39Z</time>
      </trkpt>
      <trkpt lat="40.711728" lon="-1.528792">
        <ele>1229.6</ele>
        <time>2012-08-18T11:13:44Z</time>
      </trkpt>
      <trkpt lat="40.711696" lon="-1.528754">
        <ele>1229.6</ele>
        <time>2012-08-18T11:13:49Z</time>
      </trkpt>
      <trkpt lat="40.711655" lon="-1.528724">
        <ele>1229.6</ele>
        <time>2012-08-18T11:13:51Z</time>
      </trkpt>
      <trkpt lat="40.711635" lon="-1.528708">
        <ele>1229.6</ele>
        <time>2012-08-18T11:13:52Z</time>
      </trkpt>
      <trkpt lat="40.711522" lon="-1.528590">
        <ele>1229.6</ele>
        <time>2012-08-18T11:13:58Z</time>
      </trkpt>
      <trkpt lat="40.711387" lon="-1.528470">
        <ele>1229.6</ele>
        <time>2012-08-18T11:14:05Z</time>
      </trkpt>
      <trkpt lat="40.711262" lon="-1.528359">
        <ele>1229.6</ele>
        <time>2012-08-18T11:14:11Z</time>
      </trkpt>
      <trkpt lat="40.711160" lon="-1.528265">
        <ele>1230.0</ele>
        <time>2012-08-18T11:14:16Z</time>
      </trkpt>
      <trkpt lat="40.711141" lon="-1.528247">
        <ele>1230.4</ele>
        <time>2012-08-18T11:14:17Z</time>
      </trkpt>
      <trkpt lat="40.711123" lon="-1.528226">
        <ele>1230.8</ele>
        <time>2012-08-18T11:14:18Z</time>
      </trkpt>
      <trkpt lat="40.711101" lon="-1.528207">
        <ele>1231.4</ele>
        <time>2012-08-18T11:14:19Z</time>
      </trkpt>
      <trkpt lat="40.711079" lon="-1.528187">
        <ele>1231.8</ele>
        <time>2012-08-18T11:14:20Z</time>
      </trkpt>
      <trkpt lat="40.710969" lon="-1.528085">
        <ele>1231.8</ele>
        <time>2012-08-18T11:14:25Z</time>
      </trkpt>
      <trkpt lat="40.710790" lon="-1.527944">
        <ele>1231.8</ele>
        <time>2012-08-18T11:14:33Z</time>
      </trkpt>
      <trkpt lat="40.710584" lon="-1.527785">
        <ele>1231.8</ele>
        <time>2012-08-18T11:14:42Z</time>
      </trkpt>
      <trkpt lat="40.710440" lon="-1.527659">
        <ele>1231.8</ele>
        <time>2012-08-18T11:14:48Z</time>
      </trkpt>
      <trkpt lat="40.710271" lon="-1.527499">
        <ele>1231.8</ele>
        <time>2012-08-18T11:14:55Z</time>
      </trkpt>
      <trkpt lat="40.710063" lon="-1.527321">
        <ele>1231.8</ele>
        <time>2012-08-18T11:15:04Z</time>
      </trkpt>
      <trkpt lat="40.709851" lon="-1.527127">
        <ele>1231.8</ele>
        <time>2012-08-18T11:15:13Z</time>
      </trkpt>
      <trkpt lat="40.709805" lon="-1.527082">
        <ele>1232.2</ele>
        <time>2012-08-18T11:15:15Z</time>
      </trkpt>
      <trkpt lat="40.709781" lon="-1.527061">
        <ele>1232.6</ele>
        <time>2012-08-18T11:15:16Z</time>
      </trkpt>
      <trkpt lat="40.709759" lon="-1.527037">
        <ele>1233.0</ele>
        <time>2012-08-18T11:15:17Z</time>
      </trkpt>
      <trkpt lat="40.709734" lon="-1.527015">
        <ele>1233.4</ele>
        <time>2012-08-18T11:15:18Z</time>
      </trkpt>
      <trkpt lat="40.709709" lon="-1.526995">
        <ele>1233.8</ele>
        <time>2012-08-18T11:15:19Z</time>
      </trkpt>
      <trkpt lat="40.709661" lon="-1.526944">
        <ele>1233.8</ele>
        <time>2012-08-18T11:15:21Z</time>
      </trkpt>
      <trkpt lat="40.709536" lon="-1.526826">
        <ele>1233.8</ele>
        <time>2012-08-18T11:15:27Z</time>
      </trkpt>
      <trkpt lat="40.709463" lon="-1.526766">
        <ele>1233.8</ele>
        <time>2012-08-18T11:15:33Z</time>
      </trkpt>
      <trkpt lat="40.709464" lon="-1.526768">
        <ele>1233.8</ele>
        <time>2012-08-18T11:15:34Z</time>
      </trkpt>
      <trkpt lat="40.709463" lon="-1.526769">
        <ele>1233.8</ele>
        <time>2012-08-18T11:15:36Z</time>
      </trkpt>
      <trkpt lat="40.709392" lon="-1.526727">
        <ele>1233.8</ele>
        <time>2012-08-18T11:16:52Z</time>
      </trkpt>
      <trkpt lat="40.709372" lon="-1.526718">
        <ele>1233.8</ele>
        <time>2012-08-18T11:16:53Z</time>
      </trkpt>
      <trkpt lat="40.709357" lon="-1.526701">
        <ele>1233.8</ele>
        <time>2012-08-18T11:16:54Z</time>
      </trkpt>
      <trkpt lat="40.709275" lon="-1.526630">
        <ele>1233.8</ele>
        <time>2012-08-18T11:16:58Z</time>
      </trkpt>
      <trkpt lat="40.709151" lon="-1.526510">
        <ele>1233.8</ele>
        <time>2012-08-18T11:17:04Z</time>
      </trkpt>
      <trkpt lat="40.709013" lon="-1.526374">
        <ele>1233.8</ele>
        <time>2012-08-18T11:17:10Z</time>
      </trkpt>
      <trkpt lat="40.708911" lon="-1.526259">
        <ele>1233.8</ele>
        <time>2012-08-18T11:17:15Z</time>
      </trkpt>
      <trkpt lat="40.708736" lon="-1.526118">
        <ele>1233.8</ele>
        <time>2012-08-18T11:17:22Z</time>
      </trkpt>
      <trkpt lat="40.708508" lon="-1.525921">
        <ele>1233.8</ele>
        <time>2012-08-18T11:17:31Z</time>
      </trkpt>
      <trkpt lat="40.708258" lon="-1.525712">
        <ele>1233.8</ele>
        <time>2012-08-18T11:17:40Z</time>
      </trkpt>
      <trkpt lat="40.708048" lon="-1.525525">
        <ele>1233.8</ele>
        <time>2012-08-18T11:17:47Z</time>
      </trkpt>
      <trkpt lat="40.707818" lon="-1.525341">
        <ele>1233.4</ele>
        <time>2012-08-18T11:17:54Z</time>
      </trkpt>
      <trkpt lat="40.707788" lon="-1.525313">
        <ele>1233.0</ele>
        <time>2012-08-18T11:17:55Z</time>
      </trkpt>
      <trkpt lat="40.707756" lon="-1.525287">
        <ele>1232.6</ele>
        <time>2012-08-18T11:17:56Z</time>
      </trkpt>
      <trkpt lat="40.707727" lon="-1.525256">
        <ele>1232.0</ele>
        <time>2012-08-18T11:17:57Z</time>
      </trkpt>
      <trkpt lat="40.707697" lon="-1.525224">
        <ele>1231.6</ele>
        <time>2012-08-18T11:17:58Z</time>
      </trkpt>
      <trkpt lat="40.707593" lon="-1.525146">
        <ele>1231.6</ele>
        <time>2012-08-18T11:18:01Z</time>
      </trkpt>
      <trkpt lat="40.707438" lon="-1.524989">
        <ele>1231.6</ele>
        <time>2012-08-18T11:18:07Z</time>
      </trkpt>
      <trkpt lat="40.707269" lon="-1.524847">
        <ele>1231.6</ele>
        <time>2012-08-18T11:18:14Z</time>
      </trkpt>
      <trkpt lat="40.707088" lon="-1.524697">
        <ele>1231.6</ele>
        <time>2012-08-18T11:18:22Z</time>
      </trkpt>
      <trkpt lat="40.706899" lon="-1.524544">
        <ele>1231.6</ele>
        <time>2012-08-18T11:18:30Z</time>
      </trkpt>
      <trkpt lat="40.706738" lon="-1.524388">
        <ele>1231.6</ele>
        <time>2012-08-18T11:18:36Z</time>
      </trkpt>
      <trkpt lat="40.706601" lon="-1.524269">
        <ele>1231.6</ele>
        <time>2012-08-18T11:18:40Z</time>
      </trkpt>
      <trkpt lat="40.706507" lon="-1.524186">
        <ele>1231.6</ele>
        <time>2012-08-18T11:18:42Z</time>
      </trkpt>
      <trkpt lat="40.706407" lon="-1.524097">
        <ele>1231.2</ele>
        <time>2012-08-18T11:18:44Z</time>
      </trkpt>
      <trkpt lat="40.706354" lon="-1.524056">
        <ele>1230.8</ele>
        <time>2012-08-18T11:18:45Z</time>
      </trkpt>
      <trkpt lat="40.706303" lon="-1.524013">
        <ele>1230.4</ele>
        <time>2012-08-18T11:18:46Z</time>
      </trkpt>
      <trkpt lat="40.706252" lon="-1.523967">
        <ele>1229.8</ele>
        <time>2012-08-18T11:18:47Z</time>
      </trkpt>
      <trkpt lat="40.706202" lon="-1.523923">
        <ele>1229.4</ele>
        <time>2012-08-18T11:18:48Z</time>
      </trkpt>
      <trkpt lat="40.706151" lon="-1.523874">
        <ele>1229.4</ele>
        <time>2012-08-18T11:18:49Z</time>
      </trkpt>
      <trkpt lat="40.705787" lon="-1.523540">
        <ele>1229.4</ele>
        <time>2012-08-18T11:18:57Z</time>
      </trkpt>
      <trkpt lat="40.705611" lon="-1.523405">
        <ele>1229.0</ele>
        <time>2012-08-18T11:19:01Z</time>
      </trkpt>
      <trkpt lat="40.705570" lon="-1.523366">
        <ele>1228.6</ele>
        <time>2012-08-18T11:19:02Z</time>
      </trkpt>
      <trkpt lat="40.705531" lon="-1.523327">
        <ele>1228.2</ele>
        <time>2012-08-18T11:19:03Z</time>
      </trkpt>
      <trkpt lat="40.705492" lon="-1.523291">
        <ele>1227.8</ele>
        <time>2012-08-18T11:19:04Z</time>
      </trkpt>
      <trkpt lat="40.705450" lon="-1.523259">
        <ele>1227.4</ele>
        <time>2012-08-18T11:19:05Z</time>
      </trkpt>
      <trkpt lat="40.705256" lon="-1.523102">
        <ele>1227.4</ele>
        <time>2012-08-18T11:19:10Z</time>
      </trkpt>
      <trkpt lat="40.704971" lon="-1.522859">
        <ele>1227.4</ele>
        <time>2012-08-18T11:19:18Z</time>
      </trkpt>
      <trkpt lat="40.704719" lon="-1.522656">
        <ele>1227.4</ele>
        <time>2012-08-18T11:19:25Z</time>
      </trkpt>
      <trkpt lat="40.704539" lon="-1.522505">
        <ele>1227.0</ele>
        <time>2012-08-18T11:19:29Z</time>
      </trkpt>
      <trkpt lat="40.704491" lon="-1.522457">
        <ele>1226.6</ele>
        <time>2012-08-18T11:19:30Z</time>
      </trkpt>
      <trkpt lat="40.704443" lon="-1.522406">
        <ele>1226.0</ele>
        <time>2012-08-18T11:19:31Z</time>
      </trkpt>
      <trkpt lat="40.704393" lon="-1.522357">
        <ele>1225.6</ele>
        <time>2012-08-18T11:19:32Z</time>
      </trkpt>
      <trkpt lat="40.704343" lon="-1.522315">
        <ele>1225.2</ele>
        <time>2012-08-18T11:19:33Z</time>
      </trkpt>
      <trkpt lat="40.704155" lon="-1.522173">
        <ele>1225.2</ele>
        <time>2012-08-18T11:19:37Z</time>
      </trkpt>
      <trkpt lat="40.703907" lon="-1.521966">
        <ele>1225.2</ele>
        <time>2012-08-18T11:19:43Z</time>
      </trkpt>
      <trkpt lat="40.703769" lon="-1.521821">
        <ele>1225.2</ele>
        <time>2012-08-18T11:19:48Z</time>
      </trkpt>
      <trkpt lat="40.703597" lon="-1.521658">
        <ele>1225.2</ele>
        <time>2012-08-18T11:19:55Z</time>
      </trkpt>
      <trkpt lat="40.703391" lon="-1.521496">
        <ele>1225.2</ele>
        <time>2012-08-18T11:20:03Z</time>
      </trkpt>
      <trkpt lat="40.703222" lon="-1.521328">
        <ele>1225.2</ele>
        <time>2012-08-18T11:20:10Z</time>
      </trkpt>
      <trkpt lat="40.703015" lon="-1.521156">
        <ele>1225.2</ele>
        <time>2012-08-18T11:20:18Z</time>
      </trkpt>
      <trkpt lat="40.702833" lon="-1.520995">
        <ele>1225.2</ele>
        <time>2012-08-18T11:20:25Z</time>
      </trkpt>
      <trkpt lat="40.702810" lon="-1.520972">
        <ele>1225.6</ele>
        <time>2012-08-18T11:20:26Z</time>
      </trkpt>
      <trkpt lat="40.702789" lon="-1.520953">
        <ele>1226.2</ele>
        <time>2012-08-18T11:20:27Z</time>
      </trkpt>
      <trkpt lat="40.702768" lon="-1.520932">
        <ele>1226.6</ele>
        <time>2012-08-18T11:20:28Z</time>
      </trkpt>
      <trkpt lat="40.702745" lon="-1.520912">
        <ele>1227.0</ele>
        <time>2012-08-18T11:20:29Z</time>
      </trkpt>
      <trkpt lat="40.702720" lon="-1.520890">
        <ele>1227.4</ele>
        <time>2012-08-18T11:20:30Z</time>
      </trkpt>
      <trkpt lat="40.702591" lon="-1.520777">
        <ele>1227.4</ele>
        <time>2012-08-18T11:20:35Z</time>
      </trkpt>
      <trkpt lat="40.702390" lon="-1.520604">
        <ele>1227.4</ele>
        <time>2012-08-18T11:20:43Z</time>
      </trkpt>
      <trkpt lat="40.702276" lon="-1.520517">
        <ele>1227.4</ele>
        <time>2012-08-18T11:20:49Z</time>
      </trkpt>
      <trkpt lat="40.702219" lon="-1.520479">
        <ele>1227.4</ele>
        <time>2012-08-18T11:20:52Z</time>
      </trkpt>
      <trkpt lat="40.702200" lon="-1.520466">
        <ele>1227.4</ele>
        <time>2012-08-18T11:20:53Z</time>
      </trkpt>
      <trkpt lat="40.702100" lon="-1.520382">
        <ele>1227.4</ele>
        <time>2012-08-18T11:20:59Z</time>
      </trkpt>
      <trkpt lat="40.702037" lon="-1.520334">
        <ele>1227.4</ele>
        <time>2012-08-18T11:21:05Z</time>
      </trkpt>
      <trkpt lat="40.702036" lon="-1.520334">
        <ele>1227.4</ele>
        <time>2012-08-18T11:21:06Z</time>
      </trkpt>
      <trkpt lat="40.702037" lon="-1.520334">
        <ele>1227.4</ele>
        <time>2012-08-18T11:21:10Z</time>
      </trkpt>
      <trkpt lat="40.702121" lon="-1.520258">
        <ele>1227.4</ele>
        <time>2012-08-18T11:21:54Z</time>
      </trkpt>
      <trkpt lat="40.702139" lon="-1.520235">
        <ele>1227.4</ele>
        <time>2012-08-18T11:21:55Z</time>
      </trkpt>
      <trkpt lat="40.702252" lon="-1.520023">
        <ele>1227.4</ele>
        <time>2012-08-18T11:22:02Z</time>
      </trkpt>
      <trkpt lat="40.702350" lon="-1.519793">
        <ele>1227.4</ele>
        <time>2012-08-18T11:22:07Z</time>
      </trkpt>
      <trkpt lat="40.702374" lon="-1.519742">
        <ele>1227.0</ele>
        <time>2012-08-18T11:22:08Z</time>
      </trkpt>
      <trkpt lat="40.702397" lon="-1.519687">
        <ele>1226.6</ele>
        <time>2012-08-18T11:22:09Z</time>
      </trkpt>
      <trkpt lat="40.702416" lon="-1.519633">
        <ele>1226.2</ele>
        <time>2012-08-18T11:22:10Z</time>
      </trkpt>
      <trkpt lat="40.702435" lon="-1.519584">
        <ele>1225.8</ele>
        <time>2012-08-18T11:22:11Z</time>
      </trkpt>
      <trkpt lat="40.702456" lon="-1.519532">
        <ele>1225.4</ele>
        <time>2012-08-18T11:22:12Z</time>
      </trkpt>
      <trkpt lat="40.702499" lon="-1.519426">
        <ele>1225.4</ele>
        <time>2012-08-18T11:22:14Z</time>
      </trkpt>
      <trkpt lat="40.702566" lon="-1.519283">
        <ele>1225.0</ele>
        <time>2012-08-18T11:22:17Z</time>
      </trkpt>
      <trkpt lat="40.702587" lon="-1.519239">
        <ele>1224.6</ele>
        <time>2012-08-18T11:22:18Z</time>
      </trkpt>
      <trkpt lat="40.702607" lon="-1.519198">
        <ele>1224.2</ele>
        <time>2012-08-18T11:22:19Z</time>
      </trkpt>
      <trkpt lat="40.702622" lon="-1.519155">
        <ele>1223.8</ele>
        <time>2012-08-18T11:22:20Z</time>
      </trkpt>
      <trkpt lat="40.702640" lon="-1.519113">
        <ele>1223.4</ele>
        <time>2012-08-18T11:22:21Z</time>
      </trkpt>
      <trkpt lat="40.702795" lon="-1.518729">
        <ele>1223.4</ele>
        <time>2012-08-18T11:22:30Z</time>
      </trkpt>
      <trkpt lat="40.702837" lon="-1.518645">
        <ele>1223.0</ele>
        <time>2012-08-18T11:22:32Z</time>
      </trkpt>
      <trkpt lat="40.702856" lon="-1.518603">
        <ele>1222.6</ele>
        <time>2012-08-18T11:22:33Z</time>
      </trkpt>
      <trkpt lat="40.702876" lon="-1.518560">
        <ele>1222.0</ele>
        <time>2012-08-18T11:22:34Z</time>
      </trkpt>
      <trkpt lat="40.702898" lon="-1.518518">
        <ele>1221.6</ele>
        <time>2012-08-18T11:22:35Z</time>
      </trkpt>
      <trkpt lat="40.702920" lon="-1.518475">
        <ele>1221.2</ele>
        <time>2012-08-18T11:22:36Z</time>
      </trkpt>
      <trkpt lat="40.702981" lon="-1.518341">
        <ele>1221.2</ele>
        <time>2012-08-18T11:22:39Z</time>
      </trkpt>
      <trkpt lat="40.703066" lon="-1.518113">
        <ele>1221.2</ele>
        <time>2012-08-18T11:22:45Z</time>
      </trkpt>
      <trkpt lat="40.703151" lon="-1.517833">
        <ele>1221.2</ele>
        <time>2012-08-18T11:22:52Z</time>
      </trkpt>
      <trkpt lat="40.703164" lon="-1.517796">
        <ele>1220.8</ele>
        <time>2012-08-18T11:22:53Z</time>
      </trkpt>
      <trkpt lat="40.703178" lon="-1.517758">
        <ele>1220.4</ele>
        <time>2012-08-18T11:22:54Z</time>
      </trkpt>
      <trkpt lat="40.703189" lon="-1.517719">
        <ele>1220.0</ele>
        <time>2012-08-18T11:22:55Z</time>
      </trkpt>
      <trkpt lat="40.703205" lon="-1.517687">
        <ele>1219.4</ele>
        <time>2012-08-18T11:22:56Z</time>
      </trkpt>
      <trkpt lat="40.703216" lon="-1.517654">
        <ele>1219.0</ele>
        <time>2012-08-18T11:22:57Z</time>
      </trkpt>
      <trkpt lat="40.703225" lon="-1.517618">
        <ele>1219.0</ele>
        <time>2012-08-18T11:22:58Z</time>
      </trkpt>
      <trkpt lat="40.703244" lon="-1.517505">
        <ele>1219.0</ele>
        <time>2012-08-18T11:23:03Z</time>
      </trkpt>
      <trkpt lat="40.703177" lon="-1.517395">
        <ele>1219.0</ele>
        <time>2012-08-18T11:23:08Z</time>
      </trkpt>
      <trkpt lat="40.703067" lon="-1.517296">
        <ele>1219.0</ele>
        <time>2012-08-18T11:23:13Z</time>
      </trkpt>
      <trkpt lat="40.702964" lon="-1.517227">
        <ele>1219.0</ele>
        <time>2012-08-18T11:23:18Z</time>
      </trkpt>
      <trkpt lat="40.702899" lon="-1.517095">
        <ele>1219.0</ele>
        <time>2012-08-18T11:23:23Z</time>
      </trkpt>
      <trkpt lat="40.702942" lon="-1.517043">
        <ele>1219.0</ele>
        <time>2012-08-18T11:23:27Z</time>
      </trkpt>
      <trkpt lat="40.702910" lon="-1.517003">
        <ele>1219.0</ele>
        <time>2012-08-18T11:23:30Z</time>
      </trkpt>
      <trkpt lat="40.702873" lon="-1.516968">
        <ele>1219.0</ele>
        <time>2012-08-18T11:23:33Z</time>
      </trkpt>
      <trkpt lat="40.702818" lon="-1.516897">
        <ele>1219.0</ele>
        <time>2012-08-18T11:23:37Z</time>
      </trkpt>
      <trkpt lat="40.702717" lon="-1.516804">
        <ele>1219.0</ele>
        <time>2012-08-18T11:23:43Z</time>
      </trkpt>
      <trkpt lat="40.702611" lon="-1.516706">
        <ele>1219.0</ele>
        <time>2012-08-18T11:23:49Z</time>
      </trkpt>
      <trkpt lat="40.702438" lon="-1.516539">
        <ele>1219.0</ele>
        <time>2012-08-18T11:23:57Z</time>
      </trkpt>
      <trkpt lat="40.702255" lon="-1.516336">
        <ele>1219.0</ele>
        <time>2012-08-18T11:24:04Z</time>
      </trkpt>
      <trkpt lat="40.702017" lon="-1.516102">
        <ele>1219.0</ele>
        <time>2012-08-18T11:24:12Z</time>
      </trkpt>
      <trkpt lat="40.701787" lon="-1.515850">
        <ele>1219.0</ele>
        <time>2012-08-18T11:24:20Z</time>
      </trkpt>
      <trkpt lat="40.701589" lon="-1.515651">
        <ele>1219.0</ele>
        <time>2012-08-18T11:24:27Z</time>
      </trkpt>
      <trkpt lat="40.701302" lon="-1.515382">
        <ele>1219.0</ele>
        <time>2012-08-18T11:24:35Z</time>
      </trkpt>
      <trkpt lat="40.700949" lon="-1.515027">
        <ele>1219.0</ele>
        <time>2012-08-18T11:24:44Z</time>
      </trkpt>
      <trkpt lat="40.700656" lon="-1.514745">
        <ele>1219.0</ele>
        <time>2012-08-18T11:24:52Z</time>
      </trkpt>
      <trkpt lat="40.700378" lon="-1.514544">
        <ele>1219.0</ele>
        <time>2012-08-18T11:24:59Z</time>
      </trkpt>
      <trkpt lat="40.700336" lon="-1.514521">
        <ele>1219.0</ele>
        <time>2012-08-18T11:25:00Z</time>
      </trkpt>
      <trkpt lat="40.700028" lon="-1.514345">
        <ele>1219.0</ele>
        <time>2012-08-18T11:25:07Z</time>
      </trkpt>
      <trkpt lat="40.699701" lon="-1.514171">
        <ele>1219.0</ele>
        <time>2012-08-18T11:25:15Z</time>
      </trkpt>
      <trkpt lat="40.699403" lon="-1.514002">
        <ele>1219.0</ele>
        <time>2012-08-18T11:25:23Z</time>
      </trkpt>
      <trkpt lat="40.699161" lon="-1.513865">
        <ele>1219.0</ele>
        <time>2012-08-18T11:25:30Z</time>
      </trkpt>
      <trkpt lat="40.698991" lon="-1.513786">
        <ele>1219.0</ele>
        <time>2012-08-18T11:25:37Z</time>
      </trkpt>
      <trkpt lat="40.698925" lon="-1.513761">
        <ele>1219.0</ele>
        <time>2012-08-18T11:26:01Z</time>
      </trkpt>
      <trkpt lat="40.698859" lon="-1.513724">
        <ele>1219.0</ele>
        <time>2012-08-18T11:26:04Z</time>
      </trkpt>
      <trkpt lat="40.698634" lon="-1.513607">
        <ele>1219.0</ele>
        <time>2012-08-18T11:26:11Z</time>
      </trkpt>
      <trkpt lat="40.698345" lon="-1.513451">
        <ele>1219.0</ele>
        <time>2012-08-18T11:26:19Z</time>
      </trkpt>
      <trkpt lat="40.697998" lon="-1.513263">
        <ele>1219.0</ele>
        <time>2012-08-18T11:26:28Z</time>
      </trkpt>
      <trkpt lat="40.697689" lon="-1.513092">
        <ele>1219.0</ele>
        <time>2012-08-18T11:26:36Z</time>
      </trkpt>
      <trkpt lat="40.697420" lon="-1.512954">
        <ele>1219.0</ele>
        <time>2012-08-18T11:26:43Z</time>
      </trkpt>
      <trkpt lat="40.697165" lon="-1.512803">
        <ele>1219.0</ele>
        <time>2012-08-18T11:26:50Z</time>
      </trkpt>
      <trkpt lat="40.696915" lon="-1.512610">
        <ele>1219.0</ele>
        <time>2012-08-18T11:26:57Z</time>
      </trkpt>
      <trkpt lat="40.696877" lon="-1.512574">
        <ele>1219.0</ele>
        <time>2012-08-18T11:26:58Z</time>
      </trkpt>
      <trkpt lat="40.696679" lon="-1.512358">
        <ele>1219.0</ele>
        <time>2012-08-18T11:27:03Z</time>
      </trkpt>
      <trkpt lat="40.696592" lon="-1.512268">
        <ele>1219.0</ele>
        <time>2012-08-18T11:27:05Z</time>
      </trkpt>
      <trkpt lat="40.696507" lon="-1.512184">
        <ele>1219.0</ele>
        <time>2012-08-18T11:27:07Z</time>
      </trkpt>
      <trkpt lat="40.696384" lon="-1.512057">
        <ele>1219.0</ele>
        <time>2012-08-18T11:27:10Z</time>
      </trkpt>
      <trkpt lat="40.696060" lon="-1.511733">
        <ele>1219.4</ele>
        <time>2012-08-18T11:27:19Z</time>
      </trkpt>
      <trkpt lat="40.696028" lon="-1.511701">
        <ele>1220.0</ele>
        <time>2012-08-18T11:27:20Z</time>
      </trkpt>
      <trkpt lat="40.695999" lon="-1.511662">
        <ele>1220.4</ele>
        <time>2012-08-18T11:27:21Z</time>
      </trkpt>
      <trkpt lat="40.695966" lon="-1.511633">
        <ele>1220.8</ele>
        <time>2012-08-18T11:27:22Z</time>
      </trkpt>
      <trkpt lat="40.695933" lon="-1.511607">
        <ele>1221.2</ele>
        <time>2012-08-18T11:27:23Z</time>
      </trkpt>
      <trkpt lat="40.695870" lon="-1.511540">
        <ele>1221.2</ele>
        <time>2012-08-18T11:27:25Z</time>
      </trkpt>
      <trkpt lat="40.695844" lon="-1.511508">
        <ele>1221.6</ele>
        <time>2012-08-18T11:27:26Z</time>
      </trkpt>
      <trkpt lat="40.695816" lon="-1.511478">
        <ele>1222.0</ele>
        <time>2012-08-18T11:27:27Z</time>
      </trkpt>
      <trkpt lat="40.695787" lon="-1.511447">
        <ele>1222.4</ele>
        <time>2012-08-18T11:27:28Z</time>
      </trkpt>
      <trkpt lat="40.695754" lon="-1.511415">
        <ele>1222.8</ele>
        <time>2012-08-18T11:27:29Z</time>
      </trkpt>
      <trkpt lat="40.695723" lon="-1.511380">
        <ele>1223.4</ele>
        <time>2012-08-18T11:27:30Z</time>
      </trkpt>
      <trkpt lat="40.695630" lon="-1.511282">
        <ele>1223.4</ele>
        <time>2012-08-18T11:27:33Z</time>
      </trkpt>
      <trkpt lat="40.695568" lon="-1.511213">
        <ele>1223.8</ele>
        <time>2012-08-18T11:27:35Z</time>
      </trkpt>
      <trkpt lat="40.695538" lon="-1.511181">
        <ele>1224.2</ele>
        <time>2012-08-18T11:27:36Z</time>
      </trkpt>
      <trkpt lat="40.695509" lon="-1.511149">
        <ele>1224.6</ele>
        <time>2012-08-18T11:27:37Z</time>
      </trkpt>
      <trkpt lat="40.695480" lon="-1.511118">
        <ele>1225.0</ele>
        <time>2012-08-18T11:27:38Z</time>
      </trkpt>
      <trkpt lat="40.695448" lon="-1.511078">
        <ele>1225.4</ele>
        <time>2012-08-18T11:27:39Z</time>
      </trkpt>
      <trkpt lat="40.695322" lon="-1.510954">
        <ele>1225.4</ele>
        <time>2012-08-18T11:27:43Z</time>
      </trkpt>
      <trkpt lat="40.695029" lon="-1.510677">
        <ele>1225.4</ele>
        <time>2012-08-18T11:27:52Z</time>
      </trkpt>
      <trkpt lat="40.694998" lon="-1.510644">
        <ele>1225.4</ele>
        <time>2012-08-18T11:27:53Z</time>
      </trkpt>
      <trkpt lat="40.694728" lon="-1.510397">
        <ele>1225.4</ele>
        <time>2012-08-18T11:28:02Z</time>
      </trkpt>
      <trkpt lat="40.694605" lon="-1.510284">
        <ele>1225.8</ele>
        <time>2012-08-18T11:28:06Z</time>
      </trkpt>
      <trkpt lat="40.694578" lon="-1.510259">
        <ele>1226.2</ele>
        <time>2012-08-18T11:28:07Z</time>
      </trkpt>
      <trkpt lat="40.694549" lon="-1.510238">
        <ele>1226.6</ele>
        <time>2012-08-18T11:28:08Z</time>
      </trkpt>
      <trkpt lat="40.694520" lon="-1.510220">
        <ele>1227.0</ele>
        <time>2012-08-18T11:28:09Z</time>
      </trkpt>
      <trkpt lat="40.694494" lon="-1.510193">
        <ele>1227.4</ele>
        <time>2012-08-18T11:28:10Z</time>
      </trkpt>
      <trkpt lat="40.694464" lon="-1.510167">
        <ele>1227.4</ele>
        <time>2012-08-18T11:28:11Z</time>
      </trkpt>
      <trkpt lat="40.694195" lon="-1.509916">
        <ele>1227.4</ele>
        <time>2012-08-18T11:28:20Z</time>
      </trkpt>
      <trkpt lat="40.694155" lon="-1.509890">
        <ele>1227.4</ele>
        <time>2012-08-18T11:28:21Z</time>
      </trkpt>
      <trkpt lat="40.693960" lon="-1.509704">
        <ele>1227.4</ele>
        <time>2012-08-18T11:28:26Z</time>
      </trkpt>
      <trkpt lat="40.693915" lon="-1.509666">
        <ele>1227.4</ele>
        <time>2012-08-18T11:28:27Z</time>
      </trkpt>
      <trkpt lat="40.693704" lon="-1.509482">
        <ele>1227.4</ele>
        <time>2012-08-18T11:28:32Z</time>
      </trkpt>
      <trkpt lat="40.693521" lon="-1.509310">
        <ele>1227.0</ele>
        <time>2012-08-18T11:28:36Z</time>
      </trkpt>
      <trkpt lat="40.693473" lon="-1.509265">
        <ele>1226.6</ele>
        <time>2012-08-18T11:28:37Z</time>
      </trkpt>
      <trkpt lat="40.693426" lon="-1.509225">
        <ele>1226.2</ele>
        <time>2012-08-18T11:28:38Z</time>
      </trkpt>
      <trkpt lat="40.693381" lon="-1.509187">
        <ele>1225.8</ele>
        <time>2012-08-18T11:28:39Z</time>
      </trkpt>
      <trkpt lat="40.693334" lon="-1.509146">
        <ele>1225.2</ele>
        <time>2012-08-18T11:28:40Z</time>
      </trkpt>
      <trkpt lat="40.693286" lon="-1.509102">
        <ele>1225.2</ele>
        <time>2012-08-18T11:28:41Z</time>
      </trkpt>
      <trkpt lat="40.692887" lon="-1.508735">
        <ele>1225.2</ele>
        <time>2012-08-18T11:28:49Z</time>
      </trkpt>
      <trkpt lat="40.692666" lon="-1.508541">
        <ele>1224.8</ele>
        <time>2012-08-18T11:28:53Z</time>
      </trkpt>
      <trkpt lat="40.692613" lon="-1.508495">
        <ele>1224.4</ele>
        <time>2012-08-18T11:28:54Z</time>
      </trkpt>
      <trkpt lat="40.692562" lon="-1.508442">
        <ele>1224.0</ele>
        <time>2012-08-18T11:28:55Z</time>
      </trkpt>
      <trkpt lat="40.692500" lon="-1.508385">
        <ele>1223.6</ele>
        <time>2012-08-18T11:28:56Z</time>
      </trkpt>
      <trkpt lat="40.692444" lon="-1.508336">
        <ele>1223.2</ele>
        <time>2012-08-18T11:28:57Z</time>
      </trkpt>
      <trkpt lat="40.692044" lon="-1.507989">
        <ele>1222.8</ele>
        <time>2012-08-18T11:29:04Z</time>
      </trkpt>
      <trkpt lat="40.691986" lon="-1.507937">
        <ele>1222.2</ele>
        <time>2012-08-18T11:29:05Z</time>
      </trkpt>
      <trkpt lat="40.691924" lon="-1.507878">
        <ele>1221.8</ele>
        <time>2012-08-18T11:29:06Z</time>
      </trkpt>
      <trkpt lat="40.691865" lon="-1.507824">
        <ele>1221.4</ele>
        <time>2012-08-18T11:29:07Z</time>
      </trkpt>
      <trkpt lat="40.691805" lon="-1.507772">
        <ele>1221.0</ele>
        <time>2012-08-18T11:29:08Z</time>
      </trkpt>
      <trkpt lat="40.691452" lon="-1.507471">
        <ele>1221.0</ele>
        <time>2012-08-18T11:29:14Z</time>
      </trkpt>
      <trkpt lat="40.691336" lon="-1.507369">
        <ele>1220.6</ele>
        <time>2012-08-18T11:29:16Z</time>
      </trkpt>
      <trkpt lat="40.691275" lon="-1.507313">
        <ele>1220.2</ele>
        <time>2012-08-18T11:29:17Z</time>
      </trkpt>
      <trkpt lat="40.691217" lon="-1.507261">
        <ele>1219.8</ele>
        <time>2012-08-18T11:29:18Z</time>
      </trkpt>
      <trkpt lat="40.691157" lon="-1.507206">
        <ele>1219.4</ele>
        <time>2012-08-18T11:29:19Z</time>
      </trkpt>
      <trkpt lat="40.691095" lon="-1.507151">
        <ele>1219.0</ele>
        <time>2012-08-18T11:29:20Z</time>
      </trkpt>
      <trkpt lat="40.690846" lon="-1.506928">
        <ele>1219.0</ele>
        <time>2012-08-18T11:29:24Z</time>
      </trkpt>
      <trkpt lat="40.690411" lon="-1.506546">
        <ele>1219.0</ele>
        <time>2012-08-18T11:29:32Z</time>
      </trkpt>
      <trkpt lat="40.690075" lon="-1.506254">
        <ele>1218.4</ele>
        <time>2012-08-18T11:29:38Z</time>
      </trkpt>
      <trkpt lat="40.690018" lon="-1.506202">
        <ele>1218.0</ele>
        <time>2012-08-18T11:29:39Z</time>
      </trkpt>
      <trkpt lat="40.689957" lon="-1.506150">
        <ele>1217.6</ele>
        <time>2012-08-18T11:29:40Z</time>
      </trkpt>
      <trkpt lat="40.689898" lon="-1.506100">
        <ele>1217.2</ele>
        <time>2012-08-18T11:29:41Z</time>
      </trkpt>
      <trkpt lat="40.689840" lon="-1.506048">
        <ele>1216.8</ele>
        <time>2012-08-18T11:29:42Z</time>
      </trkpt>
      <trkpt lat="40.689671" lon="-1.505842">
        <ele>1216.8</ele>
        <time>2012-08-18T11:29:45Z</time>
      </trkpt>
      <trkpt lat="40.689574" lon="-1.505683">
        <ele>1216.4</ele>
        <time>2012-08-18T11:29:47Z</time>
      </trkpt>
      <trkpt lat="40.689530" lon="-1.505597">
        <ele>1215.8</ele>
        <time>2012-08-18T11:29:48Z</time>
      </trkpt>
      <trkpt lat="40.689485" lon="-1.505508">
        <ele>1215.4</ele>
        <time>2012-08-18T11:29:49Z</time>
      </trkpt>
      <trkpt lat="40.689440" lon="-1.505421">
        <ele>1215.0</ele>
        <time>2012-08-18T11:29:50Z</time>
      </trkpt>
      <trkpt lat="40.689398" lon="-1.505331">
        <ele>1214.6</ele>
        <time>2012-08-18T11:29:51Z</time>
      </trkpt>
      <trkpt lat="40.689218" lon="-1.504975">
        <ele>1214.6</ele>
        <time>2012-08-18T11:29:55Z</time>
      </trkpt>
      <trkpt lat="40.689172" lon="-1.504885">
        <ele>1214.2</ele>
        <time>2012-08-18T11:29:56Z</time>
      </trkpt>
      <trkpt lat="40.689125" lon="-1.504795">
        <ele>1213.8</ele>
        <time>2012-08-18T11:29:57Z</time>
      </trkpt>
      <trkpt lat="40.689075" lon="-1.504706">
        <ele>1213.4</ele>
        <time>2012-08-18T11:29:58Z</time>
      </trkpt>
      <trkpt lat="40.689027" lon="-1.504623">
        <ele>1213.0</ele>
        <time>2012-08-18T11:29:59Z</time>
      </trkpt>
      <trkpt lat="40.688974" lon="-1.504533">
        <ele>1212.6</ele>
        <time>2012-08-18T11:30:00Z</time>
      </trkpt>
      <trkpt lat="40.688836" lon="-1.504280">
        <ele>1212.6</ele>
        <time>2012-08-18T11:30:03Z</time>
      </trkpt>
      <trkpt lat="40.688541" lon="-1.503719">
        <ele>1212.6</ele>
        <time>2012-08-18T11:30:10Z</time>
      </trkpt>
      <trkpt lat="40.688313" lon="-1.503326">
        <ele>1212.6</ele>
        <time>2012-08-18T11:30:16Z</time>
      </trkpt>
      <trkpt lat="40.688109" lon="-1.503001">
        <ele>1212.6</ele>
        <time>2012-08-18T11:30:22Z</time>
      </trkpt>
      <trkpt lat="40.688033" lon="-1.502897">
        <ele>1212.6</ele>
        <time>2012-08-18T11:30:24Z</time>
      </trkpt>
      <trkpt lat="40.687776" lon="-1.502655">
        <ele>1212.6</ele>
        <time>2012-08-18T11:30:30Z</time>
      </trkpt>
      <trkpt lat="40.687429" lon="-1.502394">
        <ele>1212.6</ele>
        <time>2012-08-18T11:30:38Z</time>
      </trkpt>
      <trkpt lat="40.687081" lon="-1.502126">
        <ele>1212.6</ele>
        <time>2012-08-18T11:30:46Z</time>
      </trkpt>
      <trkpt lat="40.686992" lon="-1.502065">
        <ele>1212.6</ele>
        <time>2012-08-18T11:30:48Z</time>
      </trkpt>
      <trkpt lat="40.686834" lon="-1.501938">
        <ele>1212.6</ele>
        <time>2012-08-18T11:30:52Z</time>
      </trkpt>
      <trkpt lat="40.686580" lon="-1.501734">
        <ele>1212.6</ele>
        <time>2012-08-18T11:30:59Z</time>
      </trkpt>
      <trkpt lat="40.686382" lon="-1.501577">
        <ele>1212.6</ele>
        <time>2012-08-18T11:31:04Z</time>
      </trkpt>
      <trkpt lat="40.686345" lon="-1.501541">
        <ele>1212.6</ele>
        <time>2012-08-18T11:31:05Z</time>
      </trkpt>
      <trkpt lat="40.686195" lon="-1.501414">
        <ele>1212.6</ele>
        <time>2012-08-18T11:31:09Z</time>
      </trkpt>
      <trkpt lat="40.686108" lon="-1.501373">
        <ele>1212.6</ele>
        <time>2012-08-18T11:31:11Z</time>
      </trkpt>
      <trkpt lat="40.685833" lon="-1.501252">
        <ele>1212.6</ele>
        <time>2012-08-18T11:31:17Z</time>
      </trkpt>
      <trkpt lat="40.685561" lon="-1.501174">
        <ele>1212.2</ele>
        <time>2012-08-18T11:31:22Z</time>
      </trkpt>
      <trkpt lat="40.685502" lon="-1.501160">
        <ele>1211.8</ele>
        <time>2012-08-18T11:31:23Z</time>
      </trkpt>
      <trkpt lat="40.685442" lon="-1.501145">
        <ele>1211.4</ele>
        <time>2012-08-18T11:31:24Z</time>
      </trkpt>
      <trkpt lat="40.685378" lon="-1.501133">
        <ele>1211.0</ele>
        <time>2012-08-18T11:31:25Z</time>
      </trkpt>
      <trkpt lat="40.685312" lon="-1.501121">
        <ele>1210.6</ele>
        <time>2012-08-18T11:31:26Z</time>
      </trkpt>
      <trkpt lat="40.685044" lon="-1.501082">
        <ele>1210.6</ele>
        <time>2012-08-18T11:31:30Z</time>
      </trkpt>
      <trkpt lat="40.684973" lon="-1.501082">
        <ele>1209.6</ele>
        <time>2012-08-18T11:31:31Z</time>
      </trkpt>
      <trkpt lat="40.684900" lon="-1.501082">
        <ele>1209.2</ele>
        <time>2012-08-18T11:31:32Z</time>
      </trkpt>
      <trkpt lat="40.684825" lon="-1.501080">
        <ele>1208.8</ele>
        <time>2012-08-18T11:31:33Z</time>
      </trkpt>
      <trkpt lat="40.684749" lon="-1.501078">
        <ele>1208.4</ele>
        <time>2012-08-18T11:31:34Z</time>
      </trkpt>
      <trkpt lat="40.684523" lon="-1.501070">
        <ele>1208.4</ele>
        <time>2012-08-18T11:31:37Z</time>
      </trkpt>
      <trkpt lat="40.684446" lon="-1.501068">
        <ele>1208.0</ele>
        <time>2012-08-18T11:31:38Z</time>
      </trkpt>
      <trkpt lat="40.684368" lon="-1.501065">
        <ele>1207.6</ele>
        <time>2012-08-18T11:31:39Z</time>
      </trkpt>
      <trkpt lat="40.684290" lon="-1.501064">
        <ele>1207.2</ele>
        <time>2012-08-18T11:31:40Z</time>
      </trkpt>
      <trkpt lat="40.684211" lon="-1.501063">
        <ele>1206.8</ele>
        <time>2012-08-18T11:31:41Z</time>
      </trkpt>
      <trkpt lat="40.684132" lon="-1.501057">
        <ele>1206.4</ele>
        <time>2012-08-18T11:31:42Z</time>
      </trkpt>
      <trkpt lat="40.683992" lon="-1.501044">
        <ele>1206.4</ele>
        <time>2012-08-18T11:31:44Z</time>
      </trkpt>
      <trkpt lat="40.683810" lon="-1.501011">
        <ele>1206.4</ele>
        <time>2012-08-18T11:31:48Z</time>
      </trkpt>
      <trkpt lat="40.683697" lon="-1.500979">
        <ele>1206.4</ele>
        <time>2012-08-18T11:31:53Z</time>
      </trkpt>
      <trkpt lat="40.683572" lon="-1.500934">
        <ele>1206.4</ele>
        <time>2012-08-18T11:31:59Z</time>
      </trkpt>
      <trkpt lat="40.683555" lon="-1.500915">
        <ele>1206.0</ele>
        <time>2012-08-18T11:32:00Z</time>
      </trkpt>
      <trkpt lat="40.683536" lon="-1.500899">
        <ele>1205.4</ele>
        <time>2012-08-18T11:32:01Z</time>
      </trkpt>
      <trkpt lat="40.683514" lon="-1.500886">
        <ele>1205.0</ele>
        <time>2012-08-18T11:32:02Z</time>
      </trkpt>
      <trkpt lat="40.683491" lon="-1.500873">
        <ele>1204.6</ele>
        <time>2012-08-18T11:32:03Z</time>
      </trkpt>
      <trkpt lat="40.683471" lon="-1.500857">
        <ele>1204.2</ele>
        <time>2012-08-18T11:32:04Z</time>
      </trkpt>
      <trkpt lat="40.683451" lon="-1.500840">
        <ele>1204.2</ele>
        <time>2012-08-18T11:32:05Z</time>
      </trkpt>
      <trkpt lat="40.683310" lon="-1.500683">
        <ele>1204.2</ele>
        <time>2012-08-18T11:32:13Z</time>
      </trkpt>
      <trkpt lat="40.683236" lon="-1.500625">
        <ele>1204.2</ele>
        <time>2012-08-18T11:32:18Z</time>
      </trkpt>
      <trkpt lat="40.683156" lon="-1.500586">
        <ele>1204.2</ele>
        <time>2012-08-18T11:32:23Z</time>
      </trkpt>
      <trkpt lat="40.683146" lon="-1.500582">
        <ele>1204.2</ele>
        <time>2012-08-18T11:32:24Z</time>
      </trkpt>
      <trkpt lat="40.683217" lon="-1.500615">
        <ele>1204.2</ele>
        <time>2012-08-18T11:36:42Z</time>
      </trkpt>
      <trkpt lat="40.683232" lon="-1.500598">
        <ele>1204.2</ele>
        <time>2012-08-18T11:36:43Z</time>
      </trkpt>
    </trkseg>
  </trk>
  <trk>
    <name>T3303249-2</name>
    <cmt>La ruta empieza en Ojos Negros. Hasta Santa Eulalia va por una carretera comarcal apenas transitada. Hay un tramo de unos 40 km durante el puerto del Escandón que no aparece reflejado en el track porque me quedé sin batería en el GPS pero la vía verde no tiene pérdida en esa zona</cmt>
    <desc>La ruta empieza en Ojos Negros. Hasta Santa Eulalia va por una carretera comarcal apenas transitada. Hay un tramo de unos 40 km durante el puerto del Escandón que no aparece reflejado en el track porque me quedé sin batería en el GPS pero la vía verde no tiene pérdida en esa zona</desc>
    <trkseg>
      <trkpt lat="40.683272" lon="-1.500530">
        <ele>1204.2</ele>
        <time>2012-08-18T11:36:46Z</time>
      </trkpt>
      <trkpt lat="40.683282" lon="-1.500504">
        <ele>1204.2</ele>
        <time>2012-08-18T11:36:47Z</time>
      </trkpt>
      <trkpt lat="40.683342" lon="-1.500293">
        <ele>1204.2</ele>
        <time>2012-08-18T11:36:53Z</time>
      </trkpt>
      <trkpt lat="40.683355" lon="-1.500022">
        <ele>1204.2</ele>
        <time>2012-08-18T11:36:59Z</time>
      </trkpt>
      <trkpt lat="40.683339" lon="-1.499611">
        <ele>1204.2</ele>
        <time>2012-08-18T11:37:07Z</time>
      </trkpt>
      <trkpt lat="40.683344" lon="-1.499508">
        <ele>1204.2</ele>
        <time>2012-08-18T11:37:09Z</time>
      </trkpt>
      <trkpt lat="40.683343" lon="-1.499152">
        <ele>1204.2</ele>
        <time>2012-08-18T11:37:16Z</time>
      </trkpt>
      <trkpt lat="40.683317" lon="-1.499011">
        <ele>1204.6</ele>
        <time>2012-08-18T11:37:19Z</time>
      </trkpt>
      <trkpt lat="40.683301" lon="-1.498965">
        <ele>1205.0</ele>
        <time>2012-08-18T11:37:20Z</time>
      </trkpt>
      <trkpt lat="40.683280" lon="-1.498922">
        <ele>1205.8</ele>
        <time>2012-08-18T11:37:21Z</time>
      </trkpt>
      <trkpt lat="40.683256" lon="-1.498882">
        <ele>1206.2</ele>
        <time>2012-08-18T11:37:22Z</time>
      </trkpt>
      <trkpt lat="40.683113" lon="-1.498744">
        <ele>1206.2</ele>
        <time>2012-08-18T11:37:27Z</time>
      </trkpt>
      <trkpt lat="40.682837" lon="-1.498551">
        <ele>1206.6</ele>
        <time>2012-08-18T11:37:36Z</time>
      </trkpt>
      <trkpt lat="40.682809" lon="-1.498532">
        <ele>1207.2</ele>
        <time>2012-08-18T11:37:37Z</time>
      </trkpt>
      <trkpt lat="40.682780" lon="-1.498518">
        <ele>1207.6</ele>
        <time>2012-08-18T11:37:38Z</time>
      </trkpt>
      <trkpt lat="40.682751" lon="-1.498502">
        <ele>1208.0</ele>
        <time>2012-08-18T11:37:39Z</time>
      </trkpt>
      <trkpt lat="40.682719" lon="-1.498487">
        <ele>1208.4</ele>
        <time>2012-08-18T11:37:40Z</time>
      </trkpt>
      <trkpt lat="40.682689" lon="-1.498474">
        <ele>1208.4</ele>
        <time>2012-08-18T11:37:41Z</time>
      </trkpt>
      <trkpt lat="40.682540" lon="-1.498450">
        <ele>1208.4</ele>
        <time>2012-08-18T11:37:46Z</time>
      </trkpt>
      <trkpt lat="40.682477" lon="-1.498458">
        <ele>1208.8</ele>
        <time>2012-08-18T11:37:48Z</time>
      </trkpt>
      <trkpt lat="40.682446" lon="-1.498466">
        <ele>1209.2</ele>
        <time>2012-08-18T11:37:49Z</time>
      </trkpt>
      <trkpt lat="40.682418" lon="-1.498476">
        <ele>1209.8</ele>
        <time>2012-08-18T11:37:50Z</time>
      </trkpt>
      <trkpt lat="40.682389" lon="-1.498491">
        <ele>1210.2</ele>
        <time>2012-08-18T11:37:51Z</time>
      </trkpt>
      <trkpt lat="40.682361" lon="-1.498508">
        <ele>1210.6</ele>
        <time>2012-08-18T11:37:52Z</time>
      </trkpt>
      <trkpt lat="40.682188" lon="-1.498593">
        <ele>1210.6</ele>
        <time>2012-08-18T11:37:59Z</time>
      </trkpt>
      <trkpt lat="40.682091" lon="-1.498612">
        <ele>1210.6</ele>
        <time>2012-08-18T11:38:04Z</time>
      </trkpt>
      <trkpt lat="40.681926" lon="-1.498682">
        <ele>1210.6</ele>
        <time>2012-08-18T11:38:09Z</time>
      </trkpt>
      <trkpt lat="40.681757" lon="-1.498698">
        <ele>1210.6</ele>
        <time>2012-08-18T11:38:15Z</time>
      </trkpt>
      <trkpt lat="40.681717" lon="-1.498637">
        <ele>1210.6</ele>
        <time>2012-08-18T11:38:20Z</time>
      </trkpt>
      <trkpt lat="40.681718" lon="-1.498646">
        <ele>1210.6</ele>
        <time>2012-08-18T11:38:21Z</time>
      </trkpt>
      <trkpt lat="40.681715" lon="-1.498657">
        <ele>1210.6</ele>
        <time>2012-08-18T11:38:23Z</time>
      </trkpt>
      <trkpt lat="40.681733" lon="-1.498672">
        <ele>1210.6</ele>
        <time>2012-08-18T11:39:09Z</time>
      </trkpt>
      <trkpt lat="40.681756" lon="-1.498694">
        <ele>1210.6</ele>
        <time>2012-08-18T11:39:10Z</time>
      </trkpt>
      <trkpt lat="40.681756" lon="-1.498807">
        <ele>1210.6</ele>
        <time>2012-08-18T11:39:14Z</time>
      </trkpt>
      <trkpt lat="40.681730" lon="-1.499007">
        <ele>1210.6</ele>
        <time>2012-08-18T11:39:19Z</time>
      </trkpt>
      <trkpt lat="40.681722" lon="-1.499045">
        <ele>1210.6</ele>
        <time>2012-08-18T11:39:20Z</time>
      </trkpt>
      <trkpt lat="40.681666" lon="-1.499238">
        <ele>1210.6</ele>
        <time>2012-08-18T11:39:26Z</time>
      </trkpt>
      <trkpt lat="40.681657" lon="-1.499276">
        <ele>1211.0</ele>
        <time>2012-08-18T11:39:27Z</time>
      </trkpt>
      <trkpt lat="40.681649" lon="-1.499307">
        <ele>1211.4</ele>
        <time>2012-08-18T11:39:28Z</time>
      </trkpt>
      <trkpt lat="40.681641" lon="-1.499337">
        <ele>1211.8</ele>
        <time>2012-08-18T11:39:29Z</time>
      </trkpt>
      <trkpt lat="40.681631" lon="-1.499371">
        <ele>1212.2</ele>
        <time>2012-08-18T11:39:30Z</time>
      </trkpt>
      <trkpt lat="40.681621" lon="-1.499404">
        <ele>1212.8</ele>
        <time>2012-08-18T11:39:31Z</time>
      </trkpt>
      <trkpt lat="40.681616" lon="-1.499435">
        <ele>1212.8</ele>
        <time>2012-08-18T11:39:32Z</time>
      </trkpt>
      <trkpt lat="40.681609" lon="-1.499543">
        <ele>1212.8</ele>
        <time>2012-08-18T11:39:37Z</time>
      </trkpt>
      <trkpt lat="40.681599" lon="-1.499574">
        <ele>1212.8</ele>
        <time>2012-08-18T11:39:39Z</time>
      </trkpt>
      <trkpt lat="40.681596" lon="-1.499634">
        <ele>1212.8</ele>
        <time>2012-08-18T11:39:42Z</time>
      </trkpt>
      <trkpt lat="40.681567" lon="-1.499736">
        <ele>1212.8</ele>
        <time>2012-08-18T11:39:46Z</time>
      </trkpt>
      <trkpt lat="40.681520" lon="-1.499848">
        <ele>1212.8</ele>
        <time>2012-08-18T11:39:49Z</time>
      </trkpt>
      <trkpt lat="40.681506" lon="-1.499927">
        <ele>1212.8</ele>
        <time>2012-08-18T11:39:51Z</time>
      </trkpt>
      <trkpt lat="40.681539" lon="-1.500083">
        <ele>1212.8</ele>
        <time>2012-08-18T11:39:56Z</time>
      </trkpt>
      <trkpt lat="40.681542" lon="-1.500116">
        <ele>1212.8</ele>
        <time>2012-08-18T11:39:57Z</time>
      </trkpt>
      <trkpt lat="40.681526" lon="-1.500175">
        <ele>1212.8</ele>
        <time>2012-08-18T11:39:59Z</time>
      </trkpt>
      <trkpt lat="40.681472" lon="-1.500197">
        <ele>1212.8</ele>
        <time>2012-08-18T11:40:03Z</time>
      </trkpt>
      <trkpt lat="40.681340" lon="-1.500118">
        <ele>1212.8</ele>
        <time>2012-08-18T11:40:07Z</time>
      </trkpt>
      <trkpt lat="40.681286" lon="-1.500096">
        <ele>1212.8</ele>
        <time>2012-08-18T11:40:09Z</time>
      </trkpt>
      <trkpt lat="40.681162" lon="-1.500019">
        <ele>1212.8</ele>
        <time>2012-08-18T11:40:14Z</time>
      </trkpt>
      <trkpt lat="40.681054" lon="-1.499848">
        <ele>1212.8</ele>
        <time>2012-08-18T11:40:20Z</time>
      </trkpt>
      <trkpt lat="40.681038" lon="-1.499550">
        <ele>1212.8</ele>
        <time>2012-08-18T11:40:27Z</time>
      </trkpt>
      <trkpt lat="40.681009" lon="-1.499457">
        <ele>1213.2</ele>
        <time>2012-08-18T11:40:30Z</time>
      </trkpt>
      <trkpt lat="40.680989" lon="-1.499434">
        <ele>1213.6</ele>
        <time>2012-08-18T11:40:31Z</time>
      </trkpt>
      <trkpt lat="40.680966" lon="-1.499411">
        <ele>1214.0</ele>
        <time>2012-08-18T11:40:32Z</time>
      </trkpt>
      <trkpt lat="40.680942" lon="-1.499390">
        <ele>1214.4</ele>
        <time>2012-08-18T11:40:33Z</time>
      </trkpt>
      <trkpt lat="40.680921" lon="-1.499368">
        <ele>1214.8</ele>
        <time>2012-08-18T11:40:34Z</time>
      </trkpt>
      <trkpt lat="40.680869" lon="-1.499291">
        <ele>1214.8</ele>
        <time>2012-08-18T11:40:37Z</time>
      </trkpt>
      <trkpt lat="40.680812" lon="-1.499225">
        <ele>1215.6</ele>
        <time>2012-08-18T11:40:40Z</time>
      </trkpt>
      <trkpt lat="40.680793" lon="-1.499201">
        <ele>1216.0</ele>
        <time>2012-08-18T11:40:41Z</time>
      </trkpt>
      <trkpt lat="40.680774" lon="-1.499175">
        <ele>1216.6</ele>
        <time>2012-08-18T11:40:42Z</time>
      </trkpt>
      <trkpt lat="40.680755" lon="-1.499147">
        <ele>1217.0</ele>
        <time>2012-08-18T11:40:43Z</time>
      </trkpt>
      <trkpt lat="40.680597" lon="-1.498956">
        <ele>1217.4</ele>
        <time>2012-08-18T11:40:50Z</time>
      </trkpt>
      <trkpt lat="40.680572" lon="-1.498936">
        <ele>1217.8</ele>
        <time>2012-08-18T11:40:51Z</time>
      </trkpt>
      <trkpt lat="40.680550" lon="-1.498918">
        <ele>1218.2</ele>
        <time>2012-08-18T11:40:52Z</time>
      </trkpt>
      <trkpt lat="40.680529" lon="-1.498900">
        <ele>1218.6</ele>
        <time>2012-08-18T11:40:53Z</time>
      </trkpt>
      <trkpt lat="40.680504" lon="-1.498886">
        <ele>1219.0</ele>
        <time>2012-08-18T11:40:54Z</time>
      </trkpt>
      <trkpt lat="40.680400" lon="-1.498831">
        <ele>1219.0</ele>
        <time>2012-08-18T11:40:58Z</time>
      </trkpt>
      <trkpt lat="40.680208" lon="-1.498660">
        <ele>1219.0</ele>
        <time>2012-08-18T11:41:04Z</time>
      </trkpt>
      <trkpt lat="40.680035" lon="-1.498502">
        <ele>1219.0</ele>
        <time>2012-08-18T11:41:10Z</time>
      </trkpt>
      <trkpt lat="40.679818" lon="-1.498363">
        <ele>1219.4</ele>
        <time>2012-08-18T11:41:17Z</time>
      </trkpt>
      <trkpt lat="40.679784" lon="-1.498349">
        <ele>1219.8</ele>
        <time>2012-08-18T11:41:18Z</time>
      </trkpt>
      <trkpt lat="40.679748" lon="-1.498335">
        <ele>1220.2</ele>
        <time>2012-08-18T11:41:19Z</time>
      </trkpt>
      <trkpt lat="40.679712" lon="-1.498321">
        <ele>1220.6</ele>
        <time>2012-08-18T11:41:20Z</time>
      </trkpt>
      <trkpt lat="40.679678" lon="-1.498308">
        <ele>1221.0</ele>
        <time>2012-08-18T11:41:21Z</time>
      </trkpt>
      <trkpt lat="40.679497" lon="-1.498276">
        <ele>1221.0</ele>
        <time>2012-08-18T11:41:26Z</time>
      </trkpt>
      <trkpt lat="40.679189" lon="-1.498252">
        <ele>1221.0</ele>
        <time>2012-08-18T11:41:34Z</time>
      </trkpt>
      <trkpt lat="40.678958" lon="-1.498208">
        <ele>1221.0</ele>
        <time>2012-08-18T11:41:40Z</time>
      </trkpt>
      <trkpt lat="40.678921" lon="-1.498195">
        <ele>1221.0</ele>
        <time>2012-08-18T11:41:41Z</time>
      </trkpt>
      <trkpt lat="40.678613" lon="-1.498079">
        <ele>1221.0</ele>
        <time>2012-08-18T11:41:49Z</time>
      </trkpt>
      <trkpt lat="40.678433" lon="-1.497991">
        <ele>1221.8</ele>
        <time>2012-08-18T11:41:54Z</time>
      </trkpt>
      <trkpt lat="40.678398" lon="-1.497973">
        <ele>1222.2</ele>
        <time>2012-08-18T11:41:55Z</time>
      </trkpt>
      <trkpt lat="40.678364" lon="-1.497954">
        <ele>1222.6</ele>
        <time>2012-08-18T11:41:56Z</time>
      </trkpt>
      <trkpt lat="40.678330" lon="-1.497935">
        <ele>1223.0</ele>
        <time>2012-08-18T11:41:57Z</time>
      </trkpt>
      <trkpt lat="40.678297" lon="-1.497912">
        <ele>1223.0</ele>
        <time>2012-08-18T11:41:58Z</time>
      </trkpt>
      <trkpt lat="40.677989" lon="-1.497644">
        <ele>1223.0</ele>
        <time>2012-08-18T11:42:07Z</time>
      </trkpt>
      <trkpt lat="40.677680" lon="-1.497360">
        <ele>1223.0</ele>
        <time>2012-08-18T11:42:16Z</time>
      </trkpt>
      <trkpt lat="40.677484" lon="-1.497200">
        <ele>1223.0</ele>
        <time>2012-08-18T11:42:22Z</time>
      </trkpt>
      <trkpt lat="40.677451" lon="-1.497172">
        <ele>1223.4</ele>
        <time>2012-08-18T11:42:23Z</time>
      </trkpt>
      <trkpt lat="40.677420" lon="-1.497145">
        <ele>1223.8</ele>
        <time>2012-08-18T11:42:24Z</time>
      </trkpt>
      <trkpt lat="40.677391" lon="-1.497120">
        <ele>1224.4</ele>
        <time>2012-08-18T11:42:25Z</time>
      </trkpt>
      <trkpt lat="40.677362" lon="-1.497096">
        <ele>1224.8</ele>
        <time>2012-08-18T11:42:26Z</time>
      </trkpt>
      <trkpt lat="40.677332" lon="-1.497072">
        <ele>1225.2</ele>
        <time>2012-08-18T11:42:27Z</time>
      </trkpt>
      <trkpt lat="40.677273" lon="-1.497034">
        <ele>1225.2</ele>
        <time>2012-08-18T11:42:29Z</time>
      </trkpt>
      <trkpt lat="40.677035" lon="-1.496877">
        <ele>1225.6</ele>
        <time>2012-08-18T11:42:37Z</time>
      </trkpt>
      <trkpt lat="40.677004" lon="-1.496860">
        <ele>1226.0</ele>
        <time>2012-08-18T11:42:38Z</time>
      </trkpt>
      <trkpt lat="40.676972" lon="-1.496842">
        <ele>1226.4</ele>
        <time>2012-08-18T11:42:39Z</time>
      </trkpt>
      <trkpt lat="40.676944" lon="-1.496821">
        <ele>1226.8</ele>
        <time>2012-08-18T11:42:40Z</time>
      </trkpt>
      <trkpt lat="40.676913" lon="-1.496807">
        <ele>1227.4</ele>
        <time>2012-08-18T11:42:41Z</time>
      </trkpt>
      <trkpt lat="40.676818" lon="-1.496759">
        <ele>1227.4</ele>
        <time>2012-08-18T11:42:44Z</time>
      </trkpt>
      <trkpt lat="40.676549" lon="-1.496635">
        <ele>1227.4</ele>
        <time>2012-08-18T11:42:52Z</time>
      </trkpt>
      <trkpt lat="40.676301" lon="-1.496498">
        <ele>1227.4</ele>
        <time>2012-08-18T11:42:59Z</time>
      </trkpt>
      <trkpt lat="40.676233" lon="-1.496451">
        <ele>1227.4</ele>
        <time>2012-08-18T11:43:01Z</time>
      </trkpt>
      <trkpt lat="40.676088" lon="-1.496379">
        <ele>1227.4</ele>
        <time>2012-08-18T11:43:06Z</time>
      </trkpt>
      <trkpt lat="40.676083" lon="-1.496380">
        <ele>1227.4</ele>
        <time>2012-08-18T11:43:07Z</time>
      </trkpt>
      <trkpt lat="40.676084" lon="-1.496380">
        <ele>1227.4</ele>
        <time>2012-08-18T11:43:09Z</time>
      </trkpt>
      <trkpt lat="40.676136" lon="-1.496394">
        <ele>1227.4</ele>
        <time>2012-08-18T11:43:17Z</time>
      </trkpt>
      <trkpt lat="40.676242" lon="-1.496446">
        <ele>1227.4</ele>
        <time>2012-08-18T11:43:22Z</time>
      </trkpt>
      <trkpt lat="40.676258" lon="-1.496460">
        <ele>1227.4</ele>
        <time>2012-08-18T11:43:23Z</time>
      </trkpt>
      <trkpt lat="40.676365" lon="-1.496552">
        <ele>1227.4</ele>
        <time>2012-08-18T11:43:29Z</time>
      </trkpt>
      <trkpt lat="40.676483" lon="-1.496613">
        <ele>1227.4</ele>
        <time>2012-08-18T11:43:35Z</time>
      </trkpt>
      <trkpt lat="40.676531" lon="-1.496653">
        <ele>1227.4</ele>
        <time>2012-08-18T11:43:38Z</time>
      </trkpt>
      <trkpt lat="40.676518" lon="-1.496705">
        <ele>1227.4</ele>
        <time>2012-08-18T11:43:40Z</time>
      </trkpt>
      <trkpt lat="40.676467" lon="-1.496744">
        <ele>1227.4</ele>
        <time>2012-08-18T11:43:42Z</time>
      </trkpt>
      <trkpt lat="40.676388" lon="-1.496783">
        <ele>1227.4</ele>
        <time>2012-08-18T11:43:45Z</time>
      </trkpt>
      <trkpt lat="40.676287" lon="-1.496877">
        <ele>1227.4</ele>
        <time>2012-08-18T11:43:50Z</time>
      </trkpt>
      <trkpt lat="40.676126" lon="-1.497078">
        <ele>1227.4</ele>
        <time>2012-08-18T11:43:59Z</time>
      </trkpt>
      <trkpt lat="40.676008" lon="-1.497218">
        <ele>1227.4</ele>
        <time>2012-08-18T11:44:06Z</time>
      </trkpt>
      <trkpt lat="40.675938" lon="-1.497318">
        <ele>1227.8</ele>
        <time>2012-08-18T11:44:11Z</time>
      </trkpt>
      <trkpt lat="40.675923" lon="-1.497337">
        <ele>1228.2</ele>
        <time>2012-08-18T11:44:12Z</time>
      </trkpt>
      <trkpt lat="40.675912" lon="-1.497350">
        <ele>1228.6</ele>
        <time>2012-08-18T11:44:13Z</time>
      </trkpt>
      <trkpt lat="40.675905" lon="-1.497360">
        <ele>1229.0</ele>
        <time>2012-08-18T11:44:14Z</time>
      </trkpt>
      <trkpt lat="40.675900" lon="-1.497364">
        <ele>1229.4</ele>
        <time>2012-08-18T11:44:15Z</time>
      </trkpt>
      <trkpt lat="40.675902" lon="-1.497363">
        <ele>1229.4</ele>
        <time>2012-08-18T11:44:16Z</time>
      </trkpt>
      <trkpt lat="40.675902" lon="-1.497362">
        <ele>1229.4</ele>
        <time>2012-08-18T11:44:17Z</time>
      </trkpt>
      <trkpt lat="40.675958" lon="-1.497307">
        <ele>1229.8</ele>
        <time>2012-08-18T11:47:48Z</time>
      </trkpt>
      <trkpt lat="40.675989" lon="-1.497270">
        <ele>1229.8</ele>
        <time>2012-08-18T11:47:50Z</time>
      </trkpt>
      <trkpt lat="40.676110" lon="-1.497127">
        <ele>1229.8</ele>
        <time>2012-08-18T11:47:56Z</time>
      </trkpt>
      <trkpt lat="40.676254" lon="-1.496958">
        <ele>1229.8</ele>
        <time>2012-08-18T11:48:02Z</time>
      </trkpt>
      <trkpt lat="40.676416" lon="-1.496814">
        <ele>1229.8</ele>
        <time>2012-08-18T11:48:08Z</time>
      </trkpt>
      <trkpt lat="40.676494" lon="-1.496743">
        <ele>1229.4</ele>
        <time>2012-08-18T11:48:11Z</time>
      </trkpt>
      <trkpt lat="40.676511" lon="-1.496719">
        <ele>1229.0</ele>
        <time>2012-08-18T11:48:12Z</time>
      </trkpt>
      <trkpt lat="40.676515" lon="-1.496694">
        <ele>1228.6</ele>
        <time>2012-08-18T11:48:13Z</time>
      </trkpt>
      <trkpt lat="40.676513" lon="-1.496664">
        <ele>1228.2</ele>
        <time>2012-08-18T11:48:14Z</time>
      </trkpt>
      <trkpt lat="40.676505" lon="-1.496642">
        <ele>1227.8</ele>
        <time>2012-08-18T11:48:15Z</time>
      </trkpt>
      <trkpt lat="40.676460" lon="-1.496604">
        <ele>1227.8</ele>
        <time>2012-08-18T11:48:18Z</time>
      </trkpt>
      <trkpt lat="40.676327" lon="-1.496528">
        <ele>1227.8</ele>
        <time>2012-08-18T11:48:24Z</time>
      </trkpt>
      <trkpt lat="40.676137" lon="-1.496410">
        <ele>1227.8</ele>
        <time>2012-08-18T11:48:31Z</time>
      </trkpt>
      <trkpt lat="40.675900" lon="-1.496254">
        <ele>1227.8</ele>
        <time>2012-08-18T11:48:38Z</time>
      </trkpt>
      <trkpt lat="40.675552" lon="-1.496042">
        <ele>1227.8</ele>
        <time>2012-08-18T11:48:47Z</time>
      </trkpt>
      <trkpt lat="40.675192" lon="-1.495806">
        <ele>1227.8</ele>
        <time>2012-08-18T11:48:56Z</time>
      </trkpt>
      <trkpt lat="40.674958" lon="-1.495630">
        <ele>1227.8</ele>
        <time>2012-08-18T11:49:02Z</time>
      </trkpt>
      <trkpt lat="40.674920" lon="-1.495594">
        <ele>1227.8</ele>
        <time>2012-08-18T11:49:03Z</time>
      </trkpt>
      <trkpt lat="40.674723" lon="-1.495433">
        <ele>1227.8</ele>
        <time>2012-08-18T11:49:08Z</time>
      </trkpt>
      <trkpt lat="40.674429" lon="-1.495201">
        <ele>1227.8</ele>
        <time>2012-08-18T11:49:16Z</time>
      </trkpt>
      <trkpt lat="40.674395" lon="-1.495175">
        <ele>1227.8</ele>
        <time>2012-08-18T11:49:17Z</time>
      </trkpt>
      <trkpt lat="40.674228" lon="-1.495078">
        <ele>1227.8</ele>
        <time>2012-08-18T11:49:22Z</time>
      </trkpt>
      <trkpt lat="40.674125" lon="-1.495030">
        <ele>1228.2</ele>
        <time>2012-08-18T11:49:25Z</time>
      </trkpt>
      <trkpt lat="40.674090" lon="-1.495012">
        <ele>1228.8</ele>
        <time>2012-08-18T11:49:26Z</time>
      </trkpt>
      <trkpt lat="40.674057" lon="-1.494997">
        <ele>1229.2</ele>
        <time>2012-08-18T11:49:27Z</time>
      </trkpt>
      <trkpt lat="40.674025" lon="-1.494980">
        <ele>1229.6</ele>
        <time>2012-08-18T11:49:28Z</time>
      </trkpt>
      <trkpt lat="40.673994" lon="-1.494965">
        <ele>1230.0</ele>
        <time>2012-08-18T11:49:29Z</time>
      </trkpt>
      <trkpt lat="40.673960" lon="-1.494951">
        <ele>1230.0</ele>
        <time>2012-08-18T11:49:30Z</time>
      </trkpt>
      <trkpt lat="40.673738" lon="-1.494833">
        <ele>1230.0</ele>
        <time>2012-08-18T11:49:37Z</time>
      </trkpt>
      <trkpt lat="40.673507" lon="-1.494691">
        <ele>1230.0</ele>
        <time>2012-08-18T11:49:43Z</time>
      </trkpt>
      <trkpt lat="40.673176" lon="-1.494507">
        <ele>1230.0</ele>
        <time>2012-08-18T11:49:49Z</time>
      </trkpt>
      <trkpt lat="40.672904" lon="-1.494371">
        <ele>1229.6</ele>
        <time>2012-08-18T11:49:53Z</time>
      </trkpt>
      <trkpt lat="40.672829" lon="-1.494326">
        <ele>1229.2</ele>
        <time>2012-08-18T11:49:54Z</time>
      </trkpt>
      <trkpt lat="40.672756" lon="-1.494278">
        <ele>1228.6</ele>
        <time>2012-08-18T11:49:55Z</time>
      </trkpt>
      <trkpt lat="40.672684" lon="-1.494223">
        <ele>1228.2</ele>
        <time>2012-08-18T11:49:56Z</time>
      </trkpt>
      <trkpt lat="40.672609" lon="-1.494174">
        <ele>1227.8</ele>
        <time>2012-08-18T11:49:57Z</time>
      </trkpt>
      <trkpt lat="40.672529" lon="-1.494133">
        <ele>1227.8</ele>
        <time>2012-08-18T11:49:58Z</time>
      </trkpt>
      <trkpt lat="40.672445" lon="-1.494101">
        <ele>1227.4</ele>
        <time>2012-08-18T11:49:59Z</time>
      </trkpt>
      <trkpt lat="40.672361" lon="-1.494077">
        <ele>1226.8</ele>
        <time>2012-08-18T11:50:00Z</time>
      </trkpt>
      <trkpt lat="40.672273" lon="-1.494060">
        <ele>1226.4</ele>
        <time>2012-08-18T11:50:01Z</time>
      </trkpt>
      <trkpt lat="40.672190" lon="-1.494049">
        <ele>1225.8</ele>
        <time>2012-08-18T11:50:02Z</time>
      </trkpt>
      <trkpt lat="40.672111" lon="-1.494025">
        <ele>1225.4</ele>
        <time>2012-08-18T11:50:03Z</time>
      </trkpt>
      <trkpt lat="40.671904" lon="-1.493884">
        <ele>1225.4</ele>
        <time>2012-08-18T11:50:06Z</time>
      </trkpt>
      <trkpt lat="40.671843" lon="-1.493821">
        <ele>1225.4</ele>
        <time>2012-08-18T11:50:07Z</time>
      </trkpt>
      <trkpt lat="40.671657" lon="-1.493615">
        <ele>1225.0</ele>
        <time>2012-08-18T11:50:10Z</time>
      </trkpt>
      <trkpt lat="40.671597" lon="-1.493542">
        <ele>1224.6</ele>
        <time>2012-08-18T11:50:11Z</time>
      </trkpt>
      <trkpt lat="40.671535" lon="-1.493469">
        <ele>1224.0</ele>
        <time>2012-08-18T11:50:12Z</time>
      </trkpt>
      <trkpt lat="40.671473" lon="-1.493397">
        <ele>1223.2</ele>
        <time>2012-08-18T11:50:13Z</time>
      </trkpt>
      <trkpt lat="40.671415" lon="-1.493317">
        <ele>1223.2</ele>
        <time>2012-08-18T11:50:14Z</time>
      </trkpt>
      <trkpt lat="40.671362" lon="-1.493233">
        <ele>1222.8</ele>
        <time>2012-08-18T11:50:15Z</time>
      </trkpt>
      <trkpt lat="40.671315" lon="-1.493144">
        <ele>1222.4</ele>
        <time>2012-08-18T11:50:16Z</time>
      </trkpt>
      <trkpt lat="40.671273" lon="-1.493043">
        <ele>1222.0</ele>
        <time>2012-08-18T11:50:17Z</time>
      </trkpt>
      <trkpt lat="40.671241" lon="-1.492947">
        <ele>1221.6</ele>
        <time>2012-08-18T11:50:18Z</time>
      </trkpt>
      <trkpt lat="40.671211" lon="-1.492847">
        <ele>1221.0</ele>
        <time>2012-08-18T11:50:19Z</time>
      </trkpt>
      <trkpt lat="40.671135" lon="-1.492535">
        <ele>1221.0</ele>
        <time>2012-08-18T11:50:22Z</time>
      </trkpt>
      <trkpt lat="40.671067" lon="-1.492215">
        <ele>1220.6</ele>
        <time>2012-08-18T11:50:25Z</time>
      </trkpt>
      <trkpt lat="40.671036" lon="-1.492114">
        <ele>1220.2</ele>
        <time>2012-08-18T11:50:26Z</time>
      </trkpt>
      <trkpt lat="40.670997" lon="-1.492015">
        <ele>1219.8</ele>
        <time>2012-08-18T11:50:27Z</time>
      </trkpt>
      <trkpt lat="40.670951" lon="-1.491921">
        <ele>1219.2</ele>
        <time>2012-08-18T11:50:28Z</time>
      </trkpt>
      <trkpt lat="40.670900" lon="-1.491826">
        <ele>1218.8</ele>
        <time>2012-08-18T11:50:29Z</time>
      </trkpt>
      <trkpt lat="40.670846" lon="-1.491734">
        <ele>1218.4</ele>
        <time>2012-08-18T11:50:30Z</time>
      </trkpt>
      <trkpt lat="40.670789" lon="-1.491644">
        <ele>1218.0</ele>
        <time>2012-08-18T11:50:31Z</time>
      </trkpt>
      <trkpt lat="40.670726" lon="-1.491553">
        <ele>1217.6</ele>
        <time>2012-08-18T11:50:32Z</time>
      </trkpt>
      <trkpt lat="40.670665" lon="-1.491471">
        <ele>1217.2</ele>
        <time>2012-08-18T11:50:33Z</time>
      </trkpt>
      <trkpt lat="40.670602" lon="-1.491390">
        <ele>1216.8</ele>
        <time>2012-08-18T11:50:34Z</time>
      </trkpt>
      <trkpt lat="40.670475" lon="-1.491232">
        <ele>1216.4</ele>
        <time>2012-08-18T11:50:36Z</time>
      </trkpt>
      <trkpt lat="40.670421" lon="-1.491154">
        <ele>1216.0</ele>
        <time>2012-08-18T11:50:37Z</time>
      </trkpt>
      <trkpt lat="40.670370" lon="-1.491071">
        <ele>1215.0</ele>
        <time>2012-08-18T11:50:38Z</time>
      </trkpt>
      <trkpt lat="40.670320" lon="-1.490983">
        <ele>1214.6</ele>
        <time>2012-08-18T11:50:39Z</time>
      </trkpt>
      <trkpt lat="40.669942" lon="-1.490449">
        <ele>1214.6</ele>
        <time>2012-08-18T11:50:46Z</time>
      </trkpt>
      <trkpt lat="40.669890" lon="-1.490372">
        <ele>1214.6</ele>
        <time>2012-08-18T11:50:47Z</time>
      </trkpt>
      <trkpt lat="40.669785" lon="-1.490203">
        <ele>1214.2</ele>
        <time>2012-08-18T11:50:49Z</time>
      </trkpt>
      <trkpt lat="40.669729" lon="-1.490121">
        <ele>1213.6</ele>
        <time>2012-08-18T11:50:50Z</time>
      </trkpt>
      <trkpt lat="40.669671" lon="-1.490035">
        <ele>1213.2</ele>
        <time>2012-08-18T11:50:51Z</time>
      </trkpt>
      <trkpt lat="40.669612" lon="-1.489949">
        <ele>1212.8</ele>
        <time>2012-08-18T11:50:52Z</time>
      </trkpt>
      <trkpt lat="40.669553" lon="-1.489862">
        <ele>1212.2</ele>
        <time>2012-08-18T11:50:53Z</time>
      </trkpt>
      <trkpt lat="40.669493" lon="-1.489777">
        <ele>1211.8</ele>
        <time>2012-08-18T11:50:54Z</time>
      </trkpt>
      <trkpt lat="40.669432" lon="-1.489695">
        <ele>1211.4</ele>
        <time>2012-08-18T11:50:55Z</time>
      </trkpt>
      <trkpt lat="40.669368" lon="-1.489611">
        <ele>1211.0</ele>
        <time>2012-08-18T11:50:56Z</time>
      </trkpt>
      <trkpt lat="40.669308" lon="-1.489534">
        <ele>1210.6</ele>
        <time>2012-08-18T11:50:57Z</time>
      </trkpt>
      <trkpt lat="40.669248" lon="-1.489465">
        <ele>1210.2</ele>
        <time>2012-08-18T11:50:58Z</time>
      </trkpt>
      <trkpt lat="40.669186" lon="-1.489406">
        <ele>1210.2</ele>
        <time>2012-08-18T11:50:59Z</time>
      </trkpt>
      <trkpt lat="40.668884" lon="-1.489126">
        <ele>1210.2</ele>
        <time>2012-08-18T11:51:04Z</time>
      </trkpt>
      <trkpt lat="40.668596" lon="-1.488860">
        <ele>1210.2</ele>
        <time>2012-08-18T11:51:09Z</time>
      </trkpt>
      <trkpt lat="40.668534" lon="-1.488817">
        <ele>1210.2</ele>
        <time>2012-08-18T11:51:10Z</time>
      </trkpt>
      <trkpt lat="40.668353" lon="-1.488684">
        <ele>1209.6</ele>
        <time>2012-08-18T11:51:13Z</time>
      </trkpt>
      <trkpt lat="40.668304" lon="-1.488630">
        <ele>1209.2</ele>
        <time>2012-08-18T11:51:14Z</time>
      </trkpt>
      <trkpt lat="40.668258" lon="-1.488570">
        <ele>1208.8</ele>
        <time>2012-08-18T11:51:15Z</time>
      </trkpt>
      <trkpt lat="40.668212" lon="-1.488506">
        <ele>1208.4</ele>
        <time>2012-08-18T11:51:16Z</time>
      </trkpt>
      <trkpt lat="40.668168" lon="-1.488440">
        <ele>1208.0</ele>
        <time>2012-08-18T11:51:17Z</time>
      </trkpt>
      <trkpt lat="40.667984" lon="-1.488158">
        <ele>1208.0</ele>
        <time>2012-08-18T11:51:21Z</time>
      </trkpt>
      <trkpt lat="40.667728" lon="-1.487847">
        <ele>1207.4</ele>
        <time>2012-08-18T11:51:26Z</time>
      </trkpt>
      <trkpt lat="40.667675" lon="-1.487792">
        <ele>1207.0</ele>
        <time>2012-08-18T11:51:27Z</time>
      </trkpt>
      <trkpt lat="40.667620" lon="-1.487740">
        <ele>1206.2</ele>
        <time>2012-08-18T11:51:28Z</time>
      </trkpt>
      <trkpt lat="40.667565" lon="-1.487688">
        <ele>1205.8</ele>
        <time>2012-08-18T11:51:29Z</time>
      </trkpt>
      <trkpt lat="40.667176" lon="-1.487282">
        <ele>1205.4</ele>
        <time>2012-08-18T11:51:36Z</time>
      </trkpt>
      <trkpt lat="40.667123" lon="-1.487211">
        <ele>1205.0</ele>
        <time>2012-08-18T11:51:37Z</time>
      </trkpt>
      <trkpt lat="40.667070" lon="-1.487141">
        <ele>1204.6</ele>
        <time>2012-08-18T11:51:38Z</time>
      </trkpt>
      <trkpt lat="40.667018" lon="-1.487070">
        <ele>1204.2</ele>
        <time>2012-08-18T11:51:39Z</time>
      </trkpt>
      <trkpt lat="40.666967" lon="-1.487000">
        <ele>1203.6</ele>
        <time>2012-08-18T11:51:40Z</time>
      </trkpt>
      <trkpt lat="40.666816" lon="-1.486802">
        <ele>1203.6</ele>
        <time>2012-08-18T11:51:43Z</time>
      </trkpt>
      <trkpt lat="40.666487" lon="-1.486409">
        <ele>1203.2</ele>
        <time>2012-08-18T11:51:49Z</time>
      </trkpt>
      <trkpt lat="40.666424" lon="-1.486345">
        <ele>1202.8</ele>
        <time>2012-08-18T11:51:50Z</time>
      </trkpt>
      <trkpt lat="40.666358" lon="-1.486281">
        <ele>1202.4</ele>
        <time>2012-08-18T11:51:51Z</time>
      </trkpt>
      <trkpt lat="40.666290" lon="-1.486221">
        <ele>1201.4</ele>
        <time>2012-08-18T11:51:52Z</time>
      </trkpt>
      <trkpt lat="40.666065" lon="-1.486063">
        <ele>1201.0</ele>
        <time>2012-08-18T11:51:55Z</time>
      </trkpt>
      <trkpt lat="40.665980" lon="-1.486021">
        <ele>1200.6</ele>
        <time>2012-08-18T11:51:56Z</time>
      </trkpt>
      <trkpt lat="40.665897" lon="-1.485986">
        <ele>1200.2</ele>
        <time>2012-08-18T11:51:57Z</time>
      </trkpt>
      <trkpt lat="40.665814" lon="-1.485952">
        <ele>1199.6</ele>
        <time>2012-08-18T11:51:58Z</time>
      </trkpt>
      <trkpt lat="40.665731" lon="-1.485920">
        <ele>1199.2</ele>
        <time>2012-08-18T11:51:59Z</time>
      </trkpt>
      <trkpt lat="40.665414" lon="-1.485796">
        <ele>1199.2</ele>
        <time>2012-08-18T11:52:03Z</time>
      </trkpt>
      <trkpt lat="40.665097" lon="-1.485696">
        <ele>1198.8</ele>
        <time>2012-08-18T11:52:07Z</time>
      </trkpt>
      <trkpt lat="40.665017" lon="-1.485668">
        <ele>1198.4</ele>
        <time>2012-08-18T11:52:08Z</time>
      </trkpt>
      <trkpt lat="40.664938" lon="-1.485640">
        <ele>1198.0</ele>
        <time>2012-08-18T11:52:09Z</time>
      </trkpt>
      <trkpt lat="40.664860" lon="-1.485613">
        <ele>1197.4</ele>
        <time>2012-08-18T11:52:10Z</time>
      </trkpt>
      <trkpt lat="40.664777" lon="-1.485593">
        <ele>1197.0</ele>
        <time>2012-08-18T11:52:11Z</time>
      </trkpt>
      <trkpt lat="40.664468" lon="-1.485530">
        <ele>1197.0</ele>
        <time>2012-08-18T11:52:15Z</time>
      </trkpt>
      <trkpt lat="40.664246" lon="-1.485460">
        <ele>1196.6</ele>
        <time>2012-08-18T11:52:18Z</time>
      </trkpt>
      <trkpt lat="40.664169" lon="-1.485432">
        <ele>1196.2</ele>
        <time>2012-08-18T11:52:19Z</time>
      </trkpt>
      <trkpt lat="40.664096" lon="-1.485400">
        <ele>1195.8</ele>
        <time>2012-08-18T11:52:20Z</time>
      </trkpt>
      <trkpt lat="40.664024" lon="-1.485364">
        <ele>1195.4</ele>
        <time>2012-08-18T11:52:21Z</time>
      </trkpt>
      <trkpt lat="40.663952" lon="-1.485326">
        <ele>1195.0</ele>
        <time>2012-08-18T11:52:22Z</time>
      </trkpt>
      <trkpt lat="40.663448" lon="-1.485040">
        <ele>1195.0</ele>
        <time>2012-08-18T11:52:29Z</time>
      </trkpt>
      <trkpt lat="40.663380" lon="-1.484998">
        <ele>1195.0</ele>
        <time>2012-08-18T11:52:30Z</time>
      </trkpt>
      <trkpt lat="40.663025" lon="-1.484797">
        <ele>1194.6</ele>
        <time>2012-08-18T11:52:35Z</time>
      </trkpt>
      <trkpt lat="40.662952" lon="-1.484755">
        <ele>1194.2</ele>
        <time>2012-08-18T11:52:36Z</time>
      </trkpt>
      <trkpt lat="40.662880" lon="-1.484715">
        <ele>1193.8</ele>
        <time>2012-08-18T11:52:37Z</time>
      </trkpt>
      <trkpt lat="40.662810" lon="-1.484673">
        <ele>1193.4</ele>
        <time>2012-08-18T11:52:38Z</time>
      </trkpt>
      <trkpt lat="40.662739" lon="-1.484631">
        <ele>1193.0</ele>
        <time>2012-08-18T11:52:39Z</time>
      </trkpt>
      <trkpt lat="40.662310" lon="-1.484396">
        <ele>1193.0</ele>
        <time>2012-08-18T11:52:45Z</time>
      </trkpt>
      <trkpt lat="40.661981" lon="-1.484177">
        <ele>1192.6</ele>
        <time>2012-08-18T11:52:50Z</time>
      </trkpt>
      <trkpt lat="40.661921" lon="-1.484130">
        <ele>1192.2</ele>
        <time>2012-08-18T11:52:51Z</time>
      </trkpt>
      <trkpt lat="40.661861" lon="-1.484078">
        <ele>1191.8</ele>
        <time>2012-08-18T11:52:52Z</time>
      </trkpt>
      <trkpt lat="40.661803" lon="-1.484025">
        <ele>1191.4</ele>
        <time>2012-08-18T11:52:53Z</time>
      </trkpt>
      <trkpt lat="40.661745" lon="-1.483974">
        <ele>1190.8</ele>
        <time>2012-08-18T11:52:54Z</time>
      </trkpt>
      <trkpt lat="40.661519" lon="-1.483740">
        <ele>1190.8</ele>
        <time>2012-08-18T11:52:58Z</time>
      </trkpt>
      <trkpt lat="40.661228" lon="-1.483302">
        <ele>1190.8</ele>
        <time>2012-08-18T11:53:04Z</time>
      </trkpt>
      <trkpt lat="40.660995" lon="-1.482920">
        <ele>1190.4</ele>
        <time>2012-08-18T11:53:09Z</time>
      </trkpt>
      <trkpt lat="40.660947" lon="-1.482842">
        <ele>1190.0</ele>
        <time>2012-08-18T11:53:10Z</time>
      </trkpt>
      <trkpt lat="40.660902" lon="-1.482765">
        <ele>1189.6</ele>
        <time>2012-08-18T11:53:11Z</time>
      </trkpt>
      <trkpt lat="40.660857" lon="-1.482683">
        <ele>1189.2</ele>
        <time>2012-08-18T11:53:12Z</time>
      </trkpt>
      <trkpt lat="40.660815" lon="-1.482604">
        <ele>1188.8</ele>
        <time>2012-08-18T11:53:13Z</time>
      </trkpt>
      <trkpt lat="40.660591" lon="-1.482134">
        <ele>1188.8</ele>
        <time>2012-08-18T11:53:19Z</time>
      </trkpt>
      <trkpt lat="40.660542" lon="-1.482063">
        <ele>1188.8</ele>
        <time>2012-08-18T11:53:20Z</time>
      </trkpt>
      <trkpt lat="40.660379" lon="-1.481874">
        <ele>1188.4</ele>
        <time>2012-08-18T11:53:23Z</time>
      </trkpt>
      <trkpt lat="40.660321" lon="-1.481819">
        <ele>1187.8</ele>
        <time>2012-08-18T11:53:24Z</time>
      </trkpt>
      <trkpt lat="40.660258" lon="-1.481769">
        <ele>1187.4</ele>
        <time>2012-08-18T11:53:25Z</time>
      </trkpt>
      <trkpt lat="40.660192" lon="-1.481732">
        <ele>1187.0</ele>
        <time>2012-08-18T11:53:26Z</time>
      </trkpt>
      <trkpt lat="40.660124" lon="-1.481708">
        <ele>1186.6</ele>
        <time>2012-08-18T11:53:27Z</time>
      </trkpt>
      <trkpt lat="40.660052" lon="-1.481696">
        <ele>1186.6</ele>
        <time>2012-08-18T11:53:28Z</time>
      </trkpt>
      <trkpt lat="40.659533" lon="-1.481603">
        <ele>1186.6</ele>
        <time>2012-08-18T11:53:36Z</time>
      </trkpt>
      <trkpt lat="40.659044" lon="-1.481512">
        <ele>1186.6</ele>
        <time>2012-08-18T11:53:44Z</time>
      </trkpt>
      <trkpt lat="40.658925" lon="-1.481493">
        <ele>1186.6</ele>
        <time>2012-08-18T11:53:46Z</time>
      </trkpt>
      <trkpt lat="40.658694" lon="-1.481440">
        <ele>1186.6</ele>
        <time>2012-08-18T11:53:50Z</time>
      </trkpt>
      <trkpt lat="40.658354" lon="-1.481346">
        <ele>1186.6</ele>
        <time>2012-08-18T11:53:56Z</time>
      </trkpt>
      <trkpt lat="40.658304" lon="-1.481322">
        <ele>1186.6</ele>
        <time>2012-08-18T11:53:57Z</time>
      </trkpt>
      <trkpt lat="40.658084" lon="-1.481214">
        <ele>1186.6</ele>
        <time>2012-08-18T11:54:01Z</time>
      </trkpt>
      <trkpt lat="40.657966" lon="-1.481156">
        <ele>1186.2</ele>
        <time>2012-08-18T11:54:03Z</time>
      </trkpt>
      <trkpt lat="40.657906" lon="-1.481123">
        <ele>1185.8</ele>
        <time>2012-08-18T11:54:04Z</time>
      </trkpt>
      <trkpt lat="40.657846" lon="-1.481091">
        <ele>1185.4</ele>
        <time>2012-08-18T11:54:05Z</time>
      </trkpt>
      <trkpt lat="40.657787" lon="-1.481055">
        <ele>1185.0</ele>
        <time>2012-08-18T11:54:06Z</time>
      </trkpt>
      <trkpt lat="40.657726" lon="-1.481017">
        <ele>1184.6</ele>
        <time>2012-08-18T11:54:07Z</time>
      </trkpt>
      <trkpt lat="40.657607" lon="-1.480951">
        <ele>1184.6</ele>
        <time>2012-08-18T11:54:09Z</time>
      </trkpt>
      <trkpt lat="40.657208" lon="-1.480688">
        <ele>1184.6</ele>
        <time>2012-08-18T11:54:16Z</time>
      </trkpt>
      <trkpt lat="40.656810" lon="-1.480407">
        <ele>1184.6</ele>
        <time>2012-08-18T11:54:23Z</time>
      </trkpt>
      <trkpt lat="40.656391" lon="-1.480101">
        <ele>1184.2</ele>
        <time>2012-08-18T11:54:30Z</time>
      </trkpt>
      <trkpt lat="40.656328" lon="-1.480058">
        <ele>1183.8</ele>
        <time>2012-08-18T11:54:31Z</time>
      </trkpt>
      <trkpt lat="40.656265" lon="-1.480013">
        <ele>1183.4</ele>
        <time>2012-08-18T11:54:32Z</time>
      </trkpt>
      <trkpt lat="40.656205" lon="-1.479969">
        <ele>1183.0</ele>
        <time>2012-08-18T11:54:33Z</time>
      </trkpt>
      <trkpt lat="40.656145" lon="-1.479925">
        <ele>1182.6</ele>
        <time>2012-08-18T11:54:34Z</time>
      </trkpt>
      <trkpt lat="40.655913" lon="-1.479750">
        <ele>1182.6</ele>
        <time>2012-08-18T11:54:38Z</time>
      </trkpt>
      <trkpt lat="40.655862" lon="-1.479704">
        <ele>1182.6</ele>
        <time>2012-08-18T11:54:39Z</time>
      </trkpt>
      <trkpt lat="40.655810" lon="-1.479655">
        <ele>1182.2</ele>
        <time>2012-08-18T11:54:40Z</time>
      </trkpt>
      <trkpt lat="40.655759" lon="-1.479611">
        <ele>1181.8</ele>
        <time>2012-08-18T11:54:41Z</time>
      </trkpt>
      <trkpt lat="40.655708" lon="-1.479566">
        <ele>1181.4</ele>
        <time>2012-08-18T11:54:42Z</time>
      </trkpt>
      <trkpt lat="40.655656" lon="-1.479523">
        <ele>1181.6</ele>
        <time>2012-08-18T11:54:43Z</time>
      </trkpt>
      <trkpt lat="40.655609" lon="-1.479477">
        <ele>1182.0</ele>
        <time>2012-08-18T11:54:44Z</time>
      </trkpt>
      <trkpt lat="40.655563" lon="-1.479430">
        <ele>1182.2</ele>
        <time>2012-08-18T11:54:45Z</time>
      </trkpt>
      <trkpt lat="40.655515" lon="-1.479381">
        <ele>1182.8</ele>
        <time>2012-08-18T11:54:46Z</time>
      </trkpt>
      <trkpt lat="40.655466" lon="-1.479333">
        <ele>1182.8</ele>
        <time>2012-08-18T11:54:47Z</time>
      </trkpt>
      <trkpt lat="40.655263" lon="-1.479178">
        <ele>1182.8</ele>
        <time>2012-08-18T11:54:51Z</time>
      </trkpt>
      <trkpt lat="40.655162" lon="-1.479122">
        <ele>1182.8</ele>
        <time>2012-08-18T11:54:53Z</time>
      </trkpt>
      <trkpt lat="40.654769" lon="-1.478895">
        <ele>1182.8</ele>
        <time>2012-08-18T11:55:01Z</time>
      </trkpt>
      <trkpt lat="40.654518" lon="-1.478631">
        <ele>1182.8</ele>
        <time>2012-08-18T11:55:08Z</time>
      </trkpt>
      <trkpt lat="40.654205" lon="-1.478255">
        <ele>1182.8</ele>
        <time>2012-08-18T11:55:17Z</time>
      </trkpt>
      <trkpt lat="40.653897" lon="-1.477899">
        <ele>1182.8</ele>
        <time>2012-08-18T11:55:26Z</time>
      </trkpt>
      <trkpt lat="40.653729" lon="-1.477716">
        <ele>1183.4</ele>
        <time>2012-08-18T11:55:31Z</time>
      </trkpt>
      <trkpt lat="40.653696" lon="-1.477681">
        <ele>1183.8</ele>
        <time>2012-08-18T11:55:32Z</time>
      </trkpt>
      <trkpt lat="40.653664" lon="-1.477649">
        <ele>1184.2</ele>
        <time>2012-08-18T11:55:33Z</time>
      </trkpt>
      <trkpt lat="40.653632" lon="-1.477616">
        <ele>1184.6</ele>
        <time>2012-08-18T11:55:34Z</time>
      </trkpt>
      <trkpt lat="40.653598" lon="-1.477580">
        <ele>1185.0</ele>
        <time>2012-08-18T11:55:35Z</time>
      </trkpt>
      <trkpt lat="40.653293" lon="-1.477222">
        <ele>1185.0</ele>
        <time>2012-08-18T11:55:44Z</time>
      </trkpt>
      <trkpt lat="40.653126" lon="-1.477029">
        <ele>1185.4</ele>
        <time>2012-08-18T11:55:49Z</time>
      </trkpt>
      <trkpt lat="40.653095" lon="-1.476990">
        <ele>1185.8</ele>
        <time>2012-08-18T11:55:50Z</time>
      </trkpt>
      <trkpt lat="40.653065" lon="-1.476952">
        <ele>1186.2</ele>
        <time>2012-08-18T11:55:51Z</time>
      </trkpt>
      <trkpt lat="40.653033" lon="-1.476917">
        <ele>1186.6</ele>
        <time>2012-08-18T11:55:52Z</time>
      </trkpt>
      <trkpt lat="40.653004" lon="-1.476881">
        <ele>1187.0</ele>
        <time>2012-08-18T11:55:53Z</time>
      </trkpt>
      <trkpt lat="40.652824" lon="-1.476669">
        <ele>1187.0</ele>
        <time>2012-08-18T11:55:59Z</time>
      </trkpt>
      <trkpt lat="40.652693" lon="-1.476519">
        <ele>1187.0</ele>
        <time>2012-08-18T11:56:05Z</time>
      </trkpt>
      <trkpt lat="40.652681" lon="-1.476502">
        <ele>1187.6</ele>
        <time>2012-08-18T11:56:06Z</time>
      </trkpt>
      <trkpt lat="40.652665" lon="-1.476484">
        <ele>1188.0</ele>
        <time>2012-08-18T11:56:07Z</time>
      </trkpt>
      <trkpt lat="40.652645" lon="-1.476466">
        <ele>1188.4</ele>
        <time>2012-08-18T11:56:08Z</time>
      </trkpt>
      <trkpt lat="40.652624" lon="-1.476439">
        <ele>1188.8</ele>
        <time>2012-08-18T11:56:09Z</time>
      </trkpt>
      <trkpt lat="40.652602" lon="-1.476410">
        <ele>1189.2</ele>
        <time>2012-08-18T11:56:10Z</time>
      </trkpt>
      <trkpt lat="40.652574" lon="-1.476380">
        <ele>1189.2</ele>
        <time>2012-08-18T11:56:11Z</time>
      </trkpt>
      <trkpt lat="40.652384" lon="-1.476173">
        <ele>1189.2</ele>
        <time>2012-08-18T11:56:17Z</time>
      </trkpt>
      <trkpt lat="40.652172" lon="-1.475953">
        <ele>1189.2</ele>
        <time>2012-08-18T11:56:24Z</time>
      </trkpt>
      <trkpt lat="40.652055" lon="-1.475850">
        <ele>1189.6</ele>
        <time>2012-08-18T11:56:28Z</time>
      </trkpt>
      <trkpt lat="40.652022" lon="-1.475823">
        <ele>1190.0</ele>
        <time>2012-08-18T11:56:29Z</time>
      </trkpt>
      <trkpt lat="40.651988" lon="-1.475795">
        <ele>1190.4</ele>
        <time>2012-08-18T11:56:30Z</time>
      </trkpt>
      <trkpt lat="40.651956" lon="-1.475771">
        <ele>1190.8</ele>
        <time>2012-08-18T11:56:31Z</time>
      </trkpt>
      <trkpt lat="40.651925" lon="-1.475746">
        <ele>1191.2</ele>
        <time>2012-08-18T11:56:32Z</time>
      </trkpt>
      <trkpt lat="40.651692" lon="-1.475592">
        <ele>1191.2</ele>
        <time>2012-08-18T11:56:39Z</time>
      </trkpt>
      <trkpt lat="40.651410" lon="-1.475415">
        <ele>1191.8</ele>
        <time>2012-08-18T11:56:48Z</time>
      </trkpt>
      <trkpt lat="40.651382" lon="-1.475403">
        <ele>1192.2</ele>
        <time>2012-08-18T11:56:49Z</time>
      </trkpt>
      <trkpt lat="40.651355" lon="-1.475392">
        <ele>1193.0</ele>
        <time>2012-08-18T11:56:50Z</time>
      </trkpt>
      <trkpt lat="40.651324" lon="-1.475377">
        <ele>1193.6</ele>
        <time>2012-08-18T11:56:51Z</time>
      </trkpt>
      <trkpt lat="40.651153" lon="-1.475308">
        <ele>1193.6</ele>
        <time>2012-08-18T11:56:56Z</time>
      </trkpt>
      <trkpt lat="40.651011" lon="-1.475242">
        <ele>1194.0</ele>
        <time>2012-08-18T11:57:00Z</time>
      </trkpt>
      <trkpt lat="40.650979" lon="-1.475227">
        <ele>1194.4</ele>
        <time>2012-08-18T11:57:01Z</time>
      </trkpt>
      <trkpt lat="40.650946" lon="-1.475206">
        <ele>1194.8</ele>
        <time>2012-08-18T11:57:02Z</time>
      </trkpt>
      <trkpt lat="40.650910" lon="-1.475191">
        <ele>1195.2</ele>
        <time>2012-08-18T11:57:03Z</time>
      </trkpt>
      <trkpt lat="40.650877" lon="-1.475175">
        <ele>1195.6</ele>
        <time>2012-08-18T11:57:04Z</time>
      </trkpt>
      <trkpt lat="40.650598" lon="-1.475050">
        <ele>1195.6</ele>
        <time>2012-08-18T11:57:12Z</time>
      </trkpt>
      <trkpt lat="40.650432" lon="-1.474989">
        <ele>1196.0</ele>
        <time>2012-08-18T11:57:17Z</time>
      </trkpt>
      <trkpt lat="40.650398" lon="-1.474976">
        <ele>1196.4</ele>
        <time>2012-08-18T11:57:18Z</time>
      </trkpt>
      <trkpt lat="40.650361" lon="-1.474963">
        <ele>1196.8</ele>
        <time>2012-08-18T11:57:19Z</time>
      </trkpt>
      <trkpt lat="40.650327" lon="-1.474948">
        <ele>1197.2</ele>
        <time>2012-08-18T11:57:20Z</time>
      </trkpt>
      <trkpt lat="40.650292" lon="-1.474931">
        <ele>1197.6</ele>
        <time>2012-08-18T11:57:21Z</time>
      </trkpt>
      <trkpt lat="40.650058" lon="-1.474818">
        <ele>1197.6</ele>
        <time>2012-08-18T11:57:28Z</time>
      </trkpt>
      <trkpt lat="40.649783" lon="-1.474676">
        <ele>1198.0</ele>
        <time>2012-08-18T11:57:36Z</time>
      </trkpt>
      <trkpt lat="40.649749" lon="-1.474663">
        <ele>1198.4</ele>
        <time>2012-08-18T11:57:37Z</time>
      </trkpt>
      <trkpt lat="40.649715" lon="-1.474648">
        <ele>1198.8</ele>
        <time>2012-08-18T11:57:38Z</time>
      </trkpt>
      <trkpt lat="40.649683" lon="-1.474636">
        <ele>1199.2</ele>
        <time>2012-08-18T11:57:39Z</time>
      </trkpt>
      <trkpt lat="40.649654" lon="-1.474621">
        <ele>1199.6</ele>
        <time>2012-08-18T11:57:40Z</time>
      </trkpt>
      <trkpt lat="40.649546" lon="-1.474564">
        <ele>1199.6</ele>
        <time>2012-08-18T11:57:43Z</time>
      </trkpt>
      <trkpt lat="40.649339" lon="-1.474465">
        <ele>1199.6</ele>
        <time>2012-08-18T11:57:49Z</time>
      </trkpt>
      <trkpt lat="40.649237" lon="-1.474411">
        <ele>1200.0</ele>
        <time>2012-08-18T11:57:52Z</time>
      </trkpt>
      <trkpt lat="40.649202" lon="-1.474394">
        <ele>1200.4</ele>
        <time>2012-08-18T11:57:53Z</time>
      </trkpt>
      <trkpt lat="40.649165" lon="-1.474375">
        <ele>1200.8</ele>
        <time>2012-08-18T11:57:54Z</time>
      </trkpt>
      <trkpt lat="40.649128" lon="-1.474361">
        <ele>1201.2</ele>
        <time>2012-08-18T11:57:55Z</time>
      </trkpt>
      <trkpt lat="40.649094" lon="-1.474340">
        <ele>1201.6</ele>
        <time>2012-08-18T11:57:56Z</time>
      </trkpt>
      <trkpt lat="40.649063" lon="-1.474320">
        <ele>1201.6</ele>
        <time>2012-08-18T11:57:57Z</time>
      </trkpt>
      <trkpt lat="40.648817" lon="-1.474175">
        <ele>1201.6</ele>
        <time>2012-08-18T11:58:05Z</time>
      </trkpt>
      <trkpt lat="40.648554" lon="-1.474005">
        <ele>1201.6</ele>
        <time>2012-08-18T11:58:13Z</time>
      </trkpt>
      <trkpt lat="40.648387" lon="-1.473904">
        <ele>1202.0</ele>
        <time>2012-08-18T11:58:18Z</time>
      </trkpt>
      <trkpt lat="40.648355" lon="-1.473883">
        <ele>1202.6</ele>
        <time>2012-08-18T11:58:19Z</time>
      </trkpt>
      <trkpt lat="40.648321" lon="-1.473862">
        <ele>1203.0</ele>
        <time>2012-08-18T11:58:20Z</time>
      </trkpt>
      <trkpt lat="40.648287" lon="-1.473842">
        <ele>1203.4</ele>
        <time>2012-08-18T11:58:21Z</time>
      </trkpt>
      <trkpt lat="40.648250" lon="-1.473821">
        <ele>1203.8</ele>
        <time>2012-08-18T11:58:22Z</time>
      </trkpt>
      <trkpt lat="40.647989" lon="-1.473662">
        <ele>1203.8</ele>
        <time>2012-08-18T11:58:29Z</time>
      </trkpt>
      <trkpt lat="40.647674" lon="-1.473459">
        <ele>1203.8</ele>
        <time>2012-08-18T11:58:38Z</time>
      </trkpt>
      <trkpt lat="40.647418" lon="-1.473290">
        <ele>1203.8</ele>
        <time>2012-08-18T11:58:45Z</time>
      </trkpt>
      <trkpt lat="40.647340" lon="-1.473237">
        <ele>1204.2</ele>
        <time>2012-08-18T11:58:47Z</time>
      </trkpt>
      <trkpt lat="40.647304" lon="-1.473209">
        <ele>1204.6</ele>
        <time>2012-08-18T11:58:48Z</time>
      </trkpt>
      <trkpt lat="40.647268" lon="-1.473185">
        <ele>1205.0</ele>
        <time>2012-08-18T11:58:49Z</time>
      </trkpt>
      <trkpt lat="40.647232" lon="-1.473155">
        <ele>1205.6</ele>
        <time>2012-08-18T11:58:50Z</time>
      </trkpt>
      <trkpt lat="40.647195" lon="-1.473129">
        <ele>1206.0</ele>
        <time>2012-08-18T11:58:51Z</time>
      </trkpt>
      <trkpt lat="40.647079" lon="-1.473056">
        <ele>1206.0</ele>
        <time>2012-08-18T11:58:54Z</time>
      </trkpt>
      <trkpt lat="40.646805" lon="-1.472935">
        <ele>1206.0</ele>
        <time>2012-08-18T11:59:01Z</time>
      </trkpt>
      <trkpt lat="40.646505" lon="-1.472859">
        <ele>1206.0</ele>
        <time>2012-08-18T11:59:09Z</time>
      </trkpt>
      <trkpt lat="40.646353" lon="-1.472802">
        <ele>1206.4</ele>
        <time>2012-08-18T11:59:13Z</time>
      </trkpt>
      <trkpt lat="40.646315" lon="-1.472783">
        <ele>1206.8</ele>
        <time>2012-08-18T11:59:14Z</time>
      </trkpt>
      <trkpt lat="40.646279" lon="-1.472766">
        <ele>1207.2</ele>
        <time>2012-08-18T11:59:15Z</time>
      </trkpt>
      <trkpt lat="40.646245" lon="-1.472747">
        <ele>1207.6</ele>
        <time>2012-08-18T11:59:16Z</time>
      </trkpt>
      <trkpt lat="40.646208" lon="-1.472725">
        <ele>1208.0</ele>
        <time>2012-08-18T11:59:17Z</time>
      </trkpt>
      <trkpt lat="40.646005" lon="-1.472601">
        <ele>1208.0</ele>
        <time>2012-08-18T11:59:23Z</time>
      </trkpt>
      <trkpt lat="40.645664" lon="-1.472369">
        <ele>1208.4</ele>
        <time>2012-08-18T11:59:33Z</time>
      </trkpt>
      <trkpt lat="40.645630" lon="-1.472347">
        <ele>1208.8</ele>
        <time>2012-08-18T11:59:34Z</time>
      </trkpt>
      <trkpt lat="40.645595" lon="-1.472327">
        <ele>1209.2</ele>
        <time>2012-08-18T11:59:35Z</time>
      </trkpt>
      <trkpt lat="40.645561" lon="-1.472305">
        <ele>1209.6</ele>
        <time>2012-08-18T11:59:36Z</time>
      </trkpt>
      <trkpt lat="40.645528" lon="-1.472281">
        <ele>1210.0</ele>
        <time>2012-08-18T11:59:37Z</time>
      </trkpt>
      <trkpt lat="40.645390" lon="-1.472196">
        <ele>1210.0</ele>
        <time>2012-08-18T11:59:41Z</time>
      </trkpt>
      <trkpt lat="40.645125" lon="-1.472016">
        <ele>1210.0</ele>
        <time>2012-08-18T11:59:49Z</time>
      </trkpt>
      <trkpt lat="40.645035" lon="-1.471942">
        <ele>1210.4</ele>
        <time>2012-08-18T11:59:52Z</time>
      </trkpt>
      <trkpt lat="40.645005" lon="-1.471919">
        <ele>1210.8</ele>
        <time>2012-08-18T11:59:53Z</time>
      </trkpt>
      <trkpt lat="40.644975" lon="-1.471902">
        <ele>1211.2</ele>
        <time>2012-08-18T11:59:54Z</time>
      </trkpt>
      <trkpt lat="40.644944" lon="-1.471887">
        <ele>1211.8</ele>
        <time>2012-08-18T11:59:55Z</time>
      </trkpt>
      <trkpt lat="40.644912" lon="-1.471870">
        <ele>1212.2</ele>
        <time>2012-08-18T11:59:56Z</time>
      </trkpt>
      <trkpt lat="40.644882" lon="-1.471853">
        <ele>1212.2</ele>
        <time>2012-08-18T11:59:57Z</time>
      </trkpt>
      <trkpt lat="40.644672" lon="-1.471698">
        <ele>1212.2</ele>
        <time>2012-08-18T12:00:04Z</time>
      </trkpt>
      <trkpt lat="40.644437" lon="-1.471522">
        <ele>1212.2</ele>
        <time>2012-08-18T12:00:12Z</time>
      </trkpt>
      <trkpt lat="40.644300" lon="-1.471412">
        <ele>1212.2</ele>
        <time>2012-08-18T12:00:17Z</time>
      </trkpt>
      <trkpt lat="40.644269" lon="-1.471396">
        <ele>1212.6</ele>
        <time>2012-08-18T12:00:18Z</time>
      </trkpt>
      <trkpt lat="40.644240" lon="-1.471377">
        <ele>1213.0</ele>
        <time>2012-08-18T12:00:19Z</time>
      </trkpt>
      <trkpt lat="40.644210" lon="-1.471361">
        <ele>1213.4</ele>
        <time>2012-08-18T12:00:20Z</time>
      </trkpt>
      <trkpt lat="40.644182" lon="-1.471344">
        <ele>1213.8</ele>
        <time>2012-08-18T12:00:21Z</time>
      </trkpt>
      <trkpt lat="40.644156" lon="-1.471325">
        <ele>1214.2</ele>
        <time>2012-08-18T12:00:22Z</time>
      </trkpt>
      <trkpt lat="40.644102" lon="-1.471286">
        <ele>1214.2</ele>
        <time>2012-08-18T12:00:24Z</time>
      </trkpt>
      <trkpt lat="40.643851" lon="-1.471124">
        <ele>1214.2</ele>
        <time>2012-08-18T12:00:33Z</time>
      </trkpt>
      <trkpt lat="40.643662" lon="-1.470990">
        <ele>1214.2</ele>
        <time>2012-08-18T12:00:40Z</time>
      </trkpt>
      <trkpt lat="40.643434" lon="-1.470846">
        <ele>1214.2</ele>
        <time>2012-08-18T12:00:48Z</time>
      </trkpt>
      <trkpt lat="40.643347" lon="-1.470781">
        <ele>1214.6</ele>
        <time>2012-08-18T12:00:51Z</time>
      </trkpt>
      <trkpt lat="40.643320" lon="-1.470760">
        <ele>1215.0</ele>
        <time>2012-08-18T12:00:52Z</time>
      </trkpt>
      <trkpt lat="40.643292" lon="-1.470740">
        <ele>1215.4</ele>
        <time>2012-08-18T12:00:53Z</time>
      </trkpt>
      <trkpt lat="40.643265" lon="-1.470720">
        <ele>1215.8</ele>
        <time>2012-08-18T12:00:54Z</time>
      </trkpt>
      <trkpt lat="40.643240" lon="-1.470699">
        <ele>1216.4</ele>
        <time>2012-08-18T12:00:55Z</time>
      </trkpt>
      <trkpt lat="40.643213" lon="-1.470679">
        <ele>1216.4</ele>
        <time>2012-08-18T12:00:56Z</time>
      </trkpt>
      <trkpt lat="40.643003" lon="-1.470509">
        <ele>1216.4</ele>
        <time>2012-08-18T12:01:04Z</time>
      </trkpt>
      <trkpt lat="40.642832" lon="-1.470347">
        <ele>1216.4</ele>
        <time>2012-08-18T12:01:11Z</time>
      </trkpt>
      <trkpt lat="40.642616" lon="-1.470191">
        <ele>1216.4</ele>
        <time>2012-08-18T12:01:19Z</time>
      </trkpt>
      <trkpt lat="40.642469" lon="-1.470079">
        <ele>1216.4</ele>
        <time>2012-08-18T12:01:25Z</time>
      </trkpt>
      <trkpt lat="40.642323" lon="-1.469914">
        <ele>1216.4</ele>
        <time>2012-08-18T12:01:31Z</time>
      </trkpt>
      <trkpt lat="40.642117" lon="-1.469772">
        <ele>1216.4</ele>
        <time>2012-08-18T12:01:37Z</time>
      </trkpt>
      <trkpt lat="40.642016" lon="-1.469639">
        <ele>1216.4</ele>
        <time>2012-08-18T12:01:42Z</time>
      </trkpt>
      <trkpt lat="40.641984" lon="-1.469600">
        <ele>1216.4</ele>
        <time>2012-08-18T12:01:46Z</time>
      </trkpt>
      <trkpt lat="40.641984" lon="-1.469600">
        <ele>1216.4</ele>
        <time>2012-08-18T12:01:47Z</time>
      </trkpt>
      <trkpt lat="40.641938" lon="-1.469606">
        <ele>1216.4</ele>
        <time>2012-08-18T12:23:13Z</time>
      </trkpt>
      <trkpt lat="40.641923" lon="-1.469606">
        <ele>1216.4</ele>
        <time>2012-08-18T12:23:14Z</time>
      </trkpt>
      <trkpt lat="40.641906" lon="-1.469610">
        <ele>1216.4</ele>
        <time>2012-08-18T12:23:15Z</time>
      </trkpt>
      <trkpt lat="40.641829" lon="-1.469574">
        <ele>1216.4</ele>
        <time>2012-08-18T12:23:19Z</time>
      </trkpt>
      <trkpt lat="40.641810" lon="-1.469561">
        <ele>1216.4</ele>
        <time>2012-08-18T12:23:20Z</time>
      </trkpt>
      <trkpt lat="40.641691" lon="-1.469476">
        <ele>1216.4</ele>
        <time>2012-08-18T12:23:27Z</time>
      </trkpt>
      <trkpt lat="40.641556" lon="-1.469360">
        <ele>1216.4</ele>
        <time>2012-08-18T12:23:34Z</time>
      </trkpt>
      <trkpt lat="40.641419" lon="-1.469253">
        <ele>1216.4</ele>
        <time>2012-08-18T12:23:41Z</time>
      </trkpt>
      <trkpt lat="40.641261" lon="-1.469249">
        <ele>1216.4</ele>
        <time>2012-08-18T12:23:48Z</time>
      </trkpt>
      <trkpt lat="40.641112" lon="-1.469189">
        <ele>1216.4</ele>
        <time>2012-08-18T12:23:53Z</time>
      </trkpt>
      <trkpt lat="40.641080" lon="-1.469160">
        <ele>1216.4</ele>
        <time>2012-08-18T12:23:55Z</time>
      </trkpt>
      <trkpt lat="40.641070" lon="-1.469140">
        <ele>1216.8</ele>
        <time>2012-08-18T12:23:56Z</time>
      </trkpt>
      <trkpt lat="40.641058" lon="-1.469116">
        <ele>1217.2</ele>
        <time>2012-08-18T12:23:57Z</time>
      </trkpt>
      <trkpt lat="40.641049" lon="-1.469090">
        <ele>1217.6</ele>
        <time>2012-08-18T12:23:58Z</time>
      </trkpt>
      <trkpt lat="40.641043" lon="-1.469061">
        <ele>1218.0</ele>
        <time>2012-08-18T12:23:59Z</time>
      </trkpt>
      <trkpt lat="40.641038" lon="-1.469030">
        <ele>1218.6</ele>
        <time>2012-08-18T12:24:00Z</time>
      </trkpt>
      <trkpt lat="40.641023" lon="-1.468945">
        <ele>1218.6</ele>
        <time>2012-08-18T12:24:03Z</time>
      </trkpt>
      <trkpt lat="40.640997" lon="-1.468849">
        <ele>1219.0</ele>
        <time>2012-08-18T12:24:06Z</time>
      </trkpt>
      <trkpt lat="40.640986" lon="-1.468816">
        <ele>1219.4</ele>
        <time>2012-08-18T12:24:07Z</time>
      </trkpt>
      <trkpt lat="40.640975" lon="-1.468786">
        <ele>1219.8</ele>
        <time>2012-08-18T12:24:08Z</time>
      </trkpt>
      <trkpt lat="40.640966" lon="-1.468754">
        <ele>1220.2</ele>
        <time>2012-08-18T12:24:09Z</time>
      </trkpt>
      <trkpt lat="40.640955" lon="-1.468721">
        <ele>1220.6</ele>
        <time>2012-08-18T12:24:10Z</time>
      </trkpt>
      <trkpt lat="40.640896" lon="-1.468513">
        <ele>1220.6</ele>
        <time>2012-08-18T12:24:16Z</time>
      </trkpt>
      <trkpt lat="40.640824" lon="-1.468326">
        <ele>1220.6</ele>
        <time>2012-08-18T12:24:22Z</time>
      </trkpt>
      <trkpt lat="40.640745" lon="-1.468160">
        <ele>1220.6</ele>
        <time>2012-08-18T12:24:28Z</time>
      </trkpt>
      <trkpt lat="40.640719" lon="-1.468102">
        <ele>1221.2</ele>
        <time>2012-08-18T12:24:30Z</time>
      </trkpt>
      <trkpt lat="40.640707" lon="-1.468073">
        <ele>1221.8</ele>
        <time>2012-08-18T12:24:31Z</time>
      </trkpt>
      <trkpt lat="40.640692" lon="-1.468045">
        <ele>1222.6</ele>
        <time>2012-08-18T12:24:32Z</time>
      </trkpt>
      <trkpt lat="40.640676" lon="-1.468019">
        <ele>1223.2</ele>
        <time>2012-08-18T12:24:33Z</time>
      </trkpt>
      <trkpt lat="40.640661" lon="-1.467990">
        <ele>1223.8</ele>
        <time>2012-08-18T12:24:34Z</time>
      </trkpt>
      <trkpt lat="40.640641" lon="-1.467962">
        <ele>1223.8</ele>
        <time>2012-08-18T12:24:35Z</time>
      </trkpt>
      <trkpt lat="40.640489" lon="-1.467782">
        <ele>1223.8</ele>
        <time>2012-08-18T12:24:42Z</time>
      </trkpt>
      <trkpt lat="40.640249" lon="-1.467580">
        <ele>1223.8</ele>
        <time>2012-08-18T12:24:51Z</time>
      </trkpt>
      <trkpt lat="40.640073" lon="-1.467417">
        <ele>1223.8</ele>
        <time>2012-08-18T12:24:58Z</time>
      </trkpt>
      <trkpt lat="40.639896" lon="-1.467246">
        <ele>1224.2</ele>
        <time>2012-08-18T12:25:05Z</time>
      </trkpt>
      <trkpt lat="40.639871" lon="-1.467223">
        <ele>1224.6</ele>
        <time>2012-08-18T12:25:06Z</time>
      </trkpt>
      <trkpt lat="40.639846" lon="-1.467196">
        <ele>1225.0</ele>
        <time>2012-08-18T12:25:07Z</time>
      </trkpt>
      <trkpt lat="40.639820" lon="-1.467166">
        <ele>1225.4</ele>
        <time>2012-08-18T12:25:08Z</time>
      </trkpt>
      <trkpt lat="40.639796" lon="-1.467138">
        <ele>1225.8</ele>
        <time>2012-08-18T12:25:09Z</time>
      </trkpt>
      <trkpt lat="40.639713" lon="-1.467055">
        <ele>1225.8</ele>
        <time>2012-08-18T12:25:12Z</time>
      </trkpt>
      <trkpt lat="40.639474" lon="-1.466821">
        <ele>1225.8</ele>
        <time>2012-08-18T12:25:20Z</time>
      </trkpt>
      <trkpt lat="40.639187" lon="-1.466557">
        <ele>1225.8</ele>
        <time>2012-08-18T12:25:29Z</time>
      </trkpt>
      <trkpt lat="40.638963" lon="-1.466312">
        <ele>1225.8</ele>
        <time>2012-08-18T12:25:36Z</time>
      </trkpt>
      <trkpt lat="40.638775" lon="-1.466045">
        <ele>1225.8</ele>
        <time>2012-08-18T12:25:43Z</time>
      </trkpt>
      <trkpt lat="40.638595" lon="-1.465764">
        <ele>1225.8</ele>
        <time>2012-08-18T12:25:50Z</time>
      </trkpt>
      <trkpt lat="40.638547" lon="-1.465674">
        <ele>1226.2</ele>
        <time>2012-08-18T12:25:52Z</time>
      </trkpt>
      <trkpt lat="40.638524" lon="-1.465631">
        <ele>1226.6</ele>
        <time>2012-08-18T12:25:53Z</time>
      </trkpt>
      <trkpt lat="40.638503" lon="-1.465586">
        <ele>1227.0</ele>
        <time>2012-08-18T12:25:54Z</time>
      </trkpt>
      <trkpt lat="40.638481" lon="-1.465546">
        <ele>1227.4</ele>
        <time>2012-08-18T12:25:55Z</time>
      </trkpt>
      <trkpt lat="40.638459" lon="-1.465509">
        <ele>1227.8</ele>
        <time>2012-08-18T12:25:56Z</time>
      </trkpt>
      <trkpt lat="40.638417" lon="-1.465436">
        <ele>1227.8</ele>
        <time>2012-08-18T12:25:58Z</time>
      </trkpt>
      <trkpt lat="40.638279" lon="-1.465191">
        <ele>1227.8</ele>
        <time>2012-08-18T12:26:05Z</time>
      </trkpt>
      <trkpt lat="40.638125" lon="-1.464934">
        <ele>1227.8</ele>
        <time>2012-08-18T12:26:13Z</time>
      </trkpt>
      <trkpt lat="40.638107" lon="-1.464904">
        <ele>1228.2</ele>
        <time>2012-08-18T12:26:14Z</time>
      </trkpt>
      <trkpt lat="40.638086" lon="-1.464873">
        <ele>1228.6</ele>
        <time>2012-08-18T12:26:15Z</time>
      </trkpt>
      <trkpt lat="40.638063" lon="-1.464841">
        <ele>1229.0</ele>
        <time>2012-08-18T12:26:16Z</time>
      </trkpt>
      <trkpt lat="40.638041" lon="-1.464808">
        <ele>1229.4</ele>
        <time>2012-08-18T12:26:17Z</time>
      </trkpt>
      <trkpt lat="40.638018" lon="-1.464778">
        <ele>1229.8</ele>
        <time>2012-08-18T12:26:18Z</time>
      </trkpt>
      <trkpt lat="40.637933" lon="-1.464650">
        <ele>1229.8</ele>
        <time>2012-08-18T12:26:22Z</time>
      </trkpt>
      <trkpt lat="40.637716" lon="-1.464395">
        <ele>1229.8</ele>
        <time>2012-08-18T12:26:31Z</time>
      </trkpt>
      <trkpt lat="40.637496" lon="-1.464196">
        <ele>1229.8</ele>
        <time>2012-08-18T12:26:39Z</time>
      </trkpt>
      <trkpt lat="40.637348" lon="-1.464079">
        <ele>1230.4</ele>
        <time>2012-08-18T12:26:44Z</time>
      </trkpt>
    </trkseg>
  </trk>
  <trk>
    <name>T3303249-3</name>
    <cmt>La ruta empieza en Ojos Negros. Hasta Santa Eulalia va por una carretera comarcal apenas transitada. Hay un tramo de unos 40 km durante el puerto del Escandón que no aparece reflejado en el track porque me quedé sin batería en el GPS pero la vía verde no tiene pérdida en esa zona</cmt>
    <desc>La ruta empieza en Ojos Negros. Hasta Santa Eulalia va por una carretera comarcal apenas transitada. Hay un tramo de unos 40 km durante el puerto del Escandón que no aparece reflejado en el track porque me quedé sin batería en el GPS pero la vía verde no tiene pérdida en esa zona</desc>
    <trkseg>
      <trkpt lat="40.637319" lon="-1.464054">
        <ele>1230.8</ele>
        <time>2012-08-18T12:26:45Z</time>
      </trkpt>
      <trkpt lat="40.637290" lon="-1.464030">
        <ele>1231.2</ele>
        <time>2012-08-18T12:26:46Z</time>
      </trkpt>
      <trkpt lat="40.637260" lon="-1.464003">
        <ele>1231.8</ele>
        <time>2012-08-18T12:26:47Z</time>
      </trkpt>
      <trkpt lat="40.637232" lon="-1.463979">
        <ele>1232.2</ele>
        <time>2012-08-18T12:26:48Z</time>
      </trkpt>
      <trkpt lat="40.637056" lon="-1.463849">
        <ele>1232.2</ele>
        <time>2012-08-18T12:26:54Z</time>
      </trkpt>
      <trkpt lat="40.636840" lon="-1.463689">
        <ele>1232.2</ele>
        <time>2012-08-18T12:27:01Z</time>
      </trkpt>
      <trkpt lat="40.636777" lon="-1.463649">
        <ele>1232.6</ele>
        <time>2012-08-18T12:27:03Z</time>
      </trkpt>
      <trkpt lat="40.636749" lon="-1.463627">
        <ele>1233.0</ele>
        <time>2012-08-18T12:27:04Z</time>
      </trkpt>
      <trkpt lat="40.636720" lon="-1.463602">
        <ele>1233.4</ele>
        <time>2012-08-18T12:27:05Z</time>
      </trkpt>
      <trkpt lat="40.636692" lon="-1.463575">
        <ele>1233.8</ele>
        <time>2012-08-18T12:27:06Z</time>
      </trkpt>
      <trkpt lat="40.636666" lon="-1.463548">
        <ele>1234.4</ele>
        <time>2012-08-18T12:27:07Z</time>
      </trkpt>
      <trkpt lat="40.636608" lon="-1.463500">
        <ele>1234.4</ele>
        <time>2012-08-18T12:27:09Z</time>
      </trkpt>
      <trkpt lat="40.636301" lon="-1.463273">
        <ele>1234.4</ele>
        <time>2012-08-18T12:27:19Z</time>
      </trkpt>
      <trkpt lat="40.636080" lon="-1.463147">
        <ele>1234.4</ele>
        <time>2012-08-18T12:27:26Z</time>
      </trkpt>
      <trkpt lat="40.635848" lon="-1.462935">
        <ele>1234.4</ele>
        <time>2012-08-18T12:27:33Z</time>
      </trkpt>
      <trkpt lat="40.635815" lon="-1.462898">
        <ele>1234.8</ele>
        <time>2012-08-18T12:27:34Z</time>
      </trkpt>
      <trkpt lat="40.635784" lon="-1.462859">
        <ele>1235.2</ele>
        <time>2012-08-18T12:27:35Z</time>
      </trkpt>
      <trkpt lat="40.635752" lon="-1.462821">
        <ele>1235.6</ele>
        <time>2012-08-18T12:27:36Z</time>
      </trkpt>
      <trkpt lat="40.635721" lon="-1.462782">
        <ele>1236.0</ele>
        <time>2012-08-18T12:27:37Z</time>
      </trkpt>
      <trkpt lat="40.635689" lon="-1.462744">
        <ele>1236.4</ele>
        <time>2012-08-18T12:27:38Z</time>
      </trkpt>
      <trkpt lat="40.635575" lon="-1.462566">
        <ele>1236.4</ele>
        <time>2012-08-18T12:27:42Z</time>
      </trkpt>
      <trkpt lat="40.635357" lon="-1.462245">
        <ele>1236.4</ele>
        <time>2012-08-18T12:27:50Z</time>
      </trkpt>
      <trkpt lat="40.635102" lon="-1.461995">
        <ele>1236.4</ele>
        <time>2012-08-18T12:27:57Z</time>
      </trkpt>
      <trkpt lat="40.634765" lon="-1.461732">
        <ele>1236.4</ele>
        <time>2012-08-18T12:28:05Z</time>
      </trkpt>
      <trkpt lat="40.634574" lon="-1.461570">
        <ele>1236.8</ele>
        <time>2012-08-18T12:28:10Z</time>
      </trkpt>
      <trkpt lat="40.634538" lon="-1.461541">
        <ele>1237.2</ele>
        <time>2012-08-18T12:28:11Z</time>
      </trkpt>
      <trkpt lat="40.634503" lon="-1.461512">
        <ele>1237.6</ele>
        <time>2012-08-18T12:28:12Z</time>
      </trkpt>
      <trkpt lat="40.634468" lon="-1.461482">
        <ele>1238.0</ele>
        <time>2012-08-18T12:28:13Z</time>
      </trkpt>
      <trkpt lat="40.634432" lon="-1.461454">
        <ele>1238.4</ele>
        <time>2012-08-18T12:28:14Z</time>
      </trkpt>
      <trkpt lat="40.634175" lon="-1.461234">
        <ele>1238.4</ele>
        <time>2012-08-18T12:28:21Z</time>
      </trkpt>
      <trkpt lat="40.633918" lon="-1.460959">
        <ele>1238.4</ele>
        <time>2012-08-18T12:28:29Z</time>
      </trkpt>
      <trkpt lat="40.633745" lon="-1.460759">
        <ele>1238.8</ele>
        <time>2012-08-18T12:28:35Z</time>
      </trkpt>
      <trkpt lat="40.633719" lon="-1.460725">
        <ele>1239.2</ele>
        <time>2012-08-18T12:28:36Z</time>
      </trkpt>
      <trkpt lat="40.633691" lon="-1.460693">
        <ele>1239.6</ele>
        <time>2012-08-18T12:28:37Z</time>
      </trkpt>
      <trkpt lat="40.633665" lon="-1.460660">
        <ele>1240.0</ele>
        <time>2012-08-18T12:28:38Z</time>
      </trkpt>
      <trkpt lat="40.633638" lon="-1.460631">
        <ele>1240.4</ele>
        <time>2012-08-18T12:28:39Z</time>
      </trkpt>
      <trkpt lat="40.633581" lon="-1.460578">
        <ele>1240.4</ele>
        <time>2012-08-18T12:28:41Z</time>
      </trkpt>
      <trkpt lat="40.633374" lon="-1.460387">
        <ele>1240.4</ele>
        <time>2012-08-18T12:28:48Z</time>
      </trkpt>
      <trkpt lat="40.633315" lon="-1.460339">
        <ele>1240.8</ele>
        <time>2012-08-18T12:28:50Z</time>
      </trkpt>
      <trkpt lat="40.633287" lon="-1.460315">
        <ele>1241.2</ele>
        <time>2012-08-18T12:28:51Z</time>
      </trkpt>
      <trkpt lat="40.633258" lon="-1.460296">
        <ele>1241.6</ele>
        <time>2012-08-18T12:28:52Z</time>
      </trkpt>
      <trkpt lat="40.633226" lon="-1.460280">
        <ele>1242.0</ele>
        <time>2012-08-18T12:28:53Z</time>
      </trkpt>
      <trkpt lat="40.633194" lon="-1.460268">
        <ele>1242.4</ele>
        <time>2012-08-18T12:28:54Z</time>
      </trkpt>
      <trkpt lat="40.633163" lon="-1.460254">
        <ele>1242.4</ele>
        <time>2012-08-18T12:28:55Z</time>
      </trkpt>
      <trkpt lat="40.632906" lon="-1.460110">
        <ele>1242.4</ele>
        <time>2012-08-18T12:29:03Z</time>
      </trkpt>
      <trkpt lat="40.632738" lon="-1.459999">
        <ele>1242.4</ele>
        <time>2012-08-18T12:29:09Z</time>
      </trkpt>
      <trkpt lat="40.632578" lon="-1.459849">
        <ele>1242.4</ele>
        <time>2012-08-18T12:29:15Z</time>
      </trkpt>
      <trkpt lat="40.632354" lon="-1.459651">
        <ele>1242.8</ele>
        <time>2012-08-18T12:29:22Z</time>
      </trkpt>
      <trkpt lat="40.632323" lon="-1.459623">
        <ele>1243.2</ele>
        <time>2012-08-18T12:29:23Z</time>
      </trkpt>
      <trkpt lat="40.632290" lon="-1.459599">
        <ele>1244.2</ele>
        <time>2012-08-18T12:29:24Z</time>
      </trkpt>
      <trkpt lat="40.632258" lon="-1.459573">
        <ele>1244.6</ele>
        <time>2012-08-18T12:29:25Z</time>
      </trkpt>
      <trkpt lat="40.631934" lon="-1.459296">
        <ele>1244.6</ele>
        <time>2012-08-18T12:29:34Z</time>
      </trkpt>
      <trkpt lat="40.631643" lon="-1.459027">
        <ele>1244.6</ele>
        <time>2012-08-18T12:29:41Z</time>
      </trkpt>
      <trkpt lat="40.631486" lon="-1.458851">
        <ele>1244.6</ele>
        <time>2012-08-18T12:29:45Z</time>
      </trkpt>
      <trkpt lat="40.631382" lon="-1.458713">
        <ele>1244.6</ele>
        <time>2012-08-18T12:29:48Z</time>
      </trkpt>
      <trkpt lat="40.631347" lon="-1.458669">
        <ele>1244.6</ele>
        <time>2012-08-18T12:29:49Z</time>
      </trkpt>
      <trkpt lat="40.631135" lon="-1.458328">
        <ele>1244.6</ele>
        <time>2012-08-18T12:29:56Z</time>
      </trkpt>
      <trkpt lat="40.631082" lon="-1.458232">
        <ele>1244.6</ele>
        <time>2012-08-18T12:29:58Z</time>
      </trkpt>
      <trkpt lat="40.630992" lon="-1.458099">
        <ele>1244.6</ele>
        <time>2012-08-18T12:30:01Z</time>
      </trkpt>
      <trkpt lat="40.630929" lon="-1.458023">
        <ele>1244.6</ele>
        <time>2012-08-18T12:30:03Z</time>
      </trkpt>
      <trkpt lat="40.630658" lon="-1.457696">
        <ele>1244.6</ele>
        <time>2012-08-18T12:30:11Z</time>
      </trkpt>
      <trkpt lat="40.630335" lon="-1.457339">
        <ele>1244.6</ele>
        <time>2012-08-18T12:30:20Z</time>
      </trkpt>
      <trkpt lat="40.630060" lon="-1.457071">
        <ele>1244.6</ele>
        <time>2012-08-18T12:30:28Z</time>
      </trkpt>
      <trkpt lat="40.629860" lon="-1.456860">
        <ele>1245.0</ele>
        <time>2012-08-18T12:30:34Z</time>
      </trkpt>
      <trkpt lat="40.629827" lon="-1.456828">
        <ele>1245.4</ele>
        <time>2012-08-18T12:30:35Z</time>
      </trkpt>
      <trkpt lat="40.629796" lon="-1.456795">
        <ele>1245.8</ele>
        <time>2012-08-18T12:30:36Z</time>
      </trkpt>
      <trkpt lat="40.629765" lon="-1.456762">
        <ele>1246.2</ele>
        <time>2012-08-18T12:30:37Z</time>
      </trkpt>
      <trkpt lat="40.629732" lon="-1.456727">
        <ele>1246.6</ele>
        <time>2012-08-18T12:30:38Z</time>
      </trkpt>
      <trkpt lat="40.629605" lon="-1.456606">
        <ele>1246.6</ele>
        <time>2012-08-18T12:30:42Z</time>
      </trkpt>
      <trkpt lat="40.629415" lon="-1.456424">
        <ele>1247.0</ele>
        <time>2012-08-18T12:30:48Z</time>
      </trkpt>
      <trkpt lat="40.629385" lon="-1.456393">
        <ele>1247.4</ele>
        <time>2012-08-18T12:30:49Z</time>
      </trkpt>
      <trkpt lat="40.629355" lon="-1.456363">
        <ele>1248.0</ele>
        <time>2012-08-18T12:30:50Z</time>
      </trkpt>
      <trkpt lat="40.629326" lon="-1.456333">
        <ele>1248.4</ele>
        <time>2012-08-18T12:30:51Z</time>
      </trkpt>
      <trkpt lat="40.629296" lon="-1.456304">
        <ele>1248.8</ele>
        <time>2012-08-18T12:30:52Z</time>
      </trkpt>
      <trkpt lat="40.629073" lon="-1.456086">
        <ele>1248.8</ele>
        <time>2012-08-18T12:30:58Z</time>
      </trkpt>
      <trkpt lat="40.628886" lon="-1.455899">
        <ele>1249.2</ele>
        <time>2012-08-18T12:31:05Z</time>
      </trkpt>
      <trkpt lat="40.628854" lon="-1.455865">
        <ele>1249.6</ele>
        <time>2012-08-18T12:31:06Z</time>
      </trkpt>
      <trkpt lat="40.628824" lon="-1.455830">
        <ele>1250.0</ele>
        <time>2012-08-18T12:31:07Z</time>
      </trkpt>
      <trkpt lat="40.628795" lon="-1.455793">
        <ele>1250.4</ele>
        <time>2012-08-18T12:31:08Z</time>
      </trkpt>
      <trkpt lat="40.628768" lon="-1.455759">
        <ele>1251.0</ele>
        <time>2012-08-18T12:31:09Z</time>
      </trkpt>
      <trkpt lat="40.628585" lon="-1.455566">
        <ele>1251.0</ele>
        <time>2012-08-18T12:31:15Z</time>
      </trkpt>
      <trkpt lat="40.628300" lon="-1.455349">
        <ele>1251.0</ele>
        <time>2012-08-18T12:31:23Z</time>
      </trkpt>
      <trkpt lat="40.628109" lon="-1.455238">
        <ele>1251.8</ele>
        <time>2012-08-18T12:31:28Z</time>
      </trkpt>
      <trkpt lat="40.628071" lon="-1.455217">
        <ele>1252.2</ele>
        <time>2012-08-18T12:31:29Z</time>
      </trkpt>
      <trkpt lat="40.628035" lon="-1.455196">
        <ele>1252.6</ele>
        <time>2012-08-18T12:31:30Z</time>
      </trkpt>
      <trkpt lat="40.627997" lon="-1.455175">
        <ele>1253.0</ele>
        <time>2012-08-18T12:31:31Z</time>
      </trkpt>
      <trkpt lat="40.627879" lon="-1.455124">
        <ele>1253.0</ele>
        <time>2012-08-18T12:31:34Z</time>
      </trkpt>
      <trkpt lat="40.627801" lon="-1.455089">
        <ele>1253.0</ele>
        <time>2012-08-18T12:31:36Z</time>
      </trkpt>
      <trkpt lat="40.627422" lon="-1.454920">
        <ele>1253.0</ele>
        <time>2012-08-18T12:31:46Z</time>
      </trkpt>
      <trkpt lat="40.627052" lon="-1.454738">
        <ele>1253.0</ele>
        <time>2012-08-18T12:31:54Z</time>
      </trkpt>
      <trkpt lat="40.626634" lon="-1.454552">
        <ele>1253.0</ele>
        <time>2012-08-18T12:32:02Z</time>
      </trkpt>
      <trkpt lat="40.626237" lon="-1.454376">
        <ele>1252.6</ele>
        <time>2012-08-18T12:32:09Z</time>
      </trkpt>
      <trkpt lat="40.626181" lon="-1.454352">
        <ele>1252.2</ele>
        <time>2012-08-18T12:32:10Z</time>
      </trkpt>
      <trkpt lat="40.626123" lon="-1.454326">
        <ele>1251.8</ele>
        <time>2012-08-18T12:32:11Z</time>
      </trkpt>
      <trkpt lat="40.626063" lon="-1.454297">
        <ele>1251.4</ele>
        <time>2012-08-18T12:32:12Z</time>
      </trkpt>
      <trkpt lat="40.626005" lon="-1.454267">
        <ele>1251.0</ele>
        <time>2012-08-18T12:32:13Z</time>
      </trkpt>
      <trkpt lat="40.625759" lon="-1.454148">
        <ele>1251.0</ele>
        <time>2012-08-18T12:32:17Z</time>
      </trkpt>
      <trkpt lat="40.625327" lon="-1.453886">
        <ele>1251.0</ele>
        <time>2012-08-18T12:32:24Z</time>
      </trkpt>
      <trkpt lat="40.624866" lon="-1.453530">
        <ele>1251.0</ele>
        <time>2012-08-18T12:32:32Z</time>
      </trkpt>
      <trkpt lat="40.624811" lon="-1.453485">
        <ele>1251.0</ele>
        <time>2012-08-18T12:32:33Z</time>
      </trkpt>
      <trkpt lat="40.624753" lon="-1.453438">
        <ele>1250.6</ele>
        <time>2012-08-18T12:32:34Z</time>
      </trkpt>
      <trkpt lat="40.624700" lon="-1.453389">
        <ele>1250.2</ele>
        <time>2012-08-18T12:32:35Z</time>
      </trkpt>
      <trkpt lat="40.624648" lon="-1.453335">
        <ele>1249.8</ele>
        <time>2012-08-18T12:32:36Z</time>
      </trkpt>
      <trkpt lat="40.624595" lon="-1.453283">
        <ele>1249.4</ele>
        <time>2012-08-18T12:32:37Z</time>
      </trkpt>
      <trkpt lat="40.624540" lon="-1.453234">
        <ele>1249.0</ele>
        <time>2012-08-18T12:32:38Z</time>
      </trkpt>
      <trkpt lat="40.624485" lon="-1.453185">
        <ele>1249.0</ele>
        <time>2012-08-18T12:32:39Z</time>
      </trkpt>
      <trkpt lat="40.624112" lon="-1.452817">
        <ele>1249.0</ele>
        <time>2012-08-18T12:32:46Z</time>
      </trkpt>
      <trkpt lat="40.623661" lon="-1.452394">
        <ele>1249.0</ele>
        <time>2012-08-18T12:32:54Z</time>
      </trkpt>
      <trkpt lat="40.623531" lon="-1.452285">
        <ele>1248.6</ele>
        <time>2012-08-18T12:32:56Z</time>
      </trkpt>
      <trkpt lat="40.623462" lon="-1.452230">
        <ele>1248.2</ele>
        <time>2012-08-18T12:32:57Z</time>
      </trkpt>
      <trkpt lat="40.623390" lon="-1.452172">
        <ele>1247.8</ele>
        <time>2012-08-18T12:32:58Z</time>
      </trkpt>
      <trkpt lat="40.623322" lon="-1.452115">
        <ele>1247.2</ele>
        <time>2012-08-18T12:32:59Z</time>
      </trkpt>
      <trkpt lat="40.623252" lon="-1.452056">
        <ele>1246.8</ele>
        <time>2012-08-18T12:33:00Z</time>
      </trkpt>
      <trkpt lat="40.623181" lon="-1.451997">
        <ele>1246.8</ele>
        <time>2012-08-18T12:33:01Z</time>
      </trkpt>
      <trkpt lat="40.623110" lon="-1.451937">
        <ele>1246.4</ele>
        <time>2012-08-18T12:33:02Z</time>
      </trkpt>
      <trkpt lat="40.623036" lon="-1.451876">
        <ele>1246.0</ele>
        <time>2012-08-18T12:33:03Z</time>
      </trkpt>
      <trkpt lat="40.622960" lon="-1.451812">
        <ele>1245.6</ele>
        <time>2012-08-18T12:33:04Z</time>
      </trkpt>
      <trkpt lat="40.622877" lon="-1.451743">
        <ele>1245.2</ele>
        <time>2012-08-18T12:33:05Z</time>
      </trkpt>
      <trkpt lat="40.622794" lon="-1.451678">
        <ele>1244.8</ele>
        <time>2012-08-18T12:33:06Z</time>
      </trkpt>
      <trkpt lat="40.622706" lon="-1.451613">
        <ele>1244.0</ele>
        <time>2012-08-18T12:33:07Z</time>
      </trkpt>
      <trkpt lat="40.622615" lon="-1.451552">
        <ele>1243.4</ele>
        <time>2012-08-18T12:33:08Z</time>
      </trkpt>
      <trkpt lat="40.622517" lon="-1.451493">
        <ele>1243.0</ele>
        <time>2012-08-18T12:33:09Z</time>
      </trkpt>
      <trkpt lat="40.622417" lon="-1.451442">
        <ele>1242.4</ele>
        <time>2012-08-18T12:33:10Z</time>
      </trkpt>
      <trkpt lat="40.622315" lon="-1.451398">
        <ele>1241.8</ele>
        <time>2012-08-18T12:33:11Z</time>
      </trkpt>
      <trkpt lat="40.622214" lon="-1.451355">
        <ele>1241.2</ele>
        <time>2012-08-18T12:33:12Z</time>
      </trkpt>
      <trkpt lat="40.622107" lon="-1.451304">
        <ele>1240.6</ele>
        <time>2012-08-18T12:33:13Z</time>
      </trkpt>
      <trkpt lat="40.622005" lon="-1.451257">
        <ele>1240.0</ele>
        <time>2012-08-18T12:33:14Z</time>
      </trkpt>
      <trkpt lat="40.621902" lon="-1.451209">
        <ele>1239.4</ele>
        <time>2012-08-18T12:33:15Z</time>
      </trkpt>
      <trkpt lat="40.621796" lon="-1.451167">
        <ele>1238.8</ele>
        <time>2012-08-18T12:33:16Z</time>
      </trkpt>
      <trkpt lat="40.621685" lon="-1.451136">
        <ele>1238.2</ele>
        <time>2012-08-18T12:33:17Z</time>
      </trkpt>
      <trkpt lat="40.621574" lon="-1.451106">
        <ele>1237.6</ele>
        <time>2012-08-18T12:33:18Z</time>
      </trkpt>
      <trkpt lat="40.621461" lon="-1.451070">
        <ele>1237.2</ele>
        <time>2012-08-18T12:33:19Z</time>
      </trkpt>
      <trkpt lat="40.621351" lon="-1.451020">
        <ele>1236.6</ele>
        <time>2012-08-18T12:33:20Z</time>
      </trkpt>
      <trkpt lat="40.621236" lon="-1.450960">
        <ele>1235.8</ele>
        <time>2012-08-18T12:33:21Z</time>
      </trkpt>
      <trkpt lat="40.621126" lon="-1.450901">
        <ele>1235.2</ele>
        <time>2012-08-18T12:33:22Z</time>
      </trkpt>
      <trkpt lat="40.621016" lon="-1.450838">
        <ele>1234.6</ele>
        <time>2012-08-18T12:33:23Z</time>
      </trkpt>
      <trkpt lat="40.620908" lon="-1.450770">
        <ele>1234.0</ele>
        <time>2012-08-18T12:33:24Z</time>
      </trkpt>
      <trkpt lat="40.620802" lon="-1.450696">
        <ele>1233.2</ele>
        <time>2012-08-18T12:33:25Z</time>
      </trkpt>
      <trkpt lat="40.620699" lon="-1.450616">
        <ele>1232.6</ele>
        <time>2012-08-18T12:33:26Z</time>
      </trkpt>
      <trkpt lat="40.620600" lon="-1.450536">
        <ele>1231.8</ele>
        <time>2012-08-18T12:33:27Z</time>
      </trkpt>
      <trkpt lat="40.620497" lon="-1.450451">
        <ele>1231.0</ele>
        <time>2012-08-18T12:33:28Z</time>
      </trkpt>
      <trkpt lat="40.620402" lon="-1.450369">
        <ele>1230.2</ele>
        <time>2012-08-18T12:33:29Z</time>
      </trkpt>
      <trkpt lat="40.620310" lon="-1.450287">
        <ele>1229.4</ele>
        <time>2012-08-18T12:33:30Z</time>
      </trkpt>
      <trkpt lat="40.620217" lon="-1.450199">
        <ele>1228.8</ele>
        <time>2012-08-18T12:33:31Z</time>
      </trkpt>
      <trkpt lat="40.620124" lon="-1.450110">
        <ele>1227.8</ele>
        <time>2012-08-18T12:33:32Z</time>
      </trkpt>
      <trkpt lat="40.620033" lon="-1.450022">
        <ele>1227.4</ele>
        <time>2012-08-18T12:33:33Z</time>
      </trkpt>
      <trkpt lat="40.619939" lon="-1.449932">
        <ele>1227.0</ele>
        <time>2012-08-18T12:33:34Z</time>
      </trkpt>
      <trkpt lat="40.619845" lon="-1.449845">
        <ele>1226.6</ele>
        <time>2012-08-18T12:33:35Z</time>
      </trkpt>
      <trkpt lat="40.619750" lon="-1.449760">
        <ele>1226.2</ele>
        <time>2012-08-18T12:33:36Z</time>
      </trkpt>
      <trkpt lat="40.619645" lon="-1.449687">
        <ele>1225.8</ele>
        <time>2012-08-18T12:33:37Z</time>
      </trkpt>
      <trkpt lat="40.619540" lon="-1.449634">
        <ele>1225.4</ele>
        <time>2012-08-18T12:33:38Z</time>
      </trkpt>
      <trkpt lat="40.619431" lon="-1.449589">
        <ele>1224.8</ele>
        <time>2012-08-18T12:33:39Z</time>
      </trkpt>
      <trkpt lat="40.619320" lon="-1.449548">
        <ele>1224.4</ele>
        <time>2012-08-18T12:33:40Z</time>
      </trkpt>
      <trkpt lat="40.619095" lon="-1.449480">
        <ele>1224.0</ele>
        <time>2012-08-18T12:33:42Z</time>
      </trkpt>
      <trkpt lat="40.618985" lon="-1.449448">
        <ele>1223.6</ele>
        <time>2012-08-18T12:33:43Z</time>
      </trkpt>
      <trkpt lat="40.618870" lon="-1.449415">
        <ele>1223.2</ele>
        <time>2012-08-18T12:33:44Z</time>
      </trkpt>
      <trkpt lat="40.618762" lon="-1.449392">
        <ele>1222.8</ele>
        <time>2012-08-18T12:33:45Z</time>
      </trkpt>
      <trkpt lat="40.618652" lon="-1.449380">
        <ele>1222.2</ele>
        <time>2012-08-18T12:33:46Z</time>
      </trkpt>
      <trkpt lat="40.618543" lon="-1.449383">
        <ele>1221.8</ele>
        <time>2012-08-18T12:33:47Z</time>
      </trkpt>
      <trkpt lat="40.618428" lon="-1.449395">
        <ele>1221.4</ele>
        <time>2012-08-18T12:33:48Z</time>
      </trkpt>
      <trkpt lat="40.618319" lon="-1.449416">
        <ele>1221.0</ele>
        <time>2012-08-18T12:33:49Z</time>
      </trkpt>
      <trkpt lat="40.618216" lon="-1.449441">
        <ele>1220.6</ele>
        <time>2012-08-18T12:33:50Z</time>
      </trkpt>
      <trkpt lat="40.618114" lon="-1.449471">
        <ele>1220.2</ele>
        <time>2012-08-18T12:33:51Z</time>
      </trkpt>
      <trkpt lat="40.618007" lon="-1.449497">
        <ele>1219.8</ele>
        <time>2012-08-18T12:33:52Z</time>
      </trkpt>
      <trkpt lat="40.617904" lon="-1.449507">
        <ele>1219.4</ele>
        <time>2012-08-18T12:33:53Z</time>
      </trkpt>
      <trkpt lat="40.617800" lon="-1.449498">
        <ele>1219.0</ele>
        <time>2012-08-18T12:33:54Z</time>
      </trkpt>
      <trkpt lat="40.617699" lon="-1.449467">
        <ele>1218.6</ele>
        <time>2012-08-18T12:33:55Z</time>
      </trkpt>
      <trkpt lat="40.617600" lon="-1.449423">
        <ele>1217.6</ele>
        <time>2012-08-18T12:33:56Z</time>
      </trkpt>
      <trkpt lat="40.617502" lon="-1.449362">
        <ele>1217.2</ele>
        <time>2012-08-18T12:33:57Z</time>
      </trkpt>
      <trkpt lat="40.617404" lon="-1.449294">
        <ele>1216.6</ele>
        <time>2012-08-18T12:33:58Z</time>
      </trkpt>
      <trkpt lat="40.617303" lon="-1.449220">
        <ele>1216.0</ele>
        <time>2012-08-18T12:33:59Z</time>
      </trkpt>
      <trkpt lat="40.617196" lon="-1.449143">
        <ele>1215.6</ele>
        <time>2012-08-18T12:34:00Z</time>
      </trkpt>
      <trkpt lat="40.617086" lon="-1.449076">
        <ele>1215.0</ele>
        <time>2012-08-18T12:34:01Z</time>
      </trkpt>
      <trkpt lat="40.616972" lon="-1.449009">
        <ele>1214.2</ele>
        <time>2012-08-18T12:34:02Z</time>
      </trkpt>
      <trkpt lat="40.616854" lon="-1.448942">
        <ele>1213.6</ele>
        <time>2012-08-18T12:34:03Z</time>
      </trkpt>
      <trkpt lat="40.616733" lon="-1.448876">
        <ele>1212.8</ele>
        <time>2012-08-18T12:34:04Z</time>
      </trkpt>
      <trkpt lat="40.616608" lon="-1.448811">
        <ele>1212.0</ele>
        <time>2012-08-18T12:34:05Z</time>
      </trkpt>
      <trkpt lat="40.616479" lon="-1.448742">
        <ele>1211.0</ele>
        <time>2012-08-18T12:34:06Z</time>
      </trkpt>
      <trkpt lat="40.616343" lon="-1.448667">
        <ele>1210.0</ele>
        <time>2012-08-18T12:34:07Z</time>
      </trkpt>
      <trkpt lat="40.616213" lon="-1.448596">
        <ele>1209.0</ele>
        <time>2012-08-18T12:34:08Z</time>
      </trkpt>
      <trkpt lat="40.616084" lon="-1.448521">
        <ele>1208.0</ele>
        <time>2012-08-18T12:34:09Z</time>
      </trkpt>
      <trkpt lat="40.615954" lon="-1.448437">
        <ele>1207.0</ele>
        <time>2012-08-18T12:34:10Z</time>
      </trkpt>
      <trkpt lat="40.615825" lon="-1.448346">
        <ele>1206.0</ele>
        <time>2012-08-18T12:34:11Z</time>
      </trkpt>
      <trkpt lat="40.615697" lon="-1.448247">
        <ele>1205.0</ele>
        <time>2012-08-18T12:34:12Z</time>
      </trkpt>
      <trkpt lat="40.615575" lon="-1.448134">
        <ele>1203.8</ele>
        <time>2012-08-18T12:34:13Z</time>
      </trkpt>
      <trkpt lat="40.615458" lon="-1.448007">
        <ele>1202.8</ele>
        <time>2012-08-18T12:34:14Z</time>
      </trkpt>
      <trkpt lat="40.615347" lon="-1.447869">
        <ele>1201.6</ele>
        <time>2012-08-18T12:34:15Z</time>
      </trkpt>
      <trkpt lat="40.615239" lon="-1.447718">
        <ele>1200.4</ele>
        <time>2012-08-18T12:34:16Z</time>
      </trkpt>
      <trkpt lat="40.615139" lon="-1.447572">
        <ele>1199.2</ele>
        <time>2012-08-18T12:34:17Z</time>
      </trkpt>
      <trkpt lat="40.615041" lon="-1.447426">
        <ele>1198.0</ele>
        <time>2012-08-18T12:34:18Z</time>
      </trkpt>
      <trkpt lat="40.614943" lon="-1.447283">
        <ele>1196.8</ele>
        <time>2012-08-18T12:34:19Z</time>
      </trkpt>
      <trkpt lat="40.614845" lon="-1.447142">
        <ele>1195.8</ele>
        <time>2012-08-18T12:34:20Z</time>
      </trkpt>
      <trkpt lat="40.614749" lon="-1.447002">
        <ele>1193.8</ele>
        <time>2012-08-18T12:34:21Z</time>
      </trkpt>
      <trkpt lat="40.614656" lon="-1.446863">
        <ele>1192.8</ele>
        <time>2012-08-18T12:34:22Z</time>
      </trkpt>
      <trkpt lat="40.614566" lon="-1.446722">
        <ele>1192.0</ele>
        <time>2012-08-18T12:34:23Z</time>
      </trkpt>
      <trkpt lat="40.614475" lon="-1.446576">
        <ele>1191.4</ele>
        <time>2012-08-18T12:34:24Z</time>
      </trkpt>
      <trkpt lat="40.614386" lon="-1.446444">
        <ele>1191.0</ele>
        <time>2012-08-18T12:34:25Z</time>
      </trkpt>
      <trkpt lat="40.614298" lon="-1.446312">
        <ele>1190.4</ele>
        <time>2012-08-18T12:34:26Z</time>
      </trkpt>
      <trkpt lat="40.614213" lon="-1.446178">
        <ele>1190.0</ele>
        <time>2012-08-18T12:34:27Z</time>
      </trkpt>
      <trkpt lat="40.614131" lon="-1.446044">
        <ele>1189.4</ele>
        <time>2012-08-18T12:34:28Z</time>
      </trkpt>
      <trkpt lat="40.614052" lon="-1.445906">
        <ele>1189.0</ele>
        <time>2012-08-18T12:34:29Z</time>
      </trkpt>
      <trkpt lat="40.613972" lon="-1.445770">
        <ele>1188.6</ele>
        <time>2012-08-18T12:34:30Z</time>
      </trkpt>
      <trkpt lat="40.613887" lon="-1.445629">
        <ele>1188.0</ele>
        <time>2012-08-18T12:34:31Z</time>
      </trkpt>
      <trkpt lat="40.613807" lon="-1.445494">
        <ele>1187.6</ele>
        <time>2012-08-18T12:34:32Z</time>
      </trkpt>
      <trkpt lat="40.613725" lon="-1.445364">
        <ele>1187.0</ele>
        <time>2012-08-18T12:34:33Z</time>
      </trkpt>
      <trkpt lat="40.613643" lon="-1.445234">
        <ele>1186.6</ele>
        <time>2012-08-18T12:34:34Z</time>
      </trkpt>
      <trkpt lat="40.613560" lon="-1.445104">
        <ele>1186.0</ele>
        <time>2012-08-18T12:34:35Z</time>
      </trkpt>
      <trkpt lat="40.613479" lon="-1.444972">
        <ele>1185.6</ele>
        <time>2012-08-18T12:34:36Z</time>
      </trkpt>
      <trkpt lat="40.613401" lon="-1.444838">
        <ele>1185.2</ele>
        <time>2012-08-18T12:34:37Z</time>
      </trkpt>
      <trkpt lat="40.613319" lon="-1.444708">
        <ele>1184.6</ele>
        <time>2012-08-18T12:34:38Z</time>
      </trkpt>
      <trkpt lat="40.613237" lon="-1.444574">
        <ele>1184.0</ele>
        <time>2012-08-18T12:34:39Z</time>
      </trkpt>
      <trkpt lat="40.613162" lon="-1.444445">
        <ele>1183.4</ele>
        <time>2012-08-18T12:34:40Z</time>
      </trkpt>
      <trkpt lat="40.613087" lon="-1.444317">
        <ele>1182.8</ele>
        <time>2012-08-18T12:34:41Z</time>
      </trkpt>
      <trkpt lat="40.613012" lon="-1.444193">
        <ele>1182.2</ele>
        <time>2012-08-18T12:34:42Z</time>
      </trkpt>
      <trkpt lat="40.612934" lon="-1.444074">
        <ele>1182.2</ele>
        <time>2012-08-18T12:34:43Z</time>
      </trkpt>
      <trkpt lat="40.612850" lon="-1.443969">
        <ele>1181.8</ele>
        <time>2012-08-18T12:34:44Z</time>
      </trkpt>
      <trkpt lat="40.612759" lon="-1.443875">
        <ele>1181.4</ele>
        <time>2012-08-18T12:34:45Z</time>
      </trkpt>
      <trkpt lat="40.612662" lon="-1.443788">
        <ele>1180.6</ele>
        <time>2012-08-18T12:34:46Z</time>
      </trkpt>
      <trkpt lat="40.612570" lon="-1.443709">
        <ele>1180.0</ele>
        <time>2012-08-18T12:34:47Z</time>
      </trkpt>
      <trkpt lat="40.612327" lon="-1.443453">
        <ele>1180.0</ele>
        <time>2012-08-18T12:34:50Z</time>
      </trkpt>
      <trkpt lat="40.611912" lon="-1.442916">
        <ele>1180.0</ele>
        <time>2012-08-18T12:34:56Z</time>
      </trkpt>
      <trkpt lat="40.611733" lon="-1.442650">
        <ele>1179.6</ele>
        <time>2012-08-18T12:34:59Z</time>
      </trkpt>
      <trkpt lat="40.611674" lon="-1.442564">
        <ele>1179.2</ele>
        <time>2012-08-18T12:35:00Z</time>
      </trkpt>
      <trkpt lat="40.611616" lon="-1.442481">
        <ele>1178.8</ele>
        <time>2012-08-18T12:35:01Z</time>
      </trkpt>
      <trkpt lat="40.611558" lon="-1.442394">
        <ele>1178.4</ele>
        <time>2012-08-18T12:35:02Z</time>
      </trkpt>
      <trkpt lat="40.611502" lon="-1.442314">
        <ele>1178.0</ele>
        <time>2012-08-18T12:35:03Z</time>
      </trkpt>
      <trkpt lat="40.611124" lon="-1.441753">
        <ele>1178.0</ele>
        <time>2012-08-18T12:35:10Z</time>
      </trkpt>
      <trkpt lat="40.611070" lon="-1.441673">
        <ele>1177.6</ele>
        <time>2012-08-18T12:35:11Z</time>
      </trkpt>
      <trkpt lat="40.611017" lon="-1.441590">
        <ele>1177.2</ele>
        <time>2012-08-18T12:35:12Z</time>
      </trkpt>
      <trkpt lat="40.610963" lon="-1.441508">
        <ele>1176.8</ele>
        <time>2012-08-18T12:35:13Z</time>
      </trkpt>
      <trkpt lat="40.610907" lon="-1.441428">
        <ele>1176.4</ele>
        <time>2012-08-18T12:35:14Z</time>
      </trkpt>
      <trkpt lat="40.610856" lon="-1.441345">
        <ele>1176.0</ele>
        <time>2012-08-18T12:35:15Z</time>
      </trkpt>
      <trkpt lat="40.610659" lon="-1.441001">
        <ele>1176.0</ele>
        <time>2012-08-18T12:35:19Z</time>
      </trkpt>
      <trkpt lat="40.610354" lon="-1.440398">
        <ele>1176.0</ele>
        <time>2012-08-18T12:35:26Z</time>
      </trkpt>
      <trkpt lat="40.610199" lon="-1.440181">
        <ele>1175.6</ele>
        <time>2012-08-18T12:35:29Z</time>
      </trkpt>
      <trkpt lat="40.610143" lon="-1.440117">
        <ele>1175.2</ele>
        <time>2012-08-18T12:35:30Z</time>
      </trkpt>
      <trkpt lat="40.610087" lon="-1.440057">
        <ele>1174.8</ele>
        <time>2012-08-18T12:35:31Z</time>
      </trkpt>
      <trkpt lat="40.610029" lon="-1.439998">
        <ele>1174.4</ele>
        <time>2012-08-18T12:35:32Z</time>
      </trkpt>
      <trkpt lat="40.609972" lon="-1.439930">
        <ele>1174.0</ele>
        <time>2012-08-18T12:35:33Z</time>
      </trkpt>
      <trkpt lat="40.609861" lon="-1.439812">
        <ele>1174.0</ele>
        <time>2012-08-18T12:35:35Z</time>
      </trkpt>
      <trkpt lat="40.609747" lon="-1.439701">
        <ele>1174.0</ele>
        <time>2012-08-18T12:35:37Z</time>
      </trkpt>
      <trkpt lat="40.609448" lon="-1.439333">
        <ele>1174.0</ele>
        <time>2012-08-18T12:35:43Z</time>
      </trkpt>
      <trkpt lat="40.609152" lon="-1.438875">
        <ele>1174.0</ele>
        <time>2012-08-18T12:35:50Z</time>
      </trkpt>
      <trkpt lat="40.608801" lon="-1.438298">
        <ele>1174.0</ele>
        <time>2012-08-18T12:35:59Z</time>
      </trkpt>
      <trkpt lat="40.608526" lon="-1.437811">
        <ele>1174.0</ele>
        <time>2012-08-18T12:36:07Z</time>
      </trkpt>
      <trkpt lat="40.608307" lon="-1.437473">
        <ele>1174.0</ele>
        <time>2012-08-18T12:36:14Z</time>
      </trkpt>
      <trkpt lat="40.608071" lon="-1.437179">
        <ele>1174.0</ele>
        <time>2012-08-18T12:36:21Z</time>
      </trkpt>
      <trkpt lat="40.607875" lon="-1.436984">
        <ele>1174.0</ele>
        <time>2012-08-18T12:36:26Z</time>
      </trkpt>
      <trkpt lat="40.607803" lon="-1.436917">
        <ele>1174.4</ele>
        <time>2012-08-18T12:36:28Z</time>
      </trkpt>
      <trkpt lat="40.607766" lon="-1.436881">
        <ele>1174.8</ele>
        <time>2012-08-18T12:36:29Z</time>
      </trkpt>
      <trkpt lat="40.607730" lon="-1.436845">
        <ele>1175.2</ele>
        <time>2012-08-18T12:36:30Z</time>
      </trkpt>
      <trkpt lat="40.607693" lon="-1.436808">
        <ele>1175.6</ele>
        <time>2012-08-18T12:36:31Z</time>
      </trkpt>
      <trkpt lat="40.607657" lon="-1.436773">
        <ele>1176.0</ele>
        <time>2012-08-18T12:36:32Z</time>
      </trkpt>
      <trkpt lat="40.607620" lon="-1.436735">
        <ele>1176.0</ele>
        <time>2012-08-18T12:36:33Z</time>
      </trkpt>
      <trkpt lat="40.607306" lon="-1.436405">
        <ele>1176.0</ele>
        <time>2012-08-18T12:36:42Z</time>
      </trkpt>
      <trkpt lat="40.607273" lon="-1.436371">
        <ele>1176.0</ele>
        <time>2012-08-18T12:36:43Z</time>
      </trkpt>
      <trkpt lat="40.607076" lon="-1.436156">
        <ele>1176.0</ele>
        <time>2012-08-18T12:36:49Z</time>
      </trkpt>
      <trkpt lat="40.607041" lon="-1.436123">
        <ele>1176.4</ele>
        <time>2012-08-18T12:36:50Z</time>
      </trkpt>
      <trkpt lat="40.607009" lon="-1.436089">
        <ele>1176.8</ele>
        <time>2012-08-18T12:36:51Z</time>
      </trkpt>
      <trkpt lat="40.606978" lon="-1.436056">
        <ele>1177.2</ele>
        <time>2012-08-18T12:36:52Z</time>
      </trkpt>
      <trkpt lat="40.606949" lon="-1.436017">
        <ele>1177.6</ele>
        <time>2012-08-18T12:36:53Z</time>
      </trkpt>
      <trkpt lat="40.606918" lon="-1.435984">
        <ele>1178.0</ele>
        <time>2012-08-18T12:36:54Z</time>
      </trkpt>
      <trkpt lat="40.606884" lon="-1.435951">
        <ele>1178.0</ele>
        <time>2012-08-18T12:36:55Z</time>
      </trkpt>
      <trkpt lat="40.606790" lon="-1.435849">
        <ele>1178.0</ele>
        <time>2012-08-18T12:36:58Z</time>
      </trkpt>
      <trkpt lat="40.606661" lon="-1.435723">
        <ele>1178.0</ele>
        <time>2012-08-18T12:37:02Z</time>
      </trkpt>
      <trkpt lat="40.606490" lon="-1.435580">
        <ele>1178.4</ele>
        <time>2012-08-18T12:37:07Z</time>
      </trkpt>
      <trkpt lat="40.606456" lon="-1.435553">
        <ele>1178.8</ele>
        <time>2012-08-18T12:37:08Z</time>
      </trkpt>
      <trkpt lat="40.606423" lon="-1.435527">
        <ele>1179.2</ele>
        <time>2012-08-18T12:37:09Z</time>
      </trkpt>
      <trkpt lat="40.606388" lon="-1.435503">
        <ele>1179.6</ele>
        <time>2012-08-18T12:37:10Z</time>
      </trkpt>
      <trkpt lat="40.606352" lon="-1.435481">
        <ele>1180.0</ele>
        <time>2012-08-18T12:37:11Z</time>
      </trkpt>
      <trkpt lat="40.606219" lon="-1.435388">
        <ele>1180.0</ele>
        <time>2012-08-18T12:37:15Z</time>
      </trkpt>
      <trkpt lat="40.606089" lon="-1.435299">
        <ele>1180.6</ele>
        <time>2012-08-18T12:37:19Z</time>
      </trkpt>
      <trkpt lat="40.606053" lon="-1.435276">
        <ele>1181.0</ele>
        <time>2012-08-18T12:37:20Z</time>
      </trkpt>
      <trkpt lat="40.606022" lon="-1.435257">
        <ele>1181.4</ele>
        <time>2012-08-18T12:37:21Z</time>
      </trkpt>
      <trkpt lat="40.605992" lon="-1.435236">
        <ele>1181.8</ele>
        <time>2012-08-18T12:37:22Z</time>
      </trkpt>
      <trkpt lat="40.605960" lon="-1.435215">
        <ele>1182.2</ele>
        <time>2012-08-18T12:37:23Z</time>
      </trkpt>
      <trkpt lat="40.605931" lon="-1.435191">
        <ele>1182.2</ele>
        <time>2012-08-18T12:37:24Z</time>
      </trkpt>
      <trkpt lat="40.605804" lon="-1.435115">
        <ele>1182.6</ele>
        <time>2012-08-18T12:37:28Z</time>
      </trkpt>
      <trkpt lat="40.605771" lon="-1.435098">
        <ele>1183.0</ele>
        <time>2012-08-18T12:37:29Z</time>
      </trkpt>
      <trkpt lat="40.605737" lon="-1.435082">
        <ele>1183.4</ele>
        <time>2012-08-18T12:37:30Z</time>
      </trkpt>
      <trkpt lat="40.605705" lon="-1.435063">
        <ele>1183.8</ele>
        <time>2012-08-18T12:37:31Z</time>
      </trkpt>
      <trkpt lat="40.605674" lon="-1.435047">
        <ele>1184.2</ele>
        <time>2012-08-18T12:37:32Z</time>
      </trkpt>
      <trkpt lat="40.605469" lon="-1.435017">
        <ele>1184.6</ele>
        <time>2012-08-18T12:37:38Z</time>
      </trkpt>
      <trkpt lat="40.605435" lon="-1.435029">
        <ele>1185.4</ele>
        <time>2012-08-18T12:37:39Z</time>
      </trkpt>
      <trkpt lat="40.605410" lon="-1.435046">
        <ele>1185.8</ele>
        <time>2012-08-18T12:37:40Z</time>
      </trkpt>
      <trkpt lat="40.605390" lon="-1.435073">
        <ele>1186.2</ele>
        <time>2012-08-18T12:37:41Z</time>
      </trkpt>
      <trkpt lat="40.605372" lon="-1.435104">
        <ele>1186.2</ele>
        <time>2012-08-18T12:37:42Z</time>
      </trkpt>
      <trkpt lat="40.605325" lon="-1.435207">
        <ele>1186.6</ele>
        <time>2012-08-18T12:37:45Z</time>
      </trkpt>
      <trkpt lat="40.605309" lon="-1.435244">
        <ele>1187.0</ele>
        <time>2012-08-18T12:37:46Z</time>
      </trkpt>
      <trkpt lat="40.605294" lon="-1.435274">
        <ele>1187.4</ele>
        <time>2012-08-18T12:37:47Z</time>
      </trkpt>
      <trkpt lat="40.605282" lon="-1.435308">
        <ele>1188.0</ele>
        <time>2012-08-18T12:37:48Z</time>
      </trkpt>
      <trkpt lat="40.605273" lon="-1.435338">
        <ele>1188.4</ele>
        <time>2012-08-18T12:37:49Z</time>
      </trkpt>
      <trkpt lat="40.605244" lon="-1.435463">
        <ele>1188.4</ele>
        <time>2012-08-18T12:37:54Z</time>
      </trkpt>
      <trkpt lat="40.605206" lon="-1.435551">
        <ele>1188.8</ele>
        <time>2012-08-18T12:37:57Z</time>
      </trkpt>
      <trkpt lat="40.605197" lon="-1.435580">
        <ele>1189.2</ele>
        <time>2012-08-18T12:37:58Z</time>
      </trkpt>
      <trkpt lat="40.605188" lon="-1.435612">
        <ele>1189.6</ele>
        <time>2012-08-18T12:37:59Z</time>
      </trkpt>
      <trkpt lat="40.605175" lon="-1.435640">
        <ele>1190.0</ele>
        <time>2012-08-18T12:38:00Z</time>
      </trkpt>
      <trkpt lat="40.605162" lon="-1.435666">
        <ele>1190.4</ele>
        <time>2012-08-18T12:38:01Z</time>
      </trkpt>
      <trkpt lat="40.605122" lon="-1.435777">
        <ele>1190.4</ele>
        <time>2012-08-18T12:38:05Z</time>
      </trkpt>
      <trkpt lat="40.605099" lon="-1.435817">
        <ele>1190.8</ele>
        <time>2012-08-18T12:38:07Z</time>
      </trkpt>
      <trkpt lat="40.605086" lon="-1.435837">
        <ele>1191.2</ele>
        <time>2012-08-18T12:38:08Z</time>
      </trkpt>
      <trkpt lat="40.605076" lon="-1.435865">
        <ele>1191.6</ele>
        <time>2012-08-18T12:38:09Z</time>
      </trkpt>
      <trkpt lat="40.605069" lon="-1.435893">
        <ele>1192.0</ele>
        <time>2012-08-18T12:38:10Z</time>
      </trkpt>
      <trkpt lat="40.605060" lon="-1.435919">
        <ele>1192.6</ele>
        <time>2012-08-18T12:38:11Z</time>
      </trkpt>
      <trkpt lat="40.604994" lon="-1.436097">
        <ele>1193.0</ele>
        <time>2012-08-18T12:38:18Z</time>
      </trkpt>
      <trkpt lat="40.604981" lon="-1.436120">
        <ele>1193.4</ele>
        <time>2012-08-18T12:38:19Z</time>
      </trkpt>
      <trkpt lat="40.604968" lon="-1.436144">
        <ele>1193.8</ele>
        <time>2012-08-18T12:38:20Z</time>
      </trkpt>
      <trkpt lat="40.604955" lon="-1.436166">
        <ele>1194.2</ele>
        <time>2012-08-18T12:38:21Z</time>
      </trkpt>
      <trkpt lat="40.604943" lon="-1.436190">
        <ele>1194.6</ele>
        <time>2012-08-18T12:38:22Z</time>
      </trkpt>
      <trkpt lat="40.604916" lon="-1.436221">
        <ele>1194.6</ele>
        <time>2012-08-18T12:38:24Z</time>
      </trkpt>
      <trkpt lat="40.604848" lon="-1.436306">
        <ele>1195.4</ele>
        <time>2012-08-18T12:38:29Z</time>
      </trkpt>
      <trkpt lat="40.604828" lon="-1.436317">
        <ele>1195.8</ele>
        <time>2012-08-18T12:38:30Z</time>
      </trkpt>
      <trkpt lat="40.604807" lon="-1.436334">
        <ele>1196.4</ele>
        <time>2012-08-18T12:38:31Z</time>
      </trkpt>
      <trkpt lat="40.604786" lon="-1.436345">
        <ele>1196.8</ele>
        <time>2012-08-18T12:38:32Z</time>
      </trkpt>
      <trkpt lat="40.604716" lon="-1.436340">
        <ele>1196.8</ele>
        <time>2012-08-18T12:38:35Z</time>
      </trkpt>
      <trkpt lat="40.604668" lon="-1.436319">
        <ele>1197.2</ele>
        <time>2012-08-18T12:38:37Z</time>
      </trkpt>
      <trkpt lat="40.604647" lon="-1.436301">
        <ele>1197.6</ele>
        <time>2012-08-18T12:38:38Z</time>
      </trkpt>
      <trkpt lat="40.604627" lon="-1.436283">
        <ele>1198.0</ele>
        <time>2012-08-18T12:38:39Z</time>
      </trkpt>
      <trkpt lat="40.604607" lon="-1.436268">
        <ele>1198.4</ele>
        <time>2012-08-18T12:38:40Z</time>
      </trkpt>
      <trkpt lat="40.604589" lon="-1.436255">
        <ele>1199.0</ele>
        <time>2012-08-18T12:38:41Z</time>
      </trkpt>
      <trkpt lat="40.604502" lon="-1.436183">
        <ele>1199.0</ele>
        <time>2012-08-18T12:38:46Z</time>
      </trkpt>
      <trkpt lat="40.604442" lon="-1.436100">
        <ele>1199.0</ele>
        <time>2012-08-18T12:38:51Z</time>
      </trkpt>
      <trkpt lat="40.604355" lon="-1.435996">
        <ele>1199.0</ele>
        <time>2012-08-18T12:38:57Z</time>
      </trkpt>
      <trkpt lat="40.604271" lon="-1.435902">
        <ele>1199.0</ele>
        <time>2012-08-18T12:39:03Z</time>
      </trkpt>
      <trkpt lat="40.604165" lon="-1.435769">
        <ele>1199.0</ele>
        <time>2012-08-18T12:39:11Z</time>
      </trkpt>
      <trkpt lat="40.604062" lon="-1.435645">
        <ele>1199.4</ele>
        <time>2012-08-18T12:39:18Z</time>
      </trkpt>
      <trkpt lat="40.604049" lon="-1.435624">
        <ele>1200.2</ele>
        <time>2012-08-18T12:39:19Z</time>
      </trkpt>
      <trkpt lat="40.604035" lon="-1.435603">
        <ele>1200.6</ele>
        <time>2012-08-18T12:39:20Z</time>
      </trkpt>
      <trkpt lat="40.604021" lon="-1.435580">
        <ele>1201.0</ele>
        <time>2012-08-18T12:39:21Z</time>
      </trkpt>
      <trkpt lat="40.603949" lon="-1.435420">
        <ele>1201.0</ele>
        <time>2012-08-18T12:39:27Z</time>
      </trkpt>
      <trkpt lat="40.603878" lon="-1.435115">
        <ele>1201.0</ele>
        <time>2012-08-18T12:39:36Z</time>
      </trkpt>
      <trkpt lat="40.603894" lon="-1.434983">
        <ele>1201.0</ele>
        <time>2012-08-18T12:39:40Z</time>
      </trkpt>
      <trkpt lat="40.603889" lon="-1.434845">
        <ele>1201.0</ele>
        <time>2012-08-18T12:39:45Z</time>
      </trkpt>
      <trkpt lat="40.603869" lon="-1.434661">
        <ele>1201.0</ele>
        <time>2012-08-18T12:39:51Z</time>
      </trkpt>
      <trkpt lat="40.603839" lon="-1.434417">
        <ele>1201.0</ele>
        <time>2012-08-18T12:39:57Z</time>
      </trkpt>
      <trkpt lat="40.603790" lon="-1.434157">
        <ele>1201.0</ele>
        <time>2012-08-18T12:40:02Z</time>
      </trkpt>
      <trkpt lat="40.603734" lon="-1.433923">
        <ele>1201.0</ele>
        <time>2012-08-18T12:40:06Z</time>
      </trkpt>
      <trkpt lat="40.603680" lon="-1.433741">
        <ele>1201.0</ele>
        <time>2012-08-18T12:40:09Z</time>
      </trkpt>
      <trkpt lat="40.603663" lon="-1.433677">
        <ele>1200.6</ele>
        <time>2012-08-18T12:40:10Z</time>
      </trkpt>
      <trkpt lat="40.603646" lon="-1.433618">
        <ele>1200.2</ele>
        <time>2012-08-18T12:40:11Z</time>
      </trkpt>
      <trkpt lat="40.603624" lon="-1.433560">
        <ele>1199.6</ele>
        <time>2012-08-18T12:40:12Z</time>
      </trkpt>
      <trkpt lat="40.603605" lon="-1.433498">
        <ele>1199.2</ele>
        <time>2012-08-18T12:40:13Z</time>
      </trkpt>
      <trkpt lat="40.603592" lon="-1.433437">
        <ele>1198.8</ele>
        <time>2012-08-18T12:40:14Z</time>
      </trkpt>
      <trkpt lat="40.603559" lon="-1.433324">
        <ele>1198.8</ele>
        <time>2012-08-18T12:40:16Z</time>
      </trkpt>
      <trkpt lat="40.603459" lon="-1.433103">
        <ele>1198.8</ele>
        <time>2012-08-18T12:40:20Z</time>
      </trkpt>
      <trkpt lat="40.603430" lon="-1.433052">
        <ele>1198.8</ele>
        <time>2012-08-18T12:40:21Z</time>
      </trkpt>
      <trkpt lat="40.603300" lon="-1.432858">
        <ele>1198.8</ele>
        <time>2012-08-18T12:40:25Z</time>
      </trkpt>
      <trkpt lat="40.603159" lon="-1.432655">
        <ele>1198.8</ele>
        <time>2012-08-18T12:40:29Z</time>
      </trkpt>
      <trkpt lat="40.603088" lon="-1.432557">
        <ele>1198.8</ele>
        <time>2012-08-18T12:40:31Z</time>
      </trkpt>
      <trkpt lat="40.602889" lon="-1.432261">
        <ele>1198.8</ele>
        <time>2012-08-18T12:40:37Z</time>
      </trkpt>
      <trkpt lat="40.602824" lon="-1.432177">
        <ele>1198.8</ele>
        <time>2012-08-18T12:40:39Z</time>
      </trkpt>
      <trkpt lat="40.602765" lon="-1.432087">
        <ele>1198.8</ele>
        <time>2012-08-18T12:40:41Z</time>
      </trkpt>
      <trkpt lat="40.602625" lon="-1.431839">
        <ele>1198.8</ele>
        <time>2012-08-18T12:40:46Z</time>
      </trkpt>
      <trkpt lat="40.602429" lon="-1.431524">
        <ele>1198.8</ele>
        <time>2012-08-18T12:40:53Z</time>
      </trkpt>
      <trkpt lat="40.602217" lon="-1.431237">
        <ele>1198.8</ele>
        <time>2012-08-18T12:41:00Z</time>
      </trkpt>
      <trkpt lat="40.602006" lon="-1.431051">
        <ele>1198.8</ele>
        <time>2012-08-18T12:41:06Z</time>
      </trkpt>
      <trkpt lat="40.601905" lon="-1.430965">
        <ele>1198.8</ele>
        <time>2012-08-18T12:41:09Z</time>
      </trkpt>
      <trkpt lat="40.601786" lon="-1.430842">
        <ele>1198.8</ele>
        <time>2012-08-18T12:41:13Z</time>
      </trkpt>
      <trkpt lat="40.601531" lon="-1.430493">
        <ele>1198.8</ele>
        <time>2012-08-18T12:41:22Z</time>
      </trkpt>
      <trkpt lat="40.601477" lon="-1.430408">
        <ele>1198.8</ele>
        <time>2012-08-18T12:41:24Z</time>
      </trkpt>
      <trkpt lat="40.601387" lon="-1.430269">
        <ele>1198.8</ele>
        <time>2012-08-18T12:41:27Z</time>
      </trkpt>
      <trkpt lat="40.601354" lon="-1.430219">
        <ele>1198.8</ele>
        <time>2012-08-18T12:41:28Z</time>
      </trkpt>
      <trkpt lat="40.601196" lon="-1.429955">
        <ele>1198.4</ele>
        <time>2012-08-18T12:41:33Z</time>
      </trkpt>
      <trkpt lat="40.601161" lon="-1.429904">
        <ele>1198.0</ele>
        <time>2012-08-18T12:41:34Z</time>
      </trkpt>
      <trkpt lat="40.601129" lon="-1.429850">
        <ele>1197.6</ele>
        <time>2012-08-18T12:41:35Z</time>
      </trkpt>
      <trkpt lat="40.601098" lon="-1.429803">
        <ele>1197.2</ele>
        <time>2012-08-18T12:41:36Z</time>
      </trkpt>
      <trkpt lat="40.601063" lon="-1.429758">
        <ele>1196.8</ele>
        <time>2012-08-18T12:41:37Z</time>
      </trkpt>
      <trkpt lat="40.600926" lon="-1.429568">
        <ele>1196.8</ele>
        <time>2012-08-18T12:41:41Z</time>
      </trkpt>
      <trkpt lat="40.600886" lon="-1.429525">
        <ele>1196.8</ele>
        <time>2012-08-18T12:41:42Z</time>
      </trkpt>
      <trkpt lat="40.600736" lon="-1.429404">
        <ele>1196.8</ele>
        <time>2012-08-18T12:41:46Z</time>
      </trkpt>
      <trkpt lat="40.600576" lon="-1.429275">
        <ele>1196.8</ele>
        <time>2012-08-18T12:41:52Z</time>
      </trkpt>
      <trkpt lat="40.600551" lon="-1.429255">
        <ele>1196.8</ele>
        <time>2012-08-18T12:41:55Z</time>
      </trkpt>
      <trkpt lat="40.600555" lon="-1.429256">
        <ele>1196.8</ele>
        <time>2012-08-18T12:41:56Z</time>
      </trkpt>
      <trkpt lat="40.600557" lon="-1.429257">
        <ele>1196.8</ele>
        <time>2012-08-18T12:41:58Z</time>
      </trkpt>
      <trkpt lat="40.600517" lon="-1.429204">
        <ele>1197.4</ele>
        <time>2012-08-18T12:43:23Z</time>
      </trkpt>
      <trkpt lat="40.600482" lon="-1.429172">
        <ele>1197.4</ele>
        <time>2012-08-18T12:43:25Z</time>
      </trkpt>
      <trkpt lat="40.600452" lon="-1.429125">
        <ele>1197.4</ele>
        <time>2012-08-18T12:43:27Z</time>
      </trkpt>
      <trkpt lat="40.600413" lon="-1.429050">
        <ele>1197.4</ele>
        <time>2012-08-18T12:43:30Z</time>
      </trkpt>
      <trkpt lat="40.600339" lon="-1.428913">
        <ele>1197.0</ele>
        <time>2012-08-18T12:43:34Z</time>
      </trkpt>
      <trkpt lat="40.600324" lon="-1.428872">
        <ele>1196.6</ele>
        <time>2012-08-18T12:43:35Z</time>
      </trkpt>
      <trkpt lat="40.600309" lon="-1.428824">
        <ele>1196.2</ele>
        <time>2012-08-18T12:43:36Z</time>
      </trkpt>
      <trkpt lat="40.600295" lon="-1.428779">
        <ele>1195.8</ele>
        <time>2012-08-18T12:43:37Z</time>
      </trkpt>
      <trkpt lat="40.600281" lon="-1.428732">
        <ele>1195.4</ele>
        <time>2012-08-18T12:43:38Z</time>
      </trkpt>
      <trkpt lat="40.600241" lon="-1.428513">
        <ele>1195.4</ele>
        <time>2012-08-18T12:43:42Z</time>
      </trkpt>
      <trkpt lat="40.600182" lon="-1.428019">
        <ele>1195.4</ele>
        <time>2012-08-18T12:43:50Z</time>
      </trkpt>
      <trkpt lat="40.600146" lon="-1.427604">
        <ele>1194.8</ele>
        <time>2012-08-18T12:43:56Z</time>
      </trkpt>
      <trkpt lat="40.600140" lon="-1.427530">
        <ele>1194.4</ele>
        <time>2012-08-18T12:43:57Z</time>
      </trkpt>
      <trkpt lat="40.600134" lon="-1.427454">
        <ele>1194.0</ele>
        <time>2012-08-18T12:43:58Z</time>
      </trkpt>
      <trkpt lat="40.600125" lon="-1.427382">
        <ele>1193.6</ele>
        <time>2012-08-18T12:43:59Z</time>
      </trkpt>
      <trkpt lat="40.600117" lon="-1.427308">
        <ele>1193.2</ele>
        <time>2012-08-18T12:44:00Z</time>
      </trkpt>
      <trkpt lat="40.600057" lon="-1.426703">
        <ele>1193.2</ele>
        <time>2012-08-18T12:44:08Z</time>
      </trkpt>
      <trkpt lat="40.600003" lon="-1.426158">
        <ele>1192.8</ele>
        <time>2012-08-18T12:44:15Z</time>
      </trkpt>
      <trkpt lat="40.599997" lon="-1.426080">
        <ele>1192.4</ele>
        <time>2012-08-18T12:44:16Z</time>
      </trkpt>
      <trkpt lat="40.599989" lon="-1.426001">
        <ele>1192.0</ele>
        <time>2012-08-18T12:44:17Z</time>
      </trkpt>
      <trkpt lat="40.599982" lon="-1.425923">
        <ele>1191.2</ele>
        <time>2012-08-18T12:44:18Z</time>
      </trkpt>
      <trkpt lat="40.599919" lon="-1.425245">
        <ele>1191.2</ele>
        <time>2012-08-18T12:44:27Z</time>
      </trkpt>
      <trkpt lat="40.599952" lon="-1.424706">
        <ele>1191.2</ele>
        <time>2012-08-18T12:44:34Z</time>
      </trkpt>
      <trkpt lat="40.600025" lon="-1.424393">
        <ele>1190.8</ele>
        <time>2012-08-18T12:44:38Z</time>
      </trkpt>
      <trkpt lat="40.600044" lon="-1.424312">
        <ele>1190.4</ele>
        <time>2012-08-18T12:44:39Z</time>
      </trkpt>
      <trkpt lat="40.600063" lon="-1.424228">
        <ele>1190.0</ele>
        <time>2012-08-18T12:44:40Z</time>
      </trkpt>
      <trkpt lat="40.600079" lon="-1.424145">
        <ele>1189.4</ele>
        <time>2012-08-18T12:44:41Z</time>
      </trkpt>
      <trkpt lat="40.600099" lon="-1.424064">
        <ele>1189.0</ele>
        <time>2012-08-18T12:44:42Z</time>
      </trkpt>
      <trkpt lat="40.600131" lon="-1.423707">
        <ele>1189.0</ele>
        <time>2012-08-18T12:44:46Z</time>
      </trkpt>
      <trkpt lat="40.600126" lon="-1.423531">
        <ele>1189.0</ele>
        <time>2012-08-18T12:44:48Z</time>
      </trkpt>
      <trkpt lat="40.600088" lon="-1.423385">
        <ele>1189.0</ele>
        <time>2012-08-18T12:44:50Z</time>
      </trkpt>
      <trkpt lat="40.600010" lon="-1.423098">
        <ele>1189.0</ele>
        <time>2012-08-18T12:44:55Z</time>
      </trkpt>
      <trkpt lat="40.599949" lon="-1.422812">
        <ele>1189.6</ele>
        <time>2012-08-18T12:45:01Z</time>
      </trkpt>
      <trkpt lat="40.599943" lon="-1.422768">
        <ele>1190.0</ele>
        <time>2012-08-18T12:45:02Z</time>
      </trkpt>
      <trkpt lat="40.599937" lon="-1.422724">
        <ele>1190.4</ele>
        <time>2012-08-18T12:45:03Z</time>
      </trkpt>
      <trkpt lat="40.599932" lon="-1.422679">
        <ele>1190.8</ele>
        <time>2012-08-18T12:45:04Z</time>
      </trkpt>
      <trkpt lat="40.599926" lon="-1.422631">
        <ele>1191.4</ele>
        <time>2012-08-18T12:45:05Z</time>
      </trkpt>
      <trkpt lat="40.599899" lon="-1.422352">
        <ele>1191.4</ele>
        <time>2012-08-18T12:45:10Z</time>
      </trkpt>
      <trkpt lat="40.599823" lon="-1.422020">
        <ele>1191.4</ele>
        <time>2012-08-18T12:45:15Z</time>
      </trkpt>
      <trkpt lat="40.599789" lon="-1.421864">
        <ele>1190.8</ele>
        <time>2012-08-18T12:45:17Z</time>
      </trkpt>
      <trkpt lat="40.599768" lon="-1.421787">
        <ele>1190.4</ele>
        <time>2012-08-18T12:45:18Z</time>
      </trkpt>
      <trkpt lat="40.599746" lon="-1.421706">
        <ele>1190.0</ele>
        <time>2012-08-18T12:45:19Z</time>
      </trkpt>
      <trkpt lat="40.599723" lon="-1.421625">
        <ele>1189.6</ele>
        <time>2012-08-18T12:45:20Z</time>
      </trkpt>
      <trkpt lat="40.599698" lon="-1.421539">
        <ele>1189.2</ele>
        <time>2012-08-18T12:45:21Z</time>
      </trkpt>
      <trkpt lat="40.599667" lon="-1.421455">
        <ele>1189.2</ele>
        <time>2012-08-18T12:45:22Z</time>
      </trkpt>
      <trkpt lat="40.599558" lon="-1.421203">
        <ele>1188.8</ele>
        <time>2012-08-18T12:45:25Z</time>
      </trkpt>
      <trkpt lat="40.599515" lon="-1.421124">
        <ele>1188.4</ele>
        <time>2012-08-18T12:45:26Z</time>
      </trkpt>
      <trkpt lat="40.599470" lon="-1.421044">
        <ele>1188.0</ele>
        <time>2012-08-18T12:45:27Z</time>
      </trkpt>
      <trkpt lat="40.599422" lon="-1.420965">
        <ele>1187.4</ele>
        <time>2012-08-18T12:45:28Z</time>
      </trkpt>
      <trkpt lat="40.599372" lon="-1.420883">
        <ele>1187.0</ele>
        <time>2012-08-18T12:45:29Z</time>
      </trkpt>
      <trkpt lat="40.599266" lon="-1.420721">
        <ele>1186.6</ele>
        <time>2012-08-18T12:45:31Z</time>
      </trkpt>
      <trkpt lat="40.599207" lon="-1.420636">
        <ele>1185.6</ele>
        <time>2012-08-18T12:45:32Z</time>
      </trkpt>
      <trkpt lat="40.599150" lon="-1.420554">
        <ele>1185.2</ele>
        <time>2012-08-18T12:45:33Z</time>
      </trkpt>
      <trkpt lat="40.599092" lon="-1.420468">
        <ele>1184.6</ele>
        <time>2012-08-18T12:45:34Z</time>
      </trkpt>
      <trkpt lat="40.599035" lon="-1.420383">
        <ele>1184.2</ele>
        <time>2012-08-18T12:45:35Z</time>
      </trkpt>
      <trkpt lat="40.598978" lon="-1.420297">
        <ele>1183.8</ele>
        <time>2012-08-18T12:45:36Z</time>
      </trkpt>
      <trkpt lat="40.598919" lon="-1.420209">
        <ele>1183.4</ele>
        <time>2012-08-18T12:45:37Z</time>
      </trkpt>
      <trkpt lat="40.598862" lon="-1.420123">
        <ele>1183.0</ele>
        <time>2012-08-18T12:45:38Z</time>
      </trkpt>
      <trkpt lat="40.598805" lon="-1.420033">
        <ele>1182.6</ele>
        <time>2012-08-18T12:45:39Z</time>
      </trkpt>
      <trkpt lat="40.598684" lon="-1.419848">
        <ele>1182.2</ele>
        <time>2012-08-18T12:45:41Z</time>
      </trkpt>
      <trkpt lat="40.598624" lon="-1.419758">
        <ele>1181.8</ele>
        <time>2012-08-18T12:45:42Z</time>
      </trkpt>
      <trkpt lat="40.598565" lon="-1.419667">
        <ele>1181.4</ele>
        <time>2012-08-18T12:45:43Z</time>
      </trkpt>
      <trkpt lat="40.598507" lon="-1.419579">
        <ele>1180.8</ele>
        <time>2012-08-18T12:45:44Z</time>
      </trkpt>
      <trkpt lat="40.598449" lon="-1.419497">
        <ele>1180.4</ele>
        <time>2012-08-18T12:45:45Z</time>
      </trkpt>
      <trkpt lat="40.598200" lon="-1.419176">
        <ele>1180.0</ele>
        <time>2012-08-18T12:45:49Z</time>
      </trkpt>
      <trkpt lat="40.598140" lon="-1.419097">
        <ele>1179.6</ele>
        <time>2012-08-18T12:45:50Z</time>
      </trkpt>
      <trkpt lat="40.598075" lon="-1.419020">
        <ele>1179.0</ele>
        <time>2012-08-18T12:45:51Z</time>
      </trkpt>
      <trkpt lat="40.598010" lon="-1.418942">
        <ele>1178.6</ele>
        <time>2012-08-18T12:45:52Z</time>
      </trkpt>
      <trkpt lat="40.597941" lon="-1.418860">
        <ele>1178.2</ele>
        <time>2012-08-18T12:45:53Z</time>
      </trkpt>
      <trkpt lat="40.597875" lon="-1.418776">
        <ele>1177.6</ele>
        <time>2012-08-18T12:45:54Z</time>
      </trkpt>
      <trkpt lat="40.597805" lon="-1.418686">
        <ele>1177.2</ele>
        <time>2012-08-18T12:45:55Z</time>
      </trkpt>
      <trkpt lat="40.597737" lon="-1.418599">
        <ele>1176.8</ele>
        <time>2012-08-18T12:45:56Z</time>
      </trkpt>
      <trkpt lat="40.597667" lon="-1.418514">
        <ele>1176.0</ele>
        <time>2012-08-18T12:45:57Z</time>
      </trkpt>
      <trkpt lat="40.597597" lon="-1.418428">
        <ele>1175.4</ele>
        <time>2012-08-18T12:45:58Z</time>
      </trkpt>
      <trkpt lat="40.597528" lon="-1.418342">
        <ele>1175.0</ele>
        <time>2012-08-18T12:45:59Z</time>
      </trkpt>
      <trkpt lat="40.597461" lon="-1.418259">
        <ele>1174.6</ele>
        <time>2012-08-18T12:46:00Z</time>
      </trkpt>
      <trkpt lat="40.597395" lon="-1.418174">
        <ele>1174.0</ele>
        <time>2012-08-18T12:46:01Z</time>
      </trkpt>
      <trkpt lat="40.597330" lon="-1.418090">
        <ele>1173.6</ele>
        <time>2012-08-18T12:46:02Z</time>
      </trkpt>
      <trkpt lat="40.597206" lon="-1.417924">
        <ele>1173.6</ele>
        <time>2012-08-18T12:46:04Z</time>
      </trkpt>
      <trkpt lat="40.596792" lon="-1.417415">
        <ele>1173.6</ele>
        <time>2012-08-18T12:46:11Z</time>
      </trkpt>
      <trkpt lat="40.596485" lon="-1.417041">
        <ele>1173.6</ele>
        <time>2012-08-18T12:46:17Z</time>
      </trkpt>
      <trkpt lat="40.596292" lon="-1.416777">
        <ele>1173.2</ele>
        <time>2012-08-18T12:46:21Z</time>
      </trkpt>
      <trkpt lat="40.596242" lon="-1.416709">
        <ele>1172.8</ele>
        <time>2012-08-18T12:46:22Z</time>
      </trkpt>
      <trkpt lat="40.596189" lon="-1.416641">
        <ele>1172.4</ele>
        <time>2012-08-18T12:46:23Z</time>
      </trkpt>
      <trkpt lat="40.596138" lon="-1.416574">
        <ele>1172.0</ele>
        <time>2012-08-18T12:46:24Z</time>
      </trkpt>
      <trkpt lat="40.596086" lon="-1.416504">
        <ele>1171.6</ele>
        <time>2012-08-18T12:46:25Z</time>
      </trkpt>
      <trkpt lat="40.595930" lon="-1.416277">
        <ele>1171.0</ele>
        <time>2012-08-18T12:46:28Z</time>
      </trkpt>
      <trkpt lat="40.595879" lon="-1.416197">
        <ele>1170.6</ele>
        <time>2012-08-18T12:46:29Z</time>
      </trkpt>
      <trkpt lat="40.595826" lon="-1.416115">
        <ele>1170.2</ele>
        <time>2012-08-18T12:46:30Z</time>
      </trkpt>
      <trkpt lat="40.595772" lon="-1.416031">
        <ele>1169.8</ele>
        <time>2012-08-18T12:46:31Z</time>
      </trkpt>
      <trkpt lat="40.595715" lon="-1.415950">
        <ele>1169.2</ele>
        <time>2012-08-18T12:46:32Z</time>
      </trkpt>
      <trkpt lat="40.595526" lon="-1.415722">
        <ele>1168.8</ele>
        <time>2012-08-18T12:46:35Z</time>
      </trkpt>
      <trkpt lat="40.595468" lon="-1.415642">
        <ele>1168.4</ele>
        <time>2012-08-18T12:46:36Z</time>
      </trkpt>
      <trkpt lat="40.595412" lon="-1.415561">
        <ele>1167.8</ele>
        <time>2012-08-18T12:46:37Z</time>
      </trkpt>
      <trkpt lat="40.595355" lon="-1.415479">
        <ele>1167.4</ele>
        <time>2012-08-18T12:46:38Z</time>
      </trkpt>
      <trkpt lat="40.595297" lon="-1.415397">
        <ele>1166.8</ele>
        <time>2012-08-18T12:46:39Z</time>
      </trkpt>
      <trkpt lat="40.595185" lon="-1.415214">
        <ele>1166.8</ele>
        <time>2012-08-18T12:46:41Z</time>
      </trkpt>
      <trkpt lat="40.595140" lon="-1.415115">
        <ele>1166.4</ele>
        <time>2012-08-18T12:46:42Z</time>
      </trkpt>
      <trkpt lat="40.595102" lon="-1.415014">
        <ele>1166.0</ele>
        <time>2012-08-18T12:46:43Z</time>
      </trkpt>
      <trkpt lat="40.595068" lon="-1.414907">
        <ele>1165.4</ele>
        <time>2012-08-18T12:46:44Z</time>
      </trkpt>
      <trkpt lat="40.595037" lon="-1.414797">
        <ele>1165.0</ele>
        <time>2012-08-18T12:46:45Z</time>
      </trkpt>
      <trkpt lat="40.595006" lon="-1.414683">
        <ele>1164.6</ele>
        <time>2012-08-18T12:46:46Z</time>
      </trkpt>
      <trkpt lat="40.594979" lon="-1.414569">
        <ele>1164.0</ele>
        <time>2012-08-18T12:46:47Z</time>
      </trkpt>
      <trkpt lat="40.594957" lon="-1.414453">
        <ele>1163.6</ele>
        <time>2012-08-18T12:46:48Z</time>
      </trkpt>
      <trkpt lat="40.594936" lon="-1.414345">
        <ele>1163.0</ele>
        <time>2012-08-18T12:46:49Z</time>
      </trkpt>
      <trkpt lat="40.594915" lon="-1.414242">
        <ele>1162.4</ele>
        <time>2012-08-18T12:46:50Z</time>
      </trkpt>
      <trkpt lat="40.594897" lon="-1.414145">
        <ele>1162.0</ele>
        <time>2012-08-18T12:46:51Z</time>
      </trkpt>
      <trkpt lat="40.594836" lon="-1.413863">
        <ele>1162.0</ele>
        <time>2012-08-18T12:46:54Z</time>
      </trkpt>
      <trkpt lat="40.594717" lon="-1.413312">
        <ele>1162.0</ele>
        <time>2012-08-18T12:47:00Z</time>
      </trkpt>
      <trkpt lat="40.594588" lon="-1.412753">
        <ele>1162.0</ele>
        <time>2012-08-18T12:47:06Z</time>
      </trkpt>
      <trkpt lat="40.594439" lon="-1.412084">
        <ele>1162.0</ele>
        <time>2012-08-18T12:47:13Z</time>
      </trkpt>
      <trkpt lat="40.594377" lon="-1.411800">
        <ele>1161.6</ele>
        <time>2012-08-18T12:47:16Z</time>
      </trkpt>
      <trkpt lat="40.594359" lon="-1.411706">
        <ele>1161.2</ele>
        <time>2012-08-18T12:47:17Z</time>
      </trkpt>
      <trkpt lat="40.594338" lon="-1.411614">
        <ele>1160.8</ele>
        <time>2012-08-18T12:47:18Z</time>
      </trkpt>
      <trkpt lat="40.594318" lon="-1.411511">
        <ele>1160.4</ele>
        <time>2012-08-18T12:47:19Z</time>
      </trkpt>
      <trkpt lat="40.594299" lon="-1.411422">
        <ele>1160.0</ele>
        <time>2012-08-18T12:47:20Z</time>
      </trkpt>
      <trkpt lat="40.594136" lon="-1.410772">
        <ele>1160.0</ele>
        <time>2012-08-18T12:47:27Z</time>
      </trkpt>
      <trkpt lat="40.594079" lon="-1.410588">
        <ele>1159.6</ele>
        <time>2012-08-18T12:47:29Z</time>
      </trkpt>
      <trkpt lat="40.594048" lon="-1.410503">
        <ele>1159.0</ele>
        <time>2012-08-18T12:47:30Z</time>
      </trkpt>
      <trkpt lat="40.594017" lon="-1.410412">
        <ele>1158.6</ele>
        <time>2012-08-18T12:47:31Z</time>
      </trkpt>
      <trkpt lat="40.593987" lon="-1.410325">
        <ele>1158.2</ele>
        <time>2012-08-18T12:47:32Z</time>
      </trkpt>
      <trkpt lat="40.593953" lon="-1.410239">
        <ele>1157.8</ele>
        <time>2012-08-18T12:47:33Z</time>
      </trkpt>
      <trkpt lat="40.593825" lon="-1.409895">
        <ele>1157.8</ele>
        <time>2012-08-18T12:47:37Z</time>
      </trkpt>
      <trkpt lat="40.593604" lon="-1.409310">
        <ele>1157.8</ele>
        <time>2012-08-18T12:47:44Z</time>
      </trkpt>
      <trkpt lat="40.593509" lon="-1.409069">
        <ele>1157.4</ele>
        <time>2012-08-18T12:47:47Z</time>
      </trkpt>
      <trkpt lat="40.593481" lon="-1.408986">
        <ele>1157.0</ele>
        <time>2012-08-18T12:47:48Z</time>
      </trkpt>
    </trkseg>
  </trk>
  <trk>
    <name>T3303249-4</name>
    <cmt>La ruta empieza en Ojos Negros. Hasta Santa Eulalia va por una carretera comarcal apenas transitada. Hay un tramo de unos 40 km durante el puerto del Escandón que no aparece reflejado en el track porque me quedé sin batería en el GPS pero la vía verde no tiene pérdida en esa zona</cmt>
    <desc>La ruta empieza en Ojos Negros. Hasta Santa Eulalia va por una carretera comarcal apenas transitada. Hay un tramo de unos 40 km durante el puerto del Escandón que no aparece reflejado en el track porque me quedé sin batería en el GPS pero la vía verde no tiene pérdida en esa zona</desc>
    <trkseg>
      <trkpt lat="40.593454" lon="-1.408903">
        <ele>1156.6</ele>
        <time>2012-08-18T12:47:49Z</time>
      </trkpt>
      <trkpt lat="40.593428" lon="-1.408821">
        <ele>1156.2</ele>
        <time>2012-08-18T12:47:50Z</time>
      </trkpt>
      <trkpt lat="40.593402" lon="-1.408740">
        <ele>1155.8</ele>
        <time>2012-08-18T12:47:51Z</time>
      </trkpt>
      <trkpt lat="40.593369" lon="-1.408662">
        <ele>1155.8</ele>
        <time>2012-08-18T12:47:52Z</time>
      </trkpt>
      <trkpt lat="40.593243" lon="-1.408339">
        <ele>1155.8</ele>
        <time>2012-08-18T12:47:56Z</time>
      </trkpt>
      <trkpt lat="40.593092" lon="-1.407910">
        <ele>1155.2</ele>
        <time>2012-08-18T12:48:01Z</time>
      </trkpt>
      <trkpt lat="40.593057" lon="-1.407828">
        <ele>1154.8</ele>
        <time>2012-08-18T12:48:02Z</time>
      </trkpt>
      <trkpt lat="40.593028" lon="-1.407746">
        <ele>1154.4</ele>
        <time>2012-08-18T12:48:03Z</time>
      </trkpt>
      <trkpt lat="40.592995" lon="-1.407664">
        <ele>1154.0</ele>
        <time>2012-08-18T12:48:04Z</time>
      </trkpt>
      <trkpt lat="40.592963" lon="-1.407584">
        <ele>1153.4</ele>
        <time>2012-08-18T12:48:05Z</time>
      </trkpt>
      <trkpt lat="40.592867" lon="-1.407249">
        <ele>1153.4</ele>
        <time>2012-08-18T12:48:09Z</time>
      </trkpt>
      <trkpt lat="40.592852" lon="-1.407157">
        <ele>1153.4</ele>
        <time>2012-08-18T12:48:10Z</time>
      </trkpt>
      <trkpt lat="40.592840" lon="-1.406876">
        <ele>1153.4</ele>
        <time>2012-08-18T12:48:13Z</time>
      </trkpt>
      <trkpt lat="40.592843" lon="-1.406781">
        <ele>1153.0</ele>
        <time>2012-08-18T12:48:14Z</time>
      </trkpt>
      <trkpt lat="40.592849" lon="-1.406686">
        <ele>1152.6</ele>
        <time>2012-08-18T12:48:15Z</time>
      </trkpt>
      <trkpt lat="40.592859" lon="-1.406584">
        <ele>1152.2</ele>
        <time>2012-08-18T12:48:16Z</time>
      </trkpt>
      <trkpt lat="40.592869" lon="-1.406486">
        <ele>1151.8</ele>
        <time>2012-08-18T12:48:17Z</time>
      </trkpt>
      <trkpt lat="40.592877" lon="-1.406380">
        <ele>1151.4</ele>
        <time>2012-08-18T12:48:18Z</time>
      </trkpt>
      <trkpt lat="40.592911" lon="-1.406084">
        <ele>1151.4</ele>
        <time>2012-08-18T12:48:21Z</time>
      </trkpt>
      <trkpt lat="40.593021" lon="-1.405481">
        <ele>1151.4</ele>
        <time>2012-08-18T12:48:28Z</time>
      </trkpt>
      <trkpt lat="40.593125" lon="-1.405198">
        <ele>1151.4</ele>
        <time>2012-08-18T12:48:32Z</time>
      </trkpt>
      <trkpt lat="40.593185" lon="-1.405066">
        <ele>1151.4</ele>
        <time>2012-08-18T12:48:34Z</time>
      </trkpt>
      <trkpt lat="40.593347" lon="-1.404716">
        <ele>1151.4</ele>
        <time>2012-08-18T12:48:39Z</time>
      </trkpt>
      <trkpt lat="40.593432" lon="-1.404601">
        <ele>1151.4</ele>
        <time>2012-08-18T12:48:41Z</time>
      </trkpt>
      <trkpt lat="40.593720" lon="-1.404290">
        <ele>1151.4</ele>
        <time>2012-08-18T12:48:47Z</time>
      </trkpt>
      <trkpt lat="40.593849" lon="-1.404106">
        <ele>1151.4</ele>
        <time>2012-08-18T12:48:50Z</time>
      </trkpt>
      <trkpt lat="40.593892" lon="-1.403950">
        <ele>1151.4</ele>
        <time>2012-08-18T12:48:52Z</time>
      </trkpt>
      <trkpt lat="40.593904" lon="-1.403643">
        <ele>1151.4</ele>
        <time>2012-08-18T12:48:56Z</time>
      </trkpt>
      <trkpt lat="40.593900" lon="-1.403165">
        <ele>1151.4</ele>
        <time>2012-08-18T12:49:03Z</time>
      </trkpt>
      <trkpt lat="40.593907" lon="-1.402865">
        <ele>1151.8</ele>
        <time>2012-08-18T12:49:08Z</time>
      </trkpt>
      <trkpt lat="40.593909" lon="-1.402805">
        <ele>1152.2</ele>
        <time>2012-08-18T12:49:09Z</time>
      </trkpt>
      <trkpt lat="40.593911" lon="-1.402743">
        <ele>1152.8</ele>
        <time>2012-08-18T12:49:10Z</time>
      </trkpt>
      <trkpt lat="40.593911" lon="-1.402681">
        <ele>1153.2</ele>
        <time>2012-08-18T12:49:11Z</time>
      </trkpt>
      <trkpt lat="40.593917" lon="-1.402620">
        <ele>1153.6</ele>
        <time>2012-08-18T12:49:12Z</time>
      </trkpt>
      <trkpt lat="40.593925" lon="-1.402507">
        <ele>1153.6</ele>
        <time>2012-08-18T12:49:14Z</time>
      </trkpt>
      <trkpt lat="40.593927" lon="-1.402399">
        <ele>1154.0</ele>
        <time>2012-08-18T12:49:16Z</time>
      </trkpt>
      <trkpt lat="40.593929" lon="-1.402347">
        <ele>1154.4</ele>
        <time>2012-08-18T12:49:17Z</time>
      </trkpt>
      <trkpt lat="40.593933" lon="-1.402293">
        <ele>1155.0</ele>
        <time>2012-08-18T12:49:18Z</time>
      </trkpt>
      <trkpt lat="40.593936" lon="-1.402240">
        <ele>1155.4</ele>
        <time>2012-08-18T12:49:19Z</time>
      </trkpt>
      <trkpt lat="40.593938" lon="-1.402192">
        <ele>1155.8</ele>
        <time>2012-08-18T12:49:20Z</time>
      </trkpt>
      <trkpt lat="40.593944" lon="-1.401989">
        <ele>1156.2</ele>
        <time>2012-08-18T12:49:24Z</time>
      </trkpt>
      <trkpt lat="40.593945" lon="-1.401943">
        <ele>1156.8</ele>
        <time>2012-08-18T12:49:25Z</time>
      </trkpt>
      <trkpt lat="40.593945" lon="-1.401898">
        <ele>1157.2</ele>
        <time>2012-08-18T12:49:26Z</time>
      </trkpt>
      <trkpt lat="40.593946" lon="-1.401853">
        <ele>1157.6</ele>
        <time>2012-08-18T12:49:27Z</time>
      </trkpt>
      <trkpt lat="40.593948" lon="-1.401808">
        <ele>1158.2</ele>
        <time>2012-08-18T12:49:28Z</time>
      </trkpt>
      <trkpt lat="40.593960" lon="-1.401637">
        <ele>1158.6</ele>
        <time>2012-08-18T12:49:32Z</time>
      </trkpt>
      <trkpt lat="40.593959" lon="-1.401598">
        <ele>1159.0</ele>
        <time>2012-08-18T12:49:33Z</time>
      </trkpt>
      <trkpt lat="40.593962" lon="-1.401562">
        <ele>1159.4</ele>
        <time>2012-08-18T12:49:34Z</time>
      </trkpt>
      <trkpt lat="40.593966" lon="-1.401534">
        <ele>1159.8</ele>
        <time>2012-08-18T12:49:35Z</time>
      </trkpt>
      <trkpt lat="40.593969" lon="-1.401498">
        <ele>1160.2</ele>
        <time>2012-08-18T12:49:36Z</time>
      </trkpt>
      <trkpt lat="40.593975" lon="-1.401462">
        <ele>1160.2</ele>
        <time>2012-08-18T12:49:37Z</time>
      </trkpt>
      <trkpt lat="40.593977" lon="-1.401287">
        <ele>1160.6</ele>
        <time>2012-08-18T12:49:42Z</time>
      </trkpt>
      <trkpt lat="40.593977" lon="-1.401247">
        <ele>1161.0</ele>
        <time>2012-08-18T12:49:43Z</time>
      </trkpt>
      <trkpt lat="40.593979" lon="-1.401209">
        <ele>1161.4</ele>
        <time>2012-08-18T12:49:44Z</time>
      </trkpt>
      <trkpt lat="40.593980" lon="-1.401174">
        <ele>1161.8</ele>
        <time>2012-08-18T12:49:45Z</time>
      </trkpt>
      <trkpt lat="40.593978" lon="-1.401138">
        <ele>1162.2</ele>
        <time>2012-08-18T12:49:46Z</time>
      </trkpt>
      <trkpt lat="40.593995" lon="-1.401003">
        <ele>1162.2</ele>
        <time>2012-08-18T12:49:50Z</time>
      </trkpt>
      <trkpt lat="40.594003" lon="-1.400833">
        <ele>1162.6</ele>
        <time>2012-08-18T12:49:55Z</time>
      </trkpt>
      <trkpt lat="40.594003" lon="-1.400799">
        <ele>1163.0</ele>
        <time>2012-08-18T12:49:56Z</time>
      </trkpt>
      <trkpt lat="40.594004" lon="-1.400763">
        <ele>1163.4</ele>
        <time>2012-08-18T12:49:57Z</time>
      </trkpt>
      <trkpt lat="40.594010" lon="-1.400729">
        <ele>1163.8</ele>
        <time>2012-08-18T12:49:58Z</time>
      </trkpt>
      <trkpt lat="40.594014" lon="-1.400695">
        <ele>1164.2</ele>
        <time>2012-08-18T12:49:59Z</time>
      </trkpt>
      <trkpt lat="40.594034" lon="-1.400507">
        <ele>1164.2</ele>
        <time>2012-08-18T12:50:05Z</time>
      </trkpt>
      <trkpt lat="40.594052" lon="-1.400226">
        <ele>1164.2</ele>
        <time>2012-08-18T12:50:13Z</time>
      </trkpt>
      <trkpt lat="40.594065" lon="-1.400120">
        <ele>1164.2</ele>
        <time>2012-08-18T12:50:17Z</time>
      </trkpt>
      <trkpt lat="40.594061" lon="-1.400107">
        <ele>1164.2</ele>
        <time>2012-08-18T12:50:18Z</time>
      </trkpt>
      <trkpt lat="40.594057" lon="-1.400104">
        <ele>1164.2</ele>
        <time>2012-08-18T12:50:19Z</time>
      </trkpt>
      <trkpt lat="40.594057" lon="-1.400105">
        <ele>1164.2</ele>
        <time>2012-08-18T12:50:21Z</time>
      </trkpt>
      <trkpt lat="40.594062" lon="-1.400055">
        <ele>1164.2</ele>
        <time>2012-08-18T12:50:27Z</time>
      </trkpt>
      <trkpt lat="40.594057" lon="-1.400038">
        <ele>1164.2</ele>
        <time>2012-08-18T12:50:30Z</time>
      </trkpt>
      <trkpt lat="40.594058" lon="-1.400033">
        <ele>1164.2</ele>
        <time>2012-08-18T12:50:32Z</time>
      </trkpt>
      <trkpt lat="40.594124" lon="-1.399907">
        <ele>1164.2</ele>
        <time>2012-08-18T12:52:10Z</time>
      </trkpt>
      <trkpt lat="40.594197" lon="-1.399674">
        <ele>1164.2</ele>
        <time>2012-08-18T12:52:16Z</time>
      </trkpt>
      <trkpt lat="40.594285" lon="-1.399391">
        <ele>1164.2</ele>
        <time>2012-08-18T12:52:20Z</time>
      </trkpt>
      <trkpt lat="40.594312" lon="-1.399310">
        <ele>1163.8</ele>
        <time>2012-08-18T12:52:21Z</time>
      </trkpt>
      <trkpt lat="40.594338" lon="-1.399226">
        <ele>1163.4</ele>
        <time>2012-08-18T12:52:22Z</time>
      </trkpt>
      <trkpt lat="40.594364" lon="-1.399135">
        <ele>1163.0</ele>
        <time>2012-08-18T12:52:23Z</time>
      </trkpt>
      <trkpt lat="40.594394" lon="-1.399044">
        <ele>1162.6</ele>
        <time>2012-08-18T12:52:24Z</time>
      </trkpt>
      <trkpt lat="40.594424" lon="-1.398944">
        <ele>1162.2</ele>
        <time>2012-08-18T12:52:25Z</time>
      </trkpt>
      <trkpt lat="40.594458" lon="-1.398846">
        <ele>1161.8</ele>
        <time>2012-08-18T12:52:26Z</time>
      </trkpt>
      <trkpt lat="40.594491" lon="-1.398742">
        <ele>1161.4</ele>
        <time>2012-08-18T12:52:27Z</time>
      </trkpt>
      <trkpt lat="40.594524" lon="-1.398634">
        <ele>1160.8</ele>
        <time>2012-08-18T12:52:28Z</time>
      </trkpt>
      <trkpt lat="40.594556" lon="-1.398522">
        <ele>1160.4</ele>
        <time>2012-08-18T12:52:29Z</time>
      </trkpt>
      <trkpt lat="40.594588" lon="-1.398406">
        <ele>1160.0</ele>
        <time>2012-08-18T12:52:30Z</time>
      </trkpt>
      <trkpt lat="40.594620" lon="-1.398287">
        <ele>1158.8</ele>
        <time>2012-08-18T12:52:31Z</time>
      </trkpt>
      <trkpt lat="40.594653" lon="-1.398164">
        <ele>1158.4</ele>
        <time>2012-08-18T12:52:32Z</time>
      </trkpt>
      <trkpt lat="40.594683" lon="-1.398037">
        <ele>1157.8</ele>
        <time>2012-08-18T12:52:33Z</time>
      </trkpt>
      <trkpt lat="40.594714" lon="-1.397902">
        <ele>1157.2</ele>
        <time>2012-08-18T12:52:34Z</time>
      </trkpt>
      <trkpt lat="40.594744" lon="-1.397771">
        <ele>1156.6</ele>
        <time>2012-08-18T12:52:35Z</time>
      </trkpt>
      <trkpt lat="40.594777" lon="-1.397639">
        <ele>1156.2</ele>
        <time>2012-08-18T12:52:36Z</time>
      </trkpt>
      <trkpt lat="40.594812" lon="-1.397505">
        <ele>1155.6</ele>
        <time>2012-08-18T12:52:37Z</time>
      </trkpt>
      <trkpt lat="40.594850" lon="-1.397368">
        <ele>1155.0</ele>
        <time>2012-08-18T12:52:38Z</time>
      </trkpt>
      <trkpt lat="40.594890" lon="-1.397231">
        <ele>1154.6</ele>
        <time>2012-08-18T12:52:39Z</time>
      </trkpt>
      <trkpt lat="40.594928" lon="-1.397091">
        <ele>1154.0</ele>
        <time>2012-08-18T12:52:40Z</time>
      </trkpt>
      <trkpt lat="40.594967" lon="-1.396940">
        <ele>1153.4</ele>
        <time>2012-08-18T12:52:41Z</time>
      </trkpt>
      <trkpt lat="40.595001" lon="-1.396793">
        <ele>1152.6</ele>
        <time>2012-08-18T12:52:42Z</time>
      </trkpt>
      <trkpt lat="40.595030" lon="-1.396645">
        <ele>1152.0</ele>
        <time>2012-08-18T12:52:43Z</time>
      </trkpt>
      <trkpt lat="40.595056" lon="-1.396496">
        <ele>1151.4</ele>
        <time>2012-08-18T12:52:44Z</time>
      </trkpt>
      <trkpt lat="40.595083" lon="-1.396350">
        <ele>1150.6</ele>
        <time>2012-08-18T12:52:45Z</time>
      </trkpt>
      <trkpt lat="40.595111" lon="-1.396207">
        <ele>1150.0</ele>
        <time>2012-08-18T12:52:46Z</time>
      </trkpt>
      <trkpt lat="40.595139" lon="-1.396067">
        <ele>1149.4</ele>
        <time>2012-08-18T12:52:47Z</time>
      </trkpt>
      <trkpt lat="40.595158" lon="-1.395933">
        <ele>1148.6</ele>
        <time>2012-08-18T12:52:48Z</time>
      </trkpt>
      <trkpt lat="40.595170" lon="-1.395800">
        <ele>1147.8</ele>
        <time>2012-08-18T12:52:49Z</time>
      </trkpt>
      <trkpt lat="40.595175" lon="-1.395677">
        <ele>1147.2</ele>
        <time>2012-08-18T12:52:50Z</time>
      </trkpt>
      <trkpt lat="40.595168" lon="-1.395550">
        <ele>1146.4</ele>
        <time>2012-08-18T12:52:51Z</time>
      </trkpt>
      <trkpt lat="40.595151" lon="-1.395423">
        <ele>1145.8</ele>
        <time>2012-08-18T12:52:52Z</time>
      </trkpt>
      <trkpt lat="40.595127" lon="-1.395289">
        <ele>1145.2</ele>
        <time>2012-08-18T12:52:53Z</time>
      </trkpt>
      <trkpt lat="40.595094" lon="-1.395154">
        <ele>1144.6</ele>
        <time>2012-08-18T12:52:54Z</time>
      </trkpt>
      <trkpt lat="40.595062" lon="-1.395018">
        <ele>1144.0</ele>
        <time>2012-08-18T12:52:55Z</time>
      </trkpt>
      <trkpt lat="40.595025" lon="-1.394870">
        <ele>1142.6</ele>
        <time>2012-08-18T12:52:56Z</time>
      </trkpt>
      <trkpt lat="40.594987" lon="-1.394724">
        <ele>1141.8</ele>
        <time>2012-08-18T12:52:57Z</time>
      </trkpt>
      <trkpt lat="40.594943" lon="-1.394589">
        <ele>1141.0</ele>
        <time>2012-08-18T12:52:58Z</time>
      </trkpt>
      <trkpt lat="40.594884" lon="-1.394462">
        <ele>1140.2</ele>
        <time>2012-08-18T12:52:59Z</time>
      </trkpt>
      <trkpt lat="40.594816" lon="-1.394339">
        <ele>1139.4</ele>
        <time>2012-08-18T12:53:00Z</time>
      </trkpt>
      <trkpt lat="40.594733" lon="-1.394220">
        <ele>1138.6</ele>
        <time>2012-08-18T12:53:01Z</time>
      </trkpt>
      <trkpt lat="40.594643" lon="-1.394118">
        <ele>1137.8</ele>
        <time>2012-08-18T12:53:02Z</time>
      </trkpt>
      <trkpt lat="40.594547" lon="-1.394023">
        <ele>1137.0</ele>
        <time>2012-08-18T12:53:03Z</time>
      </trkpt>
      <trkpt lat="40.594448" lon="-1.393935">
        <ele>1136.2</ele>
        <time>2012-08-18T12:53:04Z</time>
      </trkpt>
      <trkpt lat="40.594344" lon="-1.393844">
        <ele>1135.2</ele>
        <time>2012-08-18T12:53:05Z</time>
      </trkpt>
      <trkpt lat="40.594249" lon="-1.393755">
        <ele>1134.6</ele>
        <time>2012-08-18T12:53:06Z</time>
      </trkpt>
      <trkpt lat="40.594154" lon="-1.393667">
        <ele>1133.8</ele>
        <time>2012-08-18T12:53:07Z</time>
      </trkpt>
      <trkpt lat="40.594060" lon="-1.393582">
        <ele>1133.0</ele>
        <time>2012-08-18T12:53:08Z</time>
      </trkpt>
      <trkpt lat="40.593970" lon="-1.393501">
        <ele>1132.4</ele>
        <time>2012-08-18T12:53:09Z</time>
      </trkpt>
      <trkpt lat="40.593885" lon="-1.393421">
        <ele>1131.6</ele>
        <time>2012-08-18T12:53:10Z</time>
      </trkpt>
      <trkpt lat="40.593802" lon="-1.393344">
        <ele>1131.6</ele>
        <time>2012-08-18T12:53:11Z</time>
      </trkpt>
      <trkpt lat="40.593435" lon="-1.393006">
        <ele>1131.6</ele>
        <time>2012-08-18T12:53:16Z</time>
      </trkpt>
      <trkpt lat="40.592981" lon="-1.392596">
        <ele>1131.6</ele>
        <time>2012-08-18T12:53:23Z</time>
      </trkpt>
      <trkpt lat="40.592853" lon="-1.392492">
        <ele>1131.2</ele>
        <time>2012-08-18T12:53:25Z</time>
      </trkpt>
      <trkpt lat="40.592790" lon="-1.392445">
        <ele>1130.8</ele>
        <time>2012-08-18T12:53:26Z</time>
      </trkpt>
      <trkpt lat="40.592727" lon="-1.392394">
        <ele>1130.4</ele>
        <time>2012-08-18T12:53:27Z</time>
      </trkpt>
      <trkpt lat="40.592661" lon="-1.392338">
        <ele>1130.0</ele>
        <time>2012-08-18T12:53:28Z</time>
      </trkpt>
      <trkpt lat="40.592595" lon="-1.392278">
        <ele>1129.6</ele>
        <time>2012-08-18T12:53:29Z</time>
      </trkpt>
      <trkpt lat="40.592526" lon="-1.392212">
        <ele>1129.2</ele>
        <time>2012-08-18T12:53:30Z</time>
      </trkpt>
      <trkpt lat="40.592459" lon="-1.392145">
        <ele>1128.8</ele>
        <time>2012-08-18T12:53:31Z</time>
      </trkpt>
      <trkpt lat="40.592391" lon="-1.392078">
        <ele>1128.2</ele>
        <time>2012-08-18T12:53:32Z</time>
      </trkpt>
      <trkpt lat="40.592326" lon="-1.392007">
        <ele>1127.8</ele>
        <time>2012-08-18T12:53:33Z</time>
      </trkpt>
      <trkpt lat="40.592256" lon="-1.391938">
        <ele>1127.4</ele>
        <time>2012-08-18T12:53:34Z</time>
      </trkpt>
      <trkpt lat="40.592045" lon="-1.391743">
        <ele>1127.0</ele>
        <time>2012-08-18T12:53:37Z</time>
      </trkpt>
      <trkpt lat="40.591978" lon="-1.391689">
        <ele>1126.6</ele>
        <time>2012-08-18T12:53:38Z</time>
      </trkpt>
      <trkpt lat="40.591912" lon="-1.391630">
        <ele>1126.0</ele>
        <time>2012-08-18T12:53:39Z</time>
      </trkpt>
      <trkpt lat="40.591848" lon="-1.391577">
        <ele>1125.6</ele>
        <time>2012-08-18T12:53:40Z</time>
      </trkpt>
      <trkpt lat="40.591787" lon="-1.391525">
        <ele>1125.2</ele>
        <time>2012-08-18T12:53:41Z</time>
      </trkpt>
      <trkpt lat="40.591599" lon="-1.391357">
        <ele>1125.2</ele>
        <time>2012-08-18T12:53:44Z</time>
      </trkpt>
      <trkpt lat="40.591169" lon="-1.390964">
        <ele>1124.8</ele>
        <time>2012-08-18T12:53:51Z</time>
      </trkpt>
      <trkpt lat="40.591108" lon="-1.390908">
        <ele>1124.4</ele>
        <time>2012-08-18T12:53:52Z</time>
      </trkpt>
      <trkpt lat="40.591051" lon="-1.390852">
        <ele>1124.0</ele>
        <time>2012-08-18T12:53:53Z</time>
      </trkpt>
      <trkpt lat="40.590996" lon="-1.390797">
        <ele>1123.6</ele>
        <time>2012-08-18T12:53:54Z</time>
      </trkpt>
      <trkpt lat="40.590938" lon="-1.390743">
        <ele>1123.2</ele>
        <time>2012-08-18T12:53:55Z</time>
      </trkpt>
      <trkpt lat="40.590770" lon="-1.390587">
        <ele>1123.2</ele>
        <time>2012-08-18T12:53:58Z</time>
      </trkpt>
      <trkpt lat="40.590335" lon="-1.390236">
        <ele>1123.2</ele>
        <time>2012-08-18T12:54:06Z</time>
      </trkpt>
      <trkpt lat="40.590148" lon="-1.390101">
        <ele>1123.2</ele>
        <time>2012-08-18T12:54:10Z</time>
      </trkpt>
      <trkpt lat="40.590054" lon="-1.390038">
        <ele>1123.2</ele>
        <time>2012-08-18T12:54:12Z</time>
      </trkpt>
      <trkpt lat="40.589848" lon="-1.389840">
        <ele>1123.2</ele>
        <time>2012-08-18T12:54:17Z</time>
      </trkpt>
      <trkpt lat="40.589778" lon="-1.389757">
        <ele>1123.2</ele>
        <time>2012-08-18T12:54:19Z</time>
      </trkpt>
      <trkpt lat="40.589712" lon="-1.389669">
        <ele>1122.6</ele>
        <time>2012-08-18T12:54:21Z</time>
      </trkpt>
      <trkpt lat="40.589676" lon="-1.389620">
        <ele>1122.0</ele>
        <time>2012-08-18T12:54:22Z</time>
      </trkpt>
      <trkpt lat="40.589641" lon="-1.389576">
        <ele>1121.6</ele>
        <time>2012-08-18T12:54:23Z</time>
      </trkpt>
      <trkpt lat="40.589608" lon="-1.389535">
        <ele>1121.0</ele>
        <time>2012-08-18T12:54:24Z</time>
      </trkpt>
      <trkpt lat="40.589573" lon="-1.389495">
        <ele>1120.4</ele>
        <time>2012-08-18T12:54:25Z</time>
      </trkpt>
      <trkpt lat="40.589540" lon="-1.389455">
        <ele>1120.4</ele>
        <time>2012-08-18T12:54:26Z</time>
      </trkpt>
      <trkpt lat="40.589444" lon="-1.389329">
        <ele>1120.4</ele>
        <time>2012-08-18T12:54:29Z</time>
      </trkpt>
      <trkpt lat="40.589367" lon="-1.389221">
        <ele>1120.4</ele>
        <time>2012-08-18T12:54:32Z</time>
      </trkpt>
      <trkpt lat="40.589316" lon="-1.389138">
        <ele>1120.4</ele>
        <time>2012-08-18T12:54:34Z</time>
      </trkpt>
      <trkpt lat="40.589293" lon="-1.389087">
        <ele>1120.0</ele>
        <time>2012-08-18T12:54:35Z</time>
      </trkpt>
      <trkpt lat="40.589273" lon="-1.389044">
        <ele>1119.4</ele>
        <time>2012-08-18T12:54:36Z</time>
      </trkpt>
      <trkpt lat="40.589255" lon="-1.388994">
        <ele>1119.0</ele>
        <time>2012-08-18T12:54:37Z</time>
      </trkpt>
      <trkpt lat="40.589230" lon="-1.388942">
        <ele>1118.4</ele>
        <time>2012-08-18T12:54:38Z</time>
      </trkpt>
      <trkpt lat="40.589209" lon="-1.388889">
        <ele>1118.0</ele>
        <time>2012-08-18T12:54:39Z</time>
      </trkpt>
      <trkpt lat="40.589168" lon="-1.388772">
        <ele>1118.0</ele>
        <time>2012-08-18T12:54:41Z</time>
      </trkpt>
      <trkpt lat="40.589103" lon="-1.388571">
        <ele>1118.0</ele>
        <time>2012-08-18T12:54:44Z</time>
      </trkpt>
      <trkpt lat="40.588935" lon="-1.388079">
        <ele>1118.0</ele>
        <time>2012-08-18T12:54:51Z</time>
      </trkpt>
      <trkpt lat="40.588763" lon="-1.387572">
        <ele>1118.0</ele>
        <time>2012-08-18T12:54:58Z</time>
      </trkpt>
      <trkpt lat="40.588628" lon="-1.387006">
        <ele>1118.0</ele>
        <time>2012-08-18T12:55:05Z</time>
      </trkpt>
      <trkpt lat="40.588619" lon="-1.386926">
        <ele>1118.0</ele>
        <time>2012-08-18T12:55:06Z</time>
      </trkpt>
      <trkpt lat="40.588569" lon="-1.386480">
        <ele>1118.0</ele>
        <time>2012-08-18T12:55:12Z</time>
      </trkpt>
      <trkpt lat="40.588523" lon="-1.386120">
        <ele>1118.0</ele>
        <time>2012-08-18T12:55:18Z</time>
      </trkpt>
      <trkpt lat="40.588512" lon="-1.386074">
        <ele>1118.0</ele>
        <time>2012-08-18T12:55:19Z</time>
      </trkpt>
      <trkpt lat="40.588466" lon="-1.385850">
        <ele>1118.0</ele>
        <time>2012-08-18T12:55:24Z</time>
      </trkpt>
      <trkpt lat="40.588426" lon="-1.385589">
        <ele>1118.0</ele>
        <time>2012-08-18T12:55:30Z</time>
      </trkpt>
      <trkpt lat="40.588382" lon="-1.385336">
        <ele>1118.0</ele>
        <time>2012-08-18T12:55:37Z</time>
      </trkpt>
      <trkpt lat="40.588365" lon="-1.385321">
        <ele>1118.0</ele>
        <time>2012-08-18T12:55:38Z</time>
      </trkpt>
      <trkpt lat="40.588280" lon="-1.385323">
        <ele>1118.0</ele>
        <time>2012-08-18T12:55:41Z</time>
      </trkpt>
      <trkpt lat="40.588313" lon="-1.385071">
        <ele>1115.2</ele>
        <time>2012-08-18T12:59:48Z</time>
      </trkpt>
      <trkpt lat="40.588336" lon="-1.384923">
        <ele>1115.8</ele>
        <time>2012-08-18T12:59:54Z</time>
      </trkpt>
      <trkpt lat="40.588335" lon="-1.384898">
        <ele>1116.2</ele>
        <time>2012-08-18T12:59:55Z</time>
      </trkpt>
      <trkpt lat="40.588341" lon="-1.384869">
        <ele>1116.6</ele>
        <time>2012-08-18T12:59:56Z</time>
      </trkpt>
      <trkpt lat="40.588346" lon="-1.384841">
        <ele>1117.0</ele>
        <time>2012-08-18T12:59:57Z</time>
      </trkpt>
      <trkpt lat="40.588346" lon="-1.384814">
        <ele>1117.6</ele>
        <time>2012-08-18T12:59:58Z</time>
      </trkpt>
      <trkpt lat="40.588348" lon="-1.384727">
        <ele>1117.6</ele>
        <time>2012-08-18T13:00:01Z</time>
      </trkpt>
      <trkpt lat="40.588369" lon="-1.384523">
        <ele>1117.6</ele>
        <time>2012-08-18T13:00:08Z</time>
      </trkpt>
      <trkpt lat="40.588373" lon="-1.384473">
        <ele>1118.0</ele>
        <time>2012-08-18T13:00:10Z</time>
      </trkpt>
      <trkpt lat="40.588378" lon="-1.384443">
        <ele>1118.4</ele>
        <time>2012-08-18T13:00:11Z</time>
      </trkpt>
      <trkpt lat="40.588384" lon="-1.384410">
        <ele>1118.8</ele>
        <time>2012-08-18T13:00:12Z</time>
      </trkpt>
      <trkpt lat="40.588389" lon="-1.384380">
        <ele>1119.2</ele>
        <time>2012-08-18T13:00:13Z</time>
      </trkpt>
      <trkpt lat="40.588394" lon="-1.384352">
        <ele>1119.6</ele>
        <time>2012-08-18T13:00:14Z</time>
      </trkpt>
      <trkpt lat="40.588443" lon="-1.384120">
        <ele>1119.6</ele>
        <time>2012-08-18T13:00:22Z</time>
      </trkpt>
      <trkpt lat="40.588493" lon="-1.383883">
        <ele>1119.6</ele>
        <time>2012-08-18T13:00:30Z</time>
      </trkpt>
      <trkpt lat="40.588536" lon="-1.383645">
        <ele>1119.6</ele>
        <time>2012-08-18T13:00:37Z</time>
      </trkpt>
      <trkpt lat="40.588570" lon="-1.383404">
        <ele>1119.6</ele>
        <time>2012-08-18T13:00:43Z</time>
      </trkpt>
      <trkpt lat="40.588615" lon="-1.383140">
        <ele>1120.0</ele>
        <time>2012-08-18T13:00:50Z</time>
      </trkpt>
      <trkpt lat="40.588622" lon="-1.383098">
        <ele>1120.4</ele>
        <time>2012-08-18T13:00:51Z</time>
      </trkpt>
      <trkpt lat="40.588630" lon="-1.383058">
        <ele>1120.8</ele>
        <time>2012-08-18T13:00:52Z</time>
      </trkpt>
      <trkpt lat="40.588638" lon="-1.383014">
        <ele>1121.2</ele>
        <time>2012-08-18T13:00:53Z</time>
      </trkpt>
      <trkpt lat="40.588648" lon="-1.382971">
        <ele>1121.6</ele>
        <time>2012-08-18T13:00:54Z</time>
      </trkpt>
      <trkpt lat="40.588691" lon="-1.382745">
        <ele>1121.6</ele>
        <time>2012-08-18T13:00:59Z</time>
      </trkpt>
      <trkpt lat="40.588762" lon="-1.382384">
        <ele>1121.6</ele>
        <time>2012-08-18T13:01:05Z</time>
      </trkpt>
      <trkpt lat="40.588741" lon="-1.382007">
        <ele>1121.6</ele>
        <time>2012-08-18T13:01:10Z</time>
      </trkpt>
      <trkpt lat="40.588724" lon="-1.381929">
        <ele>1121.2</ele>
        <time>2012-08-18T13:01:11Z</time>
      </trkpt>
      <trkpt lat="40.588712" lon="-1.381847">
        <ele>1120.4</ele>
        <time>2012-08-18T13:01:12Z</time>
      </trkpt>
      <trkpt lat="40.588697" lon="-1.381761">
        <ele>1119.8</ele>
        <time>2012-08-18T13:01:13Z</time>
      </trkpt>
      <trkpt lat="40.588676" lon="-1.381666">
        <ele>1119.4</ele>
        <time>2012-08-18T13:01:14Z</time>
      </trkpt>
      <trkpt lat="40.588655" lon="-1.381570">
        <ele>1119.4</ele>
        <time>2012-08-18T13:01:15Z</time>
      </trkpt>
      <trkpt lat="40.588635" lon="-1.381473">
        <ele>1119.0</ele>
        <time>2012-08-18T13:01:16Z</time>
      </trkpt>
      <trkpt lat="40.588610" lon="-1.381373">
        <ele>1118.6</ele>
        <time>2012-08-18T13:01:17Z</time>
      </trkpt>
      <trkpt lat="40.588585" lon="-1.381268">
        <ele>1118.2</ele>
        <time>2012-08-18T13:01:18Z</time>
      </trkpt>
      <trkpt lat="40.588568" lon="-1.381160">
        <ele>1117.8</ele>
        <time>2012-08-18T13:01:19Z</time>
      </trkpt>
      <trkpt lat="40.588549" lon="-1.381047">
        <ele>1117.4</ele>
        <time>2012-08-18T13:01:20Z</time>
      </trkpt>
      <trkpt lat="40.588535" lon="-1.380934">
        <ele>1117.4</ele>
        <time>2012-08-18T13:01:21Z</time>
      </trkpt>
      <trkpt lat="40.588523" lon="-1.380820">
        <ele>1116.8</ele>
        <time>2012-08-18T13:01:22Z</time>
      </trkpt>
      <trkpt lat="40.588516" lon="-1.380701">
        <ele>1116.4</ele>
        <time>2012-08-18T13:01:23Z</time>
      </trkpt>
      <trkpt lat="40.588516" lon="-1.380578">
        <ele>1116.0</ele>
        <time>2012-08-18T13:01:24Z</time>
      </trkpt>
      <trkpt lat="40.588518" lon="-1.380452">
        <ele>1115.4</ele>
        <time>2012-08-18T13:01:25Z</time>
      </trkpt>
      <trkpt lat="40.588521" lon="-1.380325">
        <ele>1115.0</ele>
        <time>2012-08-18T13:01:26Z</time>
      </trkpt>
      <trkpt lat="40.588532" lon="-1.380068">
        <ele>1114.6</ele>
        <time>2012-08-18T13:01:28Z</time>
      </trkpt>
      <trkpt lat="40.588538" lon="-1.379936">
        <ele>1114.0</ele>
        <time>2012-08-18T13:01:29Z</time>
      </trkpt>
      <trkpt lat="40.588545" lon="-1.379795">
        <ele>1113.4</ele>
        <time>2012-08-18T13:01:30Z</time>
      </trkpt>
      <trkpt lat="40.588550" lon="-1.379659">
        <ele>1113.0</ele>
        <time>2012-08-18T13:01:31Z</time>
      </trkpt>
      <trkpt lat="40.588556" lon="-1.379519">
        <ele>1112.4</ele>
        <time>2012-08-18T13:01:32Z</time>
      </trkpt>
      <trkpt lat="40.588561" lon="-1.379379">
        <ele>1111.8</ele>
        <time>2012-08-18T13:01:33Z</time>
      </trkpt>
      <trkpt lat="40.588567" lon="-1.379239">
        <ele>1111.2</ele>
        <time>2012-08-18T13:01:34Z</time>
      </trkpt>
      <trkpt lat="40.588574" lon="-1.379094">
        <ele>1110.6</ele>
        <time>2012-08-18T13:01:35Z</time>
      </trkpt>
      <trkpt lat="40.588576" lon="-1.378947">
        <ele>1109.4</ele>
        <time>2012-08-18T13:01:36Z</time>
      </trkpt>
      <trkpt lat="40.588574" lon="-1.378793">
        <ele>1108.8</ele>
        <time>2012-08-18T13:01:37Z</time>
      </trkpt>
      <trkpt lat="40.588572" lon="-1.378566">
        <ele>1108.2</ele>
        <time>2012-08-18T13:01:39Z</time>
      </trkpt>
      <trkpt lat="40.588572" lon="-1.378415">
        <ele>1107.6</ele>
        <time>2012-08-18T13:01:40Z</time>
      </trkpt>
      <trkpt lat="40.588577" lon="-1.378261">
        <ele>1107.0</ele>
        <time>2012-08-18T13:01:41Z</time>
      </trkpt>
      <trkpt lat="40.588582" lon="-1.378106">
        <ele>1106.4</ele>
        <time>2012-08-18T13:01:42Z</time>
      </trkpt>
      <trkpt lat="40.588585" lon="-1.377949">
        <ele>1105.8</ele>
        <time>2012-08-18T13:01:43Z</time>
      </trkpt>
      <trkpt lat="40.588589" lon="-1.377793">
        <ele>1105.2</ele>
        <time>2012-08-18T13:01:44Z</time>
      </trkpt>
      <trkpt lat="40.588587" lon="-1.377623">
        <ele>1104.6</ele>
        <time>2012-08-18T13:01:45Z</time>
      </trkpt>
      <trkpt lat="40.588572" lon="-1.377159">
        <ele>1102.6</ele>
        <time>2012-08-18T13:01:46Z</time>
      </trkpt>
      <trkpt lat="40.588559" lon="-1.377005">
        <ele>1101.8</ele>
        <time>2012-08-18T13:01:49Z</time>
      </trkpt>
      <trkpt lat="40.588539" lon="-1.376853">
        <ele>1100.4</ele>
        <time>2012-08-18T13:01:50Z</time>
      </trkpt>
      <trkpt lat="40.588514" lon="-1.376701">
        <ele>1099.6</ele>
        <time>2012-08-18T13:01:51Z</time>
      </trkpt>
      <trkpt lat="40.588490" lon="-1.376550">
        <ele>1099.0</ele>
        <time>2012-08-18T13:01:52Z</time>
      </trkpt>
      <trkpt lat="40.588463" lon="-1.376390">
        <ele>1098.2</ele>
        <time>2012-08-18T13:01:53Z</time>
      </trkpt>
      <trkpt lat="40.588437" lon="-1.376237">
        <ele>1097.4</ele>
        <time>2012-08-18T13:01:54Z</time>
      </trkpt>
      <trkpt lat="40.588406" lon="-1.376084">
        <ele>1096.8</ele>
        <time>2012-08-18T13:01:55Z</time>
      </trkpt>
      <trkpt lat="40.588375" lon="-1.375933">
        <ele>1096.0</ele>
        <time>2012-08-18T13:01:56Z</time>
      </trkpt>
      <trkpt lat="40.588345" lon="-1.375783">
        <ele>1095.2</ele>
        <time>2012-08-18T13:01:57Z</time>
      </trkpt>
      <trkpt lat="40.588314" lon="-1.375630">
        <ele>1094.4</ele>
        <time>2012-08-18T13:01:58Z</time>
      </trkpt>
      <trkpt lat="40.588282" lon="-1.375480">
        <ele>1093.6</ele>
        <time>2012-08-18T13:01:59Z</time>
      </trkpt>
      <trkpt lat="40.588250" lon="-1.375319">
        <ele>1092.8</ele>
        <time>2012-08-18T13:02:00Z</time>
      </trkpt>
      <trkpt lat="40.588221" lon="-1.375167">
        <ele>1092.0</ele>
        <time>2012-08-18T13:02:01Z</time>
      </trkpt>
      <trkpt lat="40.588191" lon="-1.375015">
        <ele>1091.4</ele>
        <time>2012-08-18T13:02:02Z</time>
      </trkpt>
      <trkpt lat="40.588163" lon="-1.374866">
        <ele>1091.0</ele>
        <time>2012-08-18T13:02:03Z</time>
      </trkpt>
      <trkpt lat="40.588135" lon="-1.374717">
        <ele>1090.4</ele>
        <time>2012-08-18T13:02:04Z</time>
      </trkpt>
      <trkpt lat="40.588107" lon="-1.374568">
        <ele>1089.8</ele>
        <time>2012-08-18T13:02:05Z</time>
      </trkpt>
      <trkpt lat="40.588080" lon="-1.374421">
        <ele>1089.2</ele>
        <time>2012-08-18T13:02:06Z</time>
      </trkpt>
      <trkpt lat="40.588052" lon="-1.374276">
        <ele>1088.6</ele>
        <time>2012-08-18T13:02:07Z</time>
      </trkpt>
      <trkpt lat="40.588022" lon="-1.374122">
        <ele>1088.0</ele>
        <time>2012-08-18T13:02:08Z</time>
      </trkpt>
      <trkpt lat="40.587995" lon="-1.373981">
        <ele>1087.4</ele>
        <time>2012-08-18T13:02:09Z</time>
      </trkpt>
      <trkpt lat="40.587967" lon="-1.373844">
        <ele>1087.0</ele>
        <time>2012-08-18T13:02:10Z</time>
      </trkpt>
      <trkpt lat="40.587939" lon="-1.373705">
        <ele>1086.4</ele>
        <time>2012-08-18T13:02:11Z</time>
      </trkpt>
      <trkpt lat="40.587915" lon="-1.373567">
        <ele>1086.0</ele>
        <time>2012-08-18T13:02:12Z</time>
      </trkpt>
      <trkpt lat="40.587893" lon="-1.373432">
        <ele>1085.4</ele>
        <time>2012-08-18T13:02:13Z</time>
      </trkpt>
      <trkpt lat="40.587874" lon="-1.373301">
        <ele>1084.4</ele>
        <time>2012-08-18T13:02:14Z</time>
      </trkpt>
      <trkpt lat="40.587861" lon="-1.373163">
        <ele>1083.8</ele>
        <time>2012-08-18T13:02:15Z</time>
      </trkpt>
      <trkpt lat="40.587854" lon="-1.373032">
        <ele>1083.2</ele>
        <time>2012-08-18T13:02:16Z</time>
      </trkpt>
      <trkpt lat="40.587858" lon="-1.372900">
        <ele>1082.8</ele>
        <time>2012-08-18T13:02:17Z</time>
      </trkpt>
      <trkpt lat="40.587872" lon="-1.372772">
        <ele>1082.2</ele>
        <time>2012-08-18T13:02:18Z</time>
      </trkpt>
      <trkpt lat="40.587893" lon="-1.372647">
        <ele>1081.6</ele>
        <time>2012-08-18T13:02:19Z</time>
      </trkpt>
      <trkpt lat="40.587922" lon="-1.372524">
        <ele>1081.0</ele>
        <time>2012-08-18T13:02:20Z</time>
      </trkpt>
      <trkpt lat="40.587956" lon="-1.372411">
        <ele>1080.6</ele>
        <time>2012-08-18T13:02:21Z</time>
      </trkpt>
      <trkpt lat="40.587998" lon="-1.372297">
        <ele>1080.6</ele>
        <time>2012-08-18T13:02:22Z</time>
      </trkpt>
      <trkpt lat="40.588040" lon="-1.372196">
        <ele>1080.6</ele>
        <time>2012-08-18T13:02:23Z</time>
      </trkpt>
      <trkpt lat="40.588088" lon="-1.372101">
        <ele>1080.6</ele>
        <time>2012-08-18T13:02:24Z</time>
      </trkpt>
      <trkpt lat="40.588143" lon="-1.372014">
        <ele>1080.0</ele>
        <time>2012-08-18T13:02:25Z</time>
      </trkpt>
      <trkpt lat="40.588203" lon="-1.371933">
        <ele>1079.6</ele>
        <time>2012-08-18T13:02:26Z</time>
      </trkpt>
      <trkpt lat="40.588267" lon="-1.371857">
        <ele>1079.2</ele>
        <time>2012-08-18T13:02:27Z</time>
      </trkpt>
      <trkpt lat="40.588333" lon="-1.371775">
        <ele>1078.6</ele>
        <time>2012-08-18T13:02:28Z</time>
      </trkpt>
      <trkpt lat="40.588394" lon="-1.371694">
        <ele>1078.2</ele>
        <time>2012-08-18T13:02:29Z</time>
      </trkpt>
      <trkpt lat="40.588641" lon="-1.371377">
        <ele>1077.8</ele>
        <time>2012-08-18T13:02:33Z</time>
      </trkpt>
      <trkpt lat="40.588699" lon="-1.371302">
        <ele>1077.4</ele>
        <time>2012-08-18T13:02:34Z</time>
      </trkpt>
      <trkpt lat="40.588757" lon="-1.371231">
        <ele>1077.0</ele>
        <time>2012-08-18T13:02:35Z</time>
      </trkpt>
      <trkpt lat="40.588814" lon="-1.371157">
        <ele>1076.4</ele>
        <time>2012-08-18T13:02:36Z</time>
      </trkpt>
      <trkpt lat="40.588871" lon="-1.371082">
        <ele>1076.0</ele>
        <time>2012-08-18T13:02:37Z</time>
      </trkpt>
      <trkpt lat="40.589026" lon="-1.370837">
        <ele>1076.0</ele>
        <time>2012-08-18T13:02:40Z</time>
      </trkpt>
      <trkpt lat="40.589190" lon="-1.370482">
        <ele>1075.6</ele>
        <time>2012-08-18T13:02:44Z</time>
      </trkpt>
      <trkpt lat="40.589229" lon="-1.370389">
        <ele>1075.2</ele>
        <time>2012-08-18T13:02:45Z</time>
      </trkpt>
      <trkpt lat="40.589266" lon="-1.370294">
        <ele>1074.8</ele>
        <time>2012-08-18T13:02:46Z</time>
      </trkpt>
      <trkpt lat="40.589304" lon="-1.370193">
        <ele>1074.2</ele>
        <time>2012-08-18T13:02:47Z</time>
      </trkpt>
      <trkpt lat="40.589343" lon="-1.370099">
        <ele>1073.8</ele>
        <time>2012-08-18T13:02:48Z</time>
      </trkpt>
      <trkpt lat="40.589424" lon="-1.369906">
        <ele>1073.4</ele>
        <time>2012-08-18T13:02:50Z</time>
      </trkpt>
      <trkpt lat="40.589464" lon="-1.369808">
        <ele>1073.0</ele>
        <time>2012-08-18T13:02:51Z</time>
      </trkpt>
      <trkpt lat="40.589505" lon="-1.369711">
        <ele>1072.6</ele>
        <time>2012-08-18T13:02:52Z</time>
      </trkpt>
      <trkpt lat="40.589546" lon="-1.369614">
        <ele>1072.0</ele>
        <time>2012-08-18T13:02:53Z</time>
      </trkpt>
      <trkpt lat="40.589588" lon="-1.369512">
        <ele>1071.6</ele>
        <time>2012-08-18T13:02:54Z</time>
      </trkpt>
      <trkpt lat="40.589759" lon="-1.369110">
        <ele>1071.2</ele>
        <time>2012-08-18T13:02:58Z</time>
      </trkpt>
      <trkpt lat="40.589803" lon="-1.369005">
        <ele>1070.8</ele>
        <time>2012-08-18T13:02:59Z</time>
      </trkpt>
      <trkpt lat="40.589848" lon="-1.368903">
        <ele>1070.2</ele>
        <time>2012-08-18T13:03:00Z</time>
      </trkpt>
      <trkpt lat="40.589893" lon="-1.368800">
        <ele>1069.8</ele>
        <time>2012-08-18T13:03:01Z</time>
      </trkpt>
      <trkpt lat="40.589940" lon="-1.368690">
        <ele>1069.4</ele>
        <time>2012-08-18T13:03:02Z</time>
      </trkpt>
      <trkpt lat="40.589984" lon="-1.368584">
        <ele>1069.0</ele>
        <time>2012-08-18T13:03:03Z</time>
      </trkpt>
      <trkpt lat="40.590027" lon="-1.368481">
        <ele>1068.6</ele>
        <time>2012-08-18T13:03:04Z</time>
      </trkpt>
      <trkpt lat="40.590070" lon="-1.368375">
        <ele>1068.0</ele>
        <time>2012-08-18T13:03:05Z</time>
      </trkpt>
      <trkpt lat="40.590115" lon="-1.368270">
        <ele>1067.6</ele>
        <time>2012-08-18T13:03:06Z</time>
      </trkpt>
      <trkpt lat="40.590160" lon="-1.368167">
        <ele>1067.2</ele>
        <time>2012-08-18T13:03:07Z</time>
      </trkpt>
      <trkpt lat="40.590300" lon="-1.367874">
        <ele>1066.8</ele>
        <time>2012-08-18T13:03:10Z</time>
      </trkpt>
      <trkpt lat="40.590360" lon="-1.367800">
        <ele>1066.4</ele>
        <time>2012-08-18T13:03:11Z</time>
      </trkpt>
      <trkpt lat="40.590433" lon="-1.367743">
        <ele>1066.0</ele>
        <time>2012-08-18T13:03:12Z</time>
      </trkpt>
      <trkpt lat="40.590513" lon="-1.367696">
        <ele>1065.4</ele>
        <time>2012-08-18T13:03:13Z</time>
      </trkpt>
      <trkpt lat="40.590602" lon="-1.367653">
        <ele>1065.0</ele>
        <time>2012-08-18T13:03:14Z</time>
      </trkpt>
      <trkpt lat="40.590700" lon="-1.367606">
        <ele>1064.6</ele>
        <time>2012-08-18T13:03:15Z</time>
      </trkpt>
      <trkpt lat="40.590797" lon="-1.367547">
        <ele>1064.2</ele>
        <time>2012-08-18T13:03:16Z</time>
      </trkpt>
      <trkpt lat="40.590890" lon="-1.367474">
        <ele>1063.4</ele>
        <time>2012-08-18T13:03:17Z</time>
      </trkpt>
      <trkpt lat="40.590984" lon="-1.367388">
        <ele>1062.8</ele>
        <time>2012-08-18T13:03:18Z</time>
      </trkpt>
      <trkpt lat="40.591071" lon="-1.367298">
        <ele>1062.0</ele>
        <time>2012-08-18T13:03:19Z</time>
      </trkpt>
      <trkpt lat="40.591150" lon="-1.367199">
        <ele>1061.2</ele>
        <time>2012-08-18T13:03:20Z</time>
      </trkpt>
      <trkpt lat="40.591230" lon="-1.367090">
        <ele>1060.4</ele>
        <time>2012-08-18T13:03:21Z</time>
      </trkpt>
      <trkpt lat="40.591307" lon="-1.366981">
        <ele>1059.6</ele>
        <time>2012-08-18T13:03:22Z</time>
      </trkpt>
      <trkpt lat="40.591388" lon="-1.366875">
        <ele>1058.8</ele>
        <time>2012-08-18T13:03:23Z</time>
      </trkpt>
      <trkpt lat="40.591471" lon="-1.366774">
        <ele>1058.0</ele>
        <time>2012-08-18T13:03:24Z</time>
      </trkpt>
      <trkpt lat="40.591550" lon="-1.366669">
        <ele>1057.4</ele>
        <time>2012-08-18T13:03:25Z</time>
      </trkpt>
      <trkpt lat="40.591622" lon="-1.366558">
        <ele>1056.8</ele>
        <time>2012-08-18T13:03:26Z</time>
      </trkpt>
      <trkpt lat="40.591688" lon="-1.366444">
        <ele>1056.2</ele>
        <time>2012-08-18T13:03:27Z</time>
      </trkpt>
      <trkpt lat="40.591747" lon="-1.366330">
        <ele>1055.2</ele>
        <time>2012-08-18T13:03:28Z</time>
      </trkpt>
      <trkpt lat="40.591844" lon="-1.366094">
        <ele>1054.6</ele>
        <time>2012-08-18T13:03:30Z</time>
      </trkpt>
      <trkpt lat="40.591880" lon="-1.365970">
        <ele>1054.2</ele>
        <time>2012-08-18T13:03:31Z</time>
      </trkpt>
      <trkpt lat="40.591902" lon="-1.365846">
        <ele>1053.8</ele>
        <time>2012-08-18T13:03:32Z</time>
      </trkpt>
      <trkpt lat="40.591912" lon="-1.365722">
        <ele>1053.4</ele>
        <time>2012-08-18T13:03:33Z</time>
      </trkpt>
      <trkpt lat="40.591917" lon="-1.365591">
        <ele>1053.0</ele>
        <time>2012-08-18T13:03:34Z</time>
      </trkpt>
      <trkpt lat="40.591902" lon="-1.365116">
        <ele>1053.0</ele>
        <time>2012-08-18T13:03:38Z</time>
      </trkpt>
      <trkpt lat="40.591892" lon="-1.364891">
        <ele>1052.6</ele>
        <time>2012-08-18T13:03:40Z</time>
      </trkpt>
      <trkpt lat="40.591894" lon="-1.364782">
        <ele>1052.2</ele>
        <time>2012-08-18T13:03:41Z</time>
      </trkpt>
      <trkpt lat="40.591902" lon="-1.364671">
        <ele>1051.8</ele>
        <time>2012-08-18T13:03:42Z</time>
      </trkpt>
      <trkpt lat="40.591917" lon="-1.364567">
        <ele>1051.4</ele>
        <time>2012-08-18T13:03:43Z</time>
      </trkpt>
      <trkpt lat="40.591932" lon="-1.364464">
        <ele>1051.0</ele>
        <time>2012-08-18T13:03:44Z</time>
      </trkpt>
      <trkpt lat="40.592032" lon="-1.363864">
        <ele>1051.0</ele>
        <time>2012-08-18T13:03:50Z</time>
      </trkpt>
      <trkpt lat="40.592060" lon="-1.363681">
        <ele>1050.6</ele>
        <time>2012-08-18T13:03:52Z</time>
      </trkpt>
      <trkpt lat="40.592079" lon="-1.363592">
        <ele>1049.8</ele>
        <time>2012-08-18T13:03:53Z</time>
      </trkpt>
      <trkpt lat="40.592101" lon="-1.363506">
        <ele>1049.4</ele>
        <time>2012-08-18T13:03:54Z</time>
      </trkpt>
      <trkpt lat="40.592121" lon="-1.363422">
        <ele>1049.0</ele>
        <time>2012-08-18T13:03:55Z</time>
      </trkpt>
      <trkpt lat="40.592145" lon="-1.363338">
        <ele>1049.0</ele>
        <time>2012-08-18T13:03:56Z</time>
      </trkpt>
      <trkpt lat="40.592330" lon="-1.362822">
        <ele>1049.0</ele>
        <time>2012-08-18T13:04:03Z</time>
      </trkpt>
      <trkpt lat="40.592430" lon="-1.362516">
        <ele>1048.4</ele>
        <time>2012-08-18T13:04:07Z</time>
      </trkpt>
      <trkpt lat="40.592451" lon="-1.362435">
        <ele>1048.0</ele>
        <time>2012-08-18T13:04:08Z</time>
      </trkpt>
      <trkpt lat="40.592473" lon="-1.362354">
        <ele>1047.6</ele>
        <time>2012-08-18T13:04:09Z</time>
      </trkpt>
      <trkpt lat="40.592498" lon="-1.362274">
        <ele>1047.2</ele>
        <time>2012-08-18T13:04:10Z</time>
      </trkpt>
      <trkpt lat="40.592526" lon="-1.362193">
        <ele>1046.8</ele>
        <time>2012-08-18T13:04:11Z</time>
      </trkpt>
      <trkpt lat="40.592723" lon="-1.361806">
        <ele>1046.8</ele>
        <time>2012-08-18T13:04:16Z</time>
      </trkpt>
      <trkpt lat="40.592774" lon="-1.361735">
        <ele>1046.0</ele>
        <time>2012-08-18T13:04:17Z</time>
      </trkpt>
      <trkpt lat="40.592829" lon="-1.361666">
        <ele>1045.4</ele>
        <time>2012-08-18T13:04:18Z</time>
      </trkpt>
      <trkpt lat="40.592888" lon="-1.361599">
        <ele>1045.0</ele>
        <time>2012-08-18T13:04:19Z</time>
      </trkpt>
      <trkpt lat="40.592946" lon="-1.361533">
        <ele>1044.6</ele>
        <time>2012-08-18T13:04:20Z</time>
      </trkpt>
      <trkpt lat="40.593071" lon="-1.361403">
        <ele>1044.6</ele>
        <time>2012-08-18T13:04:22Z</time>
      </trkpt>
      <trkpt lat="40.593133" lon="-1.361338">
        <ele>1044.2</ele>
        <time>2012-08-18T13:04:23Z</time>
      </trkpt>
      <trkpt lat="40.593196" lon="-1.361274">
        <ele>1043.8</ele>
        <time>2012-08-18T13:04:24Z</time>
      </trkpt>
      <trkpt lat="40.593258" lon="-1.361207">
        <ele>1043.2</ele>
        <time>2012-08-18T13:04:25Z</time>
      </trkpt>
      <trkpt lat="40.593320" lon="-1.361136">
        <ele>1042.8</ele>
        <time>2012-08-18T13:04:26Z</time>
      </trkpt>
      <trkpt lat="40.593382" lon="-1.361067">
        <ele>1042.4</ele>
        <time>2012-08-18T13:04:27Z</time>
      </trkpt>
      <trkpt lat="40.593572" lon="-1.360846">
        <ele>1042.4</ele>
        <time>2012-08-18T13:04:30Z</time>
      </trkpt>
      <trkpt lat="40.593632" lon="-1.360769">
        <ele>1041.8</ele>
        <time>2012-08-18T13:04:31Z</time>
      </trkpt>
      <trkpt lat="40.593687" lon="-1.360688">
        <ele>1041.4</ele>
        <time>2012-08-18T13:04:32Z</time>
      </trkpt>
      <trkpt lat="40.593741" lon="-1.360603">
        <ele>1041.0</ele>
        <time>2012-08-18T13:04:33Z</time>
      </trkpt>
      <trkpt lat="40.593792" lon="-1.360514">
        <ele>1040.6</ele>
        <time>2012-08-18T13:04:34Z</time>
      </trkpt>
      <trkpt lat="40.593840" lon="-1.360422">
        <ele>1040.2</ele>
        <time>2012-08-18T13:04:35Z</time>
      </trkpt>
      <trkpt lat="40.593963" lon="-1.360124">
        <ele>1039.8</ele>
        <time>2012-08-18T13:04:38Z</time>
      </trkpt>
      <trkpt lat="40.593998" lon="-1.360021">
        <ele>1039.2</ele>
        <time>2012-08-18T13:04:39Z</time>
      </trkpt>
      <trkpt lat="40.594030" lon="-1.359918">
        <ele>1038.8</ele>
        <time>2012-08-18T13:04:40Z</time>
      </trkpt>
      <trkpt lat="40.594062" lon="-1.359812">
        <ele>1038.4</ele>
        <time>2012-08-18T13:04:41Z</time>
      </trkpt>
      <trkpt lat="40.594091" lon="-1.359708">
        <ele>1038.0</ele>
        <time>2012-08-18T13:04:42Z</time>
      </trkpt>
      <trkpt lat="40.594220" lon="-1.359189">
        <ele>1037.6</ele>
        <time>2012-08-18T13:04:47Z</time>
      </trkpt>
      <trkpt lat="40.594242" lon="-1.359085">
        <ele>1037.2</ele>
        <time>2012-08-18T13:04:48Z</time>
      </trkpt>
      <trkpt lat="40.594262" lon="-1.358982">
        <ele>1036.8</ele>
        <time>2012-08-18T13:04:49Z</time>
      </trkpt>
      <trkpt lat="40.594285" lon="-1.358883">
        <ele>1036.4</ele>
        <time>2012-08-18T13:04:50Z</time>
      </trkpt>
      <trkpt lat="40.594307" lon="-1.358784">
        <ele>1036.0</ele>
        <time>2012-08-18T13:04:51Z</time>
      </trkpt>
      <trkpt lat="40.594423" lon="-1.358317">
        <ele>1036.0</ele>
        <time>2012-08-18T13:04:56Z</time>
      </trkpt>
      <trkpt lat="40.594452" lon="-1.358233">
        <ele>1035.4</ele>
        <time>2012-08-18T13:04:57Z</time>
      </trkpt>
      <trkpt lat="40.594482" lon="-1.358150">
        <ele>1035.0</ele>
        <time>2012-08-18T13:04:58Z</time>
      </trkpt>
      <trkpt lat="40.594509" lon="-1.358065">
        <ele>1034.6</ele>
        <time>2012-08-18T13:04:59Z</time>
      </trkpt>
      <trkpt lat="40.594535" lon="-1.357973">
        <ele>1034.0</ele>
        <time>2012-08-18T13:05:00Z</time>
      </trkpt>
      <trkpt lat="40.594556" lon="-1.357886">
        <ele>1033.6</ele>
        <time>2012-08-18T13:05:01Z</time>
      </trkpt>
      <trkpt lat="40.594578" lon="-1.357799">
        <ele>1033.6</ele>
        <time>2012-08-18T13:05:02Z</time>
      </trkpt>
      <trkpt lat="40.594746" lon="-1.357129">
        <ele>1033.6</ele>
        <time>2012-08-18T13:05:10Z</time>
      </trkpt>
      <trkpt lat="40.594808" lon="-1.356880">
        <ele>1033.2</ele>
        <time>2012-08-18T13:05:13Z</time>
      </trkpt>
      <trkpt lat="40.594825" lon="-1.356796">
        <ele>1032.8</ele>
        <time>2012-08-18T13:05:14Z</time>
      </trkpt>
      <trkpt lat="40.594839" lon="-1.356706">
        <ele>1032.4</ele>
        <time>2012-08-18T13:05:15Z</time>
      </trkpt>
      <trkpt lat="40.594848" lon="-1.356622">
        <ele>1032.0</ele>
        <time>2012-08-18T13:05:16Z</time>
      </trkpt>
      <trkpt lat="40.594854" lon="-1.356539">
        <ele>1031.6</ele>
        <time>2012-08-18T13:05:17Z</time>
      </trkpt>
      <trkpt lat="40.594869" lon="-1.355843">
        <ele>1031.6</ele>
        <time>2012-08-18T13:05:25Z</time>
      </trkpt>
      <trkpt lat="40.594874" lon="-1.355488">
        <ele>1031.2</ele>
        <time>2012-08-18T13:05:29Z</time>
      </trkpt>
      <trkpt lat="40.594876" lon="-1.355397">
        <ele>1030.6</ele>
        <time>2012-08-18T13:05:30Z</time>
      </trkpt>
      <trkpt lat="40.594876" lon="-1.355312">
        <ele>1029.8</ele>
        <time>2012-08-18T13:05:31Z</time>
      </trkpt>
      <trkpt lat="40.594874" lon="-1.355228">
        <ele>1029.4</ele>
        <time>2012-08-18T13:05:32Z</time>
      </trkpt>
      <trkpt lat="40.594877" lon="-1.355144">
        <ele>1029.4</ele>
        <time>2012-08-18T13:05:33Z</time>
      </trkpt>
      <trkpt lat="40.594920" lon="-1.354429">
        <ele>1029.4</ele>
        <time>2012-08-18T13:05:42Z</time>
      </trkpt>
      <trkpt lat="40.594938" lon="-1.354276">
        <ele>1029.0</ele>
        <time>2012-08-18T13:05:44Z</time>
      </trkpt>
      <trkpt lat="40.594946" lon="-1.354199">
        <ele>1028.6</ele>
        <time>2012-08-18T13:05:45Z</time>
      </trkpt>
      <trkpt lat="40.594953" lon="-1.354119">
        <ele>1028.0</ele>
        <time>2012-08-18T13:05:46Z</time>
      </trkpt>
      <trkpt lat="40.594961" lon="-1.354043">
        <ele>1027.6</ele>
        <time>2012-08-18T13:05:47Z</time>
      </trkpt>
      <trkpt lat="40.594970" lon="-1.353966">
        <ele>1027.2</ele>
        <time>2012-08-18T13:05:48Z</time>
      </trkpt>
      <trkpt lat="40.594985" lon="-1.353812">
        <ele>1027.2</ele>
        <time>2012-08-18T13:05:50Z</time>
      </trkpt>
      <trkpt lat="40.595058" lon="-1.353205">
        <ele>1027.2</ele>
        <time>2012-08-18T13:05:58Z</time>
      </trkpt>
      <trkpt lat="40.595125" lon="-1.352632">
        <ele>1027.2</ele>
        <time>2012-08-18T13:06:06Z</time>
      </trkpt>
      <trkpt lat="40.595151" lon="-1.352419">
        <ele>1026.8</ele>
        <time>2012-08-18T13:06:09Z</time>
      </trkpt>
      <trkpt lat="40.595158" lon="-1.352351">
        <ele>1026.4</ele>
        <time>2012-08-18T13:06:10Z</time>
      </trkpt>
      <trkpt lat="40.595166" lon="-1.352280">
        <ele>1026.0</ele>
        <time>2012-08-18T13:06:11Z</time>
      </trkpt>
      <trkpt lat="40.595175" lon="-1.352212">
        <ele>1025.6</ele>
        <time>2012-08-18T13:06:12Z</time>
      </trkpt>
      <trkpt lat="40.595184" lon="-1.352143">
        <ele>1025.2</ele>
        <time>2012-08-18T13:06:13Z</time>
      </trkpt>
      <trkpt lat="40.595194" lon="-1.352074">
        <ele>1025.2</ele>
        <time>2012-08-18T13:06:14Z</time>
      </trkpt>
      <trkpt lat="40.595261" lon="-1.351585">
        <ele>1025.2</ele>
        <time>2012-08-18T13:06:21Z</time>
      </trkpt>
      <trkpt lat="40.595298" lon="-1.351379">
        <ele>1024.8</ele>
        <time>2012-08-18T13:06:24Z</time>
      </trkpt>
      <trkpt lat="40.595312" lon="-1.351308">
        <ele>1024.4</ele>
        <time>2012-08-18T13:06:25Z</time>
      </trkpt>
      <trkpt lat="40.595324" lon="-1.351238">
        <ele>1024.0</ele>
        <time>2012-08-18T13:06:26Z</time>
      </trkpt>
      <trkpt lat="40.595338" lon="-1.351169">
        <ele>1023.6</ele>
        <time>2012-08-18T13:06:27Z</time>
      </trkpt>
      <trkpt lat="40.595354" lon="-1.351101">
        <ele>1023.2</ele>
        <time>2012-08-18T13:06:28Z</time>
      </trkpt>
      <trkpt lat="40.595486" lon="-1.350557">
        <ele>1023.2</ele>
        <time>2012-08-18T13:06:36Z</time>
      </trkpt>
      <trkpt lat="40.595615" lon="-1.349937">
        <ele>1022.8</ele>
        <time>2012-08-18T13:06:45Z</time>
      </trkpt>
      <trkpt lat="40.595628" lon="-1.349865">
        <ele>1022.0</ele>
        <time>2012-08-18T13:06:46Z</time>
      </trkpt>
      <trkpt lat="40.595643" lon="-1.349790">
        <ele>1021.6</ele>
        <time>2012-08-18T13:06:47Z</time>
      </trkpt>
      <trkpt lat="40.595660" lon="-1.349713">
        <ele>1021.2</ele>
        <time>2012-08-18T13:06:48Z</time>
      </trkpt>
      <trkpt lat="40.595731" lon="-1.349331">
        <ele>1021.2</ele>
        <time>2012-08-18T13:06:53Z</time>
      </trkpt>
      <trkpt lat="40.595822" lon="-1.348697">
        <ele>1021.2</ele>
        <time>2012-08-18T13:07:01Z</time>
      </trkpt>
      <trkpt lat="40.595849" lon="-1.348389">
        <ele>1020.6</ele>
        <time>2012-08-18T13:07:05Z</time>
      </trkpt>
      <trkpt lat="40.595861" lon="-1.348314">
        <ele>1020.2</ele>
        <time>2012-08-18T13:07:06Z</time>
      </trkpt>
      <trkpt lat="40.595873" lon="-1.348238">
        <ele>1019.8</ele>
        <time>2012-08-18T13:07:07Z</time>
      </trkpt>
      <trkpt lat="40.595884" lon="-1.348161">
        <ele>1019.4</ele>
        <time>2012-08-18T13:07:08Z</time>
      </trkpt>
      <trkpt lat="40.595895" lon="-1.348085">
        <ele>1019.0</ele>
        <time>2012-08-18T13:07:09Z</time>
      </trkpt>
      <trkpt lat="40.595923" lon="-1.347936">
        <ele>1018.6</ele>
        <time>2012-08-18T13:07:11Z</time>
      </trkpt>
      <trkpt lat="40.595936" lon="-1.347865">
        <ele>1018.2</ele>
        <time>2012-08-18T13:07:12Z</time>
      </trkpt>
      <trkpt lat="40.595945" lon="-1.347792">
        <ele>1017.8</ele>
        <time>2012-08-18T13:07:13Z</time>
      </trkpt>
      <trkpt lat="40.595958" lon="-1.347720">
        <ele>1017.4</ele>
        <time>2012-08-18T13:07:14Z</time>
      </trkpt>
      <trkpt lat="40.595969" lon="-1.347651">
        <ele>1017.0</ele>
        <time>2012-08-18T13:07:15Z</time>
      </trkpt>
      <trkpt lat="40.596030" lon="-1.347291">
        <ele>1016.6</ele>
        <time>2012-08-18T13:07:20Z</time>
      </trkpt>
      <trkpt lat="40.596041" lon="-1.347220">
        <ele>1016.2</ele>
        <time>2012-08-18T13:07:21Z</time>
      </trkpt>
      <trkpt lat="40.596053" lon="-1.347148">
        <ele>1015.8</ele>
        <time>2012-08-18T13:07:22Z</time>
      </trkpt>
      <trkpt lat="40.596066" lon="-1.347074">
        <ele>1015.4</ele>
        <time>2012-08-18T13:07:23Z</time>
      </trkpt>
      <trkpt lat="40.596079" lon="-1.347001">
        <ele>1015.0</ele>
        <time>2012-08-18T13:07:24Z</time>
      </trkpt>
      <trkpt lat="40.596119" lon="-1.346545">
        <ele>1015.0</ele>
        <time>2012-08-18T13:07:30Z</time>
      </trkpt>
      <trkpt lat="40.596074" lon="-1.346011">
        <ele>1015.0</ele>
        <time>2012-08-18T13:07:37Z</time>
      </trkpt>
      <trkpt lat="40.595995" lon="-1.345405">
        <ele>1015.0</ele>
        <time>2012-08-18T13:07:45Z</time>
      </trkpt>
      <trkpt lat="40.595982" lon="-1.345188">
        <ele>1014.6</ele>
        <time>2012-08-18T13:07:48Z</time>
      </trkpt>
      <trkpt lat="40.595978" lon="-1.345118">
        <ele>1014.2</ele>
        <time>2012-08-18T13:07:49Z</time>
      </trkpt>
      <trkpt lat="40.595970" lon="-1.345048">
        <ele>1013.8</ele>
        <time>2012-08-18T13:07:50Z</time>
      </trkpt>
      <trkpt lat="40.595958" lon="-1.344985">
        <ele>1013.2</ele>
        <time>2012-08-18T13:07:51Z</time>
      </trkpt>
      <trkpt lat="40.595947" lon="-1.344926">
        <ele>1012.8</ele>
        <time>2012-08-18T13:07:52Z</time>
      </trkpt>
      <trkpt lat="40.595942" lon="-1.344865">
        <ele>1012.8</ele>
        <time>2012-08-18T13:07:53Z</time>
      </trkpt>
      <trkpt lat="40.595921" lon="-1.344655">
        <ele>1012.8</ele>
        <time>2012-08-18T13:07:57Z</time>
      </trkpt>
      <trkpt lat="40.595911" lon="-1.344518">
        <ele>1012.4</ele>
        <time>2012-08-18T13:08:02Z</time>
      </trkpt>
      <trkpt lat="40.595906" lon="-1.344511">
        <ele>1012.0</ele>
        <time>2012-08-18T13:08:03Z</time>
      </trkpt>
      <trkpt lat="40.595907" lon="-1.344514">
        <ele>1011.6</ele>
        <time>2012-08-18T13:08:04Z</time>
      </trkpt>
      <trkpt lat="40.595908" lon="-1.344512">
        <ele>1011.2</ele>
        <time>2012-08-18T13:08:05Z</time>
      </trkpt>
      <trkpt lat="40.595907" lon="-1.344514">
        <ele>1010.8</ele>
        <time>2012-08-18T13:08:06Z</time>
      </trkpt>
      <trkpt lat="40.595905" lon="-1.344432">
        <ele>1010.8</ele>
        <time>2012-08-18T13:10:16Z</time>
      </trkpt>
      <trkpt lat="40.595887" lon="-1.344218">
        <ele>1010.8</ele>
        <time>2012-08-18T13:10:22Z</time>
      </trkpt>
      <trkpt lat="40.595880" lon="-1.344129">
        <ele>1010.8</ele>
        <time>2012-08-18T13:10:24Z</time>
      </trkpt>
      <trkpt lat="40.595858" lon="-1.343827">
        <ele>1010.8</ele>
        <time>2012-08-18T13:10:30Z</time>
      </trkpt>
      <trkpt lat="40.595849" lon="-1.343779">
        <ele>1010.8</ele>
        <time>2012-08-18T13:10:31Z</time>
      </trkpt>
      <trkpt lat="40.595840" lon="-1.343676">
        <ele>1010.8</ele>
        <time>2012-08-18T13:10:33Z</time>
      </trkpt>
      <trkpt lat="40.595826" lon="-1.343508">
        <ele>1010.8</ele>
        <time>2012-08-18T13:10:36Z</time>
      </trkpt>
      <trkpt lat="40.595787" lon="-1.343087">
        <ele>1010.8</ele>
        <time>2012-08-18T13:10:43Z</time>
      </trkpt>
      <trkpt lat="40.595721" lon="-1.342533">
        <ele>1010.8</ele>
        <time>2012-08-18T13:10:52Z</time>
      </trkpt>
      <trkpt lat="40.595705" lon="-1.342410">
        <ele>1010.4</ele>
        <time>2012-08-18T13:10:54Z</time>
      </trkpt>
      <trkpt lat="40.595697" lon="-1.342347">
        <ele>1010.0</ele>
        <time>2012-08-18T13:10:55Z</time>
      </trkpt>
      <trkpt lat="40.595690" lon="-1.342283">
        <ele>1009.6</ele>
        <time>2012-08-18T13:10:56Z</time>
      </trkpt>
      <trkpt lat="40.595681" lon="-1.342219">
        <ele>1009.2</ele>
        <time>2012-08-18T13:10:57Z</time>
      </trkpt>
      <trkpt lat="40.595669" lon="-1.342151">
        <ele>1008.8</ele>
        <time>2012-08-18T13:10:58Z</time>
      </trkpt>
      <trkpt lat="40.595646" lon="-1.341949">
        <ele>1008.8</ele>
        <time>2012-08-18T13:11:01Z</time>
      </trkpt>
      <trkpt lat="40.595566" lon="-1.341395">
        <ele>1008.8</ele>
        <time>2012-08-18T13:11:09Z</time>
      </trkpt>
      <trkpt lat="40.595479" lon="-1.340711">
        <ele>1008.8</ele>
        <time>2012-08-18T13:11:19Z</time>
      </trkpt>
      <trkpt lat="40.595470" lon="-1.340642">
        <ele>1008.8</ele>
        <time>2012-08-18T13:11:20Z</time>
      </trkpt>
      <trkpt lat="40.595431" lon="-1.339990">
        <ele>1008.8</ele>
        <time>2012-08-18T13:11:29Z</time>
      </trkpt>
      <trkpt lat="40.595412" lon="-1.339761">
        <ele>1008.2</ele>
        <time>2012-08-18T13:11:32Z</time>
      </trkpt>
      <trkpt lat="40.595408" lon="-1.339683">
        <ele>1007.8</ele>
        <time>2012-08-18T13:11:33Z</time>
      </trkpt>
      <trkpt lat="40.595402" lon="-1.339603">
        <ele>1007.4</ele>
        <time>2012-08-18T13:11:34Z</time>
      </trkpt>
      <trkpt lat="40.595396" lon="-1.339526">
        <ele>1006.6</ele>
        <time>2012-08-18T13:11:35Z</time>
      </trkpt>
      <trkpt lat="40.595389" lon="-1.339450">
        <ele>1006.6</ele>
        <time>2012-08-18T13:11:36Z</time>
      </trkpt>
      <trkpt lat="40.595336" lon="-1.338860">
        <ele>1006.6</ele>
        <time>2012-08-18T13:11:44Z</time>
      </trkpt>
      <trkpt lat="40.595341" lon="-1.338288">
        <ele>1006.6</ele>
        <time>2012-08-18T13:11:52Z</time>
      </trkpt>
      <trkpt lat="40.595398" lon="-1.337716">
        <ele>1006.6</ele>
        <time>2012-08-18T13:12:00Z</time>
      </trkpt>
      <trkpt lat="40.595439" lon="-1.337224">
        <ele>1006.2</ele>
        <time>2012-08-18T13:12:07Z</time>
      </trkpt>
      <trkpt lat="40.595442" lon="-1.337154">
        <ele>1005.8</ele>
        <time>2012-08-18T13:12:08Z</time>
      </trkpt>
      <trkpt lat="40.595451" lon="-1.337082">
        <ele>1005.2</ele>
        <time>2012-08-18T13:12:09Z</time>
      </trkpt>
      <trkpt lat="40.595459" lon="-1.337014">
        <ele>1004.8</ele>
        <time>2012-08-18T13:12:10Z</time>
      </trkpt>
      <trkpt lat="40.595466" lon="-1.336945">
        <ele>1004.4</ele>
        <time>2012-08-18T13:12:11Z</time>
      </trkpt>
      <trkpt lat="40.595502" lon="-1.336524">
        <ele>1004.4</ele>
        <time>2012-08-18T13:12:17Z</time>
      </trkpt>
      <trkpt lat="40.595577" lon="-1.335811">
        <ele>1004.4</ele>
        <time>2012-08-18T13:12:27Z</time>
      </trkpt>
      <trkpt lat="40.595594" lon="-1.335669">
        <ele>1004.0</ele>
        <time>2012-08-18T13:12:29Z</time>
      </trkpt>
      <trkpt lat="40.595604" lon="-1.335600">
        <ele>1003.6</ele>
        <time>2012-08-18T13:12:30Z</time>
      </trkpt>
      <trkpt lat="40.595614" lon="-1.335530">
        <ele>1003.2</ele>
        <time>2012-08-18T13:12:31Z</time>
      </trkpt>
      <trkpt lat="40.595622" lon="-1.335458">
        <ele>1002.8</ele>
        <time>2012-08-18T13:12:32Z</time>
      </trkpt>
      <trkpt lat="40.595627" lon="-1.335389">
        <ele>1002.4</ele>
        <time>2012-08-18T13:12:33Z</time>
      </trkpt>
      <trkpt lat="40.595656" lon="-1.335118">
        <ele>1002.4</ele>
        <time>2012-08-18T13:12:37Z</time>
      </trkpt>
      <trkpt lat="40.595729" lon="-1.334510">
        <ele>1002.4</ele>
        <time>2012-08-18T13:12:46Z</time>
      </trkpt>
      <trkpt lat="40.595772" lon="-1.334175">
        <ele>1002.0</ele>
        <time>2012-08-18T13:12:51Z</time>
      </trkpt>
      <trkpt lat="40.595784" lon="-1.334112">
        <ele>1001.4</ele>
        <time>2012-08-18T13:12:52Z</time>
      </trkpt>
      <trkpt lat="40.595790" lon="-1.334049">
        <ele>1001.0</ele>
        <time>2012-08-18T13:12:53Z</time>
      </trkpt>
      <trkpt lat="40.595797" lon="-1.333982">
        <ele>1000.6</ele>
        <time>2012-08-18T13:12:54Z</time>
      </trkpt>
      <trkpt lat="40.595802" lon="-1.333912">
        <ele>1000.0</ele>
        <time>2012-08-18T13:12:55Z</time>
      </trkpt>
    </trkseg>
  </trk>
  <trk>
    <name>T3303249-5</name>
    <cmt>La ruta empieza en Ojos Negros. Hasta Santa Eulalia va por una carretera comarcal apenas transitada. Hay un tramo de unos 40 km durante el puerto del Escandón que no aparece reflejado en el track porque me quedé sin batería en el GPS pero la vía verde no tiene pérdida en esa zona</cmt>
    <desc>La ruta empieza en Ojos Negros. Hasta Santa Eulalia va por una carretera comarcal apenas transitada. Hay un tramo de unos 40 km durante el puerto del Escandón que no aparece reflejado en el track porque me quedé sin batería en el GPS pero la vía verde no tiene pérdida en esa zona</desc>
    <trkseg>
      <trkpt lat="40.595850" lon="-1.333463">
        <ele>1000.0</ele>
        <time>2012-08-18T13:13:02Z</time>
      </trkpt>
      <trkpt lat="40.595890" lon="-1.332991">
        <ele>1000.0</ele>
        <time>2012-08-18T13:13:10Z</time>
      </trkpt>
      <trkpt lat="40.595935" lon="-1.332502">
        <ele>1000.0</ele>
        <time>2012-08-18T13:13:18Z</time>
      </trkpt>
      <trkpt lat="40.595999" lon="-1.332022">
        <ele>1000.0</ele>
        <time>2012-08-18T13:13:26Z</time>
      </trkpt>
      <trkpt lat="40.596080" lon="-1.331560">
        <ele>999.4</ele>
        <time>2012-08-18T13:13:34Z</time>
      </trkpt>
      <trkpt lat="40.596090" lon="-1.331506">
        <ele>998.8</ele>
        <time>2012-08-18T13:13:35Z</time>
      </trkpt>
      <trkpt lat="40.596102" lon="-1.331452">
        <ele>998.2</ele>
        <time>2012-08-18T13:13:36Z</time>
      </trkpt>
      <trkpt lat="40.596113" lon="-1.331398">
        <ele>998.4</ele>
        <time>2012-08-18T13:13:37Z</time>
      </trkpt>
      <trkpt lat="40.596122" lon="-1.331347">
        <ele>998.8</ele>
        <time>2012-08-18T13:13:38Z</time>
      </trkpt>
      <trkpt lat="40.596133" lon="-1.331291">
        <ele>999.6</ele>
        <time>2012-08-18T13:13:39Z</time>
      </trkpt>
      <trkpt lat="40.596142" lon="-1.331236">
        <ele>1000.0</ele>
        <time>2012-08-18T13:13:40Z</time>
      </trkpt>
      <trkpt lat="40.596170" lon="-1.331089">
        <ele>1000.0</ele>
        <time>2012-08-18T13:13:43Z</time>
      </trkpt>
      <trkpt lat="40.596189" lon="-1.330972">
        <ele>1000.0</ele>
        <time>2012-08-18T13:13:47Z</time>
      </trkpt>
      <trkpt lat="40.596186" lon="-1.330969">
        <ele>1000.0</ele>
        <time>2012-08-18T13:13:49Z</time>
      </trkpt>
      <trkpt lat="40.596187" lon="-1.330969">
        <ele>1000.0</ele>
        <time>2012-08-18T13:13:51Z</time>
      </trkpt>
      <trkpt lat="40.596187" lon="-1.330969">
        <ele>1000.0</ele>
        <time>2012-08-18T13:13:52Z</time>
      </trkpt>
      <trkpt lat="40.596146" lon="-1.330914">
        <ele>999.2</ele>
        <time>2012-08-18T13:17:44Z</time>
      </trkpt>
      <trkpt lat="40.596106" lon="-1.330895">
        <ele>999.2</ele>
        <time>2012-08-18T13:17:46Z</time>
      </trkpt>
      <trkpt lat="40.595927" lon="-1.330777">
        <ele>999.2</ele>
        <time>2012-08-18T13:17:53Z</time>
      </trkpt>
      <trkpt lat="40.595712" lon="-1.330635">
        <ele>999.2</ele>
        <time>2012-08-18T13:18:00Z</time>
      </trkpt>
      <trkpt lat="40.595447" lon="-1.330466">
        <ele>999.2</ele>
        <time>2012-08-18T13:18:08Z</time>
      </trkpt>
      <trkpt lat="40.595183" lon="-1.330286">
        <ele>999.2</ele>
        <time>2012-08-18T13:18:16Z</time>
      </trkpt>
      <trkpt lat="40.594905" lon="-1.330106">
        <ele>999.2</ele>
        <time>2012-08-18T13:18:24Z</time>
      </trkpt>
      <trkpt lat="40.594580" lon="-1.329888">
        <ele>999.2</ele>
        <time>2012-08-18T13:18:33Z</time>
      </trkpt>
      <trkpt lat="40.594174" lon="-1.329637">
        <ele>999.2</ele>
        <time>2012-08-18T13:18:44Z</time>
      </trkpt>
      <trkpt lat="40.593821" lon="-1.329394">
        <ele>999.6</ele>
        <time>2012-08-18T13:18:53Z</time>
      </trkpt>
      <trkpt lat="40.593781" lon="-1.329365">
        <ele>1000.0</ele>
        <time>2012-08-18T13:18:54Z</time>
      </trkpt>
      <trkpt lat="40.593739" lon="-1.329338">
        <ele>1000.4</ele>
        <time>2012-08-18T13:18:55Z</time>
      </trkpt>
      <trkpt lat="40.593699" lon="-1.329314">
        <ele>1000.8</ele>
        <time>2012-08-18T13:18:56Z</time>
      </trkpt>
      <trkpt lat="40.593661" lon="-1.329285">
        <ele>1001.2</ele>
        <time>2012-08-18T13:18:57Z</time>
      </trkpt>
      <trkpt lat="40.593495" lon="-1.329190">
        <ele>1001.2</ele>
        <time>2012-08-18T13:19:01Z</time>
      </trkpt>
      <trkpt lat="40.593117" lon="-1.328932">
        <ele>1001.2</ele>
        <time>2012-08-18T13:19:10Z</time>
      </trkpt>
      <trkpt lat="40.592685" lon="-1.328646">
        <ele>1001.2</ele>
        <time>2012-08-18T13:19:20Z</time>
      </trkpt>
      <trkpt lat="40.592289" lon="-1.328380">
        <ele>1001.2</ele>
        <time>2012-08-18T13:19:29Z</time>
      </trkpt>
      <trkpt lat="40.591989" lon="-1.328177">
        <ele>1001.6</ele>
        <time>2012-08-18T13:19:36Z</time>
      </trkpt>
      <trkpt lat="40.591947" lon="-1.328149">
        <ele>1002.0</ele>
        <time>2012-08-18T13:19:37Z</time>
      </trkpt>
      <trkpt lat="40.591904" lon="-1.328122">
        <ele>1002.4</ele>
        <time>2012-08-18T13:19:38Z</time>
      </trkpt>
      <trkpt lat="40.591862" lon="-1.328095">
        <ele>1002.8</ele>
        <time>2012-08-18T13:19:39Z</time>
      </trkpt>
      <trkpt lat="40.591821" lon="-1.328068">
        <ele>1003.2</ele>
        <time>2012-08-18T13:19:40Z</time>
      </trkpt>
      <trkpt lat="40.591780" lon="-1.328040">
        <ele>1003.2</ele>
        <time>2012-08-18T13:19:41Z</time>
      </trkpt>
      <trkpt lat="40.591610" lon="-1.327929">
        <ele>1002.8</ele>
        <time>2012-08-18T13:19:45Z</time>
      </trkpt>
      <trkpt lat="40.591561" lon="-1.327904">
        <ele>1002.4</ele>
        <time>2012-08-18T13:19:46Z</time>
      </trkpt>
      <trkpt lat="40.591515" lon="-1.327877">
        <ele>1002.0</ele>
        <time>2012-08-18T13:19:47Z</time>
      </trkpt>
      <trkpt lat="40.591468" lon="-1.327851">
        <ele>1001.6</ele>
        <time>2012-08-18T13:19:48Z</time>
      </trkpt>
      <trkpt lat="40.591423" lon="-1.327823">
        <ele>1001.2</ele>
        <time>2012-08-18T13:19:49Z</time>
      </trkpt>
      <trkpt lat="40.591100" lon="-1.327618">
        <ele>1001.2</ele>
        <time>2012-08-18T13:19:56Z</time>
      </trkpt>
      <trkpt lat="40.590602" lon="-1.327297">
        <ele>1001.2</ele>
        <time>2012-08-18T13:20:07Z</time>
      </trkpt>
      <trkpt lat="40.590512" lon="-1.327233">
        <ele>1001.2</ele>
        <time>2012-08-18T13:20:09Z</time>
      </trkpt>
      <trkpt lat="40.590020" lon="-1.326913">
        <ele>1001.2</ele>
        <time>2012-08-18T13:20:20Z</time>
      </trkpt>
      <trkpt lat="40.589585" lon="-1.326630">
        <ele>1001.2</ele>
        <time>2012-08-18T13:20:30Z</time>
      </trkpt>
      <trkpt lat="40.589193" lon="-1.326372">
        <ele>1001.2</ele>
        <time>2012-08-18T13:20:39Z</time>
      </trkpt>
      <trkpt lat="40.588767" lon="-1.326080">
        <ele>1001.2</ele>
        <time>2012-08-18T13:20:49Z</time>
      </trkpt>
      <trkpt lat="40.588401" lon="-1.325847">
        <ele>1001.2</ele>
        <time>2012-08-18T13:20:57Z</time>
      </trkpt>
      <trkpt lat="40.587902" lon="-1.325522">
        <ele>1001.2</ele>
        <time>2012-08-18T13:21:08Z</time>
      </trkpt>
      <trkpt lat="40.587450" lon="-1.325219">
        <ele>1001.2</ele>
        <time>2012-08-18T13:21:18Z</time>
      </trkpt>
      <trkpt lat="40.587403" lon="-1.325189">
        <ele>1000.8</ele>
        <time>2012-08-18T13:21:19Z</time>
      </trkpt>
      <trkpt lat="40.587357" lon="-1.325160">
        <ele>1000.4</ele>
        <time>2012-08-18T13:21:20Z</time>
      </trkpt>
      <trkpt lat="40.587312" lon="-1.325131">
        <ele>1000.0</ele>
        <time>2012-08-18T13:21:21Z</time>
      </trkpt>
      <trkpt lat="40.587265" lon="-1.325101">
        <ele>999.4</ele>
        <time>2012-08-18T13:21:22Z</time>
      </trkpt>
      <trkpt lat="40.587218" lon="-1.325070">
        <ele>999.0</ele>
        <time>2012-08-18T13:21:23Z</time>
      </trkpt>
      <trkpt lat="40.586984" lon="-1.324923">
        <ele>999.0</ele>
        <time>2012-08-18T13:21:28Z</time>
      </trkpt>
      <trkpt lat="40.586572" lon="-1.324648">
        <ele>999.0</ele>
        <time>2012-08-18T13:21:37Z</time>
      </trkpt>
      <trkpt lat="40.586148" lon="-1.324363">
        <ele>999.0</ele>
        <time>2012-08-18T13:21:46Z</time>
      </trkpt>
      <trkpt lat="40.585652" lon="-1.324039">
        <ele>999.0</ele>
        <time>2012-08-18T13:21:56Z</time>
      </trkpt>
      <trkpt lat="40.585600" lon="-1.324006">
        <ele>999.0</ele>
        <time>2012-08-18T13:21:57Z</time>
      </trkpt>
      <trkpt lat="40.585083" lon="-1.323671">
        <ele>999.0</ele>
        <time>2012-08-18T13:22:07Z</time>
      </trkpt>
      <trkpt lat="40.584741" lon="-1.323446">
        <ele>999.0</ele>
        <time>2012-08-18T13:22:14Z</time>
      </trkpt>
      <trkpt lat="40.584500" lon="-1.323294">
        <ele>999.0</ele>
        <time>2012-08-18T13:22:20Z</time>
      </trkpt>
      <trkpt lat="40.584399" lon="-1.323223">
        <ele>999.6</ele>
        <time>2012-08-18T13:22:23Z</time>
      </trkpt>
      <trkpt lat="40.584366" lon="-1.323199">
        <ele>1000.0</ele>
        <time>2012-08-18T13:22:24Z</time>
      </trkpt>
      <trkpt lat="40.584332" lon="-1.323175">
        <ele>1000.4</ele>
        <time>2012-08-18T13:22:25Z</time>
      </trkpt>
      <trkpt lat="40.584300" lon="-1.323152">
        <ele>1000.8</ele>
        <time>2012-08-18T13:22:26Z</time>
      </trkpt>
      <trkpt lat="40.584267" lon="-1.323129">
        <ele>1001.2</ele>
        <time>2012-08-18T13:22:27Z</time>
      </trkpt>
      <trkpt lat="40.584077" lon="-1.322995">
        <ele>1001.6</ele>
        <time>2012-08-18T13:22:33Z</time>
      </trkpt>
      <trkpt lat="40.584044" lon="-1.322973">
        <ele>1002.0</ele>
        <time>2012-08-18T13:22:34Z</time>
      </trkpt>
      <trkpt lat="40.584015" lon="-1.322956">
        <ele>1002.6</ele>
        <time>2012-08-18T13:22:35Z</time>
      </trkpt>
      <trkpt lat="40.583989" lon="-1.322939">
        <ele>1003.0</ele>
        <time>2012-08-18T13:22:36Z</time>
      </trkpt>
      <trkpt lat="40.583962" lon="-1.322921">
        <ele>1003.4</ele>
        <time>2012-08-18T13:22:37Z</time>
      </trkpt>
      <trkpt lat="40.583906" lon="-1.322885">
        <ele>1003.4</ele>
        <time>2012-08-18T13:22:39Z</time>
      </trkpt>
      <trkpt lat="40.583681" lon="-1.322738">
        <ele>1003.4</ele>
        <time>2012-08-18T13:22:45Z</time>
      </trkpt>
      <trkpt lat="40.583409" lon="-1.322567">
        <ele>1003.4</ele>
        <time>2012-08-18T13:22:50Z</time>
      </trkpt>
      <trkpt lat="40.583216" lon="-1.322440">
        <ele>1002.8</ele>
        <time>2012-08-18T13:22:53Z</time>
      </trkpt>
      <trkpt lat="40.583147" lon="-1.322395">
        <ele>1002.0</ele>
        <time>2012-08-18T13:22:54Z</time>
      </trkpt>
      <trkpt lat="40.583078" lon="-1.322351">
        <ele>1001.4</ele>
        <time>2012-08-18T13:22:55Z</time>
      </trkpt>
      <trkpt lat="40.583005" lon="-1.322305">
        <ele>1001.0</ele>
        <time>2012-08-18T13:22:56Z</time>
      </trkpt>
      <trkpt lat="40.582861" lon="-1.322212">
        <ele>1000.6</ele>
        <time>2012-08-18T13:22:58Z</time>
      </trkpt>
      <trkpt lat="40.582792" lon="-1.322168">
        <ele>1000.2</ele>
        <time>2012-08-18T13:22:59Z</time>
      </trkpt>
      <trkpt lat="40.582724" lon="-1.322123">
        <ele>999.8</ele>
        <time>2012-08-18T13:23:00Z</time>
      </trkpt>
      <trkpt lat="40.582657" lon="-1.322080">
        <ele>999.4</ele>
        <time>2012-08-18T13:23:01Z</time>
      </trkpt>
      <trkpt lat="40.582592" lon="-1.322037">
        <ele>999.0</ele>
        <time>2012-08-18T13:23:02Z</time>
      </trkpt>
      <trkpt lat="40.582466" lon="-1.321955">
        <ele>999.0</ele>
        <time>2012-08-18T13:23:04Z</time>
      </trkpt>
      <trkpt lat="40.582068" lon="-1.321689">
        <ele>999.0</ele>
        <time>2012-08-18T13:23:11Z</time>
      </trkpt>
      <trkpt lat="40.581560" lon="-1.321356">
        <ele>999.0</ele>
        <time>2012-08-18T13:23:21Z</time>
      </trkpt>
      <trkpt lat="40.581511" lon="-1.321322">
        <ele>999.0</ele>
        <time>2012-08-18T13:23:22Z</time>
      </trkpt>
      <trkpt lat="40.581073" lon="-1.321037">
        <ele>999.0</ele>
        <time>2012-08-18T13:23:31Z</time>
      </trkpt>
      <trkpt lat="40.580683" lon="-1.320786">
        <ele>999.0</ele>
        <time>2012-08-18T13:23:39Z</time>
      </trkpt>
      <trkpt lat="40.580279" lon="-1.320524">
        <ele>999.0</ele>
        <time>2012-08-18T13:23:47Z</time>
      </trkpt>
      <trkpt lat="40.579882" lon="-1.320257">
        <ele>999.0</ele>
        <time>2012-08-18T13:23:55Z</time>
      </trkpt>
      <trkpt lat="40.579485" lon="-1.319991">
        <ele>999.0</ele>
        <time>2012-08-18T13:24:03Z</time>
      </trkpt>
      <trkpt lat="40.579186" lon="-1.319798">
        <ele>999.0</ele>
        <time>2012-08-18T13:24:09Z</time>
      </trkpt>
      <trkpt lat="40.578841" lon="-1.319569">
        <ele>999.0</ele>
        <time>2012-08-18T13:24:16Z</time>
      </trkpt>
      <trkpt lat="40.578436" lon="-1.319308">
        <ele>999.0</ele>
        <time>2012-08-18T13:24:24Z</time>
      </trkpt>
      <trkpt lat="40.577966" lon="-1.319008">
        <ele>999.0</ele>
        <time>2012-08-18T13:24:33Z</time>
      </trkpt>
      <trkpt lat="40.577550" lon="-1.318745">
        <ele>999.0</ele>
        <time>2012-08-18T13:24:41Z</time>
      </trkpt>
      <trkpt lat="40.577123" lon="-1.318454">
        <ele>999.0</ele>
        <time>2012-08-18T13:24:49Z</time>
      </trkpt>
      <trkpt lat="40.576742" lon="-1.318201">
        <ele>999.0</ele>
        <time>2012-08-18T13:24:56Z</time>
      </trkpt>
      <trkpt lat="40.576240" lon="-1.317867">
        <ele>999.0</ele>
        <time>2012-08-18T13:25:05Z</time>
      </trkpt>
      <trkpt lat="40.576066" lon="-1.317753">
        <ele>998.6</ele>
        <time>2012-08-18T13:25:08Z</time>
      </trkpt>
      <trkpt lat="40.576010" lon="-1.317716">
        <ele>998.2</ele>
        <time>2012-08-18T13:25:09Z</time>
      </trkpt>
      <trkpt lat="40.575952" lon="-1.317679">
        <ele>997.8</ele>
        <time>2012-08-18T13:25:10Z</time>
      </trkpt>
      <trkpt lat="40.575895" lon="-1.317642">
        <ele>997.4</ele>
        <time>2012-08-18T13:25:11Z</time>
      </trkpt>
      <trkpt lat="40.575840" lon="-1.317605">
        <ele>997.0</ele>
        <time>2012-08-18T13:25:12Z</time>
      </trkpt>
      <trkpt lat="40.575726" lon="-1.317534">
        <ele>997.0</ele>
        <time>2012-08-18T13:25:14Z</time>
      </trkpt>
      <trkpt lat="40.575349" lon="-1.317281">
        <ele>997.0</ele>
        <time>2012-08-18T13:25:21Z</time>
      </trkpt>
      <trkpt lat="40.574868" lon="-1.316962">
        <ele>997.0</ele>
        <time>2012-08-18T13:25:30Z</time>
      </trkpt>
      <trkpt lat="40.574815" lon="-1.316928">
        <ele>997.0</ele>
        <time>2012-08-18T13:25:31Z</time>
      </trkpt>
      <trkpt lat="40.574497" lon="-1.316716">
        <ele>997.0</ele>
        <time>2012-08-18T13:25:37Z</time>
      </trkpt>
      <trkpt lat="40.574114" lon="-1.316482">
        <ele>997.0</ele>
        <time>2012-08-18T13:25:44Z</time>
      </trkpt>
      <trkpt lat="40.573727" lon="-1.316283">
        <ele>997.0</ele>
        <time>2012-08-18T13:25:51Z</time>
      </trkpt>
      <trkpt lat="40.573294" lon="-1.316095">
        <ele>997.0</ele>
        <time>2012-08-18T13:25:59Z</time>
      </trkpt>
      <trkpt lat="40.572929" lon="-1.315954">
        <ele>997.0</ele>
        <time>2012-08-18T13:26:06Z</time>
      </trkpt>
      <trkpt lat="40.572830" lon="-1.315915">
        <ele>997.0</ele>
        <time>2012-08-18T13:26:08Z</time>
      </trkpt>
      <trkpt lat="40.572741" lon="-1.315862">
        <ele>997.0</ele>
        <time>2012-08-18T13:26:10Z</time>
      </trkpt>
      <trkpt lat="40.572704" lon="-1.315825">
        <ele>997.0</ele>
        <time>2012-08-18T13:26:11Z</time>
      </trkpt>
      <trkpt lat="40.572598" lon="-1.315619">
        <ele>997.0</ele>
        <time>2012-08-18T13:26:15Z</time>
      </trkpt>
      <trkpt lat="40.572583" lon="-1.315554">
        <ele>997.0</ele>
        <time>2012-08-18T13:26:16Z</time>
      </trkpt>
      <trkpt lat="40.572573" lon="-1.315494">
        <ele>997.0</ele>
        <time>2012-08-18T13:26:17Z</time>
      </trkpt>
      <trkpt lat="40.572582" lon="-1.315308">
        <ele>997.0</ele>
        <time>2012-08-18T13:26:20Z</time>
      </trkpt>
      <trkpt lat="40.572631" lon="-1.314897">
        <ele>997.0</ele>
        <time>2012-08-18T13:26:26Z</time>
      </trkpt>
      <trkpt lat="40.572684" lon="-1.314473">
        <ele>996.6</ele>
        <time>2012-08-18T13:26:32Z</time>
      </trkpt>
      <trkpt lat="40.572691" lon="-1.314403">
        <ele>996.0</ele>
        <time>2012-08-18T13:26:33Z</time>
      </trkpt>
      <trkpt lat="40.572699" lon="-1.314336">
        <ele>995.6</ele>
        <time>2012-08-18T13:26:34Z</time>
      </trkpt>
      <trkpt lat="40.572705" lon="-1.314267">
        <ele>995.2</ele>
        <time>2012-08-18T13:26:35Z</time>
      </trkpt>
      <trkpt lat="40.572712" lon="-1.314201">
        <ele>994.8</ele>
        <time>2012-08-18T13:26:36Z</time>
      </trkpt>
      <trkpt lat="40.572742" lon="-1.313939">
        <ele>994.8</ele>
        <time>2012-08-18T13:26:40Z</time>
      </trkpt>
      <trkpt lat="40.572797" lon="-1.313365">
        <ele>994.8</ele>
        <time>2012-08-18T13:26:49Z</time>
      </trkpt>
      <trkpt lat="40.572792" lon="-1.313306">
        <ele>994.8</ele>
        <time>2012-08-18T13:26:50Z</time>
      </trkpt>
      <trkpt lat="40.572753" lon="-1.313210">
        <ele>994.8</ele>
        <time>2012-08-18T13:26:52Z</time>
      </trkpt>
      <trkpt lat="40.572695" lon="-1.313141">
        <ele>994.8</ele>
        <time>2012-08-18T13:26:54Z</time>
      </trkpt>
      <trkpt lat="40.572631" lon="-1.313097">
        <ele>994.8</ele>
        <time>2012-08-18T13:26:56Z</time>
      </trkpt>
      <trkpt lat="40.572496" lon="-1.313079">
        <ele>994.8</ele>
        <time>2012-08-18T13:27:01Z</time>
      </trkpt>
      <trkpt lat="40.572487" lon="-1.313087">
        <ele>994.8</ele>
        <time>2012-08-18T13:27:02Z</time>
      </trkpt>
      <trkpt lat="40.572488" lon="-1.313086">
        <ele>994.8</ele>
        <time>2012-08-18T13:27:04Z</time>
      </trkpt>
      <trkpt lat="40.572455" lon="-1.313071">
        <ele>994.8</ele>
        <time>2012-08-18T13:27:17Z</time>
      </trkpt>
      <trkpt lat="40.572447" lon="-1.313066">
        <ele>994.8</ele>
        <time>2012-08-18T13:27:18Z</time>
      </trkpt>
      <trkpt lat="40.572418" lon="-1.313044">
        <ele>994.8</ele>
        <time>2012-08-18T13:27:28Z</time>
      </trkpt>
      <trkpt lat="40.572350" lon="-1.313012">
        <ele>994.8</ele>
        <time>2012-08-18T13:27:36Z</time>
      </trkpt>
      <trkpt lat="40.572331" lon="-1.313029">
        <ele>994.8</ele>
        <time>2012-08-18T13:27:39Z</time>
      </trkpt>
      <trkpt lat="40.572331" lon="-1.313029">
        <ele>994.8</ele>
        <time>2012-08-18T13:27:41Z</time>
      </trkpt>
      <trkpt lat="40.572331" lon="-1.313028">
        <ele>994.8</ele>
        <time>2012-08-18T13:27:47Z</time>
      </trkpt>
      <trkpt lat="40.572342" lon="-1.313033">
        <ele>994.8</ele>
        <time>2012-08-18T13:27:52Z</time>
      </trkpt>
      <trkpt lat="40.572346" lon="-1.313041">
        <ele>994.8</ele>
        <time>2012-08-18T13:27:57Z</time>
      </trkpt>
      <trkpt lat="40.572344" lon="-1.313044">
        <ele>994.8</ele>
        <time>2012-08-18T13:27:58Z</time>
      </trkpt>
      <trkpt lat="40.572291" lon="-1.313098">
        <ele>992.8</ele>
        <time>2012-08-18T13:40:29Z</time>
      </trkpt>
      <trkpt lat="40.572282" lon="-1.313100">
        <ele>992.8</ele>
        <time>2012-08-18T13:40:31Z</time>
      </trkpt>
      <trkpt lat="40.572291" lon="-1.313039">
        <ele>990.6</ele>
        <time>2012-08-18T13:43:21Z</time>
      </trkpt>
      <trkpt lat="40.572310" lon="-1.313061">
        <ele>990.6</ele>
        <time>2012-08-18T13:43:24Z</time>
      </trkpt>
      <trkpt lat="40.572316" lon="-1.313063">
        <ele>990.6</ele>
        <time>2012-08-18T13:43:26Z</time>
      </trkpt>
      <trkpt lat="40.573039" lon="-1.312997">
        <ele>973.2</ele>
        <time>2012-08-18T14:36:45Z</time>
      </trkpt>
      <trkpt lat="40.573032" lon="-1.313009">
        <ele>973.8</ele>
        <time>2012-08-18T14:36:46Z</time>
      </trkpt>
      <trkpt lat="40.573026" lon="-1.313018">
        <ele>974.2</ele>
        <time>2012-08-18T14:36:47Z</time>
      </trkpt>
      <trkpt lat="40.573022" lon="-1.313030">
        <ele>974.6</ele>
        <time>2012-08-18T14:36:48Z</time>
      </trkpt>
      <trkpt lat="40.573018" lon="-1.313050">
        <ele>975.0</ele>
        <time>2012-08-18T14:36:49Z</time>
      </trkpt>
      <trkpt lat="40.573010" lon="-1.313075">
        <ele>975.4</ele>
        <time>2012-08-18T14:36:50Z</time>
      </trkpt>
      <trkpt lat="40.572996" lon="-1.313098">
        <ele>976.0</ele>
        <time>2012-08-18T14:36:51Z</time>
      </trkpt>
      <trkpt lat="40.572969" lon="-1.313116">
        <ele>976.4</ele>
        <time>2012-08-18T14:36:52Z</time>
      </trkpt>
      <trkpt lat="40.572934" lon="-1.313124">
        <ele>977.0</ele>
        <time>2012-08-18T14:36:53Z</time>
      </trkpt>
      <trkpt lat="40.572896" lon="-1.313124">
        <ele>977.4</ele>
        <time>2012-08-18T14:36:54Z</time>
      </trkpt>
      <trkpt lat="40.572858" lon="-1.313122">
        <ele>978.0</ele>
        <time>2012-08-18T14:36:55Z</time>
      </trkpt>
      <trkpt lat="40.572824" lon="-1.313117">
        <ele>978.4</ele>
        <time>2012-08-18T14:36:56Z</time>
      </trkpt>
      <trkpt lat="40.572789" lon="-1.313114">
        <ele>978.8</ele>
        <time>2012-08-18T14:36:57Z</time>
      </trkpt>
      <trkpt lat="40.572753" lon="-1.313112">
        <ele>979.2</ele>
        <time>2012-08-18T14:36:58Z</time>
      </trkpt>
      <trkpt lat="40.572714" lon="-1.313111">
        <ele>979.8</ele>
        <time>2012-08-18T14:36:59Z</time>
      </trkpt>
      <trkpt lat="40.572679" lon="-1.313115">
        <ele>980.2</ele>
        <time>2012-08-18T14:37:00Z</time>
      </trkpt>
      <trkpt lat="40.572645" lon="-1.313116">
        <ele>980.2</ele>
        <time>2012-08-18T14:37:01Z</time>
      </trkpt>
      <trkpt lat="40.572609" lon="-1.313111">
        <ele>980.6</ele>
        <time>2012-08-18T14:37:02Z</time>
      </trkpt>
      <trkpt lat="40.572578" lon="-1.313100">
        <ele>981.0</ele>
        <time>2012-08-18T14:37:03Z</time>
      </trkpt>
      <trkpt lat="40.572552" lon="-1.313086">
        <ele>981.4</ele>
        <time>2012-08-18T14:37:04Z</time>
      </trkpt>
      <trkpt lat="40.572526" lon="-1.313073">
        <ele>981.8</ele>
        <time>2012-08-18T14:37:05Z</time>
      </trkpt>
      <trkpt lat="40.572499" lon="-1.313062">
        <ele>982.2</ele>
        <time>2012-08-18T14:37:06Z</time>
      </trkpt>
      <trkpt lat="40.572421" lon="-1.313034">
        <ele>982.8</ele>
        <time>2012-08-18T14:37:09Z</time>
      </trkpt>
      <trkpt lat="40.572395" lon="-1.313027">
        <ele>983.2</ele>
        <time>2012-08-18T14:37:10Z</time>
      </trkpt>
      <trkpt lat="40.572371" lon="-1.313016">
        <ele>983.6</ele>
        <time>2012-08-18T14:37:11Z</time>
      </trkpt>
      <trkpt lat="40.572349" lon="-1.313007">
        <ele>984.0</ele>
        <time>2012-08-18T14:37:12Z</time>
      </trkpt>
      <trkpt lat="40.572326" lon="-1.313002">
        <ele>984.4</ele>
        <time>2012-08-18T14:37:13Z</time>
      </trkpt>
      <trkpt lat="40.572183" lon="-1.312936">
        <ele>984.4</ele>
        <time>2012-08-18T14:37:19Z</time>
      </trkpt>
      <trkpt lat="40.572153" lon="-1.312922">
        <ele>984.8</ele>
        <time>2012-08-18T14:37:20Z</time>
      </trkpt>
      <trkpt lat="40.572124" lon="-1.312911">
        <ele>985.6</ele>
        <time>2012-08-18T14:37:21Z</time>
      </trkpt>
      <trkpt lat="40.572092" lon="-1.312895">
        <ele>986.2</ele>
        <time>2012-08-18T14:37:22Z</time>
      </trkpt>
      <trkpt lat="40.572058" lon="-1.312883">
        <ele>986.6</ele>
        <time>2012-08-18T14:37:23Z</time>
      </trkpt>
      <trkpt lat="40.571956" lon="-1.312862">
        <ele>986.6</ele>
        <time>2012-08-18T14:37:26Z</time>
      </trkpt>
      <trkpt lat="40.571757" lon="-1.312834">
        <ele>986.6</ele>
        <time>2012-08-18T14:37:32Z</time>
      </trkpt>
      <trkpt lat="40.571502" lon="-1.312762">
        <ele>986.6</ele>
        <time>2012-08-18T14:37:39Z</time>
      </trkpt>
      <trkpt lat="40.571467" lon="-1.312754">
        <ele>988.0</ele>
        <time>2012-08-18T14:37:40Z</time>
      </trkpt>
      <trkpt lat="40.571432" lon="-1.312745">
        <ele>987.8</ele>
        <time>2012-08-18T14:37:41Z</time>
      </trkpt>
      <trkpt lat="40.571250" lon="-1.312713">
        <ele>987.8</ele>
        <time>2012-08-18T14:37:46Z</time>
      </trkpt>
      <trkpt lat="40.571011" lon="-1.312691">
        <ele>987.8</ele>
        <time>2012-08-18T14:37:53Z</time>
      </trkpt>
      <trkpt lat="40.570867" lon="-1.312663">
        <ele>987.8</ele>
        <time>2012-08-18T14:37:58Z</time>
      </trkpt>
      <trkpt lat="40.570690" lon="-1.312658">
        <ele>987.8</ele>
        <time>2012-08-18T14:38:03Z</time>
      </trkpt>
      <trkpt lat="40.570451" lon="-1.312634">
        <ele>987.8</ele>
        <time>2012-08-18T14:38:10Z</time>
      </trkpt>
      <trkpt lat="40.570192" lon="-1.312571">
        <ele>987.8</ele>
        <time>2012-08-18T14:38:17Z</time>
      </trkpt>
      <trkpt lat="40.569965" lon="-1.312530">
        <ele>987.8</ele>
        <time>2012-08-18T14:38:23Z</time>
      </trkpt>
      <trkpt lat="40.569852" lon="-1.312459">
        <ele>987.8</ele>
        <time>2012-08-18T14:38:27Z</time>
      </trkpt>
      <trkpt lat="40.569833" lon="-1.312415">
        <ele>987.8</ele>
        <time>2012-08-18T14:38:28Z</time>
      </trkpt>
      <trkpt lat="40.569827" lon="-1.312303">
        <ele>987.8</ele>
        <time>2012-08-18T14:38:30Z</time>
      </trkpt>
      <trkpt lat="40.569846" lon="-1.312188">
        <ele>987.8</ele>
        <time>2012-08-18T14:38:32Z</time>
      </trkpt>
      <trkpt lat="40.569903" lon="-1.311836">
        <ele>987.8</ele>
        <time>2012-08-18T14:38:38Z</time>
      </trkpt>
      <trkpt lat="40.569898" lon="-1.311794">
        <ele>987.8</ele>
        <time>2012-08-18T14:38:39Z</time>
      </trkpt>
      <trkpt lat="40.569793" lon="-1.311735">
        <ele>987.8</ele>
        <time>2012-08-18T14:38:42Z</time>
      </trkpt>
      <trkpt lat="40.569700" lon="-1.311718">
        <ele>987.8</ele>
        <time>2012-08-18T14:38:44Z</time>
      </trkpt>
      <trkpt lat="40.569610" lon="-1.311701">
        <ele>987.8</ele>
        <time>2012-08-18T14:38:46Z</time>
      </trkpt>
      <trkpt lat="40.569467" lon="-1.311674">
        <ele>987.8</ele>
        <time>2012-08-18T14:38:49Z</time>
      </trkpt>
      <trkpt lat="40.569177" lon="-1.311615">
        <ele>987.8</ele>
        <time>2012-08-18T14:38:55Z</time>
      </trkpt>
      <trkpt lat="40.569083" lon="-1.311621">
        <ele>987.8</ele>
        <time>2012-08-18T14:38:57Z</time>
      </trkpt>
      <trkpt lat="40.568809" lon="-1.311645">
        <ele>987.4</ele>
        <time>2012-08-18T14:39:03Z</time>
      </trkpt>
      <trkpt lat="40.568767" lon="-1.311649">
        <ele>987.0</ele>
        <time>2012-08-18T14:39:04Z</time>
      </trkpt>
      <trkpt lat="40.568720" lon="-1.311654">
        <ele>986.6</ele>
        <time>2012-08-18T14:39:05Z</time>
      </trkpt>
      <trkpt lat="40.568677" lon="-1.311657">
        <ele>986.2</ele>
        <time>2012-08-18T14:39:06Z</time>
      </trkpt>
      <trkpt lat="40.568632" lon="-1.311660">
        <ele>985.6</ele>
        <time>2012-08-18T14:39:07Z</time>
      </trkpt>
      <trkpt lat="40.568445" lon="-1.311676">
        <ele>985.6</ele>
        <time>2012-08-18T14:39:11Z</time>
      </trkpt>
      <trkpt lat="40.568358" lon="-1.311675">
        <ele>985.6</ele>
        <time>2012-08-18T14:39:13Z</time>
      </trkpt>
      <trkpt lat="40.567989" lon="-1.311687">
        <ele>985.6</ele>
        <time>2012-08-18T14:39:21Z</time>
      </trkpt>
      <trkpt lat="40.567616" lon="-1.311733">
        <ele>985.6</ele>
        <time>2012-08-18T14:39:29Z</time>
      </trkpt>
      <trkpt lat="40.567204" lon="-1.311736">
        <ele>985.6</ele>
        <time>2012-08-18T14:39:37Z</time>
      </trkpt>
      <trkpt lat="40.566886" lon="-1.311715">
        <ele>985.6</ele>
        <time>2012-08-18T14:39:44Z</time>
      </trkpt>
      <trkpt lat="40.566722" lon="-1.311690">
        <ele>985.6</ele>
        <time>2012-08-18T14:39:48Z</time>
      </trkpt>
      <trkpt lat="40.566683" lon="-1.311685">
        <ele>985.6</ele>
        <time>2012-08-18T14:39:49Z</time>
      </trkpt>
      <trkpt lat="40.566517" lon="-1.311665">
        <ele>985.6</ele>
        <time>2012-08-18T14:39:53Z</time>
      </trkpt>
      <trkpt lat="40.566204" lon="-1.311644">
        <ele>985.6</ele>
        <time>2012-08-18T14:40:00Z</time>
      </trkpt>
      <trkpt lat="40.565783" lon="-1.311618">
        <ele>985.6</ele>
        <time>2012-08-18T14:40:09Z</time>
      </trkpt>
      <trkpt lat="40.565349" lon="-1.311646">
        <ele>985.6</ele>
        <time>2012-08-18T14:40:18Z</time>
      </trkpt>
      <trkpt lat="40.565010" lon="-1.311686">
        <ele>985.6</ele>
        <time>2012-08-18T14:40:25Z</time>
      </trkpt>
      <trkpt lat="40.564968" lon="-1.311697">
        <ele>985.6</ele>
        <time>2012-08-18T14:40:26Z</time>
      </trkpt>
      <trkpt lat="40.564928" lon="-1.311704">
        <ele>985.6</ele>
        <time>2012-08-18T14:40:27Z</time>
      </trkpt>
      <trkpt lat="40.564774" lon="-1.311687">
        <ele>985.6</ele>
        <time>2012-08-18T14:40:31Z</time>
      </trkpt>
      <trkpt lat="40.564717" lon="-1.311646">
        <ele>985.6</ele>
        <time>2012-08-18T14:40:33Z</time>
      </trkpt>
      <trkpt lat="40.564682" lon="-1.311603">
        <ele>985.6</ele>
        <time>2012-08-18T14:40:35Z</time>
      </trkpt>
      <trkpt lat="40.564489" lon="-1.312757">
        <ele>982.0</ele>
        <time>2012-08-18T14:57:07Z</time>
      </trkpt>
      <trkpt lat="40.564438" lon="-1.312980">
        <ele>982.0</ele>
        <time>2012-08-18T14:57:13Z</time>
      </trkpt>
      <trkpt lat="40.564365" lon="-1.313235">
        <ele>982.0</ele>
        <time>2012-08-18T14:57:20Z</time>
      </trkpt>
      <trkpt lat="40.564302" lon="-1.313508">
        <ele>982.0</ele>
        <time>2012-08-18T14:57:26Z</time>
      </trkpt>
      <trkpt lat="40.564222" lon="-1.313834">
        <ele>982.0</ele>
        <time>2012-08-18T14:57:33Z</time>
      </trkpt>
      <trkpt lat="40.564179" lon="-1.314129">
        <ele>982.0</ele>
        <time>2012-08-18T14:57:39Z</time>
      </trkpt>
      <trkpt lat="40.564072" lon="-1.314632">
        <ele>982.0</ele>
        <time>2012-08-18T14:57:49Z</time>
      </trkpt>
      <trkpt lat="40.564001" lon="-1.314896">
        <ele>982.0</ele>
        <time>2012-08-18T14:57:54Z</time>
      </trkpt>
      <trkpt lat="40.563986" lon="-1.314944">
        <ele>982.0</ele>
        <time>2012-08-18T14:57:55Z</time>
      </trkpt>
      <trkpt lat="40.563867" lon="-1.315423">
        <ele>982.0</ele>
        <time>2012-08-18T14:58:04Z</time>
      </trkpt>
      <trkpt lat="40.563800" lon="-1.315853">
        <ele>982.0</ele>
        <time>2012-08-18T14:58:12Z</time>
      </trkpt>
      <trkpt lat="40.563746" lon="-1.316241">
        <ele>982.4</ele>
        <time>2012-08-18T14:58:19Z</time>
      </trkpt>
      <trkpt lat="40.563744" lon="-1.316300">
        <ele>982.8</ele>
        <time>2012-08-18T14:58:20Z</time>
      </trkpt>
      <trkpt lat="40.563737" lon="-1.316361">
        <ele>983.2</ele>
        <time>2012-08-18T14:58:21Z</time>
      </trkpt>
      <trkpt lat="40.563730" lon="-1.316417">
        <ele>983.8</ele>
        <time>2012-08-18T14:58:22Z</time>
      </trkpt>
      <trkpt lat="40.563724" lon="-1.316474">
        <ele>984.2</ele>
        <time>2012-08-18T14:58:23Z</time>
      </trkpt>
      <trkpt lat="40.563723" lon="-1.316581">
        <ele>984.2</ele>
        <time>2012-08-18T14:58:25Z</time>
      </trkpt>
      <trkpt lat="40.563715" lon="-1.316689">
        <ele>984.2</ele>
        <time>2012-08-18T14:58:27Z</time>
      </trkpt>
      <trkpt lat="40.563690" lon="-1.317084">
        <ele>984.2</ele>
        <time>2012-08-18T14:58:34Z</time>
      </trkpt>
      <trkpt lat="40.563667" lon="-1.317589">
        <ele>984.2</ele>
        <time>2012-08-18T14:58:43Z</time>
      </trkpt>
      <trkpt lat="40.563651" lon="-1.317815">
        <ele>984.6</ele>
        <time>2012-08-18T14:58:47Z</time>
      </trkpt>
      <trkpt lat="40.563646" lon="-1.317876">
        <ele>985.0</ele>
        <time>2012-08-18T14:58:48Z</time>
      </trkpt>
      <trkpt lat="40.563639" lon="-1.317937">
        <ele>985.4</ele>
        <time>2012-08-18T14:58:49Z</time>
      </trkpt>
      <trkpt lat="40.563627" lon="-1.317991">
        <ele>985.8</ele>
        <time>2012-08-18T14:58:50Z</time>
      </trkpt>
      <trkpt lat="40.563613" lon="-1.318050">
        <ele>986.2</ele>
        <time>2012-08-18T14:58:51Z</time>
      </trkpt>
      <trkpt lat="40.563606" lon="-1.318106">
        <ele>986.2</ele>
        <time>2012-08-18T14:58:52Z</time>
      </trkpt>
      <trkpt lat="40.563543" lon="-1.318662">
        <ele>986.2</ele>
        <time>2012-08-18T14:59:02Z</time>
      </trkpt>
      <trkpt lat="40.563493" lon="-1.319217">
        <ele>986.6</ele>
        <time>2012-08-18T14:59:12Z</time>
      </trkpt>
      <trkpt lat="40.563486" lon="-1.319270">
        <ele>987.0</ele>
        <time>2012-08-18T14:59:13Z</time>
      </trkpt>
      <trkpt lat="40.563483" lon="-1.319323">
        <ele>987.4</ele>
        <time>2012-08-18T14:59:14Z</time>
      </trkpt>
      <trkpt lat="40.563481" lon="-1.319373">
        <ele>987.8</ele>
        <time>2012-08-18T14:59:15Z</time>
      </trkpt>
      <trkpt lat="40.563480" lon="-1.319424">
        <ele>988.2</ele>
        <time>2012-08-18T14:59:16Z</time>
      </trkpt>
      <trkpt lat="40.563466" lon="-1.319587">
        <ele>988.2</ele>
        <time>2012-08-18T14:59:19Z</time>
      </trkpt>
      <trkpt lat="40.563416" lon="-1.320094">
        <ele>988.2</ele>
        <time>2012-08-18T14:59:28Z</time>
      </trkpt>
      <trkpt lat="40.563373" lon="-1.320558">
        <ele>988.2</ele>
        <time>2012-08-18T14:59:36Z</time>
      </trkpt>
      <trkpt lat="40.563349" lon="-1.321033">
        <ele>988.6</ele>
        <time>2012-08-18T14:59:44Z</time>
      </trkpt>
      <trkpt lat="40.563347" lon="-1.321090">
        <ele>989.4</ele>
        <time>2012-08-18T14:59:45Z</time>
      </trkpt>
      <trkpt lat="40.563347" lon="-1.321150">
        <ele>989.8</ele>
        <time>2012-08-18T14:59:46Z</time>
      </trkpt>
      <trkpt lat="40.563344" lon="-1.321211">
        <ele>990.2</ele>
        <time>2012-08-18T14:59:47Z</time>
      </trkpt>
      <trkpt lat="40.563321" lon="-1.321744">
        <ele>990.2</ele>
        <time>2012-08-18T14:59:56Z</time>
      </trkpt>
      <trkpt lat="40.563293" lon="-1.322336">
        <ele>990.2</ele>
        <time>2012-08-18T15:00:06Z</time>
      </trkpt>
      <trkpt lat="40.563271" lon="-1.322862">
        <ele>990.2</ele>
        <time>2012-08-18T15:00:15Z</time>
      </trkpt>
      <trkpt lat="40.563253" lon="-1.323409">
        <ele>990.2</ele>
        <time>2012-08-18T15:00:24Z</time>
      </trkpt>
      <trkpt lat="40.563236" lon="-1.323873">
        <ele>990.2</ele>
        <time>2012-08-18T15:00:32Z</time>
      </trkpt>
      <trkpt lat="40.563235" lon="-1.324039">
        <ele>990.8</ele>
        <time>2012-08-18T15:00:35Z</time>
      </trkpt>
      <trkpt lat="40.563234" lon="-1.324099">
        <ele>991.6</ele>
        <time>2012-08-18T15:00:36Z</time>
      </trkpt>
      <trkpt lat="40.563233" lon="-1.324157">
        <ele>992.2</ele>
        <time>2012-08-18T15:00:37Z</time>
      </trkpt>
      <trkpt lat="40.563231" lon="-1.324215">
        <ele>992.8</ele>
        <time>2012-08-18T15:00:38Z</time>
      </trkpt>
      <trkpt lat="40.563227" lon="-1.324275">
        <ele>993.4</ele>
        <time>2012-08-18T15:00:39Z</time>
      </trkpt>
      <trkpt lat="40.563215" lon="-1.324691">
        <ele>993.4</ele>
        <time>2012-08-18T15:00:46Z</time>
      </trkpt>
      <trkpt lat="40.563197" lon="-1.325347">
        <ele>993.4</ele>
        <time>2012-08-18T15:00:57Z</time>
      </trkpt>
      <trkpt lat="40.563197" lon="-1.325831">
        <ele>993.4</ele>
        <time>2012-08-18T15:01:05Z</time>
      </trkpt>
      <trkpt lat="40.563190" lon="-1.326427">
        <ele>993.4</ele>
        <time>2012-08-18T15:01:15Z</time>
      </trkpt>
      <trkpt lat="40.563170" lon="-1.327015">
        <ele>994.2</ele>
        <time>2012-08-18T15:01:25Z</time>
      </trkpt>
      <trkpt lat="40.563169" lon="-1.327075">
        <ele>994.6</ele>
        <time>2012-08-18T15:01:26Z</time>
      </trkpt>
      <trkpt lat="40.563167" lon="-1.327134">
        <ele>995.0</ele>
        <time>2012-08-18T15:01:27Z</time>
      </trkpt>
      <trkpt lat="40.563164" lon="-1.327195">
        <ele>995.4</ele>
        <time>2012-08-18T15:01:28Z</time>
      </trkpt>
      <trkpt lat="40.563137" lon="-1.327620">
        <ele>995.4</ele>
        <time>2012-08-18T15:01:35Z</time>
      </trkpt>
      <trkpt lat="40.563088" lon="-1.328207">
        <ele>995.4</ele>
        <time>2012-08-18T15:01:45Z</time>
      </trkpt>
      <trkpt lat="40.563038" lon="-1.328674">
        <ele>995.8</ele>
        <time>2012-08-18T15:01:53Z</time>
      </trkpt>
      <trkpt lat="40.563037" lon="-1.328732">
        <ele>996.2</ele>
        <time>2012-08-18T15:01:54Z</time>
      </trkpt>
      <trkpt lat="40.563034" lon="-1.328792">
        <ele>996.6</ele>
        <time>2012-08-18T15:01:55Z</time>
      </trkpt>
      <trkpt lat="40.563029" lon="-1.328853">
        <ele>997.0</ele>
        <time>2012-08-18T15:01:56Z</time>
      </trkpt>
      <trkpt lat="40.563023" lon="-1.328914">
        <ele>997.4</ele>
        <time>2012-08-18T15:01:57Z</time>
      </trkpt>
      <trkpt lat="40.562971" lon="-1.329280">
        <ele>997.4</ele>
        <time>2012-08-18T15:02:03Z</time>
      </trkpt>
      <trkpt lat="40.562906" lon="-1.329803">
        <ele>997.4</ele>
        <time>2012-08-18T15:02:12Z</time>
      </trkpt>
      <trkpt lat="40.562860" lon="-1.330322">
        <ele>997.4</ele>
        <time>2012-08-18T15:02:21Z</time>
      </trkpt>
      <trkpt lat="40.562799" lon="-1.330855">
        <ele>997.4</ele>
        <time>2012-08-18T15:02:30Z</time>
      </trkpt>
      <trkpt lat="40.562729" lon="-1.331453">
        <ele>997.8</ele>
        <time>2012-08-18T15:02:40Z</time>
      </trkpt>
      <trkpt lat="40.562722" lon="-1.331513">
        <ele>998.2</ele>
        <time>2012-08-18T15:02:41Z</time>
      </trkpt>
      <trkpt lat="40.562716" lon="-1.331579">
        <ele>998.6</ele>
        <time>2012-08-18T15:02:42Z</time>
      </trkpt>
      <trkpt lat="40.562711" lon="-1.331639">
        <ele>999.0</ele>
        <time>2012-08-18T15:02:43Z</time>
      </trkpt>
      <trkpt lat="40.562704" lon="-1.331700">
        <ele>999.4</ele>
        <time>2012-08-18T15:02:44Z</time>
      </trkpt>
      <trkpt lat="40.562660" lon="-1.332018">
        <ele>999.4</ele>
        <time>2012-08-18T15:02:49Z</time>
      </trkpt>
      <trkpt lat="40.562604" lon="-1.332535">
        <ele>999.4</ele>
        <time>2012-08-18T15:02:57Z</time>
      </trkpt>
      <trkpt lat="40.562581" lon="-1.332761">
        <ele>1000.0</ele>
        <time>2012-08-18T15:03:00Z</time>
      </trkpt>
      <trkpt lat="40.562572" lon="-1.332834">
        <ele>1000.4</ele>
        <time>2012-08-18T15:03:01Z</time>
      </trkpt>
      <trkpt lat="40.562562" lon="-1.332907">
        <ele>1000.8</ele>
        <time>2012-08-18T15:03:02Z</time>
      </trkpt>
      <trkpt lat="40.562554" lon="-1.332980">
        <ele>1001.2</ele>
        <time>2012-08-18T15:03:03Z</time>
      </trkpt>
      <trkpt lat="40.562549" lon="-1.333053">
        <ele>1001.6</ele>
        <time>2012-08-18T15:03:04Z</time>
      </trkpt>
      <trkpt lat="40.562485" lon="-1.333653">
        <ele>1002.0</ele>
        <time>2012-08-18T15:03:12Z</time>
      </trkpt>
      <trkpt lat="40.562474" lon="-1.333728">
        <ele>1002.6</ele>
        <time>2012-08-18T15:03:13Z</time>
      </trkpt>
      <trkpt lat="40.562466" lon="-1.333793">
        <ele>1003.0</ele>
        <time>2012-08-18T15:03:14Z</time>
      </trkpt>
      <trkpt lat="40.562461" lon="-1.333857">
        <ele>1003.4</ele>
        <time>2012-08-18T15:03:15Z</time>
      </trkpt>
      <trkpt lat="40.562458" lon="-1.333920">
        <ele>1003.8</ele>
        <time>2012-08-18T15:03:16Z</time>
      </trkpt>
      <trkpt lat="40.562455" lon="-1.333981">
        <ele>1004.2</ele>
        <time>2012-08-18T15:03:17Z</time>
      </trkpt>
      <trkpt lat="40.562451" lon="-1.334043">
        <ele>1004.8</ele>
        <time>2012-08-18T15:03:18Z</time>
      </trkpt>
      <trkpt lat="40.562445" lon="-1.334104">
        <ele>1005.2</ele>
        <time>2012-08-18T15:03:19Z</time>
      </trkpt>
      <trkpt lat="40.562440" lon="-1.334168">
        <ele>1005.6</ele>
        <time>2012-08-18T15:03:20Z</time>
      </trkpt>
      <trkpt lat="40.562435" lon="-1.334229">
        <ele>1006.0</ele>
        <time>2012-08-18T15:03:21Z</time>
      </trkpt>
      <trkpt lat="40.562393" lon="-1.334531">
        <ele>1006.0</ele>
        <time>2012-08-18T15:03:26Z</time>
      </trkpt>
      <trkpt lat="40.562377" lon="-1.334721">
        <ele>1006.6</ele>
        <time>2012-08-18T15:03:29Z</time>
      </trkpt>
      <trkpt lat="40.562370" lon="-1.334785">
        <ele>1007.2</ele>
        <time>2012-08-18T15:03:30Z</time>
      </trkpt>
      <trkpt lat="40.562362" lon="-1.334847">
        <ele>1007.6</ele>
        <time>2012-08-18T15:03:31Z</time>
      </trkpt>
      <trkpt lat="40.562354" lon="-1.334908">
        <ele>1008.2</ele>
        <time>2012-08-18T15:03:32Z</time>
      </trkpt>
      <trkpt lat="40.562346" lon="-1.334971">
        <ele>1008.8</ele>
        <time>2012-08-18T15:03:33Z</time>
      </trkpt>
      <trkpt lat="40.562337" lon="-1.335033">
        <ele>1008.8</ele>
        <time>2012-08-18T15:03:34Z</time>
      </trkpt>
      <trkpt lat="40.562329" lon="-1.335097">
        <ele>1009.2</ele>
        <time>2012-08-18T15:03:35Z</time>
      </trkpt>
      <trkpt lat="40.562322" lon="-1.335157">
        <ele>1009.8</ele>
        <time>2012-08-18T15:03:36Z</time>
      </trkpt>
      <trkpt lat="40.562313" lon="-1.335214">
        <ele>1010.2</ele>
        <time>2012-08-18T15:03:37Z</time>
      </trkpt>
      <trkpt lat="40.562304" lon="-1.335271">
        <ele>1010.8</ele>
        <time>2012-08-18T15:03:38Z</time>
      </trkpt>
      <trkpt lat="40.562294" lon="-1.335328">
        <ele>1011.2</ele>
        <time>2012-08-18T15:03:39Z</time>
      </trkpt>
      <trkpt lat="40.562279" lon="-1.335440">
        <ele>1011.2</ele>
        <time>2012-08-18T15:03:41Z</time>
      </trkpt>
      <trkpt lat="40.562258" lon="-1.335658">
        <ele>1011.2</ele>
        <time>2012-08-18T15:03:45Z</time>
      </trkpt>
      <trkpt lat="40.562241" lon="-1.335758">
        <ele>1011.2</ele>
        <time>2012-08-18T15:03:47Z</time>
      </trkpt>
      <trkpt lat="40.562211" lon="-1.336122">
        <ele>1011.2</ele>
        <time>2012-08-18T15:03:54Z</time>
      </trkpt>
      <trkpt lat="40.562154" lon="-1.336491">
        <ele>1011.2</ele>
        <time>2012-08-18T15:04:02Z</time>
      </trkpt>
      <trkpt lat="40.562136" lon="-1.336528">
        <ele>1011.2</ele>
        <time>2012-08-18T15:04:03Z</time>
      </trkpt>
      <trkpt lat="40.562083" lon="-1.336571">
        <ele>1011.2</ele>
        <time>2012-08-18T15:04:05Z</time>
      </trkpt>
      <trkpt lat="40.562009" lon="-1.336621">
        <ele>1011.2</ele>
        <time>2012-08-18T15:04:09Z</time>
      </trkpt>
      <trkpt lat="40.562037" lon="-1.336635">
        <ele>1011.2</ele>
        <time>2012-08-18T15:04:12Z</time>
      </trkpt>
      <trkpt lat="40.562040" lon="-1.336632">
        <ele>1011.2</ele>
        <time>2012-08-18T15:04:15Z</time>
      </trkpt>
      <trkpt lat="40.562073" lon="-1.336630">
        <ele>1011.8</ele>
        <time>2012-08-18T15:06:08Z</time>
      </trkpt>
      <trkpt lat="40.562120" lon="-1.336732">
        <ele>1011.8</ele>
        <time>2012-08-18T15:06:11Z</time>
      </trkpt>
      <trkpt lat="40.562105" lon="-1.336890">
        <ele>1011.8</ele>
        <time>2012-08-18T15:06:14Z</time>
      </trkpt>
      <trkpt lat="40.562097" lon="-1.337009">
        <ele>1011.8</ele>
        <time>2012-08-18T15:06:16Z</time>
      </trkpt>
      <trkpt lat="40.562051" lon="-1.337454">
        <ele>1011.8</ele>
        <time>2012-08-18T15:06:22Z</time>
      </trkpt>
      <trkpt lat="40.562028" lon="-1.337673">
        <ele>1012.2</ele>
        <time>2012-08-18T15:06:25Z</time>
      </trkpt>
      <trkpt lat="40.562019" lon="-1.337746">
        <ele>1012.6</ele>
        <time>2012-08-18T15:06:26Z</time>
      </trkpt>
      <trkpt lat="40.562010" lon="-1.337819">
        <ele>1013.0</ele>
        <time>2012-08-18T15:06:27Z</time>
      </trkpt>
      <trkpt lat="40.562003" lon="-1.337891">
        <ele>1013.4</ele>
        <time>2012-08-18T15:06:28Z</time>
      </trkpt>
      <trkpt lat="40.561993" lon="-1.337962">
        <ele>1013.8</ele>
        <time>2012-08-18T15:06:29Z</time>
      </trkpt>
      <trkpt lat="40.561974" lon="-1.338105">
        <ele>1014.4</ele>
        <time>2012-08-18T15:06:31Z</time>
      </trkpt>
      <trkpt lat="40.561967" lon="-1.338177">
        <ele>1014.8</ele>
        <time>2012-08-18T15:06:32Z</time>
      </trkpt>
      <trkpt lat="40.561959" lon="-1.338252">
        <ele>1015.2</ele>
        <time>2012-08-18T15:06:33Z</time>
      </trkpt>
      <trkpt lat="40.561953" lon="-1.338323">
        <ele>1015.6</ele>
        <time>2012-08-18T15:06:34Z</time>
      </trkpt>
      <trkpt lat="40.561947" lon="-1.338392">
        <ele>1016.0</ele>
        <time>2012-08-18T15:06:35Z</time>
      </trkpt>
      <trkpt lat="40.561923" lon="-1.338676">
        <ele>1016.4</ele>
        <time>2012-08-18T15:06:39Z</time>
      </trkpt>
      <trkpt lat="40.561916" lon="-1.338748">
        <ele>1016.8</ele>
        <time>2012-08-18T15:06:40Z</time>
      </trkpt>
      <trkpt lat="40.561908" lon="-1.338824">
        <ele>1017.2</ele>
        <time>2012-08-18T15:06:41Z</time>
      </trkpt>
      <trkpt lat="40.561903" lon="-1.338897">
        <ele>1017.6</ele>
        <time>2012-08-18T15:06:42Z</time>
      </trkpt>
      <trkpt lat="40.561896" lon="-1.338971">
        <ele>1018.2</ele>
        <time>2012-08-18T15:06:43Z</time>
      </trkpt>
      <trkpt lat="40.561809" lon="-1.339587">
        <ele>1018.6</ele>
        <time>2012-08-18T15:06:51Z</time>
      </trkpt>
      <trkpt lat="40.561800" lon="-1.339658">
        <ele>1019.0</ele>
        <time>2012-08-18T15:06:52Z</time>
      </trkpt>
      <trkpt lat="40.561791" lon="-1.339724">
        <ele>1019.4</ele>
        <time>2012-08-18T15:06:53Z</time>
      </trkpt>
      <trkpt lat="40.561781" lon="-1.339789">
        <ele>1019.8</ele>
        <time>2012-08-18T15:06:54Z</time>
      </trkpt>
      <trkpt lat="40.561770" lon="-1.339855">
        <ele>1020.2</ele>
        <time>2012-08-18T15:06:55Z</time>
      </trkpt>
      <trkpt lat="40.561725" lon="-1.340100">
        <ele>1020.8</ele>
        <time>2012-08-18T15:06:59Z</time>
      </trkpt>
      <trkpt lat="40.561715" lon="-1.340147">
        <ele>1021.2</ele>
        <time>2012-08-18T15:07:00Z</time>
      </trkpt>
      <trkpt lat="40.561709" lon="-1.340188">
        <ele>1021.6</ele>
        <time>2012-08-18T15:07:01Z</time>
      </trkpt>
      <trkpt lat="40.561701" lon="-1.340234">
        <ele>1022.0</ele>
        <time>2012-08-18T15:07:02Z</time>
      </trkpt>
      <trkpt lat="40.561694" lon="-1.340281">
        <ele>1022.4</ele>
        <time>2012-08-18T15:07:03Z</time>
      </trkpt>
      <trkpt lat="40.561644" lon="-1.340516">
        <ele>1022.4</ele>
        <time>2012-08-18T15:07:08Z</time>
      </trkpt>
      <trkpt lat="40.561609" lon="-1.340653">
        <ele>1023.2</ele>
        <time>2012-08-18T15:07:11Z</time>
      </trkpt>
      <trkpt lat="40.561598" lon="-1.340696">
        <ele>1023.8</ele>
        <time>2012-08-18T15:07:12Z</time>
      </trkpt>
      <trkpt lat="40.561585" lon="-1.340739">
        <ele>1024.2</ele>
        <time>2012-08-18T15:07:13Z</time>
      </trkpt>
      <trkpt lat="40.561572" lon="-1.340781">
        <ele>1024.6</ele>
        <time>2012-08-18T15:07:14Z</time>
      </trkpt>
      <trkpt lat="40.561503" lon="-1.341011">
        <ele>1025.0</ele>
        <time>2012-08-18T15:07:20Z</time>
      </trkpt>
      <trkpt lat="40.561489" lon="-1.341047">
        <ele>1025.4</ele>
        <time>2012-08-18T15:07:21Z</time>
      </trkpt>
      <trkpt lat="40.561481" lon="-1.341081">
        <ele>1025.8</ele>
        <time>2012-08-18T15:07:22Z</time>
      </trkpt>
      <trkpt lat="40.561480" lon="-1.341113">
        <ele>1026.2</ele>
        <time>2012-08-18T15:07:23Z</time>
      </trkpt>
      <trkpt lat="40.561487" lon="-1.341144">
        <ele>1026.6</ele>
        <time>2012-08-18T15:07:24Z</time>
      </trkpt>
      <trkpt lat="40.561499" lon="-1.341175">
        <ele>1026.6</ele>
        <time>2012-08-18T15:07:25Z</time>
      </trkpt>
      <trkpt lat="40.561620" lon="-1.341351">
        <ele>1026.6</ele>
        <time>2012-08-18T15:07:32Z</time>
      </trkpt>
      <trkpt lat="40.561772" lon="-1.341498">
        <ele>1026.6</ele>
        <time>2012-08-18T15:07:38Z</time>
      </trkpt>
      <trkpt lat="40.562072" lon="-1.341776">
        <ele>1026.6</ele>
        <time>2012-08-18T15:07:47Z</time>
      </trkpt>
      <trkpt lat="40.562367" lon="-1.342051">
        <ele>1026.6</ele>
        <time>2012-08-18T15:07:55Z</time>
      </trkpt>
      <trkpt lat="40.562658" lon="-1.342324">
        <ele>1026.6</ele>
        <time>2012-08-18T15:08:03Z</time>
      </trkpt>
      <trkpt lat="40.562868" lon="-1.342574">
        <ele>1026.6</ele>
        <time>2012-08-18T15:08:11Z</time>
      </trkpt>
      <trkpt lat="40.562962" lon="-1.342727">
        <ele>1026.6</ele>
        <time>2012-08-18T15:08:18Z</time>
      </trkpt>
      <trkpt lat="40.562962" lon="-1.342740">
        <ele>1026.6</ele>
        <time>2012-08-18T15:08:19Z</time>
      </trkpt>
      <trkpt lat="40.562938" lon="-1.342756">
        <ele>1027.0</ele>
        <time>2012-08-18T15:08:22Z</time>
      </trkpt>
      <trkpt lat="40.562933" lon="-1.342760">
        <ele>1027.4</ele>
        <time>2012-08-18T15:08:23Z</time>
      </trkpt>
      <trkpt lat="40.562929" lon="-1.342760">
        <ele>1028.4</ele>
        <time>2012-08-18T15:08:24Z</time>
      </trkpt>
      <trkpt lat="40.562906" lon="-1.342774">
        <ele>1028.8</ele>
        <time>2012-08-18T15:08:27Z</time>
      </trkpt>
      <trkpt lat="40.562886" lon="-1.342779">
        <ele>1028.8</ele>
        <time>2012-08-18T15:08:30Z</time>
      </trkpt>
      <trkpt lat="40.562869" lon="-1.342792">
        <ele>1028.8</ele>
        <time>2012-08-18T15:08:33Z</time>
      </trkpt>
      <trkpt lat="40.562623" lon="-1.342818">
        <ele>1028.8</ele>
        <time>2012-08-18T15:12:48Z</time>
      </trkpt>
      <trkpt lat="40.562599" lon="-1.342825">
        <ele>1028.8</ele>
        <time>2012-08-18T15:12:50Z</time>
      </trkpt>
      <trkpt lat="40.562557" lon="-1.342775">
        <ele>1028.8</ele>
        <time>2012-08-18T15:13:02Z</time>
      </trkpt>
      <trkpt lat="40.562669" lon="-1.342788">
        <ele>1028.8</ele>
        <time>2012-08-18T15:13:12Z</time>
      </trkpt>
      <trkpt lat="40.562724" lon="-1.342793">
        <ele>1028.8</ele>
        <time>2012-08-18T15:13:16Z</time>
      </trkpt>
      <trkpt lat="40.562926" lon="-1.342717">
        <ele>1033.4</ele>
        <time>2012-08-18T15:22:53Z</time>
      </trkpt>
      <trkpt lat="40.562939" lon="-1.342701">
        <ele>1033.4</ele>
        <time>2012-08-18T15:22:55Z</time>
      </trkpt>
      <trkpt lat="40.562940" lon="-1.342700">
        <ele>1033.4</ele>
        <time>2012-08-18T15:22:58Z</time>
      </trkpt>
      <trkpt lat="40.562891" lon="-1.342651">
        <ele>1031.6</ele>
        <time>2012-08-18T15:23:18Z</time>
      </trkpt>
      <trkpt lat="40.562887" lon="-1.342631">
        <ele>1031.6</ele>
        <time>2012-08-18T15:23:19Z</time>
      </trkpt>
      <trkpt lat="40.562799" lon="-1.342530">
        <ele>1031.6</ele>
        <time>2012-08-18T15:23:23Z</time>
      </trkpt>
      <trkpt lat="40.562634" lon="-1.342353">
        <ele>1031.6</ele>
        <time>2012-08-18T15:23:28Z</time>
      </trkpt>
      <trkpt lat="40.562448" lon="-1.342168">
        <ele>1031.6</ele>
        <time>2012-08-18T15:23:33Z</time>
      </trkpt>
      <trkpt lat="40.562410" lon="-1.342135">
        <ele>1032.0</ele>
        <time>2012-08-18T15:23:34Z</time>
      </trkpt>
      <trkpt lat="40.562373" lon="-1.342104">
        <ele>1032.4</ele>
        <time>2012-08-18T15:23:35Z</time>
      </trkpt>
      <trkpt lat="40.562337" lon="-1.342066">
        <ele>1033.0</ele>
        <time>2012-08-18T15:23:36Z</time>
      </trkpt>
      <trkpt lat="40.562304" lon="-1.342032">
        <ele>1033.4</ele>
        <time>2012-08-18T15:23:37Z</time>
      </trkpt>
      <trkpt lat="40.562268" lon="-1.341994">
        <ele>1033.8</ele>
        <time>2012-08-18T15:23:38Z</time>
      </trkpt>
      <trkpt lat="40.562128" lon="-1.341853">
        <ele>1033.8</ele>
        <time>2012-08-18T15:23:42Z</time>
      </trkpt>
      <trkpt lat="40.561852" lon="-1.341579">
        <ele>1033.8</ele>
        <time>2012-08-18T15:23:50Z</time>
      </trkpt>
      <trkpt lat="40.561582" lon="-1.341297">
        <ele>1033.8</ele>
        <time>2012-08-18T15:23:58Z</time>
      </trkpt>
      <trkpt lat="40.561383" lon="-1.341086">
        <ele>1033.8</ele>
        <time>2012-08-18T15:24:05Z</time>
      </trkpt>
      <trkpt lat="40.561352" lon="-1.341052">
        <ele>1033.4</ele>
        <time>2012-08-18T15:24:06Z</time>
      </trkpt>
      <trkpt lat="40.561319" lon="-1.341019">
        <ele>1033.0</ele>
        <time>2012-08-18T15:24:07Z</time>
      </trkpt>
      <trkpt lat="40.561281" lon="-1.340988">
        <ele>1032.2</ele>
        <time>2012-08-18T15:24:08Z</time>
      </trkpt>
      <trkpt lat="40.561247" lon="-1.340951">
        <ele>1031.8</ele>
        <time>2012-08-18T15:24:09Z</time>
      </trkpt>
      <trkpt lat="40.561180" lon="-1.340878">
        <ele>1031.8</ele>
        <time>2012-08-18T15:24:11Z</time>
      </trkpt>
      <trkpt lat="40.560978" lon="-1.340654">
        <ele>1031.8</ele>
        <time>2012-08-18T15:24:17Z</time>
      </trkpt>
      <trkpt lat="40.560686" lon="-1.340357">
        <ele>1031.8</ele>
        <time>2012-08-18T15:24:25Z</time>
      </trkpt>
      <trkpt lat="40.560605" lon="-1.340269">
        <ele>1031.4</ele>
        <time>2012-08-18T15:24:27Z</time>
      </trkpt>
      <trkpt lat="40.560564" lon="-1.340226">
        <ele>1031.0</ele>
        <time>2012-08-18T15:24:28Z</time>
      </trkpt>
      <trkpt lat="40.560522" lon="-1.340182">
        <ele>1030.6</ele>
        <time>2012-08-18T15:24:29Z</time>
      </trkpt>
      <trkpt lat="40.560480" lon="-1.340135">
        <ele>1030.2</ele>
        <time>2012-08-18T15:24:30Z</time>
      </trkpt>
      <trkpt lat="40.560436" lon="-1.340091">
        <ele>1029.8</ele>
        <time>2012-08-18T15:24:31Z</time>
      </trkpt>
      <trkpt lat="40.560347" lon="-1.340002">
        <ele>1029.8</ele>
        <time>2012-08-18T15:24:33Z</time>
      </trkpt>
      <trkpt lat="40.559937" lon="-1.339588">
        <ele>1029.8</ele>
        <time>2012-08-18T15:24:42Z</time>
      </trkpt>
      <trkpt lat="40.559546" lon="-1.339209">
        <ele>1029.4</ele>
        <time>2012-08-18T15:24:50Z</time>
      </trkpt>
      <trkpt lat="40.559495" lon="-1.339162">
        <ele>1029.0</ele>
        <time>2012-08-18T15:24:51Z</time>
      </trkpt>
      <trkpt lat="40.559447" lon="-1.339113">
        <ele>1028.6</ele>
        <time>2012-08-18T15:24:52Z</time>
      </trkpt>
      <trkpt lat="40.559397" lon="-1.339063">
        <ele>1028.0</ele>
        <time>2012-08-18T15:24:53Z</time>
      </trkpt>
      <trkpt lat="40.559348" lon="-1.339012">
        <ele>1027.6</ele>
        <time>2012-08-18T15:24:54Z</time>
      </trkpt>
      <trkpt lat="40.559194" lon="-1.338856">
        <ele>1027.6</ele>
        <time>2012-08-18T15:24:57Z</time>
      </trkpt>
      <trkpt lat="40.559144" lon="-1.338808">
        <ele>1027.6</ele>
        <time>2012-08-18T15:24:58Z</time>
      </trkpt>
      <trkpt lat="40.558753" lon="-1.338410">
        <ele>1027.6</ele>
        <time>2012-08-18T15:25:06Z</time>
      </trkpt>
      <trkpt lat="40.558293" lon="-1.337963">
        <ele>1027.6</ele>
        <time>2012-08-18T15:25:15Z</time>
      </trkpt>
      <trkpt lat="40.558241" lon="-1.337911">
        <ele>1027.6</ele>
        <time>2012-08-18T15:25:16Z</time>
      </trkpt>
      <trkpt lat="40.557787" lon="-1.337452">
        <ele>1027.6</ele>
        <time>2012-08-18T15:25:25Z</time>
      </trkpt>
      <trkpt lat="40.557316" lon="-1.336978">
        <ele>1027.6</ele>
        <time>2012-08-18T15:25:34Z</time>
      </trkpt>
      <trkpt lat="40.557264" lon="-1.336924">
        <ele>1027.2</ele>
        <time>2012-08-18T15:25:35Z</time>
      </trkpt>
      <trkpt lat="40.557211" lon="-1.336874">
        <ele>1026.8</ele>
        <time>2012-08-18T15:25:36Z</time>
      </trkpt>
      <trkpt lat="40.557157" lon="-1.336824">
        <ele>1026.4</ele>
        <time>2012-08-18T15:25:37Z</time>
      </trkpt>
      <trkpt lat="40.557103" lon="-1.336769">
        <ele>1026.0</ele>
        <time>2012-08-18T15:25:38Z</time>
      </trkpt>
      <trkpt lat="40.557050" lon="-1.336716">
        <ele>1025.6</ele>
        <time>2012-08-18T15:25:39Z</time>
      </trkpt>
      <trkpt lat="40.556880" lon="-1.336546">
        <ele>1025.6</ele>
        <time>2012-08-18T15:25:42Z</time>
      </trkpt>
      <trkpt lat="40.556431" lon="-1.336086">
        <ele>1025.6</ele>
        <time>2012-08-18T15:25:50Z</time>
      </trkpt>
      <trkpt lat="40.556317" lon="-1.335978">
        <ele>1025.6</ele>
        <time>2012-08-18T15:25:52Z</time>
      </trkpt>
      <trkpt lat="40.555860" lon="-1.335526">
        <ele>1025.6</ele>
        <time>2012-08-18T15:26:00Z</time>
      </trkpt>
      <trkpt lat="40.555506" lon="-1.335188">
        <ele>1025.2</ele>
        <time>2012-08-18T15:26:06Z</time>
      </trkpt>
      <trkpt lat="40.555451" lon="-1.335133">
        <ele>1024.8</ele>
        <time>2012-08-18T15:26:07Z</time>
      </trkpt>
      <trkpt lat="40.555395" lon="-1.335079">
        <ele>1024.4</ele>
        <time>2012-08-18T15:26:08Z</time>
      </trkpt>
      <trkpt lat="40.555338" lon="-1.335026">
        <ele>1024.0</ele>
        <time>2012-08-18T15:26:09Z</time>
      </trkpt>
      <trkpt lat="40.555280" lon="-1.334967">
        <ele>1023.6</ele>
        <time>2012-08-18T15:26:10Z</time>
      </trkpt>
      <trkpt lat="40.554981" lon="-1.334676">
        <ele>1023.6</ele>
        <time>2012-08-18T15:26:15Z</time>
      </trkpt>
      <trkpt lat="40.554807" lon="-1.334499">
        <ele>1023.6</ele>
        <time>2012-08-18T15:26:18Z</time>
      </trkpt>
      <trkpt lat="40.554520" lon="-1.334205">
        <ele>1023.6</ele>
        <time>2012-08-18T15:26:23Z</time>
      </trkpt>
      <trkpt lat="40.554107" lon="-1.333805">
        <ele>1023.2</ele>
        <time>2012-08-18T15:26:30Z</time>
      </trkpt>
      <trkpt lat="40.554046" lon="-1.333744">
        <ele>1022.8</ele>
        <time>2012-08-18T15:26:31Z</time>
      </trkpt>
      <trkpt lat="40.553985" lon="-1.333684">
        <ele>1022.4</ele>
        <time>2012-08-18T15:26:32Z</time>
      </trkpt>
      <trkpt lat="40.553924" lon="-1.333624">
        <ele>1022.0</ele>
        <time>2012-08-18T15:26:33Z</time>
      </trkpt>
      <trkpt lat="40.553862" lon="-1.333565">
        <ele>1021.4</ele>
        <time>2012-08-18T15:26:34Z</time>
      </trkpt>
      <trkpt lat="40.553564" lon="-1.333290">
        <ele>1021.4</ele>
        <time>2012-08-18T15:26:39Z</time>
      </trkpt>
      <trkpt lat="40.553089" lon="-1.332860">
        <ele>1021.4</ele>
        <time>2012-08-18T15:26:47Z</time>
      </trkpt>
      <trkpt lat="40.553031" lon="-1.332807">
        <ele>1021.4</ele>
        <time>2012-08-18T15:26:48Z</time>
      </trkpt>
      <trkpt lat="40.552791" lon="-1.332610">
        <ele>1021.0</ele>
        <time>2012-08-18T15:26:52Z</time>
      </trkpt>
      <trkpt lat="40.552729" lon="-1.332563">
        <ele>1020.6</ele>
        <time>2012-08-18T15:26:53Z</time>
      </trkpt>
      <trkpt lat="40.552672" lon="-1.332514">
        <ele>1020.2</ele>
        <time>2012-08-18T15:26:54Z</time>
      </trkpt>
      <trkpt lat="40.552615" lon="-1.332465">
        <ele>1019.8</ele>
        <time>2012-08-18T15:26:55Z</time>
      </trkpt>
      <trkpt lat="40.552560" lon="-1.332417">
        <ele>1019.4</ele>
        <time>2012-08-18T15:26:56Z</time>
      </trkpt>
      <trkpt lat="40.552500" lon="-1.332367">
        <ele>1019.4</ele>
        <time>2012-08-18T15:26:57Z</time>
      </trkpt>
      <trkpt lat="40.552092" lon="-1.332047">
        <ele>1019.4</ele>
        <time>2012-08-18T15:27:04Z</time>
      </trkpt>
      <trkpt lat="40.551711" lon="-1.331737">
        <ele>1019.4</ele>
        <time>2012-08-18T15:27:11Z</time>
      </trkpt>
      <trkpt lat="40.551342" lon="-1.331451">
        <ele>1019.4</ele>
        <time>2012-08-18T15:27:18Z</time>
      </trkpt>
      <trkpt lat="40.550991" lon="-1.331194">
        <ele>1019.4</ele>
        <time>2012-08-18T15:27:25Z</time>
      </trkpt>
      <trkpt lat="40.550656" lon="-1.330943">
        <ele>1019.4</ele>
        <time>2012-08-18T15:27:32Z</time>
      </trkpt>
      <trkpt lat="40.550274" lon="-1.330677">
        <ele>1019.4</ele>
        <time>2012-08-18T15:27:40Z</time>
      </trkpt>
      <trkpt lat="40.549846" lon="-1.330371">
        <ele>1019.4</ele>
        <time>2012-08-18T15:27:49Z</time>
      </trkpt>
      <trkpt lat="40.549416" lon="-1.330099">
        <ele>1019.4</ele>
        <time>2012-08-18T15:27:58Z</time>
      </trkpt>
      <trkpt lat="40.549367" lon="-1.330067">
        <ele>1019.4</ele>
        <time>2012-08-18T15:27:59Z</time>
      </trkpt>
      <trkpt lat="40.549040" lon="-1.329865">
        <ele>1019.4</ele>
        <time>2012-08-18T15:28:06Z</time>
      </trkpt>
      <trkpt lat="40.548734" lon="-1.329653">
        <ele>1019.4</ele>
        <time>2012-08-18T15:28:13Z</time>
      </trkpt>
      <trkpt lat="40.548374" lon="-1.329434">
        <ele>1019.4</ele>
        <time>2012-08-18T15:28:21Z</time>
      </trkpt>
      <trkpt lat="40.548225" lon="-1.329345">
        <ele>1019.4</ele>
        <time>2012-08-18T15:28:25Z</time>
      </trkpt>
      <trkpt lat="40.548166" lon="-1.329306">
        <ele>1019.4</ele>
        <time>2012-08-18T15:28:27Z</time>
      </trkpt>
      <trkpt lat="40.548061" lon="-1.329237">
        <ele>1019.4</ele>
        <time>2012-08-18T15:28:32Z</time>
      </trkpt>
      <trkpt lat="40.548063" lon="-1.329238">
        <ele>1019.4</ele>
        <time>2012-08-18T15:28:33Z</time>
      </trkpt>
      <trkpt lat="40.548063" lon="-1.329239">
        <ele>1019.4</ele>
        <time>2012-08-18T15:28:35Z</time>
      </trkpt>
    </trkseg>
  </trk>
  <trk>
    <name>T3303249-6</name>
    <cmt>La ruta empieza en Ojos Negros. Hasta Santa Eulalia va por una carretera comarcal apenas transitada. Hay un tramo de unos 40 km durante el puerto del Escandón que no aparece reflejado en el track porque me quedé sin batería en el GPS pero la vía verde no tiene pérdida en esa zona</cmt>
    <desc>La ruta empieza en Ojos Negros. Hasta Santa Eulalia va por una carretera comarcal apenas transitada. Hay un tramo de unos 40 km durante el puerto del Escandón que no aparece reflejado en el track porque me quedé sin batería en el GPS pero la vía verde no tiene pérdida en esa zona</desc>
    <trkseg>
      <trkpt lat="40.548019" lon="-1.329209">
        <ele>1019.4</ele>
        <time>2012-08-18T15:30:08Z</time>
      </trkpt>
      <trkpt lat="40.547873" lon="-1.329125">
        <ele>1019.4</ele>
        <time>2012-08-18T15:30:13Z</time>
      </trkpt>
      <trkpt lat="40.547729" lon="-1.329029">
        <ele>1018.8</ele>
        <time>2012-08-18T15:30:17Z</time>
      </trkpt>
      <trkpt lat="40.547693" lon="-1.329004">
        <ele>1018.0</ele>
        <time>2012-08-18T15:30:18Z</time>
      </trkpt>
      <trkpt lat="40.547653" lon="-1.328980">
        <ele>1017.6</ele>
        <time>2012-08-18T15:30:19Z</time>
      </trkpt>
      <trkpt lat="40.547611" lon="-1.328954">
        <ele>1017.2</ele>
        <time>2012-08-18T15:30:20Z</time>
      </trkpt>
      <trkpt lat="40.547570" lon="-1.328928">
        <ele>1017.2</ele>
        <time>2012-08-18T15:30:21Z</time>
      </trkpt>
      <trkpt lat="40.547255" lon="-1.328732">
        <ele>1017.2</ele>
        <time>2012-08-18T15:30:28Z</time>
      </trkpt>
      <trkpt lat="40.546831" lon="-1.328471">
        <ele>1017.2</ele>
        <time>2012-08-18T15:30:37Z</time>
      </trkpt>
      <trkpt lat="40.546388" lon="-1.328213">
        <ele>1017.2</ele>
        <time>2012-08-18T15:30:46Z</time>
      </trkpt>
      <trkpt lat="40.546022" lon="-1.327978">
        <ele>1017.2</ele>
        <time>2012-08-18T15:30:54Z</time>
      </trkpt>
      <trkpt lat="40.545657" lon="-1.327743">
        <ele>1017.2</ele>
        <time>2012-08-18T15:31:02Z</time>
      </trkpt>
      <trkpt lat="40.545194" lon="-1.327453">
        <ele>1017.2</ele>
        <time>2012-08-18T15:31:12Z</time>
      </trkpt>
      <trkpt lat="40.544768" lon="-1.327185">
        <ele>1017.2</ele>
        <time>2012-08-18T15:31:21Z</time>
      </trkpt>
      <trkpt lat="40.544353" lon="-1.326925">
        <ele>1017.2</ele>
        <time>2012-08-18T15:31:30Z</time>
      </trkpt>
      <trkpt lat="40.544018" lon="-1.326708">
        <ele>1017.8</ele>
        <time>2012-08-18T15:31:37Z</time>
      </trkpt>
      <trkpt lat="40.543970" lon="-1.326680">
        <ele>1018.2</ele>
        <time>2012-08-18T15:31:38Z</time>
      </trkpt>
      <trkpt lat="40.543925" lon="-1.326651">
        <ele>1018.6</ele>
        <time>2012-08-18T15:31:39Z</time>
      </trkpt>
      <trkpt lat="40.543877" lon="-1.326620">
        <ele>1019.0</ele>
        <time>2012-08-18T15:31:40Z</time>
      </trkpt>
      <trkpt lat="40.543830" lon="-1.326591">
        <ele>1019.4</ele>
        <time>2012-08-18T15:31:41Z</time>
      </trkpt>
      <trkpt lat="40.543690" lon="-1.326499">
        <ele>1019.4</ele>
        <time>2012-08-18T15:31:44Z</time>
      </trkpt>
      <trkpt lat="40.543594" lon="-1.326445">
        <ele>1019.4</ele>
        <time>2012-08-18T15:31:46Z</time>
      </trkpt>
      <trkpt lat="40.543224" lon="-1.326221">
        <ele>1019.4</ele>
        <time>2012-08-18T15:31:54Z</time>
      </trkpt>
      <trkpt lat="40.542876" lon="-1.326013">
        <ele>1019.4</ele>
        <time>2012-08-18T15:32:02Z</time>
      </trkpt>
      <trkpt lat="40.542572" lon="-1.325825">
        <ele>1019.4</ele>
        <time>2012-08-18T15:32:09Z</time>
      </trkpt>
      <trkpt lat="40.542482" lon="-1.325775">
        <ele>1019.4</ele>
        <time>2012-08-18T15:32:11Z</time>
      </trkpt>
      <trkpt lat="40.542317" lon="-1.325664">
        <ele>1019.4</ele>
        <time>2012-08-18T15:32:15Z</time>
      </trkpt>
      <trkpt lat="40.541881" lon="-1.325390">
        <ele>1019.4</ele>
        <time>2012-08-18T15:32:25Z</time>
      </trkpt>
      <trkpt lat="40.541482" lon="-1.325144">
        <ele>1019.4</ele>
        <time>2012-08-18T15:32:34Z</time>
      </trkpt>
      <trkpt lat="40.541124" lon="-1.324923">
        <ele>1019.4</ele>
        <time>2012-08-18T15:32:42Z</time>
      </trkpt>
      <trkpt lat="40.540769" lon="-1.324695">
        <ele>1019.4</ele>
        <time>2012-08-18T15:32:50Z</time>
      </trkpt>
      <trkpt lat="40.540376" lon="-1.324456">
        <ele>1019.4</ele>
        <time>2012-08-18T15:32:59Z</time>
      </trkpt>
      <trkpt lat="40.540072" lon="-1.324267">
        <ele>1019.4</ele>
        <time>2012-08-18T15:33:06Z</time>
      </trkpt>
      <trkpt lat="40.539621" lon="-1.323980">
        <ele>1019.4</ele>
        <time>2012-08-18T15:33:16Z</time>
      </trkpt>
      <trkpt lat="40.539355" lon="-1.323808">
        <ele>1019.4</ele>
        <time>2012-08-18T15:33:22Z</time>
      </trkpt>
      <trkpt lat="40.539270" lon="-1.323751">
        <ele>1019.8</ele>
        <time>2012-08-18T15:33:24Z</time>
      </trkpt>
      <trkpt lat="40.539224" lon="-1.323725">
        <ele>1020.2</ele>
        <time>2012-08-18T15:33:25Z</time>
      </trkpt>
      <trkpt lat="40.539181" lon="-1.323698">
        <ele>1020.6</ele>
        <time>2012-08-18T15:33:26Z</time>
      </trkpt>
      <trkpt lat="40.539136" lon="-1.323670">
        <ele>1021.0</ele>
        <time>2012-08-18T15:33:27Z</time>
      </trkpt>
      <trkpt lat="40.539092" lon="-1.323643">
        <ele>1021.4</ele>
        <time>2012-08-18T15:33:28Z</time>
      </trkpt>
      <trkpt lat="40.539045" lon="-1.323615">
        <ele>1021.4</ele>
        <time>2012-08-18T15:33:29Z</time>
      </trkpt>
      <trkpt lat="40.538687" lon="-1.323388">
        <ele>1021.4</ele>
        <time>2012-08-18T15:33:37Z</time>
      </trkpt>
      <trkpt lat="40.538297" lon="-1.323126">
        <ele>1021.4</ele>
        <time>2012-08-18T15:33:46Z</time>
      </trkpt>
      <trkpt lat="40.537998" lon="-1.322941">
        <ele>1021.4</ele>
        <time>2012-08-18T15:33:53Z</time>
      </trkpt>
      <trkpt lat="40.537634" lon="-1.322723">
        <ele>1021.4</ele>
        <time>2012-08-18T15:34:01Z</time>
      </trkpt>
      <trkpt lat="40.537157" lon="-1.322443">
        <ele>1021.4</ele>
        <time>2012-08-18T15:34:11Z</time>
      </trkpt>
      <trkpt lat="40.536690" lon="-1.322213">
        <ele>1021.4</ele>
        <time>2012-08-18T15:34:20Z</time>
      </trkpt>
      <trkpt lat="40.536313" lon="-1.322053">
        <ele>1021.4</ele>
        <time>2012-08-18T15:34:27Z</time>
      </trkpt>
      <trkpt lat="40.535827" lon="-1.321866">
        <ele>1021.4</ele>
        <time>2012-08-18T15:34:36Z</time>
      </trkpt>
      <trkpt lat="40.535398" lon="-1.321739">
        <ele>1021.4</ele>
        <time>2012-08-18T15:34:44Z</time>
      </trkpt>
      <trkpt lat="40.534908" lon="-1.321584">
        <ele>1021.4</ele>
        <time>2012-08-18T15:34:53Z</time>
      </trkpt>
      <trkpt lat="40.534452" lon="-1.321455">
        <ele>1021.0</ele>
        <time>2012-08-18T15:35:01Z</time>
      </trkpt>
      <trkpt lat="40.534395" lon="-1.321439">
        <ele>1020.6</ele>
        <time>2012-08-18T15:35:02Z</time>
      </trkpt>
      <trkpt lat="40.534336" lon="-1.321423">
        <ele>1020.2</ele>
        <time>2012-08-18T15:35:03Z</time>
      </trkpt>
      <trkpt lat="40.534278" lon="-1.321405">
        <ele>1019.8</ele>
        <time>2012-08-18T15:35:04Z</time>
      </trkpt>
      <trkpt lat="40.534219" lon="-1.321385">
        <ele>1019.4</ele>
        <time>2012-08-18T15:35:05Z</time>
      </trkpt>
      <trkpt lat="40.533930" lon="-1.321299">
        <ele>1019.4</ele>
        <time>2012-08-18T15:35:10Z</time>
      </trkpt>
      <trkpt lat="40.533411" lon="-1.321146">
        <ele>1019.4</ele>
        <time>2012-08-18T15:35:19Z</time>
      </trkpt>
      <trkpt lat="40.532894" lon="-1.320983">
        <ele>1019.4</ele>
        <time>2012-08-18T15:35:28Z</time>
      </trkpt>
      <trkpt lat="40.532838" lon="-1.320968">
        <ele>1019.4</ele>
        <time>2012-08-18T15:35:29Z</time>
      </trkpt>
      <trkpt lat="40.532330" lon="-1.320817">
        <ele>1019.4</ele>
        <time>2012-08-18T15:35:38Z</time>
      </trkpt>
      <trkpt lat="40.531935" lon="-1.320700">
        <ele>1019.4</ele>
        <time>2012-08-18T15:35:45Z</time>
      </trkpt>
      <trkpt lat="40.531762" lon="-1.320647">
        <ele>1019.0</ele>
        <time>2012-08-18T15:35:48Z</time>
      </trkpt>
      <trkpt lat="40.531702" lon="-1.320629">
        <ele>1018.6</ele>
        <time>2012-08-18T15:35:49Z</time>
      </trkpt>
      <trkpt lat="40.531643" lon="-1.320611">
        <ele>1018.0</ele>
        <time>2012-08-18T15:35:50Z</time>
      </trkpt>
      <trkpt lat="40.531584" lon="-1.320593">
        <ele>1017.6</ele>
        <time>2012-08-18T15:35:51Z</time>
      </trkpt>
      <trkpt lat="40.531524" lon="-1.320575">
        <ele>1017.2</ele>
        <time>2012-08-18T15:35:52Z</time>
      </trkpt>
      <trkpt lat="40.531342" lon="-1.320521">
        <ele>1017.2</ele>
        <time>2012-08-18T15:35:55Z</time>
      </trkpt>
      <trkpt lat="40.530794" lon="-1.320351">
        <ele>1017.2</ele>
        <time>2012-08-18T15:36:04Z</time>
      </trkpt>
      <trkpt lat="40.530366" lon="-1.320227">
        <ele>1017.2</ele>
        <time>2012-08-18T15:36:11Z</time>
      </trkpt>
      <trkpt lat="40.529891" lon="-1.320087">
        <ele>1017.2</ele>
        <time>2012-08-18T15:36:19Z</time>
      </trkpt>
      <trkpt lat="40.529390" lon="-1.319936">
        <ele>1017.2</ele>
        <time>2012-08-18T15:36:28Z</time>
      </trkpt>
      <trkpt lat="40.529042" lon="-1.319829">
        <ele>1016.8</ele>
        <time>2012-08-18T15:36:34Z</time>
      </trkpt>
      <trkpt lat="40.528984" lon="-1.319813">
        <ele>1016.4</ele>
        <time>2012-08-18T15:36:35Z</time>
      </trkpt>
      <trkpt lat="40.528925" lon="-1.319791">
        <ele>1016.0</ele>
        <time>2012-08-18T15:36:36Z</time>
      </trkpt>
      <trkpt lat="40.528864" lon="-1.319771">
        <ele>1015.4</ele>
        <time>2012-08-18T15:36:37Z</time>
      </trkpt>
      <trkpt lat="40.528803" lon="-1.319754">
        <ele>1015.0</ele>
        <time>2012-08-18T15:36:38Z</time>
      </trkpt>
      <trkpt lat="40.528382" lon="-1.319640">
        <ele>1015.0</ele>
        <time>2012-08-18T15:36:45Z</time>
      </trkpt>
      <trkpt lat="40.527847" lon="-1.319476">
        <ele>1015.0</ele>
        <time>2012-08-18T15:36:54Z</time>
      </trkpt>
      <trkpt lat="40.527296" lon="-1.319316">
        <ele>1015.0</ele>
        <time>2012-08-18T15:37:03Z</time>
      </trkpt>
      <trkpt lat="40.526740" lon="-1.319153">
        <ele>1015.0</ele>
        <time>2012-08-18T15:37:12Z</time>
      </trkpt>
      <trkpt lat="40.526253" lon="-1.319008">
        <ele>1015.0</ele>
        <time>2012-08-18T15:37:20Z</time>
      </trkpt>
      <trkpt lat="40.525944" lon="-1.318922">
        <ele>1014.6</ele>
        <time>2012-08-18T15:37:25Z</time>
      </trkpt>
      <trkpt lat="40.525885" lon="-1.318900">
        <ele>1014.2</ele>
        <time>2012-08-18T15:37:26Z</time>
      </trkpt>
      <trkpt lat="40.525827" lon="-1.318881">
        <ele>1013.8</ele>
        <time>2012-08-18T15:37:27Z</time>
      </trkpt>
      <trkpt lat="40.525767" lon="-1.318863">
        <ele>1013.4</ele>
        <time>2012-08-18T15:37:28Z</time>
      </trkpt>
      <trkpt lat="40.525703" lon="-1.318846">
        <ele>1012.8</ele>
        <time>2012-08-18T15:37:29Z</time>
      </trkpt>
      <trkpt lat="40.525148" lon="-1.318669">
        <ele>1012.8</ele>
        <time>2012-08-18T15:37:38Z</time>
      </trkpt>
      <trkpt lat="40.524597" lon="-1.318508">
        <ele>1012.8</ele>
        <time>2012-08-18T15:37:47Z</time>
      </trkpt>
      <trkpt lat="40.524475" lon="-1.318474">
        <ele>1012.8</ele>
        <time>2012-08-18T15:37:49Z</time>
      </trkpt>
      <trkpt lat="40.523937" lon="-1.318308">
        <ele>1012.8</ele>
        <time>2012-08-18T15:37:58Z</time>
      </trkpt>
      <trkpt lat="40.523877" lon="-1.318292">
        <ele>1012.8</ele>
        <time>2012-08-18T15:37:59Z</time>
      </trkpt>
      <trkpt lat="40.523325" lon="-1.318127">
        <ele>1012.8</ele>
        <time>2012-08-18T15:38:08Z</time>
      </trkpt>
      <trkpt lat="40.523023" lon="-1.318037">
        <ele>1012.4</ele>
        <time>2012-08-18T15:38:13Z</time>
      </trkpt>
      <trkpt lat="40.522961" lon="-1.318016">
        <ele>1012.0</ele>
        <time>2012-08-18T15:38:14Z</time>
      </trkpt>
      <trkpt lat="40.522896" lon="-1.317994">
        <ele>1011.6</ele>
        <time>2012-08-18T15:38:15Z</time>
      </trkpt>
      <trkpt lat="40.522832" lon="-1.317977">
        <ele>1011.2</ele>
        <time>2012-08-18T15:38:16Z</time>
      </trkpt>
      <trkpt lat="40.522772" lon="-1.317957">
        <ele>1010.8</ele>
        <time>2012-08-18T15:38:17Z</time>
      </trkpt>
      <trkpt lat="40.522264" lon="-1.317807">
        <ele>1010.8</ele>
        <time>2012-08-18T15:38:25Z</time>
      </trkpt>
      <trkpt lat="40.522203" lon="-1.317788">
        <ele>1010.8</ele>
        <time>2012-08-18T15:38:26Z</time>
      </trkpt>
      <trkpt lat="40.521689" lon="-1.317630">
        <ele>1010.8</ele>
        <time>2012-08-18T15:38:35Z</time>
      </trkpt>
      <trkpt lat="40.521634" lon="-1.317612">
        <ele>1010.8</ele>
        <time>2012-08-18T15:38:36Z</time>
      </trkpt>
      <trkpt lat="40.521159" lon="-1.317479">
        <ele>1010.8</ele>
        <time>2012-08-18T15:38:44Z</time>
      </trkpt>
      <trkpt lat="40.521040" lon="-1.317449">
        <ele>1010.4</ele>
        <time>2012-08-18T15:38:46Z</time>
      </trkpt>
      <trkpt lat="40.520982" lon="-1.317428">
        <ele>1010.0</ele>
        <time>2012-08-18T15:38:47Z</time>
      </trkpt>
      <trkpt lat="40.520924" lon="-1.317407">
        <ele>1009.6</ele>
        <time>2012-08-18T15:38:48Z</time>
      </trkpt>
      <trkpt lat="40.520864" lon="-1.317388">
        <ele>1009.2</ele>
        <time>2012-08-18T15:38:49Z</time>
      </trkpt>
      <trkpt lat="40.520804" lon="-1.317369">
        <ele>1008.8</ele>
        <time>2012-08-18T15:38:50Z</time>
      </trkpt>
      <trkpt lat="40.520629" lon="-1.317317">
        <ele>1008.8</ele>
        <time>2012-08-18T15:38:53Z</time>
      </trkpt>
      <trkpt lat="40.520107" lon="-1.317154">
        <ele>1008.8</ele>
        <time>2012-08-18T15:39:02Z</time>
      </trkpt>
      <trkpt lat="40.519590" lon="-1.317002">
        <ele>1008.8</ele>
        <time>2012-08-18T15:39:11Z</time>
      </trkpt>
      <trkpt lat="40.519070" lon="-1.316845">
        <ele>1008.8</ele>
        <time>2012-08-18T15:39:20Z</time>
      </trkpt>
      <trkpt lat="40.519013" lon="-1.316829">
        <ele>1008.8</ele>
        <time>2012-08-18T15:39:21Z</time>
      </trkpt>
      <trkpt lat="40.518475" lon="-1.316678">
        <ele>1008.8</ele>
        <time>2012-08-18T15:39:30Z</time>
      </trkpt>
      <trkpt lat="40.518003" lon="-1.316527">
        <ele>1008.8</ele>
        <time>2012-08-18T15:39:38Z</time>
      </trkpt>
      <trkpt lat="40.517781" lon="-1.316457">
        <ele>1008.4</ele>
        <time>2012-08-18T15:39:42Z</time>
      </trkpt>
      <trkpt lat="40.517725" lon="-1.316441">
        <ele>1008.0</ele>
        <time>2012-08-18T15:39:43Z</time>
      </trkpt>
      <trkpt lat="40.517668" lon="-1.316426">
        <ele>1007.6</ele>
        <time>2012-08-18T15:39:44Z</time>
      </trkpt>
      <trkpt lat="40.517611" lon="-1.316407">
        <ele>1007.2</ele>
        <time>2012-08-18T15:39:45Z</time>
      </trkpt>
      <trkpt lat="40.517552" lon="-1.316392">
        <ele>1006.8</ele>
        <time>2012-08-18T15:39:46Z</time>
      </trkpt>
      <trkpt lat="40.517068" lon="-1.316250">
        <ele>1006.8</ele>
        <time>2012-08-18T15:39:54Z</time>
      </trkpt>
      <trkpt lat="40.516519" lon="-1.316087">
        <ele>1006.8</ele>
        <time>2012-08-18T15:40:03Z</time>
      </trkpt>
      <trkpt lat="40.516454" lon="-1.316069">
        <ele>1006.8</ele>
        <time>2012-08-18T15:40:04Z</time>
      </trkpt>
      <trkpt lat="40.515959" lon="-1.315919">
        <ele>1006.8</ele>
        <time>2012-08-18T15:40:12Z</time>
      </trkpt>
      <trkpt lat="40.515454" lon="-1.315771">
        <ele>1006.8</ele>
        <time>2012-08-18T15:40:20Z</time>
      </trkpt>
      <trkpt lat="40.514989" lon="-1.315643">
        <ele>1006.8</ele>
        <time>2012-08-18T15:40:27Z</time>
      </trkpt>
      <trkpt lat="40.514542" lon="-1.315502">
        <ele>1006.8</ele>
        <time>2012-08-18T15:40:34Z</time>
      </trkpt>
      <trkpt lat="40.514098" lon="-1.315368">
        <ele>1006.8</ele>
        <time>2012-08-18T15:40:41Z</time>
      </trkpt>
      <trkpt lat="40.513600" lon="-1.315215">
        <ele>1006.8</ele>
        <time>2012-08-18T15:40:49Z</time>
      </trkpt>
      <trkpt lat="40.513076" lon="-1.315058">
        <ele>1006.8</ele>
        <time>2012-08-18T15:40:57Z</time>
      </trkpt>
      <trkpt lat="40.512554" lon="-1.314910">
        <ele>1006.8</ele>
        <time>2012-08-18T15:41:05Z</time>
      </trkpt>
      <trkpt lat="40.512490" lon="-1.314887">
        <ele>1006.8</ele>
        <time>2012-08-18T15:41:06Z</time>
      </trkpt>
      <trkpt lat="40.512249" lon="-1.314806">
        <ele>1006.8</ele>
        <time>2012-08-18T15:41:10Z</time>
      </trkpt>
      <trkpt lat="40.511684" lon="-1.314631">
        <ele>1006.8</ele>
        <time>2012-08-18T15:41:19Z</time>
      </trkpt>
      <trkpt lat="40.511168" lon="-1.314479">
        <ele>1006.8</ele>
        <time>2012-08-18T15:41:27Z</time>
      </trkpt>
      <trkpt lat="40.510978" lon="-1.314416">
        <ele>1006.4</ele>
        <time>2012-08-18T15:41:30Z</time>
      </trkpt>
      <trkpt lat="40.510913" lon="-1.314399">
        <ele>1006.0</ele>
        <time>2012-08-18T15:41:31Z</time>
      </trkpt>
      <trkpt lat="40.510850" lon="-1.314381">
        <ele>1005.6</ele>
        <time>2012-08-18T15:41:32Z</time>
      </trkpt>
      <trkpt lat="40.510789" lon="-1.314362">
        <ele>1005.2</ele>
        <time>2012-08-18T15:41:33Z</time>
      </trkpt>
      <trkpt lat="40.510725" lon="-1.314340">
        <ele>1004.8</ele>
        <time>2012-08-18T15:41:34Z</time>
      </trkpt>
      <trkpt lat="40.510270" lon="-1.314207">
        <ele>1004.8</ele>
        <time>2012-08-18T15:41:41Z</time>
      </trkpt>
      <trkpt lat="40.509744" lon="-1.314057">
        <ele>1004.8</ele>
        <time>2012-08-18T15:41:49Z</time>
      </trkpt>
      <trkpt lat="40.509238" lon="-1.313904">
        <ele>1004.8</ele>
        <time>2012-08-18T15:41:57Z</time>
      </trkpt>
      <trkpt lat="40.508719" lon="-1.313747">
        <ele>1004.8</ele>
        <time>2012-08-18T15:42:05Z</time>
      </trkpt>
      <trkpt lat="40.508651" lon="-1.313726">
        <ele>1004.8</ele>
        <time>2012-08-18T15:42:06Z</time>
      </trkpt>
      <trkpt lat="40.508130" lon="-1.313565">
        <ele>1004.8</ele>
        <time>2012-08-18T15:42:14Z</time>
      </trkpt>
      <trkpt lat="40.507602" lon="-1.313410">
        <ele>1004.8</ele>
        <time>2012-08-18T15:42:22Z</time>
      </trkpt>
      <trkpt lat="40.507535" lon="-1.313393">
        <ele>1004.8</ele>
        <time>2012-08-18T15:42:23Z</time>
      </trkpt>
      <trkpt lat="40.507000" lon="-1.313235">
        <ele>1004.8</ele>
        <time>2012-08-18T15:42:31Z</time>
      </trkpt>
      <trkpt lat="40.506868" lon="-1.313200">
        <ele>1004.8</ele>
        <time>2012-08-18T15:42:33Z</time>
      </trkpt>
      <trkpt lat="40.506439" lon="-1.313065">
        <ele>1004.8</ele>
        <time>2012-08-18T15:42:40Z</time>
      </trkpt>
      <trkpt lat="40.506129" lon="-1.312979">
        <ele>1004.8</ele>
        <time>2012-08-18T15:42:45Z</time>
      </trkpt>
      <trkpt lat="40.505674" lon="-1.312848">
        <ele>1004.8</ele>
        <time>2012-08-18T15:42:52Z</time>
      </trkpt>
      <trkpt lat="40.505149" lon="-1.312692">
        <ele>1004.8</ele>
        <time>2012-08-18T15:43:00Z</time>
      </trkpt>
      <trkpt lat="40.504604" lon="-1.312518">
        <ele>1004.8</ele>
        <time>2012-08-18T15:43:08Z</time>
      </trkpt>
      <trkpt lat="40.504050" lon="-1.312356">
        <ele>1004.8</ele>
        <time>2012-08-18T15:43:16Z</time>
      </trkpt>
      <trkpt lat="40.503573" lon="-1.312220">
        <ele>1004.8</ele>
        <time>2012-08-18T15:43:23Z</time>
      </trkpt>
      <trkpt lat="40.503020" lon="-1.312047">
        <ele>1004.8</ele>
        <time>2012-08-18T15:43:31Z</time>
      </trkpt>
      <trkpt lat="40.502948" lon="-1.312024">
        <ele>1004.8</ele>
        <time>2012-08-18T15:43:32Z</time>
      </trkpt>
      <trkpt lat="40.502444" lon="-1.311873">
        <ele>1004.8</ele>
        <time>2012-08-18T15:43:39Z</time>
      </trkpt>
      <trkpt lat="40.501877" lon="-1.311693">
        <ele>1004.8</ele>
        <time>2012-08-18T15:43:47Z</time>
      </trkpt>
      <trkpt lat="40.501310" lon="-1.311528">
        <ele>1004.8</ele>
        <time>2012-08-18T15:43:55Z</time>
      </trkpt>
      <trkpt lat="40.501245" lon="-1.311508">
        <ele>1004.8</ele>
        <time>2012-08-18T15:43:56Z</time>
      </trkpt>
      <trkpt lat="40.500720" lon="-1.311352">
        <ele>1004.8</ele>
        <time>2012-08-18T15:44:04Z</time>
      </trkpt>
      <trkpt lat="40.500657" lon="-1.311335">
        <ele>1004.8</ele>
        <time>2012-08-18T15:44:05Z</time>
      </trkpt>
      <trkpt lat="40.500095" lon="-1.311165">
        <ele>1004.8</ele>
        <time>2012-08-18T15:44:14Z</time>
      </trkpt>
      <trkpt lat="40.499603" lon="-1.311026">
        <ele>1004.8</ele>
        <time>2012-08-18T15:44:22Z</time>
      </trkpt>
      <trkpt lat="40.499357" lon="-1.310952">
        <ele>1004.4</ele>
        <time>2012-08-18T15:44:26Z</time>
      </trkpt>
      <trkpt lat="40.499296" lon="-1.310937">
        <ele>1004.0</ele>
        <time>2012-08-18T15:44:27Z</time>
      </trkpt>
      <trkpt lat="40.499236" lon="-1.310920">
        <ele>1003.6</ele>
        <time>2012-08-18T15:44:28Z</time>
      </trkpt>
      <trkpt lat="40.499175" lon="-1.310899">
        <ele>1003.2</ele>
        <time>2012-08-18T15:44:29Z</time>
      </trkpt>
      <trkpt lat="40.499113" lon="-1.310881">
        <ele>1002.8</ele>
        <time>2012-08-18T15:44:30Z</time>
      </trkpt>
      <trkpt lat="40.499049" lon="-1.310866">
        <ele>1002.8</ele>
        <time>2012-08-18T15:44:31Z</time>
      </trkpt>
      <trkpt lat="40.498494" lon="-1.310696">
        <ele>1002.8</ele>
        <time>2012-08-18T15:44:40Z</time>
      </trkpt>
      <trkpt lat="40.498012" lon="-1.310553">
        <ele>1002.8</ele>
        <time>2012-08-18T15:44:48Z</time>
      </trkpt>
      <trkpt lat="40.497454" lon="-1.310384">
        <ele>1002.8</ele>
        <time>2012-08-18T15:44:57Z</time>
      </trkpt>
      <trkpt lat="40.496980" lon="-1.310235">
        <ele>1002.8</ele>
        <time>2012-08-18T15:45:05Z</time>
      </trkpt>
      <trkpt lat="40.496710" lon="-1.310154">
        <ele>1002.8</ele>
        <time>2012-08-18T15:45:11Z</time>
      </trkpt>
      <trkpt lat="40.496390" lon="-1.310070">
        <ele>1002.8</ele>
        <time>2012-08-18T15:45:18Z</time>
      </trkpt>
      <trkpt lat="40.496099" lon="-1.309985">
        <ele>1002.8</ele>
        <time>2012-08-18T15:45:26Z</time>
      </trkpt>
      <trkpt lat="40.496093" lon="-1.309985">
        <ele>1002.8</ele>
        <time>2012-08-18T15:45:27Z</time>
      </trkpt>
      <trkpt lat="40.496095" lon="-1.309985">
        <ele>1002.8</ele>
        <time>2012-08-18T15:45:29Z</time>
      </trkpt>
      <trkpt lat="40.496093" lon="-1.309985">
        <ele>1002.8</ele>
        <time>2012-08-18T15:45:30Z</time>
      </trkpt>
      <trkpt lat="40.496025" lon="-1.309964">
        <ele>1002.8</ele>
        <time>2012-08-18T15:46:39Z</time>
      </trkpt>
      <trkpt lat="40.495978" lon="-1.309945">
        <ele>1002.8</ele>
        <time>2012-08-18T15:46:41Z</time>
      </trkpt>
      <trkpt lat="40.495781" lon="-1.309886">
        <ele>1002.8</ele>
        <time>2012-08-18T15:46:47Z</time>
      </trkpt>
      <trkpt lat="40.495460" lon="-1.309789">
        <ele>1002.8</ele>
        <time>2012-08-18T15:46:55Z</time>
      </trkpt>
      <trkpt lat="40.495090" lon="-1.309655">
        <ele>1002.8</ele>
        <time>2012-08-18T15:47:03Z</time>
      </trkpt>
      <trkpt lat="40.494678" lon="-1.309441">
        <ele>1002.8</ele>
        <time>2012-08-18T15:47:11Z</time>
      </trkpt>
      <trkpt lat="40.494165" lon="-1.309089">
        <ele>1002.8</ele>
        <time>2012-08-18T15:47:21Z</time>
      </trkpt>
      <trkpt lat="40.493833" lon="-1.308803">
        <ele>1002.8</ele>
        <time>2012-08-18T15:47:28Z</time>
      </trkpt>
      <trkpt lat="40.493548" lon="-1.308549">
        <ele>1002.4</ele>
        <time>2012-08-18T15:47:34Z</time>
      </trkpt>
      <trkpt lat="40.493508" lon="-1.308509">
        <ele>1001.6</ele>
        <time>2012-08-18T15:47:35Z</time>
      </trkpt>
      <trkpt lat="40.493476" lon="-1.308478">
        <ele>1001.2</ele>
        <time>2012-08-18T15:47:36Z</time>
      </trkpt>
      <trkpt lat="40.493448" lon="-1.308454">
        <ele>1000.8</ele>
        <time>2012-08-18T15:47:37Z</time>
      </trkpt>
      <trkpt lat="40.493425" lon="-1.308435">
        <ele>1000.8</ele>
        <time>2012-08-18T15:47:38Z</time>
      </trkpt>
      <trkpt lat="40.493407" lon="-1.308426">
        <ele>1000.8</ele>
        <time>2012-08-18T15:47:40Z</time>
      </trkpt>
      <trkpt lat="40.493346" lon="-1.308371">
        <ele>1000.8</ele>
        <time>2012-08-18T15:47:49Z</time>
      </trkpt>
      <trkpt lat="40.493192" lon="-1.308240">
        <ele>1000.8</ele>
        <time>2012-08-18T15:47:55Z</time>
      </trkpt>
      <trkpt lat="40.493128" lon="-1.308167">
        <ele>1000.8</ele>
        <time>2012-08-18T15:47:57Z</time>
      </trkpt>
      <trkpt lat="40.492993" lon="-1.308044">
        <ele>1000.8</ele>
        <time>2012-08-18T15:48:00Z</time>
      </trkpt>
      <trkpt lat="40.492946" lon="-1.308002">
        <ele>1000.0</ele>
        <time>2012-08-18T15:48:01Z</time>
      </trkpt>
      <trkpt lat="40.492905" lon="-1.307962">
        <ele>999.4</ele>
        <time>2012-08-18T15:48:02Z</time>
      </trkpt>
      <trkpt lat="40.492866" lon="-1.307925">
        <ele>999.0</ele>
        <time>2012-08-18T15:48:03Z</time>
      </trkpt>
      <trkpt lat="40.492831" lon="-1.307891">
        <ele>998.6</ele>
        <time>2012-08-18T15:48:04Z</time>
      </trkpt>
      <trkpt lat="40.492797" lon="-1.307860">
        <ele>998.6</ele>
        <time>2012-08-18T15:48:05Z</time>
      </trkpt>
      <trkpt lat="40.492764" lon="-1.307831">
        <ele>999.0</ele>
        <time>2012-08-18T15:48:06Z</time>
      </trkpt>
      <trkpt lat="40.492732" lon="-1.307802">
        <ele>999.4</ele>
        <time>2012-08-18T15:48:07Z</time>
      </trkpt>
      <trkpt lat="40.492702" lon="-1.307771">
        <ele>999.8</ele>
        <time>2012-08-18T15:48:08Z</time>
      </trkpt>
      <trkpt lat="40.492672" lon="-1.307741">
        <ele>1000.2</ele>
        <time>2012-08-18T15:48:09Z</time>
      </trkpt>
      <trkpt lat="40.492642" lon="-1.307714">
        <ele>1000.6</ele>
        <time>2012-08-18T15:48:10Z</time>
      </trkpt>
      <trkpt lat="40.492581" lon="-1.307663">
        <ele>1000.6</ele>
        <time>2012-08-18T15:48:12Z</time>
      </trkpt>
      <trkpt lat="40.492373" lon="-1.307483">
        <ele>1000.6</ele>
        <time>2012-08-18T15:48:19Z</time>
      </trkpt>
      <trkpt lat="40.492267" lon="-1.307382">
        <ele>1000.6</ele>
        <time>2012-08-18T15:48:22Z</time>
      </trkpt>
      <trkpt lat="40.492111" lon="-1.307250">
        <ele>1000.6</ele>
        <time>2012-08-18T15:48:26Z</time>
      </trkpt>
      <trkpt lat="40.491803" lon="-1.306978">
        <ele>1000.6</ele>
        <time>2012-08-18T15:48:33Z</time>
      </trkpt>
      <trkpt lat="40.491437" lon="-1.306643">
        <ele>1000.6</ele>
        <time>2012-08-18T15:48:41Z</time>
      </trkpt>
      <trkpt lat="40.491023" lon="-1.306266">
        <ele>1000.6</ele>
        <time>2012-08-18T15:48:50Z</time>
      </trkpt>
      <trkpt lat="40.490592" lon="-1.305879">
        <ele>1000.6</ele>
        <time>2012-08-18T15:48:59Z</time>
      </trkpt>
      <trkpt lat="40.490261" lon="-1.305582">
        <ele>1000.6</ele>
        <time>2012-08-18T15:49:06Z</time>
      </trkpt>
      <trkpt lat="40.489967" lon="-1.305317">
        <ele>1000.6</ele>
        <time>2012-08-18T15:49:12Z</time>
      </trkpt>
      <trkpt lat="40.489521" lon="-1.304910">
        <ele>1000.6</ele>
        <time>2012-08-18T15:49:21Z</time>
      </trkpt>
      <trkpt lat="40.489172" lon="-1.304600">
        <ele>1000.6</ele>
        <time>2012-08-18T15:49:28Z</time>
      </trkpt>
      <trkpt lat="40.488770" lon="-1.304242">
        <ele>1000.6</ele>
        <time>2012-08-18T15:49:36Z</time>
      </trkpt>
      <trkpt lat="40.488405" lon="-1.303926">
        <ele>1000.6</ele>
        <time>2012-08-18T15:49:43Z</time>
      </trkpt>
      <trkpt lat="40.487985" lon="-1.303555">
        <ele>1000.6</ele>
        <time>2012-08-18T15:49:51Z</time>
      </trkpt>
      <trkpt lat="40.487569" lon="-1.303172">
        <ele>1000.6</ele>
        <time>2012-08-18T15:49:59Z</time>
      </trkpt>
      <trkpt lat="40.487272" lon="-1.302894">
        <ele>1000.6</ele>
        <time>2012-08-18T15:50:05Z</time>
      </trkpt>
      <trkpt lat="40.486864" lon="-1.302524">
        <ele>1000.6</ele>
        <time>2012-08-18T15:50:14Z</time>
      </trkpt>
      <trkpt lat="40.486494" lon="-1.302175">
        <ele>1000.6</ele>
        <time>2012-08-18T15:50:22Z</time>
      </trkpt>
      <trkpt lat="40.486067" lon="-1.301783">
        <ele>1000.6</ele>
        <time>2012-08-18T15:50:31Z</time>
      </trkpt>
      <trkpt lat="40.485630" lon="-1.301385">
        <ele>1000.6</ele>
        <time>2012-08-18T15:50:40Z</time>
      </trkpt>
      <trkpt lat="40.485172" lon="-1.300979">
        <ele>1000.6</ele>
        <time>2012-08-18T15:50:49Z</time>
      </trkpt>
      <trkpt lat="40.485120" lon="-1.300933">
        <ele>1000.6</ele>
        <time>2012-08-18T15:50:50Z</time>
      </trkpt>
      <trkpt lat="40.484651" lon="-1.300530">
        <ele>1000.6</ele>
        <time>2012-08-18T15:50:59Z</time>
      </trkpt>
      <trkpt lat="40.484238" lon="-1.300158">
        <ele>1000.6</ele>
        <time>2012-08-18T15:51:07Z</time>
      </trkpt>
      <trkpt lat="40.483861" lon="-1.299820">
        <ele>1000.2</ele>
        <time>2012-08-18T15:51:14Z</time>
      </trkpt>
      <trkpt lat="40.483807" lon="-1.299771">
        <ele>999.8</ele>
        <time>2012-08-18T15:51:15Z</time>
      </trkpt>
      <trkpt lat="40.483753" lon="-1.299722">
        <ele>999.4</ele>
        <time>2012-08-18T15:51:16Z</time>
      </trkpt>
      <trkpt lat="40.483695" lon="-1.299672">
        <ele>999.0</ele>
        <time>2012-08-18T15:51:17Z</time>
      </trkpt>
      <trkpt lat="40.483640" lon="-1.299624">
        <ele>998.6</ele>
        <time>2012-08-18T15:51:18Z</time>
      </trkpt>
      <trkpt lat="40.483198" lon="-1.299225">
        <ele>998.6</ele>
        <time>2012-08-18T15:51:26Z</time>
      </trkpt>
      <trkpt lat="40.483142" lon="-1.299176">
        <ele>998.6</ele>
        <time>2012-08-18T15:51:27Z</time>
      </trkpt>
      <trkpt lat="40.482920" lon="-1.298979">
        <ele>998.2</ele>
        <time>2012-08-18T15:51:31Z</time>
      </trkpt>
      <trkpt lat="40.482861" lon="-1.298927">
        <ele>997.8</ele>
        <time>2012-08-18T15:51:32Z</time>
      </trkpt>
      <trkpt lat="40.482806" lon="-1.298878">
        <ele>997.4</ele>
        <time>2012-08-18T15:51:33Z</time>
      </trkpt>
      <trkpt lat="40.482751" lon="-1.298828">
        <ele>997.0</ele>
        <time>2012-08-18T15:51:34Z</time>
      </trkpt>
      <trkpt lat="40.482697" lon="-1.298777">
        <ele>996.6</ele>
        <time>2012-08-18T15:51:35Z</time>
      </trkpt>
      <trkpt lat="40.482534" lon="-1.298626">
        <ele>996.6</ele>
        <time>2012-08-18T15:51:38Z</time>
      </trkpt>
      <trkpt lat="40.482086" lon="-1.298222">
        <ele>996.6</ele>
        <time>2012-08-18T15:51:46Z</time>
      </trkpt>
      <trkpt lat="40.481971" lon="-1.298120">
        <ele>996.6</ele>
        <time>2012-08-18T15:51:48Z</time>
      </trkpt>
      <trkpt lat="40.481617" lon="-1.297813">
        <ele>996.2</ele>
        <time>2012-08-18T15:51:54Z</time>
      </trkpt>
      <trkpt lat="40.481558" lon="-1.297760">
        <ele>995.8</ele>
        <time>2012-08-18T15:51:55Z</time>
      </trkpt>
      <trkpt lat="40.481501" lon="-1.297706">
        <ele>995.4</ele>
        <time>2012-08-18T15:51:56Z</time>
      </trkpt>
      <trkpt lat="40.481442" lon="-1.297652">
        <ele>995.0</ele>
        <time>2012-08-18T15:51:57Z</time>
      </trkpt>
      <trkpt lat="40.481384" lon="-1.297596">
        <ele>994.6</ele>
        <time>2012-08-18T15:51:58Z</time>
      </trkpt>
      <trkpt lat="40.481087" lon="-1.297328">
        <ele>994.6</ele>
        <time>2012-08-18T15:52:03Z</time>
      </trkpt>
      <trkpt lat="40.480965" lon="-1.297224">
        <ele>994.6</ele>
        <time>2012-08-18T15:52:05Z</time>
      </trkpt>
      <trkpt lat="40.480488" lon="-1.296792">
        <ele>994.6</ele>
        <time>2012-08-18T15:52:13Z</time>
      </trkpt>
      <trkpt lat="40.480367" lon="-1.296684">
        <ele>994.2</ele>
        <time>2012-08-18T15:52:15Z</time>
      </trkpt>
      <trkpt lat="40.480304" lon="-1.296632">
        <ele>993.8</ele>
        <time>2012-08-18T15:52:16Z</time>
      </trkpt>
      <trkpt lat="40.480243" lon="-1.296580">
        <ele>993.2</ele>
        <time>2012-08-18T15:52:17Z</time>
      </trkpt>
      <trkpt lat="40.480180" lon="-1.296526">
        <ele>992.8</ele>
        <time>2012-08-18T15:52:18Z</time>
      </trkpt>
      <trkpt lat="40.480120" lon="-1.296474">
        <ele>992.4</ele>
        <time>2012-08-18T15:52:19Z</time>
      </trkpt>
      <trkpt lat="40.479828" lon="-1.296210">
        <ele>992.4</ele>
        <time>2012-08-18T15:52:24Z</time>
      </trkpt>
      <trkpt lat="40.479369" lon="-1.295799">
        <ele>992.4</ele>
        <time>2012-08-18T15:52:32Z</time>
      </trkpt>
      <trkpt lat="40.478912" lon="-1.295380">
        <ele>992.4</ele>
        <time>2012-08-18T15:52:40Z</time>
      </trkpt>
      <trkpt lat="40.478538" lon="-1.295032">
        <ele>992.4</ele>
        <time>2012-08-18T15:52:47Z</time>
      </trkpt>
      <trkpt lat="40.478099" lon="-1.294649">
        <ele>992.4</ele>
        <time>2012-08-18T15:52:55Z</time>
      </trkpt>
      <trkpt lat="40.477635" lon="-1.294193">
        <ele>992.4</ele>
        <time>2012-08-18T15:53:04Z</time>
      </trkpt>
      <trkpt lat="40.477320" lon="-1.293811">
        <ele>992.4</ele>
        <time>2012-08-18T15:53:11Z</time>
      </trkpt>
      <trkpt lat="40.477046" lon="-1.293397">
        <ele>992.4</ele>
        <time>2012-08-18T15:53:18Z</time>
      </trkpt>
      <trkpt lat="40.476712" lon="-1.292817">
        <ele>992.4</ele>
        <time>2012-08-18T15:53:27Z</time>
      </trkpt>
      <trkpt lat="40.476479" lon="-1.292366">
        <ele>992.4</ele>
        <time>2012-08-18T15:53:34Z</time>
      </trkpt>
      <trkpt lat="40.476250" lon="-1.291943">
        <ele>992.4</ele>
        <time>2012-08-18T15:53:41Z</time>
      </trkpt>
      <trkpt lat="40.475952" lon="-1.291366">
        <ele>992.4</ele>
        <time>2012-08-18T15:53:50Z</time>
      </trkpt>
      <trkpt lat="40.475683" lon="-1.290859">
        <ele>992.4</ele>
        <time>2012-08-18T15:53:58Z</time>
      </trkpt>
      <trkpt lat="40.475374" lon="-1.290281">
        <ele>992.4</ele>
        <time>2012-08-18T15:54:07Z</time>
      </trkpt>
      <trkpt lat="40.475306" lon="-1.290153">
        <ele>992.4</ele>
        <time>2012-08-18T15:54:09Z</time>
      </trkpt>
      <trkpt lat="40.475034" lon="-1.289646">
        <ele>992.4</ele>
        <time>2012-08-18T15:54:17Z</time>
      </trkpt>
      <trkpt lat="40.474732" lon="-1.289072">
        <ele>992.4</ele>
        <time>2012-08-18T15:54:26Z</time>
      </trkpt>
      <trkpt lat="40.474698" lon="-1.289007">
        <ele>992.4</ele>
        <time>2012-08-18T15:54:27Z</time>
      </trkpt>
      <trkpt lat="40.474382" lon="-1.288429">
        <ele>992.4</ele>
        <time>2012-08-18T15:54:36Z</time>
      </trkpt>
      <trkpt lat="40.474317" lon="-1.288306">
        <ele>992.4</ele>
        <time>2012-08-18T15:54:38Z</time>
      </trkpt>
      <trkpt lat="40.474109" lon="-1.287915">
        <ele>992.8</ele>
        <time>2012-08-18T15:54:44Z</time>
      </trkpt>
      <trkpt lat="40.474075" lon="-1.287851">
        <ele>993.2</ele>
        <time>2012-08-18T15:54:45Z</time>
      </trkpt>
      <trkpt lat="40.474041" lon="-1.287788">
        <ele>993.6</ele>
        <time>2012-08-18T15:54:46Z</time>
      </trkpt>
      <trkpt lat="40.474005" lon="-1.287725">
        <ele>994.0</ele>
        <time>2012-08-18T15:54:47Z</time>
      </trkpt>
      <trkpt lat="40.473970" lon="-1.287663">
        <ele>994.4</ele>
        <time>2012-08-18T15:54:48Z</time>
      </trkpt>
      <trkpt lat="40.473762" lon="-1.287278">
        <ele>994.4</ele>
        <time>2012-08-18T15:54:54Z</time>
      </trkpt>
      <trkpt lat="40.473508" lon="-1.286771">
        <ele>994.4</ele>
        <time>2012-08-18T15:55:02Z</time>
      </trkpt>
      <trkpt lat="40.473206" lon="-1.286209">
        <ele>994.4</ele>
        <time>2012-08-18T15:55:11Z</time>
      </trkpt>
      <trkpt lat="40.473173" lon="-1.286146">
        <ele>994.4</ele>
        <time>2012-08-18T15:55:12Z</time>
      </trkpt>
      <trkpt lat="40.472949" lon="-1.285733">
        <ele>994.4</ele>
        <time>2012-08-18T15:55:19Z</time>
      </trkpt>
      <trkpt lat="40.472616" lon="-1.285120">
        <ele>994.4</ele>
        <time>2012-08-18T15:55:29Z</time>
      </trkpt>
      <trkpt lat="40.472416" lon="-1.284748">
        <ele>994.8</ele>
        <time>2012-08-18T15:55:35Z</time>
      </trkpt>
      <trkpt lat="40.472383" lon="-1.284687">
        <ele>995.2</ele>
        <time>2012-08-18T15:55:36Z</time>
      </trkpt>
      <trkpt lat="40.472350" lon="-1.284625">
        <ele>995.6</ele>
        <time>2012-08-18T15:55:37Z</time>
      </trkpt>
      <trkpt lat="40.472319" lon="-1.284567">
        <ele>996.0</ele>
        <time>2012-08-18T15:55:38Z</time>
      </trkpt>
      <trkpt lat="40.472289" lon="-1.284511">
        <ele>996.4</ele>
        <time>2012-08-18T15:55:39Z</time>
      </trkpt>
      <trkpt lat="40.472082" lon="-1.284112">
        <ele>996.4</ele>
        <time>2012-08-18T15:55:46Z</time>
      </trkpt>
      <trkpt lat="40.471860" lon="-1.283705">
        <ele>996.4</ele>
        <time>2012-08-18T15:55:53Z</time>
      </trkpt>
      <trkpt lat="40.471615" lon="-1.283246">
        <ele>996.4</ele>
        <time>2012-08-18T15:56:01Z</time>
      </trkpt>
      <trkpt lat="40.471355" lon="-1.282745">
        <ele>996.4</ele>
        <time>2012-08-18T15:56:10Z</time>
      </trkpt>
      <trkpt lat="40.471112" lon="-1.282285">
        <ele>996.4</ele>
        <time>2012-08-18T15:56:18Z</time>
      </trkpt>
      <trkpt lat="40.470862" lon="-1.281826">
        <ele>996.4</ele>
        <time>2012-08-18T15:56:26Z</time>
      </trkpt>
      <trkpt lat="40.470608" lon="-1.281345">
        <ele>996.4</ele>
        <time>2012-08-18T15:56:34Z</time>
      </trkpt>
      <trkpt lat="40.470350" lon="-1.280868">
        <ele>996.4</ele>
        <time>2012-08-18T15:56:42Z</time>
      </trkpt>
      <trkpt lat="40.470058" lon="-1.280318">
        <ele>996.4</ele>
        <time>2012-08-18T15:56:51Z</time>
      </trkpt>
      <trkpt lat="40.469799" lon="-1.279834">
        <ele>996.4</ele>
        <time>2012-08-18T15:56:59Z</time>
      </trkpt>
      <trkpt lat="40.469546" lon="-1.279362">
        <ele>996.4</ele>
        <time>2012-08-18T15:57:07Z</time>
      </trkpt>
      <trkpt lat="40.469250" lon="-1.278805">
        <ele>996.4</ele>
        <time>2012-08-18T15:57:16Z</time>
      </trkpt>
      <trkpt lat="40.469038" lon="-1.278369">
        <ele>996.8</ele>
        <time>2012-08-18T15:57:23Z</time>
      </trkpt>
      <trkpt lat="40.469007" lon="-1.278305">
        <ele>997.2</ele>
        <time>2012-08-18T15:57:24Z</time>
      </trkpt>
      <trkpt lat="40.468976" lon="-1.278247">
        <ele>997.8</ele>
        <time>2012-08-18T15:57:25Z</time>
      </trkpt>
      <trkpt lat="40.468946" lon="-1.278192">
        <ele>998.2</ele>
        <time>2012-08-18T15:57:26Z</time>
      </trkpt>
      <trkpt lat="40.468915" lon="-1.278142">
        <ele>998.6</ele>
        <time>2012-08-18T15:57:27Z</time>
      </trkpt>
      <trkpt lat="40.468835" lon="-1.277994">
        <ele>998.6</ele>
        <time>2012-08-18T15:57:30Z</time>
      </trkpt>
      <trkpt lat="40.468703" lon="-1.277749">
        <ele>998.6</ele>
        <time>2012-08-18T15:57:36Z</time>
      </trkpt>
      <trkpt lat="40.468627" lon="-1.277600">
        <ele>998.6</ele>
        <time>2012-08-18T15:57:42Z</time>
      </trkpt>
      <trkpt lat="40.468627" lon="-1.277599">
        <ele>998.6</ele>
        <time>2012-08-18T15:57:44Z</time>
      </trkpt>
      <trkpt lat="40.468581" lon="-1.277534">
        <ele>998.6</ele>
        <time>2012-08-18T16:02:08Z</time>
      </trkpt>
      <trkpt lat="40.468566" lon="-1.277506">
        <ele>998.6</ele>
        <time>2012-08-18T16:02:09Z</time>
      </trkpt>
      <trkpt lat="40.468452" lon="-1.277307">
        <ele>998.6</ele>
        <time>2012-08-18T16:02:15Z</time>
      </trkpt>
      <trkpt lat="40.468293" lon="-1.276992">
        <ele>998.6</ele>
        <time>2012-08-18T16:02:23Z</time>
      </trkpt>
      <trkpt lat="40.468111" lon="-1.276654">
        <ele>998.6</ele>
        <time>2012-08-18T16:02:30Z</time>
      </trkpt>
      <trkpt lat="40.467950" lon="-1.276354">
        <ele>998.6</ele>
        <time>2012-08-18T16:02:36Z</time>
      </trkpt>
      <trkpt lat="40.467895" lon="-1.276253">
        <ele>998.6</ele>
        <time>2012-08-18T16:02:38Z</time>
      </trkpt>
      <trkpt lat="40.467648" lon="-1.275795">
        <ele>998.6</ele>
        <time>2012-08-18T16:02:47Z</time>
      </trkpt>
      <trkpt lat="40.467504" lon="-1.275520">
        <ele>998.2</ele>
        <time>2012-08-18T16:02:52Z</time>
      </trkpt>
      <trkpt lat="40.467476" lon="-1.275462">
        <ele>997.8</ele>
        <time>2012-08-18T16:02:53Z</time>
      </trkpt>
      <trkpt lat="40.467447" lon="-1.275408">
        <ele>997.4</ele>
        <time>2012-08-18T16:02:54Z</time>
      </trkpt>
      <trkpt lat="40.467417" lon="-1.275353">
        <ele>997.0</ele>
        <time>2012-08-18T16:02:55Z</time>
      </trkpt>
      <trkpt lat="40.467386" lon="-1.275297">
        <ele>996.6</ele>
        <time>2012-08-18T16:02:56Z</time>
      </trkpt>
      <trkpt lat="40.467198" lon="-1.274947">
        <ele>996.6</ele>
        <time>2012-08-18T16:03:03Z</time>
      </trkpt>
      <trkpt lat="40.467022" lon="-1.274613">
        <ele>996.6</ele>
        <time>2012-08-18T16:03:10Z</time>
      </trkpt>
      <trkpt lat="40.466794" lon="-1.274196">
        <ele>996.6</ele>
        <time>2012-08-18T16:03:18Z</time>
      </trkpt>
      <trkpt lat="40.466520" lon="-1.273686">
        <ele>996.6</ele>
        <time>2012-08-18T16:03:27Z</time>
      </trkpt>
      <trkpt lat="40.466231" lon="-1.273143">
        <ele>996.6</ele>
        <time>2012-08-18T16:03:36Z</time>
      </trkpt>
      <trkpt lat="40.465941" lon="-1.272598">
        <ele>996.6</ele>
        <time>2012-08-18T16:03:45Z</time>
      </trkpt>
      <trkpt lat="40.465678" lon="-1.272114">
        <ele>996.6</ele>
        <time>2012-08-18T16:03:53Z</time>
      </trkpt>
      <trkpt lat="40.465392" lon="-1.271569">
        <ele>996.6</ele>
        <time>2012-08-18T16:04:02Z</time>
      </trkpt>
      <trkpt lat="40.465164" lon="-1.271139">
        <ele>996.6</ele>
        <time>2012-08-18T16:04:09Z</time>
      </trkpt>
      <trkpt lat="40.464869" lon="-1.270580">
        <ele>996.6</ele>
        <time>2012-08-18T16:04:18Z</time>
      </trkpt>
      <trkpt lat="40.464835" lon="-1.270518">
        <ele>996.6</ele>
        <time>2012-08-18T16:04:19Z</time>
      </trkpt>
      <trkpt lat="40.464770" lon="-1.270394">
        <ele>996.6</ele>
        <time>2012-08-18T16:04:21Z</time>
      </trkpt>
      <trkpt lat="40.464636" lon="-1.270143">
        <ele>996.6</ele>
        <time>2012-08-18T16:04:25Z</time>
      </trkpt>
      <trkpt lat="40.464329" lon="-1.269577">
        <ele>996.6</ele>
        <time>2012-08-18T16:04:34Z</time>
      </trkpt>
      <trkpt lat="40.464028" lon="-1.269020">
        <ele>996.6</ele>
        <time>2012-08-18T16:04:43Z</time>
      </trkpt>
      <trkpt lat="40.463830" lon="-1.268645">
        <ele>996.6</ele>
        <time>2012-08-18T16:04:49Z</time>
      </trkpt>
      <trkpt lat="40.463598" lon="-1.268221">
        <ele>996.6</ele>
        <time>2012-08-18T16:04:56Z</time>
      </trkpt>
      <trkpt lat="40.463276" lon="-1.267603">
        <ele>996.6</ele>
        <time>2012-08-18T16:05:06Z</time>
      </trkpt>
      <trkpt lat="40.462972" lon="-1.267034">
        <ele>996.6</ele>
        <time>2012-08-18T16:05:15Z</time>
      </trkpt>
      <trkpt lat="40.462675" lon="-1.266482">
        <ele>996.6</ele>
        <time>2012-08-18T16:05:24Z</time>
      </trkpt>
      <trkpt lat="40.462350" lon="-1.265870">
        <ele>996.6</ele>
        <time>2012-08-18T16:05:34Z</time>
      </trkpt>
      <trkpt lat="40.462056" lon="-1.265308">
        <ele>996.6</ele>
        <time>2012-08-18T16:05:43Z</time>
      </trkpt>
      <trkpt lat="40.461823" lon="-1.264870">
        <ele>996.6</ele>
        <time>2012-08-18T16:05:50Z</time>
      </trkpt>
      <trkpt lat="40.461596" lon="-1.264442">
        <ele>996.6</ele>
        <time>2012-08-18T16:05:57Z</time>
      </trkpt>
      <trkpt lat="40.461368" lon="-1.264007">
        <ele>996.6</ele>
        <time>2012-08-18T16:06:04Z</time>
      </trkpt>
      <trkpt lat="40.461055" lon="-1.263432">
        <ele>996.6</ele>
        <time>2012-08-18T16:06:13Z</time>
      </trkpt>
      <trkpt lat="40.460771" lon="-1.262927">
        <ele>996.6</ele>
        <time>2012-08-18T16:06:21Z</time>
      </trkpt>
      <trkpt lat="40.460548" lon="-1.262493">
        <ele>996.6</ele>
        <time>2012-08-18T16:06:27Z</time>
      </trkpt>
      <trkpt lat="40.460321" lon="-1.262067">
        <ele>996.6</ele>
        <time>2012-08-18T16:06:34Z</time>
      </trkpt>
      <trkpt lat="40.460052" lon="-1.261559">
        <ele>996.6</ele>
        <time>2012-08-18T16:06:42Z</time>
      </trkpt>
      <trkpt lat="40.459742" lon="-1.260981">
        <ele>996.6</ele>
        <time>2012-08-18T16:06:51Z</time>
      </trkpt>
      <trkpt lat="40.459503" lon="-1.260532">
        <ele>996.6</ele>
        <time>2012-08-18T16:06:58Z</time>
      </trkpt>
      <trkpt lat="40.459269" lon="-1.260098">
        <ele>996.6</ele>
        <time>2012-08-18T16:07:05Z</time>
      </trkpt>
      <trkpt lat="40.459016" lon="-1.259605">
        <ele>996.6</ele>
        <time>2012-08-18T16:07:13Z</time>
      </trkpt>
      <trkpt lat="40.458766" lon="-1.259135">
        <ele>996.6</ele>
        <time>2012-08-18T16:07:21Z</time>
      </trkpt>
      <trkpt lat="40.458525" lon="-1.258670">
        <ele>996.6</ele>
        <time>2012-08-18T16:07:29Z</time>
      </trkpt>
      <trkpt lat="40.458274" lon="-1.258236">
        <ele>996.6</ele>
        <time>2012-08-18T16:07:37Z</time>
      </trkpt>
      <trkpt lat="40.458245" lon="-1.258179">
        <ele>996.6</ele>
        <time>2012-08-18T16:07:38Z</time>
      </trkpt>
      <trkpt lat="40.458090" lon="-1.257892">
        <ele>996.6</ele>
        <time>2012-08-18T16:07:44Z</time>
      </trkpt>
      <trkpt lat="40.457945" lon="-1.257618">
        <ele>997.0</ele>
        <time>2012-08-18T16:07:49Z</time>
      </trkpt>
      <trkpt lat="40.457915" lon="-1.257564">
        <ele>997.8</ele>
        <time>2012-08-18T16:07:50Z</time>
      </trkpt>
      <trkpt lat="40.457886" lon="-1.257512">
        <ele>998.2</ele>
        <time>2012-08-18T16:07:51Z</time>
      </trkpt>
      <trkpt lat="40.457857" lon="-1.257460">
        <ele>998.6</ele>
        <time>2012-08-18T16:07:52Z</time>
      </trkpt>
      <trkpt lat="40.457828" lon="-1.257409">
        <ele>998.6</ele>
        <time>2012-08-18T16:07:53Z</time>
      </trkpt>
      <trkpt lat="40.457594" lon="-1.256966">
        <ele>998.6</ele>
        <time>2012-08-18T16:08:01Z</time>
      </trkpt>
      <trkpt lat="40.457324" lon="-1.256457">
        <ele>998.6</ele>
        <time>2012-08-18T16:08:10Z</time>
      </trkpt>
      <trkpt lat="40.457024" lon="-1.255899">
        <ele>998.6</ele>
        <time>2012-08-18T16:08:20Z</time>
      </trkpt>
      <trkpt lat="40.456787" lon="-1.255445">
        <ele>998.6</ele>
        <time>2012-08-18T16:08:28Z</time>
      </trkpt>
      <trkpt lat="40.456527" lon="-1.254951">
        <ele>998.6</ele>
        <time>2012-08-18T16:08:37Z</time>
      </trkpt>
      <trkpt lat="40.456347" lon="-1.254624">
        <ele>998.6</ele>
        <time>2012-08-18T16:08:43Z</time>
      </trkpt>
      <trkpt lat="40.456208" lon="-1.254356">
        <ele>998.6</ele>
        <time>2012-08-18T16:08:48Z</time>
      </trkpt>
      <trkpt lat="40.456155" lon="-1.254253">
        <ele>998.6</ele>
        <time>2012-08-18T16:08:50Z</time>
      </trkpt>
      <trkpt lat="40.456026" lon="-1.254065">
        <ele>998.6</ele>
        <time>2012-08-18T16:08:54Z</time>
      </trkpt>
      <trkpt lat="40.455948" lon="-1.253997">
        <ele>998.6</ele>
        <time>2012-08-18T16:08:56Z</time>
      </trkpt>
      <trkpt lat="40.455766" lon="-1.253994">
        <ele>998.6</ele>
        <time>2012-08-18T16:09:00Z</time>
      </trkpt>
      <trkpt lat="40.455634" lon="-1.254043">
        <ele>998.6</ele>
        <time>2012-08-18T16:09:03Z</time>
      </trkpt>
      <trkpt lat="40.455588" lon="-1.254052">
        <ele>998.6</ele>
        <time>2012-08-18T16:09:04Z</time>
      </trkpt>
      <trkpt lat="40.455501" lon="-1.254041">
        <ele>998.6</ele>
        <time>2012-08-18T16:09:06Z</time>
      </trkpt>
      <trkpt lat="40.455391" lon="-1.253935">
        <ele>998.6</ele>
        <time>2012-08-18T16:09:09Z</time>
      </trkpt>
      <trkpt lat="40.455337" lon="-1.253800">
        <ele>998.6</ele>
        <time>2012-08-18T16:09:12Z</time>
      </trkpt>
      <trkpt lat="40.455332" lon="-1.253753">
        <ele>998.6</ele>
        <time>2012-08-18T16:09:13Z</time>
      </trkpt>
      <trkpt lat="40.455326" lon="-1.253592">
        <ele>998.6</ele>
        <time>2012-08-18T16:09:17Z</time>
      </trkpt>
      <trkpt lat="40.455326" lon="-1.253556">
        <ele>998.6</ele>
        <time>2012-08-18T16:09:18Z</time>
      </trkpt>
      <trkpt lat="40.455273" lon="-1.253443">
        <ele>998.6</ele>
        <time>2012-08-18T16:09:22Z</time>
      </trkpt>
      <trkpt lat="40.455131" lon="-1.253270">
        <ele>998.6</ele>
        <time>2012-08-18T16:09:29Z</time>
      </trkpt>
      <trkpt lat="40.455125" lon="-1.253256">
        <ele>998.6</ele>
        <time>2012-08-18T16:09:31Z</time>
      </trkpt>
      <trkpt lat="40.455125" lon="-1.253255">
        <ele>998.6</ele>
        <time>2012-08-18T16:09:33Z</time>
      </trkpt>
      <trkpt lat="40.455084" lon="-1.253256">
        <ele>998.6</ele>
        <time>2012-08-18T16:09:41Z</time>
      </trkpt>
      <trkpt lat="40.455083" lon="-1.253255">
        <ele>998.6</ele>
        <time>2012-08-18T16:09:45Z</time>
      </trkpt>
      <trkpt lat="40.455040" lon="-1.253246">
        <ele>998.6</ele>
        <time>2012-08-18T16:14:37Z</time>
      </trkpt>
      <trkpt lat="40.455039" lon="-1.253242">
        <ele>998.6</ele>
        <time>2012-08-18T16:14:40Z</time>
      </trkpt>
      <trkpt lat="40.454986" lon="-1.253246">
        <ele>998.6</ele>
        <time>2012-08-18T16:15:35Z</time>
      </trkpt>
      <trkpt lat="40.454894" lon="-1.253256">
        <ele>998.6</ele>
        <time>2012-08-18T16:15:36Z</time>
      </trkpt>
      <trkpt lat="40.454894" lon="-1.253256">
        <ele>998.6</ele>
        <time>2012-08-18T16:15:39Z</time>
      </trkpt>
      <trkpt lat="40.454638" lon="-1.253226">
        <ele>998.6</ele>
        <time>2012-08-18T16:15:46Z</time>
      </trkpt>
      <trkpt lat="40.454317" lon="-1.253174">
        <ele>998.6</ele>
        <time>2012-08-18T16:15:54Z</time>
      </trkpt>
      <trkpt lat="40.453968" lon="-1.253109">
        <ele>998.6</ele>
        <time>2012-08-18T16:16:02Z</time>
      </trkpt>
      <trkpt lat="40.453523" lon="-1.253042">
        <ele>998.6</ele>
        <time>2012-08-18T16:16:11Z</time>
      </trkpt>
      <trkpt lat="40.452995" lon="-1.252948">
        <ele>998.6</ele>
        <time>2012-08-18T16:16:21Z</time>
      </trkpt>
      <trkpt lat="40.452428" lon="-1.252859">
        <ele>998.6</ele>
        <time>2012-08-18T16:16:31Z</time>
      </trkpt>
      <trkpt lat="40.452081" lon="-1.252801">
        <ele>998.2</ele>
        <time>2012-08-18T16:16:37Z</time>
      </trkpt>
      <trkpt lat="40.452026" lon="-1.252789">
        <ele>997.8</ele>
        <time>2012-08-18T16:16:38Z</time>
      </trkpt>
      <trkpt lat="40.451969" lon="-1.252778">
        <ele>997.4</ele>
        <time>2012-08-18T16:16:39Z</time>
      </trkpt>
      <trkpt lat="40.451910" lon="-1.252771">
        <ele>997.0</ele>
        <time>2012-08-18T16:16:40Z</time>
      </trkpt>
      <trkpt lat="40.451853" lon="-1.252763">
        <ele>996.6</ele>
        <time>2012-08-18T16:16:41Z</time>
      </trkpt>
      <trkpt lat="40.451442" lon="-1.252692">
        <ele>996.6</ele>
        <time>2012-08-18T16:16:48Z</time>
      </trkpt>
      <trkpt lat="40.451154" lon="-1.252657">
        <ele>996.6</ele>
        <time>2012-08-18T16:16:53Z</time>
      </trkpt>
      <trkpt lat="40.451096" lon="-1.252653">
        <ele>996.6</ele>
        <time>2012-08-18T16:16:54Z</time>
      </trkpt>
      <trkpt lat="40.450750" lon="-1.252615">
        <ele>996.6</ele>
        <time>2012-08-18T16:17:00Z</time>
      </trkpt>
      <trkpt lat="40.450361" lon="-1.252559">
        <ele>996.6</ele>
        <time>2012-08-18T16:17:07Z</time>
      </trkpt>
      <trkpt lat="40.449982" lon="-1.252520">
        <ele>996.6</ele>
        <time>2012-08-18T16:17:14Z</time>
      </trkpt>
      <trkpt lat="40.449600" lon="-1.252499">
        <ele>997.0</ele>
        <time>2012-08-18T16:17:21Z</time>
      </trkpt>
      <trkpt lat="40.449545" lon="-1.252486">
        <ele>997.4</ele>
        <time>2012-08-18T16:17:22Z</time>
      </trkpt>
      <trkpt lat="40.449498" lon="-1.252457">
        <ele>997.8</ele>
        <time>2012-08-18T16:17:23Z</time>
      </trkpt>
      <trkpt lat="40.449458" lon="-1.252414">
        <ele>998.2</ele>
        <time>2012-08-18T16:17:24Z</time>
      </trkpt>
      <trkpt lat="40.449427" lon="-1.252364">
        <ele>998.6</ele>
        <time>2012-08-18T16:17:25Z</time>
      </trkpt>
      <trkpt lat="40.449379" lon="-1.252106">
        <ele>998.6</ele>
        <time>2012-08-18T16:17:29Z</time>
      </trkpt>
      <trkpt lat="40.449390" lon="-1.251974">
        <ele>998.6</ele>
        <time>2012-08-18T16:17:31Z</time>
      </trkpt>
      <trkpt lat="40.449417" lon="-1.251792">
        <ele>998.6</ele>
        <time>2012-08-18T16:17:34Z</time>
      </trkpt>
      <trkpt lat="40.449484" lon="-1.251365">
        <ele>998.6</ele>
        <time>2012-08-18T16:17:41Z</time>
      </trkpt>
      <trkpt lat="40.449558" lon="-1.250949">
        <ele>998.6</ele>
        <time>2012-08-18T16:17:48Z</time>
      </trkpt>
      <trkpt lat="40.449650" lon="-1.250421">
        <ele>998.6</ele>
        <time>2012-08-18T16:17:57Z</time>
      </trkpt>
      <trkpt lat="40.449716" lon="-1.249882">
        <ele>998.6</ele>
        <time>2012-08-18T16:18:06Z</time>
      </trkpt>
      <trkpt lat="40.449767" lon="-1.249345">
        <ele>998.6</ele>
        <time>2012-08-18T16:18:15Z</time>
      </trkpt>
      <trkpt lat="40.449813" lon="-1.248931">
        <ele>998.6</ele>
        <time>2012-08-18T16:18:22Z</time>
      </trkpt>
      <trkpt lat="40.449883" lon="-1.248460">
        <ele>998.6</ele>
        <time>2012-08-18T16:18:30Z</time>
      </trkpt>
      <trkpt lat="40.449967" lon="-1.247981">
        <ele>998.6</ele>
        <time>2012-08-18T16:18:38Z</time>
      </trkpt>
      <trkpt lat="40.450001" lon="-1.247685">
        <ele>999.0</ele>
        <time>2012-08-18T16:18:43Z</time>
      </trkpt>
      <trkpt lat="40.450005" lon="-1.247625">
        <ele>999.4</ele>
        <time>2012-08-18T16:18:44Z</time>
      </trkpt>
      <trkpt lat="40.450010" lon="-1.247567">
        <ele>1000.0</ele>
        <time>2012-08-18T16:18:45Z</time>
      </trkpt>
      <trkpt lat="40.450017" lon="-1.247507">
        <ele>1000.4</ele>
        <time>2012-08-18T16:18:46Z</time>
      </trkpt>
      <trkpt lat="40.450025" lon="-1.247450">
        <ele>1000.8</ele>
        <time>2012-08-18T16:18:47Z</time>
      </trkpt>
      <trkpt lat="40.450069" lon="-1.247031">
        <ele>1000.8</ele>
        <time>2012-08-18T16:18:54Z</time>
      </trkpt>
      <trkpt lat="40.450127" lon="-1.246557">
        <ele>1000.8</ele>
        <time>2012-08-18T16:19:02Z</time>
      </trkpt>
      <trkpt lat="40.450160" lon="-1.246082">
        <ele>1000.8</ele>
        <time>2012-08-18T16:19:10Z</time>
      </trkpt>
      <trkpt lat="40.450111" lon="-1.245711">
        <ele>1000.8</ele>
        <time>2012-08-18T16:19:17Z</time>
      </trkpt>
      <trkpt lat="40.450090" lon="-1.245619">
        <ele>1001.2</ele>
        <time>2012-08-18T16:19:19Z</time>
      </trkpt>
      <trkpt lat="40.450072" lon="-1.245576">
        <ele>1001.6</ele>
        <time>2012-08-18T16:19:20Z</time>
      </trkpt>
      <trkpt lat="40.450042" lon="-1.245544">
        <ele>1002.0</ele>
        <time>2012-08-18T16:19:21Z</time>
      </trkpt>
      <trkpt lat="40.450013" lon="-1.245503">
        <ele>1002.4</ele>
        <time>2012-08-18T16:19:22Z</time>
      </trkpt>
      <trkpt lat="40.449981" lon="-1.245464">
        <ele>1002.8</ele>
        <time>2012-08-18T16:19:23Z</time>
      </trkpt>
      <trkpt lat="40.449759" lon="-1.245205">
        <ele>1002.8</ele>
        <time>2012-08-18T16:19:30Z</time>
      </trkpt>
      <trkpt lat="40.449516" lon="-1.244914">
        <ele>1002.8</ele>
        <time>2012-08-18T16:19:37Z</time>
      </trkpt>
      <trkpt lat="40.449397" lon="-1.244789">
        <ele>1002.8</ele>
        <time>2012-08-18T16:19:40Z</time>
      </trkpt>
      <trkpt lat="40.449288" lon="-1.244654">
        <ele>1002.8</ele>
        <time>2012-08-18T16:19:43Z</time>
      </trkpt>
      <trkpt lat="40.448967" lon="-1.244287">
        <ele>1002.8</ele>
        <time>2012-08-18T16:19:51Z</time>
      </trkpt>
      <trkpt lat="40.448635" lon="-1.243902">
        <ele>1002.8</ele>
        <time>2012-08-18T16:19:59Z</time>
      </trkpt>
      <trkpt lat="40.448338" lon="-1.243550">
        <ele>1002.8</ele>
        <time>2012-08-18T16:20:06Z</time>
      </trkpt>
      <trkpt lat="40.447988" lon="-1.243143">
        <ele>1002.8</ele>
        <time>2012-08-18T16:20:14Z</time>
      </trkpt>
      <trkpt lat="40.447648" lon="-1.242735">
        <ele>1002.8</ele>
        <time>2012-08-18T16:20:22Z</time>
      </trkpt>
      <trkpt lat="40.447385" lon="-1.242434">
        <ele>1002.8</ele>
        <time>2012-08-18T16:20:28Z</time>
      </trkpt>
      <trkpt lat="40.447092" lon="-1.242083">
        <ele>1002.8</ele>
        <time>2012-08-18T16:20:35Z</time>
      </trkpt>
      <trkpt lat="40.446744" lon="-1.241681">
        <ele>1002.8</ele>
        <time>2012-08-18T16:20:43Z</time>
      </trkpt>
      <trkpt lat="40.446353" lon="-1.241214">
        <ele>1002.8</ele>
        <time>2012-08-18T16:20:52Z</time>
      </trkpt>
      <trkpt lat="40.446311" lon="-1.241160">
        <ele>1002.8</ele>
        <time>2012-08-18T16:20:53Z</time>
      </trkpt>
      <trkpt lat="40.445999" lon="-1.240804">
        <ele>1002.8</ele>
        <time>2012-08-18T16:21:00Z</time>
      </trkpt>
      <trkpt lat="40.445606" lon="-1.240350">
        <ele>1002.8</ele>
        <time>2012-08-18T16:21:09Z</time>
      </trkpt>
      <trkpt lat="40.445215" lon="-1.239905">
        <ele>1002.8</ele>
        <time>2012-08-18T16:21:18Z</time>
      </trkpt>
      <trkpt lat="40.444865" lon="-1.239515">
        <ele>1002.8</ele>
        <time>2012-08-18T16:21:26Z</time>
      </trkpt>
      <trkpt lat="40.444518" lon="-1.239107">
        <ele>1002.8</ele>
        <time>2012-08-18T16:21:34Z</time>
      </trkpt>
      <trkpt lat="40.444127" lon="-1.238652">
        <ele>1002.8</ele>
        <time>2012-08-18T16:21:43Z</time>
      </trkpt>
      <trkpt lat="40.443749" lon="-1.238207">
        <ele>1002.8</ele>
        <time>2012-08-18T16:21:52Z</time>
      </trkpt>
      <trkpt lat="40.443407" lon="-1.237809">
        <ele>1002.8</ele>
        <time>2012-08-18T16:22:00Z</time>
      </trkpt>
      <trkpt lat="40.443086" lon="-1.237444">
        <ele>1002.8</ele>
        <time>2012-08-18T16:22:07Z</time>
      </trkpt>
      <trkpt lat="40.442769" lon="-1.237074">
        <ele>1002.8</ele>
        <time>2012-08-18T16:22:14Z</time>
      </trkpt>
      <trkpt lat="40.442411" lon="-1.236650">
        <ele>1002.8</ele>
        <time>2012-08-18T16:22:22Z</time>
      </trkpt>
      <trkpt lat="40.442002" lon="-1.236180">
        <ele>1002.8</ele>
        <time>2012-08-18T16:22:31Z</time>
      </trkpt>
      <trkpt lat="40.441638" lon="-1.235752">
        <ele>1002.8</ele>
        <time>2012-08-18T16:22:39Z</time>
      </trkpt>
      <trkpt lat="40.441498" lon="-1.235593">
        <ele>1002.4</ele>
        <time>2012-08-18T16:22:42Z</time>
      </trkpt>
      <trkpt lat="40.441452" lon="-1.235541">
        <ele>1002.0</ele>
        <time>2012-08-18T16:22:43Z</time>
      </trkpt>
      <trkpt lat="40.441407" lon="-1.235488">
        <ele>1001.6</ele>
        <time>2012-08-18T16:22:44Z</time>
      </trkpt>
      <trkpt lat="40.441359" lon="-1.235434">
        <ele>1001.2</ele>
        <time>2012-08-18T16:22:45Z</time>
      </trkpt>
      <trkpt lat="40.441312" lon="-1.235385">
        <ele>1000.8</ele>
        <time>2012-08-18T16:22:46Z</time>
      </trkpt>
      <trkpt lat="40.441262" lon="-1.235334">
        <ele>1000.8</ele>
        <time>2012-08-18T16:22:47Z</time>
      </trkpt>
      <trkpt lat="40.440892" lon="-1.234911">
        <ele>1000.8</ele>
        <time>2012-08-18T16:22:55Z</time>
      </trkpt>
      <trkpt lat="40.440484" lon="-1.234429">
        <ele>1000.8</ele>
        <time>2012-08-18T16:23:04Z</time>
      </trkpt>
      <trkpt lat="40.440132" lon="-1.234012">
        <ele>1000.8</ele>
        <time>2012-08-18T16:23:12Z</time>
      </trkpt>
      <trkpt lat="40.439726" lon="-1.233542">
        <ele>1000.8</ele>
        <time>2012-08-18T16:23:21Z</time>
      </trkpt>
      <trkpt lat="40.439454" lon="-1.233232">
        <ele>1000.8</ele>
        <time>2012-08-18T16:23:27Z</time>
      </trkpt>
      <trkpt lat="40.439116" lon="-1.232839">
        <ele>1000.8</ele>
        <time>2012-08-18T16:23:35Z</time>
      </trkpt>
      <trkpt lat="40.438793" lon="-1.232464">
        <ele>1000.8</ele>
        <time>2012-08-18T16:23:43Z</time>
      </trkpt>
      <trkpt lat="40.438483" lon="-1.232083">
        <ele>1000.8</ele>
        <time>2012-08-18T16:23:51Z</time>
      </trkpt>
      <trkpt lat="40.438249" lon="-1.231813">
        <ele>1000.8</ele>
        <time>2012-08-18T16:23:57Z</time>
      </trkpt>
      <trkpt lat="40.437934" lon="-1.231448">
        <ele>1000.8</ele>
        <time>2012-08-18T16:24:05Z</time>
      </trkpt>
      <trkpt lat="40.437624" lon="-1.231085">
        <ele>1000.8</ele>
        <time>2012-08-18T16:24:13Z</time>
      </trkpt>
      <trkpt lat="40.437284" lon="-1.230693">
        <ele>1000.8</ele>
        <time>2012-08-18T16:24:22Z</time>
      </trkpt>
    </trkseg>
  </trk>
  <trk>
    <name>T3303249-7</name>
    <cmt>La ruta empieza en Ojos Negros. Hasta Santa Eulalia va por una carretera comarcal apenas transitada. Hay un tramo de unos 40 km durante el puerto del Escandón que no aparece reflejado en el track porque me quedé sin batería en el GPS pero la vía verde no tiene pérdida en esa zona</cmt>
    <desc>La ruta empieza en Ojos Negros. Hasta Santa Eulalia va por una carretera comarcal apenas transitada. Hay un tramo de unos 40 km durante el puerto del Escandón que no aparece reflejado en el track porque me quedé sin batería en el GPS pero la vía verde no tiene pérdida en esa zona</desc>
    <trkseg>
      <trkpt lat="40.436973" lon="-1.230341">
        <ele>1000.8</ele>
        <time>2012-08-18T16:24:30Z</time>
      </trkpt>
      <trkpt lat="40.436657" lon="-1.229966">
        <ele>1000.8</ele>
        <time>2012-08-18T16:24:38Z</time>
      </trkpt>
      <trkpt lat="40.436327" lon="-1.229572">
        <ele>1000.8</ele>
        <time>2012-08-18T16:24:47Z</time>
      </trkpt>
      <trkpt lat="40.436235" lon="-1.229461">
        <ele>1000.2</ele>
        <time>2012-08-18T16:24:50Z</time>
      </trkpt>
      <trkpt lat="40.436206" lon="-1.229427">
        <ele>999.8</ele>
        <time>2012-08-18T16:24:51Z</time>
      </trkpt>
      <trkpt lat="40.436180" lon="-1.229395">
        <ele>999.4</ele>
        <time>2012-08-18T16:24:52Z</time>
      </trkpt>
      <trkpt lat="40.436157" lon="-1.229365">
        <ele>999.0</ele>
        <time>2012-08-18T16:24:53Z</time>
      </trkpt>
      <trkpt lat="40.436132" lon="-1.229335">
        <ele>998.6</ele>
        <time>2012-08-18T16:24:54Z</time>
      </trkpt>
      <trkpt lat="40.436116" lon="-1.229320">
        <ele>998.6</ele>
        <time>2012-08-18T16:24:55Z</time>
      </trkpt>
      <trkpt lat="40.436098" lon="-1.229300">
        <ele>998.6</ele>
        <time>2012-08-18T16:24:58Z</time>
      </trkpt>
      <trkpt lat="40.436097" lon="-1.229297">
        <ele>998.6</ele>
        <time>2012-08-18T16:24:59Z</time>
      </trkpt>
      <trkpt lat="40.436097" lon="-1.229300">
        <ele>998.6</ele>
        <time>2012-08-18T16:25:00Z</time>
      </trkpt>
      <trkpt lat="40.436034" lon="-1.229241">
        <ele>998.6</ele>
        <time>2012-08-18T16:26:20Z</time>
      </trkpt>
      <trkpt lat="40.435987" lon="-1.229178">
        <ele>998.6</ele>
        <time>2012-08-18T16:26:22Z</time>
      </trkpt>
      <trkpt lat="40.435927" lon="-1.229113">
        <ele>998.6</ele>
        <time>2012-08-18T16:26:24Z</time>
      </trkpt>
      <trkpt lat="40.435805" lon="-1.228960">
        <ele>998.6</ele>
        <time>2012-08-18T16:26:28Z</time>
      </trkpt>
      <trkpt lat="40.435593" lon="-1.228725">
        <ele>998.6</ele>
        <time>2012-08-18T16:26:34Z</time>
      </trkpt>
      <trkpt lat="40.435279" lon="-1.228356">
        <ele>998.6</ele>
        <time>2012-08-18T16:26:42Z</time>
      </trkpt>
      <trkpt lat="40.434957" lon="-1.227975">
        <ele>998.6</ele>
        <time>2012-08-18T16:26:50Z</time>
      </trkpt>
      <trkpt lat="40.434613" lon="-1.227585">
        <ele>998.6</ele>
        <time>2012-08-18T16:26:58Z</time>
      </trkpt>
      <trkpt lat="40.434256" lon="-1.227170">
        <ele>998.6</ele>
        <time>2012-08-18T16:27:06Z</time>
      </trkpt>
      <trkpt lat="40.433853" lon="-1.226711">
        <ele>998.6</ele>
        <time>2012-08-18T16:27:15Z</time>
      </trkpt>
      <trkpt lat="40.433461" lon="-1.226253">
        <ele>998.6</ele>
        <time>2012-08-18T16:27:24Z</time>
      </trkpt>
      <trkpt lat="40.433420" lon="-1.226201">
        <ele>998.6</ele>
        <time>2012-08-18T16:27:25Z</time>
      </trkpt>
      <trkpt lat="40.432990" lon="-1.225714">
        <ele>998.6</ele>
        <time>2012-08-18T16:27:35Z</time>
      </trkpt>
      <trkpt lat="40.432588" lon="-1.225254">
        <ele>998.6</ele>
        <time>2012-08-18T16:27:44Z</time>
      </trkpt>
      <trkpt lat="40.432227" lon="-1.224838">
        <ele>998.2</ele>
        <time>2012-08-18T16:27:52Z</time>
      </trkpt>
      <trkpt lat="40.432182" lon="-1.224788">
        <ele>997.8</ele>
        <time>2012-08-18T16:27:53Z</time>
      </trkpt>
      <trkpt lat="40.432138" lon="-1.224734">
        <ele>997.2</ele>
        <time>2012-08-18T16:27:54Z</time>
      </trkpt>
      <trkpt lat="40.432098" lon="-1.224684">
        <ele>996.8</ele>
        <time>2012-08-18T16:27:55Z</time>
      </trkpt>
      <trkpt lat="40.432052" lon="-1.224635">
        <ele>996.4</ele>
        <time>2012-08-18T16:27:56Z</time>
      </trkpt>
      <trkpt lat="40.431831" lon="-1.224383">
        <ele>996.4</ele>
        <time>2012-08-18T16:28:01Z</time>
      </trkpt>
      <trkpt lat="40.431488" lon="-1.223973">
        <ele>996.4</ele>
        <time>2012-08-18T16:28:09Z</time>
      </trkpt>
      <trkpt lat="40.431065" lon="-1.223480">
        <ele>996.4</ele>
        <time>2012-08-18T16:28:19Z</time>
      </trkpt>
      <trkpt lat="40.430983" lon="-1.223390">
        <ele>996.8</ele>
        <time>2012-08-18T16:28:21Z</time>
      </trkpt>
      <trkpt lat="40.430939" lon="-1.223339">
        <ele>997.4</ele>
        <time>2012-08-18T16:28:22Z</time>
      </trkpt>
      <trkpt lat="40.430902" lon="-1.223292">
        <ele>997.8</ele>
        <time>2012-08-18T16:28:23Z</time>
      </trkpt>
      <trkpt lat="40.430859" lon="-1.223244">
        <ele>998.2</ele>
        <time>2012-08-18T16:28:24Z</time>
      </trkpt>
      <trkpt lat="40.430820" lon="-1.223199">
        <ele>998.6</ele>
        <time>2012-08-18T16:28:25Z</time>
      </trkpt>
      <trkpt lat="40.430658" lon="-1.223006">
        <ele>998.6</ele>
        <time>2012-08-18T16:28:29Z</time>
      </trkpt>
      <trkpt lat="40.430375" lon="-1.222680">
        <ele>998.6</ele>
        <time>2012-08-18T16:28:36Z</time>
      </trkpt>
      <trkpt lat="40.430030" lon="-1.222275">
        <ele>998.6</ele>
        <time>2012-08-18T16:28:45Z</time>
      </trkpt>
      <trkpt lat="40.429745" lon="-1.221942">
        <ele>998.6</ele>
        <time>2012-08-18T16:28:53Z</time>
      </trkpt>
      <trkpt lat="40.429722" lon="-1.221895">
        <ele>998.2</ele>
        <time>2012-08-18T16:28:54Z</time>
      </trkpt>
      <trkpt lat="40.429709" lon="-1.221845">
        <ele>997.8</ele>
        <time>2012-08-18T16:28:55Z</time>
      </trkpt>
      <trkpt lat="40.429710" lon="-1.221789">
        <ele>997.2</ele>
        <time>2012-08-18T16:28:56Z</time>
      </trkpt>
      <trkpt lat="40.429724" lon="-1.221735">
        <ele>996.8</ele>
        <time>2012-08-18T16:28:57Z</time>
      </trkpt>
      <trkpt lat="40.429740" lon="-1.221678">
        <ele>996.4</ele>
        <time>2012-08-18T16:28:58Z</time>
      </trkpt>
      <trkpt lat="40.429799" lon="-1.221486">
        <ele>996.0</ele>
        <time>2012-08-18T16:29:01Z</time>
      </trkpt>
      <trkpt lat="40.429800" lon="-1.221410">
        <ele>995.4</ele>
        <time>2012-08-18T16:29:02Z</time>
      </trkpt>
      <trkpt lat="40.429799" lon="-1.221341">
        <ele>995.0</ele>
        <time>2012-08-18T16:29:03Z</time>
      </trkpt>
      <trkpt lat="40.429796" lon="-1.221283">
        <ele>994.6</ele>
        <time>2012-08-18T16:29:04Z</time>
      </trkpt>
      <trkpt lat="40.429770" lon="-1.221231">
        <ele>994.0</ele>
        <time>2012-08-18T16:29:05Z</time>
      </trkpt>
      <trkpt lat="40.429631" lon="-1.221104">
        <ele>994.0</ele>
        <time>2012-08-18T16:29:09Z</time>
      </trkpt>
      <trkpt lat="40.429482" lon="-1.221054">
        <ele>994.0</ele>
        <time>2012-08-18T16:29:13Z</time>
      </trkpt>
      <trkpt lat="40.429409" lon="-1.220990">
        <ele>994.0</ele>
        <time>2012-08-18T16:29:16Z</time>
      </trkpt>
      <trkpt lat="40.429376" lon="-1.220931">
        <ele>994.0</ele>
        <time>2012-08-18T16:29:18Z</time>
      </trkpt>
      <trkpt lat="40.429253" lon="-1.220718">
        <ele>994.0</ele>
        <time>2012-08-18T16:29:25Z</time>
      </trkpt>
      <trkpt lat="40.429148" lon="-1.220529">
        <ele>994.0</ele>
        <time>2012-08-18T16:29:30Z</time>
      </trkpt>
      <trkpt lat="40.429017" lon="-1.220288">
        <ele>994.0</ele>
        <time>2012-08-18T16:29:35Z</time>
      </trkpt>
      <trkpt lat="40.428830" lon="-1.219954">
        <ele>994.0</ele>
        <time>2012-08-18T16:29:42Z</time>
      </trkpt>
      <trkpt lat="40.428637" lon="-1.219593">
        <ele>994.0</ele>
        <time>2012-08-18T16:29:49Z</time>
      </trkpt>
      <trkpt lat="40.428605" lon="-1.219551">
        <ele>994.0</ele>
        <time>2012-08-18T16:29:50Z</time>
      </trkpt>
      <trkpt lat="40.428441" lon="-1.219321">
        <ele>994.0</ele>
        <time>2012-08-18T16:29:55Z</time>
      </trkpt>
      <trkpt lat="40.428159" lon="-1.218968">
        <ele>994.0</ele>
        <time>2012-08-18T16:30:03Z</time>
      </trkpt>
      <trkpt lat="40.427939" lon="-1.218636">
        <ele>994.0</ele>
        <time>2012-08-18T16:30:10Z</time>
      </trkpt>
      <trkpt lat="40.427797" lon="-1.218392">
        <ele>994.0</ele>
        <time>2012-08-18T16:30:15Z</time>
      </trkpt>
      <trkpt lat="40.427747" lon="-1.218280">
        <ele>994.0</ele>
        <time>2012-08-18T16:30:17Z</time>
      </trkpt>
      <trkpt lat="40.427643" lon="-1.217904">
        <ele>994.0</ele>
        <time>2012-08-18T16:30:23Z</time>
      </trkpt>
      <trkpt lat="40.427583" lon="-1.217594">
        <ele>994.0</ele>
        <time>2012-08-18T16:30:28Z</time>
      </trkpt>
      <trkpt lat="40.427532" lon="-1.217488">
        <ele>994.0</ele>
        <time>2012-08-18T16:30:30Z</time>
      </trkpt>
      <trkpt lat="40.427471" lon="-1.217391">
        <ele>994.0</ele>
        <time>2012-08-18T16:30:32Z</time>
      </trkpt>
      <trkpt lat="40.427343" lon="-1.217198">
        <ele>994.0</ele>
        <time>2012-08-18T16:30:36Z</time>
      </trkpt>
      <trkpt lat="40.427336" lon="-1.217302">
        <ele>991.8</ele>
        <time>2012-08-18T16:33:00Z</time>
      </trkpt>
      <trkpt lat="40.427228" lon="-1.217367">
        <ele>991.8</ele>
        <time>2012-08-18T16:33:04Z</time>
      </trkpt>
      <trkpt lat="40.427057" lon="-1.217339">
        <ele>991.8</ele>
        <time>2012-08-18T16:33:09Z</time>
      </trkpt>
      <trkpt lat="40.426822" lon="-1.217328">
        <ele>991.8</ele>
        <time>2012-08-18T16:33:16Z</time>
      </trkpt>
      <trkpt lat="40.426688" lon="-1.217320">
        <ele>992.2</ele>
        <time>2012-08-18T16:33:20Z</time>
      </trkpt>
      <trkpt lat="40.426657" lon="-1.217320">
        <ele>992.8</ele>
        <time>2012-08-18T16:33:21Z</time>
      </trkpt>
      <trkpt lat="40.426620" lon="-1.217321">
        <ele>993.6</ele>
        <time>2012-08-18T16:33:22Z</time>
      </trkpt>
      <trkpt lat="40.426588" lon="-1.217322">
        <ele>994.0</ele>
        <time>2012-08-18T16:33:23Z</time>
      </trkpt>
      <trkpt lat="40.426517" lon="-1.217317">
        <ele>994.0</ele>
        <time>2012-08-18T16:33:25Z</time>
      </trkpt>
      <trkpt lat="40.426265" lon="-1.217302">
        <ele>994.0</ele>
        <time>2012-08-18T16:33:32Z</time>
      </trkpt>
      <trkpt lat="40.426011" lon="-1.217289">
        <ele>994.0</ele>
        <time>2012-08-18T16:33:39Z</time>
      </trkpt>
      <trkpt lat="40.425788" lon="-1.217237">
        <ele>994.0</ele>
        <time>2012-08-18T16:33:45Z</time>
      </trkpt>
      <trkpt lat="40.425607" lon="-1.217068">
        <ele>994.0</ele>
        <time>2012-08-18T16:33:51Z</time>
      </trkpt>
      <trkpt lat="40.425493" lon="-1.216841">
        <ele>994.0</ele>
        <time>2012-08-18T16:33:57Z</time>
      </trkpt>
      <trkpt lat="40.425484" lon="-1.216639">
        <ele>994.0</ele>
        <time>2012-08-18T16:34:02Z</time>
      </trkpt>
      <trkpt lat="40.425440" lon="-1.216408">
        <ele>994.0</ele>
        <time>2012-08-18T16:34:07Z</time>
      </trkpt>
      <trkpt lat="40.425383" lon="-1.216339">
        <ele>994.0</ele>
        <time>2012-08-18T16:34:09Z</time>
      </trkpt>
      <trkpt lat="40.425312" lon="-1.216334">
        <ele>994.0</ele>
        <time>2012-08-18T16:34:11Z</time>
      </trkpt>
      <trkpt lat="40.425021" lon="-1.216327">
        <ele>994.0</ele>
        <time>2012-08-18T16:34:19Z</time>
      </trkpt>
      <trkpt lat="40.424812" lon="-1.216228">
        <ele>994.0</ele>
        <time>2012-08-18T16:34:24Z</time>
      </trkpt>
      <trkpt lat="40.424776" lon="-1.216186">
        <ele>994.0</ele>
        <time>2012-08-18T16:34:25Z</time>
      </trkpt>
      <trkpt lat="40.424607" lon="-1.215979">
        <ele>994.0</ele>
        <time>2012-08-18T16:34:30Z</time>
      </trkpt>
      <trkpt lat="40.424544" lon="-1.215899">
        <ele>994.0</ele>
        <time>2012-08-18T16:34:32Z</time>
      </trkpt>
      <trkpt lat="40.424369" lon="-1.215793">
        <ele>994.0</ele>
        <time>2012-08-18T16:34:37Z</time>
      </trkpt>
      <trkpt lat="40.424162" lon="-1.215795">
        <ele>994.0</ele>
        <time>2012-08-18T16:34:42Z</time>
      </trkpt>
      <trkpt lat="40.424073" lon="-1.215804">
        <ele>994.0</ele>
        <time>2012-08-18T16:34:44Z</time>
      </trkpt>
      <trkpt lat="40.423948" lon="-1.215777">
        <ele>994.0</ele>
        <time>2012-08-18T16:34:47Z</time>
      </trkpt>
      <trkpt lat="40.423896" lon="-1.215738">
        <ele>994.0</ele>
        <time>2012-08-18T16:34:50Z</time>
      </trkpt>
      <trkpt lat="40.423884" lon="-1.215731">
        <ele>994.0</ele>
        <time>2012-08-18T16:34:51Z</time>
      </trkpt>
      <trkpt lat="40.423874" lon="-1.215725">
        <ele>994.0</ele>
        <time>2012-08-18T16:34:53Z</time>
      </trkpt>
      <trkpt lat="40.423874" lon="-1.215725">
        <ele>994.0</ele>
        <time>2012-08-18T16:34:54Z</time>
      </trkpt>
      <trkpt lat="40.423838" lon="-1.215663">
        <ele>994.0</ele>
        <time>2012-08-18T16:35:08Z</time>
      </trkpt>
      <trkpt lat="40.423831" lon="-1.215647">
        <ele>994.0</ele>
        <time>2012-08-18T16:35:12Z</time>
      </trkpt>
      <trkpt lat="40.423840" lon="-1.215639">
        <ele>994.0</ele>
        <time>2012-08-18T16:37:23Z</time>
      </trkpt>
      <trkpt lat="40.423908" lon="-1.215673">
        <ele>993.6</ele>
        <time>2012-08-18T16:37:29Z</time>
      </trkpt>
      <trkpt lat="40.423919" lon="-1.215674">
        <ele>992.8</ele>
        <time>2012-08-18T16:37:30Z</time>
      </trkpt>
      <trkpt lat="40.423930" lon="-1.215675">
        <ele>992.4</ele>
        <time>2012-08-18T16:37:31Z</time>
      </trkpt>
      <trkpt lat="40.423941" lon="-1.215674">
        <ele>992.0</ele>
        <time>2012-08-18T16:37:32Z</time>
      </trkpt>
      <trkpt lat="40.423949" lon="-1.215671">
        <ele>992.0</ele>
        <time>2012-08-18T16:37:33Z</time>
      </trkpt>
      <trkpt lat="40.423969" lon="-1.215657">
        <ele>992.0</ele>
        <time>2012-08-18T16:37:35Z</time>
      </trkpt>
      <trkpt lat="40.423998" lon="-1.215657">
        <ele>992.0</ele>
        <time>2012-08-18T16:37:37Z</time>
      </trkpt>
      <trkpt lat="40.424057" lon="-1.215610">
        <ele>992.0</ele>
        <time>2012-08-18T16:37:43Z</time>
      </trkpt>
      <trkpt lat="40.424066" lon="-1.215597">
        <ele>992.0</ele>
        <time>2012-08-18T16:37:44Z</time>
      </trkpt>
      <trkpt lat="40.424159" lon="-1.215496">
        <ele>992.0</ele>
        <time>2012-08-18T16:37:53Z</time>
      </trkpt>
      <trkpt lat="40.424215" lon="-1.215422">
        <ele>992.0</ele>
        <time>2012-08-18T16:38:01Z</time>
      </trkpt>
      <trkpt lat="40.424262" lon="-1.215299">
        <ele>992.0</ele>
        <time>2012-08-18T16:38:09Z</time>
      </trkpt>
      <trkpt lat="40.424258" lon="-1.215293">
        <ele>992.0</ele>
        <time>2012-08-18T16:38:11Z</time>
      </trkpt>
      <trkpt lat="40.424208" lon="-1.215236">
        <ele>992.0</ele>
        <time>2012-08-18T16:38:18Z</time>
      </trkpt>
      <trkpt lat="40.424202" lon="-1.215229">
        <ele>992.0</ele>
        <time>2012-08-18T16:38:19Z</time>
      </trkpt>
      <trkpt lat="40.424178" lon="-1.215200">
        <ele>992.0</ele>
        <time>2012-08-18T16:38:22Z</time>
      </trkpt>
      <trkpt lat="40.424156" lon="-1.215188">
        <ele>992.0</ele>
        <time>2012-08-18T16:38:25Z</time>
      </trkpt>
      <trkpt lat="40.424156" lon="-1.215188">
        <ele>992.0</ele>
        <time>2012-08-18T16:38:27Z</time>
      </trkpt>
      <trkpt lat="40.424109" lon="-1.215182">
        <ele>992.0</ele>
        <time>2012-08-18T16:38:31Z</time>
      </trkpt>
      <trkpt lat="40.424065" lon="-1.215175">
        <ele>992.0</ele>
        <time>2012-08-18T16:38:33Z</time>
      </trkpt>
      <trkpt lat="40.423955" lon="-1.215141">
        <ele>992.4</ele>
        <time>2012-08-18T16:38:37Z</time>
      </trkpt>
      <trkpt lat="40.423926" lon="-1.215128">
        <ele>992.8</ele>
        <time>2012-08-18T16:38:38Z</time>
      </trkpt>
      <trkpt lat="40.423899" lon="-1.215113">
        <ele>993.2</ele>
        <time>2012-08-18T16:38:39Z</time>
      </trkpt>
      <trkpt lat="40.423872" lon="-1.215093">
        <ele>993.6</ele>
        <time>2012-08-18T16:38:40Z</time>
      </trkpt>
      <trkpt lat="40.423850" lon="-1.215073">
        <ele>994.0</ele>
        <time>2012-08-18T16:38:41Z</time>
      </trkpt>
      <trkpt lat="40.423789" lon="-1.215021">
        <ele>994.0</ele>
        <time>2012-08-18T16:38:44Z</time>
      </trkpt>
      <trkpt lat="40.423623" lon="-1.214828">
        <ele>994.0</ele>
        <time>2012-08-18T16:38:52Z</time>
      </trkpt>
      <trkpt lat="40.423508" lon="-1.214693">
        <ele>994.0</ele>
        <time>2012-08-18T16:38:58Z</time>
      </trkpt>
      <trkpt lat="40.423384" lon="-1.214531">
        <ele>994.0</ele>
        <time>2012-08-18T16:39:05Z</time>
      </trkpt>
      <trkpt lat="40.423199" lon="-1.214306">
        <ele>994.0</ele>
        <time>2012-08-18T16:39:13Z</time>
      </trkpt>
      <trkpt lat="40.423001" lon="-1.214098">
        <ele>994.0</ele>
        <time>2012-08-18T16:39:20Z</time>
      </trkpt>
      <trkpt lat="40.422968" lon="-1.214064">
        <ele>994.0</ele>
        <time>2012-08-18T16:39:21Z</time>
      </trkpt>
      <trkpt lat="40.422658" lon="-1.213701">
        <ele>994.0</ele>
        <time>2012-08-18T16:39:30Z</time>
      </trkpt>
      <trkpt lat="40.422371" lon="-1.213368">
        <ele>994.0</ele>
        <time>2012-08-18T16:39:38Z</time>
      </trkpt>
      <trkpt lat="40.422198" lon="-1.213157">
        <ele>994.0</ele>
        <time>2012-08-18T16:39:43Z</time>
      </trkpt>
      <trkpt lat="40.422096" lon="-1.213035">
        <ele>994.0</ele>
        <time>2012-08-18T16:39:46Z</time>
      </trkpt>
      <trkpt lat="40.421805" lon="-1.212687">
        <ele>994.0</ele>
        <time>2012-08-18T16:39:54Z</time>
      </trkpt>
      <trkpt lat="40.421538" lon="-1.212379">
        <ele>994.0</ele>
        <time>2012-08-18T16:40:01Z</time>
      </trkpt>
      <trkpt lat="40.421497" lon="-1.212333">
        <ele>994.0</ele>
        <time>2012-08-18T16:40:02Z</time>
      </trkpt>
      <trkpt lat="40.421159" lon="-1.211930">
        <ele>994.0</ele>
        <time>2012-08-18T16:40:11Z</time>
      </trkpt>
      <trkpt lat="40.420875" lon="-1.211619">
        <ele>994.0</ele>
        <time>2012-08-18T16:40:18Z</time>
      </trkpt>
      <trkpt lat="40.420521" lon="-1.211203">
        <ele>994.0</ele>
        <time>2012-08-18T16:40:27Z</time>
      </trkpt>
      <trkpt lat="40.420168" lon="-1.210785">
        <ele>994.0</ele>
        <time>2012-08-18T16:40:36Z</time>
      </trkpt>
      <trkpt lat="40.419884" lon="-1.210451">
        <ele>994.0</ele>
        <time>2012-08-18T16:40:43Z</time>
      </trkpt>
      <trkpt lat="40.419518" lon="-1.210017">
        <ele>994.0</ele>
        <time>2012-08-18T16:40:52Z</time>
      </trkpt>
      <trkpt lat="40.419099" lon="-1.209530">
        <ele>994.0</ele>
        <time>2012-08-18T16:41:02Z</time>
      </trkpt>
      <trkpt lat="40.418696" lon="-1.209077">
        <ele>994.0</ele>
        <time>2012-08-18T16:41:11Z</time>
      </trkpt>
      <trkpt lat="40.418651" lon="-1.209024">
        <ele>994.0</ele>
        <time>2012-08-18T16:41:12Z</time>
      </trkpt>
      <trkpt lat="40.418434" lon="-1.208746">
        <ele>993.6</ele>
        <time>2012-08-18T16:41:17Z</time>
      </trkpt>
      <trkpt lat="40.418388" lon="-1.208695">
        <ele>993.2</ele>
        <time>2012-08-18T16:41:18Z</time>
      </trkpt>
      <trkpt lat="40.418343" lon="-1.208645">
        <ele>992.8</ele>
        <time>2012-08-18T16:41:19Z</time>
      </trkpt>
      <trkpt lat="40.418299" lon="-1.208594">
        <ele>992.4</ele>
        <time>2012-08-18T16:41:20Z</time>
      </trkpt>
      <trkpt lat="40.418254" lon="-1.208543">
        <ele>991.8</ele>
        <time>2012-08-18T16:41:21Z</time>
      </trkpt>
      <trkpt lat="40.417953" lon="-1.208187">
        <ele>991.8</ele>
        <time>2012-08-18T16:41:28Z</time>
      </trkpt>
      <trkpt lat="40.417568" lon="-1.207741">
        <ele>991.8</ele>
        <time>2012-08-18T16:41:37Z</time>
      </trkpt>
      <trkpt lat="40.417243" lon="-1.207349">
        <ele>991.8</ele>
        <time>2012-08-18T16:41:45Z</time>
      </trkpt>
      <trkpt lat="40.416872" lon="-1.206939">
        <ele>991.8</ele>
        <time>2012-08-18T16:41:54Z</time>
      </trkpt>
      <trkpt lat="40.416595" lon="-1.206585">
        <ele>991.8</ele>
        <time>2012-08-18T16:42:01Z</time>
      </trkpt>
      <trkpt lat="40.416564" lon="-1.206528">
        <ele>991.8</ele>
        <time>2012-08-18T16:42:02Z</time>
      </trkpt>
      <trkpt lat="40.416430" lon="-1.206232">
        <ele>991.8</ele>
        <time>2012-08-18T16:42:07Z</time>
      </trkpt>
      <trkpt lat="40.416279" lon="-1.205815">
        <ele>991.8</ele>
        <time>2012-08-18T16:42:14Z</time>
      </trkpt>
      <trkpt lat="40.416191" lon="-1.205496">
        <ele>991.8</ele>
        <time>2012-08-18T16:42:20Z</time>
      </trkpt>
      <trkpt lat="40.416128" lon="-1.205106">
        <ele>991.8</ele>
        <time>2012-08-18T16:42:27Z</time>
      </trkpt>
      <trkpt lat="40.416092" lon="-1.204779">
        <ele>991.8</ele>
        <time>2012-08-18T16:42:34Z</time>
      </trkpt>
      <trkpt lat="40.416087" lon="-1.204496">
        <ele>991.8</ele>
        <time>2012-08-18T16:42:40Z</time>
      </trkpt>
      <trkpt lat="40.416093" lon="-1.204189">
        <ele>991.8</ele>
        <time>2012-08-18T16:42:47Z</time>
      </trkpt>
      <trkpt lat="40.416122" lon="-1.203841">
        <ele>991.8</ele>
        <time>2012-08-18T16:42:54Z</time>
      </trkpt>
      <trkpt lat="40.416167" lon="-1.203419">
        <ele>991.8</ele>
        <time>2012-08-18T16:43:02Z</time>
      </trkpt>
      <trkpt lat="40.416174" lon="-1.203370">
        <ele>991.8</ele>
        <time>2012-08-18T16:43:03Z</time>
      </trkpt>
      <trkpt lat="40.416232" lon="-1.202894">
        <ele>991.8</ele>
        <time>2012-08-18T16:43:12Z</time>
      </trkpt>
      <trkpt lat="40.416243" lon="-1.202805">
        <ele>992.4</ele>
        <time>2012-08-18T16:43:14Z</time>
      </trkpt>
      <trkpt lat="40.416251" lon="-1.202756">
        <ele>992.8</ele>
        <time>2012-08-18T16:43:15Z</time>
      </trkpt>
      <trkpt lat="40.416260" lon="-1.202713">
        <ele>993.2</ele>
        <time>2012-08-18T16:43:16Z</time>
      </trkpt>
      <trkpt lat="40.416265" lon="-1.202674">
        <ele>993.6</ele>
        <time>2012-08-18T16:43:17Z</time>
      </trkpt>
      <trkpt lat="40.416270" lon="-1.202629">
        <ele>994.0</ele>
        <time>2012-08-18T16:43:18Z</time>
      </trkpt>
      <trkpt lat="40.416300" lon="-1.202324">
        <ele>994.0</ele>
        <time>2012-08-18T16:43:24Z</time>
      </trkpt>
      <trkpt lat="40.416347" lon="-1.201935">
        <ele>994.0</ele>
        <time>2012-08-18T16:43:29Z</time>
      </trkpt>
      <trkpt lat="40.416393" lon="-1.201460">
        <ele>994.0</ele>
        <time>2012-08-18T16:43:36Z</time>
      </trkpt>
      <trkpt lat="40.416439" lon="-1.201072">
        <ele>994.0</ele>
        <time>2012-08-18T16:43:43Z</time>
      </trkpt>
      <trkpt lat="40.416481" lon="-1.200737">
        <ele>994.0</ele>
        <time>2012-08-18T16:43:50Z</time>
      </trkpt>
      <trkpt lat="40.416510" lon="-1.200444">
        <ele>994.0</ele>
        <time>2012-08-18T16:43:57Z</time>
      </trkpt>
      <trkpt lat="40.416558" lon="-1.200068">
        <ele>994.0</ele>
        <time>2012-08-18T16:44:04Z</time>
      </trkpt>
      <trkpt lat="40.416600" lon="-1.199639">
        <ele>994.0</ele>
        <time>2012-08-18T16:44:11Z</time>
      </trkpt>
      <trkpt lat="40.416617" lon="-1.199464">
        <ele>994.0</ele>
        <time>2012-08-18T16:44:14Z</time>
      </trkpt>
      <trkpt lat="40.416615" lon="-1.199288">
        <ele>994.0</ele>
        <time>2012-08-18T16:44:17Z</time>
      </trkpt>
      <trkpt lat="40.416611" lon="-1.199046">
        <ele>994.0</ele>
        <time>2012-08-18T16:44:21Z</time>
      </trkpt>
      <trkpt lat="40.416604" lon="-1.198919">
        <ele>994.0</ele>
        <time>2012-08-18T16:44:23Z</time>
      </trkpt>
      <trkpt lat="40.416549" lon="-1.198476">
        <ele>994.0</ele>
        <time>2012-08-18T16:44:30Z</time>
      </trkpt>
      <trkpt lat="40.416423" lon="-1.197911">
        <ele>994.0</ele>
        <time>2012-08-18T16:44:39Z</time>
      </trkpt>
      <trkpt lat="40.416279" lon="-1.197442">
        <ele>994.0</ele>
        <time>2012-08-18T16:44:47Z</time>
      </trkpt>
      <trkpt lat="40.416257" lon="-1.197389">
        <ele>994.0</ele>
        <time>2012-08-18T16:44:48Z</time>
      </trkpt>
      <trkpt lat="40.416178" lon="-1.197144">
        <ele>994.0</ele>
        <time>2012-08-18T16:44:53Z</time>
      </trkpt>
      <trkpt lat="40.416110" lon="-1.196991">
        <ele>994.0</ele>
        <time>2012-08-18T16:44:58Z</time>
      </trkpt>
      <trkpt lat="40.416092" lon="-1.196993">
        <ele>994.0</ele>
        <time>2012-08-18T16:44:59Z</time>
      </trkpt>
      <trkpt lat="40.416047" lon="-1.197032">
        <ele>994.0</ele>
        <time>2012-08-18T16:45:01Z</time>
      </trkpt>
      <trkpt lat="40.415985" lon="-1.197112">
        <ele>994.0</ele>
        <time>2012-08-18T16:45:03Z</time>
      </trkpt>
      <trkpt lat="40.415952" lon="-1.197158">
        <ele>993.6</ele>
        <time>2012-08-18T16:45:04Z</time>
      </trkpt>
      <trkpt lat="40.415918" lon="-1.197203">
        <ele>993.2</ele>
        <time>2012-08-18T16:45:05Z</time>
      </trkpt>
      <trkpt lat="40.415883" lon="-1.197250">
        <ele>992.8</ele>
        <time>2012-08-18T16:45:06Z</time>
      </trkpt>
      <trkpt lat="40.415846" lon="-1.197296">
        <ele>991.8</ele>
        <time>2012-08-18T16:45:07Z</time>
      </trkpt>
      <trkpt lat="40.415626" lon="-1.197506">
        <ele>991.8</ele>
        <time>2012-08-18T16:45:12Z</time>
      </trkpt>
      <trkpt lat="40.415578" lon="-1.197550">
        <ele>991.4</ele>
        <time>2012-08-18T16:45:13Z</time>
      </trkpt>
      <trkpt lat="40.415528" lon="-1.197598">
        <ele>991.0</ele>
        <time>2012-08-18T16:45:14Z</time>
      </trkpt>
      <trkpt lat="40.415480" lon="-1.197647">
        <ele>990.6</ele>
        <time>2012-08-18T16:45:15Z</time>
      </trkpt>
      <trkpt lat="40.415429" lon="-1.197694">
        <ele>990.2</ele>
        <time>2012-08-18T16:45:16Z</time>
      </trkpt>
      <trkpt lat="40.415369" lon="-1.197730">
        <ele>989.8</ele>
        <time>2012-08-18T16:45:17Z</time>
      </trkpt>
      <trkpt lat="40.415311" lon="-1.197756">
        <ele>989.8</ele>
        <time>2012-08-18T16:45:18Z</time>
      </trkpt>
      <trkpt lat="40.415184" lon="-1.197804">
        <ele>989.8</ele>
        <time>2012-08-18T16:45:20Z</time>
      </trkpt>
      <trkpt lat="40.415005" lon="-1.197859">
        <ele>989.8</ele>
        <time>2012-08-18T16:45:23Z</time>
      </trkpt>
      <trkpt lat="40.414680" lon="-1.197932">
        <ele>989.8</ele>
        <time>2012-08-18T16:45:29Z</time>
      </trkpt>
      <trkpt lat="40.414506" lon="-1.197886">
        <ele>989.4</ele>
        <time>2012-08-18T16:45:32Z</time>
      </trkpt>
      <trkpt lat="40.414446" lon="-1.197869">
        <ele>988.8</ele>
        <time>2012-08-18T16:45:33Z</time>
      </trkpt>
      <trkpt lat="40.414389" lon="-1.197853">
        <ele>988.4</ele>
        <time>2012-08-18T16:45:34Z</time>
      </trkpt>
      <trkpt lat="40.414332" lon="-1.197832">
        <ele>988.0</ele>
        <time>2012-08-18T16:45:35Z</time>
      </trkpt>
      <trkpt lat="40.414273" lon="-1.197816">
        <ele>987.6</ele>
        <time>2012-08-18T16:45:36Z</time>
      </trkpt>
      <trkpt lat="40.414053" lon="-1.197754">
        <ele>987.6</ele>
        <time>2012-08-18T16:45:40Z</time>
      </trkpt>
      <trkpt lat="40.413940" lon="-1.197710">
        <ele>987.6</ele>
        <time>2012-08-18T16:45:42Z</time>
      </trkpt>
      <trkpt lat="40.413772" lon="-1.197585">
        <ele>987.2</ele>
        <time>2012-08-18T16:45:45Z</time>
      </trkpt>
      <trkpt lat="40.413716" lon="-1.197535">
        <ele>986.8</ele>
        <time>2012-08-18T16:45:46Z</time>
      </trkpt>
      <trkpt lat="40.413660" lon="-1.197485">
        <ele>986.4</ele>
        <time>2012-08-18T16:45:47Z</time>
      </trkpt>
      <trkpt lat="40.413608" lon="-1.197434">
        <ele>986.0</ele>
        <time>2012-08-18T16:45:48Z</time>
      </trkpt>
      <trkpt lat="40.413558" lon="-1.197372">
        <ele>985.6</ele>
        <time>2012-08-18T16:45:49Z</time>
      </trkpt>
      <trkpt lat="40.413465" lon="-1.197272">
        <ele>985.6</ele>
        <time>2012-08-18T16:45:51Z</time>
      </trkpt>
      <trkpt lat="40.413121" lon="-1.196850">
        <ele>985.6</ele>
        <time>2012-08-18T16:45:59Z</time>
      </trkpt>
      <trkpt lat="40.412839" lon="-1.196404">
        <ele>985.6</ele>
        <time>2012-08-18T16:46:07Z</time>
      </trkpt>
      <trkpt lat="40.412598" lon="-1.195974">
        <ele>985.2</ele>
        <time>2012-08-18T16:46:15Z</time>
      </trkpt>
      <trkpt lat="40.412564" lon="-1.195929">
        <ele>984.8</ele>
        <time>2012-08-18T16:46:16Z</time>
      </trkpt>
      <trkpt lat="40.412526" lon="-1.195889">
        <ele>984.4</ele>
        <time>2012-08-18T16:46:17Z</time>
      </trkpt>
      <trkpt lat="40.412490" lon="-1.195847">
        <ele>984.0</ele>
        <time>2012-08-18T16:46:18Z</time>
      </trkpt>
      <trkpt lat="40.412453" lon="-1.195806">
        <ele>983.6</ele>
        <time>2012-08-18T16:46:19Z</time>
      </trkpt>
      <trkpt lat="40.412378" lon="-1.195720">
        <ele>983.6</ele>
        <time>2012-08-18T16:46:21Z</time>
      </trkpt>
      <trkpt lat="40.412157" lon="-1.195490">
        <ele>983.6</ele>
        <time>2012-08-18T16:46:27Z</time>
      </trkpt>
      <trkpt lat="40.412019" lon="-1.195258">
        <ele>983.6</ele>
        <time>2012-08-18T16:46:32Z</time>
      </trkpt>
      <trkpt lat="40.411999" lon="-1.195211">
        <ele>983.6</ele>
        <time>2012-08-18T16:46:33Z</time>
      </trkpt>
      <trkpt lat="40.411973" lon="-1.195172">
        <ele>983.6</ele>
        <time>2012-08-18T16:46:34Z</time>
      </trkpt>
      <trkpt lat="40.411861" lon="-1.195013">
        <ele>983.6</ele>
        <time>2012-08-18T16:46:38Z</time>
      </trkpt>
      <trkpt lat="40.411887" lon="-1.195017">
        <ele>983.6</ele>
        <time>2012-08-18T16:47:06Z</time>
      </trkpt>
      <trkpt lat="40.411861" lon="-1.195329">
        <ele>983.6</ele>
        <time>2012-08-18T16:47:12Z</time>
      </trkpt>
      <trkpt lat="40.411858" lon="-1.195460">
        <ele>983.6</ele>
        <time>2012-08-18T16:47:16Z</time>
      </trkpt>
      <trkpt lat="40.411855" lon="-1.195458">
        <ele>983.6</ele>
        <time>2012-08-18T16:47:17Z</time>
      </trkpt>
      <trkpt lat="40.411857" lon="-1.195456">
        <ele>983.6</ele>
        <time>2012-08-18T16:47:18Z</time>
      </trkpt>
      <trkpt lat="40.411861" lon="-1.195382">
        <ele>981.6</ele>
        <time>2012-08-18T16:54:16Z</time>
      </trkpt>
      <trkpt lat="40.411853" lon="-1.195347">
        <ele>981.6</ele>
        <time>2012-08-18T16:54:17Z</time>
      </trkpt>
      <trkpt lat="40.411870" lon="-1.195108">
        <ele>981.6</ele>
        <time>2012-08-18T16:54:23Z</time>
      </trkpt>
      <trkpt lat="40.411876" lon="-1.195069">
        <ele>981.6</ele>
        <time>2012-08-18T16:54:24Z</time>
      </trkpt>
      <trkpt lat="40.411910" lon="-1.194942">
        <ele>982.0</ele>
        <time>2012-08-18T16:54:28Z</time>
      </trkpt>
      <trkpt lat="40.411911" lon="-1.194906">
        <ele>982.4</ele>
        <time>2012-08-18T16:54:29Z</time>
      </trkpt>
      <trkpt lat="40.411899" lon="-1.194869">
        <ele>982.8</ele>
        <time>2012-08-18T16:54:30Z</time>
      </trkpt>
      <trkpt lat="40.411880" lon="-1.194830">
        <ele>983.2</ele>
        <time>2012-08-18T16:54:31Z</time>
      </trkpt>
      <trkpt lat="40.411866" lon="-1.194791">
        <ele>983.6</ele>
        <time>2012-08-18T16:54:32Z</time>
      </trkpt>
      <trkpt lat="40.411850" lon="-1.194746">
        <ele>983.6</ele>
        <time>2012-08-18T16:54:33Z</time>
      </trkpt>
      <trkpt lat="40.411744" lon="-1.194439">
        <ele>983.6</ele>
        <time>2012-08-18T16:54:41Z</time>
      </trkpt>
      <trkpt lat="40.411667" lon="-1.194239">
        <ele>983.6</ele>
        <time>2012-08-18T16:54:47Z</time>
      </trkpt>
      <trkpt lat="40.411667" lon="-1.194181">
        <ele>983.6</ele>
        <time>2012-08-18T16:54:49Z</time>
      </trkpt>
      <trkpt lat="40.411710" lon="-1.194129">
        <ele>983.6</ele>
        <time>2012-08-18T16:54:51Z</time>
      </trkpt>
      <trkpt lat="40.411829" lon="-1.193961">
        <ele>983.6</ele>
        <time>2012-08-18T16:54:56Z</time>
      </trkpt>
      <trkpt lat="40.411864" lon="-1.193878">
        <ele>983.6</ele>
        <time>2012-08-18T16:54:58Z</time>
      </trkpt>
      <trkpt lat="40.411934" lon="-1.193764">
        <ele>983.6</ele>
        <time>2012-08-18T16:55:01Z</time>
      </trkpt>
      <trkpt lat="40.412029" lon="-1.193645">
        <ele>984.0</ele>
        <time>2012-08-18T16:55:04Z</time>
      </trkpt>
      <trkpt lat="40.412054" lon="-1.193612">
        <ele>984.4</ele>
        <time>2012-08-18T16:55:05Z</time>
      </trkpt>
      <trkpt lat="40.412080" lon="-1.193569">
        <ele>984.8</ele>
        <time>2012-08-18T16:55:06Z</time>
      </trkpt>
      <trkpt lat="40.412100" lon="-1.193537">
        <ele>985.2</ele>
        <time>2012-08-18T16:55:07Z</time>
      </trkpt>
      <trkpt lat="40.412121" lon="-1.193497">
        <ele>985.6</ele>
        <time>2012-08-18T16:55:08Z</time>
      </trkpt>
      <trkpt lat="40.412213" lon="-1.193395">
        <ele>985.6</ele>
        <time>2012-08-18T16:55:12Z</time>
      </trkpt>
      <trkpt lat="40.412352" lon="-1.193276">
        <ele>985.6</ele>
        <time>2012-08-18T16:55:18Z</time>
      </trkpt>
      <trkpt lat="40.412497" lon="-1.193234">
        <ele>985.6</ele>
        <time>2012-08-18T16:55:23Z</time>
      </trkpt>
      <trkpt lat="40.412655" lon="-1.193299">
        <ele>986.0</ele>
        <time>2012-08-18T16:55:27Z</time>
      </trkpt>
      <trkpt lat="40.412693" lon="-1.193317">
        <ele>986.4</ele>
        <time>2012-08-18T16:55:28Z</time>
      </trkpt>
      <trkpt lat="40.412728" lon="-1.193341">
        <ele>986.8</ele>
        <time>2012-08-18T16:55:29Z</time>
      </trkpt>
      <trkpt lat="40.412755" lon="-1.193359">
        <ele>987.2</ele>
        <time>2012-08-18T16:55:30Z</time>
      </trkpt>
      <trkpt lat="40.412780" lon="-1.193374">
        <ele>987.6</ele>
        <time>2012-08-18T16:55:31Z</time>
      </trkpt>
      <trkpt lat="40.412862" lon="-1.193406">
        <ele>987.6</ele>
        <time>2012-08-18T16:55:34Z</time>
      </trkpt>
      <trkpt lat="40.412944" lon="-1.193364">
        <ele>987.6</ele>
        <time>2012-08-18T16:55:37Z</time>
      </trkpt>
      <trkpt lat="40.412969" lon="-1.193326">
        <ele>987.6</ele>
        <time>2012-08-18T16:55:38Z</time>
      </trkpt>
      <trkpt lat="40.413180" lon="-1.193115">
        <ele>988.0</ele>
        <time>2012-08-18T16:55:45Z</time>
      </trkpt>
      <trkpt lat="40.413209" lon="-1.193088">
        <ele>988.4</ele>
        <time>2012-08-18T16:55:46Z</time>
      </trkpt>
      <trkpt lat="40.413239" lon="-1.193056">
        <ele>988.8</ele>
        <time>2012-08-18T16:55:47Z</time>
      </trkpt>
      <trkpt lat="40.413274" lon="-1.193029">
        <ele>989.2</ele>
        <time>2012-08-18T16:55:48Z</time>
      </trkpt>
      <trkpt lat="40.413308" lon="-1.193005">
        <ele>989.6</ele>
        <time>2012-08-18T16:55:49Z</time>
      </trkpt>
      <trkpt lat="40.413394" lon="-1.192915">
        <ele>989.6</ele>
        <time>2012-08-18T16:55:52Z</time>
      </trkpt>
      <trkpt lat="40.413598" lon="-1.192732">
        <ele>989.6</ele>
        <time>2012-08-18T16:55:59Z</time>
      </trkpt>
      <trkpt lat="40.413786" lon="-1.192581">
        <ele>989.6</ele>
        <time>2012-08-18T16:56:05Z</time>
      </trkpt>
      <trkpt lat="40.413948" lon="-1.192428">
        <ele>989.6</ele>
        <time>2012-08-18T16:56:11Z</time>
      </trkpt>
      <trkpt lat="40.414029" lon="-1.192342">
        <ele>990.0</ele>
        <time>2012-08-18T16:56:14Z</time>
      </trkpt>
      <trkpt lat="40.414058" lon="-1.192317">
        <ele>990.6</ele>
        <time>2012-08-18T16:56:15Z</time>
      </trkpt>
      <trkpt lat="40.414087" lon="-1.192294">
        <ele>991.0</ele>
        <time>2012-08-18T16:56:16Z</time>
      </trkpt>
      <trkpt lat="40.414113" lon="-1.192263">
        <ele>991.4</ele>
        <time>2012-08-18T16:56:17Z</time>
      </trkpt>
      <trkpt lat="40.414141" lon="-1.192236">
        <ele>991.8</ele>
        <time>2012-08-18T16:56:18Z</time>
      </trkpt>
      <trkpt lat="40.414172" lon="-1.192210">
        <ele>991.8</ele>
        <time>2012-08-18T16:56:19Z</time>
      </trkpt>
      <trkpt lat="40.414417" lon="-1.191965">
        <ele>991.8</ele>
        <time>2012-08-18T16:56:28Z</time>
      </trkpt>
      <trkpt lat="40.414463" lon="-1.191894">
        <ele>992.2</ele>
        <time>2012-08-18T16:56:31Z</time>
      </trkpt>
      <trkpt lat="40.414458" lon="-1.191870">
        <ele>992.6</ele>
        <time>2012-08-18T16:56:32Z</time>
      </trkpt>
      <trkpt lat="40.414446" lon="-1.191846">
        <ele>993.0</ele>
        <time>2012-08-18T16:56:33Z</time>
      </trkpt>
      <trkpt lat="40.414426" lon="-1.191822">
        <ele>993.6</ele>
        <time>2012-08-18T16:56:34Z</time>
      </trkpt>
      <trkpt lat="40.414407" lon="-1.191792">
        <ele>994.0</ele>
        <time>2012-08-18T16:56:35Z</time>
      </trkpt>
      <trkpt lat="40.414377" lon="-1.191739">
        <ele>994.4</ele>
        <time>2012-08-18T16:56:37Z</time>
      </trkpt>
      <trkpt lat="40.414336" lon="-1.191678">
        <ele>995.2</ele>
        <time>2012-08-18T16:56:39Z</time>
      </trkpt>
      <trkpt lat="40.414316" lon="-1.191644">
        <ele>995.6</ele>
        <time>2012-08-18T16:56:40Z</time>
      </trkpt>
      <trkpt lat="40.414293" lon="-1.191613">
        <ele>996.0</ele>
        <time>2012-08-18T16:56:41Z</time>
      </trkpt>
      <trkpt lat="40.414182" lon="-1.191423">
        <ele>996.0</ele>
        <time>2012-08-18T16:56:46Z</time>
      </trkpt>
      <trkpt lat="40.413944" lon="-1.191075">
        <ele>996.0</ele>
        <time>2012-08-18T16:56:55Z</time>
      </trkpt>
      <trkpt lat="40.413655" lon="-1.190720">
        <ele>996.0</ele>
        <time>2012-08-18T16:57:04Z</time>
      </trkpt>
      <trkpt lat="40.413339" lon="-1.190372">
        <ele>996.0</ele>
        <time>2012-08-18T16:57:12Z</time>
      </trkpt>
      <trkpt lat="40.412960" lon="-1.189979">
        <ele>995.6</ele>
        <time>2012-08-18T16:57:21Z</time>
      </trkpt>
      <trkpt lat="40.412915" lon="-1.189931">
        <ele>995.2</ele>
        <time>2012-08-18T16:57:22Z</time>
      </trkpt>
      <trkpt lat="40.412871" lon="-1.189883">
        <ele>994.8</ele>
        <time>2012-08-18T16:57:23Z</time>
      </trkpt>
      <trkpt lat="40.412826" lon="-1.189837">
        <ele>994.4</ele>
        <time>2012-08-18T16:57:24Z</time>
      </trkpt>
      <trkpt lat="40.412783" lon="-1.189793">
        <ele>994.0</ele>
        <time>2012-08-18T16:57:25Z</time>
      </trkpt>
      <trkpt lat="40.412606" lon="-1.189599">
        <ele>994.0</ele>
        <time>2012-08-18T16:57:29Z</time>
      </trkpt>
      <trkpt lat="40.412181" lon="-1.189150">
        <ele>994.0</ele>
        <time>2012-08-18T16:57:38Z</time>
      </trkpt>
      <trkpt lat="40.412133" lon="-1.189100">
        <ele>994.0</ele>
        <time>2012-08-18T16:57:39Z</time>
      </trkpt>
      <trkpt lat="40.411694" lon="-1.188644">
        <ele>994.0</ele>
        <time>2012-08-18T16:57:48Z</time>
      </trkpt>
      <trkpt lat="40.411597" lon="-1.188546">
        <ele>994.0</ele>
        <time>2012-08-18T16:57:50Z</time>
      </trkpt>
      <trkpt lat="40.411251" lon="-1.188156">
        <ele>994.0</ele>
        <time>2012-08-18T16:57:57Z</time>
      </trkpt>
      <trkpt lat="40.410804" lon="-1.187677">
        <ele>994.0</ele>
        <time>2012-08-18T16:58:06Z</time>
      </trkpt>
      <trkpt lat="40.410702" lon="-1.187570">
        <ele>994.0</ele>
        <time>2012-08-18T16:58:08Z</time>
      </trkpt>
      <trkpt lat="40.410255" lon="-1.187093">
        <ele>994.0</ele>
        <time>2012-08-18T16:58:17Z</time>
      </trkpt>
      <trkpt lat="40.409866" lon="-1.186672">
        <ele>994.0</ele>
        <time>2012-08-18T16:58:25Z</time>
      </trkpt>
      <trkpt lat="40.409611" lon="-1.186410">
        <ele>993.6</ele>
        <time>2012-08-18T16:58:30Z</time>
      </trkpt>
      <trkpt lat="40.409561" lon="-1.186358">
        <ele>993.2</ele>
        <time>2012-08-18T16:58:31Z</time>
      </trkpt>
      <trkpt lat="40.409510" lon="-1.186305">
        <ele>992.8</ele>
        <time>2012-08-18T16:58:32Z</time>
      </trkpt>
      <trkpt lat="40.409461" lon="-1.186251">
        <ele>992.4</ele>
        <time>2012-08-18T16:58:33Z</time>
      </trkpt>
      <trkpt lat="40.409414" lon="-1.186194">
        <ele>992.0</ele>
        <time>2012-08-18T16:58:34Z</time>
      </trkpt>
      <trkpt lat="40.409101" lon="-1.185875">
        <ele>992.0</ele>
        <time>2012-08-18T16:58:40Z</time>
      </trkpt>
      <trkpt lat="40.408687" lon="-1.185438">
        <ele>992.0</ele>
        <time>2012-08-18T16:58:48Z</time>
      </trkpt>
      <trkpt lat="40.408530" lon="-1.185276">
        <ele>992.0</ele>
        <time>2012-08-18T16:58:51Z</time>
      </trkpt>
      <trkpt lat="40.408115" lon="-1.184837">
        <ele>992.0</ele>
        <time>2012-08-18T16:58:59Z</time>
      </trkpt>
      <trkpt lat="40.407677" lon="-1.184375">
        <ele>992.0</ele>
        <time>2012-08-18T16:59:07Z</time>
      </trkpt>
      <trkpt lat="40.407620" lon="-1.184315">
        <ele>992.0</ele>
        <time>2012-08-18T16:59:08Z</time>
      </trkpt>
      <trkpt lat="40.407171" lon="-1.183825">
        <ele>992.0</ele>
        <time>2012-08-18T16:59:16Z</time>
      </trkpt>
      <trkpt lat="40.407113" lon="-1.183764">
        <ele>992.0</ele>
        <time>2012-08-18T16:59:17Z</time>
      </trkpt>
      <trkpt lat="40.406780" lon="-1.183391">
        <ele>992.0</ele>
        <time>2012-08-18T16:59:23Z</time>
      </trkpt>
      <trkpt lat="40.406337" lon="-1.182918">
        <ele>992.0</ele>
        <time>2012-08-18T16:59:31Z</time>
      </trkpt>
      <trkpt lat="40.405897" lon="-1.182466">
        <ele>992.0</ele>
        <time>2012-08-18T16:59:39Z</time>
      </trkpt>
      <trkpt lat="40.405451" lon="-1.181988">
        <ele>992.0</ele>
        <time>2012-08-18T16:59:47Z</time>
      </trkpt>
      <trkpt lat="40.405335" lon="-1.181864">
        <ele>992.0</ele>
        <time>2012-08-18T16:59:49Z</time>
      </trkpt>
      <trkpt lat="40.405221" lon="-1.181741">
        <ele>991.6</ele>
        <time>2012-08-18T16:59:51Z</time>
      </trkpt>
      <trkpt lat="40.405162" lon="-1.181679">
        <ele>991.2</ele>
        <time>2012-08-18T16:59:52Z</time>
      </trkpt>
      <trkpt lat="40.405104" lon="-1.181617">
        <ele>990.8</ele>
        <time>2012-08-18T16:59:53Z</time>
      </trkpt>
      <trkpt lat="40.405047" lon="-1.181553">
        <ele>990.4</ele>
        <time>2012-08-18T16:59:54Z</time>
      </trkpt>
      <trkpt lat="40.404990" lon="-1.181490">
        <ele>990.0</ele>
        <time>2012-08-18T16:59:55Z</time>
      </trkpt>
      <trkpt lat="40.404653" lon="-1.181114">
        <ele>990.0</ele>
        <time>2012-08-18T17:00:01Z</time>
      </trkpt>
      <trkpt lat="40.404237" lon="-1.180586">
        <ele>990.0</ele>
        <time>2012-08-18T17:00:09Z</time>
      </trkpt>
      <trkpt lat="40.404190" lon="-1.180515">
        <ele>990.0</ele>
        <time>2012-08-18T17:00:10Z</time>
      </trkpt>
      <trkpt lat="40.403845" lon="-1.179944">
        <ele>990.0</ele>
        <time>2012-08-18T17:00:18Z</time>
      </trkpt>
      <trkpt lat="40.403633" lon="-1.179497">
        <ele>990.0</ele>
        <time>2012-08-18T17:00:24Z</time>
      </trkpt>
      <trkpt lat="40.403504" lon="-1.179223">
        <ele>990.4</ele>
        <time>2012-08-18T17:00:28Z</time>
      </trkpt>
      <trkpt lat="40.403481" lon="-1.179164">
        <ele>990.8</ele>
        <time>2012-08-18T17:00:29Z</time>
      </trkpt>
      <trkpt lat="40.403459" lon="-1.179108">
        <ele>991.2</ele>
        <time>2012-08-18T17:00:30Z</time>
      </trkpt>
      <trkpt lat="40.403436" lon="-1.179052">
        <ele>991.6</ele>
        <time>2012-08-18T17:00:31Z</time>
      </trkpt>
      <trkpt lat="40.403414" lon="-1.178997">
        <ele>992.0</ele>
        <time>2012-08-18T17:00:32Z</time>
      </trkpt>
      <trkpt lat="40.403340" lon="-1.178784">
        <ele>992.0</ele>
        <time>2012-08-18T17:00:36Z</time>
      </trkpt>
      <trkpt lat="40.403324" lon="-1.178740">
        <ele>992.4</ele>
        <time>2012-08-18T17:00:37Z</time>
      </trkpt>
      <trkpt lat="40.403309" lon="-1.178700">
        <ele>992.8</ele>
        <time>2012-08-18T17:00:38Z</time>
      </trkpt>
      <trkpt lat="40.403294" lon="-1.178661">
        <ele>993.2</ele>
        <time>2012-08-18T17:00:39Z</time>
      </trkpt>
      <trkpt lat="40.403280" lon="-1.178623">
        <ele>993.6</ele>
        <time>2012-08-18T17:00:40Z</time>
      </trkpt>
      <trkpt lat="40.403266" lon="-1.178587">
        <ele>994.0</ele>
        <time>2012-08-18T17:00:41Z</time>
      </trkpt>
      <trkpt lat="40.403238" lon="-1.178511">
        <ele>994.0</ele>
        <time>2012-08-18T17:00:43Z</time>
      </trkpt>
      <trkpt lat="40.403144" lon="-1.178249">
        <ele>994.4</ele>
        <time>2012-08-18T17:00:51Z</time>
      </trkpt>
      <trkpt lat="40.403134" lon="-1.178222">
        <ele>994.8</ele>
        <time>2012-08-18T17:00:52Z</time>
      </trkpt>
      <trkpt lat="40.403127" lon="-1.178193">
        <ele>995.2</ele>
        <time>2012-08-18T17:00:53Z</time>
      </trkpt>
      <trkpt lat="40.403119" lon="-1.178158">
        <ele>995.6</ele>
        <time>2012-08-18T17:00:54Z</time>
      </trkpt>
      <trkpt lat="40.403110" lon="-1.178124">
        <ele>996.0</ele>
        <time>2012-08-18T17:00:55Z</time>
      </trkpt>
      <trkpt lat="40.403084" lon="-1.178065">
        <ele>996.0</ele>
        <time>2012-08-18T17:00:57Z</time>
      </trkpt>
      <trkpt lat="40.402990" lon="-1.177837">
        <ele>996.0</ele>
        <time>2012-08-18T17:01:04Z</time>
      </trkpt>
      <trkpt lat="40.402912" lon="-1.177621">
        <ele>996.0</ele>
        <time>2012-08-18T17:01:09Z</time>
      </trkpt>
      <trkpt lat="40.402789" lon="-1.177263">
        <ele>996.0</ele>
        <time>2012-08-18T17:01:15Z</time>
      </trkpt>
      <trkpt lat="40.402759" lon="-1.177186">
        <ele>995.6</ele>
        <time>2012-08-18T17:01:16Z</time>
      </trkpt>
      <trkpt lat="40.402728" lon="-1.177105">
        <ele>995.2</ele>
        <time>2012-08-18T17:01:17Z</time>
      </trkpt>
      <trkpt lat="40.402695" lon="-1.177017">
        <ele>994.8</ele>
        <time>2012-08-18T17:01:18Z</time>
      </trkpt>
      <trkpt lat="40.402660" lon="-1.176923">
        <ele>994.4</ele>
        <time>2012-08-18T17:01:19Z</time>
      </trkpt>
      <trkpt lat="40.402623" lon="-1.176824">
        <ele>993.8</ele>
        <time>2012-08-18T17:01:20Z</time>
      </trkpt>
      <trkpt lat="40.402584" lon="-1.176720">
        <ele>993.4</ele>
        <time>2012-08-18T17:01:21Z</time>
      </trkpt>
      <trkpt lat="40.402543" lon="-1.176607">
        <ele>992.8</ele>
        <time>2012-08-18T17:01:22Z</time>
      </trkpt>
      <trkpt lat="40.402503" lon="-1.176496">
        <ele>992.4</ele>
        <time>2012-08-18T17:01:23Z</time>
      </trkpt>
      <trkpt lat="40.402458" lon="-1.176384">
        <ele>991.8</ele>
        <time>2012-08-18T17:01:24Z</time>
      </trkpt>
      <trkpt lat="40.402407" lon="-1.176275">
        <ele>991.2</ele>
        <time>2012-08-18T17:01:25Z</time>
      </trkpt>
      <trkpt lat="40.402350" lon="-1.176169">
        <ele>990.6</ele>
        <time>2012-08-18T17:01:26Z</time>
      </trkpt>
      <trkpt lat="40.402293" lon="-1.176064">
        <ele>990.0</ele>
        <time>2012-08-18T17:01:27Z</time>
      </trkpt>
      <trkpt lat="40.402244" lon="-1.175958">
        <ele>989.4</ele>
        <time>2012-08-18T17:01:28Z</time>
      </trkpt>
      <trkpt lat="40.402203" lon="-1.175855">
        <ele>988.8</ele>
        <time>2012-08-18T17:01:29Z</time>
      </trkpt>
      <trkpt lat="40.402166" lon="-1.175752">
        <ele>988.0</ele>
        <time>2012-08-18T17:01:30Z</time>
      </trkpt>
      <trkpt lat="40.402135" lon="-1.175663">
        <ele>987.4</ele>
        <time>2012-08-18T17:01:31Z</time>
      </trkpt>
      <trkpt lat="40.402107" lon="-1.175577">
        <ele>986.8</ele>
        <time>2012-08-18T17:01:32Z</time>
      </trkpt>
      <trkpt lat="40.402082" lon="-1.175489">
        <ele>986.8</ele>
        <time>2012-08-18T17:01:33Z</time>
      </trkpt>
      <trkpt lat="40.401919" lon="-1.175025">
        <ele>986.8</ele>
        <time>2012-08-18T17:01:39Z</time>
      </trkpt>
      <trkpt lat="40.401691" lon="-1.174384">
        <ele>986.8</ele>
        <time>2012-08-18T17:01:48Z</time>
      </trkpt>
      <trkpt lat="40.401506" lon="-1.173853">
        <ele>986.8</ele>
        <time>2012-08-18T17:01:56Z</time>
      </trkpt>
      <trkpt lat="40.401410" lon="-1.173589">
        <ele>987.6</ele>
        <time>2012-08-18T17:02:00Z</time>
      </trkpt>
      <trkpt lat="40.401386" lon="-1.173524">
        <ele>988.0</ele>
        <time>2012-08-18T17:02:01Z</time>
      </trkpt>
      <trkpt lat="40.401364" lon="-1.173458">
        <ele>988.6</ele>
        <time>2012-08-18T17:02:02Z</time>
      </trkpt>
      <trkpt lat="40.401341" lon="-1.173393">
        <ele>989.0</ele>
        <time>2012-08-18T17:02:03Z</time>
      </trkpt>
      <trkpt lat="40.401317" lon="-1.173327">
        <ele>989.0</ele>
        <time>2012-08-18T17:02:04Z</time>
      </trkpt>
      <trkpt lat="40.401181" lon="-1.172943">
        <ele>988.6</ele>
        <time>2012-08-18T17:02:10Z</time>
      </trkpt>
      <trkpt lat="40.401159" lon="-1.172881">
        <ele>988.2</ele>
        <time>2012-08-18T17:02:11Z</time>
      </trkpt>
      <trkpt lat="40.401137" lon="-1.172818">
        <ele>987.8</ele>
        <time>2012-08-18T17:02:12Z</time>
      </trkpt>
      <trkpt lat="40.401116" lon="-1.172756">
        <ele>987.4</ele>
        <time>2012-08-18T17:02:13Z</time>
      </trkpt>
      <trkpt lat="40.401093" lon="-1.172695">
        <ele>986.8</ele>
        <time>2012-08-18T17:02:14Z</time>
      </trkpt>
      <trkpt lat="40.401004" lon="-1.172439">
        <ele>986.8</ele>
        <time>2012-08-18T17:02:18Z</time>
      </trkpt>
      <trkpt lat="40.400826" lon="-1.171933">
        <ele>986.8</ele>
        <time>2012-08-18T17:02:26Z</time>
      </trkpt>
      <trkpt lat="40.400640" lon="-1.171396">
        <ele>986.8</ele>
        <time>2012-08-18T17:02:34Z</time>
      </trkpt>
      <trkpt lat="40.400425" lon="-1.170814">
        <ele>986.8</ele>
        <time>2012-08-18T17:02:43Z</time>
      </trkpt>
      <trkpt lat="40.400245" lon="-1.170290">
        <ele>986.8</ele>
        <time>2012-08-18T17:02:51Z</time>
      </trkpt>
      <trkpt lat="40.400126" lon="-1.169941">
        <ele>986.8</ele>
        <time>2012-08-18T17:02:56Z</time>
      </trkpt>
      <trkpt lat="40.399984" lon="-1.169560">
        <ele>986.8</ele>
        <time>2012-08-18T17:03:02Z</time>
      </trkpt>
      <trkpt lat="40.399746" lon="-1.168907">
        <ele>986.8</ele>
        <time>2012-08-18T17:03:12Z</time>
      </trkpt>
      <trkpt lat="40.399536" lon="-1.168291">
        <ele>986.8</ele>
        <time>2012-08-18T17:03:21Z</time>
      </trkpt>
      <trkpt lat="40.399340" lon="-1.167748">
        <ele>986.8</ele>
        <time>2012-08-18T17:03:29Z</time>
      </trkpt>
      <trkpt lat="40.399122" lon="-1.167140">
        <ele>986.8</ele>
        <time>2012-08-18T17:03:38Z</time>
      </trkpt>
      <trkpt lat="40.398956" lon="-1.166667">
        <ele>986.8</ele>
        <time>2012-08-18T17:03:45Z</time>
      </trkpt>
      <trkpt lat="40.398807" lon="-1.166253">
        <ele>986.4</ele>
        <time>2012-08-18T17:03:51Z</time>
      </trkpt>
      <trkpt lat="40.398782" lon="-1.166184">
        <ele>986.0</ele>
        <time>2012-08-18T17:03:52Z</time>
      </trkpt>
      <trkpt lat="40.398758" lon="-1.166116">
        <ele>985.6</ele>
        <time>2012-08-18T17:03:53Z</time>
      </trkpt>
      <trkpt lat="40.398736" lon="-1.166050">
        <ele>985.2</ele>
        <time>2012-08-18T17:03:54Z</time>
      </trkpt>
      <trkpt lat="40.398714" lon="-1.165982">
        <ele>984.6</ele>
        <time>2012-08-18T17:03:55Z</time>
      </trkpt>
      <trkpt lat="40.398550" lon="-1.165511">
        <ele>984.6</ele>
        <time>2012-08-18T17:04:02Z</time>
      </trkpt>
      <trkpt lat="40.398410" lon="-1.165111">
        <ele>984.6</ele>
        <time>2012-08-18T17:04:08Z</time>
      </trkpt>
      <trkpt lat="40.398172" lon="-1.164457">
        <ele>984.6</ele>
        <time>2012-08-18T17:04:18Z</time>
      </trkpt>
      <trkpt lat="40.397935" lon="-1.163774">
        <ele>984.6</ele>
        <time>2012-08-18T17:04:28Z</time>
      </trkpt>
      <trkpt lat="40.397718" lon="-1.163162">
        <ele>984.6</ele>
        <time>2012-08-18T17:04:37Z</time>
      </trkpt>
      <trkpt lat="40.397498" lon="-1.162542">
        <ele>984.6</ele>
        <time>2012-08-18T17:04:46Z</time>
      </trkpt>
      <trkpt lat="40.397276" lon="-1.161918">
        <ele>984.6</ele>
        <time>2012-08-18T17:04:55Z</time>
      </trkpt>
      <trkpt lat="40.397044" lon="-1.161245">
        <ele>984.6</ele>
        <time>2012-08-18T17:05:05Z</time>
      </trkpt>
      <trkpt lat="40.396849" lon="-1.160694">
        <ele>984.6</ele>
        <time>2012-08-18T17:05:13Z</time>
      </trkpt>
      <trkpt lat="40.396628" lon="-1.160077">
        <ele>984.6</ele>
        <time>2012-08-18T17:05:22Z</time>
      </trkpt>
      <trkpt lat="40.396407" lon="-1.159446">
        <ele>984.6</ele>
        <time>2012-08-18T17:05:31Z</time>
      </trkpt>
      <trkpt lat="40.396246" lon="-1.159001">
        <ele>984.6</ele>
        <time>2012-08-18T17:05:38Z</time>
      </trkpt>
      <trkpt lat="40.396056" lon="-1.158484">
        <ele>984.6</ele>
        <time>2012-08-18T17:05:46Z</time>
      </trkpt>
      <trkpt lat="40.395992" lon="-1.158359">
        <ele>984.2</ele>
        <time>2012-08-18T17:05:48Z</time>
      </trkpt>
      <trkpt lat="40.395954" lon="-1.158300">
        <ele>983.8</ele>
        <time>2012-08-18T17:05:49Z</time>
      </trkpt>
      <trkpt lat="40.395912" lon="-1.158242">
        <ele>983.4</ele>
        <time>2012-08-18T17:05:50Z</time>
      </trkpt>
      <trkpt lat="40.395866" lon="-1.158180">
        <ele>983.0</ele>
        <time>2012-08-18T17:05:51Z</time>
      </trkpt>
      <trkpt lat="40.395819" lon="-1.158122">
        <ele>982.6</ele>
        <time>2012-08-18T17:05:52Z</time>
      </trkpt>
      <trkpt lat="40.395641" lon="-1.157907">
        <ele>982.2</ele>
        <time>2012-08-18T17:05:56Z</time>
      </trkpt>
      <trkpt lat="40.395612" lon="-1.157852">
        <ele>981.8</ele>
        <time>2012-08-18T17:05:57Z</time>
      </trkpt>
      <trkpt lat="40.395591" lon="-1.157791">
        <ele>981.4</ele>
        <time>2012-08-18T17:05:58Z</time>
      </trkpt>
      <trkpt lat="40.395583" lon="-1.157726">
        <ele>981.0</ele>
        <time>2012-08-18T17:05:59Z</time>
      </trkpt>
      <trkpt lat="40.395592" lon="-1.157663">
        <ele>980.6</ele>
        <time>2012-08-18T17:06:00Z</time>
      </trkpt>
      <trkpt lat="40.395636" lon="-1.157557">
        <ele>980.6</ele>
        <time>2012-08-18T17:06:02Z</time>
      </trkpt>
      <trkpt lat="40.395844" lon="-1.157175">
        <ele>980.6</ele>
        <time>2012-08-18T17:06:10Z</time>
      </trkpt>
      <trkpt lat="40.395860" lon="-1.157125">
        <ele>980.6</ele>
        <time>2012-08-18T17:06:11Z</time>
      </trkpt>
      <trkpt lat="40.395886" lon="-1.157027">
        <ele>980.6</ele>
        <time>2012-08-18T17:06:13Z</time>
      </trkpt>
      <trkpt lat="40.395894" lon="-1.156928">
        <ele>980.6</ele>
        <time>2012-08-18T17:06:15Z</time>
      </trkpt>
      <trkpt lat="40.395834" lon="-1.156758">
        <ele>980.6</ele>
        <time>2012-08-18T17:06:19Z</time>
      </trkpt>
      <trkpt lat="40.395807" lon="-1.156720">
        <ele>980.6</ele>
        <time>2012-08-18T17:06:20Z</time>
      </trkpt>
      <trkpt lat="40.395772" lon="-1.156685">
        <ele>980.6</ele>
        <time>2012-08-18T17:06:21Z</time>
      </trkpt>
      <trkpt lat="40.395708" lon="-1.156637">
        <ele>980.6</ele>
        <time>2012-08-18T17:06:23Z</time>
      </trkpt>
      <trkpt lat="40.395678" lon="-1.156619">
        <ele>980.6</ele>
        <time>2012-08-18T17:06:24Z</time>
      </trkpt>
      <trkpt lat="40.395581" lon="-1.156542">
        <ele>980.6</ele>
        <time>2012-08-18T17:06:27Z</time>
      </trkpt>
      <trkpt lat="40.395468" lon="-1.156411">
        <ele>980.6</ele>
        <time>2012-08-18T17:06:31Z</time>
      </trkpt>
      <trkpt lat="40.395441" lon="-1.156374">
        <ele>980.6</ele>
        <time>2012-08-18T17:06:32Z</time>
      </trkpt>
      <trkpt lat="40.395284" lon="-1.156148">
        <ele>980.6</ele>
        <time>2012-08-18T17:06:38Z</time>
      </trkpt>
      <trkpt lat="40.395210" lon="-1.156022">
        <ele>980.6</ele>
        <time>2012-08-18T17:06:41Z</time>
      </trkpt>
      <trkpt lat="40.395141" lon="-1.155882">
        <ele>980.6</ele>
        <time>2012-08-18T17:06:44Z</time>
      </trkpt>
      <trkpt lat="40.394975" lon="-1.155435">
        <ele>980.6</ele>
        <time>2012-08-18T17:06:52Z</time>
      </trkpt>
      <trkpt lat="40.394792" lon="-1.154902">
        <ele>980.6</ele>
        <time>2012-08-18T17:07:00Z</time>
      </trkpt>
      <trkpt lat="40.394566" lon="-1.154262">
        <ele>980.6</ele>
        <time>2012-08-18T17:07:09Z</time>
      </trkpt>
      <trkpt lat="40.394539" lon="-1.154191">
        <ele>980.6</ele>
        <time>2012-08-18T17:07:10Z</time>
      </trkpt>
      <trkpt lat="40.394362" lon="-1.153701">
        <ele>980.6</ele>
        <time>2012-08-18T17:07:17Z</time>
      </trkpt>
      <trkpt lat="40.394118" lon="-1.153027">
        <ele>980.6</ele>
        <time>2012-08-18T17:07:27Z</time>
      </trkpt>
      <trkpt lat="40.393922" lon="-1.152481">
        <ele>980.6</ele>
        <time>2012-08-18T17:07:35Z</time>
      </trkpt>
      <trkpt lat="40.393780" lon="-1.152063">
        <ele>980.2</ele>
        <time>2012-08-18T17:07:41Z</time>
      </trkpt>
      <trkpt lat="40.393757" lon="-1.151995">
        <ele>979.8</ele>
        <time>2012-08-18T17:07:42Z</time>
      </trkpt>
      <trkpt lat="40.393732" lon="-1.151922">
        <ele>979.4</ele>
        <time>2012-08-18T17:07:43Z</time>
      </trkpt>
      <trkpt lat="40.393708" lon="-1.151852">
        <ele>979.0</ele>
        <time>2012-08-18T17:07:44Z</time>
      </trkpt>
      <trkpt lat="40.393683" lon="-1.151783">
        <ele>978.6</ele>
        <time>2012-08-18T17:07:45Z</time>
      </trkpt>
      <trkpt lat="40.393478" lon="-1.151214">
        <ele>978.6</ele>
        <time>2012-08-18T17:07:53Z</time>
      </trkpt>
      <trkpt lat="40.393278" lon="-1.150651">
        <ele>978.6</ele>
        <time>2012-08-18T17:08:01Z</time>
      </trkpt>
      <trkpt lat="40.393061" lon="-1.150031">
        <ele>978.6</ele>
        <time>2012-08-18T17:08:10Z</time>
      </trkpt>
      <trkpt lat="40.392931" lon="-1.149679">
        <ele>978.2</ele>
        <time>2012-08-18T17:08:15Z</time>
      </trkpt>
      <trkpt lat="40.392906" lon="-1.149607">
        <ele>977.8</ele>
        <time>2012-08-18T17:08:16Z</time>
      </trkpt>
      <trkpt lat="40.392881" lon="-1.149537">
        <ele>977.2</ele>
        <time>2012-08-18T17:08:17Z</time>
      </trkpt>
      <trkpt lat="40.392858" lon="-1.149467">
        <ele>976.8</ele>
        <time>2012-08-18T17:08:18Z</time>
      </trkpt>
      <trkpt lat="40.392834" lon="-1.149397">
        <ele>976.4</ele>
        <time>2012-08-18T17:08:19Z</time>
      </trkpt>
      <trkpt lat="40.392642" lon="-1.148845">
        <ele>976.4</ele>
        <time>2012-08-18T17:08:27Z</time>
      </trkpt>
      <trkpt lat="40.392463" lon="-1.148337">
        <ele>976.4</ele>
        <time>2012-08-18T17:08:34Z</time>
      </trkpt>
      <trkpt lat="40.392385" lon="-1.148116">
        <ele>976.0</ele>
        <time>2012-08-18T17:08:37Z</time>
      </trkpt>
      <trkpt lat="40.392361" lon="-1.148040">
        <ele>975.6</ele>
        <time>2012-08-18T17:08:38Z</time>
      </trkpt>
      <trkpt lat="40.392338" lon="-1.147964">
        <ele>975.2</ele>
        <time>2012-08-18T17:08:39Z</time>
      </trkpt>
      <trkpt lat="40.392319" lon="-1.147888">
        <ele>974.8</ele>
        <time>2012-08-18T17:08:40Z</time>
      </trkpt>
      <trkpt lat="40.392300" lon="-1.147811">
        <ele>974.4</ele>
        <time>2012-08-18T17:08:41Z</time>
      </trkpt>
      <trkpt lat="40.392155" lon="-1.147186">
        <ele>974.4</ele>
        <time>2012-08-18T17:08:49Z</time>
      </trkpt>
      <trkpt lat="40.392086" lon="-1.146616">
        <ele>974.4</ele>
        <time>2012-08-18T17:08:56Z</time>
      </trkpt>
      <trkpt lat="40.392074" lon="-1.146362">
        <ele>974.0</ele>
        <time>2012-08-18T17:08:59Z</time>
      </trkpt>
      <trkpt lat="40.392074" lon="-1.146275">
        <ele>973.6</ele>
        <time>2012-08-18T17:09:00Z</time>
      </trkpt>
      <trkpt lat="40.392073" lon="-1.146190">
        <ele>972.8</ele>
        <time>2012-08-18T17:09:01Z</time>
      </trkpt>
      <trkpt lat="40.392075" lon="-1.146108">
        <ele>972.4</ele>
        <time>2012-08-18T17:09:02Z</time>
      </trkpt>
      <trkpt lat="40.392079" lon="-1.145449">
        <ele>972.4</ele>
        <time>2012-08-18T17:09:10Z</time>
      </trkpt>
      <trkpt lat="40.392082" lon="-1.145279">
        <ele>972.0</ele>
        <time>2012-08-18T17:09:12Z</time>
      </trkpt>
      <trkpt lat="40.392084" lon="-1.145193">
        <ele>971.4</ele>
        <time>2012-08-18T17:09:13Z</time>
      </trkpt>
      <trkpt lat="40.392084" lon="-1.145107">
        <ele>971.0</ele>
        <time>2012-08-18T17:09:14Z</time>
      </trkpt>
      <trkpt lat="40.392085" lon="-1.145021">
        <ele>970.6</ele>
        <time>2012-08-18T17:09:15Z</time>
      </trkpt>
      <trkpt lat="40.392084" lon="-1.144932">
        <ele>970.2</ele>
        <time>2012-08-18T17:09:16Z</time>
      </trkpt>
    </trkseg>
  </trk>
  <trk>
    <name>T3303249-8</name>
    <cmt>La ruta empieza en Ojos Negros. Hasta Santa Eulalia va por una carretera comarcal apenas transitada. Hay un tramo de unos 40 km durante el puerto del Escandón que no aparece reflejado en el track porque me quedé sin batería en el GPS pero la vía verde no tiene pérdida en esa zona</cmt>
    <desc>La ruta empieza en Ojos Negros. Hasta Santa Eulalia va por una carretera comarcal apenas transitada. Hay un tramo de unos 40 km durante el puerto del Escandón que no aparece reflejado en el track porque me quedé sin batería en el GPS pero la vía verde no tiene pérdida en esa zona</desc>
    <trkseg>
      <trkpt lat="40.392085" lon="-1.144847">
        <ele>970.2</ele>
        <time>2012-08-18T17:09:17Z</time>
      </trkpt>
      <trkpt lat="40.392087" lon="-1.144153">
        <ele>970.2</ele>
        <time>2012-08-18T17:09:25Z</time>
      </trkpt>
      <trkpt lat="40.392077" lon="-1.143456">
        <ele>970.2</ele>
        <time>2012-08-18T17:09:33Z</time>
      </trkpt>
      <trkpt lat="40.392073" lon="-1.143370">
        <ele>970.2</ele>
        <time>2012-08-18T17:09:34Z</time>
      </trkpt>
      <trkpt lat="40.392013" lon="-1.142621">
        <ele>970.2</ele>
        <time>2012-08-18T17:09:43Z</time>
      </trkpt>
      <trkpt lat="40.391966" lon="-1.142395">
        <ele>969.8</ele>
        <time>2012-08-18T17:09:46Z</time>
      </trkpt>
      <trkpt lat="40.391949" lon="-1.142318">
        <ele>969.2</ele>
        <time>2012-08-18T17:09:47Z</time>
      </trkpt>
      <trkpt lat="40.391933" lon="-1.142249">
        <ele>968.8</ele>
        <time>2012-08-18T17:09:48Z</time>
      </trkpt>
      <trkpt lat="40.391914" lon="-1.142182">
        <ele>968.2</ele>
        <time>2012-08-18T17:09:49Z</time>
      </trkpt>
      <trkpt lat="40.391896" lon="-1.142113">
        <ele>967.8</ele>
        <time>2012-08-18T17:09:50Z</time>
      </trkpt>
      <trkpt lat="40.391825" lon="-1.141902">
        <ele>967.8</ele>
        <time>2012-08-18T17:09:53Z</time>
      </trkpt>
      <trkpt lat="40.391746" lon="-1.141704">
        <ele>967.4</ele>
        <time>2012-08-18T17:09:56Z</time>
      </trkpt>
      <trkpt lat="40.391717" lon="-1.141641">
        <ele>967.0</ele>
        <time>2012-08-18T17:09:57Z</time>
      </trkpt>
      <trkpt lat="40.391687" lon="-1.141576">
        <ele>966.4</ele>
        <time>2012-08-18T17:09:58Z</time>
      </trkpt>
      <trkpt lat="40.391652" lon="-1.141514">
        <ele>966.0</ele>
        <time>2012-08-18T17:09:59Z</time>
      </trkpt>
      <trkpt lat="40.391614" lon="-1.141452">
        <ele>965.6</ele>
        <time>2012-08-18T17:10:00Z</time>
      </trkpt>
      <trkpt lat="40.391374" lon="-1.141037">
        <ele>965.6</ele>
        <time>2012-08-18T17:10:06Z</time>
      </trkpt>
      <trkpt lat="40.391208" lon="-1.140741">
        <ele>965.6</ele>
        <time>2012-08-18T17:10:10Z</time>
      </trkpt>
      <trkpt lat="40.391114" lon="-1.140632">
        <ele>965.6</ele>
        <time>2012-08-18T17:10:12Z</time>
      </trkpt>
      <trkpt lat="40.390973" lon="-1.140473">
        <ele>966.0</ele>
        <time>2012-08-18T17:10:16Z</time>
      </trkpt>
      <trkpt lat="40.390950" lon="-1.140453">
        <ele>966.6</ele>
        <time>2012-08-18T17:10:17Z</time>
      </trkpt>
      <trkpt lat="40.390931" lon="-1.140437">
        <ele>967.2</ele>
        <time>2012-08-18T17:10:18Z</time>
      </trkpt>
      <trkpt lat="40.390913" lon="-1.140422">
        <ele>967.6</ele>
        <time>2012-08-18T17:10:19Z</time>
      </trkpt>
      <trkpt lat="40.390897" lon="-1.140401">
        <ele>968.2</ele>
        <time>2012-08-18T17:10:20Z</time>
      </trkpt>
      <trkpt lat="40.390826" lon="-1.140261">
        <ele>968.2</ele>
        <time>2012-08-18T17:10:24Z</time>
      </trkpt>
      <trkpt lat="40.390727" lon="-1.140121">
        <ele>968.2</ele>
        <time>2012-08-18T17:10:27Z</time>
      </trkpt>
      <trkpt lat="40.390650" lon="-1.140019">
        <ele>968.2</ele>
        <time>2012-08-18T17:10:29Z</time>
      </trkpt>
      <trkpt lat="40.390439" lon="-1.139710">
        <ele>967.6</ele>
        <time>2012-08-18T17:10:34Z</time>
      </trkpt>
      <trkpt lat="40.390393" lon="-1.139643">
        <ele>967.2</ele>
        <time>2012-08-18T17:10:35Z</time>
      </trkpt>
      <trkpt lat="40.390349" lon="-1.139576">
        <ele>966.8</ele>
        <time>2012-08-18T17:10:36Z</time>
      </trkpt>
      <trkpt lat="40.390306" lon="-1.139508">
        <ele>966.4</ele>
        <time>2012-08-18T17:10:37Z</time>
      </trkpt>
      <trkpt lat="40.390266" lon="-1.139441">
        <ele>965.8</ele>
        <time>2012-08-18T17:10:38Z</time>
      </trkpt>
      <trkpt lat="40.390100" lon="-1.139179">
        <ele>965.8</ele>
        <time>2012-08-18T17:10:42Z</time>
      </trkpt>
      <trkpt lat="40.389765" lon="-1.138701">
        <ele>965.8</ele>
        <time>2012-08-18T17:10:50Z</time>
      </trkpt>
      <trkpt lat="40.389478" lon="-1.138278">
        <ele>965.8</ele>
        <time>2012-08-18T17:10:57Z</time>
      </trkpt>
      <trkpt lat="40.389131" lon="-1.137738">
        <ele>965.8</ele>
        <time>2012-08-18T17:11:05Z</time>
      </trkpt>
      <trkpt lat="40.388748" lon="-1.137181">
        <ele>965.8</ele>
        <time>2012-08-18T17:11:13Z</time>
      </trkpt>
      <trkpt lat="40.388702" lon="-1.137109">
        <ele>965.8</ele>
        <time>2012-08-18T17:11:14Z</time>
      </trkpt>
      <trkpt lat="40.388329" lon="-1.136550">
        <ele>965.8</ele>
        <time>2012-08-18T17:11:22Z</time>
      </trkpt>
      <trkpt lat="40.388128" lon="-1.136275">
        <ele>965.4</ele>
        <time>2012-08-18T17:11:26Z</time>
      </trkpt>
      <trkpt lat="40.388077" lon="-1.136203">
        <ele>965.0</ele>
        <time>2012-08-18T17:11:27Z</time>
      </trkpt>
      <trkpt lat="40.388028" lon="-1.136133">
        <ele>964.6</ele>
        <time>2012-08-18T17:11:28Z</time>
      </trkpt>
      <trkpt lat="40.387979" lon="-1.136062">
        <ele>963.6</ele>
        <time>2012-08-18T17:11:29Z</time>
      </trkpt>
      <trkpt lat="40.387888" lon="-1.135913">
        <ele>963.6</ele>
        <time>2012-08-18T17:11:31Z</time>
      </trkpt>
      <trkpt lat="40.387562" lon="-1.135277">
        <ele>963.6</ele>
        <time>2012-08-18T17:11:39Z</time>
      </trkpt>
      <trkpt lat="40.387309" lon="-1.134635">
        <ele>963.6</ele>
        <time>2012-08-18T17:11:47Z</time>
      </trkpt>
      <trkpt lat="40.387112" lon="-1.133972">
        <ele>963.6</ele>
        <time>2012-08-18T17:11:55Z</time>
      </trkpt>
      <trkpt lat="40.387074" lon="-1.133805">
        <ele>963.2</ele>
        <time>2012-08-18T17:11:57Z</time>
      </trkpt>
      <trkpt lat="40.387059" lon="-1.133714">
        <ele>962.8</ele>
        <time>2012-08-18T17:11:58Z</time>
      </trkpt>
      <trkpt lat="40.387044" lon="-1.133630">
        <ele>962.4</ele>
        <time>2012-08-18T17:11:59Z</time>
      </trkpt>
      <trkpt lat="40.387030" lon="-1.133547">
        <ele>962.0</ele>
        <time>2012-08-18T17:12:00Z</time>
      </trkpt>
      <trkpt lat="40.387014" lon="-1.133464">
        <ele>961.4</ele>
        <time>2012-08-18T17:12:01Z</time>
      </trkpt>
      <trkpt lat="40.386990" lon="-1.133296">
        <ele>961.4</ele>
        <time>2012-08-18T17:12:03Z</time>
      </trkpt>
      <trkpt lat="40.386894" lon="-1.132612">
        <ele>961.4</ele>
        <time>2012-08-18T17:12:11Z</time>
      </trkpt>
      <trkpt lat="40.386882" lon="-1.132529">
        <ele>961.0</ele>
        <time>2012-08-18T17:12:12Z</time>
      </trkpt>
      <trkpt lat="40.386870" lon="-1.132447">
        <ele>960.6</ele>
        <time>2012-08-18T17:12:13Z</time>
      </trkpt>
      <trkpt lat="40.386860" lon="-1.132361">
        <ele>960.2</ele>
        <time>2012-08-18T17:12:14Z</time>
      </trkpt>
      <trkpt lat="40.386849" lon="-1.132280">
        <ele>959.8</ele>
        <time>2012-08-18T17:12:15Z</time>
      </trkpt>
      <trkpt lat="40.386838" lon="-1.132197">
        <ele>959.2</ele>
        <time>2012-08-18T17:12:16Z</time>
      </trkpt>
      <trkpt lat="40.386790" lon="-1.131875">
        <ele>959.2</ele>
        <time>2012-08-18T17:12:20Z</time>
      </trkpt>
      <trkpt lat="40.386705" lon="-1.131239">
        <ele>959.2</ele>
        <time>2012-08-18T17:12:28Z</time>
      </trkpt>
      <trkpt lat="40.386626" lon="-1.130595">
        <ele>959.2</ele>
        <time>2012-08-18T17:12:36Z</time>
      </trkpt>
      <trkpt lat="40.386530" lon="-1.129860">
        <ele>959.2</ele>
        <time>2012-08-18T17:12:45Z</time>
      </trkpt>
      <trkpt lat="40.386520" lon="-1.129780">
        <ele>958.8</ele>
        <time>2012-08-18T17:12:46Z</time>
      </trkpt>
      <trkpt lat="40.386512" lon="-1.129699">
        <ele>958.4</ele>
        <time>2012-08-18T17:12:47Z</time>
      </trkpt>
      <trkpt lat="40.386502" lon="-1.129620">
        <ele>958.0</ele>
        <time>2012-08-18T17:12:48Z</time>
      </trkpt>
      <trkpt lat="40.386491" lon="-1.129541">
        <ele>957.6</ele>
        <time>2012-08-18T17:12:49Z</time>
      </trkpt>
      <trkpt lat="40.386481" lon="-1.129460">
        <ele>957.0</ele>
        <time>2012-08-18T17:12:50Z</time>
      </trkpt>
      <trkpt lat="40.386470" lon="-1.129379">
        <ele>957.0</ele>
        <time>2012-08-18T17:12:51Z</time>
      </trkpt>
      <trkpt lat="40.386365" lon="-1.128642">
        <ele>957.0</ele>
        <time>2012-08-18T17:13:00Z</time>
      </trkpt>
      <trkpt lat="40.386261" lon="-1.127924">
        <ele>957.0</ele>
        <time>2012-08-18T17:13:09Z</time>
      </trkpt>
      <trkpt lat="40.386242" lon="-1.127773">
        <ele>957.0</ele>
        <time>2012-08-18T17:13:11Z</time>
      </trkpt>
      <trkpt lat="40.386155" lon="-1.127160">
        <ele>957.0</ele>
        <time>2012-08-18T17:13:19Z</time>
      </trkpt>
      <trkpt lat="40.386069" lon="-1.126543">
        <ele>957.0</ele>
        <time>2012-08-18T17:13:27Z</time>
      </trkpt>
      <trkpt lat="40.385988" lon="-1.125917">
        <ele>957.0</ele>
        <time>2012-08-18T17:13:35Z</time>
      </trkpt>
      <trkpt lat="40.385970" lon="-1.125765">
        <ele>956.6</ele>
        <time>2012-08-18T17:13:37Z</time>
      </trkpt>
      <trkpt lat="40.385959" lon="-1.125684">
        <ele>956.2</ele>
        <time>2012-08-18T17:13:38Z</time>
      </trkpt>
      <trkpt lat="40.385949" lon="-1.125609">
        <ele>955.8</ele>
        <time>2012-08-18T17:13:39Z</time>
      </trkpt>
      <trkpt lat="40.385936" lon="-1.125532">
        <ele>955.4</ele>
        <time>2012-08-18T17:13:40Z</time>
      </trkpt>
      <trkpt lat="40.385926" lon="-1.125458">
        <ele>955.0</ele>
        <time>2012-08-18T17:13:41Z</time>
      </trkpt>
      <trkpt lat="40.385894" lon="-1.125243">
        <ele>955.0</ele>
        <time>2012-08-18T17:13:44Z</time>
      </trkpt>
      <trkpt lat="40.385858" lon="-1.124958">
        <ele>955.0</ele>
        <time>2012-08-18T17:13:49Z</time>
      </trkpt>
      <trkpt lat="40.385839" lon="-1.124912">
        <ele>954.6</ele>
        <time>2012-08-18T17:13:52Z</time>
      </trkpt>
      <trkpt lat="40.385838" lon="-1.124913">
        <ele>954.2</ele>
        <time>2012-08-18T17:13:53Z</time>
      </trkpt>
      <trkpt lat="40.385825" lon="-1.124828">
        <ele>952.8</ele>
        <time>2012-08-18T17:15:42Z</time>
      </trkpt>
      <trkpt lat="40.385819" lon="-1.124757">
        <ele>952.8</ele>
        <time>2012-08-18T17:15:44Z</time>
      </trkpt>
      <trkpt lat="40.385809" lon="-1.124645">
        <ele>952.8</ele>
        <time>2012-08-18T17:15:47Z</time>
      </trkpt>
      <trkpt lat="40.385797" lon="-1.124517">
        <ele>952.8</ele>
        <time>2012-08-18T17:15:50Z</time>
      </trkpt>
      <trkpt lat="40.385757" lon="-1.124198">
        <ele>952.4</ele>
        <time>2012-08-18T17:15:56Z</time>
      </trkpt>
      <trkpt lat="40.385748" lon="-1.124135">
        <ele>952.0</ele>
        <time>2012-08-18T17:15:57Z</time>
      </trkpt>
      <trkpt lat="40.385740" lon="-1.124073">
        <ele>951.6</ele>
        <time>2012-08-18T17:15:58Z</time>
      </trkpt>
      <trkpt lat="40.385733" lon="-1.124011">
        <ele>951.2</ele>
        <time>2012-08-18T17:15:59Z</time>
      </trkpt>
      <trkpt lat="40.385726" lon="-1.123949">
        <ele>950.8</ele>
        <time>2012-08-18T17:16:00Z</time>
      </trkpt>
      <trkpt lat="40.385689" lon="-1.123707">
        <ele>950.4</ele>
        <time>2012-08-18T17:16:04Z</time>
      </trkpt>
      <trkpt lat="40.385678" lon="-1.123644">
        <ele>949.8</ele>
        <time>2012-08-18T17:16:05Z</time>
      </trkpt>
      <trkpt lat="40.385668" lon="-1.123584">
        <ele>949.4</ele>
        <time>2012-08-18T17:16:06Z</time>
      </trkpt>
      <trkpt lat="40.385658" lon="-1.123520">
        <ele>949.0</ele>
        <time>2012-08-18T17:16:07Z</time>
      </trkpt>
      <trkpt lat="40.385647" lon="-1.123452">
        <ele>948.4</ele>
        <time>2012-08-18T17:16:08Z</time>
      </trkpt>
      <trkpt lat="40.385595" lon="-1.123056">
        <ele>948.4</ele>
        <time>2012-08-18T17:16:14Z</time>
      </trkpt>
      <trkpt lat="40.385527" lon="-1.122563">
        <ele>948.4</ele>
        <time>2012-08-18T17:16:21Z</time>
      </trkpt>
      <trkpt lat="40.385453" lon="-1.121991">
        <ele>948.0</ele>
        <time>2012-08-18T17:16:29Z</time>
      </trkpt>
      <trkpt lat="40.385442" lon="-1.121920">
        <ele>947.6</ele>
        <time>2012-08-18T17:16:30Z</time>
      </trkpt>
      <trkpt lat="40.385431" lon="-1.121843">
        <ele>947.2</ele>
        <time>2012-08-18T17:16:31Z</time>
      </trkpt>
      <trkpt lat="40.385420" lon="-1.121769">
        <ele>946.8</ele>
        <time>2012-08-18T17:16:32Z</time>
      </trkpt>
      <trkpt lat="40.385409" lon="-1.121694">
        <ele>946.4</ele>
        <time>2012-08-18T17:16:33Z</time>
      </trkpt>
      <trkpt lat="40.385344" lon="-1.121243">
        <ele>946.4</ele>
        <time>2012-08-18T17:16:39Z</time>
      </trkpt>
      <trkpt lat="40.385258" lon="-1.120619">
        <ele>946.4</ele>
        <time>2012-08-18T17:16:47Z</time>
      </trkpt>
      <trkpt lat="40.385208" lon="-1.120233">
        <ele>946.4</ele>
        <time>2012-08-18T17:16:52Z</time>
      </trkpt>
      <trkpt lat="40.385188" lon="-1.120070">
        <ele>946.0</ele>
        <time>2012-08-18T17:16:54Z</time>
      </trkpt>
      <trkpt lat="40.385176" lon="-1.119990">
        <ele>945.6</ele>
        <time>2012-08-18T17:16:55Z</time>
      </trkpt>
      <trkpt lat="40.385166" lon="-1.119911">
        <ele>945.2</ele>
        <time>2012-08-18T17:16:56Z</time>
      </trkpt>
      <trkpt lat="40.385157" lon="-1.119833">
        <ele>944.8</ele>
        <time>2012-08-18T17:16:57Z</time>
      </trkpt>
      <trkpt lat="40.385146" lon="-1.119754">
        <ele>944.4</ele>
        <time>2012-08-18T17:16:58Z</time>
      </trkpt>
      <trkpt lat="40.385075" lon="-1.119299">
        <ele>944.4</ele>
        <time>2012-08-18T17:17:04Z</time>
      </trkpt>
      <trkpt lat="40.384997" lon="-1.118685">
        <ele>944.4</ele>
        <time>2012-08-18T17:17:12Z</time>
      </trkpt>
      <trkpt lat="40.384908" lon="-1.118083">
        <ele>944.4</ele>
        <time>2012-08-18T17:17:20Z</time>
      </trkpt>
      <trkpt lat="40.384825" lon="-1.117422">
        <ele>944.4</ele>
        <time>2012-08-18T17:17:29Z</time>
      </trkpt>
      <trkpt lat="40.384726" lon="-1.116691">
        <ele>944.4</ele>
        <time>2012-08-18T17:17:39Z</time>
      </trkpt>
      <trkpt lat="40.384713" lon="-1.116615">
        <ele>944.4</ele>
        <time>2012-08-18T17:17:40Z</time>
      </trkpt>
      <trkpt lat="40.384635" lon="-1.116031">
        <ele>944.0</ele>
        <time>2012-08-18T17:17:48Z</time>
      </trkpt>
      <trkpt lat="40.384626" lon="-1.115959">
        <ele>943.4</ele>
        <time>2012-08-18T17:17:49Z</time>
      </trkpt>
      <trkpt lat="40.384616" lon="-1.115889">
        <ele>943.0</ele>
        <time>2012-08-18T17:17:50Z</time>
      </trkpt>
      <trkpt lat="40.384606" lon="-1.115820">
        <ele>942.6</ele>
        <time>2012-08-18T17:17:51Z</time>
      </trkpt>
      <trkpt lat="40.384596" lon="-1.115750">
        <ele>942.2</ele>
        <time>2012-08-18T17:17:52Z</time>
      </trkpt>
      <trkpt lat="40.384531" lon="-1.115325">
        <ele>942.2</ele>
        <time>2012-08-18T17:17:58Z</time>
      </trkpt>
      <trkpt lat="40.384416" lon="-1.114720">
        <ele>942.2</ele>
        <time>2012-08-18T17:18:07Z</time>
      </trkpt>
      <trkpt lat="40.384333" lon="-1.114353">
        <ele>942.2</ele>
        <time>2012-08-18T17:18:13Z</time>
      </trkpt>
      <trkpt lat="40.384297" lon="-1.114172">
        <ele>941.8</ele>
        <time>2012-08-18T17:18:16Z</time>
      </trkpt>
      <trkpt lat="40.384279" lon="-1.114116">
        <ele>941.2</ele>
        <time>2012-08-18T17:18:17Z</time>
      </trkpt>
      <trkpt lat="40.384262" lon="-1.114060">
        <ele>940.8</ele>
        <time>2012-08-18T17:18:18Z</time>
      </trkpt>
      <trkpt lat="40.384246" lon="-1.114000">
        <ele>940.4</ele>
        <time>2012-08-18T17:18:19Z</time>
      </trkpt>
      <trkpt lat="40.384232" lon="-1.113943">
        <ele>940.0</ele>
        <time>2012-08-18T17:18:20Z</time>
      </trkpt>
      <trkpt lat="40.384096" lon="-1.113451">
        <ele>940.0</ele>
        <time>2012-08-18T17:18:28Z</time>
      </trkpt>
      <trkpt lat="40.383939" lon="-1.112989">
        <ele>940.0</ele>
        <time>2012-08-18T17:18:36Z</time>
      </trkpt>
      <trkpt lat="40.383771" lon="-1.112516">
        <ele>940.0</ele>
        <time>2012-08-18T17:18:44Z</time>
      </trkpt>
      <trkpt lat="40.383590" lon="-1.112047">
        <ele>940.0</ele>
        <time>2012-08-18T17:18:52Z</time>
      </trkpt>
      <trkpt lat="40.383372" lon="-1.111484">
        <ele>940.0</ele>
        <time>2012-08-18T17:19:01Z</time>
      </trkpt>
      <trkpt lat="40.383130" lon="-1.110866">
        <ele>940.0</ele>
        <time>2012-08-18T17:19:10Z</time>
      </trkpt>
      <trkpt lat="40.383040" lon="-1.110652">
        <ele>939.6</ele>
        <time>2012-08-18T17:19:13Z</time>
      </trkpt>
      <trkpt lat="40.383010" lon="-1.110582">
        <ele>939.2</ele>
        <time>2012-08-18T17:19:14Z</time>
      </trkpt>
      <trkpt lat="40.382981" lon="-1.110510">
        <ele>938.8</ele>
        <time>2012-08-18T17:19:15Z</time>
      </trkpt>
      <trkpt lat="40.382955" lon="-1.110437">
        <ele>938.4</ele>
        <time>2012-08-18T17:19:16Z</time>
      </trkpt>
      <trkpt lat="40.382928" lon="-1.110366">
        <ele>938.0</ele>
        <time>2012-08-18T17:19:17Z</time>
      </trkpt>
      <trkpt lat="40.382873" lon="-1.110226">
        <ele>938.0</ele>
        <time>2012-08-18T17:19:19Z</time>
      </trkpt>
      <trkpt lat="40.382633" lon="-1.109636">
        <ele>938.0</ele>
        <time>2012-08-18T17:19:27Z</time>
      </trkpt>
      <trkpt lat="40.382398" lon="-1.109055">
        <ele>938.0</ele>
        <time>2012-08-18T17:19:35Z</time>
      </trkpt>
      <trkpt lat="40.382205" lon="-1.108563">
        <ele>937.6</ele>
        <time>2012-08-18T17:19:42Z</time>
      </trkpt>
      <trkpt lat="40.382177" lon="-1.108491">
        <ele>937.2</ele>
        <time>2012-08-18T17:19:43Z</time>
      </trkpt>
      <trkpt lat="40.382150" lon="-1.108422">
        <ele>936.8</ele>
        <time>2012-08-18T17:19:44Z</time>
      </trkpt>
      <trkpt lat="40.382123" lon="-1.108354">
        <ele>936.0</ele>
        <time>2012-08-18T17:19:45Z</time>
      </trkpt>
      <trkpt lat="40.381896" lon="-1.107800">
        <ele>936.0</ele>
        <time>2012-08-18T17:19:53Z</time>
      </trkpt>
      <trkpt lat="40.381662" lon="-1.107214">
        <ele>936.0</ele>
        <time>2012-08-18T17:20:01Z</time>
      </trkpt>
      <trkpt lat="40.381392" lon="-1.106562">
        <ele>936.0</ele>
        <time>2012-08-18T17:20:10Z</time>
      </trkpt>
      <trkpt lat="40.381335" lon="-1.106418">
        <ele>935.6</ele>
        <time>2012-08-18T17:20:12Z</time>
      </trkpt>
      <trkpt lat="40.381308" lon="-1.106347">
        <ele>935.2</ele>
        <time>2012-08-18T17:20:13Z</time>
      </trkpt>
      <trkpt lat="40.381277" lon="-1.106272">
        <ele>934.6</ele>
        <time>2012-08-18T17:20:14Z</time>
      </trkpt>
      <trkpt lat="40.381248" lon="-1.106199">
        <ele>934.2</ele>
        <time>2012-08-18T17:20:15Z</time>
      </trkpt>
      <trkpt lat="40.381217" lon="-1.106127">
        <ele>933.8</ele>
        <time>2012-08-18T17:20:16Z</time>
      </trkpt>
      <trkpt lat="40.381160" lon="-1.105979">
        <ele>933.8</ele>
        <time>2012-08-18T17:20:18Z</time>
      </trkpt>
      <trkpt lat="40.381014" lon="-1.105589">
        <ele>933.4</ele>
        <time>2012-08-18T17:20:23Z</time>
      </trkpt>
      <trkpt lat="40.380985" lon="-1.105512">
        <ele>933.0</ele>
        <time>2012-08-18T17:20:24Z</time>
      </trkpt>
      <trkpt lat="40.380958" lon="-1.105434">
        <ele>932.6</ele>
        <time>2012-08-18T17:20:25Z</time>
      </trkpt>
      <trkpt lat="40.380929" lon="-1.105355">
        <ele>932.2</ele>
        <time>2012-08-18T17:20:26Z</time>
      </trkpt>
      <trkpt lat="40.380900" lon="-1.105277">
        <ele>931.8</ele>
        <time>2012-08-18T17:20:27Z</time>
      </trkpt>
      <trkpt lat="40.380691" lon="-1.104748">
        <ele>931.8</ele>
        <time>2012-08-18T17:20:34Z</time>
      </trkpt>
      <trkpt lat="40.380542" lon="-1.104379">
        <ele>932.2</ele>
        <time>2012-08-18T17:20:39Z</time>
      </trkpt>
      <trkpt lat="40.380513" lon="-1.104307">
        <ele>932.8</ele>
        <time>2012-08-18T17:20:40Z</time>
      </trkpt>
      <trkpt lat="40.380483" lon="-1.104233">
        <ele>933.2</ele>
        <time>2012-08-18T17:20:41Z</time>
      </trkpt>
      <trkpt lat="40.380454" lon="-1.104158">
        <ele>933.8</ele>
        <time>2012-08-18T17:20:42Z</time>
      </trkpt>
      <trkpt lat="40.380422" lon="-1.104083">
        <ele>933.4</ele>
        <time>2012-08-18T17:20:43Z</time>
      </trkpt>
      <trkpt lat="40.380389" lon="-1.104004">
        <ele>932.8</ele>
        <time>2012-08-18T17:20:45Z</time>
      </trkpt>
      <trkpt lat="40.380359" lon="-1.103929">
        <ele>932.4</ele>
        <time>2012-08-18T17:20:46Z</time>
      </trkpt>
      <trkpt lat="40.380331" lon="-1.103851">
        <ele>932.0</ele>
        <time>2012-08-18T17:20:47Z</time>
      </trkpt>
      <trkpt lat="40.380302" lon="-1.103773">
        <ele>931.6</ele>
        <time>2012-08-18T17:20:48Z</time>
      </trkpt>
      <trkpt lat="40.380243" lon="-1.103619">
        <ele>931.6</ele>
        <time>2012-08-18T17:20:50Z</time>
      </trkpt>
      <trkpt lat="40.380212" lon="-1.103544">
        <ele>931.2</ele>
        <time>2012-08-18T17:20:51Z</time>
      </trkpt>
      <trkpt lat="40.380182" lon="-1.103468">
        <ele>930.8</ele>
        <time>2012-08-18T17:20:52Z</time>
      </trkpt>
      <trkpt lat="40.380153" lon="-1.103394">
        <ele>930.4</ele>
        <time>2012-08-18T17:20:53Z</time>
      </trkpt>
      <trkpt lat="40.380126" lon="-1.103319">
        <ele>930.0</ele>
        <time>2012-08-18T17:20:54Z</time>
      </trkpt>
      <trkpt lat="40.380097" lon="-1.103245">
        <ele>929.4</ele>
        <time>2012-08-18T17:20:55Z</time>
      </trkpt>
      <trkpt lat="40.380014" lon="-1.103024">
        <ele>929.4</ele>
        <time>2012-08-18T17:20:58Z</time>
      </trkpt>
      <trkpt lat="40.379792" lon="-1.102441">
        <ele>929.4</ele>
        <time>2012-08-18T17:21:06Z</time>
      </trkpt>
      <trkpt lat="40.379620" lon="-1.102008">
        <ele>929.0</ele>
        <time>2012-08-18T17:21:12Z</time>
      </trkpt>
      <trkpt lat="40.379589" lon="-1.101937">
        <ele>928.4</ele>
        <time>2012-08-18T17:21:13Z</time>
      </trkpt>
      <trkpt lat="40.379562" lon="-1.101865">
        <ele>928.0</ele>
        <time>2012-08-18T17:21:14Z</time>
      </trkpt>
      <trkpt lat="40.379536" lon="-1.101787">
        <ele>927.4</ele>
        <time>2012-08-18T17:21:15Z</time>
      </trkpt>
      <trkpt lat="40.379508" lon="-1.101716">
        <ele>926.8</ele>
        <time>2012-08-18T17:21:16Z</time>
      </trkpt>
      <trkpt lat="40.379401" lon="-1.101433">
        <ele>926.8</ele>
        <time>2012-08-18T17:21:20Z</time>
      </trkpt>
      <trkpt lat="40.379314" lon="-1.101213">
        <ele>926.4</ele>
        <time>2012-08-18T17:21:23Z</time>
      </trkpt>
      <trkpt lat="40.379286" lon="-1.101136">
        <ele>925.6</ele>
        <time>2012-08-18T17:21:24Z</time>
      </trkpt>
      <trkpt lat="40.379255" lon="-1.101062">
        <ele>925.2</ele>
        <time>2012-08-18T17:21:25Z</time>
      </trkpt>
      <trkpt lat="40.379228" lon="-1.100986">
        <ele>924.8</ele>
        <time>2012-08-18T17:21:26Z</time>
      </trkpt>
      <trkpt lat="40.379200" lon="-1.100910">
        <ele>924.8</ele>
        <time>2012-08-18T17:21:27Z</time>
      </trkpt>
      <trkpt lat="40.378951" lon="-1.100289">
        <ele>924.8</ele>
        <time>2012-08-18T17:21:35Z</time>
      </trkpt>
      <trkpt lat="40.378765" lon="-1.099834">
        <ele>924.4</ele>
        <time>2012-08-18T17:21:41Z</time>
      </trkpt>
      <trkpt lat="40.378731" lon="-1.099759">
        <ele>924.0</ele>
        <time>2012-08-18T17:21:42Z</time>
      </trkpt>
      <trkpt lat="40.378698" lon="-1.099682">
        <ele>923.6</ele>
        <time>2012-08-18T17:21:43Z</time>
      </trkpt>
      <trkpt lat="40.378667" lon="-1.099604">
        <ele>923.2</ele>
        <time>2012-08-18T17:21:44Z</time>
      </trkpt>
      <trkpt lat="40.378635" lon="-1.099525">
        <ele>922.8</ele>
        <time>2012-08-18T17:21:45Z</time>
      </trkpt>
      <trkpt lat="40.378380" lon="-1.098887">
        <ele>922.8</ele>
        <time>2012-08-18T17:21:53Z</time>
      </trkpt>
      <trkpt lat="40.378218" lon="-1.098486">
        <ele>922.4</ele>
        <time>2012-08-18T17:21:58Z</time>
      </trkpt>
      <trkpt lat="40.378187" lon="-1.098407">
        <ele>922.0</ele>
        <time>2012-08-18T17:21:59Z</time>
      </trkpt>
      <trkpt lat="40.378156" lon="-1.098326">
        <ele>921.6</ele>
        <time>2012-08-18T17:22:00Z</time>
      </trkpt>
      <trkpt lat="40.378124" lon="-1.098248">
        <ele>921.2</ele>
        <time>2012-08-18T17:22:01Z</time>
      </trkpt>
      <trkpt lat="40.378093" lon="-1.098165">
        <ele>920.6</ele>
        <time>2012-08-18T17:22:02Z</time>
      </trkpt>
      <trkpt lat="40.377909" lon="-1.097621">
        <ele>920.6</ele>
        <time>2012-08-18T17:22:09Z</time>
      </trkpt>
      <trkpt lat="40.377895" lon="-1.097534">
        <ele>920.6</ele>
        <time>2012-08-18T17:22:10Z</time>
      </trkpt>
      <trkpt lat="40.377845" lon="-1.096942">
        <ele>920.6</ele>
        <time>2012-08-18T17:22:17Z</time>
      </trkpt>
      <trkpt lat="40.377848" lon="-1.096771">
        <ele>920.2</ele>
        <time>2012-08-18T17:22:19Z</time>
      </trkpt>
      <trkpt lat="40.377854" lon="-1.096688">
        <ele>919.8</ele>
        <time>2012-08-18T17:22:20Z</time>
      </trkpt>
      <trkpt lat="40.377857" lon="-1.096606">
        <ele>919.4</ele>
        <time>2012-08-18T17:22:21Z</time>
      </trkpt>
      <trkpt lat="40.377869" lon="-1.096523">
        <ele>919.0</ele>
        <time>2012-08-18T17:22:22Z</time>
      </trkpt>
      <trkpt lat="40.377881" lon="-1.096443">
        <ele>918.6</ele>
        <time>2012-08-18T17:22:23Z</time>
      </trkpt>
      <trkpt lat="40.377962" lon="-1.096078">
        <ele>918.6</ele>
        <time>2012-08-18T17:22:28Z</time>
      </trkpt>
      <trkpt lat="40.377986" lon="-1.096013">
        <ele>918.6</ele>
        <time>2012-08-18T17:22:29Z</time>
      </trkpt>
      <trkpt lat="40.378104" lon="-1.095696">
        <ele>918.6</ele>
        <time>2012-08-18T17:22:34Z</time>
      </trkpt>
      <trkpt lat="40.378161" lon="-1.095577">
        <ele>918.6</ele>
        <time>2012-08-18T17:22:36Z</time>
      </trkpt>
      <trkpt lat="40.378292" lon="-1.095289">
        <ele>918.6</ele>
        <time>2012-08-18T17:22:41Z</time>
      </trkpt>
      <trkpt lat="40.378320" lon="-1.095237">
        <ele>918.6</ele>
        <time>2012-08-18T17:22:42Z</time>
      </trkpt>
      <trkpt lat="40.378496" lon="-1.094878">
        <ele>918.6</ele>
        <time>2012-08-18T17:22:49Z</time>
      </trkpt>
      <trkpt lat="40.378564" lon="-1.094748">
        <ele>918.6</ele>
        <time>2012-08-18T17:22:52Z</time>
      </trkpt>
      <trkpt lat="40.378641" lon="-1.094610">
        <ele>918.6</ele>
        <time>2012-08-18T17:22:55Z</time>
      </trkpt>
      <trkpt lat="40.378696" lon="-1.094494">
        <ele>918.6</ele>
        <time>2012-08-18T17:22:59Z</time>
      </trkpt>
      <trkpt lat="40.378708" lon="-1.094441">
        <ele>918.6</ele>
        <time>2012-08-18T17:23:04Z</time>
      </trkpt>
      <trkpt lat="40.378707" lon="-1.094441">
        <ele>918.6</ele>
        <time>2012-08-18T17:23:05Z</time>
      </trkpt>
      <trkpt lat="40.378708" lon="-1.094441">
        <ele>918.6</ele>
        <time>2012-08-18T17:23:08Z</time>
      </trkpt>
      <trkpt lat="40.378735" lon="-1.094395">
        <ele>918.6</ele>
        <time>2012-08-18T17:24:42Z</time>
      </trkpt>
      <trkpt lat="40.378749" lon="-1.094380">
        <ele>918.6</ele>
        <time>2012-08-18T17:24:43Z</time>
      </trkpt>
      <trkpt lat="40.378827" lon="-1.094237">
        <ele>918.6</ele>
        <time>2012-08-18T17:24:48Z</time>
      </trkpt>
      <trkpt lat="40.378923" lon="-1.094027">
        <ele>918.6</ele>
        <time>2012-08-18T17:24:54Z</time>
      </trkpt>
      <trkpt lat="40.379077" lon="-1.093686">
        <ele>918.6</ele>
        <time>2012-08-18T17:25:02Z</time>
      </trkpt>
      <trkpt lat="40.379275" lon="-1.093283">
        <ele>919.0</ele>
        <time>2012-08-18T17:25:11Z</time>
      </trkpt>
      <trkpt lat="40.379300" lon="-1.093238">
        <ele>919.4</ele>
        <time>2012-08-18T17:25:12Z</time>
      </trkpt>
      <trkpt lat="40.379324" lon="-1.093192">
        <ele>919.4</ele>
        <time>2012-08-18T17:25:13Z</time>
      </trkpt>
      <trkpt lat="40.379347" lon="-1.093146">
        <ele>919.2</ele>
        <time>2012-08-18T17:25:14Z</time>
      </trkpt>
      <trkpt lat="40.379374" lon="-1.093102">
        <ele>919.0</ele>
        <time>2012-08-18T17:25:15Z</time>
      </trkpt>
      <trkpt lat="40.379400" lon="-1.093060">
        <ele>918.8</ele>
        <time>2012-08-18T17:25:16Z</time>
      </trkpt>
      <trkpt lat="40.379424" lon="-1.093019">
        <ele>918.6</ele>
        <time>2012-08-18T17:25:17Z</time>
      </trkpt>
      <trkpt lat="40.379467" lon="-1.092933">
        <ele>918.6</ele>
        <time>2012-08-18T17:25:19Z</time>
      </trkpt>
      <trkpt lat="40.379591" lon="-1.092706">
        <ele>918.6</ele>
        <time>2012-08-18T17:25:25Z</time>
      </trkpt>
      <trkpt lat="40.379740" lon="-1.092457">
        <ele>918.6</ele>
        <time>2012-08-18T17:25:31Z</time>
      </trkpt>
      <trkpt lat="40.379920" lon="-1.092084">
        <ele>918.6</ele>
        <time>2012-08-18T17:25:38Z</time>
      </trkpt>
      <trkpt lat="40.380109" lon="-1.091637">
        <ele>918.6</ele>
        <time>2012-08-18T17:25:46Z</time>
      </trkpt>
      <trkpt lat="40.380224" lon="-1.091145">
        <ele>918.6</ele>
        <time>2012-08-18T17:25:54Z</time>
      </trkpt>
      <trkpt lat="40.380261" lon="-1.090750">
        <ele>918.6</ele>
        <time>2012-08-18T17:26:01Z</time>
      </trkpt>
      <trkpt lat="40.380247" lon="-1.090487">
        <ele>919.0</ele>
        <time>2012-08-18T17:26:07Z</time>
      </trkpt>
      <trkpt lat="40.380230" lon="-1.090453">
        <ele>919.4</ele>
        <time>2012-08-18T17:26:08Z</time>
      </trkpt>
      <trkpt lat="40.380206" lon="-1.090430">
        <ele>920.0</ele>
        <time>2012-08-18T17:26:09Z</time>
      </trkpt>
      <trkpt lat="40.380178" lon="-1.090407">
        <ele>920.4</ele>
        <time>2012-08-18T17:26:10Z</time>
      </trkpt>
      <trkpt lat="40.380141" lon="-1.090396">
        <ele>920.8</ele>
        <time>2012-08-18T17:26:11Z</time>
      </trkpt>
      <trkpt lat="40.379997" lon="-1.090415">
        <ele>920.8</ele>
        <time>2012-08-18T17:26:14Z</time>
      </trkpt>
      <trkpt lat="40.379949" lon="-1.090445">
        <ele>920.4</ele>
        <time>2012-08-18T17:26:15Z</time>
      </trkpt>
      <trkpt lat="40.379904" lon="-1.090492">
        <ele>920.0</ele>
        <time>2012-08-18T17:26:16Z</time>
      </trkpt>
      <trkpt lat="40.379870" lon="-1.090555">
        <ele>919.4</ele>
        <time>2012-08-18T17:26:17Z</time>
      </trkpt>
      <trkpt lat="40.379837" lon="-1.090623">
        <ele>919.0</ele>
        <time>2012-08-18T17:26:18Z</time>
      </trkpt>
      <trkpt lat="40.379808" lon="-1.090699">
        <ele>918.6</ele>
        <time>2012-08-18T17:26:19Z</time>
      </trkpt>
      <trkpt lat="40.379780" lon="-1.090775">
        <ele>918.2</ele>
        <time>2012-08-18T17:26:20Z</time>
      </trkpt>
      <trkpt lat="40.379750" lon="-1.090857">
        <ele>917.2</ele>
        <time>2012-08-18T17:26:21Z</time>
      </trkpt>
      <trkpt lat="40.379721" lon="-1.090935">
        <ele>916.8</ele>
        <time>2012-08-18T17:26:22Z</time>
      </trkpt>
      <trkpt lat="40.379693" lon="-1.091011">
        <ele>916.2</ele>
        <time>2012-08-18T17:26:23Z</time>
      </trkpt>
      <trkpt lat="40.379661" lon="-1.091081">
        <ele>915.8</ele>
        <time>2012-08-18T17:26:24Z</time>
      </trkpt>
      <trkpt lat="40.379622" lon="-1.091138">
        <ele>915.2</ele>
        <time>2012-08-18T17:26:25Z</time>
      </trkpt>
      <trkpt lat="40.379569" lon="-1.091181">
        <ele>914.6</ele>
        <time>2012-08-18T17:26:26Z</time>
      </trkpt>
      <trkpt lat="40.379514" lon="-1.091204">
        <ele>913.8</ele>
        <time>2012-08-18T17:26:27Z</time>
      </trkpt>
      <trkpt lat="40.379453" lon="-1.091206">
        <ele>913.2</ele>
        <time>2012-08-18T17:26:28Z</time>
      </trkpt>
      <trkpt lat="40.379387" lon="-1.091190">
        <ele>912.6</ele>
        <time>2012-08-18T17:26:29Z</time>
      </trkpt>
      <trkpt lat="40.379322" lon="-1.091167">
        <ele>912.0</ele>
        <time>2012-08-18T17:26:30Z</time>
      </trkpt>
      <trkpt lat="40.379253" lon="-1.091133">
        <ele>911.2</ele>
        <time>2012-08-18T17:26:31Z</time>
      </trkpt>
      <trkpt lat="40.379185" lon="-1.091087">
        <ele>910.6</ele>
        <time>2012-08-18T17:26:32Z</time>
      </trkpt>
      <trkpt lat="40.379125" lon="-1.091035">
        <ele>910.0</ele>
        <time>2012-08-18T17:26:33Z</time>
      </trkpt>
      <trkpt lat="40.379087" lon="-1.090936">
        <ele>909.4</ele>
        <time>2012-08-18T17:26:34Z</time>
      </trkpt>
      <trkpt lat="40.379060" lon="-1.090835">
        <ele>909.0</ele>
        <time>2012-08-18T17:26:35Z</time>
      </trkpt>
      <trkpt lat="40.379038" lon="-1.090738">
        <ele>908.4</ele>
        <time>2012-08-18T17:26:36Z</time>
      </trkpt>
      <trkpt lat="40.379015" lon="-1.090652">
        <ele>908.0</ele>
        <time>2012-08-18T17:26:37Z</time>
      </trkpt>
      <trkpt lat="40.378998" lon="-1.090592">
        <ele>907.4</ele>
        <time>2012-08-18T17:26:38Z</time>
      </trkpt>
      <trkpt lat="40.378975" lon="-1.090537">
        <ele>907.4</ele>
        <time>2012-08-18T17:26:39Z</time>
      </trkpt>
      <trkpt lat="40.378929" lon="-1.090451">
        <ele>907.4</ele>
        <time>2012-08-18T17:26:42Z</time>
      </trkpt>
      <trkpt lat="40.378959" lon="-1.090402">
        <ele>907.4</ele>
        <time>2012-08-18T17:26:45Z</time>
      </trkpt>
      <trkpt lat="40.378991" lon="-1.090453">
        <ele>907.0</ele>
        <time>2012-08-18T17:26:48Z</time>
      </trkpt>
      <trkpt lat="40.379009" lon="-1.090468">
        <ele>906.6</ele>
        <time>2012-08-18T17:26:49Z</time>
      </trkpt>
      <trkpt lat="40.379029" lon="-1.090480">
        <ele>906.2</ele>
        <time>2012-08-18T17:26:50Z</time>
      </trkpt>
      <trkpt lat="40.379052" lon="-1.090485">
        <ele>906.4</ele>
        <time>2012-08-18T17:26:51Z</time>
      </trkpt>
      <trkpt lat="40.379073" lon="-1.090483">
        <ele>906.8</ele>
        <time>2012-08-18T17:26:52Z</time>
      </trkpt>
      <trkpt lat="40.379091" lon="-1.090473">
        <ele>907.2</ele>
        <time>2012-08-18T17:26:53Z</time>
      </trkpt>
      <trkpt lat="40.379107" lon="-1.090471">
        <ele>907.6</ele>
        <time>2012-08-18T17:26:54Z</time>
      </trkpt>
      <trkpt lat="40.379115" lon="-1.090453">
        <ele>907.8</ele>
        <time>2012-08-18T17:27:52Z</time>
      </trkpt>
      <trkpt lat="40.379179" lon="-1.090358">
        <ele>907.8</ele>
        <time>2012-08-18T17:27:56Z</time>
      </trkpt>
      <trkpt lat="40.379212" lon="-1.090288">
        <ele>907.8</ele>
        <time>2012-08-18T17:27:58Z</time>
      </trkpt>
      <trkpt lat="40.379273" lon="-1.090138">
        <ele>907.8</ele>
        <time>2012-08-18T17:28:02Z</time>
      </trkpt>
      <trkpt lat="40.379281" lon="-1.090044">
        <ele>907.8</ele>
        <time>2012-08-18T17:28:04Z</time>
      </trkpt>
      <trkpt lat="40.379315" lon="-1.089726">
        <ele>907.8</ele>
        <time>2012-08-18T17:28:11Z</time>
      </trkpt>
      <trkpt lat="40.379300" lon="-1.089456">
        <ele>907.8</ele>
        <time>2012-08-18T17:28:18Z</time>
      </trkpt>
      <trkpt lat="40.379246" lon="-1.089197">
        <ele>907.8</ele>
        <time>2012-08-18T17:28:25Z</time>
      </trkpt>
      <trkpt lat="40.379236" lon="-1.089165">
        <ele>908.2</ele>
        <time>2012-08-18T17:28:26Z</time>
      </trkpt>
      <trkpt lat="40.379226" lon="-1.089134">
        <ele>908.8</ele>
        <time>2012-08-18T17:28:27Z</time>
      </trkpt>
      <trkpt lat="40.379217" lon="-1.089101">
        <ele>909.2</ele>
        <time>2012-08-18T17:28:28Z</time>
      </trkpt>
      <trkpt lat="40.379204" lon="-1.089069">
        <ele>909.6</ele>
        <time>2012-08-18T17:28:29Z</time>
      </trkpt>
      <trkpt lat="40.379191" lon="-1.089036">
        <ele>910.0</ele>
        <time>2012-08-18T17:28:30Z</time>
      </trkpt>
      <trkpt lat="40.379176" lon="-1.088976">
        <ele>910.4</ele>
        <time>2012-08-18T17:28:32Z</time>
      </trkpt>
      <trkpt lat="40.379163" lon="-1.088947">
        <ele>910.8</ele>
        <time>2012-08-18T17:28:33Z</time>
      </trkpt>
      <trkpt lat="40.379151" lon="-1.088918">
        <ele>911.2</ele>
        <time>2012-08-18T17:28:34Z</time>
      </trkpt>
      <trkpt lat="40.379140" lon="-1.088890">
        <ele>911.6</ele>
        <time>2012-08-18T17:28:35Z</time>
      </trkpt>
      <trkpt lat="40.379130" lon="-1.088856">
        <ele>912.0</ele>
        <time>2012-08-18T17:28:36Z</time>
      </trkpt>
      <trkpt lat="40.379104" lon="-1.088793">
        <ele>912.4</ele>
        <time>2012-08-18T17:28:38Z</time>
      </trkpt>
      <trkpt lat="40.379089" lon="-1.088767">
        <ele>912.8</ele>
        <time>2012-08-18T17:28:39Z</time>
      </trkpt>
      <trkpt lat="40.379074" lon="-1.088748">
        <ele>913.4</ele>
        <time>2012-08-18T17:28:40Z</time>
      </trkpt>
      <trkpt lat="40.379062" lon="-1.088726">
        <ele>913.8</ele>
        <time>2012-08-18T17:28:41Z</time>
      </trkpt>
      <trkpt lat="40.379052" lon="-1.088699">
        <ele>914.2</ele>
        <time>2012-08-18T17:28:42Z</time>
      </trkpt>
      <trkpt lat="40.379010" lon="-1.088630">
        <ele>914.6</ele>
        <time>2012-08-18T17:28:45Z</time>
      </trkpt>
      <trkpt lat="40.378996" lon="-1.088614">
        <ele>915.2</ele>
        <time>2012-08-18T17:28:46Z</time>
      </trkpt>
      <trkpt lat="40.378990" lon="-1.088601">
        <ele>915.6</ele>
        <time>2012-08-18T17:28:47Z</time>
      </trkpt>
      <trkpt lat="40.378979" lon="-1.088587">
        <ele>916.0</ele>
        <time>2012-08-18T17:28:48Z</time>
      </trkpt>
      <trkpt lat="40.378968" lon="-1.088571">
        <ele>916.6</ele>
        <time>2012-08-18T17:28:49Z</time>
      </trkpt>
      <trkpt lat="40.378938" lon="-1.088539">
        <ele>916.6</ele>
        <time>2012-08-18T17:28:51Z</time>
      </trkpt>
      <trkpt lat="40.378911" lon="-1.088511">
        <ele>916.6</ele>
        <time>2012-08-18T17:28:53Z</time>
      </trkpt>
      <trkpt lat="40.378894" lon="-1.088498">
        <ele>917.4</ele>
        <time>2012-08-18T17:28:54Z</time>
      </trkpt>
      <trkpt lat="40.378883" lon="-1.088485">
        <ele>917.8</ele>
        <time>2012-08-18T17:28:55Z</time>
      </trkpt>
      <trkpt lat="40.378868" lon="-1.088481">
        <ele>918.2</ele>
        <time>2012-08-18T17:28:56Z</time>
      </trkpt>
      <trkpt lat="40.378858" lon="-1.088469">
        <ele>918.6</ele>
        <time>2012-08-18T17:28:57Z</time>
      </trkpt>
      <trkpt lat="40.378800" lon="-1.088424">
        <ele>918.6</ele>
        <time>2012-08-18T17:29:01Z</time>
      </trkpt>
      <trkpt lat="40.378783" lon="-1.088414">
        <ele>919.0</ele>
        <time>2012-08-18T17:29:02Z</time>
      </trkpt>
      <trkpt lat="40.378764" lon="-1.088409">
        <ele>919.4</ele>
        <time>2012-08-18T17:29:03Z</time>
      </trkpt>
      <trkpt lat="40.378744" lon="-1.088396">
        <ele>919.8</ele>
        <time>2012-08-18T17:29:04Z</time>
      </trkpt>
      <trkpt lat="40.378727" lon="-1.088384">
        <ele>920.4</ele>
        <time>2012-08-18T17:29:05Z</time>
      </trkpt>
      <trkpt lat="40.378705" lon="-1.088374">
        <ele>920.8</ele>
        <time>2012-08-18T17:29:06Z</time>
      </trkpt>
      <trkpt lat="40.378684" lon="-1.088369">
        <ele>920.8</ele>
        <time>2012-08-18T17:29:07Z</time>
      </trkpt>
      <trkpt lat="40.378532" lon="-1.088349">
        <ele>920.8</ele>
        <time>2012-08-18T17:29:14Z</time>
      </trkpt>
      <trkpt lat="40.378436" lon="-1.088354">
        <ele>921.2</ele>
        <time>2012-08-18T17:29:19Z</time>
      </trkpt>
      <trkpt lat="40.378414" lon="-1.088352">
        <ele>921.6</ele>
        <time>2012-08-18T17:29:20Z</time>
      </trkpt>
      <trkpt lat="40.378391" lon="-1.088352">
        <ele>922.0</ele>
        <time>2012-08-18T17:29:21Z</time>
      </trkpt>
      <trkpt lat="40.378368" lon="-1.088352">
        <ele>922.4</ele>
        <time>2012-08-18T17:29:22Z</time>
      </trkpt>
      <trkpt lat="40.378343" lon="-1.088353">
        <ele>922.8</ele>
        <time>2012-08-18T17:29:23Z</time>
      </trkpt>
      <trkpt lat="40.378178" lon="-1.088344">
        <ele>922.8</ele>
        <time>2012-08-18T17:29:29Z</time>
      </trkpt>
      <trkpt lat="40.377940" lon="-1.088345">
        <ele>922.8</ele>
        <time>2012-08-18T17:29:37Z</time>
      </trkpt>
      <trkpt lat="40.377617" lon="-1.088337">
        <ele>922.8</ele>
        <time>2012-08-18T17:29:47Z</time>
      </trkpt>
      <trkpt lat="40.377354" lon="-1.088324">
        <ele>922.8</ele>
        <time>2012-08-18T17:29:55Z</time>
      </trkpt>
      <trkpt lat="40.377048" lon="-1.088274">
        <ele>922.8</ele>
        <time>2012-08-18T17:30:04Z</time>
      </trkpt>
      <trkpt lat="40.376750" lon="-1.088157">
        <ele>922.8</ele>
        <time>2012-08-18T17:30:12Z</time>
      </trkpt>
      <trkpt lat="40.376504" lon="-1.087981">
        <ele>922.8</ele>
        <time>2012-08-18T17:30:19Z</time>
      </trkpt>
      <trkpt lat="40.376392" lon="-1.087901">
        <ele>922.8</ele>
        <time>2012-08-18T17:30:22Z</time>
      </trkpt>
      <trkpt lat="40.376250" lon="-1.087786">
        <ele>922.8</ele>
        <time>2012-08-18T17:30:26Z</time>
      </trkpt>
      <trkpt lat="40.376181" lon="-1.087725">
        <ele>923.2</ele>
        <time>2012-08-18T17:30:28Z</time>
      </trkpt>
      <trkpt lat="40.376145" lon="-1.087696">
        <ele>923.6</ele>
        <time>2012-08-18T17:30:29Z</time>
      </trkpt>
      <trkpt lat="40.376109" lon="-1.087665">
        <ele>924.0</ele>
        <time>2012-08-18T17:30:30Z</time>
      </trkpt>
      <trkpt lat="40.376074" lon="-1.087632">
        <ele>924.4</ele>
        <time>2012-08-18T17:30:31Z</time>
      </trkpt>
      <trkpt lat="40.376039" lon="-1.087604">
        <ele>924.8</ele>
        <time>2012-08-18T17:30:32Z</time>
      </trkpt>
      <trkpt lat="40.375970" lon="-1.087546">
        <ele>924.8</ele>
        <time>2012-08-18T17:30:34Z</time>
      </trkpt>
      <trkpt lat="40.375801" lon="-1.087388">
        <ele>924.8</ele>
        <time>2012-08-18T17:30:39Z</time>
      </trkpt>
      <trkpt lat="40.375691" lon="-1.087297">
        <ele>924.8</ele>
        <time>2012-08-18T17:30:42Z</time>
      </trkpt>
      <trkpt lat="40.375455" lon="-1.087146">
        <ele>924.8</ele>
        <time>2012-08-18T17:30:47Z</time>
      </trkpt>
      <trkpt lat="40.375162" lon="-1.087017">
        <ele>924.8</ele>
        <time>2012-08-18T17:30:53Z</time>
      </trkpt>
      <trkpt lat="40.375062" lon="-1.086991">
        <ele>924.8</ele>
        <time>2012-08-18T17:30:55Z</time>
      </trkpt>
      <trkpt lat="40.374700" lon="-1.086961">
        <ele>924.8</ele>
        <time>2012-08-18T17:31:02Z</time>
      </trkpt>
      <trkpt lat="40.374384" lon="-1.087018">
        <ele>924.8</ele>
        <time>2012-08-18T17:31:08Z</time>
      </trkpt>
      <trkpt lat="40.374335" lon="-1.087036">
        <ele>924.8</ele>
        <time>2012-08-18T17:31:09Z</time>
      </trkpt>
      <trkpt lat="40.374238" lon="-1.087076">
        <ele>924.8</ele>
        <time>2012-08-18T17:31:11Z</time>
      </trkpt>
      <trkpt lat="40.374092" lon="-1.087143">
        <ele>924.8</ele>
        <time>2012-08-18T17:31:14Z</time>
      </trkpt>
      <trkpt lat="40.373810" lon="-1.087316">
        <ele>924.8</ele>
        <time>2012-08-18T17:31:20Z</time>
      </trkpt>
      <trkpt lat="40.373767" lon="-1.087354">
        <ele>924.8</ele>
        <time>2012-08-18T17:31:21Z</time>
      </trkpt>
      <trkpt lat="40.373513" lon="-1.087608">
        <ele>924.8</ele>
        <time>2012-08-18T17:31:27Z</time>
      </trkpt>
      <trkpt lat="40.373286" lon="-1.087972">
        <ele>924.8</ele>
        <time>2012-08-18T17:31:34Z</time>
      </trkpt>
      <trkpt lat="40.373191" lon="-1.088134">
        <ele>925.2</ele>
        <time>2012-08-18T17:31:37Z</time>
      </trkpt>
      <trkpt lat="40.373163" lon="-1.088190">
        <ele>925.6</ele>
        <time>2012-08-18T17:31:38Z</time>
      </trkpt>
      <trkpt lat="40.373133" lon="-1.088251">
        <ele>926.0</ele>
        <time>2012-08-18T17:31:39Z</time>
      </trkpt>
      <trkpt lat="40.373104" lon="-1.088307">
        <ele>926.4</ele>
        <time>2012-08-18T17:31:40Z</time>
      </trkpt>
      <trkpt lat="40.373073" lon="-1.088362">
        <ele>926.8</ele>
        <time>2012-08-18T17:31:41Z</time>
      </trkpt>
      <trkpt lat="40.373015" lon="-1.088474">
        <ele>926.8</ele>
        <time>2012-08-18T17:31:43Z</time>
      </trkpt>
      <trkpt lat="40.372822" lon="-1.088853">
        <ele>926.8</ele>
        <time>2012-08-18T17:31:50Z</time>
      </trkpt>
      <trkpt lat="40.372640" lon="-1.089226">
        <ele>926.8</ele>
        <time>2012-08-18T17:31:57Z</time>
      </trkpt>
      <trkpt lat="40.372611" lon="-1.089280">
        <ele>927.2</ele>
        <time>2012-08-18T17:31:58Z</time>
      </trkpt>
      <trkpt lat="40.372585" lon="-1.089333">
        <ele>927.6</ele>
        <time>2012-08-18T17:31:59Z</time>
      </trkpt>
      <trkpt lat="40.372560" lon="-1.089388">
        <ele>928.0</ele>
        <time>2012-08-18T17:32:00Z</time>
      </trkpt>
      <trkpt lat="40.372536" lon="-1.089443">
        <ele>928.4</ele>
        <time>2012-08-18T17:32:01Z</time>
      </trkpt>
      <trkpt lat="40.372515" lon="-1.089497">
        <ele>928.8</ele>
        <time>2012-08-18T17:32:02Z</time>
      </trkpt>
      <trkpt lat="40.372414" lon="-1.089716">
        <ele>928.8</ele>
        <time>2012-08-18T17:32:06Z</time>
      </trkpt>
      <trkpt lat="40.372172" lon="-1.090223">
        <ele>928.8</ele>
        <time>2012-08-18T17:32:15Z</time>
      </trkpt>
      <trkpt lat="40.372028" lon="-1.090730">
        <ele>928.8</ele>
        <time>2012-08-18T17:32:23Z</time>
      </trkpt>
      <trkpt lat="40.371957" lon="-1.091257">
        <ele>928.8</ele>
        <time>2012-08-18T17:32:31Z</time>
      </trkpt>
      <trkpt lat="40.371914" lon="-1.091794">
        <ele>928.8</ele>
        <time>2012-08-18T17:32:39Z</time>
      </trkpt>
      <trkpt lat="40.371868" lon="-1.092277">
        <ele>928.8</ele>
        <time>2012-08-18T17:32:47Z</time>
      </trkpt>
      <trkpt lat="40.371865" lon="-1.092335">
        <ele>928.8</ele>
        <time>2012-08-18T17:32:48Z</time>
      </trkpt>
      <trkpt lat="40.371858" lon="-1.092456">
        <ele>929.4</ele>
        <time>2012-08-18T17:32:50Z</time>
      </trkpt>
      <trkpt lat="40.371855" lon="-1.092513">
        <ele>929.8</ele>
        <time>2012-08-18T17:32:51Z</time>
      </trkpt>
      <trkpt lat="40.371849" lon="-1.092568">
        <ele>930.2</ele>
        <time>2012-08-18T17:32:52Z</time>
      </trkpt>
      <trkpt lat="40.371839" lon="-1.092623">
        <ele>930.6</ele>
        <time>2012-08-18T17:32:53Z</time>
      </trkpt>
      <trkpt lat="40.371830" lon="-1.092679">
        <ele>931.2</ele>
        <time>2012-08-18T17:32:54Z</time>
      </trkpt>
      <trkpt lat="40.371791" lon="-1.092856">
        <ele>931.6</ele>
        <time>2012-08-18T17:32:57Z</time>
      </trkpt>
      <trkpt lat="40.371779" lon="-1.092917">
        <ele>932.0</ele>
        <time>2012-08-18T17:32:58Z</time>
      </trkpt>
      <trkpt lat="40.371766" lon="-1.092976">
        <ele>932.4</ele>
        <time>2012-08-18T17:32:59Z</time>
      </trkpt>
      <trkpt lat="40.371752" lon="-1.093032">
        <ele>932.8</ele>
        <time>2012-08-18T17:33:00Z</time>
      </trkpt>
      <trkpt lat="40.371733" lon="-1.093089">
        <ele>933.2</ele>
        <time>2012-08-18T17:33:01Z</time>
      </trkpt>
      <trkpt lat="40.371564" lon="-1.093478">
        <ele>933.2</ele>
        <time>2012-08-18T17:33:08Z</time>
      </trkpt>
      <trkpt lat="40.371348" lon="-1.093822">
        <ele>933.2</ele>
        <time>2012-08-18T17:33:15Z</time>
      </trkpt>
      <trkpt lat="40.371133" lon="-1.094069">
        <ele>933.2</ele>
        <time>2012-08-18T17:33:21Z</time>
      </trkpt>
      <trkpt lat="40.371089" lon="-1.094100">
        <ele>933.2</ele>
        <time>2012-08-18T17:33:22Z</time>
      </trkpt>
      <trkpt lat="40.370848" lon="-1.094293">
        <ele>933.2</ele>
        <time>2012-08-18T17:33:28Z</time>
      </trkpt>
      <trkpt lat="40.370582" lon="-1.094421">
        <ele>933.2</ele>
        <time>2012-08-18T17:33:34Z</time>
      </trkpt>
      <trkpt lat="40.370203" lon="-1.094526">
        <ele>933.2</ele>
        <time>2012-08-18T17:33:42Z</time>
      </trkpt>
      <trkpt lat="40.369751" lon="-1.094626">
        <ele>933.2</ele>
        <time>2012-08-18T17:33:51Z</time>
      </trkpt>
      <trkpt lat="40.369512" lon="-1.094676">
        <ele>933.6</ele>
        <time>2012-08-18T17:33:56Z</time>
      </trkpt>
      <trkpt lat="40.369461" lon="-1.094683">
        <ele>934.0</ele>
        <time>2012-08-18T17:33:57Z</time>
      </trkpt>
      <trkpt lat="40.369416" lon="-1.094692">
        <ele>934.4</ele>
        <time>2012-08-18T17:33:58Z</time>
      </trkpt>
      <trkpt lat="40.369389" lon="-1.094722">
        <ele>937.0</ele>
        <time>2012-08-18T17:45:58Z</time>
      </trkpt>
      <trkpt lat="40.369396" lon="-1.094829">
        <ele>937.0</ele>
        <time>2012-08-18T17:46:03Z</time>
      </trkpt>
      <trkpt lat="40.369395" lon="-1.094953">
        <ele>936.4</ele>
        <time>2012-08-18T17:46:06Z</time>
      </trkpt>
      <trkpt lat="40.369397" lon="-1.094994">
        <ele>935.8</ele>
        <time>2012-08-18T17:46:07Z</time>
      </trkpt>
      <trkpt lat="40.369401" lon="-1.095031">
        <ele>935.4</ele>
        <time>2012-08-18T17:46:08Z</time>
      </trkpt>
      <trkpt lat="40.369398" lon="-1.095069">
        <ele>934.8</ele>
        <time>2012-08-18T17:46:09Z</time>
      </trkpt>
      <trkpt lat="40.369403" lon="-1.095108">
        <ele>934.2</ele>
        <time>2012-08-18T17:46:10Z</time>
      </trkpt>
      <trkpt lat="40.369411" lon="-1.095150">
        <ele>933.6</ele>
        <time>2012-08-18T17:46:11Z</time>
      </trkpt>
      <trkpt lat="40.369422" lon="-1.095193">
        <ele>933.2</ele>
        <time>2012-08-18T17:46:12Z</time>
      </trkpt>
      <trkpt lat="40.369434" lon="-1.095238">
        <ele>932.0</ele>
        <time>2012-08-18T17:46:13Z</time>
      </trkpt>
      <trkpt lat="40.369457" lon="-1.095343">
        <ele>931.4</ele>
        <time>2012-08-18T17:46:15Z</time>
      </trkpt>
      <trkpt lat="40.369469" lon="-1.095396">
        <ele>931.0</ele>
        <time>2012-08-18T17:46:16Z</time>
      </trkpt>
      <trkpt lat="40.369479" lon="-1.095448">
        <ele>930.6</ele>
        <time>2012-08-18T17:46:17Z</time>
      </trkpt>
      <trkpt lat="40.369487" lon="-1.095498">
        <ele>930.0</ele>
        <time>2012-08-18T17:46:18Z</time>
      </trkpt>
      <trkpt lat="40.369492" lon="-1.095543">
        <ele>929.4</ele>
        <time>2012-08-18T17:46:19Z</time>
      </trkpt>
      <trkpt lat="40.369497" lon="-1.095584">
        <ele>928.8</ele>
        <time>2012-08-18T17:46:20Z</time>
      </trkpt>
      <trkpt lat="40.369498" lon="-1.095618">
        <ele>928.2</ele>
        <time>2012-08-18T17:46:21Z</time>
      </trkpt>
      <trkpt lat="40.369497" lon="-1.095646">
        <ele>927.6</ele>
        <time>2012-08-18T17:46:22Z</time>
      </trkpt>
      <trkpt lat="40.369495" lon="-1.095676">
        <ele>927.6</ele>
        <time>2012-08-18T17:46:25Z</time>
      </trkpt>
      <trkpt lat="40.369495" lon="-1.095676">
        <ele>927.6</ele>
        <time>2012-08-18T17:46:26Z</time>
      </trkpt>
      <trkpt lat="40.369490" lon="-1.095735">
        <ele>927.6</ele>
        <time>2012-08-18T17:46:33Z</time>
      </trkpt>
      <trkpt lat="40.369477" lon="-1.095780">
        <ele>927.6</ele>
        <time>2012-08-18T17:46:36Z</time>
      </trkpt>
      <trkpt lat="40.369472" lon="-1.095813">
        <ele>926.8</ele>
        <time>2012-08-18T17:46:38Z</time>
      </trkpt>
      <trkpt lat="40.369474" lon="-1.095833">
        <ele>926.2</ele>
        <time>2012-08-18T17:46:39Z</time>
      </trkpt>
      <trkpt lat="40.369473" lon="-1.095852">
        <ele>925.8</ele>
        <time>2012-08-18T17:46:40Z</time>
      </trkpt>
      <trkpt lat="40.369472" lon="-1.095864">
        <ele>925.4</ele>
        <time>2012-08-18T17:46:41Z</time>
      </trkpt>
      <trkpt lat="40.369472" lon="-1.095867">
        <ele>925.4</ele>
        <time>2012-08-18T17:46:42Z</time>
      </trkpt>
      <trkpt lat="40.369472" lon="-1.095867">
        <ele>925.4</ele>
        <time>2012-08-18T17:46:46Z</time>
      </trkpt>
      <trkpt lat="40.369482" lon="-1.095936">
        <ele>925.4</ele>
        <time>2012-08-18T17:47:40Z</time>
      </trkpt>
      <trkpt lat="40.369485" lon="-1.095956">
        <ele>925.4</ele>
        <time>2012-08-18T17:47:42Z</time>
      </trkpt>
      <trkpt lat="40.369486" lon="-1.095968">
        <ele>925.0</ele>
        <time>2012-08-18T17:47:43Z</time>
      </trkpt>
      <trkpt lat="40.369488" lon="-1.095982">
        <ele>924.6</ele>
        <time>2012-08-18T17:47:44Z</time>
      </trkpt>
      <trkpt lat="40.369488" lon="-1.095994">
        <ele>924.2</ele>
        <time>2012-08-18T17:47:45Z</time>
      </trkpt>
      <trkpt lat="40.369489" lon="-1.096002">
        <ele>923.8</ele>
        <time>2012-08-18T17:47:46Z</time>
      </trkpt>
      <trkpt lat="40.369491" lon="-1.096011">
        <ele>923.2</ele>
        <time>2012-08-18T17:47:47Z</time>
      </trkpt>
      <trkpt lat="40.369498" lon="-1.096029">
        <ele>923.2</ele>
        <time>2012-08-18T17:47:49Z</time>
      </trkpt>
      <trkpt lat="40.369515" lon="-1.096110">
        <ele>923.2</ele>
        <time>2012-08-18T17:47:56Z</time>
      </trkpt>
      <trkpt lat="40.369553" lon="-1.096205">
        <ele>923.2</ele>
        <time>2012-08-18T17:48:03Z</time>
      </trkpt>
      <trkpt lat="40.369588" lon="-1.096293">
        <ele>922.8</ele>
        <time>2012-08-18T17:48:10Z</time>
      </trkpt>
      <trkpt lat="40.369595" lon="-1.096304">
        <ele>922.4</ele>
        <time>2012-08-18T17:48:11Z</time>
      </trkpt>
      <trkpt lat="40.369602" lon="-1.096314">
        <ele>922.0</ele>
        <time>2012-08-18T17:48:12Z</time>
      </trkpt>
      <trkpt lat="40.369609" lon="-1.096322">
        <ele>921.4</ele>
        <time>2012-08-18T17:48:13Z</time>
      </trkpt>
      <trkpt lat="40.369615" lon="-1.096333">
        <ele>921.0</ele>
        <time>2012-08-18T17:48:14Z</time>
      </trkpt>
      <trkpt lat="40.369638" lon="-1.096378">
        <ele>921.0</ele>
        <time>2012-08-18T17:48:18Z</time>
      </trkpt>
      <trkpt lat="40.369682" lon="-1.096488">
        <ele>921.0</ele>
        <time>2012-08-18T17:48:26Z</time>
      </trkpt>
      <trkpt lat="40.369684" lon="-1.096581">
        <ele>921.0</ele>
        <time>2012-08-18T17:48:33Z</time>
      </trkpt>
      <trkpt lat="40.369693" lon="-1.096631">
        <ele>920.6</ele>
        <time>2012-08-18T17:48:37Z</time>
      </trkpt>
      <trkpt lat="40.369694" lon="-1.096641">
        <ele>920.2</ele>
        <time>2012-08-18T17:48:38Z</time>
      </trkpt>
      <trkpt lat="40.369692" lon="-1.096652">
        <ele>919.8</ele>
        <time>2012-08-18T17:48:39Z</time>
      </trkpt>
      <trkpt lat="40.369690" lon="-1.096663">
        <ele>919.4</ele>
        <time>2012-08-18T17:48:40Z</time>
      </trkpt>
      <trkpt lat="40.369688" lon="-1.096675">
        <ele>919.0</ele>
        <time>2012-08-18T17:48:41Z</time>
      </trkpt>
      <trkpt lat="40.369677" lon="-1.096783">
        <ele>919.0</ele>
        <time>2012-08-18T17:48:49Z</time>
      </trkpt>
      <trkpt lat="40.369715" lon="-1.096895">
        <ele>919.0</ele>
        <time>2012-08-18T17:48:58Z</time>
      </trkpt>
      <trkpt lat="40.369735" lon="-1.096929">
        <ele>918.6</ele>
        <time>2012-08-18T17:49:01Z</time>
      </trkpt>
      <trkpt lat="40.369741" lon="-1.096940">
        <ele>918.2</ele>
        <time>2012-08-18T17:49:02Z</time>
      </trkpt>
      <trkpt lat="40.369746" lon="-1.096950">
        <ele>917.8</ele>
        <time>2012-08-18T17:49:03Z</time>
      </trkpt>
      <trkpt lat="40.369751" lon="-1.096960">
        <ele>917.4</ele>
        <time>2012-08-18T17:49:04Z</time>
      </trkpt>
      <trkpt lat="40.369758" lon="-1.096970">
        <ele>917.0</ele>
        <time>2012-08-18T17:49:05Z</time>
      </trkpt>
      <trkpt lat="40.369777" lon="-1.097001">
        <ele>917.0</ele>
        <time>2012-08-18T17:49:08Z</time>
      </trkpt>
      <trkpt lat="40.369816" lon="-1.097066">
        <ele>917.0</ele>
        <time>2012-08-18T17:49:16Z</time>
      </trkpt>
      <trkpt lat="40.369816" lon="-1.097066">
        <ele>917.0</ele>
        <time>2012-08-18T17:49:20Z</time>
      </trkpt>
      <trkpt lat="40.369811" lon="-1.097080">
        <ele>917.0</ele>
        <time>2012-08-18T17:49:23Z</time>
      </trkpt>
      <trkpt lat="40.369810" lon="-1.097080">
        <ele>917.0</ele>
        <time>2012-08-18T17:49:24Z</time>
      </trkpt>
      <trkpt lat="40.369810" lon="-1.097081">
        <ele>917.0</ele>
        <time>2012-08-18T17:49:27Z</time>
      </trkpt>
      <trkpt lat="40.369790" lon="-1.097164">
        <ele>917.0</ele>
        <time>2012-08-18T17:49:30Z</time>
      </trkpt>
      <trkpt lat="40.369782" lon="-1.097192">
        <ele>917.0</ele>
        <time>2012-08-18T17:49:31Z</time>
      </trkpt>
      <trkpt lat="40.369773" lon="-1.097227">
        <ele>916.4</ele>
        <time>2012-08-18T17:49:32Z</time>
      </trkpt>
      <trkpt lat="40.369761" lon="-1.097265">
        <ele>916.0</ele>
        <time>2012-08-18T17:49:33Z</time>
      </trkpt>
      <trkpt lat="40.369744" lon="-1.097303">
        <ele>915.6</ele>
        <time>2012-08-18T17:49:34Z</time>
      </trkpt>
      <trkpt lat="40.369724" lon="-1.097343">
        <ele>915.2</ele>
        <time>2012-08-18T17:49:35Z</time>
      </trkpt>
      <trkpt lat="40.369701" lon="-1.097385">
        <ele>914.6</ele>
        <time>2012-08-18T17:49:36Z</time>
      </trkpt>
      <trkpt lat="40.369679" lon="-1.097432">
        <ele>914.2</ele>
        <time>2012-08-18T17:49:37Z</time>
      </trkpt>
      <trkpt lat="40.369657" lon="-1.097479">
        <ele>913.8</ele>
        <time>2012-08-18T17:49:38Z</time>
      </trkpt>
      <trkpt lat="40.369631" lon="-1.097524">
        <ele>913.4</ele>
        <time>2012-08-18T17:49:39Z</time>
      </trkpt>
      <trkpt lat="40.369604" lon="-1.097560">
        <ele>912.8</ele>
        <time>2012-08-18T17:49:40Z</time>
      </trkpt>
      <trkpt lat="40.369572" lon="-1.097581">
        <ele>912.4</ele>
        <time>2012-08-18T17:49:41Z</time>
      </trkpt>
      <trkpt lat="40.369500" lon="-1.097606">
        <ele>912.4</ele>
        <time>2012-08-18T17:49:43Z</time>
      </trkpt>
      <trkpt lat="40.369470" lon="-1.097616">
        <ele>912.4</ele>
        <time>2012-08-18T17:49:44Z</time>
      </trkpt>
      <trkpt lat="40.369306" lon="-1.097606">
        <ele>912.4</ele>
        <time>2012-08-18T17:49:50Z</time>
      </trkpt>
      <trkpt lat="40.369075" lon="-1.097533">
        <ele>912.4</ele>
        <time>2012-08-18T17:49:58Z</time>
      </trkpt>
      <trkpt lat="40.368895" lon="-1.097409">
        <ele>912.4</ele>
        <time>2012-08-18T17:50:04Z</time>
      </trkpt>
      <trkpt lat="40.368720" lon="-1.097185">
        <ele>912.4</ele>
        <time>2012-08-18T17:50:12Z</time>
      </trkpt>
      <trkpt lat="40.368621" lon="-1.097014">
        <ele>912.4</ele>
        <time>2012-08-18T17:50:18Z</time>
      </trkpt>
      <trkpt lat="40.368458" lon="-1.096763">
        <ele>912.4</ele>
        <time>2012-08-18T17:50:26Z</time>
      </trkpt>
      <trkpt lat="40.368326" lon="-1.096545">
        <ele>912.4</ele>
        <time>2012-08-18T17:50:33Z</time>
      </trkpt>
      <trkpt lat="40.368155" lon="-1.096410">
        <ele>912.4</ele>
        <time>2012-08-18T17:50:40Z</time>
      </trkpt>
      <trkpt lat="40.367981" lon="-1.096422">
        <ele>912.4</ele>
        <time>2012-08-18T17:50:45Z</time>
      </trkpt>
      <trkpt lat="40.367757" lon="-1.096269">
        <ele>912.4</ele>
        <time>2012-08-18T17:50:50Z</time>
      </trkpt>
      <trkpt lat="40.367555" lon="-1.096255">
        <ele>912.4</ele>
        <time>2012-08-18T17:50:54Z</time>
      </trkpt>
      <trkpt lat="40.367511" lon="-1.096287">
        <ele>912.0</ele>
        <time>2012-08-18T17:50:55Z</time>
      </trkpt>
      <trkpt lat="40.367475" lon="-1.096330">
        <ele>911.6</ele>
        <time>2012-08-18T17:50:56Z</time>
      </trkpt>
      <trkpt lat="40.367449" lon="-1.096390">
        <ele>911.2</ele>
        <time>2012-08-18T17:50:57Z</time>
      </trkpt>
      <trkpt lat="40.367435" lon="-1.096462">
        <ele>910.8</ele>
        <time>2012-08-18T17:50:58Z</time>
      </trkpt>
      <trkpt lat="40.367433" lon="-1.096539">
        <ele>910.4</ele>
        <time>2012-08-18T17:50:59Z</time>
      </trkpt>
      <trkpt lat="40.367441" lon="-1.096618">
        <ele>910.4</ele>
        <time>2012-08-18T17:51:00Z</time>
      </trkpt>
      <trkpt lat="40.367473" lon="-1.096954">
        <ele>910.4</ele>
        <time>2012-08-18T17:51:04Z</time>
      </trkpt>
      <trkpt lat="40.367445" lon="-1.097126">
        <ele>910.4</ele>
        <time>2012-08-18T17:51:06Z</time>
      </trkpt>
      <trkpt lat="40.367427" lon="-1.097212">
        <ele>910.0</ele>
        <time>2012-08-18T17:51:07Z</time>
      </trkpt>
    </trkseg>
  </trk>
  <trk>
    <name>T3303249-9</name>
    <cmt>La ruta empieza en Ojos Negros. Hasta Santa Eulalia va por una carretera comarcal apenas transitada. Hay un tramo de unos 40 km durante el puerto del Escandón que no aparece reflejado en el track porque me quedé sin batería en el GPS pero la vía verde no tiene pérdida en esa zona</cmt>
    <desc>La ruta empieza en Ojos Negros. Hasta Santa Eulalia va por una carretera comarcal apenas transitada. Hay un tramo de unos 40 km durante el puerto del Escandón que no aparece reflejado en el track porque me quedé sin batería en el GPS pero la vía verde no tiene pérdida en esa zona</desc>
    <trkseg>
      <trkpt lat="40.367405" lon="-1.097300">
        <ele>909.6</ele>
        <time>2012-08-18T17:51:08Z</time>
      </trkpt>
      <trkpt lat="40.367380" lon="-1.097388">
        <ele>908.8</ele>
        <time>2012-08-18T17:51:09Z</time>
      </trkpt>
      <trkpt lat="40.367328" lon="-1.097450">
        <ele>908.2</ele>
        <time>2012-08-18T17:51:10Z</time>
      </trkpt>
      <trkpt lat="40.367267" lon="-1.097499">
        <ele>908.2</ele>
        <time>2012-08-18T17:51:11Z</time>
      </trkpt>
      <trkpt lat="40.366981" lon="-1.097607">
        <ele>908.2</ele>
        <time>2012-08-18T17:51:15Z</time>
      </trkpt>
      <trkpt lat="40.366766" lon="-1.097678">
        <ele>908.2</ele>
        <time>2012-08-18T17:51:18Z</time>
      </trkpt>
      <trkpt lat="40.366652" lon="-1.097780">
        <ele>907.8</ele>
        <time>2012-08-18T17:51:20Z</time>
      </trkpt>
      <trkpt lat="40.366603" lon="-1.097846">
        <ele>907.4</ele>
        <time>2012-08-18T17:51:21Z</time>
      </trkpt>
      <trkpt lat="40.366558" lon="-1.097915">
        <ele>907.0</ele>
        <time>2012-08-18T17:51:22Z</time>
      </trkpt>
      <trkpt lat="40.366518" lon="-1.097990">
        <ele>906.6</ele>
        <time>2012-08-18T17:51:23Z</time>
      </trkpt>
      <trkpt lat="40.366480" lon="-1.098072">
        <ele>906.2</ele>
        <time>2012-08-18T17:51:24Z</time>
      </trkpt>
      <trkpt lat="40.366449" lon="-1.098153">
        <ele>906.2</ele>
        <time>2012-08-18T17:51:25Z</time>
      </trkpt>
      <trkpt lat="40.366273" lon="-1.098672">
        <ele>906.2</ele>
        <time>2012-08-18T17:51:31Z</time>
      </trkpt>
      <trkpt lat="40.366076" lon="-1.099318">
        <ele>906.2</ele>
        <time>2012-08-18T17:51:38Z</time>
      </trkpt>
      <trkpt lat="40.366029" lon="-1.099508">
        <ele>906.2</ele>
        <time>2012-08-18T17:51:40Z</time>
      </trkpt>
      <trkpt lat="40.365953" lon="-1.100050">
        <ele>906.2</ele>
        <time>2012-08-18T17:51:46Z</time>
      </trkpt>
      <trkpt lat="40.365938" lon="-1.100310">
        <ele>906.6</ele>
        <time>2012-08-18T17:51:49Z</time>
      </trkpt>
      <trkpt lat="40.365942" lon="-1.100394">
        <ele>907.0</ele>
        <time>2012-08-18T17:51:50Z</time>
      </trkpt>
      <trkpt lat="40.365950" lon="-1.100475">
        <ele>907.4</ele>
        <time>2012-08-18T17:51:51Z</time>
      </trkpt>
      <trkpt lat="40.365962" lon="-1.100555">
        <ele>907.8</ele>
        <time>2012-08-18T17:51:52Z</time>
      </trkpt>
      <trkpt lat="40.365975" lon="-1.100632">
        <ele>908.2</ele>
        <time>2012-08-18T17:51:53Z</time>
      </trkpt>
      <trkpt lat="40.366004" lon="-1.100844">
        <ele>908.8</ele>
        <time>2012-08-18T17:51:56Z</time>
      </trkpt>
      <trkpt lat="40.366012" lon="-1.100910">
        <ele>909.2</ele>
        <time>2012-08-18T17:51:57Z</time>
      </trkpt>
      <trkpt lat="40.366021" lon="-1.100974">
        <ele>909.6</ele>
        <time>2012-08-18T17:51:58Z</time>
      </trkpt>
      <trkpt lat="40.366028" lon="-1.101033">
        <ele>910.6</ele>
        <time>2012-08-18T17:51:59Z</time>
      </trkpt>
      <trkpt lat="40.366043" lon="-1.101146">
        <ele>911.0</ele>
        <time>2012-08-18T17:52:01Z</time>
      </trkpt>
      <trkpt lat="40.366049" lon="-1.101203">
        <ele>911.6</ele>
        <time>2012-08-18T17:52:02Z</time>
      </trkpt>
      <trkpt lat="40.366054" lon="-1.101261">
        <ele>912.0</ele>
        <time>2012-08-18T17:52:03Z</time>
      </trkpt>
      <trkpt lat="40.366058" lon="-1.101315">
        <ele>912.4</ele>
        <time>2012-08-18T17:52:04Z</time>
      </trkpt>
      <trkpt lat="40.366061" lon="-1.101368">
        <ele>913.0</ele>
        <time>2012-08-18T17:52:05Z</time>
      </trkpt>
      <trkpt lat="40.366064" lon="-1.101472">
        <ele>913.4</ele>
        <time>2012-08-18T17:52:07Z</time>
      </trkpt>
      <trkpt lat="40.366063" lon="-1.101529">
        <ele>913.8</ele>
        <time>2012-08-18T17:52:08Z</time>
      </trkpt>
      <trkpt lat="40.366063" lon="-1.101584">
        <ele>914.2</ele>
        <time>2012-08-18T17:52:09Z</time>
      </trkpt>
      <trkpt lat="40.366061" lon="-1.101638">
        <ele>914.6</ele>
        <time>2012-08-18T17:52:10Z</time>
      </trkpt>
      <trkpt lat="40.366058" lon="-1.101691">
        <ele>915.0</ele>
        <time>2012-08-18T17:52:11Z</time>
      </trkpt>
      <trkpt lat="40.366056" lon="-1.101744">
        <ele>915.0</ele>
        <time>2012-08-18T17:52:12Z</time>
      </trkpt>
      <trkpt lat="40.366046" lon="-1.101934">
        <ele>915.4</ele>
        <time>2012-08-18T17:52:16Z</time>
      </trkpt>
      <trkpt lat="40.366042" lon="-1.101978">
        <ele>915.8</ele>
        <time>2012-08-18T17:52:17Z</time>
      </trkpt>
      <trkpt lat="40.366037" lon="-1.102021">
        <ele>916.2</ele>
        <time>2012-08-18T17:52:18Z</time>
      </trkpt>
      <trkpt lat="40.366030" lon="-1.102063">
        <ele>916.8</ele>
        <time>2012-08-18T17:52:19Z</time>
      </trkpt>
      <trkpt lat="40.366023" lon="-1.102104">
        <ele>917.2</ele>
        <time>2012-08-18T17:52:20Z</time>
      </trkpt>
      <trkpt lat="40.365977" lon="-1.102360">
        <ele>917.2</ele>
        <time>2012-08-18T17:52:26Z</time>
      </trkpt>
      <trkpt lat="40.365957" lon="-1.102436">
        <ele>917.6</ele>
        <time>2012-08-18T17:52:28Z</time>
      </trkpt>
      <trkpt lat="40.365946" lon="-1.102472">
        <ele>918.0</ele>
        <time>2012-08-18T17:52:29Z</time>
      </trkpt>
      <trkpt lat="40.365935" lon="-1.102507">
        <ele>918.4</ele>
        <time>2012-08-18T17:52:30Z</time>
      </trkpt>
      <trkpt lat="40.365921" lon="-1.102542">
        <ele>918.8</ele>
        <time>2012-08-18T17:52:31Z</time>
      </trkpt>
      <trkpt lat="40.365906" lon="-1.102579">
        <ele>919.2</ele>
        <time>2012-08-18T17:52:32Z</time>
      </trkpt>
      <trkpt lat="40.365892" lon="-1.102617">
        <ele>919.2</ele>
        <time>2012-08-18T17:52:33Z</time>
      </trkpt>
      <trkpt lat="40.365727" lon="-1.103015">
        <ele>919.2</ele>
        <time>2012-08-18T17:52:43Z</time>
      </trkpt>
      <trkpt lat="40.365462" lon="-1.103469">
        <ele>919.2</ele>
        <time>2012-08-18T17:52:55Z</time>
      </trkpt>
      <trkpt lat="40.365235" lon="-1.103831">
        <ele>919.2</ele>
        <time>2012-08-18T17:53:04Z</time>
      </trkpt>
      <trkpt lat="40.365044" lon="-1.104139">
        <ele>919.2</ele>
        <time>2012-08-18T17:53:12Z</time>
      </trkpt>
      <trkpt lat="40.364927" lon="-1.104323">
        <ele>919.6</ele>
        <time>2012-08-18T17:53:17Z</time>
      </trkpt>
      <trkpt lat="40.364902" lon="-1.104359">
        <ele>920.0</ele>
        <time>2012-08-18T17:53:18Z</time>
      </trkpt>
      <trkpt lat="40.364880" lon="-1.104396">
        <ele>920.4</ele>
        <time>2012-08-18T17:53:19Z</time>
      </trkpt>
      <trkpt lat="40.364861" lon="-1.104433">
        <ele>920.8</ele>
        <time>2012-08-18T17:53:20Z</time>
      </trkpt>
      <trkpt lat="40.364837" lon="-1.104470">
        <ele>921.4</ele>
        <time>2012-08-18T17:53:21Z</time>
      </trkpt>
      <trkpt lat="40.364713" lon="-1.104666">
        <ele>921.4</ele>
        <time>2012-08-18T17:53:26Z</time>
      </trkpt>
      <trkpt lat="40.364663" lon="-1.104746">
        <ele>921.4</ele>
        <time>2012-08-18T17:53:28Z</time>
      </trkpt>
      <trkpt lat="40.364617" lon="-1.104820">
        <ele>921.8</ele>
        <time>2012-08-18T17:53:30Z</time>
      </trkpt>
      <trkpt lat="40.364591" lon="-1.104860">
        <ele>922.2</ele>
        <time>2012-08-18T17:53:31Z</time>
      </trkpt>
      <trkpt lat="40.364565" lon="-1.104901">
        <ele>922.6</ele>
        <time>2012-08-18T17:53:32Z</time>
      </trkpt>
      <trkpt lat="40.364539" lon="-1.104945">
        <ele>923.0</ele>
        <time>2012-08-18T17:53:33Z</time>
      </trkpt>
      <trkpt lat="40.364515" lon="-1.104988">
        <ele>923.4</ele>
        <time>2012-08-18T17:53:34Z</time>
      </trkpt>
      <trkpt lat="40.364436" lon="-1.105110">
        <ele>923.4</ele>
        <time>2012-08-18T17:53:37Z</time>
      </trkpt>
      <trkpt lat="40.364389" lon="-1.105186">
        <ele>923.8</ele>
        <time>2012-08-18T17:53:39Z</time>
      </trkpt>
      <trkpt lat="40.364367" lon="-1.105224">
        <ele>924.2</ele>
        <time>2012-08-18T17:53:40Z</time>
      </trkpt>
      <trkpt lat="40.364344" lon="-1.105260">
        <ele>924.6</ele>
        <time>2012-08-18T17:53:41Z</time>
      </trkpt>
      <trkpt lat="40.364321" lon="-1.105297">
        <ele>925.0</ele>
        <time>2012-08-18T17:53:42Z</time>
      </trkpt>
      <trkpt lat="40.364299" lon="-1.105332">
        <ele>925.4</ele>
        <time>2012-08-18T17:53:43Z</time>
      </trkpt>
      <trkpt lat="40.364256" lon="-1.105403">
        <ele>925.4</ele>
        <time>2012-08-18T17:53:45Z</time>
      </trkpt>
      <trkpt lat="40.364195" lon="-1.105505">
        <ele>926.0</ele>
        <time>2012-08-18T17:53:48Z</time>
      </trkpt>
      <trkpt lat="40.364174" lon="-1.105536">
        <ele>926.4</ele>
        <time>2012-08-18T17:53:49Z</time>
      </trkpt>
      <trkpt lat="40.364151" lon="-1.105568">
        <ele>926.8</ele>
        <time>2012-08-18T17:53:50Z</time>
      </trkpt>
      <trkpt lat="40.364129" lon="-1.105601">
        <ele>927.2</ele>
        <time>2012-08-18T17:53:51Z</time>
      </trkpt>
      <trkpt lat="40.364105" lon="-1.105632">
        <ele>927.6</ele>
        <time>2012-08-18T17:53:52Z</time>
      </trkpt>
      <trkpt lat="40.364086" lon="-1.105663">
        <ele>927.6</ele>
        <time>2012-08-18T17:53:53Z</time>
      </trkpt>
      <trkpt lat="40.363998" lon="-1.105810">
        <ele>928.0</ele>
        <time>2012-08-18T17:53:58Z</time>
      </trkpt>
      <trkpt lat="40.363981" lon="-1.105841">
        <ele>928.4</ele>
        <time>2012-08-18T17:53:59Z</time>
      </trkpt>
      <trkpt lat="40.363963" lon="-1.105866">
        <ele>928.8</ele>
        <time>2012-08-18T17:54:00Z</time>
      </trkpt>
      <trkpt lat="40.363945" lon="-1.105896">
        <ele>929.2</ele>
        <time>2012-08-18T17:54:01Z</time>
      </trkpt>
      <trkpt lat="40.363926" lon="-1.105928">
        <ele>929.6</ele>
        <time>2012-08-18T17:54:02Z</time>
      </trkpt>
      <trkpt lat="40.363833" lon="-1.106089">
        <ele>930.0</ele>
        <time>2012-08-18T17:54:07Z</time>
      </trkpt>
      <trkpt lat="40.363815" lon="-1.106117">
        <ele>930.4</ele>
        <time>2012-08-18T17:54:08Z</time>
      </trkpt>
      <trkpt lat="40.363798" lon="-1.106143">
        <ele>930.8</ele>
        <time>2012-08-18T17:54:09Z</time>
      </trkpt>
      <trkpt lat="40.363783" lon="-1.106170">
        <ele>931.2</ele>
        <time>2012-08-18T17:54:10Z</time>
      </trkpt>
      <trkpt lat="40.363765" lon="-1.106198">
        <ele>931.6</ele>
        <time>2012-08-18T17:54:11Z</time>
      </trkpt>
      <trkpt lat="40.363682" lon="-1.106335">
        <ele>931.6</ele>
        <time>2012-08-18T17:54:16Z</time>
      </trkpt>
      <trkpt lat="40.363648" lon="-1.106386">
        <ele>932.0</ele>
        <time>2012-08-18T17:54:18Z</time>
      </trkpt>
      <trkpt lat="40.363631" lon="-1.106409">
        <ele>932.6</ele>
        <time>2012-08-18T17:54:19Z</time>
      </trkpt>
      <trkpt lat="40.363612" lon="-1.106433">
        <ele>933.0</ele>
        <time>2012-08-18T17:54:20Z</time>
      </trkpt>
      <trkpt lat="40.363594" lon="-1.106459">
        <ele>933.4</ele>
        <time>2012-08-18T17:54:21Z</time>
      </trkpt>
      <trkpt lat="40.363575" lon="-1.106482">
        <ele>933.8</ele>
        <time>2012-08-18T17:54:22Z</time>
      </trkpt>
      <trkpt lat="40.363454" lon="-1.106641">
        <ele>933.8</ele>
        <time>2012-08-18T17:54:28Z</time>
      </trkpt>
      <trkpt lat="40.363405" lon="-1.106691">
        <ele>934.2</ele>
        <time>2012-08-18T17:54:30Z</time>
      </trkpt>
      <trkpt lat="40.363383" lon="-1.106713">
        <ele>934.6</ele>
        <time>2012-08-18T17:54:31Z</time>
      </trkpt>
      <trkpt lat="40.363364" lon="-1.106735">
        <ele>935.0</ele>
        <time>2012-08-18T17:54:32Z</time>
      </trkpt>
      <trkpt lat="40.363342" lon="-1.106757">
        <ele>935.6</ele>
        <time>2012-08-18T17:54:33Z</time>
      </trkpt>
      <trkpt lat="40.363315" lon="-1.106779">
        <ele>936.0</ele>
        <time>2012-08-18T17:54:34Z</time>
      </trkpt>
      <trkpt lat="40.363288" lon="-1.106800">
        <ele>936.0</ele>
        <time>2012-08-18T17:54:35Z</time>
      </trkpt>
      <trkpt lat="40.363112" lon="-1.106927">
        <ele>936.4</ele>
        <time>2012-08-18T17:54:41Z</time>
      </trkpt>
      <trkpt lat="40.363084" lon="-1.106943">
        <ele>936.8</ele>
        <time>2012-08-18T17:54:42Z</time>
      </trkpt>
      <trkpt lat="40.363055" lon="-1.106960">
        <ele>937.2</ele>
        <time>2012-08-18T17:54:43Z</time>
      </trkpt>
      <trkpt lat="40.363025" lon="-1.106978">
        <ele>937.6</ele>
        <time>2012-08-18T17:54:44Z</time>
      </trkpt>
      <trkpt lat="40.362998" lon="-1.106994">
        <ele>938.2</ele>
        <time>2012-08-18T17:54:45Z</time>
      </trkpt>
      <trkpt lat="40.362852" lon="-1.107060">
        <ele>938.2</ele>
        <time>2012-08-18T17:54:50Z</time>
      </trkpt>
      <trkpt lat="40.362825" lon="-1.107072">
        <ele>939.0</ele>
        <time>2012-08-18T17:54:51Z</time>
      </trkpt>
      <trkpt lat="40.362794" lon="-1.107087">
        <ele>939.4</ele>
        <time>2012-08-18T17:54:52Z</time>
      </trkpt>
      <trkpt lat="40.362766" lon="-1.107101">
        <ele>939.8</ele>
        <time>2012-08-18T17:54:53Z</time>
      </trkpt>
      <trkpt lat="40.362738" lon="-1.107113">
        <ele>940.2</ele>
        <time>2012-08-18T17:54:54Z</time>
      </trkpt>
      <trkpt lat="40.362568" lon="-1.107181">
        <ele>940.2</ele>
        <time>2012-08-18T17:55:00Z</time>
      </trkpt>
      <trkpt lat="40.362325" lon="-1.107262">
        <ele>940.6</ele>
        <time>2012-08-18T17:55:08Z</time>
      </trkpt>
      <trkpt lat="40.362295" lon="-1.107274">
        <ele>941.0</ele>
        <time>2012-08-18T17:55:09Z</time>
      </trkpt>
      <trkpt lat="40.362265" lon="-1.107284">
        <ele>941.4</ele>
        <time>2012-08-18T17:55:10Z</time>
      </trkpt>
      <trkpt lat="40.362235" lon="-1.107293">
        <ele>941.8</ele>
        <time>2012-08-18T17:55:11Z</time>
      </trkpt>
      <trkpt lat="40.362204" lon="-1.107301">
        <ele>942.2</ele>
        <time>2012-08-18T17:55:12Z</time>
      </trkpt>
      <trkpt lat="40.362045" lon="-1.107341">
        <ele>942.2</ele>
        <time>2012-08-18T17:55:17Z</time>
      </trkpt>
      <trkpt lat="40.361758" lon="-1.107422">
        <ele>942.2</ele>
        <time>2012-08-18T17:55:25Z</time>
      </trkpt>
      <trkpt lat="40.361436" lon="-1.107513">
        <ele>942.2</ele>
        <time>2012-08-18T17:55:34Z</time>
      </trkpt>
      <trkpt lat="40.361216" lon="-1.107576">
        <ele>942.6</ele>
        <time>2012-08-18T17:55:40Z</time>
      </trkpt>
      <trkpt lat="40.361178" lon="-1.107589">
        <ele>943.0</ele>
        <time>2012-08-18T17:55:41Z</time>
      </trkpt>
      <trkpt lat="40.361139" lon="-1.107601">
        <ele>943.6</ele>
        <time>2012-08-18T17:55:42Z</time>
      </trkpt>
      <trkpt lat="40.361100" lon="-1.107614">
        <ele>944.0</ele>
        <time>2012-08-18T17:55:43Z</time>
      </trkpt>
      <trkpt lat="40.361061" lon="-1.107624">
        <ele>944.4</ele>
        <time>2012-08-18T17:55:44Z</time>
      </trkpt>
      <trkpt lat="40.360905" lon="-1.107674">
        <ele>944.4</ele>
        <time>2012-08-18T17:55:48Z</time>
      </trkpt>
      <trkpt lat="40.360782" lon="-1.107696">
        <ele>944.4</ele>
        <time>2012-08-18T17:55:51Z</time>
      </trkpt>
      <trkpt lat="40.360739" lon="-1.107699">
        <ele>944.4</ele>
        <time>2012-08-18T17:55:52Z</time>
      </trkpt>
      <trkpt lat="40.360421" lon="-1.107777">
        <ele>944.4</ele>
        <time>2012-08-18T17:55:59Z</time>
      </trkpt>
      <trkpt lat="40.359958" lon="-1.107921">
        <ele>944.4</ele>
        <time>2012-08-18T17:56:08Z</time>
      </trkpt>
      <trkpt lat="40.359640" lon="-1.108036">
        <ele>944.4</ele>
        <time>2012-08-18T17:56:14Z</time>
      </trkpt>
      <trkpt lat="40.359210" lon="-1.108175">
        <ele>944.4</ele>
        <time>2012-08-18T17:56:22Z</time>
      </trkpt>
      <trkpt lat="40.358708" lon="-1.108314">
        <ele>944.4</ele>
        <time>2012-08-18T17:56:31Z</time>
      </trkpt>
      <trkpt lat="40.358485" lon="-1.108369">
        <ele>944.4</ele>
        <time>2012-08-18T17:56:35Z</time>
      </trkpt>
      <trkpt lat="40.358045" lon="-1.108488">
        <ele>944.8</ele>
        <time>2012-08-18T17:56:43Z</time>
      </trkpt>
      <trkpt lat="40.357992" lon="-1.108504">
        <ele>945.2</ele>
        <time>2012-08-18T17:56:44Z</time>
      </trkpt>
      <trkpt lat="40.357939" lon="-1.108518">
        <ele>945.6</ele>
        <time>2012-08-18T17:56:45Z</time>
      </trkpt>
      <trkpt lat="40.357888" lon="-1.108532">
        <ele>946.0</ele>
        <time>2012-08-18T17:56:46Z</time>
      </trkpt>
      <trkpt lat="40.357836" lon="-1.108546">
        <ele>946.4</ele>
        <time>2012-08-18T17:56:47Z</time>
      </trkpt>
      <trkpt lat="40.357489" lon="-1.108642">
        <ele>946.4</ele>
        <time>2012-08-18T17:56:54Z</time>
      </trkpt>
      <trkpt lat="40.357213" lon="-1.108689">
        <ele>946.8</ele>
        <time>2012-08-18T17:57:00Z</time>
      </trkpt>
      <trkpt lat="40.357167" lon="-1.108694">
        <ele>947.2</ele>
        <time>2012-08-18T17:57:01Z</time>
      </trkpt>
      <trkpt lat="40.357123" lon="-1.108699">
        <ele>947.6</ele>
        <time>2012-08-18T17:57:02Z</time>
      </trkpt>
      <trkpt lat="40.357078" lon="-1.108703">
        <ele>948.0</ele>
        <time>2012-08-18T17:57:03Z</time>
      </trkpt>
      <trkpt lat="40.357036" lon="-1.108703">
        <ele>948.4</ele>
        <time>2012-08-18T17:57:04Z</time>
      </trkpt>
      <trkpt lat="40.356773" lon="-1.108687">
        <ele>948.4</ele>
        <time>2012-08-18T17:57:10Z</time>
      </trkpt>
      <trkpt lat="40.356731" lon="-1.108678">
        <ele>948.4</ele>
        <time>2012-08-18T17:57:11Z</time>
      </trkpt>
      <trkpt lat="40.356500" lon="-1.108628">
        <ele>948.4</ele>
        <time>2012-08-18T17:57:17Z</time>
      </trkpt>
      <trkpt lat="40.356295" lon="-1.108633">
        <ele>948.4</ele>
        <time>2012-08-18T17:57:23Z</time>
      </trkpt>
      <trkpt lat="40.356249" lon="-1.108640">
        <ele>948.4</ele>
        <time>2012-08-18T17:57:26Z</time>
      </trkpt>
      <trkpt lat="40.356249" lon="-1.108640">
        <ele>948.4</ele>
        <time>2012-08-18T17:57:27Z</time>
      </trkpt>
      <trkpt lat="40.356196" lon="-1.108635">
        <ele>948.4</ele>
        <time>2012-08-18T18:00:22Z</time>
      </trkpt>
      <trkpt lat="40.356162" lon="-1.108620">
        <ele>948.4</ele>
        <time>2012-08-18T18:00:24Z</time>
      </trkpt>
      <trkpt lat="40.356026" lon="-1.108579">
        <ele>948.4</ele>
        <time>2012-08-18T18:00:32Z</time>
      </trkpt>
      <trkpt lat="40.355934" lon="-1.108557">
        <ele>948.8</ele>
        <time>2012-08-18T18:00:37Z</time>
      </trkpt>
      <trkpt lat="40.355916" lon="-1.108549">
        <ele>949.2</ele>
        <time>2012-08-18T18:00:38Z</time>
      </trkpt>
      <trkpt lat="40.355898" lon="-1.108546">
        <ele>949.6</ele>
        <time>2012-08-18T18:00:39Z</time>
      </trkpt>
      <trkpt lat="40.355877" lon="-1.108541">
        <ele>950.0</ele>
        <time>2012-08-18T18:00:40Z</time>
      </trkpt>
      <trkpt lat="40.355852" lon="-1.108536">
        <ele>950.4</ele>
        <time>2012-08-18T18:00:41Z</time>
      </trkpt>
      <trkpt lat="40.355767" lon="-1.108511">
        <ele>950.4</ele>
        <time>2012-08-18T18:00:45Z</time>
      </trkpt>
      <trkpt lat="40.355608" lon="-1.108462">
        <ele>950.4</ele>
        <time>2012-08-18T18:00:52Z</time>
      </trkpt>
      <trkpt lat="40.355470" lon="-1.108438">
        <ele>950.4</ele>
        <time>2012-08-18T18:00:58Z</time>
      </trkpt>
      <trkpt lat="40.355369" lon="-1.108375">
        <ele>950.4</ele>
        <time>2012-08-18T18:01:04Z</time>
      </trkpt>
      <trkpt lat="40.355315" lon="-1.108363">
        <ele>950.4</ele>
        <time>2012-08-18T18:01:07Z</time>
      </trkpt>
      <trkpt lat="40.355286" lon="-1.108360">
        <ele>950.4</ele>
        <time>2012-08-18T18:01:09Z</time>
      </trkpt>
      <trkpt lat="40.355160" lon="-1.108364">
        <ele>950.4</ele>
        <time>2012-08-18T18:01:14Z</time>
      </trkpt>
      <trkpt lat="40.355107" lon="-1.108361">
        <ele>950.0</ele>
        <time>2012-08-18T18:01:17Z</time>
      </trkpt>
      <trkpt lat="40.355104" lon="-1.108358">
        <ele>949.6</ele>
        <time>2012-08-18T18:01:18Z</time>
      </trkpt>
      <trkpt lat="40.355105" lon="-1.108358">
        <ele>949.2</ele>
        <time>2012-08-18T18:01:19Z</time>
      </trkpt>
      <trkpt lat="40.355065" lon="-1.108352">
        <ele>948.4</ele>
        <time>2012-08-18T18:01:25Z</time>
      </trkpt>
      <trkpt lat="40.355017" lon="-1.108351">
        <ele>948.4</ele>
        <time>2012-08-18T18:01:27Z</time>
      </trkpt>
      <trkpt lat="40.354834" lon="-1.108374">
        <ele>948.4</ele>
        <time>2012-08-18T18:01:32Z</time>
      </trkpt>
      <trkpt lat="40.354613" lon="-1.108397">
        <ele>948.0</ele>
        <time>2012-08-18T18:01:37Z</time>
      </trkpt>
      <trkpt lat="40.354567" lon="-1.108407">
        <ele>947.6</ele>
        <time>2012-08-18T18:01:38Z</time>
      </trkpt>
      <trkpt lat="40.354519" lon="-1.108414">
        <ele>947.2</ele>
        <time>2012-08-18T18:01:39Z</time>
      </trkpt>
      <trkpt lat="40.354472" lon="-1.108423">
        <ele>946.8</ele>
        <time>2012-08-18T18:01:40Z</time>
      </trkpt>
      <trkpt lat="40.354425" lon="-1.108427">
        <ele>946.4</ele>
        <time>2012-08-18T18:01:41Z</time>
      </trkpt>
      <trkpt lat="40.354233" lon="-1.108455">
        <ele>945.8</ele>
        <time>2012-08-18T18:01:45Z</time>
      </trkpt>
      <trkpt lat="40.354183" lon="-1.108460">
        <ele>945.4</ele>
        <time>2012-08-18T18:01:46Z</time>
      </trkpt>
      <trkpt lat="40.354131" lon="-1.108465">
        <ele>945.0</ele>
        <time>2012-08-18T18:01:47Z</time>
      </trkpt>
      <trkpt lat="40.354080" lon="-1.108473">
        <ele>944.6</ele>
        <time>2012-08-18T18:01:48Z</time>
      </trkpt>
      <trkpt lat="40.354032" lon="-1.108481">
        <ele>944.2</ele>
        <time>2012-08-18T18:01:49Z</time>
      </trkpt>
      <trkpt lat="40.353833" lon="-1.108492">
        <ele>943.8</ele>
        <time>2012-08-18T18:01:53Z</time>
      </trkpt>
      <trkpt lat="40.353775" lon="-1.108497">
        <ele>943.4</ele>
        <time>2012-08-18T18:01:54Z</time>
      </trkpt>
      <trkpt lat="40.353718" lon="-1.108503">
        <ele>943.0</ele>
        <time>2012-08-18T18:01:55Z</time>
      </trkpt>
      <trkpt lat="40.353660" lon="-1.108509">
        <ele>942.4</ele>
        <time>2012-08-18T18:01:56Z</time>
      </trkpt>
      <trkpt lat="40.353609" lon="-1.108518">
        <ele>942.0</ele>
        <time>2012-08-18T18:01:57Z</time>
      </trkpt>
      <trkpt lat="40.353549" lon="-1.108522">
        <ele>942.0</ele>
        <time>2012-08-18T18:01:59Z</time>
      </trkpt>
      <trkpt lat="40.353536" lon="-1.108524">
        <ele>942.0</ele>
        <time>2012-08-18T18:02:00Z</time>
      </trkpt>
      <trkpt lat="40.353507" lon="-1.108533">
        <ele>942.0</ele>
        <time>2012-08-18T18:02:01Z</time>
      </trkpt>
      <trkpt lat="40.353448" lon="-1.108556">
        <ele>941.6</ele>
        <time>2012-08-18T18:02:03Z</time>
      </trkpt>
      <trkpt lat="40.353414" lon="-1.108560">
        <ele>941.2</ele>
        <time>2012-08-18T18:02:04Z</time>
      </trkpt>
      <trkpt lat="40.353375" lon="-1.108559">
        <ele>940.8</ele>
        <time>2012-08-18T18:02:05Z</time>
      </trkpt>
      <trkpt lat="40.353333" lon="-1.108559">
        <ele>940.4</ele>
        <time>2012-08-18T18:02:06Z</time>
      </trkpt>
      <trkpt lat="40.353289" lon="-1.108564">
        <ele>940.0</ele>
        <time>2012-08-18T18:02:07Z</time>
      </trkpt>
      <trkpt lat="40.353188" lon="-1.108576">
        <ele>940.0</ele>
        <time>2012-08-18T18:02:09Z</time>
      </trkpt>
      <trkpt lat="40.353026" lon="-1.108587">
        <ele>939.6</ele>
        <time>2012-08-18T18:02:12Z</time>
      </trkpt>
      <trkpt lat="40.352973" lon="-1.108594">
        <ele>939.2</ele>
        <time>2012-08-18T18:02:13Z</time>
      </trkpt>
      <trkpt lat="40.352921" lon="-1.108596">
        <ele>938.8</ele>
        <time>2012-08-18T18:02:14Z</time>
      </trkpt>
      <trkpt lat="40.352871" lon="-1.108597">
        <ele>937.8</ele>
        <time>2012-08-18T18:02:15Z</time>
      </trkpt>
      <trkpt lat="40.352818" lon="-1.108599">
        <ele>937.8</ele>
        <time>2012-08-18T18:02:16Z</time>
      </trkpt>
      <trkpt lat="40.352576" lon="-1.108626">
        <ele>937.4</ele>
        <time>2012-08-18T18:02:20Z</time>
      </trkpt>
      <trkpt lat="40.352510" lon="-1.108635">
        <ele>937.0</ele>
        <time>2012-08-18T18:02:21Z</time>
      </trkpt>
      <trkpt lat="40.352443" lon="-1.108640">
        <ele>936.6</ele>
        <time>2012-08-18T18:02:22Z</time>
      </trkpt>
      <trkpt lat="40.352371" lon="-1.108640">
        <ele>936.2</ele>
        <time>2012-08-18T18:02:23Z</time>
      </trkpt>
      <trkpt lat="40.352302" lon="-1.108643">
        <ele>935.8</ele>
        <time>2012-08-18T18:02:24Z</time>
      </trkpt>
      <trkpt lat="40.352039" lon="-1.108668">
        <ele>935.8</ele>
        <time>2012-08-18T18:02:28Z</time>
      </trkpt>
      <trkpt lat="40.351976" lon="-1.108681">
        <ele>935.4</ele>
        <time>2012-08-18T18:02:29Z</time>
      </trkpt>
      <trkpt lat="40.351914" lon="-1.108692">
        <ele>935.0</ele>
        <time>2012-08-18T18:02:30Z</time>
      </trkpt>
      <trkpt lat="40.351852" lon="-1.108702">
        <ele>934.4</ele>
        <time>2012-08-18T18:02:31Z</time>
      </trkpt>
      <trkpt lat="40.351785" lon="-1.108709">
        <ele>934.0</ele>
        <time>2012-08-18T18:02:32Z</time>
      </trkpt>
      <trkpt lat="40.351722" lon="-1.108712">
        <ele>933.6</ele>
        <time>2012-08-18T18:02:33Z</time>
      </trkpt>
      <trkpt lat="40.351594" lon="-1.108704">
        <ele>933.6</ele>
        <time>2012-08-18T18:02:35Z</time>
      </trkpt>
      <trkpt lat="40.351481" lon="-1.108742">
        <ele>933.6</ele>
        <time>2012-08-18T18:02:37Z</time>
      </trkpt>
      <trkpt lat="40.351373" lon="-1.108789">
        <ele>933.6</ele>
        <time>2012-08-18T18:02:39Z</time>
      </trkpt>
      <trkpt lat="40.351320" lon="-1.108797">
        <ele>933.6</ele>
        <time>2012-08-18T18:02:40Z</time>
      </trkpt>
      <trkpt lat="40.351050" lon="-1.108808">
        <ele>933.6</ele>
        <time>2012-08-18T18:02:45Z</time>
      </trkpt>
      <trkpt lat="40.350689" lon="-1.108832">
        <ele>933.2</ele>
        <time>2012-08-18T18:02:51Z</time>
      </trkpt>
      <trkpt lat="40.350624" lon="-1.108836">
        <ele>932.8</ele>
        <time>2012-08-18T18:02:52Z</time>
      </trkpt>
      <trkpt lat="40.350561" lon="-1.108843">
        <ele>932.4</ele>
        <time>2012-08-18T18:02:53Z</time>
      </trkpt>
      <trkpt lat="40.350495" lon="-1.108852">
        <ele>932.0</ele>
        <time>2012-08-18T18:02:54Z</time>
      </trkpt>
      <trkpt lat="40.350431" lon="-1.108862">
        <ele>931.6</ele>
        <time>2012-08-18T18:02:55Z</time>
      </trkpt>
      <trkpt lat="40.350237" lon="-1.108898">
        <ele>931.6</ele>
        <time>2012-08-18T18:02:58Z</time>
      </trkpt>
      <trkpt lat="40.350108" lon="-1.108919">
        <ele>931.0</ele>
        <time>2012-08-18T18:03:00Z</time>
      </trkpt>
      <trkpt lat="40.350041" lon="-1.108930">
        <ele>930.6</ele>
        <time>2012-08-18T18:03:01Z</time>
      </trkpt>
      <trkpt lat="40.349976" lon="-1.108943">
        <ele>930.2</ele>
        <time>2012-08-18T18:03:02Z</time>
      </trkpt>
      <trkpt lat="40.349906" lon="-1.108960">
        <ele>929.6</ele>
        <time>2012-08-18T18:03:03Z</time>
      </trkpt>
      <trkpt lat="40.349838" lon="-1.108976">
        <ele>929.2</ele>
        <time>2012-08-18T18:03:04Z</time>
      </trkpt>
      <trkpt lat="40.349767" lon="-1.108988">
        <ele>929.2</ele>
        <time>2012-08-18T18:03:05Z</time>
      </trkpt>
      <trkpt lat="40.349402" lon="-1.109043">
        <ele>929.2</ele>
        <time>2012-08-18T18:03:11Z</time>
      </trkpt>
      <trkpt lat="40.349316" lon="-1.109034">
        <ele>929.2</ele>
        <time>2012-08-18T18:03:16Z</time>
      </trkpt>
      <trkpt lat="40.349315" lon="-1.109035">
        <ele>929.2</ele>
        <time>2012-08-18T18:03:17Z</time>
      </trkpt>
      <trkpt lat="40.349243" lon="-1.109038">
        <ele>926.8</ele>
        <time>2012-08-18T18:03:48Z</time>
      </trkpt>
      <trkpt lat="40.349210" lon="-1.109041">
        <ele>926.8</ele>
        <time>2012-08-18T18:03:49Z</time>
      </trkpt>
      <trkpt lat="40.348934" lon="-1.109070">
        <ele>926.8</ele>
        <time>2012-08-18T18:03:56Z</time>
      </trkpt>
      <trkpt lat="40.348845" lon="-1.109085">
        <ele>926.8</ele>
        <time>2012-08-18T18:03:58Z</time>
      </trkpt>
      <trkpt lat="40.348664" lon="-1.109125">
        <ele>926.8</ele>
        <time>2012-08-18T18:04:02Z</time>
      </trkpt>
      <trkpt lat="40.348255" lon="-1.109206">
        <ele>926.8</ele>
        <time>2012-08-18T18:04:10Z</time>
      </trkpt>
      <trkpt lat="40.347952" lon="-1.109263">
        <ele>926.2</ele>
        <time>2012-08-18T18:04:15Z</time>
      </trkpt>
      <trkpt lat="40.347885" lon="-1.109268">
        <ele>925.8</ele>
        <time>2012-08-18T18:04:16Z</time>
      </trkpt>
      <trkpt lat="40.347817" lon="-1.109266">
        <ele>925.4</ele>
        <time>2012-08-18T18:04:17Z</time>
      </trkpt>
      <trkpt lat="40.347746" lon="-1.109262">
        <ele>925.0</ele>
        <time>2012-08-18T18:04:18Z</time>
      </trkpt>
      <trkpt lat="40.347675" lon="-1.109246">
        <ele>924.6</ele>
        <time>2012-08-18T18:04:19Z</time>
      </trkpt>
      <trkpt lat="40.347533" lon="-1.109187">
        <ele>924.6</ele>
        <time>2012-08-18T18:04:21Z</time>
      </trkpt>
      <trkpt lat="40.347463" lon="-1.109151">
        <ele>924.0</ele>
        <time>2012-08-18T18:04:22Z</time>
      </trkpt>
      <trkpt lat="40.347393" lon="-1.109111">
        <ele>923.6</ele>
        <time>2012-08-18T18:04:23Z</time>
      </trkpt>
      <trkpt lat="40.347320" lon="-1.109070">
        <ele>923.2</ele>
        <time>2012-08-18T18:04:24Z</time>
      </trkpt>
      <trkpt lat="40.347243" lon="-1.109025">
        <ele>922.8</ele>
        <time>2012-08-18T18:04:25Z</time>
      </trkpt>
      <trkpt lat="40.347165" lon="-1.108977">
        <ele>922.2</ele>
        <time>2012-08-18T18:04:26Z</time>
      </trkpt>
      <trkpt lat="40.347084" lon="-1.108926">
        <ele>922.2</ele>
        <time>2012-08-18T18:04:27Z</time>
      </trkpt>
      <trkpt lat="40.347001" lon="-1.108874">
        <ele>921.8</ele>
        <time>2012-08-18T18:04:28Z</time>
      </trkpt>
      <trkpt lat="40.346925" lon="-1.108824">
        <ele>921.4</ele>
        <time>2012-08-18T18:04:29Z</time>
      </trkpt>
      <trkpt lat="40.346851" lon="-1.108772">
        <ele>921.0</ele>
        <time>2012-08-18T18:04:30Z</time>
      </trkpt>
      <trkpt lat="40.346784" lon="-1.108720">
        <ele>920.4</ele>
        <time>2012-08-18T18:04:31Z</time>
      </trkpt>
      <trkpt lat="40.346723" lon="-1.108669">
        <ele>920.0</ele>
        <time>2012-08-18T18:04:32Z</time>
      </trkpt>
      <trkpt lat="40.346670" lon="-1.108614">
        <ele>919.6</ele>
        <time>2012-08-18T18:04:33Z</time>
      </trkpt>
      <trkpt lat="40.346620" lon="-1.108560">
        <ele>919.2</ele>
        <time>2012-08-18T18:04:34Z</time>
      </trkpt>
      <trkpt lat="40.346572" lon="-1.108503">
        <ele>918.8</ele>
        <time>2012-08-18T18:04:35Z</time>
      </trkpt>
      <trkpt lat="40.346522" lon="-1.108439">
        <ele>918.2</ele>
        <time>2012-08-18T18:04:36Z</time>
      </trkpt>
      <trkpt lat="40.346479" lon="-1.108368">
        <ele>917.8</ele>
        <time>2012-08-18T18:04:37Z</time>
      </trkpt>
      <trkpt lat="40.346443" lon="-1.108293">
        <ele>917.8</ele>
        <time>2012-08-18T18:04:38Z</time>
      </trkpt>
      <trkpt lat="40.346406" lon="-1.108220">
        <ele>917.4</ele>
        <time>2012-08-18T18:04:39Z</time>
      </trkpt>
      <trkpt lat="40.346367" lon="-1.108145">
        <ele>917.0</ele>
        <time>2012-08-18T18:04:40Z</time>
      </trkpt>
      <trkpt lat="40.346328" lon="-1.108070">
        <ele>916.6</ele>
        <time>2012-08-18T18:04:41Z</time>
      </trkpt>
      <trkpt lat="40.346290" lon="-1.107995">
        <ele>916.2</ele>
        <time>2012-08-18T18:04:42Z</time>
      </trkpt>
      <trkpt lat="40.346250" lon="-1.107914">
        <ele>915.8</ele>
        <time>2012-08-18T18:04:43Z</time>
      </trkpt>
      <trkpt lat="40.346173" lon="-1.107753">
        <ele>915.4</ele>
        <time>2012-08-18T18:04:45Z</time>
      </trkpt>
      <trkpt lat="40.346131" lon="-1.107665">
        <ele>915.0</ele>
        <time>2012-08-18T18:04:46Z</time>
      </trkpt>
      <trkpt lat="40.346088" lon="-1.107577">
        <ele>914.4</ele>
        <time>2012-08-18T18:04:47Z</time>
      </trkpt>
      <trkpt lat="40.346045" lon="-1.107489">
        <ele>914.0</ele>
        <time>2012-08-18T18:04:48Z</time>
      </trkpt>
      <trkpt lat="40.346002" lon="-1.107404">
        <ele>913.6</ele>
        <time>2012-08-18T18:04:49Z</time>
      </trkpt>
      <trkpt lat="40.345958" lon="-1.107317">
        <ele>913.2</ele>
        <time>2012-08-18T18:04:50Z</time>
      </trkpt>
      <trkpt lat="40.345915" lon="-1.107224">
        <ele>912.8</ele>
        <time>2012-08-18T18:04:51Z</time>
      </trkpt>
      <trkpt lat="40.345873" lon="-1.107135">
        <ele>912.2</ele>
        <time>2012-08-18T18:04:52Z</time>
      </trkpt>
      <trkpt lat="40.345832" lon="-1.107049">
        <ele>911.8</ele>
        <time>2012-08-18T18:04:53Z</time>
      </trkpt>
      <trkpt lat="40.345794" lon="-1.106967">
        <ele>911.4</ele>
        <time>2012-08-18T18:04:54Z</time>
      </trkpt>
      <trkpt lat="40.345672" lon="-1.106704">
        <ele>911.4</ele>
        <time>2012-08-18T18:04:58Z</time>
      </trkpt>
      <trkpt lat="40.345644" lon="-1.106661">
        <ele>911.4</ele>
        <time>2012-08-18T18:04:59Z</time>
      </trkpt>
      <trkpt lat="40.345540" lon="-1.106566">
        <ele>911.4</ele>
        <time>2012-08-18T18:05:02Z</time>
      </trkpt>
      <trkpt lat="40.345476" lon="-1.106492">
        <ele>911.0</ele>
        <time>2012-08-18T18:05:04Z</time>
      </trkpt>
      <trkpt lat="40.345458" lon="-1.106448">
        <ele>910.6</ele>
        <time>2012-08-18T18:05:05Z</time>
      </trkpt>
      <trkpt lat="40.345447" lon="-1.106399">
        <ele>910.2</ele>
        <time>2012-08-18T18:05:06Z</time>
      </trkpt>
      <trkpt lat="40.345445" lon="-1.106355">
        <ele>909.8</ele>
        <time>2012-08-18T18:05:07Z</time>
      </trkpt>
      <trkpt lat="40.345440" lon="-1.106308">
        <ele>909.4</ele>
        <time>2012-08-18T18:05:08Z</time>
      </trkpt>
      <trkpt lat="40.345408" lon="-1.106218">
        <ele>909.4</ele>
        <time>2012-08-18T18:05:10Z</time>
      </trkpt>
      <trkpt lat="40.345358" lon="-1.106130">
        <ele>909.4</ele>
        <time>2012-08-18T18:05:12Z</time>
      </trkpt>
      <trkpt lat="40.345329" lon="-1.106087">
        <ele>909.4</ele>
        <time>2012-08-18T18:05:13Z</time>
      </trkpt>
      <trkpt lat="40.345235" lon="-1.105962">
        <ele>909.4</ele>
        <time>2012-08-18T18:05:16Z</time>
      </trkpt>
      <trkpt lat="40.345124" lon="-1.105846">
        <ele>909.4</ele>
        <time>2012-08-18T18:05:19Z</time>
      </trkpt>
      <trkpt lat="40.345050" lon="-1.105779">
        <ele>909.8</ele>
        <time>2012-08-18T18:05:21Z</time>
      </trkpt>
      <trkpt lat="40.345010" lon="-1.105739">
        <ele>910.2</ele>
        <time>2012-08-18T18:05:22Z</time>
      </trkpt>
      <trkpt lat="40.344973" lon="-1.105703">
        <ele>910.6</ele>
        <time>2012-08-18T18:05:23Z</time>
      </trkpt>
      <trkpt lat="40.344938" lon="-1.105668">
        <ele>911.0</ele>
        <time>2012-08-18T18:05:24Z</time>
      </trkpt>
      <trkpt lat="40.344904" lon="-1.105633">
        <ele>911.4</ele>
        <time>2012-08-18T18:05:25Z</time>
      </trkpt>
      <trkpt lat="40.344831" lon="-1.105561">
        <ele>911.8</ele>
        <time>2012-08-18T18:05:27Z</time>
      </trkpt>
      <trkpt lat="40.344794" lon="-1.105528">
        <ele>912.2</ele>
        <time>2012-08-18T18:05:28Z</time>
      </trkpt>
      <trkpt lat="40.344756" lon="-1.105493">
        <ele>912.6</ele>
        <time>2012-08-18T18:05:29Z</time>
      </trkpt>
      <trkpt lat="40.344717" lon="-1.105460">
        <ele>913.0</ele>
        <time>2012-08-18T18:05:30Z</time>
      </trkpt>
      <trkpt lat="40.344681" lon="-1.105431">
        <ele>913.4</ele>
        <time>2012-08-18T18:05:31Z</time>
      </trkpt>
      <trkpt lat="40.344547" lon="-1.105308">
        <ele>913.4</ele>
        <time>2012-08-18T18:05:35Z</time>
      </trkpt>
      <trkpt lat="40.344416" lon="-1.105188">
        <ele>913.8</ele>
        <time>2012-08-18T18:05:39Z</time>
      </trkpt>
      <trkpt lat="40.344385" lon="-1.105158">
        <ele>914.4</ele>
        <time>2012-08-18T18:05:40Z</time>
      </trkpt>
      <trkpt lat="40.344352" lon="-1.105131">
        <ele>914.8</ele>
        <time>2012-08-18T18:05:41Z</time>
      </trkpt>
      <trkpt lat="40.344319" lon="-1.105105">
        <ele>915.2</ele>
        <time>2012-08-18T18:05:42Z</time>
      </trkpt>
      <trkpt lat="40.344286" lon="-1.105085">
        <ele>915.6</ele>
        <time>2012-08-18T18:05:43Z</time>
      </trkpt>
      <trkpt lat="40.344193" lon="-1.105040">
        <ele>915.6</ele>
        <time>2012-08-18T18:05:46Z</time>
      </trkpt>
      <trkpt lat="40.344166" lon="-1.104890">
        <ele>916.0</ele>
        <time>2012-08-18T18:05:50Z</time>
      </trkpt>
      <trkpt lat="40.344174" lon="-1.104843">
        <ele>916.4</ele>
        <time>2012-08-18T18:05:51Z</time>
      </trkpt>
      <trkpt lat="40.344166" lon="-1.104795">
        <ele>916.8</ele>
        <time>2012-08-18T18:05:52Z</time>
      </trkpt>
      <trkpt lat="40.344142" lon="-1.104750">
        <ele>917.2</ele>
        <time>2012-08-18T18:05:53Z</time>
      </trkpt>
      <trkpt lat="40.344110" lon="-1.104709">
        <ele>917.6</ele>
        <time>2012-08-18T18:05:54Z</time>
      </trkpt>
      <trkpt lat="40.343994" lon="-1.104616">
        <ele>917.6</ele>
        <time>2012-08-18T18:05:57Z</time>
      </trkpt>
      <trkpt lat="40.343706" lon="-1.104394">
        <ele>917.6</ele>
        <time>2012-08-18T18:06:03Z</time>
      </trkpt>
      <trkpt lat="40.343656" lon="-1.104345">
        <ele>917.2</ele>
        <time>2012-08-18T18:06:04Z</time>
      </trkpt>
      <trkpt lat="40.343603" lon="-1.104297">
        <ele>916.8</ele>
        <time>2012-08-18T18:06:05Z</time>
      </trkpt>
      <trkpt lat="40.343551" lon="-1.104251">
        <ele>916.4</ele>
        <time>2012-08-18T18:06:06Z</time>
      </trkpt>
      <trkpt lat="40.343500" lon="-1.104204">
        <ele>916.0</ele>
        <time>2012-08-18T18:06:07Z</time>
      </trkpt>
      <trkpt lat="40.343448" lon="-1.104157">
        <ele>915.6</ele>
        <time>2012-08-18T18:06:08Z</time>
      </trkpt>
      <trkpt lat="40.343367" lon="-1.104087">
        <ele>915.6</ele>
        <time>2012-08-18T18:06:10Z</time>
      </trkpt>
      <trkpt lat="40.343314" lon="-1.104070">
        <ele>915.2</ele>
        <time>2012-08-18T18:06:11Z</time>
      </trkpt>
      <trkpt lat="40.343259" lon="-1.104053">
        <ele>914.6</ele>
        <time>2012-08-18T18:06:12Z</time>
      </trkpt>
      <trkpt lat="40.343199" lon="-1.104031">
        <ele>914.2</ele>
        <time>2012-08-18T18:06:13Z</time>
      </trkpt>
      <trkpt lat="40.343137" lon="-1.104006">
        <ele>913.6</ele>
        <time>2012-08-18T18:06:14Z</time>
      </trkpt>
      <trkpt lat="40.343074" lon="-1.103974">
        <ele>913.0</ele>
        <time>2012-08-18T18:06:15Z</time>
      </trkpt>
      <trkpt lat="40.343008" lon="-1.103939">
        <ele>912.4</ele>
        <time>2012-08-18T18:06:16Z</time>
      </trkpt>
      <trkpt lat="40.342945" lon="-1.103899">
        <ele>911.8</ele>
        <time>2012-08-18T18:06:17Z</time>
      </trkpt>
      <trkpt lat="40.342883" lon="-1.103852">
        <ele>911.0</ele>
        <time>2012-08-18T18:06:18Z</time>
      </trkpt>
      <trkpt lat="40.342820" lon="-1.103801">
        <ele>910.2</ele>
        <time>2012-08-18T18:06:19Z</time>
      </trkpt>
      <trkpt lat="40.342765" lon="-1.103738">
        <ele>909.2</ele>
        <time>2012-08-18T18:06:20Z</time>
      </trkpt>
      <trkpt lat="40.342712" lon="-1.103684">
        <ele>908.4</ele>
        <time>2012-08-18T18:06:21Z</time>
      </trkpt>
      <trkpt lat="40.342658" lon="-1.103634">
        <ele>906.6</ele>
        <time>2012-08-18T18:06:22Z</time>
      </trkpt>
      <trkpt lat="40.342599" lon="-1.103593">
        <ele>905.8</ele>
        <time>2012-08-18T18:06:23Z</time>
      </trkpt>
      <trkpt lat="40.342528" lon="-1.103556">
        <ele>905.0</ele>
        <time>2012-08-18T18:06:24Z</time>
      </trkpt>
      <trkpt lat="40.342453" lon="-1.103528">
        <ele>904.0</ele>
        <time>2012-08-18T18:06:25Z</time>
      </trkpt>
      <trkpt lat="40.342376" lon="-1.103502">
        <ele>903.2</ele>
        <time>2012-08-18T18:06:26Z</time>
      </trkpt>
      <trkpt lat="40.342299" lon="-1.103480">
        <ele>902.2</ele>
        <time>2012-08-18T18:06:27Z</time>
      </trkpt>
      <trkpt lat="40.342228" lon="-1.103458">
        <ele>901.4</ele>
        <time>2012-08-18T18:06:28Z</time>
      </trkpt>
      <trkpt lat="40.342160" lon="-1.103441">
        <ele>900.6</ele>
        <time>2012-08-18T18:06:29Z</time>
      </trkpt>
      <trkpt lat="40.342098" lon="-1.103427">
        <ele>899.8</ele>
        <time>2012-08-18T18:06:30Z</time>
      </trkpt>
      <trkpt lat="40.342043" lon="-1.103415">
        <ele>898.8</ele>
        <time>2012-08-18T18:06:31Z</time>
      </trkpt>
      <trkpt lat="40.341980" lon="-1.103416">
        <ele>898.0</ele>
        <time>2012-08-18T18:06:32Z</time>
      </trkpt>
      <trkpt lat="40.341913" lon="-1.103441">
        <ele>897.6</ele>
        <time>2012-08-18T18:06:33Z</time>
      </trkpt>
      <trkpt lat="40.341845" lon="-1.103478">
        <ele>897.2</ele>
        <time>2012-08-18T18:06:34Z</time>
      </trkpt>
      <trkpt lat="40.341776" lon="-1.103524">
        <ele>896.8</ele>
        <time>2012-08-18T18:06:35Z</time>
      </trkpt>
      <trkpt lat="40.341700" lon="-1.103568">
        <ele>896.4</ele>
        <time>2012-08-18T18:06:36Z</time>
      </trkpt>
      <trkpt lat="40.341622" lon="-1.103607">
        <ele>896.0</ele>
        <time>2012-08-18T18:06:37Z</time>
      </trkpt>
      <trkpt lat="40.341552" lon="-1.103636">
        <ele>895.4</ele>
        <time>2012-08-18T18:06:38Z</time>
      </trkpt>
      <trkpt lat="40.341490" lon="-1.103657">
        <ele>894.8</ele>
        <time>2012-08-18T18:06:39Z</time>
      </trkpt>
      <trkpt lat="40.341443" lon="-1.103670">
        <ele>894.4</ele>
        <time>2012-08-18T18:06:40Z</time>
      </trkpt>
      <trkpt lat="40.341408" lon="-1.103679">
        <ele>893.8</ele>
        <time>2012-08-18T18:06:41Z</time>
      </trkpt>
      <trkpt lat="40.341370" lon="-1.103681">
        <ele>893.4</ele>
        <time>2012-08-18T18:06:42Z</time>
      </trkpt>
      <trkpt lat="40.341334" lon="-1.103668">
        <ele>893.0</ele>
        <time>2012-08-18T18:06:43Z</time>
      </trkpt>
      <trkpt lat="40.341309" lon="-1.103642">
        <ele>892.6</ele>
        <time>2012-08-18T18:06:44Z</time>
      </trkpt>
      <trkpt lat="40.341291" lon="-1.103596">
        <ele>892.2</ele>
        <time>2012-08-18T18:06:45Z</time>
      </trkpt>
      <trkpt lat="40.341266" lon="-1.103528">
        <ele>891.6</ele>
        <time>2012-08-18T18:06:46Z</time>
      </trkpt>
      <trkpt lat="40.341234" lon="-1.103446">
        <ele>891.6</ele>
        <time>2012-08-18T18:06:47Z</time>
      </trkpt>
      <trkpt lat="40.341200" lon="-1.103360">
        <ele>891.2</ele>
        <time>2012-08-18T18:06:48Z</time>
      </trkpt>
      <trkpt lat="40.341167" lon="-1.103277">
        <ele>890.8</ele>
        <time>2012-08-18T18:06:49Z</time>
      </trkpt>
      <trkpt lat="40.341143" lon="-1.103204">
        <ele>890.2</ele>
        <time>2012-08-18T18:06:50Z</time>
      </trkpt>
      <trkpt lat="40.341124" lon="-1.103146">
        <ele>889.8</ele>
        <time>2012-08-18T18:06:51Z</time>
      </trkpt>
      <trkpt lat="40.341104" lon="-1.103112">
        <ele>889.2</ele>
        <time>2012-08-18T18:06:52Z</time>
      </trkpt>
      <trkpt lat="40.341032" lon="-1.103089">
        <ele>889.2</ele>
        <time>2012-08-18T18:06:55Z</time>
      </trkpt>
      <trkpt lat="40.340943" lon="-1.103162">
        <ele>889.2</ele>
        <time>2012-08-18T18:06:58Z</time>
      </trkpt>
      <trkpt lat="40.340844" lon="-1.103240">
        <ele>888.8</ele>
        <time>2012-08-18T18:07:01Z</time>
      </trkpt>
      <trkpt lat="40.340803" lon="-1.103260">
        <ele>888.4</ele>
        <time>2012-08-18T18:07:02Z</time>
      </trkpt>
      <trkpt lat="40.340767" lon="-1.103283">
        <ele>888.0</ele>
        <time>2012-08-18T18:07:03Z</time>
      </trkpt>
      <trkpt lat="40.340728" lon="-1.103312">
        <ele>887.6</ele>
        <time>2012-08-18T18:07:04Z</time>
      </trkpt>
      <trkpt lat="40.340688" lon="-1.103340">
        <ele>887.2</ele>
        <time>2012-08-18T18:07:05Z</time>
      </trkpt>
      <trkpt lat="40.340650" lon="-1.103365">
        <ele>887.2</ele>
        <time>2012-08-18T18:07:06Z</time>
      </trkpt>
      <trkpt lat="40.340609" lon="-1.103384">
        <ele>887.2</ele>
        <time>2012-08-18T18:07:07Z</time>
      </trkpt>
      <trkpt lat="40.340444" lon="-1.103483">
        <ele>887.2</ele>
        <time>2012-08-18T18:07:11Z</time>
      </trkpt>
      <trkpt lat="40.340199" lon="-1.103659">
        <ele>887.2</ele>
        <time>2012-08-18T18:07:17Z</time>
      </trkpt>
      <trkpt lat="40.339929" lon="-1.103865">
        <ele>887.2</ele>
        <time>2012-08-18T18:07:24Z</time>
      </trkpt>
      <trkpt lat="40.339904" lon="-1.103890">
        <ele>887.2</ele>
        <time>2012-08-18T18:07:26Z</time>
      </trkpt>
      <trkpt lat="40.339913" lon="-1.103896">
        <ele>887.2</ele>
        <time>2012-08-18T18:07:27Z</time>
      </trkpt>
      <trkpt lat="40.339917" lon="-1.103898">
        <ele>887.2</ele>
        <time>2012-08-18T18:07:28Z</time>
      </trkpt>
      <trkpt lat="40.339875" lon="-1.103913">
        <ele>887.2</ele>
        <time>2012-08-18T18:08:33Z</time>
      </trkpt>
      <trkpt lat="40.339844" lon="-1.103924">
        <ele>887.2</ele>
        <time>2012-08-18T18:08:34Z</time>
      </trkpt>
      <trkpt lat="40.339664" lon="-1.103963">
        <ele>887.2</ele>
        <time>2012-08-18T18:08:39Z</time>
      </trkpt>
      <trkpt lat="40.339418" lon="-1.104062">
        <ele>887.2</ele>
        <time>2012-08-18T18:08:45Z</time>
      </trkpt>
      <trkpt lat="40.339132" lon="-1.104205">
        <ele>887.2</ele>
        <time>2012-08-18T18:08:52Z</time>
      </trkpt>
      <trkpt lat="40.338976" lon="-1.104295">
        <ele>887.2</ele>
        <time>2012-08-18T18:08:57Z</time>
      </trkpt>
      <trkpt lat="40.338878" lon="-1.104479">
        <ele>887.2</ele>
        <time>2012-08-18T18:09:03Z</time>
      </trkpt>
      <trkpt lat="40.338769" lon="-1.104567">
        <ele>887.2</ele>
        <time>2012-08-18T18:09:06Z</time>
      </trkpt>
      <trkpt lat="40.338728" lon="-1.104613">
        <ele>887.2</ele>
        <time>2012-08-18T18:09:07Z</time>
      </trkpt>
      <trkpt lat="40.338453" lon="-1.104911">
        <ele>887.2</ele>
        <time>2012-08-18T18:09:13Z</time>
      </trkpt>
      <trkpt lat="40.338419" lon="-1.104977">
        <ele>886.8</ele>
        <time>2012-08-18T18:09:14Z</time>
      </trkpt>
      <trkpt lat="40.338396" lon="-1.105054">
        <ele>886.0</ele>
        <time>2012-08-18T18:09:15Z</time>
      </trkpt>
      <trkpt lat="40.338387" lon="-1.105136">
        <ele>885.6</ele>
        <time>2012-08-18T18:09:16Z</time>
      </trkpt>
      <trkpt lat="40.338381" lon="-1.105215">
        <ele>885.0</ele>
        <time>2012-08-18T18:09:17Z</time>
      </trkpt>
      <trkpt lat="40.338408" lon="-1.105452">
        <ele>885.0</ele>
        <time>2012-08-18T18:09:20Z</time>
      </trkpt>
      <trkpt lat="40.338425" lon="-1.105539">
        <ele>885.0</ele>
        <time>2012-08-18T18:09:21Z</time>
      </trkpt>
      <trkpt lat="40.338543" lon="-1.106125">
        <ele>885.0</ele>
        <time>2012-08-18T18:09:28Z</time>
      </trkpt>
      <trkpt lat="40.338633" lon="-1.106750">
        <ele>885.0</ele>
        <time>2012-08-18T18:09:36Z</time>
      </trkpt>
      <trkpt lat="40.338689" lon="-1.107203">
        <ele>884.6</ele>
        <time>2012-08-18T18:09:42Z</time>
      </trkpt>
      <trkpt lat="40.338686" lon="-1.107279">
        <ele>884.2</ele>
        <time>2012-08-18T18:09:43Z</time>
      </trkpt>
      <trkpt lat="40.338675" lon="-1.107352">
        <ele>883.8</ele>
        <time>2012-08-18T18:09:44Z</time>
      </trkpt>
      <trkpt lat="40.338658" lon="-1.107422">
        <ele>883.4</ele>
        <time>2012-08-18T18:09:45Z</time>
      </trkpt>
      <trkpt lat="40.338640" lon="-1.107482">
        <ele>883.0</ele>
        <time>2012-08-18T18:09:46Z</time>
      </trkpt>
      <trkpt lat="40.338617" lon="-1.107542">
        <ele>883.0</ele>
        <time>2012-08-18T18:09:47Z</time>
      </trkpt>
      <trkpt lat="40.338451" lon="-1.107775">
        <ele>883.0</ele>
        <time>2012-08-18T18:09:51Z</time>
      </trkpt>
      <trkpt lat="40.338408" lon="-1.107842">
        <ele>883.0</ele>
        <time>2012-08-18T18:09:52Z</time>
      </trkpt>
      <trkpt lat="40.338331" lon="-1.108079">
        <ele>883.0</ele>
        <time>2012-08-18T18:09:55Z</time>
      </trkpt>
      <trkpt lat="40.338334" lon="-1.108440">
        <ele>883.0</ele>
        <time>2012-08-18T18:09:59Z</time>
      </trkpt>
      <trkpt lat="40.338376" lon="-1.108715">
        <ele>882.6</ele>
        <time>2012-08-18T18:10:02Z</time>
      </trkpt>
      <trkpt lat="40.338388" lon="-1.108805">
        <ele>882.2</ele>
        <time>2012-08-18T18:10:03Z</time>
      </trkpt>
      <trkpt lat="40.338398" lon="-1.108889">
        <ele>881.4</ele>
        <time>2012-08-18T18:10:04Z</time>
      </trkpt>
      <trkpt lat="40.338402" lon="-1.108976">
        <ele>881.0</ele>
        <time>2012-08-18T18:10:05Z</time>
      </trkpt>
      <trkpt lat="40.338423" lon="-1.109280">
        <ele>881.0</ele>
        <time>2012-08-18T18:10:09Z</time>
      </trkpt>
      <trkpt lat="40.338428" lon="-1.109368">
        <ele>881.0</ele>
        <time>2012-08-18T18:10:12Z</time>
      </trkpt>
      <trkpt lat="40.338382" lon="-1.109449">
        <ele>881.0</ele>
        <time>2012-08-18T18:10:15Z</time>
      </trkpt>
      <trkpt lat="40.338347" lon="-1.109469">
        <ele>881.0</ele>
        <time>2012-08-18T18:10:16Z</time>
      </trkpt>
      <trkpt lat="40.338229" lon="-1.109492">
        <ele>880.4</ele>
        <time>2012-08-18T18:10:19Z</time>
      </trkpt>
      <trkpt lat="40.338190" lon="-1.109497">
        <ele>880.0</ele>
        <time>2012-08-18T18:10:20Z</time>
      </trkpt>
      <trkpt lat="40.338149" lon="-1.109498">
        <ele>879.6</ele>
        <time>2012-08-18T18:10:21Z</time>
      </trkpt>
      <trkpt lat="40.338106" lon="-1.109505">
        <ele>879.2</ele>
        <time>2012-08-18T18:10:22Z</time>
      </trkpt>
      <trkpt lat="40.338062" lon="-1.109514">
        <ele>878.8</ele>
        <time>2012-08-18T18:10:23Z</time>
      </trkpt>
      <trkpt lat="40.337892" lon="-1.109528">
        <ele>878.8</ele>
        <time>2012-08-18T18:10:27Z</time>
      </trkpt>
      <trkpt lat="40.337802" lon="-1.109543">
        <ele>878.8</ele>
        <time>2012-08-18T18:10:29Z</time>
      </trkpt>
      <trkpt lat="40.337635" lon="-1.109577">
        <ele>878.8</ele>
        <time>2012-08-18T18:10:33Z</time>
      </trkpt>
      <trkpt lat="40.337510" lon="-1.109597">
        <ele>878.8</ele>
        <time>2012-08-18T18:10:36Z</time>
      </trkpt>
      <trkpt lat="40.337359" lon="-1.109621">
        <ele>878.8</ele>
        <time>2012-08-18T18:10:40Z</time>
      </trkpt>
      <trkpt lat="40.337142" lon="-1.109644">
        <ele>878.8</ele>
        <time>2012-08-18T18:10:47Z</time>
      </trkpt>
      <trkpt lat="40.337031" lon="-1.109631">
        <ele>878.8</ele>
        <time>2012-08-18T18:10:53Z</time>
      </trkpt>
      <trkpt lat="40.336880" lon="-1.109604">
        <ele>878.8</ele>
        <time>2012-08-18T18:11:00Z</time>
      </trkpt>
      <trkpt lat="40.336738" lon="-1.109583">
        <ele>878.8</ele>
        <time>2012-08-18T18:11:07Z</time>
      </trkpt>
      <trkpt lat="40.336670" lon="-1.109574">
        <ele>878.8</ele>
        <time>2012-08-18T18:11:13Z</time>
      </trkpt>
      <trkpt lat="40.336671" lon="-1.109574">
        <ele>878.8</ele>
        <time>2012-08-18T18:11:14Z</time>
      </trkpt>
      <trkpt lat="40.336646" lon="-1.109574">
        <ele>878.8</ele>
        <time>2012-08-18T18:15:40Z</time>
      </trkpt>
      <trkpt lat="40.336611" lon="-1.109555">
        <ele>878.8</ele>
        <time>2012-08-18T18:15:42Z</time>
      </trkpt>
      <trkpt lat="40.336482" lon="-1.109495">
        <ele>878.8</ele>
        <time>2012-08-18T18:15:49Z</time>
      </trkpt>
      <trkpt lat="40.336424" lon="-1.109452">
        <ele>878.8</ele>
        <time>2012-08-18T18:15:54Z</time>
      </trkpt>
      <trkpt lat="40.336413" lon="-1.109424">
        <ele>878.8</ele>
        <time>2012-08-18T18:15:55Z</time>
      </trkpt>
      <trkpt lat="40.336384" lon="-1.109347">
        <ele>878.8</ele>
        <time>2012-08-18T18:15:58Z</time>
      </trkpt>
      <trkpt lat="40.336331" lon="-1.109340">
        <ele>878.8</ele>
        <time>2012-08-18T18:16:00Z</time>
      </trkpt>
      <trkpt lat="40.336306" lon="-1.109345">
        <ele>879.2</ele>
        <time>2012-08-18T18:16:01Z</time>
      </trkpt>
      <trkpt lat="40.336280" lon="-1.109345">
        <ele>880.0</ele>
        <time>2012-08-18T18:16:02Z</time>
      </trkpt>
      <trkpt lat="40.336254" lon="-1.109349">
        <ele>880.6</ele>
        <time>2012-08-18T18:16:03Z</time>
      </trkpt>
      <trkpt lat="40.336227" lon="-1.109355">
        <ele>881.0</ele>
        <time>2012-08-18T18:16:04Z</time>
      </trkpt>
      <trkpt lat="40.336176" lon="-1.109377">
        <ele>881.4</ele>
        <time>2012-08-18T18:16:06Z</time>
      </trkpt>
      <trkpt lat="40.336153" lon="-1.109389">
        <ele>881.8</ele>
        <time>2012-08-18T18:16:07Z</time>
      </trkpt>
      <trkpt lat="40.336127" lon="-1.109395">
        <ele>882.4</ele>
        <time>2012-08-18T18:16:08Z</time>
      </trkpt>
      <trkpt lat="40.336102" lon="-1.109408">
        <ele>882.8</ele>
        <time>2012-08-18T18:16:09Z</time>
      </trkpt>
      <trkpt lat="40.336078" lon="-1.109415">
        <ele>883.2</ele>
        <time>2012-08-18T18:16:10Z</time>
      </trkpt>
      <trkpt lat="40.336030" lon="-1.109424">
        <ele>883.6</ele>
        <time>2012-08-18T18:16:12Z</time>
      </trkpt>
      <trkpt lat="40.336008" lon="-1.109432">
        <ele>884.0</ele>
        <time>2012-08-18T18:16:13Z</time>
      </trkpt>
      <trkpt lat="40.335986" lon="-1.109438">
        <ele>884.6</ele>
        <time>2012-08-18T18:16:14Z</time>
      </trkpt>
      <trkpt lat="40.335962" lon="-1.109442">
        <ele>885.0</ele>
        <time>2012-08-18T18:16:15Z</time>
      </trkpt>
      <trkpt lat="40.335937" lon="-1.109445">
        <ele>885.4</ele>
        <time>2012-08-18T18:16:16Z</time>
      </trkpt>
      <trkpt lat="40.335862" lon="-1.109466">
        <ele>885.8</ele>
        <time>2012-08-18T18:16:19Z</time>
      </trkpt>
      <trkpt lat="40.335840" lon="-1.109470">
        <ele>886.2</ele>
        <time>2012-08-18T18:16:20Z</time>
      </trkpt>
      <trkpt lat="40.335815" lon="-1.109478">
        <ele>886.8</ele>
        <time>2012-08-18T18:16:21Z</time>
      </trkpt>
      <trkpt lat="40.335793" lon="-1.109487">
        <ele>887.2</ele>
        <time>2012-08-18T18:16:22Z</time>
      </trkpt>
      <trkpt lat="40.335772" lon="-1.109493">
        <ele>887.6</ele>
        <time>2012-08-18T18:16:23Z</time>
      </trkpt>
      <trkpt lat="40.335699" lon="-1.109508">
        <ele>888.0</ele>
        <time>2012-08-18T18:16:26Z</time>
      </trkpt>
      <trkpt lat="40.335676" lon="-1.109512">
        <ele>889.0</ele>
        <time>2012-08-18T18:16:27Z</time>
      </trkpt>
      <trkpt lat="40.335653" lon="-1.109517">
        <ele>889.4</ele>
        <time>2012-08-18T18:16:28Z</time>
      </trkpt>
      <trkpt lat="40.335627" lon="-1.109524">
        <ele>889.8</ele>
        <time>2012-08-18T18:16:29Z</time>
      </trkpt>
      <trkpt lat="40.335585" lon="-1.109529">
        <ele>890.2</ele>
        <time>2012-08-18T18:16:31Z</time>
      </trkpt>
      <trkpt lat="40.335562" lon="-1.109536">
        <ele>890.6</ele>
        <time>2012-08-18T18:16:32Z</time>
      </trkpt>
      <trkpt lat="40.335540" lon="-1.109538">
        <ele>891.2</ele>
        <time>2012-08-18T18:16:33Z</time>
      </trkpt>
      <trkpt lat="40.335517" lon="-1.109539">
        <ele>891.6</ele>
        <time>2012-08-18T18:16:34Z</time>
      </trkpt>
      <trkpt lat="40.335496" lon="-1.109540">
        <ele>892.0</ele>
        <time>2012-08-18T18:16:35Z</time>
      </trkpt>
      <trkpt lat="40.335414" lon="-1.109497">
        <ele>892.0</ele>
        <time>2012-08-18T18:16:40Z</time>
      </trkpt>
      <trkpt lat="40.335377" lon="-1.109436">
        <ele>892.0</ele>
        <time>2012-08-18T18:16:44Z</time>
      </trkpt>
      <trkpt lat="40.335370" lon="-1.109396">
        <ele>892.0</ele>
        <time>2012-08-18T18:16:46Z</time>
      </trkpt>
      <trkpt lat="40.335309" lon="-1.109263">
        <ele>892.0</ele>
        <time>2012-08-18T18:16:52Z</time>
      </trkpt>
      <trkpt lat="40.335226" lon="-1.109104">
        <ele>892.0</ele>
        <time>2012-08-18T18:16:59Z</time>
      </trkpt>
      <trkpt lat="40.335126" lon="-1.108912">
        <ele>892.0</ele>
        <time>2012-08-18T18:17:07Z</time>
      </trkpt>
      <trkpt lat="40.335037" lon="-1.108734">
        <ele>892.0</ele>
        <time>2012-08-18T18:17:14Z</time>
      </trkpt>
      <trkpt lat="40.334900" lon="-1.108593">
        <ele>892.0</ele>
        <time>2012-08-18T18:17:21Z</time>
      </trkpt>
      <trkpt lat="40.334748" lon="-1.108562">
        <ele>892.0</ele>
        <time>2012-08-18T18:17:26Z</time>
      </trkpt>
      <trkpt lat="40.334601" lon="-1.108614">
        <ele>892.0</ele>
        <time>2012-08-18T18:17:31Z</time>
      </trkpt>
      <trkpt lat="40.334575" lon="-1.108626">
        <ele>892.4</ele>
        <time>2012-08-18T18:17:32Z</time>
      </trkpt>
      <trkpt lat="40.334551" lon="-1.108638">
        <ele>892.8</ele>
        <time>2012-08-18T18:17:33Z</time>
      </trkpt>
      <trkpt lat="40.334521" lon="-1.108648">
        <ele>893.2</ele>
        <time>2012-08-18T18:17:34Z</time>
      </trkpt>
      <trkpt lat="40.334495" lon="-1.108663">
        <ele>893.8</ele>
        <time>2012-08-18T18:17:35Z</time>
      </trkpt>
      <trkpt lat="40.334468" lon="-1.108673">
        <ele>894.2</ele>
        <time>2012-08-18T18:17:36Z</time>
      </trkpt>
      <trkpt lat="40.334413" lon="-1.108708">
        <ele>894.2</ele>
        <time>2012-08-18T18:17:38Z</time>
      </trkpt>
      <trkpt lat="40.334365" lon="-1.108744">
        <ele>894.6</ele>
        <time>2012-08-18T18:17:40Z</time>
      </trkpt>
      <trkpt lat="40.334343" lon="-1.108760">
        <ele>895.4</ele>
        <time>2012-08-18T18:17:41Z</time>
      </trkpt>
      <trkpt lat="40.334321" lon="-1.108776">
        <ele>895.8</ele>
        <time>2012-08-18T18:17:42Z</time>
      </trkpt>
      <trkpt lat="40.334300" lon="-1.108792">
        <ele>896.2</ele>
        <time>2012-08-18T18:17:43Z</time>
      </trkpt>
      <trkpt lat="40.334268" lon="-1.108822">
        <ele>896.6</ele>
        <time>2012-08-18T18:17:45Z</time>
      </trkpt>
      <trkpt lat="40.334248" lon="-1.108837">
        <ele>897.0</ele>
        <time>2012-08-18T18:17:46Z</time>
      </trkpt>
      <trkpt lat="40.334226" lon="-1.108853">
        <ele>897.4</ele>
        <time>2012-08-18T18:17:47Z</time>
      </trkpt>
      <trkpt lat="40.334212" lon="-1.108870">
        <ele>897.8</ele>
        <time>2012-08-18T18:17:48Z</time>
      </trkpt>
      <trkpt lat="40.334200" lon="-1.108889">
        <ele>898.2</ele>
        <time>2012-08-18T18:17:49Z</time>
      </trkpt>
      <trkpt lat="40.334170" lon="-1.108983">
        <ele>898.8</ele>
        <time>2012-08-18T18:17:53Z</time>
      </trkpt>
      <trkpt lat="40.334172" lon="-1.109012">
        <ele>899.2</ele>
        <time>2012-08-18T18:17:54Z</time>
      </trkpt>
      <trkpt lat="40.334167" lon="-1.109039">
        <ele>899.6</ele>
        <time>2012-08-18T18:17:55Z</time>
      </trkpt>
      <trkpt lat="40.334170" lon="-1.109063">
        <ele>900.2</ele>
        <time>2012-08-18T18:17:56Z</time>
      </trkpt>
      <trkpt lat="40.334168" lon="-1.109089">
        <ele>900.6</ele>
        <time>2012-08-18T18:17:57Z</time>
      </trkpt>
      <trkpt lat="40.334172" lon="-1.109144">
        <ele>900.6</ele>
        <time>2012-08-18T18:17:59Z</time>
      </trkpt>
      <trkpt lat="40.334170" lon="-1.109281">
        <ele>900.6</ele>
        <time>2012-08-18T18:18:04Z</time>
      </trkpt>
      <trkpt lat="40.334172" lon="-1.109307">
        <ele>901.0</ele>
        <time>2012-08-18T18:18:05Z</time>
      </trkpt>
      <trkpt lat="40.334172" lon="-1.109332">
        <ele>901.4</ele>
        <time>2012-08-18T18:18:06Z</time>
      </trkpt>
      <trkpt lat="40.334176" lon="-1.109358">
        <ele>901.8</ele>
        <time>2012-08-18T18:18:07Z</time>
      </trkpt>
      <trkpt lat="40.334179" lon="-1.109383">
        <ele>902.2</ele>
        <time>2012-08-18T18:18:08Z</time>
      </trkpt>
      <trkpt lat="40.334183" lon="-1.109411">
        <ele>902.6</ele>
        <time>2012-08-18T18:18:09Z</time>
      </trkpt>
      <trkpt lat="40.334195" lon="-1.109486">
        <ele>902.6</ele>
        <time>2012-08-18T18:18:12Z</time>
      </trkpt>
    </trkseg>
  </trk>
  <trk>
    <name>T3303249-10</name>
    <cmt>La ruta empieza en Ojos Negros. Hasta Santa Eulalia va por una carretera comarcal apenas transitada. Hay un tramo de unos 40 km durante el puerto del Escandón que no aparece reflejado en el track porque me quedé sin batería en el GPS pero la vía verde no tiene pérdida en esa zona</cmt>
    <desc>La ruta empieza en Ojos Negros. Hasta Santa Eulalia va por una carretera comarcal apenas transitada. Hay un tramo de unos 40 km durante el puerto del Escandón que no aparece reflejado en el track porque me quedé sin batería en el GPS pero la vía verde no tiene pérdida en esa zona</desc>
    <trkseg>
      <trkpt lat="40.334208" lon="-1.109586">
        <ele>902.6</ele>
        <time>2012-08-18T18:18:16Z</time>
      </trkpt>
      <trkpt lat="40.334193" lon="-1.109625">
        <ele>902.6</ele>
        <time>2012-08-18T18:18:18Z</time>
      </trkpt>
      <trkpt lat="40.334087" lon="-1.109633">
        <ele>903.2</ele>
        <time>2012-08-18T18:18:22Z</time>
      </trkpt>
      <trkpt lat="40.334063" lon="-1.109624">
        <ele>903.6</ele>
        <time>2012-08-18T18:18:23Z</time>
      </trkpt>
      <trkpt lat="40.334043" lon="-1.109607">
        <ele>904.0</ele>
        <time>2012-08-18T18:18:24Z</time>
      </trkpt>
      <trkpt lat="40.334025" lon="-1.109584">
        <ele>904.4</ele>
        <time>2012-08-18T18:18:25Z</time>
      </trkpt>
      <trkpt lat="40.334004" lon="-1.109561">
        <ele>905.0</ele>
        <time>2012-08-18T18:18:26Z</time>
      </trkpt>
      <trkpt lat="40.333981" lon="-1.109541">
        <ele>905.0</ele>
        <time>2012-08-18T18:18:27Z</time>
      </trkpt>
      <trkpt lat="40.333887" lon="-1.109427">
        <ele>905.4</ele>
        <time>2012-08-18T18:18:32Z</time>
      </trkpt>
      <trkpt lat="40.333873" lon="-1.109403">
        <ele>905.8</ele>
        <time>2012-08-18T18:18:33Z</time>
      </trkpt>
      <trkpt lat="40.333873" lon="-1.109376">
        <ele>906.2</ele>
        <time>2012-08-18T18:18:34Z</time>
      </trkpt>
      <trkpt lat="40.333873" lon="-1.109344">
        <ele>906.6</ele>
        <time>2012-08-18T18:18:35Z</time>
      </trkpt>
      <trkpt lat="40.333869" lon="-1.109316">
        <ele>907.0</ele>
        <time>2012-08-18T18:18:36Z</time>
      </trkpt>
      <trkpt lat="40.333855" lon="-1.109219">
        <ele>907.0</ele>
        <time>2012-08-18T18:18:40Z</time>
      </trkpt>
      <trkpt lat="40.333802" lon="-1.109127">
        <ele>907.0</ele>
        <time>2012-08-18T18:18:47Z</time>
      </trkpt>
      <trkpt lat="40.333791" lon="-1.109122">
        <ele>907.0</ele>
        <time>2012-08-18T18:18:48Z</time>
      </trkpt>
      <trkpt lat="40.333827" lon="-1.109060">
        <ele>907.0</ele>
        <time>2012-08-18T18:21:14Z</time>
      </trkpt>
      <trkpt lat="40.333835" lon="-1.108964">
        <ele>907.0</ele>
        <time>2012-08-18T18:21:16Z</time>
      </trkpt>
      <trkpt lat="40.333828" lon="-1.108831">
        <ele>907.4</ele>
        <time>2012-08-18T18:21:19Z</time>
      </trkpt>
      <trkpt lat="40.333821" lon="-1.108796">
        <ele>907.8</ele>
        <time>2012-08-18T18:21:20Z</time>
      </trkpt>
      <trkpt lat="40.333812" lon="-1.108764">
        <ele>908.2</ele>
        <time>2012-08-18T18:21:21Z</time>
      </trkpt>
      <trkpt lat="40.333801" lon="-1.108733">
        <ele>908.6</ele>
        <time>2012-08-18T18:21:22Z</time>
      </trkpt>
      <trkpt lat="40.333795" lon="-1.108697">
        <ele>909.0</ele>
        <time>2012-08-18T18:21:23Z</time>
      </trkpt>
      <trkpt lat="40.333791" lon="-1.108626">
        <ele>909.0</ele>
        <time>2012-08-18T18:21:25Z</time>
      </trkpt>
      <trkpt lat="40.333805" lon="-1.108536">
        <ele>909.0</ele>
        <time>2012-08-18T18:21:28Z</time>
      </trkpt>
      <trkpt lat="40.333838" lon="-1.108497">
        <ele>909.0</ele>
        <time>2012-08-18T18:21:31Z</time>
      </trkpt>
      <trkpt lat="40.333844" lon="-1.108497">
        <ele>909.4</ele>
        <time>2012-08-18T18:21:32Z</time>
      </trkpt>
      <trkpt lat="40.333855" lon="-1.108488">
        <ele>909.8</ele>
        <time>2012-08-18T18:21:33Z</time>
      </trkpt>
      <trkpt lat="40.333874" lon="-1.108483">
        <ele>910.2</ele>
        <time>2012-08-18T18:21:34Z</time>
      </trkpt>
      <trkpt lat="40.333888" lon="-1.108480">
        <ele>910.6</ele>
        <time>2012-08-18T18:21:35Z</time>
      </trkpt>
      <trkpt lat="40.333906" lon="-1.108479">
        <ele>911.0</ele>
        <time>2012-08-18T18:21:36Z</time>
      </trkpt>
      <trkpt lat="40.333926" lon="-1.108473">
        <ele>911.0</ele>
        <time>2012-08-18T18:21:37Z</time>
      </trkpt>
      <trkpt lat="40.333988" lon="-1.108415">
        <ele>911.0</ele>
        <time>2012-08-18T18:21:42Z</time>
      </trkpt>
      <trkpt lat="40.333969" lon="-1.108298">
        <ele>911.0</ele>
        <time>2012-08-18T18:21:46Z</time>
      </trkpt>
      <trkpt lat="40.333959" lon="-1.108266">
        <ele>911.0</ele>
        <time>2012-08-18T18:21:47Z</time>
      </trkpt>
      <trkpt lat="40.333916" lon="-1.108073">
        <ele>911.0</ele>
        <time>2012-08-18T18:21:55Z</time>
      </trkpt>
      <trkpt lat="40.333908" lon="-1.107966">
        <ele>911.0</ele>
        <time>2012-08-18T18:22:00Z</time>
      </trkpt>
      <trkpt lat="40.333918" lon="-1.107951">
        <ele>911.0</ele>
        <time>2012-08-18T18:22:01Z</time>
      </trkpt>
      <trkpt lat="40.333917" lon="-1.107929">
        <ele>911.0</ele>
        <time>2012-08-18T18:22:04Z</time>
      </trkpt>
      <trkpt lat="40.333908" lon="-1.107908">
        <ele>911.0</ele>
        <time>2012-08-18T18:22:10Z</time>
      </trkpt>
      <trkpt lat="40.333908" lon="-1.107908">
        <ele>911.0</ele>
        <time>2012-08-18T18:22:12Z</time>
      </trkpt>
      <trkpt lat="40.333871" lon="-1.107838">
        <ele>911.0</ele>
        <time>2012-08-18T18:22:27Z</time>
      </trkpt>
      <trkpt lat="40.333867" lon="-1.107808">
        <ele>911.0</ele>
        <time>2012-08-18T18:22:29Z</time>
      </trkpt>
      <trkpt lat="40.333860" lon="-1.107796">
        <ele>911.0</ele>
        <time>2012-08-18T18:22:30Z</time>
      </trkpt>
      <trkpt lat="40.333855" lon="-1.107790">
        <ele>911.0</ele>
        <time>2012-08-18T18:22:34Z</time>
      </trkpt>
      <trkpt lat="40.333843" lon="-1.107852">
        <ele>911.0</ele>
        <time>2012-08-18T18:22:44Z</time>
      </trkpt>
      <trkpt lat="40.333843" lon="-1.107859">
        <ele>911.0</ele>
        <time>2012-08-18T18:22:45Z</time>
      </trkpt>
      <trkpt lat="40.333844" lon="-1.107864">
        <ele>911.0</ele>
        <time>2012-08-18T18:22:49Z</time>
      </trkpt>
      <trkpt lat="40.117509" lon="-0.773955">
        <ele>919.2</ele>
        <time>2012-08-19T18:25:51Z</time>
      </trkpt>
      <trkpt lat="40.117509" lon="-0.773953">
        <ele>919.2</ele>
        <time>2012-08-19T18:25:52Z</time>
      </trkpt>
      <trkpt lat="40.114363" lon="-0.772761">
        <ele>866.8</ele>
        <time>2012-08-20T07:57:17Z</time>
      </trkpt>
      <trkpt lat="40.114333" lon="-0.772743">
        <ele>869.2</ele>
        <time>2012-08-20T07:57:18Z</time>
      </trkpt>
      <trkpt lat="40.114302" lon="-0.772722">
        <ele>871.4</ele>
        <time>2012-08-20T07:57:19Z</time>
      </trkpt>
      <trkpt lat="40.114268" lon="-0.772701">
        <ele>873.6</ele>
        <time>2012-08-20T07:57:20Z</time>
      </trkpt>
      <trkpt lat="40.114234" lon="-0.772681">
        <ele>876.0</ele>
        <time>2012-08-20T07:57:21Z</time>
      </trkpt>
      <trkpt lat="40.114198" lon="-0.772661">
        <ele>878.0</ele>
        <time>2012-08-20T07:57:22Z</time>
      </trkpt>
      <trkpt lat="40.114161" lon="-0.772643">
        <ele>880.2</ele>
        <time>2012-08-20T07:57:23Z</time>
      </trkpt>
      <trkpt lat="40.114124" lon="-0.772628">
        <ele>882.2</ele>
        <time>2012-08-20T07:57:24Z</time>
      </trkpt>
      <trkpt lat="40.114085" lon="-0.772611">
        <ele>884.4</ele>
        <time>2012-08-20T07:57:25Z</time>
      </trkpt>
      <trkpt lat="40.114044" lon="-0.772598">
        <ele>886.4</ele>
        <time>2012-08-20T07:57:26Z</time>
      </trkpt>
      <trkpt lat="40.114003" lon="-0.772586">
        <ele>888.2</ele>
        <time>2012-08-20T07:57:27Z</time>
      </trkpt>
      <trkpt lat="40.113963" lon="-0.772573">
        <ele>890.2</ele>
        <time>2012-08-20T07:57:28Z</time>
      </trkpt>
      <trkpt lat="40.113923" lon="-0.772563">
        <ele>892.0</ele>
        <time>2012-08-20T07:57:29Z</time>
      </trkpt>
      <trkpt lat="40.113881" lon="-0.772550">
        <ele>893.8</ele>
        <time>2012-08-20T07:57:30Z</time>
      </trkpt>
      <trkpt lat="40.113840" lon="-0.772538">
        <ele>897.2</ele>
        <time>2012-08-20T07:57:31Z</time>
      </trkpt>
      <trkpt lat="40.113799" lon="-0.772530">
        <ele>898.8</ele>
        <time>2012-08-20T07:57:32Z</time>
      </trkpt>
      <trkpt lat="40.113758" lon="-0.772523">
        <ele>900.4</ele>
        <time>2012-08-20T07:57:33Z</time>
      </trkpt>
      <trkpt lat="40.113714" lon="-0.772519">
        <ele>902.0</ele>
        <time>2012-08-20T07:57:34Z</time>
      </trkpt>
      <trkpt lat="40.113673" lon="-0.772518">
        <ele>903.6</ele>
        <time>2012-08-20T07:57:35Z</time>
      </trkpt>
      <trkpt lat="40.113636" lon="-0.772517">
        <ele>905.2</ele>
        <time>2012-08-20T07:57:36Z</time>
      </trkpt>
      <trkpt lat="40.113599" lon="-0.772519">
        <ele>906.2</ele>
        <time>2012-08-20T07:57:37Z</time>
      </trkpt>
      <trkpt lat="40.113562" lon="-0.772523">
        <ele>907.2</ele>
        <time>2012-08-20T07:57:38Z</time>
      </trkpt>
      <trkpt lat="40.113522" lon="-0.772526">
        <ele>908.6</ele>
        <time>2012-08-20T07:57:39Z</time>
      </trkpt>
      <trkpt lat="40.113481" lon="-0.772526">
        <ele>909.8</ele>
        <time>2012-08-20T07:57:40Z</time>
      </trkpt>
      <trkpt lat="40.113440" lon="-0.772533">
        <ele>911.4</ele>
        <time>2012-08-20T07:57:41Z</time>
      </trkpt>
      <trkpt lat="40.113400" lon="-0.772539">
        <ele>913.0</ele>
        <time>2012-08-20T07:57:42Z</time>
      </trkpt>
      <trkpt lat="40.113364" lon="-0.772540">
        <ele>914.6</ele>
        <time>2012-08-20T07:57:43Z</time>
      </trkpt>
      <trkpt lat="40.113330" lon="-0.772544">
        <ele>916.2</ele>
        <time>2012-08-20T07:57:44Z</time>
      </trkpt>
      <trkpt lat="40.113297" lon="-0.772550">
        <ele>917.8</ele>
        <time>2012-08-20T07:57:45Z</time>
      </trkpt>
      <trkpt lat="40.113264" lon="-0.772563">
        <ele>918.2</ele>
        <time>2012-08-20T07:57:46Z</time>
      </trkpt>
      <trkpt lat="40.113227" lon="-0.772573">
        <ele>918.6</ele>
        <time>2012-08-20T07:57:47Z</time>
      </trkpt>
      <trkpt lat="40.113192" lon="-0.772582">
        <ele>919.0</ele>
        <time>2012-08-20T07:57:48Z</time>
      </trkpt>
      <trkpt lat="40.113154" lon="-0.772593">
        <ele>919.8</ele>
        <time>2012-08-20T07:57:49Z</time>
      </trkpt>
      <trkpt lat="40.113119" lon="-0.772608">
        <ele>920.4</ele>
        <time>2012-08-20T07:57:50Z</time>
      </trkpt>
      <trkpt lat="40.113082" lon="-0.772624">
        <ele>921.2</ele>
        <time>2012-08-20T07:57:51Z</time>
      </trkpt>
      <trkpt lat="40.113046" lon="-0.772638">
        <ele>921.8</ele>
        <time>2012-08-20T07:57:52Z</time>
      </trkpt>
      <trkpt lat="40.113010" lon="-0.772647">
        <ele>922.6</ele>
        <time>2012-08-20T07:57:53Z</time>
      </trkpt>
      <trkpt lat="40.112973" lon="-0.772662">
        <ele>923.2</ele>
        <time>2012-08-20T07:57:54Z</time>
      </trkpt>
      <trkpt lat="40.112934" lon="-0.772679">
        <ele>924.0</ele>
        <time>2012-08-20T07:57:55Z</time>
      </trkpt>
      <trkpt lat="40.112895" lon="-0.772697">
        <ele>924.6</ele>
        <time>2012-08-20T07:57:56Z</time>
      </trkpt>
      <trkpt lat="40.112864" lon="-0.772711">
        <ele>926.0</ele>
        <time>2012-08-20T07:57:57Z</time>
      </trkpt>
      <trkpt lat="40.112826" lon="-0.772731">
        <ele>926.8</ele>
        <time>2012-08-20T07:57:58Z</time>
      </trkpt>
      <trkpt lat="40.112787" lon="-0.772752">
        <ele>927.6</ele>
        <time>2012-08-20T07:57:59Z</time>
      </trkpt>
      <trkpt lat="40.112753" lon="-0.772765">
        <ele>928.4</ele>
        <time>2012-08-20T07:58:00Z</time>
      </trkpt>
      <trkpt lat="40.112714" lon="-0.772783">
        <ele>928.8</ele>
        <time>2012-08-20T07:58:01Z</time>
      </trkpt>
      <trkpt lat="40.112675" lon="-0.772800">
        <ele>929.2</ele>
        <time>2012-08-20T07:58:02Z</time>
      </trkpt>
      <trkpt lat="40.112634" lon="-0.772813">
        <ele>929.8</ele>
        <time>2012-08-20T07:58:03Z</time>
      </trkpt>
      <trkpt lat="40.112592" lon="-0.772832">
        <ele>930.2</ele>
        <time>2012-08-20T07:58:04Z</time>
      </trkpt>
      <trkpt lat="40.112552" lon="-0.772853">
        <ele>930.6</ele>
        <time>2012-08-20T07:58:05Z</time>
      </trkpt>
      <trkpt lat="40.112513" lon="-0.772878">
        <ele>931.0</ele>
        <time>2012-08-20T07:58:06Z</time>
      </trkpt>
      <trkpt lat="40.112473" lon="-0.772904">
        <ele>931.6</ele>
        <time>2012-08-20T07:58:07Z</time>
      </trkpt>
      <trkpt lat="40.112436" lon="-0.772927">
        <ele>932.0</ele>
        <time>2012-08-20T07:58:08Z</time>
      </trkpt>
      <trkpt lat="40.112394" lon="-0.772953">
        <ele>932.4</ele>
        <time>2012-08-20T07:58:09Z</time>
      </trkpt>
      <trkpt lat="40.112352" lon="-0.772986">
        <ele>933.0</ele>
        <time>2012-08-20T07:58:10Z</time>
      </trkpt>
      <trkpt lat="40.112188" lon="-0.773107">
        <ele>933.4</ele>
        <time>2012-08-20T07:58:14Z</time>
      </trkpt>
      <trkpt lat="40.112144" lon="-0.773144">
        <ele>934.0</ele>
        <time>2012-08-20T07:58:15Z</time>
      </trkpt>
      <trkpt lat="40.112101" lon="-0.773185">
        <ele>934.4</ele>
        <time>2012-08-20T07:58:16Z</time>
      </trkpt>
      <trkpt lat="40.112055" lon="-0.773224">
        <ele>935.0</ele>
        <time>2012-08-20T07:58:17Z</time>
      </trkpt>
      <trkpt lat="40.112008" lon="-0.773266">
        <ele>935.6</ele>
        <time>2012-08-20T07:58:18Z</time>
      </trkpt>
      <trkpt lat="40.111966" lon="-0.773315">
        <ele>935.6</ele>
        <time>2012-08-20T07:58:19Z</time>
      </trkpt>
      <trkpt lat="40.111930" lon="-0.773368">
        <ele>935.6</ele>
        <time>2012-08-20T07:58:20Z</time>
      </trkpt>
      <trkpt lat="40.111676" lon="-0.773749">
        <ele>936.0</ele>
        <time>2012-08-20T07:58:27Z</time>
      </trkpt>
      <trkpt lat="40.111641" lon="-0.773800">
        <ele>936.4</ele>
        <time>2012-08-20T07:58:28Z</time>
      </trkpt>
      <trkpt lat="40.111606" lon="-0.773854">
        <ele>936.8</ele>
        <time>2012-08-20T07:58:29Z</time>
      </trkpt>
      <trkpt lat="40.111570" lon="-0.773907">
        <ele>937.2</ele>
        <time>2012-08-20T07:58:30Z</time>
      </trkpt>
      <trkpt lat="40.111534" lon="-0.773960">
        <ele>937.6</ele>
        <time>2012-08-20T07:58:31Z</time>
      </trkpt>
      <trkpt lat="40.111308" lon="-0.774276">
        <ele>937.6</ele>
        <time>2012-08-20T07:58:37Z</time>
      </trkpt>
      <trkpt lat="40.111068" lon="-0.774572">
        <ele>937.6</ele>
        <time>2012-08-20T07:58:43Z</time>
      </trkpt>
      <trkpt lat="40.110785" lon="-0.774832">
        <ele>937.6</ele>
        <time>2012-08-20T07:58:50Z</time>
      </trkpt>
      <trkpt lat="40.107040" lon="-0.775778">
        <ele>934.2</ele>
        <time>2012-08-20T08:00:09Z</time>
      </trkpt>
      <trkpt lat="40.106974" lon="-0.775777">
        <ele>933.8</ele>
        <time>2012-08-20T08:00:10Z</time>
      </trkpt>
      <trkpt lat="40.106912" lon="-0.775785">
        <ele>933.8</ele>
        <time>2012-08-20T08:00:11Z</time>
      </trkpt>
      <trkpt lat="40.106414" lon="-0.775824">
        <ele>933.8</ele>
        <time>2012-08-20T08:00:19Z</time>
      </trkpt>
      <trkpt lat="40.106219" lon="-0.775819">
        <ele>933.2</ele>
        <time>2012-08-20T08:00:22Z</time>
      </trkpt>
      <trkpt lat="40.106154" lon="-0.775810">
        <ele>932.8</ele>
        <time>2012-08-20T08:00:23Z</time>
      </trkpt>
      <trkpt lat="40.106091" lon="-0.775799">
        <ele>932.4</ele>
        <time>2012-08-20T08:00:24Z</time>
      </trkpt>
      <trkpt lat="40.106028" lon="-0.775782">
        <ele>932.0</ele>
        <time>2012-08-20T08:00:25Z</time>
      </trkpt>
      <trkpt lat="40.105964" lon="-0.775763">
        <ele>931.6</ele>
        <time>2012-08-20T08:00:26Z</time>
      </trkpt>
      <trkpt lat="40.105840" lon="-0.775712">
        <ele>931.6</ele>
        <time>2012-08-20T08:00:28Z</time>
      </trkpt>
      <trkpt lat="40.105664" lon="-0.775604">
        <ele>931.6</ele>
        <time>2012-08-20T08:00:31Z</time>
      </trkpt>
      <trkpt lat="40.105283" lon="-0.775297">
        <ele>931.6</ele>
        <time>2012-08-20T08:00:38Z</time>
      </trkpt>
      <trkpt lat="40.105137" lon="-0.775124">
        <ele>931.2</ele>
        <time>2012-08-20T08:00:41Z</time>
      </trkpt>
      <trkpt lat="40.105093" lon="-0.775060">
        <ele>930.8</ele>
        <time>2012-08-20T08:00:42Z</time>
      </trkpt>
      <trkpt lat="40.105051" lon="-0.774996">
        <ele>930.2</ele>
        <time>2012-08-20T08:00:43Z</time>
      </trkpt>
      <trkpt lat="40.105013" lon="-0.774930">
        <ele>929.8</ele>
        <time>2012-08-20T08:00:44Z</time>
      </trkpt>
      <trkpt lat="40.104978" lon="-0.774862">
        <ele>929.4</ele>
        <time>2012-08-20T08:00:45Z</time>
      </trkpt>
      <trkpt lat="40.104768" lon="-0.774353">
        <ele>929.4</ele>
        <time>2012-08-20T08:00:52Z</time>
      </trkpt>
      <trkpt lat="40.104688" lon="-0.774048">
        <ele>929.4</ele>
        <time>2012-08-20T08:00:57Z</time>
      </trkpt>
      <trkpt lat="40.104644" lon="-0.773866">
        <ele>929.4</ele>
        <time>2012-08-20T08:01:02Z</time>
      </trkpt>
      <trkpt lat="40.104594" lon="-0.773677">
        <ele>929.4</ele>
        <time>2012-08-20T08:01:08Z</time>
      </trkpt>
      <trkpt lat="40.104523" lon="-0.773420">
        <ele>929.4</ele>
        <time>2012-08-20T08:01:15Z</time>
      </trkpt>
      <trkpt lat="40.104444" lon="-0.773115">
        <ele>929.4</ele>
        <time>2012-08-20T08:01:22Z</time>
      </trkpt>
      <trkpt lat="40.104380" lon="-0.772849">
        <ele>929.4</ele>
        <time>2012-08-20T08:01:28Z</time>
      </trkpt>
      <trkpt lat="40.104331" lon="-0.772630">
        <ele>929.4</ele>
        <time>2012-08-20T08:01:33Z</time>
      </trkpt>
      <trkpt lat="40.104322" lon="-0.772586">
        <ele>929.4</ele>
        <time>2012-08-20T08:01:34Z</time>
      </trkpt>
      <trkpt lat="40.104297" lon="-0.772329">
        <ele>929.4</ele>
        <time>2012-08-20T08:01:40Z</time>
      </trkpt>
      <trkpt lat="40.104282" lon="-0.772065">
        <ele>929.4</ele>
        <time>2012-08-20T08:01:46Z</time>
      </trkpt>
      <trkpt lat="40.104304" lon="-0.771744">
        <ele>929.4</ele>
        <time>2012-08-20T08:01:53Z</time>
      </trkpt>
      <trkpt lat="40.104404" lon="-0.771357">
        <ele>929.4</ele>
        <time>2012-08-20T08:02:01Z</time>
      </trkpt>
      <trkpt lat="40.104437" lon="-0.771253">
        <ele>929.4</ele>
        <time>2012-08-20T08:02:03Z</time>
      </trkpt>
      <trkpt lat="40.104547" lon="-0.771007">
        <ele>929.4</ele>
        <time>2012-08-20T08:02:08Z</time>
      </trkpt>
      <trkpt lat="40.104790" lon="-0.770531">
        <ele>929.4</ele>
        <time>2012-08-20T08:02:18Z</time>
      </trkpt>
      <trkpt lat="40.104924" lon="-0.770259">
        <ele>929.4</ele>
        <time>2012-08-20T08:02:24Z</time>
      </trkpt>
      <trkpt lat="40.104950" lon="-0.770216">
        <ele>929.4</ele>
        <time>2012-08-20T08:02:25Z</time>
      </trkpt>
      <trkpt lat="40.105085" lon="-0.769955">
        <ele>930.2</ele>
        <time>2012-08-20T08:02:31Z</time>
      </trkpt>
      <trkpt lat="40.105102" lon="-0.769910">
        <ele>930.6</ele>
        <time>2012-08-20T08:02:32Z</time>
      </trkpt>
      <trkpt lat="40.105120" lon="-0.769865">
        <ele>931.0</ele>
        <time>2012-08-20T08:02:33Z</time>
      </trkpt>
      <trkpt lat="40.105137" lon="-0.769817">
        <ele>931.4</ele>
        <time>2012-08-20T08:02:34Z</time>
      </trkpt>
      <trkpt lat="40.105208" lon="-0.769604">
        <ele>931.4</ele>
        <time>2012-08-20T08:02:38Z</time>
      </trkpt>
      <trkpt lat="40.105292" lon="-0.769266">
        <ele>931.4</ele>
        <time>2012-08-20T08:02:43Z</time>
      </trkpt>
      <trkpt lat="40.105399" lon="-0.768831">
        <ele>931.4</ele>
        <time>2012-08-20T08:02:50Z</time>
      </trkpt>
      <trkpt lat="40.105532" lon="-0.768344">
        <ele>931.4</ele>
        <time>2012-08-20T08:02:58Z</time>
      </trkpt>
      <trkpt lat="40.105599" lon="-0.768025">
        <ele>931.4</ele>
        <time>2012-08-20T08:03:03Z</time>
      </trkpt>
      <trkpt lat="40.105643" lon="-0.767847">
        <ele>931.4</ele>
        <time>2012-08-20T08:03:06Z</time>
      </trkpt>
      <trkpt lat="40.105781" lon="-0.767356">
        <ele>931.4</ele>
        <time>2012-08-20T08:03:15Z</time>
      </trkpt>
      <trkpt lat="40.105988" lon="-0.766860">
        <ele>931.4</ele>
        <time>2012-08-20T08:03:25Z</time>
      </trkpt>
      <trkpt lat="40.106111" lon="-0.766626">
        <ele>931.4</ele>
        <time>2012-08-20T08:03:30Z</time>
      </trkpt>
      <trkpt lat="40.106142" lon="-0.766586">
        <ele>931.4</ele>
        <time>2012-08-20T08:03:31Z</time>
      </trkpt>
      <trkpt lat="40.106246" lon="-0.766469">
        <ele>931.4</ele>
        <time>2012-08-20T08:03:34Z</time>
      </trkpt>
      <trkpt lat="40.106402" lon="-0.766329">
        <ele>931.4</ele>
        <time>2012-08-20T08:03:38Z</time>
      </trkpt>
      <trkpt lat="40.106501" lon="-0.766263">
        <ele>931.4</ele>
        <time>2012-08-20T08:03:41Z</time>
      </trkpt>
      <trkpt lat="40.106503" lon="-0.766265">
        <ele>931.4</ele>
        <time>2012-08-20T08:03:42Z</time>
      </trkpt>
      <trkpt lat="40.106502" lon="-0.766264">
        <ele>931.4</ele>
        <time>2012-08-20T08:03:43Z</time>
      </trkpt>
      <trkpt lat="40.106564" lon="-0.766204">
        <ele>931.4</ele>
        <time>2012-08-20T08:04:13Z</time>
      </trkpt>
      <trkpt lat="40.106586" lon="-0.766182">
        <ele>931.4</ele>
        <time>2012-08-20T08:04:14Z</time>
      </trkpt>
      <trkpt lat="40.106739" lon="-0.766043">
        <ele>931.4</ele>
        <time>2012-08-20T08:04:19Z</time>
      </trkpt>
      <trkpt lat="40.106952" lon="-0.765877">
        <ele>931.4</ele>
        <time>2012-08-20T08:04:25Z</time>
      </trkpt>
      <trkpt lat="40.106986" lon="-0.765840">
        <ele>931.4</ele>
        <time>2012-08-20T08:04:26Z</time>
      </trkpt>
      <trkpt lat="40.107179" lon="-0.765674">
        <ele>931.4</ele>
        <time>2012-08-20T08:04:31Z</time>
      </trkpt>
      <trkpt lat="40.107444" lon="-0.765476">
        <ele>931.4</ele>
        <time>2012-08-20T08:04:38Z</time>
      </trkpt>
      <trkpt lat="40.107595" lon="-0.765349">
        <ele>931.4</ele>
        <time>2012-08-20T08:04:42Z</time>
      </trkpt>
      <trkpt lat="40.107670" lon="-0.765267">
        <ele>931.4</ele>
        <time>2012-08-20T08:04:44Z</time>
      </trkpt>
      <trkpt lat="40.107774" lon="-0.765126">
        <ele>931.4</ele>
        <time>2012-08-20T08:04:47Z</time>
      </trkpt>
      <trkpt lat="40.107837" lon="-0.765030">
        <ele>931.4</ele>
        <time>2012-08-20T08:04:49Z</time>
      </trkpt>
      <trkpt lat="40.107867" lon="-0.764980">
        <ele>931.4</ele>
        <time>2012-08-20T08:04:50Z</time>
      </trkpt>
      <trkpt lat="40.108057" lon="-0.764617">
        <ele>931.4</ele>
        <time>2012-08-20T08:04:57Z</time>
      </trkpt>
      <trkpt lat="40.108201" lon="-0.764101">
        <ele>931.4</ele>
        <time>2012-08-20T08:05:06Z</time>
      </trkpt>
      <trkpt lat="40.108251" lon="-0.763668">
        <ele>931.4</ele>
        <time>2012-08-20T08:05:13Z</time>
      </trkpt>
      <trkpt lat="40.108252" lon="-0.763607">
        <ele>931.4</ele>
        <time>2012-08-20T08:05:14Z</time>
      </trkpt>
      <trkpt lat="40.108240" lon="-0.763307">
        <ele>931.8</ele>
        <time>2012-08-20T08:05:19Z</time>
      </trkpt>
      <trkpt lat="40.108240" lon="-0.763245">
        <ele>932.2</ele>
        <time>2012-08-20T08:05:20Z</time>
      </trkpt>
      <trkpt lat="40.108239" lon="-0.763186">
        <ele>932.6</ele>
        <time>2012-08-20T08:05:21Z</time>
      </trkpt>
      <trkpt lat="40.108233" lon="-0.763128">
        <ele>933.0</ele>
        <time>2012-08-20T08:05:22Z</time>
      </trkpt>
      <trkpt lat="40.108226" lon="-0.763067">
        <ele>933.4</ele>
        <time>2012-08-20T08:05:23Z</time>
      </trkpt>
      <trkpt lat="40.108221" lon="-0.762877">
        <ele>933.4</ele>
        <time>2012-08-20T08:05:26Z</time>
      </trkpt>
      <trkpt lat="40.108205" lon="-0.762305">
        <ele>933.4</ele>
        <time>2012-08-20T08:05:35Z</time>
      </trkpt>
      <trkpt lat="40.108189" lon="-0.761712">
        <ele>933.4</ele>
        <time>2012-08-20T08:05:44Z</time>
      </trkpt>
      <trkpt lat="40.108185" lon="-0.761260">
        <ele>933.4</ele>
        <time>2012-08-20T08:05:51Z</time>
      </trkpt>
      <trkpt lat="40.108186" lon="-0.760751">
        <ele>933.4</ele>
        <time>2012-08-20T08:05:59Z</time>
      </trkpt>
      <trkpt lat="40.108258" lon="-0.760303">
        <ele>933.4</ele>
        <time>2012-08-20T08:06:06Z</time>
      </trkpt>
      <trkpt lat="40.108393" lon="-0.759882">
        <ele>933.4</ele>
        <time>2012-08-20T08:06:13Z</time>
      </trkpt>
      <trkpt lat="40.108589" lon="-0.759515">
        <ele>933.4</ele>
        <time>2012-08-20T08:06:20Z</time>
      </trkpt>
      <trkpt lat="40.108831" lon="-0.759200">
        <ele>933.4</ele>
        <time>2012-08-20T08:06:27Z</time>
      </trkpt>
      <trkpt lat="40.109209" lon="-0.758778">
        <ele>933.4</ele>
        <time>2012-08-20T08:06:37Z</time>
      </trkpt>
      <trkpt lat="40.109524" lon="-0.758431">
        <ele>933.4</ele>
        <time>2012-08-20T08:06:46Z</time>
      </trkpt>
      <trkpt lat="40.109629" lon="-0.758318">
        <ele>934.0</ele>
        <time>2012-08-20T08:06:49Z</time>
      </trkpt>
      <trkpt lat="40.109660" lon="-0.758283">
        <ele>934.4</ele>
        <time>2012-08-20T08:06:50Z</time>
      </trkpt>
      <trkpt lat="40.109688" lon="-0.758246">
        <ele>934.8</ele>
        <time>2012-08-20T08:06:51Z</time>
      </trkpt>
      <trkpt lat="40.109716" lon="-0.758212">
        <ele>935.2</ele>
        <time>2012-08-20T08:06:52Z</time>
      </trkpt>
      <trkpt lat="40.109743" lon="-0.758174">
        <ele>935.6</ele>
        <time>2012-08-20T08:06:53Z</time>
      </trkpt>
      <trkpt lat="40.109808" lon="-0.758103">
        <ele>935.6</ele>
        <time>2012-08-20T08:06:55Z</time>
      </trkpt>
      <trkpt lat="40.109952" lon="-0.757946">
        <ele>935.6</ele>
        <time>2012-08-20T08:06:59Z</time>
      </trkpt>
      <trkpt lat="40.110259" lon="-0.757628">
        <ele>935.6</ele>
        <time>2012-08-20T08:07:07Z</time>
      </trkpt>
      <trkpt lat="40.110539" lon="-0.757408">
        <ele>935.6</ele>
        <time>2012-08-20T08:07:14Z</time>
      </trkpt>
      <trkpt lat="40.110861" lon="-0.757247">
        <ele>935.6</ele>
        <time>2012-08-20T08:07:21Z</time>
      </trkpt>
      <trkpt lat="40.111244" lon="-0.757148">
        <ele>935.6</ele>
        <time>2012-08-20T08:07:29Z</time>
      </trkpt>
      <trkpt lat="40.111635" lon="-0.757126">
        <ele>935.6</ele>
        <time>2012-08-20T08:07:36Z</time>
      </trkpt>
      <trkpt lat="40.112138" lon="-0.757162">
        <ele>935.6</ele>
        <time>2012-08-20T08:07:45Z</time>
      </trkpt>
      <trkpt lat="40.112509" lon="-0.757198">
        <ele>935.6</ele>
        <time>2012-08-20T08:07:52Z</time>
      </trkpt>
      <trkpt lat="40.112561" lon="-0.757201">
        <ele>935.6</ele>
        <time>2012-08-20T08:07:53Z</time>
      </trkpt>
      <trkpt lat="40.112934" lon="-0.757231">
        <ele>935.6</ele>
        <time>2012-08-20T08:08:00Z</time>
      </trkpt>
      <trkpt lat="40.113208" lon="-0.757254">
        <ele>936.0</ele>
        <time>2012-08-20T08:08:05Z</time>
      </trkpt>
      <trkpt lat="40.113260" lon="-0.757255">
        <ele>936.4</ele>
        <time>2012-08-20T08:08:06Z</time>
      </trkpt>
      <trkpt lat="40.113313" lon="-0.757257">
        <ele>936.8</ele>
        <time>2012-08-20T08:08:07Z</time>
      </trkpt>
      <trkpt lat="40.113368" lon="-0.757262">
        <ele>937.2</ele>
        <time>2012-08-20T08:08:08Z</time>
      </trkpt>
      <trkpt lat="40.113423" lon="-0.757264">
        <ele>937.6</ele>
        <time>2012-08-20T08:08:09Z</time>
      </trkpt>
      <trkpt lat="40.113478" lon="-0.757259">
        <ele>937.6</ele>
        <time>2012-08-20T08:08:10Z</time>
      </trkpt>
      <trkpt lat="40.113647" lon="-0.757250">
        <ele>937.6</ele>
        <time>2012-08-20T08:08:13Z</time>
      </trkpt>
      <trkpt lat="40.114061" lon="-0.757179">
        <ele>937.6</ele>
        <time>2012-08-20T08:08:21Z</time>
      </trkpt>
      <trkpt lat="40.114392" lon="-0.757014">
        <ele>937.6</ele>
        <time>2012-08-20T08:08:28Z</time>
      </trkpt>
      <trkpt lat="40.114690" lon="-0.756765">
        <ele>937.6</ele>
        <time>2012-08-20T08:08:35Z</time>
      </trkpt>
      <trkpt lat="40.114725" lon="-0.756725">
        <ele>937.6</ele>
        <time>2012-08-20T08:08:36Z</time>
      </trkpt>
      <trkpt lat="40.114796" lon="-0.756644">
        <ele>938.0</ele>
        <time>2012-08-20T08:08:38Z</time>
      </trkpt>
      <trkpt lat="40.114829" lon="-0.756602">
        <ele>938.4</ele>
        <time>2012-08-20T08:08:39Z</time>
      </trkpt>
      <trkpt lat="40.114862" lon="-0.756557">
        <ele>938.8</ele>
        <time>2012-08-20T08:08:40Z</time>
      </trkpt>
      <trkpt lat="40.114898" lon="-0.756514">
        <ele>939.2</ele>
        <time>2012-08-20T08:08:41Z</time>
      </trkpt>
      <trkpt lat="40.114935" lon="-0.756466">
        <ele>939.6</ele>
        <time>2012-08-20T08:08:42Z</time>
      </trkpt>
      <trkpt lat="40.115147" lon="-0.756090">
        <ele>939.6</ele>
        <time>2012-08-20T08:08:49Z</time>
      </trkpt>
      <trkpt lat="40.115210" lon="-0.755930">
        <ele>939.6</ele>
        <time>2012-08-20T08:08:52Z</time>
      </trkpt>
      <trkpt lat="40.115261" lon="-0.755765">
        <ele>939.6</ele>
        <time>2012-08-20T08:08:55Z</time>
      </trkpt>
      <trkpt lat="40.115350" lon="-0.755326">
        <ele>939.6</ele>
        <time>2012-08-20T08:09:02Z</time>
      </trkpt>
      <trkpt lat="40.115359" lon="-0.754836">
        <ele>939.6</ele>
        <time>2012-08-20T08:09:09Z</time>
      </trkpt>
      <trkpt lat="40.115298" lon="-0.754341">
        <ele>939.6</ele>
        <time>2012-08-20T08:09:16Z</time>
      </trkpt>
      <trkpt lat="40.115169" lon="-0.753790">
        <ele>939.6</ele>
        <time>2012-08-20T08:09:24Z</time>
      </trkpt>
      <trkpt lat="40.115048" lon="-0.753238">
        <ele>939.6</ele>
        <time>2012-08-20T08:09:32Z</time>
      </trkpt>
      <trkpt lat="40.114907" lon="-0.752639">
        <ele>939.6</ele>
        <time>2012-08-20T08:09:41Z</time>
      </trkpt>
      <trkpt lat="40.114785" lon="-0.752132">
        <ele>940.2</ele>
        <time>2012-08-20T08:09:49Z</time>
      </trkpt>
      <trkpt lat="40.114772" lon="-0.752069">
        <ele>940.6</ele>
        <time>2012-08-20T08:09:50Z</time>
      </trkpt>
      <trkpt lat="40.114762" lon="-0.752006">
        <ele>941.0</ele>
        <time>2012-08-20T08:09:51Z</time>
      </trkpt>
      <trkpt lat="40.114746" lon="-0.751942">
        <ele>941.4</ele>
        <time>2012-08-20T08:09:52Z</time>
      </trkpt>
      <trkpt lat="40.114733" lon="-0.751878">
        <ele>942.0</ele>
        <time>2012-08-20T08:09:53Z</time>
      </trkpt>
      <trkpt lat="40.114678" lon="-0.751633">
        <ele>942.0</ele>
        <time>2012-08-20T08:09:57Z</time>
      </trkpt>
      <trkpt lat="40.114558" lon="-0.751128">
        <ele>942.0</ele>
        <time>2012-08-20T08:10:05Z</time>
      </trkpt>
      <trkpt lat="40.114459" lon="-0.750786">
        <ele>942.0</ele>
        <time>2012-08-20T08:10:11Z</time>
      </trkpt>
      <trkpt lat="40.114364" lon="-0.750478">
        <ele>942.4</ele>
        <time>2012-08-20T08:10:17Z</time>
      </trkpt>
      <trkpt lat="40.114352" lon="-0.750422">
        <ele>942.8</ele>
        <time>2012-08-20T08:10:18Z</time>
      </trkpt>
      <trkpt lat="40.114335" lon="-0.750368">
        <ele>943.2</ele>
        <time>2012-08-20T08:10:19Z</time>
      </trkpt>
      <trkpt lat="40.114318" lon="-0.750312">
        <ele>943.6</ele>
        <time>2012-08-20T08:10:20Z</time>
      </trkpt>
      <trkpt lat="40.114303" lon="-0.750255">
        <ele>944.0</ele>
        <time>2012-08-20T08:10:21Z</time>
      </trkpt>
      <trkpt lat="40.114213" lon="-0.749916">
        <ele>944.0</ele>
        <time>2012-08-20T08:10:27Z</time>
      </trkpt>
      <trkpt lat="40.114100" lon="-0.749634">
        <ele>944.0</ele>
        <time>2012-08-20T08:10:33Z</time>
      </trkpt>
      <trkpt lat="40.114063" lon="-0.749515">
        <ele>944.0</ele>
        <time>2012-08-20T08:10:35Z</time>
      </trkpt>
      <trkpt lat="40.114032" lon="-0.749384">
        <ele>944.0</ele>
        <time>2012-08-20T08:10:37Z</time>
      </trkpt>
      <trkpt lat="40.114008" lon="-0.749312">
        <ele>943.6</ele>
        <time>2012-08-20T08:10:38Z</time>
      </trkpt>
      <trkpt lat="40.113985" lon="-0.749242">
        <ele>943.2</ele>
        <time>2012-08-20T08:10:39Z</time>
      </trkpt>
      <trkpt lat="40.113963" lon="-0.749176">
        <ele>942.8</ele>
        <time>2012-08-20T08:10:40Z</time>
      </trkpt>
      <trkpt lat="40.113942" lon="-0.749107">
        <ele>942.4</ele>
        <time>2012-08-20T08:10:41Z</time>
      </trkpt>
      <trkpt lat="40.113918" lon="-0.749042">
        <ele>942.0</ele>
        <time>2012-08-20T08:10:42Z</time>
      </trkpt>
      <trkpt lat="40.113894" lon="-0.748978">
        <ele>942.0</ele>
        <time>2012-08-20T08:10:43Z</time>
      </trkpt>
      <trkpt lat="40.113854" lon="-0.748844">
        <ele>942.0</ele>
        <time>2012-08-20T08:10:45Z</time>
      </trkpt>
      <trkpt lat="40.113755" lon="-0.748521">
        <ele>942.0</ele>
        <time>2012-08-20T08:10:50Z</time>
      </trkpt>
      <trkpt lat="40.113633" lon="-0.747961">
        <ele>942.0</ele>
        <time>2012-08-20T08:10:58Z</time>
      </trkpt>
      <trkpt lat="40.113576" lon="-0.747459">
        <ele>942.0</ele>
        <time>2012-08-20T08:11:05Z</time>
      </trkpt>
      <trkpt lat="40.113525" lon="-0.746882">
        <ele>942.0</ele>
        <time>2012-08-20T08:11:13Z</time>
      </trkpt>
      <trkpt lat="40.113479" lon="-0.746384">
        <ele>942.0</ele>
        <time>2012-08-20T08:11:20Z</time>
      </trkpt>
      <trkpt lat="40.113414" lon="-0.745681">
        <ele>942.0</ele>
        <time>2012-08-20T08:11:30Z</time>
      </trkpt>
      <trkpt lat="40.113406" lon="-0.745609">
        <ele>942.0</ele>
        <time>2012-08-20T08:11:31Z</time>
      </trkpt>
      <trkpt lat="40.113330" lon="-0.744898">
        <ele>942.0</ele>
        <time>2012-08-20T08:11:41Z</time>
      </trkpt>
      <trkpt lat="40.113280" lon="-0.744640">
        <ele>942.0</ele>
        <time>2012-08-20T08:11:45Z</time>
      </trkpt>
      <trkpt lat="40.113236" lon="-0.744449">
        <ele>942.0</ele>
        <time>2012-08-20T08:11:48Z</time>
      </trkpt>
      <trkpt lat="40.113136" lon="-0.744227">
        <ele>942.0</ele>
        <time>2012-08-20T08:11:52Z</time>
      </trkpt>
      <trkpt lat="40.112899" lon="-0.743802">
        <ele>942.0</ele>
        <time>2012-08-20T08:12:00Z</time>
      </trkpt>
      <trkpt lat="40.112639" lon="-0.743493">
        <ele>942.0</ele>
        <time>2012-08-20T08:12:07Z</time>
      </trkpt>
      <trkpt lat="40.112329" lon="-0.743257">
        <ele>942.0</ele>
        <time>2012-08-20T08:12:14Z</time>
      </trkpt>
      <trkpt lat="40.112240" lon="-0.743216">
        <ele>942.0</ele>
        <time>2012-08-20T08:12:16Z</time>
      </trkpt>
      <trkpt lat="40.112144" lon="-0.743171">
        <ele>942.4</ele>
        <time>2012-08-20T08:12:18Z</time>
      </trkpt>
      <trkpt lat="40.112097" lon="-0.743149">
        <ele>943.0</ele>
        <time>2012-08-20T08:12:19Z</time>
      </trkpt>
      <trkpt lat="40.112048" lon="-0.743127">
        <ele>943.4</ele>
        <time>2012-08-20T08:12:20Z</time>
      </trkpt>
      <trkpt lat="40.112000" lon="-0.743107">
        <ele>943.2</ele>
        <time>2012-08-20T08:12:21Z</time>
      </trkpt>
      <trkpt lat="40.111953" lon="-0.743082">
        <ele>943.0</ele>
        <time>2012-08-20T08:12:22Z</time>
      </trkpt>
      <trkpt lat="40.111908" lon="-0.743059">
        <ele>942.8</ele>
        <time>2012-08-20T08:12:23Z</time>
      </trkpt>
      <trkpt lat="40.111863" lon="-0.743032">
        <ele>942.6</ele>
        <time>2012-08-20T08:12:24Z</time>
      </trkpt>
      <trkpt lat="40.111817" lon="-0.743010">
        <ele>942.2</ele>
        <time>2012-08-20T08:12:25Z</time>
      </trkpt>
      <trkpt lat="40.111687" lon="-0.742950">
        <ele>942.2</ele>
        <time>2012-08-20T08:12:28Z</time>
      </trkpt>
      <trkpt lat="40.111331" lon="-0.742804">
        <ele>942.2</ele>
        <time>2012-08-20T08:12:35Z</time>
      </trkpt>
      <trkpt lat="40.110924" lon="-0.742627">
        <ele>942.2</ele>
        <time>2012-08-20T08:12:43Z</time>
      </trkpt>
      <trkpt lat="40.110870" lon="-0.742605">
        <ele>942.8</ele>
        <time>2012-08-20T08:12:44Z</time>
      </trkpt>
      <trkpt lat="40.110819" lon="-0.742581">
        <ele>942.8</ele>
        <time>2012-08-20T08:12:45Z</time>
      </trkpt>
      <trkpt lat="40.110765" lon="-0.742560">
        <ele>942.8</ele>
        <time>2012-08-20T08:12:46Z</time>
      </trkpt>
      <trkpt lat="40.110711" lon="-0.742542">
        <ele>943.0</ele>
        <time>2012-08-20T08:12:47Z</time>
      </trkpt>
      <trkpt lat="40.110656" lon="-0.742524">
        <ele>943.0</ele>
        <time>2012-08-20T08:12:48Z</time>
      </trkpt>
      <trkpt lat="40.110600" lon="-0.742508">
        <ele>943.0</ele>
        <time>2012-08-20T08:12:49Z</time>
      </trkpt>
      <trkpt lat="40.110495" lon="-0.742469">
        <ele>943.0</ele>
        <time>2012-08-20T08:12:51Z</time>
      </trkpt>
      <trkpt lat="40.110045" lon="-0.742363">
        <ele>943.0</ele>
        <time>2012-08-20T08:12:59Z</time>
      </trkpt>
      <trkpt lat="40.109625" lon="-0.742337">
        <ele>943.0</ele>
        <time>2012-08-20T08:13:06Z</time>
      </trkpt>
      <trkpt lat="40.109094" lon="-0.742360">
        <ele>943.0</ele>
        <time>2012-08-20T08:13:16Z</time>
      </trkpt>
      <trkpt lat="40.108993" lon="-0.742366">
        <ele>943.0</ele>
        <time>2012-08-20T08:13:20Z</time>
      </trkpt>
      <trkpt lat="40.108981" lon="-0.742357">
        <ele>943.0</ele>
        <time>2012-08-20T08:13:21Z</time>
      </trkpt>
      <trkpt lat="40.108965" lon="-0.742360">
        <ele>943.0</ele>
        <time>2012-08-20T08:13:23Z</time>
      </trkpt>
      <trkpt lat="40.108961" lon="-0.742365">
        <ele>943.0</ele>
        <time>2012-08-20T08:13:24Z</time>
      </trkpt>
      <trkpt lat="40.108950" lon="-0.742362">
        <ele>943.0</ele>
        <time>2012-08-20T08:13:30Z</time>
      </trkpt>
      <trkpt lat="40.108949" lon="-0.742361">
        <ele>943.0</ele>
        <time>2012-08-20T08:13:31Z</time>
      </trkpt>
      <trkpt lat="40.108892" lon="-0.742380">
        <ele>943.0</ele>
        <time>2012-08-20T08:14:25Z</time>
      </trkpt>
      <trkpt lat="40.108836" lon="-0.742394">
        <ele>943.0</ele>
        <time>2012-08-20T08:14:27Z</time>
      </trkpt>
      <trkpt lat="40.108654" lon="-0.742411">
        <ele>943.0</ele>
        <time>2012-08-20T08:14:33Z</time>
      </trkpt>
      <trkpt lat="40.108420" lon="-0.742423">
        <ele>943.0</ele>
        <time>2012-08-20T08:14:39Z</time>
      </trkpt>
      <trkpt lat="40.108085" lon="-0.742448">
        <ele>943.0</ele>
        <time>2012-08-20T08:14:46Z</time>
      </trkpt>
      <trkpt lat="40.107819" lon="-0.742487">
        <ele>943.0</ele>
        <time>2012-08-20T08:14:52Z</time>
      </trkpt>
      <trkpt lat="40.107468" lon="-0.742534">
        <ele>943.0</ele>
        <time>2012-08-20T08:14:59Z</time>
      </trkpt>
      <trkpt lat="40.107033" lon="-0.742544">
        <ele>943.0</ele>
        <time>2012-08-20T08:15:07Z</time>
      </trkpt>
      <trkpt lat="40.106577" lon="-0.742497">
        <ele>943.0</ele>
        <time>2012-08-20T08:15:15Z</time>
      </trkpt>
      <trkpt lat="40.106115" lon="-0.742398">
        <ele>943.0</ele>
        <time>2012-08-20T08:15:23Z</time>
      </trkpt>
      <trkpt lat="40.105596" lon="-0.742288">
        <ele>943.0</ele>
        <time>2012-08-20T08:15:32Z</time>
      </trkpt>
      <trkpt lat="40.105085" lon="-0.742191">
        <ele>943.0</ele>
        <time>2012-08-20T08:15:41Z</time>
      </trkpt>
      <trkpt lat="40.105029" lon="-0.742179">
        <ele>943.0</ele>
        <time>2012-08-20T08:15:42Z</time>
      </trkpt>
      <trkpt lat="40.104576" lon="-0.742084">
        <ele>943.0</ele>
        <time>2012-08-20T08:15:50Z</time>
      </trkpt>
      <trkpt lat="40.104408" lon="-0.742046">
        <ele>943.0</ele>
        <time>2012-08-20T08:15:53Z</time>
      </trkpt>
      <trkpt lat="40.103885" lon="-0.741947">
        <ele>943.0</ele>
        <time>2012-08-20T08:16:02Z</time>
      </trkpt>
      <trkpt lat="40.103827" lon="-0.741936">
        <ele>943.0</ele>
        <time>2012-08-20T08:16:03Z</time>
      </trkpt>
      <trkpt lat="40.103484" lon="-0.741864">
        <ele>943.0</ele>
        <time>2012-08-20T08:16:09Z</time>
      </trkpt>
      <trkpt lat="40.103032" lon="-0.741779">
        <ele>943.0</ele>
        <time>2012-08-20T08:16:17Z</time>
      </trkpt>
      <trkpt lat="40.102584" lon="-0.741689">
        <ele>943.0</ele>
        <time>2012-08-20T08:16:25Z</time>
      </trkpt>
      <trkpt lat="40.102079" lon="-0.741579">
        <ele>943.0</ele>
        <time>2012-08-20T08:16:34Z</time>
      </trkpt>
      <trkpt lat="40.101674" lon="-0.741494">
        <ele>943.0</ele>
        <time>2012-08-20T08:16:41Z</time>
      </trkpt>
      <trkpt lat="40.101618" lon="-0.741477">
        <ele>943.0</ele>
        <time>2012-08-20T08:16:42Z</time>
      </trkpt>
      <trkpt lat="40.101167" lon="-0.741388">
        <ele>943.0</ele>
        <time>2012-08-20T08:16:50Z</time>
      </trkpt>
      <trkpt lat="40.100764" lon="-0.741314">
        <ele>943.0</ele>
        <time>2012-08-20T08:16:57Z</time>
      </trkpt>
      <trkpt lat="40.100316" lon="-0.741221">
        <ele>943.0</ele>
        <time>2012-08-20T08:17:05Z</time>
      </trkpt>
      <trkpt lat="40.099860" lon="-0.741132">
        <ele>943.0</ele>
        <time>2012-08-20T08:17:13Z</time>
      </trkpt>
      <trkpt lat="40.099340" lon="-0.741017">
        <ele>943.0</ele>
        <time>2012-08-20T08:17:22Z</time>
      </trkpt>
      <trkpt lat="40.099282" lon="-0.741002">
        <ele>943.0</ele>
        <time>2012-08-20T08:17:23Z</time>
      </trkpt>
      <trkpt lat="40.098766" lon="-0.740895">
        <ele>943.0</ele>
        <time>2012-08-20T08:17:32Z</time>
      </trkpt>
      <trkpt lat="40.098308" lon="-0.740810">
        <ele>943.0</ele>
        <time>2012-08-20T08:17:40Z</time>
      </trkpt>
      <trkpt lat="40.098028" lon="-0.740749">
        <ele>943.0</ele>
        <time>2012-08-20T08:17:45Z</time>
      </trkpt>
      <trkpt lat="40.097561" lon="-0.740647">
        <ele>943.0</ele>
        <time>2012-08-20T08:17:53Z</time>
      </trkpt>
      <trkpt lat="40.097146" lon="-0.740559">
        <ele>943.0</ele>
        <time>2012-08-20T08:18:00Z</time>
      </trkpt>
      <trkpt lat="40.096719" lon="-0.740468">
        <ele>943.0</ele>
        <time>2012-08-20T08:18:07Z</time>
      </trkpt>
      <trkpt lat="40.096300" lon="-0.740390">
        <ele>943.0</ele>
        <time>2012-08-20T08:18:14Z</time>
      </trkpt>
      <trkpt lat="40.096005" lon="-0.740329">
        <ele>943.4</ele>
        <time>2012-08-20T08:18:19Z</time>
      </trkpt>
      <trkpt lat="40.095945" lon="-0.740316">
        <ele>943.8</ele>
        <time>2012-08-20T08:18:20Z</time>
      </trkpt>
      <trkpt lat="40.095885" lon="-0.740303">
        <ele>944.2</ele>
        <time>2012-08-20T08:18:21Z</time>
      </trkpt>
      <trkpt lat="40.095825" lon="-0.740293">
        <ele>944.6</ele>
        <time>2012-08-20T08:18:22Z</time>
      </trkpt>
      <trkpt lat="40.095768" lon="-0.740283">
        <ele>945.0</ele>
        <time>2012-08-20T08:18:23Z</time>
      </trkpt>
      <trkpt lat="40.095233" lon="-0.740177">
        <ele>945.0</ele>
        <time>2012-08-20T08:18:32Z</time>
      </trkpt>
      <trkpt lat="40.094934" lon="-0.740108">
        <ele>945.0</ele>
        <time>2012-08-20T08:18:37Z</time>
      </trkpt>
      <trkpt lat="40.094696" lon="-0.740049">
        <ele>945.0</ele>
        <time>2012-08-20T08:18:41Z</time>
      </trkpt>
      <trkpt lat="40.094473" lon="-0.739959">
        <ele>945.0</ele>
        <time>2012-08-20T08:18:45Z</time>
      </trkpt>
      <trkpt lat="40.094311" lon="-0.739866">
        <ele>945.0</ele>
        <time>2012-08-20T08:18:48Z</time>
      </trkpt>
      <trkpt lat="40.094017" lon="-0.739627">
        <ele>945.0</ele>
        <time>2012-08-20T08:18:54Z</time>
      </trkpt>
      <trkpt lat="40.093972" lon="-0.739577">
        <ele>945.0</ele>
        <time>2012-08-20T08:18:55Z</time>
      </trkpt>
      <trkpt lat="40.093802" lon="-0.739352">
        <ele>945.0</ele>
        <time>2012-08-20T08:18:59Z</time>
      </trkpt>
      <trkpt lat="40.093530" lon="-0.738927">
        <ele>945.0</ele>
        <time>2012-08-20T08:19:06Z</time>
      </trkpt>
      <trkpt lat="40.093242" lon="-0.738422">
        <ele>945.0</ele>
        <time>2012-08-20T08:19:14Z</time>
      </trkpt>
      <trkpt lat="40.093169" lon="-0.738301">
        <ele>945.4</ele>
        <time>2012-08-20T08:19:16Z</time>
      </trkpt>
      <trkpt lat="40.093133" lon="-0.738242">
        <ele>945.8</ele>
        <time>2012-08-20T08:19:17Z</time>
      </trkpt>
      <trkpt lat="40.093098" lon="-0.738184">
        <ele>946.2</ele>
        <time>2012-08-20T08:19:18Z</time>
      </trkpt>
      <trkpt lat="40.093061" lon="-0.738118">
        <ele>946.6</ele>
        <time>2012-08-20T08:19:19Z</time>
      </trkpt>
      <trkpt lat="40.093027" lon="-0.738054">
        <ele>947.0</ele>
        <time>2012-08-20T08:19:20Z</time>
      </trkpt>
      <trkpt lat="40.092920" lon="-0.737876">
        <ele>947.0</ele>
        <time>2012-08-20T08:19:23Z</time>
      </trkpt>
      <trkpt lat="40.092858" lon="-0.737755">
        <ele>947.0</ele>
        <time>2012-08-20T08:19:25Z</time>
      </trkpt>
      <trkpt lat="40.092747" lon="-0.737588">
        <ele>947.0</ele>
        <time>2012-08-20T08:19:28Z</time>
      </trkpt>
      <trkpt lat="40.092718" lon="-0.737525">
        <ele>947.0</ele>
        <time>2012-08-20T08:19:29Z</time>
      </trkpt>
      <trkpt lat="40.092587" lon="-0.737377">
        <ele>947.0</ele>
        <time>2012-08-20T08:19:32Z</time>
      </trkpt>
      <trkpt lat="40.092307" lon="-0.737104">
        <ele>947.0</ele>
        <time>2012-08-20T08:19:38Z</time>
      </trkpt>
      <trkpt lat="40.091921" lon="-0.736876">
        <ele>947.0</ele>
        <time>2012-08-20T08:19:45Z</time>
      </trkpt>
      <trkpt lat="40.091548" lon="-0.736774">
        <ele>947.0</ele>
        <time>2012-08-20T08:19:52Z</time>
      </trkpt>
      <trkpt lat="40.091401" lon="-0.736754">
        <ele>947.0</ele>
        <time>2012-08-20T08:19:55Z</time>
      </trkpt>
      <trkpt lat="40.091207" lon="-0.736740">
        <ele>947.0</ele>
        <time>2012-08-20T08:19:59Z</time>
      </trkpt>
      <trkpt lat="40.090780" lon="-0.736698">
        <ele>947.0</ele>
        <time>2012-08-20T08:20:08Z</time>
      </trkpt>
      <trkpt lat="40.090383" lon="-0.736669">
        <ele>947.0</ele>
        <time>2012-08-20T08:20:16Z</time>
      </trkpt>
      <trkpt lat="40.090000" lon="-0.736634">
        <ele>947.0</ele>
        <time>2012-08-20T08:20:23Z</time>
      </trkpt>
      <trkpt lat="40.089497" lon="-0.736593">
        <ele>947.0</ele>
        <time>2012-08-20T08:20:32Z</time>
      </trkpt>
      <trkpt lat="40.089441" lon="-0.736590">
        <ele>947.4</ele>
        <time>2012-08-20T08:20:33Z</time>
      </trkpt>
      <trkpt lat="40.089386" lon="-0.736584">
        <ele>947.8</ele>
        <time>2012-08-20T08:20:34Z</time>
      </trkpt>
      <trkpt lat="40.089328" lon="-0.736575">
        <ele>948.2</ele>
        <time>2012-08-20T08:20:35Z</time>
      </trkpt>
      <trkpt lat="40.089268" lon="-0.736568">
        <ele>948.6</ele>
        <time>2012-08-20T08:20:36Z</time>
      </trkpt>
      <trkpt lat="40.089214" lon="-0.736563">
        <ele>949.0</ele>
        <time>2012-08-20T08:20:37Z</time>
      </trkpt>
      <trkpt lat="40.088936" lon="-0.736540">
        <ele>949.0</ele>
        <time>2012-08-20T08:20:42Z</time>
      </trkpt>
      <trkpt lat="40.088367" lon="-0.736489">
        <ele>949.0</ele>
        <time>2012-08-20T08:20:52Z</time>
      </trkpt>
      <trkpt lat="40.087906" lon="-0.736455">
        <ele>949.0</ele>
        <time>2012-08-20T08:21:00Z</time>
      </trkpt>
      <trkpt lat="40.087339" lon="-0.736414">
        <ele>949.0</ele>
        <time>2012-08-20T08:21:10Z</time>
      </trkpt>
      <trkpt lat="40.086832" lon="-0.736369">
        <ele>949.0</ele>
        <time>2012-08-20T08:21:19Z</time>
      </trkpt>
      <trkpt lat="40.086338" lon="-0.736317">
        <ele>949.0</ele>
        <time>2012-08-20T08:21:28Z</time>
      </trkpt>
      <trkpt lat="40.086168" lon="-0.736303">
        <ele>949.8</ele>
        <time>2012-08-20T08:21:31Z</time>
      </trkpt>
      <trkpt lat="40.086111" lon="-0.736296">
        <ele>950.2</ele>
        <time>2012-08-20T08:21:32Z</time>
      </trkpt>
      <trkpt lat="40.086058" lon="-0.736297">
        <ele>950.6</ele>
        <time>2012-08-20T08:21:33Z</time>
      </trkpt>
      <trkpt lat="40.086003" lon="-0.736299">
        <ele>951.0</ele>
        <time>2012-08-20T08:21:34Z</time>
      </trkpt>
      <trkpt lat="40.085893" lon="-0.736288">
        <ele>951.0</ele>
        <time>2012-08-20T08:21:36Z</time>
      </trkpt>
      <trkpt lat="40.085395" lon="-0.736245">
        <ele>951.0</ele>
        <time>2012-08-20T08:21:45Z</time>
      </trkpt>
      <trkpt lat="40.085336" lon="-0.736249">
        <ele>951.0</ele>
        <time>2012-08-20T08:21:46Z</time>
      </trkpt>
      <trkpt lat="40.085100" lon="-0.736233">
        <ele>951.0</ele>
        <time>2012-08-20T08:21:50Z</time>
      </trkpt>
      <trkpt lat="40.084594" lon="-0.736195">
        <ele>951.0</ele>
        <time>2012-08-20T08:21:59Z</time>
      </trkpt>
      <trkpt lat="40.084424" lon="-0.736179">
        <ele>951.0</ele>
        <time>2012-08-20T08:22:02Z</time>
      </trkpt>
      <trkpt lat="40.084201" lon="-0.736158">
        <ele>951.0</ele>
        <time>2012-08-20T08:22:06Z</time>
      </trkpt>
      <trkpt lat="40.083807" lon="-0.736054">
        <ele>951.0</ele>
        <time>2012-08-20T08:22:13Z</time>
      </trkpt>
      <trkpt lat="40.083655" lon="-0.735994">
        <ele>951.0</ele>
        <time>2012-08-20T08:22:16Z</time>
      </trkpt>
      <trkpt lat="40.083505" lon="-0.735921">
        <ele>951.0</ele>
        <time>2012-08-20T08:22:19Z</time>
      </trkpt>
      <trkpt lat="40.083178" lon="-0.735699">
        <ele>951.0</ele>
        <time>2012-08-20T08:22:26Z</time>
      </trkpt>
      <trkpt lat="40.082849" lon="-0.735364">
        <ele>951.0</ele>
        <time>2012-08-20T08:22:34Z</time>
      </trkpt>
      <trkpt lat="40.082563" lon="-0.734938">
        <ele>951.0</ele>
        <time>2012-08-20T08:22:42Z</time>
      </trkpt>
      <trkpt lat="40.082231" lon="-0.734375">
        <ele>951.0</ele>
        <time>2012-08-20T08:22:52Z</time>
      </trkpt>
      <trkpt lat="40.082013" lon="-0.733977">
        <ele>951.0</ele>
        <time>2012-08-20T08:22:59Z</time>
      </trkpt>
      <trkpt lat="40.081984" lon="-0.733918">
        <ele>951.6</ele>
        <time>2012-08-20T08:23:00Z</time>
      </trkpt>
      <trkpt lat="40.081955" lon="-0.733860">
        <ele>952.0</ele>
        <time>2012-08-20T08:23:01Z</time>
      </trkpt>
      <trkpt lat="40.081921" lon="-0.733803">
        <ele>952.4</ele>
        <time>2012-08-20T08:23:02Z</time>
      </trkpt>
      <trkpt lat="40.081889" lon="-0.733749">
        <ele>952.8</ele>
        <time>2012-08-20T08:23:03Z</time>
      </trkpt>
      <trkpt lat="40.081857" lon="-0.733694">
        <ele>953.2</ele>
        <time>2012-08-20T08:23:04Z</time>
      </trkpt>
      <trkpt lat="40.081794" lon="-0.733582">
        <ele>953.2</ele>
        <time>2012-08-20T08:23:06Z</time>
      </trkpt>
      <trkpt lat="40.081573" lon="-0.733186">
        <ele>953.2</ele>
        <time>2012-08-20T08:23:13Z</time>
      </trkpt>
      <trkpt lat="40.081294" lon="-0.732697">
        <ele>953.2</ele>
        <time>2012-08-20T08:23:22Z</time>
      </trkpt>
      <trkpt lat="40.081017" lon="-0.732203">
        <ele>953.2</ele>
        <time>2012-08-20T08:23:31Z</time>
      </trkpt>
      <trkpt lat="40.080735" lon="-0.731699">
        <ele>953.2</ele>
        <time>2012-08-20T08:23:40Z</time>
      </trkpt>
      <trkpt lat="40.080458" lon="-0.731280">
        <ele>953.2</ele>
        <time>2012-08-20T08:23:48Z</time>
      </trkpt>
      <trkpt lat="40.080179" lon="-0.730990">
        <ele>953.2</ele>
        <time>2012-08-20T08:23:55Z</time>
      </trkpt>
      <trkpt lat="40.080138" lon="-0.730954">
        <ele>953.6</ele>
        <time>2012-08-20T08:23:56Z</time>
      </trkpt>
      <trkpt lat="40.080094" lon="-0.730921">
        <ele>954.0</ele>
        <time>2012-08-20T08:23:57Z</time>
      </trkpt>
      <trkpt lat="40.080052" lon="-0.730893">
        <ele>954.4</ele>
        <time>2012-08-20T08:23:58Z</time>
      </trkpt>
      <trkpt lat="40.080004" lon="-0.730867">
        <ele>955.2</ele>
        <time>2012-08-20T08:23:59Z</time>
      </trkpt>
      <trkpt lat="40.079952" lon="-0.730848">
        <ele>955.2</ele>
        <time>2012-08-20T08:24:00Z</time>
      </trkpt>
      <trkpt lat="40.079898" lon="-0.730825">
        <ele>955.2</ele>
        <time>2012-08-20T08:24:01Z</time>
      </trkpt>
      <trkpt lat="40.079731" lon="-0.730735">
        <ele>955.2</ele>
        <time>2012-08-20T08:24:04Z</time>
      </trkpt>
      <trkpt lat="40.079644" lon="-0.730642">
        <ele>955.2</ele>
        <time>2012-08-20T08:24:06Z</time>
      </trkpt>
      <trkpt lat="40.079365" lon="-0.730432">
        <ele>955.2</ele>
        <time>2012-08-20T08:24:12Z</time>
      </trkpt>
      <trkpt lat="40.078937" lon="-0.730139">
        <ele>955.2</ele>
        <time>2012-08-20T08:24:21Z</time>
      </trkpt>
      <trkpt lat="40.078560" lon="-0.729889">
        <ele>955.2</ele>
        <time>2012-08-20T08:24:29Z</time>
      </trkpt>
      <trkpt lat="40.078135" lon="-0.729609">
        <ele>955.2</ele>
        <time>2012-08-20T08:24:38Z</time>
      </trkpt>
      <trkpt lat="40.077750" lon="-0.729345">
        <ele>955.2</ele>
        <time>2012-08-20T08:24:46Z</time>
      </trkpt>
      <trkpt lat="40.077371" lon="-0.729105">
        <ele>955.2</ele>
        <time>2012-08-20T08:24:54Z</time>
      </trkpt>
      <trkpt lat="40.077180" lon="-0.728974">
        <ele>955.2</ele>
        <time>2012-08-20T08:25:00Z</time>
      </trkpt>
      <trkpt lat="40.077178" lon="-0.728972">
        <ele>955.2</ele>
        <time>2012-08-20T08:25:02Z</time>
      </trkpt>
      <trkpt lat="40.077178" lon="-0.728973">
        <ele>955.2</ele>
        <time>2012-08-20T08:25:03Z</time>
      </trkpt>
      <trkpt lat="40.077110" lon="-0.728923">
        <ele>955.2</ele>
        <time>2012-08-20T08:25:44Z</time>
      </trkpt>
      <trkpt lat="40.076867" lon="-0.728767">
        <ele>955.2</ele>
        <time>2012-08-20T08:25:51Z</time>
      </trkpt>
      <trkpt lat="40.076492" lon="-0.728517">
        <ele>955.2</ele>
        <time>2012-08-20T08:26:00Z</time>
      </trkpt>
      <trkpt lat="40.076146" lon="-0.728289">
        <ele>955.2</ele>
        <time>2012-08-20T08:26:08Z</time>
      </trkpt>
      <trkpt lat="40.076065" lon="-0.728231">
        <ele>955.6</ele>
        <time>2012-08-20T08:26:10Z</time>
      </trkpt>
      <trkpt lat="40.076021" lon="-0.728203">
        <ele>956.0</ele>
        <time>2012-08-20T08:26:11Z</time>
      </trkpt>
      <trkpt lat="40.075976" lon="-0.728176">
        <ele>956.4</ele>
        <time>2012-08-20T08:26:12Z</time>
      </trkpt>
      <trkpt lat="40.075929" lon="-0.728150">
        <ele>956.8</ele>
        <time>2012-08-20T08:26:13Z</time>
      </trkpt>
      <trkpt lat="40.075881" lon="-0.728115">
        <ele>957.2</ele>
        <time>2012-08-20T08:26:14Z</time>
      </trkpt>
      <trkpt lat="40.075791" lon="-0.728055">
        <ele>957.2</ele>
        <time>2012-08-20T08:26:16Z</time>
      </trkpt>
      <trkpt lat="40.075462" lon="-0.727841">
        <ele>957.2</ele>
        <time>2012-08-20T08:26:23Z</time>
      </trkpt>
      <trkpt lat="40.075127" lon="-0.727605">
        <ele>957.6</ele>
        <time>2012-08-20T08:26:30Z</time>
      </trkpt>
      <trkpt lat="40.075083" lon="-0.727569">
        <ele>958.2</ele>
        <time>2012-08-20T08:26:31Z</time>
      </trkpt>
      <trkpt lat="40.075042" lon="-0.727531">
        <ele>958.6</ele>
        <time>2012-08-20T08:26:32Z</time>
      </trkpt>
      <trkpt lat="40.075006" lon="-0.727496">
        <ele>959.0</ele>
        <time>2012-08-20T08:26:33Z</time>
      </trkpt>
      <trkpt lat="40.074973" lon="-0.727456">
        <ele>959.4</ele>
        <time>2012-08-20T08:26:34Z</time>
      </trkpt>
      <trkpt lat="40.074867" lon="-0.727344">
        <ele>959.4</ele>
        <time>2012-08-20T08:26:37Z</time>
      </trkpt>
      <trkpt lat="40.074826" lon="-0.727317">
        <ele>959.8</ele>
        <time>2012-08-20T08:26:38Z</time>
      </trkpt>
      <trkpt lat="40.074786" lon="-0.727290">
        <ele>960.4</ele>
        <time>2012-08-20T08:26:39Z</time>
      </trkpt>
      <trkpt lat="40.074757" lon="-0.727271">
        <ele>960.8</ele>
        <time>2012-08-20T08:26:40Z</time>
      </trkpt>
      <trkpt lat="40.074716" lon="-0.727247">
        <ele>961.2</ele>
        <time>2012-08-20T08:26:41Z</time>
      </trkpt>
      <trkpt lat="40.074684" lon="-0.727228">
        <ele>961.6</ele>
        <time>2012-08-20T08:26:42Z</time>
      </trkpt>
      <trkpt lat="40.074647" lon="-0.727208">
        <ele>961.6</ele>
        <time>2012-08-20T08:26:43Z</time>
      </trkpt>
      <trkpt lat="40.074340" lon="-0.727039">
        <ele>961.6</ele>
        <time>2012-08-20T08:26:50Z</time>
      </trkpt>
      <trkpt lat="40.074025" lon="-0.726870">
        <ele>961.6</ele>
        <time>2012-08-20T08:26:57Z</time>
      </trkpt>
      <trkpt lat="40.073943" lon="-0.726830">
        <ele>961.6</ele>
        <time>2012-08-20T08:26:59Z</time>
      </trkpt>
      <trkpt lat="40.073710" lon="-0.726728">
        <ele>961.6</ele>
        <time>2012-08-20T08:27:04Z</time>
      </trkpt>
      <trkpt lat="40.073237" lon="-0.726546">
        <ele>961.6</ele>
        <time>2012-08-20T08:27:13Z</time>
      </trkpt>
      <trkpt lat="40.072914" lon="-0.726437">
        <ele>961.2</ele>
        <time>2012-08-20T08:27:19Z</time>
      </trkpt>
      <trkpt lat="40.072858" lon="-0.726421">
        <ele>960.8</ele>
        <time>2012-08-20T08:27:20Z</time>
      </trkpt>
      <trkpt lat="40.072805" lon="-0.726407">
        <ele>960.4</ele>
        <time>2012-08-20T08:27:21Z</time>
      </trkpt>
      <trkpt lat="40.072739" lon="-0.726388">
        <ele>960.0</ele>
        <time>2012-08-20T08:27:22Z</time>
      </trkpt>
      <trkpt lat="40.072680" lon="-0.726372">
        <ele>959.6</ele>
        <time>2012-08-20T08:27:23Z</time>
      </trkpt>
      <trkpt lat="40.072426" lon="-0.726314">
        <ele>959.6</ele>
        <time>2012-08-20T08:27:27Z</time>
      </trkpt>
      <trkpt lat="40.071861" lon="-0.726246">
        <ele>959.6</ele>
        <time>2012-08-20T08:27:36Z</time>
      </trkpt>
      <trkpt lat="40.071423" lon="-0.726205">
        <ele>959.6</ele>
        <time>2012-08-20T08:27:43Z</time>
      </trkpt>
      <trkpt lat="40.070912" lon="-0.726202">
        <ele>959.6</ele>
        <time>2012-08-20T08:27:51Z</time>
      </trkpt>
      <trkpt lat="40.070460" lon="-0.726325">
        <ele>959.6</ele>
        <time>2012-08-20T08:27:58Z</time>
      </trkpt>
      <trkpt lat="40.070148" lon="-0.726513">
        <ele>959.2</ele>
        <time>2012-08-20T08:28:03Z</time>
      </trkpt>
      <trkpt lat="40.070091" lon="-0.726562">
        <ele>958.8</ele>
        <time>2012-08-20T08:28:04Z</time>
      </trkpt>
      <trkpt lat="40.070031" lon="-0.726610">
        <ele>958.0</ele>
        <time>2012-08-20T08:28:05Z</time>
      </trkpt>
      <trkpt lat="40.069971" lon="-0.726659">
        <ele>957.4</ele>
        <time>2012-08-20T08:28:06Z</time>
      </trkpt>
      <trkpt lat="40.069736" lon="-0.726858">
        <ele>957.4</ele>
        <time>2012-08-20T08:28:10Z</time>
      </trkpt>
      <trkpt lat="40.069428" lon="-0.727121">
        <ele>957.0</ele>
        <time>2012-08-20T08:28:15Z</time>
      </trkpt>
      <trkpt lat="40.069365" lon="-0.727174">
        <ele>956.6</ele>
        <time>2012-08-20T08:28:16Z</time>
      </trkpt>
      <trkpt lat="40.069302" lon="-0.727229">
        <ele>956.2</ele>
        <time>2012-08-20T08:28:17Z</time>
      </trkpt>
      <trkpt lat="40.069240" lon="-0.727282">
        <ele>955.8</ele>
        <time>2012-08-20T08:28:18Z</time>
      </trkpt>
      <trkpt lat="40.069178" lon="-0.727337">
        <ele>955.4</ele>
        <time>2012-08-20T08:28:19Z</time>
      </trkpt>
      <trkpt lat="40.068750" lon="-0.727702">
        <ele>955.4</ele>
        <time>2012-08-20T08:28:26Z</time>
      </trkpt>
      <trkpt lat="40.068495" lon="-0.727917">
        <ele>954.4</ele>
        <time>2012-08-20T08:28:30Z</time>
      </trkpt>
      <trkpt lat="40.068432" lon="-0.727973">
        <ele>954.0</ele>
        <time>2012-08-20T08:28:31Z</time>
      </trkpt>
      <trkpt lat="40.068367" lon="-0.728028">
        <ele>953.6</ele>
        <time>2012-08-20T08:28:32Z</time>
      </trkpt>
      <trkpt lat="40.068301" lon="-0.728082">
        <ele>953.2</ele>
        <time>2012-08-20T08:28:33Z</time>
      </trkpt>
      <trkpt lat="40.068236" lon="-0.728137">
        <ele>953.2</ele>
        <time>2012-08-20T08:28:34Z</time>
      </trkpt>
      <trkpt lat="40.067836" lon="-0.728466">
        <ele>952.8</ele>
        <time>2012-08-20T08:28:40Z</time>
      </trkpt>
      <trkpt lat="40.067769" lon="-0.728515">
        <ele>952.4</ele>
        <time>2012-08-20T08:28:41Z</time>
      </trkpt>
      <trkpt lat="40.067703" lon="-0.728559">
        <ele>952.0</ele>
        <time>2012-08-20T08:28:42Z</time>
      </trkpt>
      <trkpt lat="40.067636" lon="-0.728597">
        <ele>951.6</ele>
        <time>2012-08-20T08:28:43Z</time>
      </trkpt>
      <trkpt lat="40.067569" lon="-0.728628">
        <ele>951.2</ele>
        <time>2012-08-20T08:28:44Z</time>
      </trkpt>
    </trkseg>
  </trk>
  <trk>
    <name>T3303249-11</name>
    <cmt>La ruta empieza en Ojos Negros. Hasta Santa Eulalia va por una carretera comarcal apenas transitada. Hay un tramo de unos 40 km durante el puerto del Escandón que no aparece reflejado en el track porque me quedé sin batería en el GPS pero la vía verde no tiene pérdida en esa zona</cmt>
    <desc>La ruta empieza en Ojos Negros. Hasta Santa Eulalia va por una carretera comarcal apenas transitada. Hay un tramo de unos 40 km durante el puerto del Escandón que no aparece reflejado en el track porque me quedé sin batería en el GPS pero la vía verde no tiene pérdida en esa zona</desc>
    <trkseg>
      <trkpt lat="40.067371" lon="-0.728686">
        <ele>951.2</ele>
        <time>2012-08-20T08:28:47Z</time>
      </trkpt>
      <trkpt lat="40.067066" lon="-0.728751">
        <ele>951.2</ele>
        <time>2012-08-20T08:28:52Z</time>
      </trkpt>
      <trkpt lat="40.067006" lon="-0.728753">
        <ele>951.2</ele>
        <time>2012-08-20T08:28:53Z</time>
      </trkpt>
      <trkpt lat="40.066592" lon="-0.728712">
        <ele>951.2</ele>
        <time>2012-08-20T08:29:00Z</time>
      </trkpt>
      <trkpt lat="40.066183" lon="-0.728543">
        <ele>951.2</ele>
        <time>2012-08-20T08:29:07Z</time>
      </trkpt>
      <trkpt lat="40.065742" lon="-0.728238">
        <ele>951.2</ele>
        <time>2012-08-20T08:29:15Z</time>
      </trkpt>
      <trkpt lat="40.065325" lon="-0.727874">
        <ele>951.2</ele>
        <time>2012-08-20T08:29:23Z</time>
      </trkpt>
      <trkpt lat="40.064883" lon="-0.727431">
        <ele>951.2</ele>
        <time>2012-08-20T08:29:32Z</time>
      </trkpt>
      <trkpt lat="40.064431" lon="-0.726978">
        <ele>951.2</ele>
        <time>2012-08-20T08:29:41Z</time>
      </trkpt>
      <trkpt lat="40.063998" lon="-0.726624">
        <ele>951.2</ele>
        <time>2012-08-20T08:29:49Z</time>
      </trkpt>
      <trkpt lat="40.063591" lon="-0.726421">
        <ele>951.2</ele>
        <time>2012-08-20T08:29:56Z</time>
      </trkpt>
      <trkpt lat="40.063113" lon="-0.726274">
        <ele>951.2</ele>
        <time>2012-08-20T08:30:04Z</time>
      </trkpt>
      <trkpt lat="40.062562" lon="-0.726149">
        <ele>951.2</ele>
        <time>2012-08-20T08:30:13Z</time>
      </trkpt>
      <trkpt lat="40.062128" lon="-0.726139">
        <ele>951.6</ele>
        <time>2012-08-20T08:30:20Z</time>
      </trkpt>
      <trkpt lat="40.062068" lon="-0.726146">
        <ele>952.0</ele>
        <time>2012-08-20T08:30:21Z</time>
      </trkpt>
      <trkpt lat="40.062006" lon="-0.726158">
        <ele>952.4</ele>
        <time>2012-08-20T08:30:22Z</time>
      </trkpt>
      <trkpt lat="40.061944" lon="-0.726172">
        <ele>952.8</ele>
        <time>2012-08-20T08:30:23Z</time>
      </trkpt>
      <trkpt lat="40.061884" lon="-0.726186">
        <ele>953.2</ele>
        <time>2012-08-20T08:30:24Z</time>
      </trkpt>
      <trkpt lat="40.061706" lon="-0.726243">
        <ele>953.2</ele>
        <time>2012-08-20T08:30:27Z</time>
      </trkpt>
      <trkpt lat="40.061334" lon="-0.726425">
        <ele>953.2</ele>
        <time>2012-08-20T08:30:34Z</time>
      </trkpt>
      <trkpt lat="40.061036" lon="-0.726659">
        <ele>953.2</ele>
        <time>2012-08-20T08:30:40Z</time>
      </trkpt>
      <trkpt lat="40.060742" lon="-0.726925">
        <ele>953.2</ele>
        <time>2012-08-20T08:30:46Z</time>
      </trkpt>
      <trkpt lat="40.060693" lon="-0.726970">
        <ele>953.2</ele>
        <time>2012-08-20T08:30:47Z</time>
      </trkpt>
      <trkpt lat="40.060352" lon="-0.727276">
        <ele>953.2</ele>
        <time>2012-08-20T08:30:54Z</time>
      </trkpt>
      <trkpt lat="40.060010" lon="-0.727563">
        <ele>953.2</ele>
        <time>2012-08-20T08:31:01Z</time>
      </trkpt>
      <trkpt lat="40.059584" lon="-0.727943">
        <ele>953.2</ele>
        <time>2012-08-20T08:31:10Z</time>
      </trkpt>
      <trkpt lat="40.059197" lon="-0.728290">
        <ele>953.2</ele>
        <time>2012-08-20T08:31:18Z</time>
      </trkpt>
      <trkpt lat="40.058852" lon="-0.728605">
        <ele>953.2</ele>
        <time>2012-08-20T08:31:25Z</time>
      </trkpt>
      <trkpt lat="40.058448" lon="-0.728971">
        <ele>953.2</ele>
        <time>2012-08-20T08:31:33Z</time>
      </trkpt>
      <trkpt lat="40.058346" lon="-0.729062">
        <ele>953.6</ele>
        <time>2012-08-20T08:31:35Z</time>
      </trkpt>
      <trkpt lat="40.058295" lon="-0.729109">
        <ele>954.0</ele>
        <time>2012-08-20T08:31:36Z</time>
      </trkpt>
      <trkpt lat="40.058239" lon="-0.729157">
        <ele>954.4</ele>
        <time>2012-08-20T08:31:37Z</time>
      </trkpt>
      <trkpt lat="40.058184" lon="-0.729201">
        <ele>954.8</ele>
        <time>2012-08-20T08:31:38Z</time>
      </trkpt>
      <trkpt lat="40.058130" lon="-0.729246">
        <ele>955.2</ele>
        <time>2012-08-20T08:31:39Z</time>
      </trkpt>
      <trkpt lat="40.058075" lon="-0.729291">
        <ele>955.2</ele>
        <time>2012-08-20T08:31:40Z</time>
      </trkpt>
      <trkpt lat="40.057599" lon="-0.729709">
        <ele>955.2</ele>
        <time>2012-08-20T08:31:49Z</time>
      </trkpt>
      <trkpt lat="40.057120" lon="-0.730133">
        <ele>955.2</ele>
        <time>2012-08-20T08:31:58Z</time>
      </trkpt>
      <trkpt lat="40.056697" lon="-0.730435">
        <ele>955.2</ele>
        <time>2012-08-20T08:32:06Z</time>
      </trkpt>
      <trkpt lat="40.056260" lon="-0.730608">
        <ele>955.2</ele>
        <time>2012-08-20T08:32:14Z</time>
      </trkpt>
      <trkpt lat="40.055860" lon="-0.730666">
        <ele>955.2</ele>
        <time>2012-08-20T08:32:21Z</time>
      </trkpt>
      <trkpt lat="40.055705" lon="-0.730671">
        <ele>955.2</ele>
        <time>2012-08-20T08:32:24Z</time>
      </trkpt>
      <trkpt lat="40.055510" lon="-0.730646">
        <ele>955.2</ele>
        <time>2012-08-20T08:32:28Z</time>
      </trkpt>
      <trkpt lat="40.055067" lon="-0.730555">
        <ele>955.2</ele>
        <time>2012-08-20T08:32:37Z</time>
      </trkpt>
      <trkpt lat="40.054973" lon="-0.730539">
        <ele>955.8</ele>
        <time>2012-08-20T08:32:39Z</time>
      </trkpt>
      <trkpt lat="40.054927" lon="-0.730532">
        <ele>956.2</ele>
        <time>2012-08-20T08:32:40Z</time>
      </trkpt>
      <trkpt lat="40.054881" lon="-0.730524">
        <ele>956.8</ele>
        <time>2012-08-20T08:32:41Z</time>
      </trkpt>
      <trkpt lat="40.054834" lon="-0.730515">
        <ele>957.2</ele>
        <time>2012-08-20T08:32:42Z</time>
      </trkpt>
      <trkpt lat="40.054779" lon="-0.730507">
        <ele>957.8</ele>
        <time>2012-08-20T08:32:43Z</time>
      </trkpt>
      <trkpt lat="40.054733" lon="-0.730499">
        <ele>957.8</ele>
        <time>2012-08-20T08:32:44Z</time>
      </trkpt>
      <trkpt lat="40.054366" lon="-0.730435">
        <ele>957.8</ele>
        <time>2012-08-20T08:32:51Z</time>
      </trkpt>
      <trkpt lat="40.054033" lon="-0.730369">
        <ele>957.8</ele>
        <time>2012-08-20T08:32:57Z</time>
      </trkpt>
      <trkpt lat="40.053977" lon="-0.730356">
        <ele>957.8</ele>
        <time>2012-08-20T08:32:58Z</time>
      </trkpt>
      <trkpt lat="40.053577" lon="-0.730269">
        <ele>957.8</ele>
        <time>2012-08-20T08:33:05Z</time>
      </trkpt>
      <trkpt lat="40.053229" lon="-0.730209">
        <ele>957.8</ele>
        <time>2012-08-20T08:33:11Z</time>
      </trkpt>
      <trkpt lat="40.052708" lon="-0.730097">
        <ele>957.8</ele>
        <time>2012-08-20T08:33:20Z</time>
      </trkpt>
      <trkpt lat="40.052651" lon="-0.730089">
        <ele>957.8</ele>
        <time>2012-08-20T08:33:21Z</time>
      </trkpt>
      <trkpt lat="40.052146" lon="-0.729988">
        <ele>957.8</ele>
        <time>2012-08-20T08:33:30Z</time>
      </trkpt>
      <trkpt lat="40.051712" lon="-0.729909">
        <ele>957.8</ele>
        <time>2012-08-20T08:33:38Z</time>
      </trkpt>
      <trkpt lat="40.051295" lon="-0.729826">
        <ele>957.8</ele>
        <time>2012-08-20T08:33:46Z</time>
      </trkpt>
      <trkpt lat="40.050748" lon="-0.729727">
        <ele>957.8</ele>
        <time>2012-08-20T08:33:56Z</time>
      </trkpt>
      <trkpt lat="40.050256" lon="-0.729631">
        <ele>957.8</ele>
        <time>2012-08-20T08:34:05Z</time>
      </trkpt>
      <trkpt lat="40.049812" lon="-0.729540">
        <ele>957.8</ele>
        <time>2012-08-20T08:34:13Z</time>
      </trkpt>
      <trkpt lat="40.049756" lon="-0.729529">
        <ele>958.2</ele>
        <time>2012-08-20T08:34:14Z</time>
      </trkpt>
      <trkpt lat="40.049700" lon="-0.729518">
        <ele>958.6</ele>
        <time>2012-08-20T08:34:15Z</time>
      </trkpt>
      <trkpt lat="40.049644" lon="-0.729508">
        <ele>959.4</ele>
        <time>2012-08-20T08:34:16Z</time>
      </trkpt>
      <trkpt lat="40.049589" lon="-0.729498">
        <ele>959.8</ele>
        <time>2012-08-20T08:34:17Z</time>
      </trkpt>
      <trkpt lat="40.049418" lon="-0.729463">
        <ele>959.8</ele>
        <time>2012-08-20T08:34:20Z</time>
      </trkpt>
      <trkpt lat="40.048952" lon="-0.729382">
        <ele>959.8</ele>
        <time>2012-08-20T08:34:28Z</time>
      </trkpt>
      <trkpt lat="40.048421" lon="-0.729282">
        <ele>959.8</ele>
        <time>2012-08-20T08:34:37Z</time>
      </trkpt>
      <trkpt lat="40.047996" lon="-0.729193">
        <ele>959.8</ele>
        <time>2012-08-20T08:34:44Z</time>
      </trkpt>
      <trkpt lat="40.047510" lon="-0.729104">
        <ele>959.8</ele>
        <time>2012-08-20T08:34:52Z</time>
      </trkpt>
      <trkpt lat="40.046971" lon="-0.729004">
        <ele>959.8</ele>
        <time>2012-08-20T08:35:01Z</time>
      </trkpt>
      <trkpt lat="40.046543" lon="-0.728976">
        <ele>959.8</ele>
        <time>2012-08-20T08:35:08Z</time>
      </trkpt>
      <trkpt lat="40.046125" lon="-0.729027">
        <ele>959.8</ele>
        <time>2012-08-20T08:35:15Z</time>
      </trkpt>
      <trkpt lat="40.045732" lon="-0.729133">
        <ele>959.8</ele>
        <time>2012-08-20T08:35:22Z</time>
      </trkpt>
      <trkpt lat="40.045297" lon="-0.729351">
        <ele>960.8</ele>
        <time>2012-08-20T08:35:30Z</time>
      </trkpt>
      <trkpt lat="40.045248" lon="-0.729382">
        <ele>961.2</ele>
        <time>2012-08-20T08:35:31Z</time>
      </trkpt>
      <trkpt lat="40.045199" lon="-0.729412">
        <ele>961.6</ele>
        <time>2012-08-20T08:35:32Z</time>
      </trkpt>
      <trkpt lat="40.045152" lon="-0.729442">
        <ele>962.0</ele>
        <time>2012-08-20T08:35:33Z</time>
      </trkpt>
      <trkpt lat="40.044942" lon="-0.729591">
        <ele>962.0</ele>
        <time>2012-08-20T08:35:38Z</time>
      </trkpt>
      <trkpt lat="40.044582" lon="-0.729837">
        <ele>962.0</ele>
        <time>2012-08-20T08:35:46Z</time>
      </trkpt>
      <trkpt lat="40.044243" lon="-0.730060">
        <ele>962.0</ele>
        <time>2012-08-20T08:35:55Z</time>
      </trkpt>
      <trkpt lat="40.044116" lon="-0.730145">
        <ele>962.0</ele>
        <time>2012-08-20T08:36:00Z</time>
      </trkpt>
      <trkpt lat="40.044091" lon="-0.730175">
        <ele>962.0</ele>
        <time>2012-08-20T08:36:04Z</time>
      </trkpt>
      <trkpt lat="40.044091" lon="-0.730175">
        <ele>962.0</ele>
        <time>2012-08-20T08:36:05Z</time>
      </trkpt>
      <trkpt lat="40.044091" lon="-0.730175">
        <ele>962.0</ele>
        <time>2012-08-20T08:36:06Z</time>
      </trkpt>
      <trkpt lat="40.044041" lon="-0.730225">
        <ele>962.0</ele>
        <time>2012-08-20T08:36:55Z</time>
      </trkpt>
      <trkpt lat="40.044013" lon="-0.730240">
        <ele>962.0</ele>
        <time>2012-08-20T08:36:56Z</time>
      </trkpt>
      <trkpt lat="40.043858" lon="-0.730335">
        <ele>962.0</ele>
        <time>2012-08-20T08:37:01Z</time>
      </trkpt>
      <trkpt lat="40.043617" lon="-0.730497">
        <ele>962.0</ele>
        <time>2012-08-20T08:37:08Z</time>
      </trkpt>
      <trkpt lat="40.043505" lon="-0.730578">
        <ele>962.0</ele>
        <time>2012-08-20T08:37:11Z</time>
      </trkpt>
      <trkpt lat="40.043388" lon="-0.730657">
        <ele>962.0</ele>
        <time>2012-08-20T08:37:14Z</time>
      </trkpt>
      <trkpt lat="40.043087" lon="-0.730835">
        <ele>962.0</ele>
        <time>2012-08-20T08:37:22Z</time>
      </trkpt>
      <trkpt lat="40.042966" lon="-0.730938">
        <ele>962.0</ele>
        <time>2012-08-20T08:37:26Z</time>
      </trkpt>
      <trkpt lat="40.042890" lon="-0.730972">
        <ele>962.0</ele>
        <time>2012-08-20T08:37:28Z</time>
      </trkpt>
      <trkpt lat="40.042776" lon="-0.731031">
        <ele>962.0</ele>
        <time>2012-08-20T08:37:31Z</time>
      </trkpt>
      <trkpt lat="40.042496" lon="-0.731160">
        <ele>962.0</ele>
        <time>2012-08-20T08:37:38Z</time>
      </trkpt>
      <trkpt lat="40.042137" lon="-0.731248">
        <ele>962.0</ele>
        <time>2012-08-20T08:37:46Z</time>
      </trkpt>
      <trkpt lat="40.041886" lon="-0.731274">
        <ele>962.0</ele>
        <time>2012-08-20T08:37:52Z</time>
      </trkpt>
      <trkpt lat="40.041854" lon="-0.731271">
        <ele>962.0</ele>
        <time>2012-08-20T08:37:54Z</time>
      </trkpt>
      <trkpt lat="40.041850" lon="-0.731263">
        <ele>962.0</ele>
        <time>2012-08-20T08:37:55Z</time>
      </trkpt>
      <trkpt lat="40.041855" lon="-0.731251">
        <ele>962.0</ele>
        <time>2012-08-20T08:37:56Z</time>
      </trkpt>
      <trkpt lat="40.041861" lon="-0.731249">
        <ele>962.0</ele>
        <time>2012-08-20T08:37:57Z</time>
      </trkpt>
      <trkpt lat="40.041882" lon="-0.731253">
        <ele>962.0</ele>
        <time>2012-08-20T08:37:59Z</time>
      </trkpt>
      <trkpt lat="40.041899" lon="-0.731257">
        <ele>962.0</ele>
        <time>2012-08-20T08:38:00Z</time>
      </trkpt>
      <trkpt lat="40.041991" lon="-0.731274">
        <ele>962.0</ele>
        <time>2012-08-20T08:38:06Z</time>
      </trkpt>
      <trkpt lat="40.041992" lon="-0.731275">
        <ele>962.0</ele>
        <time>2012-08-20T08:38:07Z</time>
      </trkpt>
      <trkpt lat="40.041993" lon="-0.731275">
        <ele>962.0</ele>
        <time>2012-08-20T08:38:08Z</time>
      </trkpt>
      <trkpt lat="40.041921" lon="-0.731264">
        <ele>962.0</ele>
        <time>2012-08-20T08:41:00Z</time>
      </trkpt>
      <trkpt lat="40.041882" lon="-0.731264">
        <ele>962.0</ele>
        <time>2012-08-20T08:41:02Z</time>
      </trkpt>
      <trkpt lat="40.041841" lon="-0.731270">
        <ele>962.0</ele>
        <time>2012-08-20T08:41:05Z</time>
      </trkpt>
      <trkpt lat="40.041807" lon="-0.731280">
        <ele>962.0</ele>
        <time>2012-08-20T08:41:07Z</time>
      </trkpt>
      <trkpt lat="40.041657" lon="-0.731271">
        <ele>962.0</ele>
        <time>2012-08-20T08:41:14Z</time>
      </trkpt>
      <trkpt lat="40.041492" lon="-0.731248">
        <ele>962.0</ele>
        <time>2012-08-20T08:41:20Z</time>
      </trkpt>
      <trkpt lat="40.041232" lon="-0.731184">
        <ele>962.0</ele>
        <time>2012-08-20T08:41:28Z</time>
      </trkpt>
      <trkpt lat="40.040981" lon="-0.731093">
        <ele>962.0</ele>
        <time>2012-08-20T08:41:35Z</time>
      </trkpt>
      <trkpt lat="40.040865" lon="-0.731039">
        <ele>962.4</ele>
        <time>2012-08-20T08:41:38Z</time>
      </trkpt>
      <trkpt lat="40.040828" lon="-0.731016">
        <ele>962.8</ele>
        <time>2012-08-20T08:41:39Z</time>
      </trkpt>
      <trkpt lat="40.040793" lon="-0.730996">
        <ele>963.2</ele>
        <time>2012-08-20T08:41:40Z</time>
      </trkpt>
      <trkpt lat="40.040757" lon="-0.730976">
        <ele>964.0</ele>
        <time>2012-08-20T08:41:41Z</time>
      </trkpt>
      <trkpt lat="40.040720" lon="-0.730956">
        <ele>964.0</ele>
        <time>2012-08-20T08:41:42Z</time>
      </trkpt>
      <trkpt lat="40.040581" lon="-0.730873">
        <ele>964.0</ele>
        <time>2012-08-20T08:41:46Z</time>
      </trkpt>
      <trkpt lat="40.040436" lon="-0.730775">
        <ele>964.0</ele>
        <time>2012-08-20T08:41:50Z</time>
      </trkpt>
      <trkpt lat="40.040164" lon="-0.730544">
        <ele>964.0</ele>
        <time>2012-08-20T08:41:58Z</time>
      </trkpt>
      <trkpt lat="40.039928" lon="-0.730276">
        <ele>964.0</ele>
        <time>2012-08-20T08:42:05Z</time>
      </trkpt>
      <trkpt lat="40.039653" lon="-0.729885">
        <ele>964.0</ele>
        <time>2012-08-20T08:42:14Z</time>
      </trkpt>
      <trkpt lat="40.039380" lon="-0.729382">
        <ele>964.0</ele>
        <time>2012-08-20T08:42:24Z</time>
      </trkpt>
      <trkpt lat="40.039113" lon="-0.728917">
        <ele>964.0</ele>
        <time>2012-08-20T08:42:33Z</time>
      </trkpt>
      <trkpt lat="40.038831" lon="-0.728385">
        <ele>964.0</ele>
        <time>2012-08-20T08:42:43Z</time>
      </trkpt>
      <trkpt lat="40.038642" lon="-0.727992">
        <ele>964.0</ele>
        <time>2012-08-20T08:42:50Z</time>
      </trkpt>
      <trkpt lat="40.038483" lon="-0.727586">
        <ele>964.0</ele>
        <time>2012-08-20T08:42:57Z</time>
      </trkpt>
      <trkpt lat="40.038328" lon="-0.727166">
        <ele>964.0</ele>
        <time>2012-08-20T08:43:04Z</time>
      </trkpt>
      <trkpt lat="40.038152" lon="-0.726625">
        <ele>964.0</ele>
        <time>2012-08-20T08:43:13Z</time>
      </trkpt>
      <trkpt lat="40.038000" lon="-0.726132">
        <ele>964.0</ele>
        <time>2012-08-20T08:43:21Z</time>
      </trkpt>
      <trkpt lat="40.037821" lon="-0.725579">
        <ele>964.0</ele>
        <time>2012-08-20T08:43:30Z</time>
      </trkpt>
      <trkpt lat="40.037667" lon="-0.725087">
        <ele>964.0</ele>
        <time>2012-08-20T08:43:38Z</time>
      </trkpt>
      <trkpt lat="40.037530" lon="-0.724662">
        <ele>964.0</ele>
        <time>2012-08-20T08:43:45Z</time>
      </trkpt>
      <trkpt lat="40.037377" lon="-0.724177">
        <ele>964.0</ele>
        <time>2012-08-20T08:43:53Z</time>
      </trkpt>
      <trkpt lat="40.037241" lon="-0.723757">
        <ele>964.0</ele>
        <time>2012-08-20T08:44:00Z</time>
      </trkpt>
      <trkpt lat="40.037069" lon="-0.723224">
        <ele>964.0</ele>
        <time>2012-08-20T08:44:09Z</time>
      </trkpt>
      <trkpt lat="40.036957" lon="-0.722855">
        <ele>964.4</ele>
        <time>2012-08-20T08:44:15Z</time>
      </trkpt>
      <trkpt lat="40.036939" lon="-0.722794">
        <ele>964.8</ele>
        <time>2012-08-20T08:44:16Z</time>
      </trkpt>
      <trkpt lat="40.036920" lon="-0.722733">
        <ele>965.2</ele>
        <time>2012-08-20T08:44:17Z</time>
      </trkpt>
      <trkpt lat="40.036902" lon="-0.722672">
        <ele>965.6</ele>
        <time>2012-08-20T08:44:18Z</time>
      </trkpt>
      <trkpt lat="40.036880" lon="-0.722607">
        <ele>966.0</ele>
        <time>2012-08-20T08:44:19Z</time>
      </trkpt>
      <trkpt lat="40.036730" lon="-0.722127">
        <ele>966.0</ele>
        <time>2012-08-20T08:44:27Z</time>
      </trkpt>
      <trkpt lat="40.036532" lon="-0.721525">
        <ele>966.0</ele>
        <time>2012-08-20T08:44:37Z</time>
      </trkpt>
      <trkpt lat="40.036374" lon="-0.721047">
        <ele>966.0</ele>
        <time>2012-08-20T08:44:45Z</time>
      </trkpt>
      <trkpt lat="40.036232" lon="-0.720554">
        <ele>966.0</ele>
        <time>2012-08-20T08:44:53Z</time>
      </trkpt>
      <trkpt lat="40.036055" lon="-0.719997">
        <ele>966.0</ele>
        <time>2012-08-20T08:45:02Z</time>
      </trkpt>
      <trkpt lat="40.035825" lon="-0.719471">
        <ele>966.0</ele>
        <time>2012-08-20T08:45:11Z</time>
      </trkpt>
      <trkpt lat="40.035561" lon="-0.719062">
        <ele>966.0</ele>
        <time>2012-08-20T08:45:19Z</time>
      </trkpt>
      <trkpt lat="40.035276" lon="-0.718769">
        <ele>966.0</ele>
        <time>2012-08-20T08:45:26Z</time>
      </trkpt>
      <trkpt lat="40.034981" lon="-0.718536">
        <ele>966.0</ele>
        <time>2012-08-20T08:45:33Z</time>
      </trkpt>
      <trkpt lat="40.034658" lon="-0.718360">
        <ele>966.0</ele>
        <time>2012-08-20T08:45:40Z</time>
      </trkpt>
      <trkpt lat="40.034314" lon="-0.718260">
        <ele>966.0</ele>
        <time>2012-08-20T08:45:47Z</time>
      </trkpt>
      <trkpt lat="40.033916" lon="-0.718231">
        <ele>966.0</ele>
        <time>2012-08-20T08:45:55Z</time>
      </trkpt>
      <trkpt lat="40.033563" lon="-0.718287">
        <ele>966.0</ele>
        <time>2012-08-20T08:46:02Z</time>
      </trkpt>
      <trkpt lat="40.033151" lon="-0.718387">
        <ele>966.0</ele>
        <time>2012-08-20T08:46:10Z</time>
      </trkpt>
      <trkpt lat="40.032683" lon="-0.718498">
        <ele>966.0</ele>
        <time>2012-08-20T08:46:19Z</time>
      </trkpt>
      <trkpt lat="40.032208" lon="-0.718618">
        <ele>966.0</ele>
        <time>2012-08-20T08:46:28Z</time>
      </trkpt>
      <trkpt lat="40.031834" lon="-0.718771">
        <ele>966.0</ele>
        <time>2012-08-20T08:46:35Z</time>
      </trkpt>
      <trkpt lat="40.031432" lon="-0.719018">
        <ele>966.0</ele>
        <time>2012-08-20T08:46:43Z</time>
      </trkpt>
      <trkpt lat="40.031067" lon="-0.719343">
        <ele>966.0</ele>
        <time>2012-08-20T08:46:51Z</time>
      </trkpt>
      <trkpt lat="40.030773" lon="-0.719702">
        <ele>966.0</ele>
        <time>2012-08-20T08:46:58Z</time>
      </trkpt>
      <trkpt lat="40.030521" lon="-0.720118">
        <ele>966.0</ele>
        <time>2012-08-20T08:47:05Z</time>
      </trkpt>
      <trkpt lat="40.030267" lon="-0.720524">
        <ele>966.0</ele>
        <time>2012-08-20T08:47:12Z</time>
      </trkpt>
      <trkpt lat="40.030229" lon="-0.720576">
        <ele>966.0</ele>
        <time>2012-08-20T08:47:13Z</time>
      </trkpt>
      <trkpt lat="40.029926" lon="-0.720988">
        <ele>966.0</ele>
        <time>2012-08-20T08:47:21Z</time>
      </trkpt>
      <trkpt lat="40.029660" lon="-0.721383">
        <ele>966.0</ele>
        <time>2012-08-20T08:47:29Z</time>
      </trkpt>
      <trkpt lat="40.029576" lon="-0.721507">
        <ele>966.0</ele>
        <time>2012-08-20T08:47:32Z</time>
      </trkpt>
      <trkpt lat="40.029524" lon="-0.721583">
        <ele>966.0</ele>
        <time>2012-08-20T08:47:34Z</time>
      </trkpt>
      <trkpt lat="40.029466" lon="-0.721655">
        <ele>966.0</ele>
        <time>2012-08-20T08:47:36Z</time>
      </trkpt>
      <trkpt lat="40.029362" lon="-0.721816">
        <ele>966.0</ele>
        <time>2012-08-20T08:47:40Z</time>
      </trkpt>
      <trkpt lat="40.029180" lon="-0.722086">
        <ele>966.0</ele>
        <time>2012-08-20T08:47:46Z</time>
      </trkpt>
      <trkpt lat="40.028908" lon="-0.722469">
        <ele>966.0</ele>
        <time>2012-08-20T08:47:54Z</time>
      </trkpt>
      <trkpt lat="40.028591" lon="-0.722827">
        <ele>966.0</ele>
        <time>2012-08-20T08:48:02Z</time>
      </trkpt>
      <trkpt lat="40.028219" lon="-0.723109">
        <ele>966.0</ele>
        <time>2012-08-20T08:48:10Z</time>
      </trkpt>
      <trkpt lat="40.027813" lon="-0.723299">
        <ele>966.0</ele>
        <time>2012-08-20T08:48:18Z</time>
      </trkpt>
      <trkpt lat="40.027489" lon="-0.723364">
        <ele>966.0</ele>
        <time>2012-08-20T08:48:24Z</time>
      </trkpt>
      <trkpt lat="40.027110" lon="-0.723367">
        <ele>966.0</ele>
        <time>2012-08-20T08:48:31Z</time>
      </trkpt>
      <trkpt lat="40.026733" lon="-0.723276">
        <ele>966.0</ele>
        <time>2012-08-20T08:48:38Z</time>
      </trkpt>
      <trkpt lat="40.026386" lon="-0.723104">
        <ele>966.0</ele>
        <time>2012-08-20T08:48:45Z</time>
      </trkpt>
      <trkpt lat="40.026010" lon="-0.722829">
        <ele>966.0</ele>
        <time>2012-08-20T08:48:53Z</time>
      </trkpt>
      <trkpt lat="40.025717" lon="-0.722519">
        <ele>966.0</ele>
        <time>2012-08-20T08:49:00Z</time>
      </trkpt>
      <trkpt lat="40.025453" lon="-0.722152">
        <ele>966.0</ele>
        <time>2012-08-20T08:49:07Z</time>
      </trkpt>
      <trkpt lat="40.025392" lon="-0.722034">
        <ele>966.0</ele>
        <time>2012-08-20T08:49:09Z</time>
      </trkpt>
      <trkpt lat="40.025311" lon="-0.721855">
        <ele>966.0</ele>
        <time>2012-08-20T08:49:12Z</time>
      </trkpt>
      <trkpt lat="40.025183" lon="-0.721476">
        <ele>966.0</ele>
        <time>2012-08-20T08:49:18Z</time>
      </trkpt>
      <trkpt lat="40.025078" lon="-0.720999">
        <ele>966.0</ele>
        <time>2012-08-20T08:49:25Z</time>
      </trkpt>
      <trkpt lat="40.024992" lon="-0.720446">
        <ele>966.0</ele>
        <time>2012-08-20T08:49:33Z</time>
      </trkpt>
      <trkpt lat="40.024973" lon="-0.720315">
        <ele>966.4</ele>
        <time>2012-08-20T08:49:35Z</time>
      </trkpt>
      <trkpt lat="40.024960" lon="-0.720254">
        <ele>966.8</ele>
        <time>2012-08-20T08:49:36Z</time>
      </trkpt>
      <trkpt lat="40.024948" lon="-0.720192">
        <ele>967.2</ele>
        <time>2012-08-20T08:49:37Z</time>
      </trkpt>
      <trkpt lat="40.024935" lon="-0.720130">
        <ele>967.6</ele>
        <time>2012-08-20T08:49:38Z</time>
      </trkpt>
      <trkpt lat="40.024919" lon="-0.720071">
        <ele>968.0</ele>
        <time>2012-08-20T08:49:39Z</time>
      </trkpt>
      <trkpt lat="40.024909" lon="-0.720010">
        <ele>968.0</ele>
        <time>2012-08-20T08:49:40Z</time>
      </trkpt>
      <trkpt lat="40.024847" lon="-0.719652">
        <ele>968.0</ele>
        <time>2012-08-20T08:49:45Z</time>
      </trkpt>
      <trkpt lat="40.024768" lon="-0.719210">
        <ele>968.0</ele>
        <time>2012-08-20T08:49:50Z</time>
      </trkpt>
      <trkpt lat="40.024682" lon="-0.718659">
        <ele>968.0</ele>
        <time>2012-08-20T08:49:56Z</time>
      </trkpt>
      <trkpt lat="40.024599" lon="-0.718061">
        <ele>968.0</ele>
        <time>2012-08-20T08:50:04Z</time>
      </trkpt>
      <trkpt lat="40.024509" lon="-0.717488">
        <ele>968.0</ele>
        <time>2012-08-20T08:50:11Z</time>
      </trkpt>
      <trkpt lat="40.024476" lon="-0.717257">
        <ele>968.0</ele>
        <time>2012-08-20T08:50:14Z</time>
      </trkpt>
      <trkpt lat="40.024449" lon="-0.717029">
        <ele>968.0</ele>
        <time>2012-08-20T08:50:17Z</time>
      </trkpt>
      <trkpt lat="40.024345" lon="-0.716436">
        <ele>968.0</ele>
        <time>2012-08-20T08:50:25Z</time>
      </trkpt>
      <trkpt lat="40.024309" lon="-0.716121">
        <ele>968.0</ele>
        <time>2012-08-20T08:50:30Z</time>
      </trkpt>
      <trkpt lat="40.024311" lon="-0.716013">
        <ele>968.0</ele>
        <time>2012-08-20T08:50:34Z</time>
      </trkpt>
      <trkpt lat="40.024316" lon="-0.716012">
        <ele>968.0</ele>
        <time>2012-08-20T08:50:39Z</time>
      </trkpt>
      <trkpt lat="40.024316" lon="-0.716012">
        <ele>968.0</ele>
        <time>2012-08-20T08:50:40Z</time>
      </trkpt>
      <trkpt lat="40.024308" lon="-0.715927">
        <ele>968.0</ele>
        <time>2012-08-20T08:51:56Z</time>
      </trkpt>
      <trkpt lat="40.024297" lon="-0.715881">
        <ele>968.0</ele>
        <time>2012-08-20T08:51:57Z</time>
      </trkpt>
      <trkpt lat="40.024222" lon="-0.715592">
        <ele>968.0</ele>
        <time>2012-08-20T08:52:02Z</time>
      </trkpt>
      <trkpt lat="40.024091" lon="-0.715068">
        <ele>968.0</ele>
        <time>2012-08-20T08:52:10Z</time>
      </trkpt>
      <trkpt lat="40.024069" lon="-0.714583">
        <ele>968.0</ele>
        <time>2012-08-20T08:52:17Z</time>
      </trkpt>
      <trkpt lat="40.024108" lon="-0.714043">
        <ele>968.0</ele>
        <time>2012-08-20T08:52:25Z</time>
      </trkpt>
      <trkpt lat="40.024220" lon="-0.713517">
        <ele>968.0</ele>
        <time>2012-08-20T08:52:33Z</time>
      </trkpt>
      <trkpt lat="40.024391" lon="-0.712902">
        <ele>968.0</ele>
        <time>2012-08-20T08:52:42Z</time>
      </trkpt>
      <trkpt lat="40.024451" lon="-0.712696">
        <ele>968.4</ele>
        <time>2012-08-20T08:52:45Z</time>
      </trkpt>
      <trkpt lat="40.024472" lon="-0.712624">
        <ele>968.8</ele>
        <time>2012-08-20T08:52:46Z</time>
      </trkpt>
      <trkpt lat="40.024489" lon="-0.712552">
        <ele>969.4</ele>
        <time>2012-08-20T08:52:47Z</time>
      </trkpt>
      <trkpt lat="40.024507" lon="-0.712477">
        <ele>969.8</ele>
        <time>2012-08-20T08:52:48Z</time>
      </trkpt>
      <trkpt lat="40.024526" lon="-0.712405">
        <ele>970.2</ele>
        <time>2012-08-20T08:52:49Z</time>
      </trkpt>
      <trkpt lat="40.024546" lon="-0.712330">
        <ele>970.2</ele>
        <time>2012-08-20T08:52:50Z</time>
      </trkpt>
      <trkpt lat="40.024733" lon="-0.711684">
        <ele>970.2</ele>
        <time>2012-08-20T08:52:59Z</time>
      </trkpt>
      <trkpt lat="40.024913" lon="-0.711034">
        <ele>970.2</ele>
        <time>2012-08-20T08:53:08Z</time>
      </trkpt>
      <trkpt lat="40.024957" lon="-0.710895">
        <ele>970.2</ele>
        <time>2012-08-20T08:53:10Z</time>
      </trkpt>
      <trkpt lat="40.025123" lon="-0.710305">
        <ele>970.2</ele>
        <time>2012-08-20T08:53:18Z</time>
      </trkpt>
      <trkpt lat="40.025265" lon="-0.709809">
        <ele>970.2</ele>
        <time>2012-08-20T08:53:25Z</time>
      </trkpt>
      <trkpt lat="40.025410" lon="-0.709213">
        <ele>970.2</ele>
        <time>2012-08-20T08:53:33Z</time>
      </trkpt>
      <trkpt lat="40.025458" lon="-0.708682">
        <ele>970.2</ele>
        <time>2012-08-20T08:53:40Z</time>
      </trkpt>
      <trkpt lat="40.025457" lon="-0.708230">
        <ele>970.2</ele>
        <time>2012-08-20T08:53:46Z</time>
      </trkpt>
      <trkpt lat="40.025430" lon="-0.707950">
        <ele>970.6</ele>
        <time>2012-08-20T08:53:50Z</time>
      </trkpt>
      <trkpt lat="40.025421" lon="-0.707883">
        <ele>971.0</ele>
        <time>2012-08-20T08:53:51Z</time>
      </trkpt>
      <trkpt lat="40.025409" lon="-0.707815">
        <ele>971.4</ele>
        <time>2012-08-20T08:53:52Z</time>
      </trkpt>
      <trkpt lat="40.025397" lon="-0.707745">
        <ele>971.8</ele>
        <time>2012-08-20T08:53:53Z</time>
      </trkpt>
      <trkpt lat="40.025386" lon="-0.707678">
        <ele>972.2</ele>
        <time>2012-08-20T08:53:54Z</time>
      </trkpt>
      <trkpt lat="40.025373" lon="-0.707611">
        <ele>972.2</ele>
        <time>2012-08-20T08:53:55Z</time>
      </trkpt>
      <trkpt lat="40.025256" lon="-0.707161">
        <ele>972.2</ele>
        <time>2012-08-20T08:54:02Z</time>
      </trkpt>
      <trkpt lat="40.025194" lon="-0.706976">
        <ele>972.2</ele>
        <time>2012-08-20T08:54:05Z</time>
      </trkpt>
      <trkpt lat="40.025104" lon="-0.706742">
        <ele>972.2</ele>
        <time>2012-08-20T08:54:09Z</time>
      </trkpt>
      <trkpt lat="40.024907" lon="-0.706359">
        <ele>972.2</ele>
        <time>2012-08-20T08:54:16Z</time>
      </trkpt>
      <trkpt lat="40.024735" lon="-0.706030">
        <ele>972.2</ele>
        <time>2012-08-20T08:54:23Z</time>
      </trkpt>
      <trkpt lat="40.024557" lon="-0.705714">
        <ele>972.2</ele>
        <time>2012-08-20T08:54:30Z</time>
      </trkpt>
      <trkpt lat="40.024359" lon="-0.705373">
        <ele>972.2</ele>
        <time>2012-08-20T08:54:38Z</time>
      </trkpt>
      <trkpt lat="40.024189" lon="-0.705053">
        <ele>972.2</ele>
        <time>2012-08-20T08:54:45Z</time>
      </trkpt>
      <trkpt lat="40.024096" lon="-0.704875">
        <ele>972.2</ele>
        <time>2012-08-20T08:54:49Z</time>
      </trkpt>
      <trkpt lat="40.024031" lon="-0.704751">
        <ele>972.2</ele>
        <time>2012-08-20T08:54:52Z</time>
      </trkpt>
      <trkpt lat="40.023842" lon="-0.704418">
        <ele>972.2</ele>
        <time>2012-08-20T08:55:01Z</time>
      </trkpt>
      <trkpt lat="40.023648" lon="-0.704070">
        <ele>972.2</ele>
        <time>2012-08-20T08:55:10Z</time>
      </trkpt>
      <trkpt lat="40.023463" lon="-0.703727">
        <ele>972.2</ele>
        <time>2012-08-20T08:55:18Z</time>
      </trkpt>
      <trkpt lat="40.023279" lon="-0.703385">
        <ele>972.2</ele>
        <time>2012-08-20T08:55:25Z</time>
      </trkpt>
      <trkpt lat="40.023229" lon="-0.703299">
        <ele>972.2</ele>
        <time>2012-08-20T08:55:27Z</time>
      </trkpt>
      <trkpt lat="40.023098" lon="-0.703067">
        <ele>972.2</ele>
        <time>2012-08-20T08:55:32Z</time>
      </trkpt>
      <trkpt lat="40.022958" lon="-0.702838">
        <ele>972.6</ele>
        <time>2012-08-20T08:55:37Z</time>
      </trkpt>
      <trkpt lat="40.022928" lon="-0.702792">
        <ele>973.0</ele>
        <time>2012-08-20T08:55:38Z</time>
      </trkpt>
      <trkpt lat="40.022896" lon="-0.702746">
        <ele>973.4</ele>
        <time>2012-08-20T08:55:39Z</time>
      </trkpt>
      <trkpt lat="40.022865" lon="-0.702701">
        <ele>973.8</ele>
        <time>2012-08-20T08:55:40Z</time>
      </trkpt>
      <trkpt lat="40.022832" lon="-0.702655">
        <ele>974.2</ele>
        <time>2012-08-20T08:55:41Z</time>
      </trkpt>
      <trkpt lat="40.022648" lon="-0.702409">
        <ele>974.2</ele>
        <time>2012-08-20T08:55:47Z</time>
      </trkpt>
      <trkpt lat="40.022489" lon="-0.702222">
        <ele>974.2</ele>
        <time>2012-08-20T08:55:52Z</time>
      </trkpt>
      <trkpt lat="40.022456" lon="-0.702187">
        <ele>974.2</ele>
        <time>2012-08-20T08:55:53Z</time>
      </trkpt>
      <trkpt lat="40.022109" lon="-0.701828">
        <ele>974.2</ele>
        <time>2012-08-20T08:56:03Z</time>
      </trkpt>
      <trkpt lat="40.021815" lon="-0.701549">
        <ele>974.2</ele>
        <time>2012-08-20T08:56:11Z</time>
      </trkpt>
      <trkpt lat="40.021523" lon="-0.701290">
        <ele>974.2</ele>
        <time>2012-08-20T08:56:19Z</time>
      </trkpt>
      <trkpt lat="40.021229" lon="-0.701064">
        <ele>974.2</ele>
        <time>2012-08-20T08:56:27Z</time>
      </trkpt>
      <trkpt lat="40.021074" lon="-0.700956">
        <ele>974.2</ele>
        <time>2012-08-20T08:56:31Z</time>
      </trkpt>
      <trkpt lat="40.020964" lon="-0.700890">
        <ele>974.2</ele>
        <time>2012-08-20T08:56:34Z</time>
      </trkpt>
      <trkpt lat="40.020668" lon="-0.700725">
        <ele>974.2</ele>
        <time>2012-08-20T08:56:42Z</time>
      </trkpt>
      <trkpt lat="40.020329" lon="-0.700575">
        <ele>974.2</ele>
        <time>2012-08-20T08:56:51Z</time>
      </trkpt>
      <trkpt lat="40.020019" lon="-0.700431">
        <ele>974.2</ele>
        <time>2012-08-20T08:56:59Z</time>
      </trkpt>
      <trkpt lat="40.019658" lon="-0.700269">
        <ele>974.2</ele>
        <time>2012-08-20T08:57:08Z</time>
      </trkpt>
      <trkpt lat="40.019417" lon="-0.700159">
        <ele>974.2</ele>
        <time>2012-08-20T08:57:14Z</time>
      </trkpt>
      <trkpt lat="40.019104" lon="-0.700023">
        <ele>974.2</ele>
        <time>2012-08-20T08:57:22Z</time>
      </trkpt>
      <trkpt lat="40.019064" lon="-0.700003">
        <ele>974.6</ele>
        <time>2012-08-20T08:57:23Z</time>
      </trkpt>
      <trkpt lat="40.019026" lon="-0.699981">
        <ele>975.0</ele>
        <time>2012-08-20T08:57:24Z</time>
      </trkpt>
      <trkpt lat="40.018987" lon="-0.699964">
        <ele>975.4</ele>
        <time>2012-08-20T08:57:25Z</time>
      </trkpt>
      <trkpt lat="40.018949" lon="-0.699948">
        <ele>975.8</ele>
        <time>2012-08-20T08:57:26Z</time>
      </trkpt>
      <trkpt lat="40.018912" lon="-0.699928">
        <ele>976.2</ele>
        <time>2012-08-20T08:57:27Z</time>
      </trkpt>
      <trkpt lat="40.018842" lon="-0.699893">
        <ele>976.2</ele>
        <time>2012-08-20T08:57:29Z</time>
      </trkpt>
      <trkpt lat="40.018590" lon="-0.699772">
        <ele>976.2</ele>
        <time>2012-08-20T08:57:36Z</time>
      </trkpt>
      <trkpt lat="40.018242" lon="-0.699592">
        <ele>976.2</ele>
        <time>2012-08-20T08:57:46Z</time>
      </trkpt>
      <trkpt lat="40.017961" lon="-0.699467">
        <ele>976.6</ele>
        <time>2012-08-20T08:57:54Z</time>
      </trkpt>
      <trkpt lat="40.017929" lon="-0.699448">
        <ele>977.0</ele>
        <time>2012-08-20T08:57:55Z</time>
      </trkpt>
      <trkpt lat="40.017898" lon="-0.699432">
        <ele>977.4</ele>
        <time>2012-08-20T08:57:56Z</time>
      </trkpt>
      <trkpt lat="40.017863" lon="-0.699412">
        <ele>977.8</ele>
        <time>2012-08-20T08:57:57Z</time>
      </trkpt>
      <trkpt lat="40.017829" lon="-0.699383">
        <ele>978.2</ele>
        <time>2012-08-20T08:57:58Z</time>
      </trkpt>
      <trkpt lat="40.017717" lon="-0.699304">
        <ele>978.2</ele>
        <time>2012-08-20T08:58:01Z</time>
      </trkpt>
      <trkpt lat="40.017421" lon="-0.699128">
        <ele>978.2</ele>
        <time>2012-08-20T08:58:09Z</time>
      </trkpt>
      <trkpt lat="40.017133" lon="-0.698959">
        <ele>978.2</ele>
        <time>2012-08-20T08:58:17Z</time>
      </trkpt>
      <trkpt lat="40.016981" lon="-0.698878">
        <ele>978.2</ele>
        <time>2012-08-20T08:58:21Z</time>
      </trkpt>
      <trkpt lat="40.016946" lon="-0.698857">
        <ele>978.2</ele>
        <time>2012-08-20T08:58:22Z</time>
      </trkpt>
      <trkpt lat="40.016908" lon="-0.698837">
        <ele>978.2</ele>
        <time>2012-08-20T08:58:23Z</time>
      </trkpt>
      <trkpt lat="40.016584" lon="-0.698660">
        <ele>978.2</ele>
        <time>2012-08-20T08:58:31Z</time>
      </trkpt>
      <trkpt lat="40.016232" lon="-0.698469">
        <ele>978.2</ele>
        <time>2012-08-20T08:58:40Z</time>
      </trkpt>
      <trkpt lat="40.016196" lon="-0.698455">
        <ele>978.2</ele>
        <time>2012-08-20T08:58:41Z</time>
      </trkpt>
      <trkpt lat="40.016009" lon="-0.698349">
        <ele>978.2</ele>
        <time>2012-08-20T08:58:46Z</time>
      </trkpt>
      <trkpt lat="40.015809" lon="-0.698234">
        <ele>978.2</ele>
        <time>2012-08-20T08:58:51Z</time>
      </trkpt>
      <trkpt lat="40.015686" lon="-0.698169">
        <ele>978.2</ele>
        <time>2012-08-20T08:58:54Z</time>
      </trkpt>
      <trkpt lat="40.015387" lon="-0.698002">
        <ele>978.2</ele>
        <time>2012-08-20T08:59:01Z</time>
      </trkpt>
      <trkpt lat="40.015099" lon="-0.697862">
        <ele>978.2</ele>
        <time>2012-08-20T08:59:08Z</time>
      </trkpt>
      <trkpt lat="40.014779" lon="-0.697678">
        <ele>978.2</ele>
        <time>2012-08-20T08:59:15Z</time>
      </trkpt>
      <trkpt lat="40.014588" lon="-0.697566">
        <ele>978.2</ele>
        <time>2012-08-20T08:59:19Z</time>
      </trkpt>
      <trkpt lat="40.014443" lon="-0.697496">
        <ele>978.2</ele>
        <time>2012-08-20T08:59:22Z</time>
      </trkpt>
      <trkpt lat="40.013994" lon="-0.697295">
        <ele>978.2</ele>
        <time>2012-08-20T08:59:31Z</time>
      </trkpt>
      <trkpt lat="40.013585" lon="-0.697156">
        <ele>978.2</ele>
        <time>2012-08-20T08:59:39Z</time>
      </trkpt>
      <trkpt lat="40.013178" lon="-0.697038">
        <ele>978.2</ele>
        <time>2012-08-20T08:59:47Z</time>
      </trkpt>
      <trkpt lat="40.012930" lon="-0.696956">
        <ele>978.2</ele>
        <time>2012-08-20T08:59:52Z</time>
      </trkpt>
      <trkpt lat="40.012829" lon="-0.696929">
        <ele>978.2</ele>
        <time>2012-08-20T08:59:54Z</time>
      </trkpt>
      <trkpt lat="40.012560" lon="-0.696857">
        <ele>978.2</ele>
        <time>2012-08-20T09:00:00Z</time>
      </trkpt>
      <trkpt lat="40.012380" lon="-0.696821">
        <ele>978.6</ele>
        <time>2012-08-20T09:00:04Z</time>
      </trkpt>
      <trkpt lat="40.012334" lon="-0.696813">
        <ele>979.0</ele>
        <time>2012-08-20T09:00:05Z</time>
      </trkpt>
      <trkpt lat="40.012287" lon="-0.696807">
        <ele>979.4</ele>
        <time>2012-08-20T09:00:06Z</time>
      </trkpt>
      <trkpt lat="40.012246" lon="-0.696804">
        <ele>979.8</ele>
        <time>2012-08-20T09:00:07Z</time>
      </trkpt>
      <trkpt lat="40.012200" lon="-0.696795">
        <ele>980.2</ele>
        <time>2012-08-20T09:00:08Z</time>
      </trkpt>
      <trkpt lat="40.012035" lon="-0.696791">
        <ele>980.2</ele>
        <time>2012-08-20T09:00:12Z</time>
      </trkpt>
      <trkpt lat="40.011760" lon="-0.696758">
        <ele>980.2</ele>
        <time>2012-08-20T09:00:19Z</time>
      </trkpt>
      <trkpt lat="40.011604" lon="-0.696749">
        <ele>980.2</ele>
        <time>2012-08-20T09:00:23Z</time>
      </trkpt>
      <trkpt lat="40.011486" lon="-0.696743">
        <ele>980.2</ele>
        <time>2012-08-20T09:00:26Z</time>
      </trkpt>
      <trkpt lat="40.011412" lon="-0.696741">
        <ele>980.2</ele>
        <time>2012-08-20T09:00:28Z</time>
      </trkpt>
      <trkpt lat="40.011273" lon="-0.696732">
        <ele>980.2</ele>
        <time>2012-08-20T09:00:32Z</time>
      </trkpt>
      <trkpt lat="40.011010" lon="-0.696727">
        <ele>980.2</ele>
        <time>2012-08-20T09:00:40Z</time>
      </trkpt>
      <trkpt lat="40.010728" lon="-0.696719">
        <ele>980.2</ele>
        <time>2012-08-20T09:00:48Z</time>
      </trkpt>
      <trkpt lat="40.010433" lon="-0.696708">
        <ele>980.2</ele>
        <time>2012-08-20T09:00:55Z</time>
      </trkpt>
      <trkpt lat="40.009987" lon="-0.696687">
        <ele>980.2</ele>
        <time>2012-08-20T09:01:05Z</time>
      </trkpt>
      <trkpt lat="40.009714" lon="-0.696674">
        <ele>980.2</ele>
        <time>2012-08-20T09:01:11Z</time>
      </trkpt>
      <trkpt lat="40.009292" lon="-0.696656">
        <ele>980.2</ele>
        <time>2012-08-20T09:01:20Z</time>
      </trkpt>
      <trkpt lat="40.009245" lon="-0.696655">
        <ele>980.2</ele>
        <time>2012-08-20T09:01:21Z</time>
      </trkpt>
      <trkpt lat="40.009108" lon="-0.696662">
        <ele>980.2</ele>
        <time>2012-08-20T09:01:24Z</time>
      </trkpt>
      <trkpt lat="40.008970" lon="-0.696651">
        <ele>980.2</ele>
        <time>2012-08-20T09:01:27Z</time>
      </trkpt>
      <trkpt lat="40.008644" lon="-0.696637">
        <ele>980.2</ele>
        <time>2012-08-20T09:01:34Z</time>
      </trkpt>
      <trkpt lat="40.008317" lon="-0.696612">
        <ele>980.2</ele>
        <time>2012-08-20T09:01:41Z</time>
      </trkpt>
      <trkpt lat="40.008271" lon="-0.696610">
        <ele>980.2</ele>
        <time>2012-08-20T09:01:42Z</time>
      </trkpt>
      <trkpt lat="40.007846" lon="-0.696606">
        <ele>980.2</ele>
        <time>2012-08-20T09:01:51Z</time>
      </trkpt>
      <trkpt lat="40.007518" lon="-0.696595">
        <ele>980.2</ele>
        <time>2012-08-20T09:01:58Z</time>
      </trkpt>
      <trkpt lat="40.007280" lon="-0.696580">
        <ele>980.2</ele>
        <time>2012-08-20T09:02:03Z</time>
      </trkpt>
      <trkpt lat="40.007144" lon="-0.696572">
        <ele>980.2</ele>
        <time>2012-08-20T09:02:06Z</time>
      </trkpt>
      <trkpt lat="40.006863" lon="-0.696562">
        <ele>980.2</ele>
        <time>2012-08-20T09:02:12Z</time>
      </trkpt>
      <trkpt lat="40.006443" lon="-0.696535">
        <ele>980.2</ele>
        <time>2012-08-20T09:02:21Z</time>
      </trkpt>
      <trkpt lat="40.006051" lon="-0.696525">
        <ele>980.2</ele>
        <time>2012-08-20T09:02:29Z</time>
      </trkpt>
      <trkpt lat="40.006000" lon="-0.696523">
        <ele>979.8</ele>
        <time>2012-08-20T09:02:30Z</time>
      </trkpt>
      <trkpt lat="40.005950" lon="-0.696523">
        <ele>979.4</ele>
        <time>2012-08-20T09:02:31Z</time>
      </trkpt>
      <trkpt lat="40.005896" lon="-0.696521">
        <ele>979.0</ele>
        <time>2012-08-20T09:02:32Z</time>
      </trkpt>
      <trkpt lat="40.005847" lon="-0.696521">
        <ele>978.6</ele>
        <time>2012-08-20T09:02:33Z</time>
      </trkpt>
      <trkpt lat="40.005796" lon="-0.696520">
        <ele>978.2</ele>
        <time>2012-08-20T09:02:34Z</time>
      </trkpt>
      <trkpt lat="40.005594" lon="-0.696517">
        <ele>978.2</ele>
        <time>2012-08-20T09:02:38Z</time>
      </trkpt>
      <trkpt lat="40.005157" lon="-0.696506">
        <ele>977.8</ele>
        <time>2012-08-20T09:02:46Z</time>
      </trkpt>
      <trkpt lat="40.005103" lon="-0.696504">
        <ele>977.4</ele>
        <time>2012-08-20T09:02:47Z</time>
      </trkpt>
      <trkpt lat="40.005048" lon="-0.696503">
        <ele>976.8</ele>
        <time>2012-08-20T09:02:48Z</time>
      </trkpt>
      <trkpt lat="40.004992" lon="-0.696497">
        <ele>976.4</ele>
        <time>2012-08-20T09:02:49Z</time>
      </trkpt>
      <trkpt lat="40.004937" lon="-0.696495">
        <ele>976.0</ele>
        <time>2012-08-20T09:02:50Z</time>
      </trkpt>
      <trkpt lat="40.004714" lon="-0.696476">
        <ele>976.6</ele>
        <time>2012-08-20T09:02:54Z</time>
      </trkpt>
      <trkpt lat="40.004657" lon="-0.696476">
        <ele>977.2</ele>
        <time>2012-08-20T09:02:55Z</time>
      </trkpt>
      <trkpt lat="40.004603" lon="-0.696475">
        <ele>977.0</ele>
        <time>2012-08-20T09:02:56Z</time>
      </trkpt>
      <trkpt lat="40.004548" lon="-0.696472">
        <ele>976.6</ele>
        <time>2012-08-20T09:02:57Z</time>
      </trkpt>
      <trkpt lat="40.004494" lon="-0.696470">
        <ele>976.4</ele>
        <time>2012-08-20T09:02:58Z</time>
      </trkpt>
      <trkpt lat="40.004436" lon="-0.696468">
        <ele>976.8</ele>
        <time>2012-08-20T09:02:59Z</time>
      </trkpt>
      <trkpt lat="40.004379" lon="-0.696467">
        <ele>977.0</ele>
        <time>2012-08-20T09:03:00Z</time>
      </trkpt>
      <trkpt lat="40.004323" lon="-0.696469">
        <ele>977.4</ele>
        <time>2012-08-20T09:03:01Z</time>
      </trkpt>
      <trkpt lat="40.004266" lon="-0.696468">
        <ele>977.6</ele>
        <time>2012-08-20T09:03:02Z</time>
      </trkpt>
      <trkpt lat="40.004209" lon="-0.696468">
        <ele>978.0</ele>
        <time>2012-08-20T09:03:03Z</time>
      </trkpt>
      <trkpt lat="40.004094" lon="-0.696463">
        <ele>978.0</ele>
        <time>2012-08-20T09:03:05Z</time>
      </trkpt>
      <trkpt lat="40.003642" lon="-0.696448">
        <ele>978.0</ele>
        <time>2012-08-20T09:03:13Z</time>
      </trkpt>
      <trkpt lat="40.003183" lon="-0.696429">
        <ele>978.0</ele>
        <time>2012-08-20T09:03:21Z</time>
      </trkpt>
      <trkpt lat="40.002664" lon="-0.696413">
        <ele>978.0</ele>
        <time>2012-08-20T09:03:30Z</time>
      </trkpt>
      <trkpt lat="40.002135" lon="-0.696391">
        <ele>978.0</ele>
        <time>2012-08-20T09:03:39Z</time>
      </trkpt>
      <trkpt lat="40.001960" lon="-0.696386">
        <ele>977.6</ele>
        <time>2012-08-20T09:03:42Z</time>
      </trkpt>
      <trkpt lat="40.001903" lon="-0.696383">
        <ele>977.2</ele>
        <time>2012-08-20T09:03:43Z</time>
      </trkpt>
      <trkpt lat="40.001844" lon="-0.696382">
        <ele>976.8</ele>
        <time>2012-08-20T09:03:44Z</time>
      </trkpt>
      <trkpt lat="40.001788" lon="-0.696380">
        <ele>976.4</ele>
        <time>2012-08-20T09:03:45Z</time>
      </trkpt>
      <trkpt lat="40.001731" lon="-0.696377">
        <ele>976.0</ele>
        <time>2012-08-20T09:03:46Z</time>
      </trkpt>
      <trkpt lat="40.001670" lon="-0.696376">
        <ele>976.0</ele>
        <time>2012-08-20T09:03:47Z</time>
      </trkpt>
      <trkpt lat="40.001125" lon="-0.696354">
        <ele>976.0</ele>
        <time>2012-08-20T09:03:57Z</time>
      </trkpt>
      <trkpt lat="40.000680" lon="-0.696335">
        <ele>976.0</ele>
        <time>2012-08-20T09:04:05Z</time>
      </trkpt>
      <trkpt lat="40.000110" lon="-0.696311">
        <ele>976.0</ele>
        <time>2012-08-20T09:04:15Z</time>
      </trkpt>
      <trkpt lat="39.999536" lon="-0.696290">
        <ele>976.0</ele>
        <time>2012-08-20T09:04:25Z</time>
      </trkpt>
      <trkpt lat="39.999301" lon="-0.696284">
        <ele>975.6</ele>
        <time>2012-08-20T09:04:29Z</time>
      </trkpt>
      <trkpt lat="39.999243" lon="-0.696281">
        <ele>975.2</ele>
        <time>2012-08-20T09:04:30Z</time>
      </trkpt>
      <trkpt lat="39.999184" lon="-0.696282">
        <ele>974.8</ele>
        <time>2012-08-20T09:04:31Z</time>
      </trkpt>
      <trkpt lat="39.999128" lon="-0.696278">
        <ele>974.4</ele>
        <time>2012-08-20T09:04:32Z</time>
      </trkpt>
      <trkpt lat="39.999069" lon="-0.696274">
        <ele>974.0</ele>
        <time>2012-08-20T09:04:33Z</time>
      </trkpt>
      <trkpt lat="39.998592" lon="-0.696258">
        <ele>974.0</ele>
        <time>2012-08-20T09:04:41Z</time>
      </trkpt>
      <trkpt lat="39.998060" lon="-0.696235">
        <ele>974.0</ele>
        <time>2012-08-20T09:04:50Z</time>
      </trkpt>
      <trkpt lat="39.997570" lon="-0.696221">
        <ele>974.0</ele>
        <time>2012-08-20T09:04:58Z</time>
      </trkpt>
      <trkpt lat="39.997083" lon="-0.696199">
        <ele>974.0</ele>
        <time>2012-08-20T09:05:06Z</time>
      </trkpt>
      <trkpt lat="39.996786" lon="-0.696183">
        <ele>973.4</ele>
        <time>2012-08-20T09:05:11Z</time>
      </trkpt>
      <trkpt lat="39.996724" lon="-0.696180">
        <ele>973.0</ele>
        <time>2012-08-20T09:05:12Z</time>
      </trkpt>
      <trkpt lat="39.996664" lon="-0.696181">
        <ele>972.6</ele>
        <time>2012-08-20T09:05:13Z</time>
      </trkpt>
      <trkpt lat="39.996606" lon="-0.696182">
        <ele>972.2</ele>
        <time>2012-08-20T09:05:14Z</time>
      </trkpt>
      <trkpt lat="39.996543" lon="-0.696184">
        <ele>971.6</ele>
        <time>2012-08-20T09:05:15Z</time>
      </trkpt>
      <trkpt lat="39.996097" lon="-0.696180">
        <ele>971.6</ele>
        <time>2012-08-20T09:05:22Z</time>
      </trkpt>
      <trkpt lat="39.996032" lon="-0.696181">
        <ele>971.2</ele>
        <time>2012-08-20T09:05:23Z</time>
      </trkpt>
      <trkpt lat="39.995969" lon="-0.696178">
        <ele>970.8</ele>
        <time>2012-08-20T09:05:24Z</time>
      </trkpt>
      <trkpt lat="39.995904" lon="-0.696175">
        <ele>970.4</ele>
        <time>2012-08-20T09:05:25Z</time>
      </trkpt>
      <trkpt lat="39.995838" lon="-0.696172">
        <ele>970.0</ele>
        <time>2012-08-20T09:05:26Z</time>
      </trkpt>
      <trkpt lat="39.995768" lon="-0.696169">
        <ele>969.6</ele>
        <time>2012-08-20T09:05:27Z</time>
      </trkpt>
      <trkpt lat="39.995636" lon="-0.696160">
        <ele>969.6</ele>
        <time>2012-08-20T09:05:29Z</time>
      </trkpt>
      <trkpt lat="39.995189" lon="-0.696134">
        <ele>969.6</ele>
        <time>2012-08-20T09:05:36Z</time>
      </trkpt>
      <trkpt lat="39.994700" lon="-0.696110">
        <ele>969.6</ele>
        <time>2012-08-20T09:05:44Z</time>
      </trkpt>
      <trkpt lat="39.994219" lon="-0.696089">
        <ele>969.6</ele>
        <time>2012-08-20T09:05:52Z</time>
      </trkpt>
      <trkpt lat="39.993795" lon="-0.696072">
        <ele>969.6</ele>
        <time>2012-08-20T09:05:59Z</time>
      </trkpt>
      <trkpt lat="39.993737" lon="-0.696067">
        <ele>969.6</ele>
        <time>2012-08-20T09:06:00Z</time>
      </trkpt>
      <trkpt lat="39.993201" lon="-0.696047">
        <ele>969.6</ele>
        <time>2012-08-20T09:06:09Z</time>
      </trkpt>
      <trkpt lat="39.992716" lon="-0.696027">
        <ele>969.2</ele>
        <time>2012-08-20T09:06:17Z</time>
      </trkpt>
      <trkpt lat="39.992657" lon="-0.696027">
        <ele>968.8</ele>
        <time>2012-08-20T09:06:18Z</time>
      </trkpt>
      <trkpt lat="39.992597" lon="-0.696029">
        <ele>968.4</ele>
        <time>2012-08-20T09:06:19Z</time>
      </trkpt>
      <trkpt lat="39.992537" lon="-0.696026">
        <ele>968.0</ele>
        <time>2012-08-20T09:06:20Z</time>
      </trkpt>
      <trkpt lat="39.992479" lon="-0.696027">
        <ele>967.6</ele>
        <time>2012-08-20T09:06:21Z</time>
      </trkpt>
      <trkpt lat="39.992179" lon="-0.696020">
        <ele>967.6</ele>
        <time>2012-08-20T09:06:26Z</time>
      </trkpt>
      <trkpt lat="39.991648" lon="-0.695996">
        <ele>967.6</ele>
        <time>2012-08-20T09:06:35Z</time>
      </trkpt>
      <trkpt lat="39.991189" lon="-0.695974">
        <ele>967.6</ele>
        <time>2012-08-20T09:06:43Z</time>
      </trkpt>
      <trkpt lat="39.990723" lon="-0.695948">
        <ele>967.6</ele>
        <time>2012-08-20T09:06:51Z</time>
      </trkpt>
      <trkpt lat="39.990270" lon="-0.695935">
        <ele>967.6</ele>
        <time>2012-08-20T09:06:59Z</time>
      </trkpt>
      <trkpt lat="39.989801" lon="-0.695916">
        <ele>967.6</ele>
        <time>2012-08-20T09:07:08Z</time>
      </trkpt>
      <trkpt lat="39.989554" lon="-0.695894">
        <ele>967.6</ele>
        <time>2012-08-20T09:07:14Z</time>
      </trkpt>
      <trkpt lat="39.989340" lon="-0.695886">
        <ele>967.6</ele>
        <time>2012-08-20T09:07:21Z</time>
      </trkpt>
      <trkpt lat="39.989311" lon="-0.695881">
        <ele>967.6</ele>
        <time>2012-08-20T09:07:25Z</time>
      </trkpt>
      <trkpt lat="39.989311" lon="-0.695882">
        <ele>967.6</ele>
        <time>2012-08-20T09:07:26Z</time>
      </trkpt>
      <trkpt lat="39.989311" lon="-0.695882">
        <ele>967.6</ele>
        <time>2012-08-20T09:07:27Z</time>
      </trkpt>
      <trkpt lat="39.989286" lon="-0.695863">
        <ele>967.6</ele>
        <time>2012-08-20T09:09:46Z</time>
      </trkpt>
      <trkpt lat="39.989288" lon="-0.695862">
        <ele>967.6</ele>
        <time>2012-08-20T09:09:49Z</time>
      </trkpt>
      <trkpt lat="39.989174" lon="-0.695885">
        <ele>967.6</ele>
        <time>2012-08-20T09:13:50Z</time>
      </trkpt>
      <trkpt lat="39.989150" lon="-0.695888">
        <ele>967.6</ele>
        <time>2012-08-20T09:13:51Z</time>
      </trkpt>
      <trkpt lat="39.988962" lon="-0.695869">
        <ele>967.6</ele>
        <time>2012-08-20T09:13:58Z</time>
      </trkpt>
      <trkpt lat="39.988816" lon="-0.695869">
        <ele>967.6</ele>
        <time>2012-08-20T09:14:04Z</time>
      </trkpt>
      <trkpt lat="39.988643" lon="-0.695859">
        <ele>967.6</ele>
        <time>2012-08-20T09:14:10Z</time>
      </trkpt>
      <trkpt lat="39.988377" lon="-0.695859">
        <ele>967.6</ele>
        <time>2012-08-20T09:14:18Z</time>
      </trkpt>
      <trkpt lat="39.988205" lon="-0.695857">
        <ele>967.6</ele>
        <time>2012-08-20T09:14:22Z</time>
      </trkpt>
      <trkpt lat="39.988094" lon="-0.695847">
        <ele>967.6</ele>
        <time>2012-08-20T09:14:24Z</time>
      </trkpt>
      <trkpt lat="39.987678" lon="-0.695826">
        <ele>967.6</ele>
        <time>2012-08-20T09:14:32Z</time>
      </trkpt>
      <trkpt lat="39.987264" lon="-0.695815">
        <ele>967.6</ele>
        <time>2012-08-20T09:14:40Z</time>
      </trkpt>
      <trkpt lat="39.986895" lon="-0.695804">
        <ele>967.6</ele>
        <time>2012-08-20T09:14:47Z</time>
      </trkpt>
      <trkpt lat="39.986487" lon="-0.695794">
        <ele>967.6</ele>
        <time>2012-08-20T09:14:55Z</time>
      </trkpt>
      <trkpt lat="39.986440" lon="-0.695792">
        <ele>967.6</ele>
        <time>2012-08-20T09:14:56Z</time>
      </trkpt>
      <trkpt lat="39.986101" lon="-0.695782">
        <ele>967.6</ele>
        <time>2012-08-20T09:15:03Z</time>
      </trkpt>
      <trkpt lat="39.985685" lon="-0.695763">
        <ele>967.6</ele>
        <time>2012-08-20T09:15:11Z</time>
      </trkpt>
      <trkpt lat="39.985322" lon="-0.695752">
        <ele>967.6</ele>
        <time>2012-08-20T09:15:18Z</time>
      </trkpt>
      <trkpt lat="39.984910" lon="-0.695737">
        <ele>967.6</ele>
        <time>2012-08-20T09:15:26Z</time>
      </trkpt>
      <trkpt lat="39.984555" lon="-0.695718">
        <ele>967.6</ele>
        <time>2012-08-20T09:15:33Z</time>
      </trkpt>
      <trkpt lat="39.984115" lon="-0.695697">
        <ele>967.6</ele>
        <time>2012-08-20T09:15:42Z</time>
      </trkpt>
      <trkpt lat="39.983825" lon="-0.695681">
        <ele>967.2</ele>
        <time>2012-08-20T09:15:48Z</time>
      </trkpt>
      <trkpt lat="39.983766" lon="-0.695679">
        <ele>966.6</ele>
        <time>2012-08-20T09:15:49Z</time>
      </trkpt>
      <trkpt lat="39.983718" lon="-0.695676">
        <ele>966.2</ele>
        <time>2012-08-20T09:15:50Z</time>
      </trkpt>
      <trkpt lat="39.983672" lon="-0.695675">
        <ele>966.4</ele>
        <time>2012-08-20T09:15:51Z</time>
      </trkpt>
      <trkpt lat="39.983623" lon="-0.695674">
        <ele>966.8</ele>
        <time>2012-08-20T09:15:52Z</time>
      </trkpt>
      <trkpt lat="39.983572" lon="-0.695675">
        <ele>967.0</ele>
        <time>2012-08-20T09:15:53Z</time>
      </trkpt>
      <trkpt lat="39.983521" lon="-0.695675">
        <ele>967.2</ele>
        <time>2012-08-20T09:15:54Z</time>
      </trkpt>
      <trkpt lat="39.983471" lon="-0.695673">
        <ele>967.4</ele>
        <time>2012-08-20T09:15:55Z</time>
      </trkpt>
      <trkpt lat="39.983159" lon="-0.695658">
        <ele>967.4</ele>
        <time>2012-08-20T09:16:01Z</time>
      </trkpt>
      <trkpt lat="39.982686" lon="-0.695637">
        <ele>967.4</ele>
        <time>2012-08-20T09:16:10Z</time>
      </trkpt>
      <trkpt lat="39.982228" lon="-0.695621">
        <ele>967.4</ele>
        <time>2012-08-20T09:16:19Z</time>
      </trkpt>
      <trkpt lat="39.981785" lon="-0.695612">
        <ele>967.4</ele>
        <time>2012-08-20T09:16:28Z</time>
      </trkpt>
      <trkpt lat="39.981334" lon="-0.695596">
        <ele>967.4</ele>
        <time>2012-08-20T09:16:37Z</time>
      </trkpt>
      <trkpt lat="39.981188" lon="-0.695593">
        <ele>967.4</ele>
        <time>2012-08-20T09:16:40Z</time>
      </trkpt>
      <trkpt lat="39.980843" lon="-0.695577">
        <ele>967.4</ele>
        <time>2012-08-20T09:16:47Z</time>
      </trkpt>
      <trkpt lat="39.980357" lon="-0.695558">
        <ele>967.4</ele>
        <time>2012-08-20T09:16:57Z</time>
      </trkpt>
      <trkpt lat="39.979980" lon="-0.695543">
        <ele>967.4</ele>
        <time>2012-08-20T09:17:05Z</time>
      </trkpt>
      <trkpt lat="39.979613" lon="-0.695533">
        <ele>967.4</ele>
        <time>2012-08-20T09:17:13Z</time>
      </trkpt>
      <trkpt lat="39.979229" lon="-0.695516">
        <ele>967.4</ele>
        <time>2012-08-20T09:17:21Z</time>
      </trkpt>
      <trkpt lat="39.978846" lon="-0.695499">
        <ele>967.4</ele>
        <time>2012-08-20T09:17:29Z</time>
      </trkpt>
      <trkpt lat="39.978460" lon="-0.695472">
        <ele>967.4</ele>
        <time>2012-08-20T09:17:37Z</time>
      </trkpt>
      <trkpt lat="39.978410" lon="-0.695471">
        <ele>967.4</ele>
        <time>2012-08-20T09:17:38Z</time>
      </trkpt>
      <trkpt lat="39.978122" lon="-0.695466">
        <ele>967.4</ele>
        <time>2012-08-20T09:17:44Z</time>
      </trkpt>
      <trkpt lat="39.977737" lon="-0.695460">
        <ele>967.4</ele>
        <time>2012-08-20T09:17:52Z</time>
      </trkpt>
      <trkpt lat="39.977251" lon="-0.695439">
        <ele>967.4</ele>
        <time>2012-08-20T09:18:02Z</time>
      </trkpt>
      <trkpt lat="39.976858" lon="-0.695430">
        <ele>967.4</ele>
        <time>2012-08-20T09:18:10Z</time>
      </trkpt>
      <trkpt lat="39.976458" lon="-0.695411">
        <ele>967.4</ele>
        <time>2012-08-20T09:18:18Z</time>
      </trkpt>
      <trkpt lat="39.976070" lon="-0.695395">
        <ele>967.4</ele>
        <time>2012-08-20T09:18:26Z</time>
      </trkpt>
      <trkpt lat="39.975639" lon="-0.695371">
        <ele>967.4</ele>
        <time>2012-08-20T09:18:35Z</time>
      </trkpt>
      <trkpt lat="39.975354" lon="-0.695362">
        <ele>967.4</ele>
        <time>2012-08-20T09:18:41Z</time>
      </trkpt>
      <trkpt lat="39.975171" lon="-0.695360">
        <ele>967.4</ele>
        <time>2012-08-20T09:18:45Z</time>
      </trkpt>
      <trkpt lat="39.974845" lon="-0.695351">
        <ele>967.4</ele>
        <time>2012-08-20T09:18:52Z</time>
      </trkpt>
      <trkpt lat="39.974478" lon="-0.695328">
        <ele>967.4</ele>
        <time>2012-08-20T09:19:00Z</time>
      </trkpt>
      <trkpt lat="39.974074" lon="-0.695308">
        <ele>967.4</ele>
        <time>2012-08-20T09:19:09Z</time>
      </trkpt>
      <trkpt lat="39.973823" lon="-0.695305">
        <ele>967.4</ele>
        <time>2012-08-20T09:19:15Z</time>
      </trkpt>
      <trkpt lat="39.973786" lon="-0.695302">
        <ele>967.4</ele>
        <time>2012-08-20T09:19:16Z</time>
      </trkpt>
      <trkpt lat="39.973487" lon="-0.695303">
        <ele>967.4</ele>
        <time>2012-08-20T09:19:23Z</time>
      </trkpt>
      <trkpt lat="39.973218" lon="-0.695294">
        <ele>967.0</ele>
        <time>2012-08-20T09:19:28Z</time>
      </trkpt>
      <trkpt lat="39.973164" lon="-0.695292">
        <ele>966.6</ele>
        <time>2012-08-20T09:19:29Z</time>
      </trkpt>
      <trkpt lat="39.973111" lon="-0.695289">
        <ele>966.2</ele>
        <time>2012-08-20T09:19:30Z</time>
      </trkpt>
      <trkpt lat="39.973061" lon="-0.695284">
        <ele>965.8</ele>
        <time>2012-08-20T09:19:31Z</time>
      </trkpt>
      <trkpt lat="39.973015" lon="-0.695273">
        <ele>965.4</ele>
        <time>2012-08-20T09:19:32Z</time>
      </trkpt>
      <trkpt lat="39.972976" lon="-0.695243">
        <ele>965.4</ele>
        <time>2012-08-20T09:19:33Z</time>
      </trkpt>
      <trkpt lat="39.972931" lon="-0.695082">
        <ele>965.4</ele>
        <time>2012-08-20T09:19:36Z</time>
      </trkpt>
      <trkpt lat="39.972948" lon="-0.694959">
        <ele>965.4</ele>
        <time>2012-08-20T09:19:38Z</time>
      </trkpt>
      <trkpt lat="39.972969" lon="-0.694828">
        <ele>965.4</ele>
        <time>2012-08-20T09:19:40Z</time>
      </trkpt>
      <trkpt lat="39.972972" lon="-0.694760">
        <ele>965.4</ele>
        <time>2012-08-20T09:19:41Z</time>
      </trkpt>
      <trkpt lat="39.972971" lon="-0.694700">
        <ele>965.4</ele>
        <time>2012-08-20T09:19:42Z</time>
      </trkpt>
      <trkpt lat="39.972943" lon="-0.694600">
        <ele>965.4</ele>
        <time>2012-08-20T09:19:44Z</time>
      </trkpt>
      <trkpt lat="39.972828" lon="-0.694439">
        <ele>965.4</ele>
        <time>2012-08-20T09:19:49Z</time>
      </trkpt>
      <trkpt lat="39.972805" lon="-0.694410">
        <ele>965.4</ele>
        <time>2012-08-20T09:19:50Z</time>
      </trkpt>
      <trkpt lat="39.972660" lon="-0.694192">
        <ele>965.4</ele>
        <time>2012-08-20T09:19:57Z</time>
      </trkpt>
      <trkpt lat="39.972578" lon="-0.693919">
        <ele>965.4</ele>
        <time>2012-08-20T09:20:03Z</time>
      </trkpt>
      <trkpt lat="39.972485" lon="-0.693600">
        <ele>965.4</ele>
        <time>2012-08-20T09:20:09Z</time>
      </trkpt>
      <trkpt lat="39.972456" lon="-0.693556">
        <ele>965.4</ele>
        <time>2012-08-20T09:20:10Z</time>
      </trkpt>
      <trkpt lat="39.972214" lon="-0.693276">
        <ele>965.4</ele>
        <time>2012-08-20T09:20:18Z</time>
      </trkpt>
      <trkpt lat="39.972152" lon="-0.693209">
        <ele>965.4</ele>
        <time>2012-08-20T09:20:20Z</time>
      </trkpt>
      <trkpt lat="39.971992" lon="-0.693063">
        <ele>965.4</ele>
        <time>2012-08-20T09:20:25Z</time>
      </trkpt>
      <trkpt lat="39.971923" lon="-0.693008">
        <ele>965.4</ele>
        <time>2012-08-20T09:20:27Z</time>
      </trkpt>
      <trkpt lat="39.971786" lon="-0.692894">
        <ele>965.4</ele>
        <time>2012-08-20T09:20:31Z</time>
      </trkpt>
      <trkpt lat="39.971573" lon="-0.692726">
        <ele>965.8</ele>
        <time>2012-08-20T09:20:37Z</time>
      </trkpt>
    </trkseg>
  </trk>
  <trk>
    <name>T3303249-12</name>
    <cmt>La ruta empieza en Ojos Negros. Hasta Santa Eulalia va por una carretera comarcal apenas transitada. Hay un tramo de unos 40 km durante el puerto del Escandón que no aparece reflejado en el track porque me quedé sin batería en el GPS pero la vía verde no tiene pérdida en esa zona</cmt>
    <desc>La ruta empieza en Ojos Negros. Hasta Santa Eulalia va por una carretera comarcal apenas transitada. Hay un tramo de unos 40 km durante el puerto del Escandón que no aparece reflejado en el track porque me quedé sin batería en el GPS pero la vía verde no tiene pérdida en esa zona</desc>
    <trkseg>
      <trkpt lat="39.971537" lon="-0.692701">
        <ele>966.4</ele>
        <time>2012-08-20T09:20:38Z</time>
      </trkpt>
      <trkpt lat="39.971502" lon="-0.692678">
        <ele>966.8</ele>
        <time>2012-08-20T09:20:39Z</time>
      </trkpt>
      <trkpt lat="39.971466" lon="-0.692653">
        <ele>967.2</ele>
        <time>2012-08-20T09:20:40Z</time>
      </trkpt>
      <trkpt lat="39.971429" lon="-0.692626">
        <ele>967.6</ele>
        <time>2012-08-20T09:20:41Z</time>
      </trkpt>
      <trkpt lat="39.971390" lon="-0.692603">
        <ele>967.6</ele>
        <time>2012-08-20T09:20:42Z</time>
      </trkpt>
      <trkpt lat="39.971243" lon="-0.692522">
        <ele>967.6</ele>
        <time>2012-08-20T09:20:46Z</time>
      </trkpt>
      <trkpt lat="39.971206" lon="-0.692511">
        <ele>967.6</ele>
        <time>2012-08-20T09:20:47Z</time>
      </trkpt>
      <trkpt lat="39.971089" lon="-0.692518">
        <ele>967.6</ele>
        <time>2012-08-20T09:20:50Z</time>
      </trkpt>
      <trkpt lat="39.971015" lon="-0.692550">
        <ele>967.6</ele>
        <time>2012-08-20T09:20:52Z</time>
      </trkpt>
      <trkpt lat="39.970911" lon="-0.692611">
        <ele>968.0</ele>
        <time>2012-08-20T09:20:55Z</time>
      </trkpt>
      <trkpt lat="39.970877" lon="-0.692633">
        <ele>968.4</ele>
        <time>2012-08-20T09:20:56Z</time>
      </trkpt>
      <trkpt lat="39.970844" lon="-0.692657">
        <ele>968.8</ele>
        <time>2012-08-20T09:20:57Z</time>
      </trkpt>
      <trkpt lat="39.970810" lon="-0.692682">
        <ele>969.2</ele>
        <time>2012-08-20T09:20:58Z</time>
      </trkpt>
      <trkpt lat="39.970778" lon="-0.692704">
        <ele>969.6</ele>
        <time>2012-08-20T09:20:59Z</time>
      </trkpt>
      <trkpt lat="39.970630" lon="-0.692797">
        <ele>969.6</ele>
        <time>2012-08-20T09:21:04Z</time>
      </trkpt>
      <trkpt lat="39.970431" lon="-0.692919">
        <ele>969.6</ele>
        <time>2012-08-20T09:21:11Z</time>
      </trkpt>
      <trkpt lat="39.970212" lon="-0.693076">
        <ele>969.6</ele>
        <time>2012-08-20T09:21:19Z</time>
      </trkpt>
      <trkpt lat="39.970012" lon="-0.693209">
        <ele>969.6</ele>
        <time>2012-08-20T09:21:26Z</time>
      </trkpt>
      <trkpt lat="39.969770" lon="-0.693379">
        <ele>969.6</ele>
        <time>2012-08-20T09:21:34Z</time>
      </trkpt>
      <trkpt lat="39.969678" lon="-0.693437">
        <ele>970.0</ele>
        <time>2012-08-20T09:21:37Z</time>
      </trkpt>
      <trkpt lat="39.969646" lon="-0.693457">
        <ele>970.4</ele>
        <time>2012-08-20T09:21:38Z</time>
      </trkpt>
      <trkpt lat="39.969614" lon="-0.693476">
        <ele>970.8</ele>
        <time>2012-08-20T09:21:39Z</time>
      </trkpt>
      <trkpt lat="39.969580" lon="-0.693497">
        <ele>971.2</ele>
        <time>2012-08-20T09:21:40Z</time>
      </trkpt>
      <trkpt lat="39.969546" lon="-0.693519">
        <ele>971.6</ele>
        <time>2012-08-20T09:21:41Z</time>
      </trkpt>
      <trkpt lat="39.969480" lon="-0.693568">
        <ele>971.6</ele>
        <time>2012-08-20T09:21:43Z</time>
      </trkpt>
      <trkpt lat="39.969268" lon="-0.693704">
        <ele>971.6</ele>
        <time>2012-08-20T09:21:49Z</time>
      </trkpt>
      <trkpt lat="39.969159" lon="-0.693748">
        <ele>971.6</ele>
        <time>2012-08-20T09:21:52Z</time>
      </trkpt>
      <trkpt lat="39.968854" lon="-0.693828">
        <ele>971.6</ele>
        <time>2012-08-20T09:22:00Z</time>
      </trkpt>
      <trkpt lat="39.968696" lon="-0.693855">
        <ele>971.6</ele>
        <time>2012-08-20T09:22:04Z</time>
      </trkpt>
      <trkpt lat="39.968539" lon="-0.693867">
        <ele>971.6</ele>
        <time>2012-08-20T09:22:08Z</time>
      </trkpt>
      <trkpt lat="39.968501" lon="-0.693868">
        <ele>971.6</ele>
        <time>2012-08-20T09:22:09Z</time>
      </trkpt>
      <trkpt lat="39.968274" lon="-0.693892">
        <ele>971.6</ele>
        <time>2012-08-20T09:22:15Z</time>
      </trkpt>
      <trkpt lat="39.968032" lon="-0.693922">
        <ele>971.6</ele>
        <time>2012-08-20T09:22:22Z</time>
      </trkpt>
      <trkpt lat="39.967869" lon="-0.693978">
        <ele>971.6</ele>
        <time>2012-08-20T09:22:27Z</time>
      </trkpt>
      <trkpt lat="39.967598" lon="-0.694105">
        <ele>971.6</ele>
        <time>2012-08-20T09:22:35Z</time>
      </trkpt>
      <trkpt lat="39.967407" lon="-0.694182">
        <ele>971.6</ele>
        <time>2012-08-20T09:22:40Z</time>
      </trkpt>
      <trkpt lat="39.967365" lon="-0.694187">
        <ele>971.6</ele>
        <time>2012-08-20T09:22:41Z</time>
      </trkpt>
      <trkpt lat="39.967146" lon="-0.694120">
        <ele>971.6</ele>
        <time>2012-08-20T09:22:46Z</time>
      </trkpt>
      <trkpt lat="39.966830" lon="-0.694025">
        <ele>971.6</ele>
        <time>2012-08-20T09:22:53Z</time>
      </trkpt>
      <trkpt lat="39.966482" lon="-0.694005">
        <ele>971.6</ele>
        <time>2012-08-20T09:23:01Z</time>
      </trkpt>
      <trkpt lat="39.966395" lon="-0.693996">
        <ele>971.6</ele>
        <time>2012-08-20T09:23:03Z</time>
      </trkpt>
      <trkpt lat="39.966234" lon="-0.693961">
        <ele>971.6</ele>
        <time>2012-08-20T09:23:07Z</time>
      </trkpt>
      <trkpt lat="39.966155" lon="-0.693947">
        <ele>972.2</ele>
        <time>2012-08-20T09:23:10Z</time>
      </trkpt>
      <trkpt lat="39.966155" lon="-0.693948">
        <ele>972.6</ele>
        <time>2012-08-20T09:23:11Z</time>
      </trkpt>
      <trkpt lat="39.966127" lon="-0.693951">
        <ele>973.8</ele>
        <time>2012-08-20T09:23:48Z</time>
      </trkpt>
      <trkpt lat="39.966086" lon="-0.693939">
        <ele>973.8</ele>
        <time>2012-08-20T09:23:50Z</time>
      </trkpt>
      <trkpt lat="39.965922" lon="-0.693903">
        <ele>973.8</ele>
        <time>2012-08-20T09:23:56Z</time>
      </trkpt>
      <trkpt lat="39.965737" lon="-0.693880">
        <ele>973.8</ele>
        <time>2012-08-20T09:24:03Z</time>
      </trkpt>
      <trkpt lat="39.965605" lon="-0.693876">
        <ele>973.8</ele>
        <time>2012-08-20T09:24:09Z</time>
      </trkpt>
      <trkpt lat="39.965499" lon="-0.693878">
        <ele>973.8</ele>
        <time>2012-08-20T09:24:15Z</time>
      </trkpt>
      <trkpt lat="39.965423" lon="-0.693869">
        <ele>973.8</ele>
        <time>2012-08-20T09:24:19Z</time>
      </trkpt>
      <trkpt lat="39.965411" lon="-0.693872">
        <ele>973.8</ele>
        <time>2012-08-20T09:24:20Z</time>
      </trkpt>
      <trkpt lat="39.965403" lon="-0.693873">
        <ele>973.8</ele>
        <time>2012-08-20T09:24:22Z</time>
      </trkpt>
      <trkpt lat="39.965403" lon="-0.693873">
        <ele>973.8</ele>
        <time>2012-08-20T09:24:23Z</time>
      </trkpt>
      <trkpt lat="39.965305" lon="-0.693897">
        <ele>975.8</ele>
        <time>2012-08-20T09:28:03Z</time>
      </trkpt>
      <trkpt lat="39.965148" lon="-0.693961">
        <ele>975.8</ele>
        <time>2012-08-20T09:28:09Z</time>
      </trkpt>
      <trkpt lat="39.964966" lon="-0.694077">
        <ele>975.8</ele>
        <time>2012-08-20T09:28:16Z</time>
      </trkpt>
      <trkpt lat="39.964731" lon="-0.694212">
        <ele>975.8</ele>
        <time>2012-08-20T09:28:24Z</time>
      </trkpt>
      <trkpt lat="39.964545" lon="-0.694166">
        <ele>975.8</ele>
        <time>2012-08-20T09:28:30Z</time>
      </trkpt>
      <trkpt lat="39.964436" lon="-0.694012">
        <ele>975.8</ele>
        <time>2012-08-20T09:28:35Z</time>
      </trkpt>
      <trkpt lat="39.964302" lon="-0.693790">
        <ele>975.8</ele>
        <time>2012-08-20T09:28:41Z</time>
      </trkpt>
      <trkpt lat="39.964148" lon="-0.693709">
        <ele>975.8</ele>
        <time>2012-08-20T09:28:46Z</time>
      </trkpt>
      <trkpt lat="39.964114" lon="-0.693712">
        <ele>976.2</ele>
        <time>2012-08-20T09:28:47Z</time>
      </trkpt>
      <trkpt lat="39.964081" lon="-0.693725">
        <ele>976.6</ele>
        <time>2012-08-20T09:28:48Z</time>
      </trkpt>
      <trkpt lat="39.964050" lon="-0.693741">
        <ele>977.0</ele>
        <time>2012-08-20T09:28:49Z</time>
      </trkpt>
      <trkpt lat="39.964019" lon="-0.693767">
        <ele>977.4</ele>
        <time>2012-08-20T09:28:50Z</time>
      </trkpt>
      <trkpt lat="39.963991" lon="-0.693797">
        <ele>977.8</ele>
        <time>2012-08-20T09:28:51Z</time>
      </trkpt>
      <trkpt lat="39.963874" lon="-0.694009">
        <ele>977.8</ele>
        <time>2012-08-20T09:28:57Z</time>
      </trkpt>
      <trkpt lat="39.963683" lon="-0.694225">
        <ele>977.8</ele>
        <time>2012-08-20T09:29:04Z</time>
      </trkpt>
      <trkpt lat="39.963570" lon="-0.694286">
        <ele>977.8</ele>
        <time>2012-08-20T09:29:07Z</time>
      </trkpt>
      <trkpt lat="39.963443" lon="-0.694316">
        <ele>977.8</ele>
        <time>2012-08-20T09:29:10Z</time>
      </trkpt>
      <trkpt lat="39.963312" lon="-0.694313">
        <ele>977.8</ele>
        <time>2012-08-20T09:29:13Z</time>
      </trkpt>
      <trkpt lat="39.963188" lon="-0.694335">
        <ele>977.8</ele>
        <time>2012-08-20T09:29:16Z</time>
      </trkpt>
      <trkpt lat="39.963052" lon="-0.694494">
        <ele>977.8</ele>
        <time>2012-08-20T09:29:20Z</time>
      </trkpt>
      <trkpt lat="39.962893" lon="-0.694617">
        <ele>977.8</ele>
        <time>2012-08-20T09:29:24Z</time>
      </trkpt>
      <trkpt lat="39.962849" lon="-0.694642">
        <ele>977.8</ele>
        <time>2012-08-20T09:29:25Z</time>
      </trkpt>
      <trkpt lat="39.962675" lon="-0.694729">
        <ele>977.8</ele>
        <time>2012-08-20T09:29:29Z</time>
      </trkpt>
      <trkpt lat="39.962589" lon="-0.694767">
        <ele>977.8</ele>
        <time>2012-08-20T09:29:31Z</time>
      </trkpt>
      <trkpt lat="39.962267" lon="-0.694893">
        <ele>977.4</ele>
        <time>2012-08-20T09:29:38Z</time>
      </trkpt>
      <trkpt lat="39.962221" lon="-0.694910">
        <ele>977.0</ele>
        <time>2012-08-20T09:29:39Z</time>
      </trkpt>
      <trkpt lat="39.962173" lon="-0.694928">
        <ele>976.6</ele>
        <time>2012-08-20T09:29:40Z</time>
      </trkpt>
      <trkpt lat="39.962124" lon="-0.694951">
        <ele>976.2</ele>
        <time>2012-08-20T09:29:41Z</time>
      </trkpt>
      <trkpt lat="39.962074" lon="-0.694979">
        <ele>975.6</ele>
        <time>2012-08-20T09:29:42Z</time>
      </trkpt>
      <trkpt lat="39.961944" lon="-0.695075">
        <ele>975.6</ele>
        <time>2012-08-20T09:29:45Z</time>
      </trkpt>
      <trkpt lat="39.961780" lon="-0.695213">
        <ele>975.6</ele>
        <time>2012-08-20T09:29:49Z</time>
      </trkpt>
      <trkpt lat="39.961692" lon="-0.695268">
        <ele>975.6</ele>
        <time>2012-08-20T09:29:51Z</time>
      </trkpt>
      <trkpt lat="39.961488" lon="-0.695364">
        <ele>975.2</ele>
        <time>2012-08-20T09:29:55Z</time>
      </trkpt>
      <trkpt lat="39.961435" lon="-0.695386">
        <ele>974.4</ele>
        <time>2012-08-20T09:29:56Z</time>
      </trkpt>
      <trkpt lat="39.961380" lon="-0.695410">
        <ele>974.0</ele>
        <time>2012-08-20T09:29:57Z</time>
      </trkpt>
      <trkpt lat="39.961331" lon="-0.695433">
        <ele>973.6</ele>
        <time>2012-08-20T09:29:58Z</time>
      </trkpt>
      <trkpt lat="39.960973" lon="-0.695587">
        <ele>973.6</ele>
        <time>2012-08-20T09:30:05Z</time>
      </trkpt>
      <trkpt lat="39.960576" lon="-0.695763">
        <ele>973.6</ele>
        <time>2012-08-20T09:30:13Z</time>
      </trkpt>
      <trkpt lat="39.960128" lon="-0.695962">
        <ele>973.6</ele>
        <time>2012-08-20T09:30:22Z</time>
      </trkpt>
      <trkpt lat="39.960078" lon="-0.695980">
        <ele>973.6</ele>
        <time>2012-08-20T09:30:23Z</time>
      </trkpt>
      <trkpt lat="39.959830" lon="-0.696094">
        <ele>973.6</ele>
        <time>2012-08-20T09:30:28Z</time>
      </trkpt>
      <trkpt lat="39.959420" lon="-0.696270">
        <ele>973.6</ele>
        <time>2012-08-20T09:30:36Z</time>
      </trkpt>
      <trkpt lat="39.958996" lon="-0.696423">
        <ele>973.6</ele>
        <time>2012-08-20T09:30:44Z</time>
      </trkpt>
      <trkpt lat="39.958833" lon="-0.696464">
        <ele>973.2</ele>
        <time>2012-08-20T09:30:47Z</time>
      </trkpt>
      <trkpt lat="39.958777" lon="-0.696474">
        <ele>972.8</ele>
        <time>2012-08-20T09:30:48Z</time>
      </trkpt>
      <trkpt lat="39.958719" lon="-0.696487">
        <ele>972.4</ele>
        <time>2012-08-20T09:30:49Z</time>
      </trkpt>
      <trkpt lat="39.958660" lon="-0.696496">
        <ele>972.0</ele>
        <time>2012-08-20T09:30:50Z</time>
      </trkpt>
      <trkpt lat="39.958601" lon="-0.696506">
        <ele>971.6</ele>
        <time>2012-08-20T09:30:51Z</time>
      </trkpt>
      <trkpt lat="39.958543" lon="-0.696516">
        <ele>971.6</ele>
        <time>2012-08-20T09:30:52Z</time>
      </trkpt>
      <trkpt lat="39.958065" lon="-0.696527">
        <ele>971.6</ele>
        <time>2012-08-20T09:31:00Z</time>
      </trkpt>
      <trkpt lat="39.957891" lon="-0.696515">
        <ele>971.2</ele>
        <time>2012-08-20T09:31:03Z</time>
      </trkpt>
      <trkpt lat="39.957834" lon="-0.696509">
        <ele>970.6</ele>
        <time>2012-08-20T09:31:04Z</time>
      </trkpt>
      <trkpt lat="39.957773" lon="-0.696499">
        <ele>970.2</ele>
        <time>2012-08-20T09:31:05Z</time>
      </trkpt>
      <trkpt lat="39.957716" lon="-0.696490">
        <ele>969.8</ele>
        <time>2012-08-20T09:31:06Z</time>
      </trkpt>
      <trkpt lat="39.957663" lon="-0.696476">
        <ele>969.4</ele>
        <time>2012-08-20T09:31:07Z</time>
      </trkpt>
      <trkpt lat="39.957593" lon="-0.696457">
        <ele>969.4</ele>
        <time>2012-08-20T09:31:09Z</time>
      </trkpt>
      <trkpt lat="39.957254" lon="-0.696377">
        <ele>969.4</ele>
        <time>2012-08-20T09:31:15Z</time>
      </trkpt>
      <trkpt lat="39.956982" lon="-0.696323">
        <ele>969.0</ele>
        <time>2012-08-20T09:31:20Z</time>
      </trkpt>
      <trkpt lat="39.956926" lon="-0.696309">
        <ele>968.6</ele>
        <time>2012-08-20T09:31:21Z</time>
      </trkpt>
      <trkpt lat="39.956866" lon="-0.696296">
        <ele>968.2</ele>
        <time>2012-08-20T09:31:22Z</time>
      </trkpt>
      <trkpt lat="39.956811" lon="-0.696282">
        <ele>967.8</ele>
        <time>2012-08-20T09:31:23Z</time>
      </trkpt>
      <trkpt lat="39.956754" lon="-0.696269">
        <ele>967.4</ele>
        <time>2012-08-20T09:31:24Z</time>
      </trkpt>
      <trkpt lat="39.956376" lon="-0.696202">
        <ele>967.4</ele>
        <time>2012-08-20T09:31:30Z</time>
      </trkpt>
      <trkpt lat="39.956057" lon="-0.696134">
        <ele>967.0</ele>
        <time>2012-08-20T09:31:35Z</time>
      </trkpt>
      <trkpt lat="39.955992" lon="-0.696121">
        <ele>966.4</ele>
        <time>2012-08-20T09:31:36Z</time>
      </trkpt>
      <trkpt lat="39.955926" lon="-0.696108">
        <ele>966.0</ele>
        <time>2012-08-20T09:31:37Z</time>
      </trkpt>
      <trkpt lat="39.955854" lon="-0.696093">
        <ele>965.6</ele>
        <time>2012-08-20T09:31:38Z</time>
      </trkpt>
      <trkpt lat="39.955786" lon="-0.696081">
        <ele>965.2</ele>
        <time>2012-08-20T09:31:39Z</time>
      </trkpt>
      <trkpt lat="39.955227" lon="-0.695962">
        <ele>965.2</ele>
        <time>2012-08-20T09:31:47Z</time>
      </trkpt>
      <trkpt lat="39.955154" lon="-0.695948">
        <ele>964.8</ele>
        <time>2012-08-20T09:31:48Z</time>
      </trkpt>
      <trkpt lat="39.955084" lon="-0.695931">
        <ele>964.4</ele>
        <time>2012-08-20T09:31:49Z</time>
      </trkpt>
      <trkpt lat="39.955012" lon="-0.695919">
        <ele>964.0</ele>
        <time>2012-08-20T09:31:50Z</time>
      </trkpt>
      <trkpt lat="39.954941" lon="-0.695902">
        <ele>963.6</ele>
        <time>2012-08-20T09:31:51Z</time>
      </trkpt>
      <trkpt lat="39.954869" lon="-0.695888">
        <ele>963.2</ele>
        <time>2012-08-20T09:31:52Z</time>
      </trkpt>
      <trkpt lat="39.954655" lon="-0.695840">
        <ele>963.2</ele>
        <time>2012-08-20T09:31:55Z</time>
      </trkpt>
      <trkpt lat="39.954224" lon="-0.695753">
        <ele>962.8</ele>
        <time>2012-08-20T09:32:01Z</time>
      </trkpt>
      <trkpt lat="39.954154" lon="-0.695737">
        <ele>962.4</ele>
        <time>2012-08-20T09:32:02Z</time>
      </trkpt>
      <trkpt lat="39.954084" lon="-0.695721">
        <ele>962.0</ele>
        <time>2012-08-20T09:32:03Z</time>
      </trkpt>
      <trkpt lat="39.954018" lon="-0.695703">
        <ele>961.6</ele>
        <time>2012-08-20T09:32:04Z</time>
      </trkpt>
      <trkpt lat="39.953949" lon="-0.695684">
        <ele>961.0</ele>
        <time>2012-08-20T09:32:05Z</time>
      </trkpt>
      <trkpt lat="39.953620" lon="-0.695544">
        <ele>961.0</ele>
        <time>2012-08-20T09:32:10Z</time>
      </trkpt>
      <trkpt lat="39.953433" lon="-0.695448">
        <ele>960.6</ele>
        <time>2012-08-20T09:32:13Z</time>
      </trkpt>
      <trkpt lat="39.953372" lon="-0.695413">
        <ele>960.2</ele>
        <time>2012-08-20T09:32:14Z</time>
      </trkpt>
      <trkpt lat="39.953314" lon="-0.695373">
        <ele>959.8</ele>
        <time>2012-08-20T09:32:15Z</time>
      </trkpt>
      <trkpt lat="39.953258" lon="-0.695333">
        <ele>959.4</ele>
        <time>2012-08-20T09:32:16Z</time>
      </trkpt>
      <trkpt lat="39.953199" lon="-0.695291">
        <ele>959.0</ele>
        <time>2012-08-20T09:32:17Z</time>
      </trkpt>
      <trkpt lat="39.953146" lon="-0.695241">
        <ele>959.0</ele>
        <time>2012-08-20T09:32:18Z</time>
      </trkpt>
      <trkpt lat="39.952767" lon="-0.694855">
        <ele>959.0</ele>
        <time>2012-08-20T09:32:25Z</time>
      </trkpt>
      <trkpt lat="39.952603" lon="-0.694663">
        <ele>958.6</ele>
        <time>2012-08-20T09:32:28Z</time>
      </trkpt>
      <trkpt lat="39.952547" lon="-0.694600">
        <ele>958.0</ele>
        <time>2012-08-20T09:32:29Z</time>
      </trkpt>
      <trkpt lat="39.952491" lon="-0.694538">
        <ele>957.6</ele>
        <time>2012-08-20T09:32:30Z</time>
      </trkpt>
      <trkpt lat="39.952436" lon="-0.694473">
        <ele>957.2</ele>
        <time>2012-08-20T09:32:31Z</time>
      </trkpt>
      <trkpt lat="39.952379" lon="-0.694407">
        <ele>956.8</ele>
        <time>2012-08-20T09:32:32Z</time>
      </trkpt>
      <trkpt lat="39.952323" lon="-0.694345">
        <ele>956.8</ele>
        <time>2012-08-20T09:32:33Z</time>
      </trkpt>
      <trkpt lat="39.951915" lon="-0.693882">
        <ele>956.8</ele>
        <time>2012-08-20T09:32:40Z</time>
      </trkpt>
      <trkpt lat="39.951798" lon="-0.693743">
        <ele>956.4</ele>
        <time>2012-08-20T09:32:42Z</time>
      </trkpt>
      <trkpt lat="39.951737" lon="-0.693674">
        <ele>955.6</ele>
        <time>2012-08-20T09:32:43Z</time>
      </trkpt>
      <trkpt lat="39.951678" lon="-0.693605">
        <ele>955.0</ele>
        <time>2012-08-20T09:32:44Z</time>
      </trkpt>
      <trkpt lat="39.951618" lon="-0.693533">
        <ele>954.6</ele>
        <time>2012-08-20T09:32:45Z</time>
      </trkpt>
      <trkpt lat="39.951181" lon="-0.693059">
        <ele>954.6</ele>
        <time>2012-08-20T09:32:52Z</time>
      </trkpt>
      <trkpt lat="39.951117" lon="-0.692997">
        <ele>954.2</ele>
        <time>2012-08-20T09:32:53Z</time>
      </trkpt>
      <trkpt lat="39.951052" lon="-0.692937">
        <ele>953.8</ele>
        <time>2012-08-20T09:32:54Z</time>
      </trkpt>
      <trkpt lat="39.950985" lon="-0.692875">
        <ele>953.4</ele>
        <time>2012-08-20T09:32:55Z</time>
      </trkpt>
      <trkpt lat="39.950921" lon="-0.692815">
        <ele>953.0</ele>
        <time>2012-08-20T09:32:56Z</time>
      </trkpt>
      <trkpt lat="39.950859" lon="-0.692755">
        <ele>952.6</ele>
        <time>2012-08-20T09:32:57Z</time>
      </trkpt>
      <trkpt lat="39.950599" lon="-0.692524">
        <ele>952.6</ele>
        <time>2012-08-20T09:33:01Z</time>
      </trkpt>
      <trkpt lat="39.950321" lon="-0.692324">
        <ele>952.2</ele>
        <time>2012-08-20T09:33:05Z</time>
      </trkpt>
      <trkpt lat="39.950250" lon="-0.692276">
        <ele>951.8</ele>
        <time>2012-08-20T09:33:06Z</time>
      </trkpt>
      <trkpt lat="39.950180" lon="-0.692226">
        <ele>951.4</ele>
        <time>2012-08-20T09:33:07Z</time>
      </trkpt>
      <trkpt lat="39.950108" lon="-0.692182">
        <ele>950.6</ele>
        <time>2012-08-20T09:33:08Z</time>
      </trkpt>
      <trkpt lat="39.949595" lon="-0.691878">
        <ele>950.6</ele>
        <time>2012-08-20T09:33:15Z</time>
      </trkpt>
      <trkpt lat="39.949521" lon="-0.691842">
        <ele>950.2</ele>
        <time>2012-08-20T09:33:16Z</time>
      </trkpt>
      <trkpt lat="39.949446" lon="-0.691803">
        <ele>949.6</ele>
        <time>2012-08-20T09:33:17Z</time>
      </trkpt>
      <trkpt lat="39.949370" lon="-0.691767">
        <ele>949.2</ele>
        <time>2012-08-20T09:33:18Z</time>
      </trkpt>
      <trkpt lat="39.949296" lon="-0.691730">
        <ele>948.8</ele>
        <time>2012-08-20T09:33:19Z</time>
      </trkpt>
      <trkpt lat="39.949221" lon="-0.691694">
        <ele>948.4</ele>
        <time>2012-08-20T09:33:20Z</time>
      </trkpt>
      <trkpt lat="39.948989" lon="-0.691586">
        <ele>948.4</ele>
        <time>2012-08-20T09:33:23Z</time>
      </trkpt>
      <trkpt lat="39.948519" lon="-0.691374">
        <ele>948.0</ele>
        <time>2012-08-20T09:33:29Z</time>
      </trkpt>
      <trkpt lat="39.948442" lon="-0.691338">
        <ele>947.4</ele>
        <time>2012-08-20T09:33:30Z</time>
      </trkpt>
      <trkpt lat="39.948366" lon="-0.691300">
        <ele>947.0</ele>
        <time>2012-08-20T09:33:31Z</time>
      </trkpt>
      <trkpt lat="39.948289" lon="-0.691266">
        <ele>946.2</ele>
        <time>2012-08-20T09:33:32Z</time>
      </trkpt>
      <trkpt lat="39.948207" lon="-0.691229">
        <ele>946.2</ele>
        <time>2012-08-20T09:33:33Z</time>
      </trkpt>
      <trkpt lat="39.947754" lon="-0.691018">
        <ele>945.8</ele>
        <time>2012-08-20T09:33:39Z</time>
      </trkpt>
      <trkpt lat="39.947676" lon="-0.690981">
        <ele>945.4</ele>
        <time>2012-08-20T09:33:40Z</time>
      </trkpt>
      <trkpt lat="39.947602" lon="-0.690944">
        <ele>944.8</ele>
        <time>2012-08-20T09:33:41Z</time>
      </trkpt>
      <trkpt lat="39.947528" lon="-0.690906">
        <ele>944.4</ele>
        <time>2012-08-20T09:33:42Z</time>
      </trkpt>
      <trkpt lat="39.947453" lon="-0.690870">
        <ele>944.0</ele>
        <time>2012-08-20T09:33:43Z</time>
      </trkpt>
      <trkpt lat="39.947035" lon="-0.690587">
        <ele>944.0</ele>
        <time>2012-08-20T09:33:49Z</time>
      </trkpt>
      <trkpt lat="39.946914" lon="-0.690465">
        <ele>943.6</ele>
        <time>2012-08-20T09:33:51Z</time>
      </trkpt>
      <trkpt lat="39.946852" lon="-0.690401">
        <ele>943.2</ele>
        <time>2012-08-20T09:33:52Z</time>
      </trkpt>
      <trkpt lat="39.946791" lon="-0.690336">
        <ele>942.8</ele>
        <time>2012-08-20T09:33:53Z</time>
      </trkpt>
      <trkpt lat="39.946736" lon="-0.690268">
        <ele>942.4</ele>
        <time>2012-08-20T09:33:54Z</time>
      </trkpt>
      <trkpt lat="39.946684" lon="-0.690199">
        <ele>941.8</ele>
        <time>2012-08-20T09:33:55Z</time>
      </trkpt>
      <trkpt lat="39.946296" lon="-0.689690">
        <ele>941.4</ele>
        <time>2012-08-20T09:34:02Z</time>
      </trkpt>
      <trkpt lat="39.946245" lon="-0.689611">
        <ele>941.0</ele>
        <time>2012-08-20T09:34:03Z</time>
      </trkpt>
      <trkpt lat="39.946195" lon="-0.689526">
        <ele>940.6</ele>
        <time>2012-08-20T09:34:04Z</time>
      </trkpt>
      <trkpt lat="39.946152" lon="-0.689443">
        <ele>940.2</ele>
        <time>2012-08-20T09:34:05Z</time>
      </trkpt>
      <trkpt lat="39.946128" lon="-0.689347">
        <ele>939.6</ele>
        <time>2012-08-20T09:34:06Z</time>
      </trkpt>
      <trkpt lat="39.946089" lon="-0.689145">
        <ele>939.6</ele>
        <time>2012-08-20T09:34:08Z</time>
      </trkpt>
      <trkpt lat="39.946029" lon="-0.688525">
        <ele>939.6</ele>
        <time>2012-08-20T09:34:14Z</time>
      </trkpt>
      <trkpt lat="39.946029" lon="-0.688424">
        <ele>939.2</ele>
        <time>2012-08-20T09:34:15Z</time>
      </trkpt>
      <trkpt lat="39.946030" lon="-0.688325">
        <ele>938.8</ele>
        <time>2012-08-20T09:34:16Z</time>
      </trkpt>
      <trkpt lat="39.946031" lon="-0.688224">
        <ele>938.4</ele>
        <time>2012-08-20T09:34:17Z</time>
      </trkpt>
      <trkpt lat="39.946033" lon="-0.688125">
        <ele>938.0</ele>
        <time>2012-08-20T09:34:18Z</time>
      </trkpt>
      <trkpt lat="39.946038" lon="-0.688020">
        <ele>937.6</ele>
        <time>2012-08-20T09:34:19Z</time>
      </trkpt>
      <trkpt lat="39.946119" lon="-0.687402">
        <ele>937.2</ele>
        <time>2012-08-20T09:34:25Z</time>
      </trkpt>
      <trkpt lat="39.946143" lon="-0.687306">
        <ele>936.8</ele>
        <time>2012-08-20T09:34:26Z</time>
      </trkpt>
      <trkpt lat="39.946171" lon="-0.687202">
        <ele>936.4</ele>
        <time>2012-08-20T09:34:27Z</time>
      </trkpt>
      <trkpt lat="39.946198" lon="-0.687103">
        <ele>936.0</ele>
        <time>2012-08-20T09:34:28Z</time>
      </trkpt>
      <trkpt lat="39.946225" lon="-0.687006">
        <ele>935.4</ele>
        <time>2012-08-20T09:34:29Z</time>
      </trkpt>
      <trkpt lat="39.946294" lon="-0.686818">
        <ele>935.4</ele>
        <time>2012-08-20T09:34:31Z</time>
      </trkpt>
      <trkpt lat="39.946485" lon="-0.686355">
        <ele>935.0</ele>
        <time>2012-08-20T09:34:36Z</time>
      </trkpt>
      <trkpt lat="39.946523" lon="-0.686264">
        <ele>934.6</ele>
        <time>2012-08-20T09:34:37Z</time>
      </trkpt>
      <trkpt lat="39.946558" lon="-0.686172">
        <ele>934.2</ele>
        <time>2012-08-20T09:34:38Z</time>
      </trkpt>
      <trkpt lat="39.946597" lon="-0.686081">
        <ele>933.8</ele>
        <time>2012-08-20T09:34:39Z</time>
      </trkpt>
      <trkpt lat="39.946637" lon="-0.685989">
        <ele>933.4</ele>
        <time>2012-08-20T09:34:40Z</time>
      </trkpt>
      <trkpt lat="39.946834" lon="-0.685520">
        <ele>933.4</ele>
        <time>2012-08-20T09:34:45Z</time>
      </trkpt>
      <trkpt lat="39.946873" lon="-0.685425">
        <ele>933.0</ele>
        <time>2012-08-20T09:34:46Z</time>
      </trkpt>
      <trkpt lat="39.946912" lon="-0.685329">
        <ele>932.6</ele>
        <time>2012-08-20T09:34:47Z</time>
      </trkpt>
      <trkpt lat="39.946950" lon="-0.685235">
        <ele>932.2</ele>
        <time>2012-08-20T09:34:48Z</time>
      </trkpt>
      <trkpt lat="39.946987" lon="-0.685142">
        <ele>931.8</ele>
        <time>2012-08-20T09:34:49Z</time>
      </trkpt>
      <trkpt lat="39.947027" lon="-0.685044">
        <ele>931.2</ele>
        <time>2012-08-20T09:34:50Z</time>
      </trkpt>
      <trkpt lat="39.947245" lon="-0.684591">
        <ele>931.2</ele>
        <time>2012-08-20T09:34:55Z</time>
      </trkpt>
      <trkpt lat="39.947338" lon="-0.684420">
        <ele>930.8</ele>
        <time>2012-08-20T09:34:57Z</time>
      </trkpt>
      <trkpt lat="39.947389" lon="-0.684332">
        <ele>930.4</ele>
        <time>2012-08-20T09:34:58Z</time>
      </trkpt>
      <trkpt lat="39.947436" lon="-0.684249">
        <ele>930.0</ele>
        <time>2012-08-20T09:34:59Z</time>
      </trkpt>
      <trkpt lat="39.947482" lon="-0.684171">
        <ele>929.6</ele>
        <time>2012-08-20T09:35:00Z</time>
      </trkpt>
      <trkpt lat="39.947529" lon="-0.684093">
        <ele>929.2</ele>
        <time>2012-08-20T09:35:01Z</time>
      </trkpt>
      <trkpt lat="39.947622" lon="-0.683944">
        <ele>929.2</ele>
        <time>2012-08-20T09:35:03Z</time>
      </trkpt>
      <trkpt lat="39.947979" lon="-0.683370">
        <ele>929.2</ele>
        <time>2012-08-20T09:35:11Z</time>
      </trkpt>
      <trkpt lat="39.948021" lon="-0.683304">
        <ele>929.2</ele>
        <time>2012-08-20T09:35:12Z</time>
      </trkpt>
      <trkpt lat="39.948356" lon="-0.682819">
        <ele>929.2</ele>
        <time>2012-08-20T09:35:20Z</time>
      </trkpt>
      <trkpt lat="39.948567" lon="-0.682557">
        <ele>928.8</ele>
        <time>2012-08-20T09:35:25Z</time>
      </trkpt>
      <trkpt lat="39.948612" lon="-0.682502">
        <ele>928.4</ele>
        <time>2012-08-20T09:35:26Z</time>
      </trkpt>
      <trkpt lat="39.948660" lon="-0.682441">
        <ele>928.0</ele>
        <time>2012-08-20T09:35:27Z</time>
      </trkpt>
      <trkpt lat="39.948708" lon="-0.682368">
        <ele>927.4</ele>
        <time>2012-08-20T09:35:28Z</time>
      </trkpt>
      <trkpt lat="39.948753" lon="-0.682294">
        <ele>927.0</ele>
        <time>2012-08-20T09:35:29Z</time>
      </trkpt>
      <trkpt lat="39.948897" lon="-0.682048">
        <ele>926.6</ele>
        <time>2012-08-20T09:35:32Z</time>
      </trkpt>
      <trkpt lat="39.948936" lon="-0.681958">
        <ele>926.2</ele>
        <time>2012-08-20T09:35:33Z</time>
      </trkpt>
      <trkpt lat="39.948977" lon="-0.681868">
        <ele>925.4</ele>
        <time>2012-08-20T09:35:34Z</time>
      </trkpt>
      <trkpt lat="39.949013" lon="-0.681783">
        <ele>925.0</ele>
        <time>2012-08-20T09:35:35Z</time>
      </trkpt>
      <trkpt lat="39.949083" lon="-0.681619">
        <ele>925.0</ele>
        <time>2012-08-20T09:35:37Z</time>
      </trkpt>
      <trkpt lat="39.949212" lon="-0.681387">
        <ele>925.0</ele>
        <time>2012-08-20T09:35:41Z</time>
      </trkpt>
      <trkpt lat="39.949298" lon="-0.681267">
        <ele>925.0</ele>
        <time>2012-08-20T09:35:44Z</time>
      </trkpt>
      <trkpt lat="39.949347" lon="-0.681189">
        <ele>925.0</ele>
        <time>2012-08-20T09:35:46Z</time>
      </trkpt>
      <trkpt lat="39.949546" lon="-0.680880">
        <ele>925.0</ele>
        <time>2012-08-20T09:35:53Z</time>
      </trkpt>
      <trkpt lat="39.949781" lon="-0.680494">
        <ele>925.0</ele>
        <time>2012-08-20T09:36:00Z</time>
      </trkpt>
      <trkpt lat="39.950012" lon="-0.680122">
        <ele>925.0</ele>
        <time>2012-08-20T09:36:06Z</time>
      </trkpt>
      <trkpt lat="39.950285" lon="-0.679677">
        <ele>925.0</ele>
        <time>2012-08-20T09:36:13Z</time>
      </trkpt>
      <trkpt lat="39.950473" lon="-0.679334">
        <ele>925.0</ele>
        <time>2012-08-20T09:36:18Z</time>
      </trkpt>
      <trkpt lat="39.950520" lon="-0.679229">
        <ele>925.0</ele>
        <time>2012-08-20T09:36:20Z</time>
      </trkpt>
      <trkpt lat="39.950564" lon="-0.679136">
        <ele>924.2</ele>
        <time>2012-08-20T09:36:23Z</time>
      </trkpt>
      <trkpt lat="39.950572" lon="-0.679124">
        <ele>923.8</ele>
        <time>2012-08-20T09:36:24Z</time>
      </trkpt>
      <trkpt lat="39.950578" lon="-0.679121">
        <ele>923.4</ele>
        <time>2012-08-20T09:36:25Z</time>
      </trkpt>
      <trkpt lat="39.950577" lon="-0.679122">
        <ele>923.0</ele>
        <time>2012-08-20T09:36:26Z</time>
      </trkpt>
      <trkpt lat="39.950603" lon="-0.679020">
        <ele>923.0</ele>
        <time>2012-08-20T09:39:26Z</time>
      </trkpt>
      <trkpt lat="39.950612" lon="-0.678983">
        <ele>923.0</ele>
        <time>2012-08-20T09:39:27Z</time>
      </trkpt>
      <trkpt lat="39.950723" lon="-0.678702">
        <ele>923.0</ele>
        <time>2012-08-20T09:39:33Z</time>
      </trkpt>
      <trkpt lat="39.950854" lon="-0.678244">
        <ele>923.0</ele>
        <time>2012-08-20T09:39:41Z</time>
      </trkpt>
      <trkpt lat="39.950951" lon="-0.677723">
        <ele>922.6</ele>
        <time>2012-08-20T09:39:49Z</time>
      </trkpt>
      <trkpt lat="39.950959" lon="-0.677653">
        <ele>922.2</ele>
        <time>2012-08-20T09:39:50Z</time>
      </trkpt>
      <trkpt lat="39.950964" lon="-0.677590">
        <ele>921.8</ele>
        <time>2012-08-20T09:39:51Z</time>
      </trkpt>
      <trkpt lat="39.950974" lon="-0.677522">
        <ele>921.4</ele>
        <time>2012-08-20T09:39:52Z</time>
      </trkpt>
      <trkpt lat="39.950983" lon="-0.677454">
        <ele>921.0</ele>
        <time>2012-08-20T09:39:53Z</time>
      </trkpt>
      <trkpt lat="39.950999" lon="-0.677017">
        <ele>921.0</ele>
        <time>2012-08-20T09:39:59Z</time>
      </trkpt>
      <trkpt lat="39.950993" lon="-0.676537">
        <ele>921.0</ele>
        <time>2012-08-20T09:40:05Z</time>
      </trkpt>
      <trkpt lat="39.950986" lon="-0.676456">
        <ele>920.6</ele>
        <time>2012-08-20T09:40:06Z</time>
      </trkpt>
      <trkpt lat="39.950980" lon="-0.676381">
        <ele>920.2</ele>
        <time>2012-08-20T09:40:07Z</time>
      </trkpt>
      <trkpt lat="39.950973" lon="-0.676295">
        <ele>919.8</ele>
        <time>2012-08-20T09:40:08Z</time>
      </trkpt>
      <trkpt lat="39.950967" lon="-0.676220">
        <ele>919.4</ele>
        <time>2012-08-20T09:40:09Z</time>
      </trkpt>
      <trkpt lat="39.950958" lon="-0.676128">
        <ele>919.0</ele>
        <time>2012-08-20T09:40:10Z</time>
      </trkpt>
      <trkpt lat="39.950895" lon="-0.675713">
        <ele>919.0</ele>
        <time>2012-08-20T09:40:15Z</time>
      </trkpt>
      <trkpt lat="39.950753" lon="-0.675226">
        <ele>918.4</ele>
        <time>2012-08-20T09:40:21Z</time>
      </trkpt>
      <trkpt lat="39.950726" lon="-0.675151">
        <ele>918.0</ele>
        <time>2012-08-20T09:40:22Z</time>
      </trkpt>
      <trkpt lat="39.950700" lon="-0.675066">
        <ele>917.2</ele>
        <time>2012-08-20T09:40:23Z</time>
      </trkpt>
      <trkpt lat="39.950673" lon="-0.674994">
        <ele>916.8</ele>
        <time>2012-08-20T09:40:24Z</time>
      </trkpt>
      <trkpt lat="39.950526" lon="-0.674601">
        <ele>916.8</ele>
        <time>2012-08-20T09:40:29Z</time>
      </trkpt>
      <trkpt lat="39.950282" lon="-0.674094">
        <ele>916.2</ele>
        <time>2012-08-20T09:40:36Z</time>
      </trkpt>
      <trkpt lat="39.950239" lon="-0.674031">
        <ele>915.8</ele>
        <time>2012-08-20T09:40:37Z</time>
      </trkpt>
      <trkpt lat="39.950185" lon="-0.673975">
        <ele>915.4</ele>
        <time>2012-08-20T09:40:38Z</time>
      </trkpt>
      <trkpt lat="39.950146" lon="-0.673917">
        <ele>915.0</ele>
        <time>2012-08-20T09:40:39Z</time>
      </trkpt>
      <trkpt lat="39.950093" lon="-0.673862">
        <ele>914.6</ele>
        <time>2012-08-20T09:40:40Z</time>
      </trkpt>
      <trkpt lat="39.949879" lon="-0.673646">
        <ele>914.6</ele>
        <time>2012-08-20T09:40:44Z</time>
      </trkpt>
      <trkpt lat="39.949692" lon="-0.673454">
        <ele>914.6</ele>
        <time>2012-08-20T09:40:48Z</time>
      </trkpt>
      <trkpt lat="39.949585" lon="-0.673357">
        <ele>914.2</ele>
        <time>2012-08-20T09:40:50Z</time>
      </trkpt>
      <trkpt lat="39.949533" lon="-0.673306">
        <ele>913.6</ele>
        <time>2012-08-20T09:40:51Z</time>
      </trkpt>
      <trkpt lat="39.949479" lon="-0.673258">
        <ele>913.2</ele>
        <time>2012-08-20T09:40:52Z</time>
      </trkpt>
      <trkpt lat="39.949425" lon="-0.673210">
        <ele>912.8</ele>
        <time>2012-08-20T09:40:53Z</time>
      </trkpt>
      <trkpt lat="39.949369" lon="-0.673164">
        <ele>912.4</ele>
        <time>2012-08-20T09:40:54Z</time>
      </trkpt>
      <trkpt lat="39.949188" lon="-0.673030">
        <ele>912.4</ele>
        <time>2012-08-20T09:40:57Z</time>
      </trkpt>
      <trkpt lat="39.948943" lon="-0.672865">
        <ele>912.0</ele>
        <time>2012-08-20T09:41:01Z</time>
      </trkpt>
      <trkpt lat="39.948880" lon="-0.672828">
        <ele>911.6</ele>
        <time>2012-08-20T09:41:02Z</time>
      </trkpt>
      <trkpt lat="39.948822" lon="-0.672792">
        <ele>911.2</ele>
        <time>2012-08-20T09:41:03Z</time>
      </trkpt>
      <trkpt lat="39.948758" lon="-0.672760">
        <ele>910.8</ele>
        <time>2012-08-20T09:41:04Z</time>
      </trkpt>
      <trkpt lat="39.948688" lon="-0.672737">
        <ele>910.4</ele>
        <time>2012-08-20T09:41:05Z</time>
      </trkpt>
      <trkpt lat="39.948131" lon="-0.672572">
        <ele>910.4</ele>
        <time>2012-08-20T09:41:13Z</time>
      </trkpt>
      <trkpt lat="39.948059" lon="-0.672557">
        <ele>909.4</ele>
        <time>2012-08-20T09:41:14Z</time>
      </trkpt>
      <trkpt lat="39.947987" lon="-0.672545">
        <ele>909.0</ele>
        <time>2012-08-20T09:41:15Z</time>
      </trkpt>
      <trkpt lat="39.947913" lon="-0.672534">
        <ele>908.6</ele>
        <time>2012-08-20T09:41:16Z</time>
      </trkpt>
      <trkpt lat="39.947844" lon="-0.672525">
        <ele>908.2</ele>
        <time>2012-08-20T09:41:17Z</time>
      </trkpt>
      <trkpt lat="39.947624" lon="-0.672502">
        <ele>908.2</ele>
        <time>2012-08-20T09:41:20Z</time>
      </trkpt>
      <trkpt lat="39.947034" lon="-0.672537">
        <ele>908.2</ele>
        <time>2012-08-20T09:41:28Z</time>
      </trkpt>
      <trkpt lat="39.946958" lon="-0.672543">
        <ele>907.8</ele>
        <time>2012-08-20T09:41:29Z</time>
      </trkpt>
      <trkpt lat="39.946882" lon="-0.672550">
        <ele>907.4</ele>
        <time>2012-08-20T09:41:30Z</time>
      </trkpt>
      <trkpt lat="39.946806" lon="-0.672556">
        <ele>906.8</ele>
        <time>2012-08-20T09:41:31Z</time>
      </trkpt>
      <trkpt lat="39.946729" lon="-0.672563">
        <ele>906.4</ele>
        <time>2012-08-20T09:41:32Z</time>
      </trkpt>
      <trkpt lat="39.946651" lon="-0.672569">
        <ele>906.0</ele>
        <time>2012-08-20T09:41:33Z</time>
      </trkpt>
      <trkpt lat="39.946258" lon="-0.672605">
        <ele>906.0</ele>
        <time>2012-08-20T09:41:38Z</time>
      </trkpt>
      <trkpt lat="39.946177" lon="-0.672611">
        <ele>905.6</ele>
        <time>2012-08-20T09:41:39Z</time>
      </trkpt>
      <trkpt lat="39.946097" lon="-0.672617">
        <ele>905.2</ele>
        <time>2012-08-20T09:41:40Z</time>
      </trkpt>
      <trkpt lat="39.946018" lon="-0.672622">
        <ele>904.8</ele>
        <time>2012-08-20T09:41:41Z</time>
      </trkpt>
      <trkpt lat="39.945940" lon="-0.672626">
        <ele>904.4</ele>
        <time>2012-08-20T09:41:42Z</time>
      </trkpt>
      <trkpt lat="39.945861" lon="-0.672630">
        <ele>903.8</ele>
        <time>2012-08-20T09:41:43Z</time>
      </trkpt>
      <trkpt lat="39.945470" lon="-0.672649">
        <ele>903.8</ele>
        <time>2012-08-20T09:41:48Z</time>
      </trkpt>
      <trkpt lat="39.945060" lon="-0.672622">
        <ele>903.4</ele>
        <time>2012-08-20T09:41:53Z</time>
      </trkpt>
      <trkpt lat="39.944978" lon="-0.672607">
        <ele>903.0</ele>
        <time>2012-08-20T09:41:54Z</time>
      </trkpt>
      <trkpt lat="39.944896" lon="-0.672590">
        <ele>902.6</ele>
        <time>2012-08-20T09:41:55Z</time>
      </trkpt>
      <trkpt lat="39.944815" lon="-0.672571">
        <ele>902.2</ele>
        <time>2012-08-20T09:41:56Z</time>
      </trkpt>
      <trkpt lat="39.944733" lon="-0.672549">
        <ele>901.8</ele>
        <time>2012-08-20T09:41:57Z</time>
      </trkpt>
      <trkpt lat="39.944324" lon="-0.672381">
        <ele>901.8</ele>
        <time>2012-08-20T09:42:02Z</time>
      </trkpt>
      <trkpt lat="39.944240" lon="-0.672336">
        <ele>901.4</ele>
        <time>2012-08-20T09:42:03Z</time>
      </trkpt>
      <trkpt lat="39.944157" lon="-0.672289">
        <ele>900.6</ele>
        <time>2012-08-20T09:42:04Z</time>
      </trkpt>
      <trkpt lat="39.944075" lon="-0.672239">
        <ele>900.2</ele>
        <time>2012-08-20T09:42:05Z</time>
      </trkpt>
      <trkpt lat="39.943994" lon="-0.672184">
        <ele>899.8</ele>
        <time>2012-08-20T09:42:06Z</time>
      </trkpt>
      <trkpt lat="39.943840" lon="-0.672063">
        <ele>899.2</ele>
        <time>2012-08-20T09:42:08Z</time>
      </trkpt>
      <trkpt lat="39.943768" lon="-0.672001">
        <ele>898.8</ele>
        <time>2012-08-20T09:42:09Z</time>
      </trkpt>
      <trkpt lat="39.943699" lon="-0.671940">
        <ele>898.4</ele>
        <time>2012-08-20T09:42:10Z</time>
      </trkpt>
      <trkpt lat="39.943632" lon="-0.671877">
        <ele>898.0</ele>
        <time>2012-08-20T09:42:11Z</time>
      </trkpt>
      <trkpt lat="39.943566" lon="-0.671811">
        <ele>897.6</ele>
        <time>2012-08-20T09:42:12Z</time>
      </trkpt>
      <trkpt lat="39.943320" lon="-0.671526">
        <ele>897.6</ele>
        <time>2012-08-20T09:42:16Z</time>
      </trkpt>
      <trkpt lat="39.942936" lon="-0.670954">
        <ele>897.6</ele>
        <time>2012-08-20T09:42:23Z</time>
      </trkpt>
      <trkpt lat="39.942799" lon="-0.670685">
        <ele>897.2</ele>
        <time>2012-08-20T09:42:26Z</time>
      </trkpt>
      <trkpt lat="39.942756" lon="-0.670593">
        <ele>896.8</ele>
        <time>2012-08-20T09:42:27Z</time>
      </trkpt>
      <trkpt lat="39.942718" lon="-0.670499">
        <ele>896.0</ele>
        <time>2012-08-20T09:42:28Z</time>
      </trkpt>
      <trkpt lat="39.942684" lon="-0.670404">
        <ele>895.6</ele>
        <time>2012-08-20T09:42:29Z</time>
      </trkpt>
      <trkpt lat="39.942546" lon="-0.669896">
        <ele>895.2</ele>
        <time>2012-08-20T09:42:34Z</time>
      </trkpt>
      <trkpt lat="39.942524" lon="-0.669793">
        <ele>894.8</ele>
        <time>2012-08-20T09:42:35Z</time>
      </trkpt>
      <trkpt lat="39.942504" lon="-0.669689">
        <ele>894.4</ele>
        <time>2012-08-20T09:42:36Z</time>
      </trkpt>
      <trkpt lat="39.942485" lon="-0.669583">
        <ele>894.0</ele>
        <time>2012-08-20T09:42:37Z</time>
      </trkpt>
      <trkpt lat="39.942468" lon="-0.669477">
        <ele>893.4</ele>
        <time>2012-08-20T09:42:38Z</time>
      </trkpt>
      <trkpt lat="39.942431" lon="-0.669047">
        <ele>893.4</ele>
        <time>2012-08-20T09:42:42Z</time>
      </trkpt>
      <trkpt lat="39.942431" lon="-0.668627">
        <ele>893.0</ele>
        <time>2012-08-20T09:42:46Z</time>
      </trkpt>
      <trkpt lat="39.942437" lon="-0.668525">
        <ele>892.6</ele>
        <time>2012-08-20T09:42:47Z</time>
      </trkpt>
      <trkpt lat="39.942446" lon="-0.668423">
        <ele>892.2</ele>
        <time>2012-08-20T09:42:48Z</time>
      </trkpt>
      <trkpt lat="39.942455" lon="-0.668322">
        <ele>891.8</ele>
        <time>2012-08-20T09:42:49Z</time>
      </trkpt>
      <trkpt lat="39.942464" lon="-0.668221">
        <ele>891.4</ele>
        <time>2012-08-20T09:42:50Z</time>
      </trkpt>
      <trkpt lat="39.942563" lon="-0.667622">
        <ele>891.4</ele>
        <time>2012-08-20T09:42:56Z</time>
      </trkpt>
      <trkpt lat="39.942767" lon="-0.666968">
        <ele>891.0</ele>
        <time>2012-08-20T09:43:03Z</time>
      </trkpt>
      <trkpt lat="39.942804" lon="-0.666880">
        <ele>890.6</ele>
        <time>2012-08-20T09:43:04Z</time>
      </trkpt>
      <trkpt lat="39.942842" lon="-0.666792">
        <ele>890.2</ele>
        <time>2012-08-20T09:43:05Z</time>
      </trkpt>
      <trkpt lat="39.942879" lon="-0.666704">
        <ele>889.8</ele>
        <time>2012-08-20T09:43:06Z</time>
      </trkpt>
      <trkpt lat="39.942920" lon="-0.666619">
        <ele>889.4</ele>
        <time>2012-08-20T09:43:07Z</time>
      </trkpt>
      <trkpt lat="39.943060" lon="-0.666373">
        <ele>889.4</ele>
        <time>2012-08-20T09:43:10Z</time>
      </trkpt>
      <trkpt lat="39.943377" lon="-0.665900">
        <ele>888.8</ele>
        <time>2012-08-20T09:43:16Z</time>
      </trkpt>
      <trkpt lat="39.943430" lon="-0.665821">
        <ele>888.4</ele>
        <time>2012-08-20T09:43:17Z</time>
      </trkpt>
      <trkpt lat="39.943482" lon="-0.665743">
        <ele>887.6</ele>
        <time>2012-08-20T09:43:18Z</time>
      </trkpt>
      <trkpt lat="39.943534" lon="-0.665665">
        <ele>887.2</ele>
        <time>2012-08-20T09:43:19Z</time>
      </trkpt>
      <trkpt lat="39.943923" lon="-0.665104">
        <ele>886.6</ele>
        <time>2012-08-20T09:43:26Z</time>
      </trkpt>
      <trkpt lat="39.943978" lon="-0.665023">
        <ele>886.2</ele>
        <time>2012-08-20T09:43:27Z</time>
      </trkpt>
      <trkpt lat="39.944031" lon="-0.664943">
        <ele>885.8</ele>
        <time>2012-08-20T09:43:28Z</time>
      </trkpt>
      <trkpt lat="39.944084" lon="-0.664865">
        <ele>885.4</ele>
        <time>2012-08-20T09:43:29Z</time>
      </trkpt>
      <trkpt lat="39.944139" lon="-0.664789">
        <ele>885.0</ele>
        <time>2012-08-20T09:43:30Z</time>
      </trkpt>
      <trkpt lat="39.944297" lon="-0.664560">
        <ele>885.0</ele>
        <time>2012-08-20T09:43:33Z</time>
      </trkpt>
      <trkpt lat="39.944603" lon="-0.664120">
        <ele>884.6</ele>
        <time>2012-08-20T09:43:39Z</time>
      </trkpt>
      <trkpt lat="39.944654" lon="-0.664046">
        <ele>884.2</ele>
        <time>2012-08-20T09:43:40Z</time>
      </trkpt>
      <trkpt lat="39.944701" lon="-0.663973">
        <ele>883.8</ele>
        <time>2012-08-20T09:43:41Z</time>
      </trkpt>
      <trkpt lat="39.944748" lon="-0.663897">
        <ele>883.2</ele>
        <time>2012-08-20T09:43:42Z</time>
      </trkpt>
      <trkpt lat="39.944795" lon="-0.663821">
        <ele>882.8</ele>
        <time>2012-08-20T09:43:43Z</time>
      </trkpt>
      <trkpt lat="39.945088" lon="-0.663274">
        <ele>882.8</ele>
        <time>2012-08-20T09:43:50Z</time>
      </trkpt>
      <trkpt lat="39.945204" lon="-0.663033">
        <ele>882.4</ele>
        <time>2012-08-20T09:43:53Z</time>
      </trkpt>
      <trkpt lat="39.945243" lon="-0.662951">
        <ele>882.0</ele>
        <time>2012-08-20T09:43:54Z</time>
      </trkpt>
      <trkpt lat="39.945283" lon="-0.662870">
        <ele>881.6</ele>
        <time>2012-08-20T09:43:55Z</time>
      </trkpt>
      <trkpt lat="39.945323" lon="-0.662787">
        <ele>881.2</ele>
        <time>2012-08-20T09:43:56Z</time>
      </trkpt>
      <trkpt lat="39.945363" lon="-0.662709">
        <ele>880.8</ele>
        <time>2012-08-20T09:43:57Z</time>
      </trkpt>
      <trkpt lat="39.945404" lon="-0.662630">
        <ele>880.8</ele>
        <time>2012-08-20T09:43:58Z</time>
      </trkpt>
      <trkpt lat="39.945676" lon="-0.662047">
        <ele>880.8</ele>
        <time>2012-08-20T09:44:05Z</time>
      </trkpt>
      <trkpt lat="39.945751" lon="-0.661882">
        <ele>880.4</ele>
        <time>2012-08-20T09:44:07Z</time>
      </trkpt>
      <trkpt lat="39.945790" lon="-0.661799">
        <ele>879.6</ele>
        <time>2012-08-20T09:44:08Z</time>
      </trkpt>
      <trkpt lat="39.945830" lon="-0.661716">
        <ele>879.2</ele>
        <time>2012-08-20T09:44:09Z</time>
      </trkpt>
      <trkpt lat="39.945871" lon="-0.661629">
        <ele>878.8</ele>
        <time>2012-08-20T09:44:10Z</time>
      </trkpt>
      <trkpt lat="39.946115" lon="-0.661129">
        <ele>878.8</ele>
        <time>2012-08-20T09:44:16Z</time>
      </trkpt>
      <trkpt lat="39.946402" lon="-0.660554">
        <ele>878.4</ele>
        <time>2012-08-20T09:44:23Z</time>
      </trkpt>
      <trkpt lat="39.946442" lon="-0.660471">
        <ele>878.0</ele>
        <time>2012-08-20T09:44:24Z</time>
      </trkpt>
      <trkpt lat="39.946482" lon="-0.660388">
        <ele>877.6</ele>
        <time>2012-08-20T09:44:25Z</time>
      </trkpt>
      <trkpt lat="39.946520" lon="-0.660305">
        <ele>877.2</ele>
        <time>2012-08-20T09:44:26Z</time>
      </trkpt>
      <trkpt lat="39.946563" lon="-0.660216">
        <ele>876.8</ele>
        <time>2012-08-20T09:44:27Z</time>
      </trkpt>
      <trkpt lat="39.946841" lon="-0.659643">
        <ele>876.8</ele>
        <time>2012-08-20T09:44:34Z</time>
      </trkpt>
      <trkpt lat="39.947168" lon="-0.659017">
        <ele>876.8</ele>
        <time>2012-08-20T09:44:42Z</time>
      </trkpt>
      <trkpt lat="39.947213" lon="-0.658946">
        <ele>876.8</ele>
        <time>2012-08-20T09:44:43Z</time>
      </trkpt>
      <trkpt lat="39.947258" lon="-0.658877">
        <ele>876.4</ele>
        <time>2012-08-20T09:44:44Z</time>
      </trkpt>
      <trkpt lat="39.947305" lon="-0.658809">
        <ele>876.0</ele>
        <time>2012-08-20T09:44:45Z</time>
      </trkpt>
      <trkpt lat="39.947356" lon="-0.658745">
        <ele>875.4</ele>
        <time>2012-08-20T09:44:46Z</time>
      </trkpt>
      <trkpt lat="39.947410" lon="-0.658686">
        <ele>875.0</ele>
        <time>2012-08-20T09:44:47Z</time>
      </trkpt>
      <trkpt lat="39.947468" lon="-0.658626">
        <ele>874.6</ele>
        <time>2012-08-20T09:44:48Z</time>
      </trkpt>
      <trkpt lat="39.947526" lon="-0.658563">
        <ele>874.6</ele>
        <time>2012-08-20T09:44:49Z</time>
      </trkpt>
      <trkpt lat="39.947793" lon="-0.658325">
        <ele>874.2</ele>
        <time>2012-08-20T09:44:53Z</time>
      </trkpt>
      <trkpt lat="39.947863" lon="-0.658269">
        <ele>873.8</ele>
        <time>2012-08-20T09:44:54Z</time>
      </trkpt>
      <trkpt lat="39.947933" lon="-0.658215">
        <ele>873.4</ele>
        <time>2012-08-20T09:44:55Z</time>
      </trkpt>
      <trkpt lat="39.948005" lon="-0.658166">
        <ele>873.0</ele>
        <time>2012-08-20T09:44:56Z</time>
      </trkpt>
      <trkpt lat="39.948077" lon="-0.658123">
        <ele>872.6</ele>
        <time>2012-08-20T09:44:57Z</time>
      </trkpt>
      <trkpt lat="39.948224" lon="-0.658047">
        <ele>872.6</ele>
        <time>2012-08-20T09:44:59Z</time>
      </trkpt>
      <trkpt lat="39.948294" lon="-0.658016">
        <ele>872.6</ele>
        <time>2012-08-20T09:45:00Z</time>
      </trkpt>
      <trkpt lat="39.948804" lon="-0.657798">
        <ele>872.2</ele>
        <time>2012-08-20T09:45:07Z</time>
      </trkpt>
      <trkpt lat="39.948885" lon="-0.657763">
        <ele>871.8</ele>
        <time>2012-08-20T09:45:08Z</time>
      </trkpt>
      <trkpt lat="39.948966" lon="-0.657727">
        <ele>871.2</ele>
        <time>2012-08-20T09:45:09Z</time>
      </trkpt>
      <trkpt lat="39.949052" lon="-0.657692">
        <ele>870.8</ele>
        <time>2012-08-20T09:45:10Z</time>
      </trkpt>
      <trkpt lat="39.949142" lon="-0.657659">
        <ele>870.4</ele>
        <time>2012-08-20T09:45:11Z</time>
      </trkpt>
      <trkpt lat="39.949327" lon="-0.657588">
        <ele>870.0</ele>
        <time>2012-08-20T09:45:13Z</time>
      </trkpt>
      <trkpt lat="39.949425" lon="-0.657548">
        <ele>869.4</ele>
        <time>2012-08-20T09:45:14Z</time>
      </trkpt>
      <trkpt lat="39.949518" lon="-0.657508">
        <ele>869.0</ele>
        <time>2012-08-20T09:45:15Z</time>
      </trkpt>
      <trkpt lat="39.949607" lon="-0.657474">
        <ele>868.4</ele>
        <time>2012-08-20T09:45:16Z</time>
      </trkpt>
      <trkpt lat="39.949699" lon="-0.657443">
        <ele>867.8</ele>
        <time>2012-08-20T09:45:17Z</time>
      </trkpt>
      <trkpt lat="39.949880" lon="-0.657375">
        <ele>867.8</ele>
        <time>2012-08-20T09:45:19Z</time>
      </trkpt>
      <trkpt lat="39.950054" lon="-0.657310">
        <ele>867.4</ele>
        <time>2012-08-20T09:45:21Z</time>
      </trkpt>
      <trkpt lat="39.950141" lon="-0.657276">
        <ele>867.0</ele>
        <time>2012-08-20T09:45:22Z</time>
      </trkpt>
      <trkpt lat="39.950228" lon="-0.657241">
        <ele>866.2</ele>
        <time>2012-08-20T09:45:23Z</time>
      </trkpt>
      <trkpt lat="39.950314" lon="-0.657204">
        <ele>865.8</ele>
        <time>2012-08-20T09:45:24Z</time>
      </trkpt>
      <trkpt lat="39.950649" lon="-0.657067">
        <ele>865.8</ele>
        <time>2012-08-20T09:45:28Z</time>
      </trkpt>
      <trkpt lat="39.950960" lon="-0.656939">
        <ele>865.4</ele>
        <time>2012-08-20T09:45:32Z</time>
      </trkpt>
      <trkpt lat="39.951035" lon="-0.656909">
        <ele>865.0</ele>
        <time>2012-08-20T09:45:33Z</time>
      </trkpt>
      <trkpt lat="39.951111" lon="-0.656877">
        <ele>864.6</ele>
        <time>2012-08-20T09:45:34Z</time>
      </trkpt>
      <trkpt lat="39.951187" lon="-0.656845">
        <ele>864.2</ele>
        <time>2012-08-20T09:45:35Z</time>
      </trkpt>
      <trkpt lat="39.951262" lon="-0.656814">
        <ele>863.8</ele>
        <time>2012-08-20T09:45:36Z</time>
      </trkpt>
      <trkpt lat="39.951776" lon="-0.656611">
        <ele>863.4</ele>
        <time>2012-08-20T09:45:43Z</time>
      </trkpt>
      <trkpt lat="39.951848" lon="-0.656584">
        <ele>862.8</ele>
        <time>2012-08-20T09:45:44Z</time>
      </trkpt>
      <trkpt lat="39.951914" lon="-0.656559">
        <ele>862.4</ele>
        <time>2012-08-20T09:45:45Z</time>
      </trkpt>
      <trkpt lat="39.951981" lon="-0.656533">
        <ele>862.0</ele>
        <time>2012-08-20T09:45:46Z</time>
      </trkpt>
      <trkpt lat="39.952049" lon="-0.656505">
        <ele>861.6</ele>
        <time>2012-08-20T09:45:47Z</time>
      </trkpt>
      <trkpt lat="39.952552" lon="-0.656304">
        <ele>861.2</ele>
        <time>2012-08-20T09:45:54Z</time>
      </trkpt>
      <trkpt lat="39.952626" lon="-0.656275">
        <ele>860.8</ele>
        <time>2012-08-20T09:45:55Z</time>
      </trkpt>
      <trkpt lat="39.952699" lon="-0.656245">
        <ele>860.4</ele>
        <time>2012-08-20T09:45:56Z</time>
      </trkpt>
      <trkpt lat="39.952772" lon="-0.656217">
        <ele>860.0</ele>
        <time>2012-08-20T09:45:57Z</time>
      </trkpt>
      <trkpt lat="39.952846" lon="-0.656187">
        <ele>859.6</ele>
        <time>2012-08-20T09:45:58Z</time>
      </trkpt>
      <trkpt lat="39.953225" lon="-0.656029">
        <ele>859.6</ele>
        <time>2012-08-20T09:46:03Z</time>
      </trkpt>
      <trkpt lat="39.953449" lon="-0.655940">
        <ele>859.2</ele>
        <time>2012-08-20T09:46:06Z</time>
      </trkpt>
      <trkpt lat="39.953524" lon="-0.655911">
        <ele>858.6</ele>
        <time>2012-08-20T09:46:07Z</time>
      </trkpt>
      <trkpt lat="39.953603" lon="-0.655882">
        <ele>858.2</ele>
        <time>2012-08-20T09:46:08Z</time>
      </trkpt>
      <trkpt lat="39.953679" lon="-0.655858">
        <ele>857.6</ele>
        <time>2012-08-20T09:46:09Z</time>
      </trkpt>
      <trkpt lat="39.953752" lon="-0.655831">
        <ele>857.2</ele>
        <time>2012-08-20T09:46:10Z</time>
      </trkpt>
      <trkpt lat="39.954073" lon="-0.655691">
        <ele>857.2</ele>
        <time>2012-08-20T09:46:15Z</time>
      </trkpt>
      <trkpt lat="39.954169" lon="-0.655645">
        <ele>857.2</ele>
        <time>2012-08-20T09:46:18Z</time>
      </trkpt>
      <trkpt lat="39.954181" lon="-0.655640">
        <ele>856.8</ele>
        <time>2012-08-20T09:46:19Z</time>
      </trkpt>
      <trkpt lat="39.954188" lon="-0.655640">
        <ele>856.4</ele>
        <time>2012-08-20T09:46:20Z</time>
      </trkpt>
      <trkpt lat="39.954190" lon="-0.655640">
        <ele>856.0</ele>
        <time>2012-08-20T09:46:21Z</time>
      </trkpt>
      <trkpt lat="39.954236" lon="-0.655635">
        <ele>855.2</ele>
        <time>2012-08-20T09:48:09Z</time>
      </trkpt>
      <trkpt lat="39.954387" lon="-0.655579">
        <ele>855.2</ele>
        <time>2012-08-20T09:48:15Z</time>
      </trkpt>
      <trkpt lat="39.954638" lon="-0.655476">
        <ele>855.2</ele>
        <time>2012-08-20T09:48:22Z</time>
      </trkpt>
      <trkpt lat="39.954928" lon="-0.655363">
        <ele>855.2</ele>
        <time>2012-08-20T09:48:31Z</time>
      </trkpt>
      <trkpt lat="39.954962" lon="-0.655348">
        <ele>855.6</ele>
        <time>2012-08-20T09:48:32Z</time>
      </trkpt>
      <trkpt lat="39.954998" lon="-0.655330">
        <ele>856.0</ele>
        <time>2012-08-20T09:48:33Z</time>
      </trkpt>
      <trkpt lat="39.955035" lon="-0.655314">
        <ele>856.4</ele>
        <time>2012-08-20T09:48:34Z</time>
      </trkpt>
      <trkpt lat="39.955076" lon="-0.655296">
        <ele>856.8</ele>
        <time>2012-08-20T09:48:35Z</time>
      </trkpt>
      <trkpt lat="39.955119" lon="-0.655280">
        <ele>857.2</ele>
        <time>2012-08-20T09:48:36Z</time>
      </trkpt>
      <trkpt lat="39.955204" lon="-0.655244">
        <ele>857.2</ele>
        <time>2012-08-20T09:48:38Z</time>
      </trkpt>
      <trkpt lat="39.955493" lon="-0.655125">
        <ele>857.2</ele>
        <time>2012-08-20T09:48:45Z</time>
      </trkpt>
      <trkpt lat="39.955535" lon="-0.655106">
        <ele>857.2</ele>
        <time>2012-08-20T09:48:46Z</time>
      </trkpt>
      <trkpt lat="39.955621" lon="-0.655068">
        <ele>857.2</ele>
        <time>2012-08-20T09:48:48Z</time>
      </trkpt>
      <trkpt lat="39.955711" lon="-0.655034">
        <ele>856.8</ele>
        <time>2012-08-20T09:48:50Z</time>
      </trkpt>
      <trkpt lat="39.955756" lon="-0.655014">
        <ele>856.4</ele>
        <time>2012-08-20T09:48:51Z</time>
      </trkpt>
      <trkpt lat="39.955803" lon="-0.654995">
        <ele>856.0</ele>
        <time>2012-08-20T09:48:52Z</time>
      </trkpt>
      <trkpt lat="39.955854" lon="-0.654974">
        <ele>855.4</ele>
        <time>2012-08-20T09:48:53Z</time>
      </trkpt>
      <trkpt lat="39.955907" lon="-0.654951">
        <ele>855.0</ele>
        <time>2012-08-20T09:48:54Z</time>
      </trkpt>
      <trkpt lat="39.956149" lon="-0.654845">
        <ele>855.0</ele>
        <time>2012-08-20T09:48:58Z</time>
      </trkpt>
      <trkpt lat="39.956286" lon="-0.654776">
        <ele>854.2</ele>
        <time>2012-08-20T09:49:00Z</time>
      </trkpt>
      <trkpt lat="39.956359" lon="-0.654739">
        <ele>853.6</ele>
        <time>2012-08-20T09:49:01Z</time>
      </trkpt>
      <trkpt lat="39.956430" lon="-0.654698">
        <ele>853.2</ele>
        <time>2012-08-20T09:49:02Z</time>
      </trkpt>
      <trkpt lat="39.956500" lon="-0.654656">
        <ele>852.8</ele>
        <time>2012-08-20T09:49:03Z</time>
      </trkpt>
      <trkpt lat="39.956572" lon="-0.654613">
        <ele>852.8</ele>
        <time>2012-08-20T09:49:04Z</time>
      </trkpt>
      <trkpt lat="39.956787" lon="-0.654464">
        <ele>852.2</ele>
        <time>2012-08-20T09:49:07Z</time>
      </trkpt>
      <trkpt lat="39.956859" lon="-0.654407">
        <ele>851.8</ele>
        <time>2012-08-20T09:49:08Z</time>
      </trkpt>
      <trkpt lat="39.956931" lon="-0.654349">
        <ele>851.4</ele>
        <time>2012-08-20T09:49:09Z</time>
      </trkpt>
      <trkpt lat="39.957004" lon="-0.654288">
        <ele>851.0</ele>
        <time>2012-08-20T09:49:10Z</time>
      </trkpt>
      <trkpt lat="39.957074" lon="-0.654222">
        <ele>850.6</ele>
        <time>2012-08-20T09:49:11Z</time>
      </trkpt>
      <trkpt lat="39.957398" lon="-0.653879">
        <ele>850.6</ele>
        <time>2012-08-20T09:49:16Z</time>
      </trkpt>
      <trkpt lat="39.957458" lon="-0.653806">
        <ele>850.0</ele>
        <time>2012-08-20T09:49:17Z</time>
      </trkpt>
      <trkpt lat="39.957517" lon="-0.653731">
        <ele>849.6</ele>
        <time>2012-08-20T09:49:18Z</time>
      </trkpt>
      <trkpt lat="39.957574" lon="-0.653656">
        <ele>849.2</ele>
        <time>2012-08-20T09:49:19Z</time>
      </trkpt>
      <trkpt lat="39.957633" lon="-0.653578">
        <ele>848.8</ele>
        <time>2012-08-20T09:49:20Z</time>
      </trkpt>
      <trkpt lat="39.957685" lon="-0.653498">
        <ele>848.2</ele>
        <time>2012-08-20T09:49:21Z</time>
      </trkpt>
      <trkpt lat="39.957784" lon="-0.653343">
        <ele>848.2</ele>
        <time>2012-08-20T09:49:23Z</time>
      </trkpt>
      <trkpt lat="39.957992" lon="-0.652950">
        <ele>847.8</ele>
        <time>2012-08-20T09:49:28Z</time>
      </trkpt>
      <trkpt lat="39.958032" lon="-0.652869">
        <ele>847.4</ele>
        <time>2012-08-20T09:49:29Z</time>
      </trkpt>
      <trkpt lat="39.958072" lon="-0.652788">
        <ele>847.0</ele>
        <time>2012-08-20T09:49:30Z</time>
      </trkpt>
      <trkpt lat="39.958113" lon="-0.652707">
        <ele>846.6</ele>
        <time>2012-08-20T09:49:31Z</time>
      </trkpt>
      <trkpt lat="39.958156" lon="-0.652621">
        <ele>846.2</ele>
        <time>2012-08-20T09:49:32Z</time>
      </trkpt>
      <trkpt lat="39.959016" lon="-0.649723">
        <ele>842.0</ele>
        <time>2012-08-20T09:50:04Z</time>
      </trkpt>
      <trkpt lat="39.959151" lon="-0.649416">
        <ele>842.0</ele>
        <time>2012-08-20T09:50:08Z</time>
      </trkpt>
      <trkpt lat="39.959388" lon="-0.649045">
        <ele>841.6</ele>
        <time>2012-08-20T09:50:14Z</time>
      </trkpt>
      <trkpt lat="39.959437" lon="-0.648973">
        <ele>841.2</ele>
        <time>2012-08-20T09:50:15Z</time>
      </trkpt>
      <trkpt lat="39.959487" lon="-0.648902">
        <ele>840.8</ele>
        <time>2012-08-20T09:50:16Z</time>
      </trkpt>
      <trkpt lat="39.959539" lon="-0.648832">
        <ele>840.4</ele>
        <time>2012-08-20T09:50:17Z</time>
      </trkpt>
      <trkpt lat="39.959593" lon="-0.648757">
        <ele>840.0</ele>
        <time>2012-08-20T09:50:18Z</time>
      </trkpt>
      <trkpt lat="39.959750" lon="-0.648537">
        <ele>839.4</ele>
        <time>2012-08-20T09:50:21Z</time>
      </trkpt>
      <trkpt lat="39.959804" lon="-0.648466">
        <ele>839.0</ele>
        <time>2012-08-20T09:50:22Z</time>
      </trkpt>
      <trkpt lat="39.959862" lon="-0.648392">
        <ele>838.6</ele>
        <time>2012-08-20T09:50:23Z</time>
      </trkpt>
      <trkpt lat="39.959917" lon="-0.648320">
        <ele>838.2</ele>
        <time>2012-08-20T09:50:24Z</time>
      </trkpt>
      <trkpt lat="39.959973" lon="-0.648247">
        <ele>837.8</ele>
        <time>2012-08-20T09:50:25Z</time>
      </trkpt>
      <trkpt lat="39.960139" lon="-0.648023">
        <ele>837.8</ele>
        <time>2012-08-20T09:50:28Z</time>
      </trkpt>
      <trkpt lat="39.960249" lon="-0.647870">
        <ele>837.4</ele>
        <time>2012-08-20T09:50:30Z</time>
      </trkpt>
      <trkpt lat="39.960308" lon="-0.647788">
        <ele>837.0</ele>
        <time>2012-08-20T09:50:31Z</time>
      </trkpt>
      <trkpt lat="39.960365" lon="-0.647712">
        <ele>836.6</ele>
        <time>2012-08-20T09:50:32Z</time>
      </trkpt>
      <trkpt lat="39.960422" lon="-0.647633">
        <ele>836.0</ele>
        <time>2012-08-20T09:50:33Z</time>
      </trkpt>
      <trkpt lat="39.960475" lon="-0.647553">
        <ele>835.6</ele>
        <time>2012-08-20T09:50:34Z</time>
      </trkpt>
      <trkpt lat="39.960530" lon="-0.647474">
        <ele>835.6</ele>
        <time>2012-08-20T09:50:35Z</time>
      </trkpt>
      <trkpt lat="39.960763" lon="-0.647170">
        <ele>835.2</ele>
        <time>2012-08-20T09:50:39Z</time>
      </trkpt>
      <trkpt lat="39.960819" lon="-0.647099">
        <ele>834.8</ele>
        <time>2012-08-20T09:50:40Z</time>
      </trkpt>
    </trkseg>
  </trk>
  <trk>
    <name>T3303249-13</name>
    <cmt>La ruta empieza en Ojos Negros. Hasta Santa Eulalia va por una carretera comarcal apenas transitada. Hay un tramo de unos 40 km durante el puerto del Escandón que no aparece reflejado en el track porque me quedé sin batería en el GPS pero la vía verde no tiene pérdida en esa zona</cmt>
    <desc>La ruta empieza en Ojos Negros. Hasta Santa Eulalia va por una carretera comarcal apenas transitada. Hay un tramo de unos 40 km durante el puerto del Escandón que no aparece reflejado en el track porque me quedé sin batería en el GPS pero la vía verde no tiene pérdida en esa zona</desc>
    <trkseg>
      <trkpt lat="39.960873" lon="-0.647026">
        <ele>834.4</ele>
        <time>2012-08-20T09:50:41Z</time>
      </trkpt>
      <trkpt lat="39.960925" lon="-0.646958">
        <ele>834.0</ele>
        <time>2012-08-20T09:50:42Z</time>
      </trkpt>
      <trkpt lat="39.960974" lon="-0.646895">
        <ele>833.6</ele>
        <time>2012-08-20T09:50:43Z</time>
      </trkpt>
      <trkpt lat="39.961142" lon="-0.646668">
        <ele>833.6</ele>
        <time>2012-08-20T09:50:47Z</time>
      </trkpt>
      <trkpt lat="39.961278" lon="-0.646491">
        <ele>833.6</ele>
        <time>2012-08-20T09:50:52Z</time>
      </trkpt>
      <trkpt lat="39.961287" lon="-0.646485">
        <ele>833.6</ele>
        <time>2012-08-20T09:50:54Z</time>
      </trkpt>
      <trkpt lat="39.961309" lon="-0.646468">
        <ele>833.6</ele>
        <time>2012-08-20T09:51:05Z</time>
      </trkpt>
      <trkpt lat="39.961331" lon="-0.646435">
        <ele>833.2</ele>
        <time>2012-08-20T09:51:07Z</time>
      </trkpt>
      <trkpt lat="39.961340" lon="-0.646421">
        <ele>832.8</ele>
        <time>2012-08-20T09:51:08Z</time>
      </trkpt>
      <trkpt lat="39.961349" lon="-0.646404">
        <ele>832.4</ele>
        <time>2012-08-20T09:51:09Z</time>
      </trkpt>
      <trkpt lat="39.961360" lon="-0.646388">
        <ele>832.0</ele>
        <time>2012-08-20T09:51:10Z</time>
      </trkpt>
      <trkpt lat="39.961371" lon="-0.646367">
        <ele>831.4</ele>
        <time>2012-08-20T09:51:11Z</time>
      </trkpt>
      <trkpt lat="39.961385" lon="-0.646363">
        <ele>831.4</ele>
        <time>2012-08-20T09:51:12Z</time>
      </trkpt>
      <trkpt lat="39.961389" lon="-0.646372">
        <ele>831.4</ele>
        <time>2012-08-20T09:51:15Z</time>
      </trkpt>
      <trkpt lat="39.961404" lon="-0.646353">
        <ele>831.4</ele>
        <time>2012-08-20T09:51:28Z</time>
      </trkpt>
      <trkpt lat="39.961406" lon="-0.646347">
        <ele>831.4</ele>
        <time>2012-08-20T09:51:31Z</time>
      </trkpt>
      <trkpt lat="39.961461" lon="-0.646271">
        <ele>831.4</ele>
        <time>2012-08-20T09:51:37Z</time>
      </trkpt>
      <trkpt lat="39.961491" lon="-0.646225">
        <ele>831.4</ele>
        <time>2012-08-20T09:51:39Z</time>
      </trkpt>
      <trkpt lat="39.961622" lon="-0.646039">
        <ele>831.4</ele>
        <time>2012-08-20T09:51:45Z</time>
      </trkpt>
      <trkpt lat="39.961820" lon="-0.645757">
        <ele>831.4</ele>
        <time>2012-08-20T09:51:52Z</time>
      </trkpt>
      <trkpt lat="39.961995" lon="-0.645419">
        <ele>831.0</ele>
        <time>2012-08-20T09:51:58Z</time>
      </trkpt>
      <trkpt lat="39.962619" lon="-0.644155">
        <ele>827.4</ele>
        <time>2012-08-20T09:52:15Z</time>
      </trkpt>
      <trkpt lat="39.962818" lon="-0.643536">
        <ele>827.4</ele>
        <time>2012-08-20T09:52:22Z</time>
      </trkpt>
      <trkpt lat="39.962844" lon="-0.643451">
        <ele>827.0</ele>
        <time>2012-08-20T09:52:23Z</time>
      </trkpt>
      <trkpt lat="39.962873" lon="-0.643362">
        <ele>826.6</ele>
        <time>2012-08-20T09:52:24Z</time>
      </trkpt>
      <trkpt lat="39.962903" lon="-0.643270">
        <ele>826.2</ele>
        <time>2012-08-20T09:52:25Z</time>
      </trkpt>
      <trkpt lat="39.962936" lon="-0.643174">
        <ele>825.8</ele>
        <time>2012-08-20T09:52:26Z</time>
      </trkpt>
      <trkpt lat="39.962968" lon="-0.643080">
        <ele>825.4</ele>
        <time>2012-08-20T09:52:27Z</time>
      </trkpt>
      <trkpt lat="39.963025" lon="-0.642897">
        <ele>825.4</ele>
        <time>2012-08-20T09:52:29Z</time>
      </trkpt>
      <trkpt lat="39.963786" lon="-0.640520">
        <ele>822.8</ele>
        <time>2012-08-20T09:52:54Z</time>
      </trkpt>
      <trkpt lat="39.963817" lon="-0.640421">
        <ele>822.2</ele>
        <time>2012-08-20T09:52:55Z</time>
      </trkpt>
      <trkpt lat="39.963841" lon="-0.640324">
        <ele>821.8</ele>
        <time>2012-08-20T09:52:56Z</time>
      </trkpt>
      <trkpt lat="39.963866" lon="-0.640221">
        <ele>821.4</ele>
        <time>2012-08-20T09:52:57Z</time>
      </trkpt>
      <trkpt lat="39.963890" lon="-0.640122">
        <ele>821.0</ele>
        <time>2012-08-20T09:52:58Z</time>
      </trkpt>
      <trkpt lat="39.964107" lon="-0.639443">
        <ele>820.6</ele>
        <time>2012-08-20T09:53:05Z</time>
      </trkpt>
      <trkpt lat="39.964140" lon="-0.639340">
        <ele>820.2</ele>
        <time>2012-08-20T09:53:06Z</time>
      </trkpt>
      <trkpt lat="39.964170" lon="-0.639244">
        <ele>819.4</ele>
        <time>2012-08-20T09:53:07Z</time>
      </trkpt>
      <trkpt lat="39.964199" lon="-0.639145">
        <ele>818.8</ele>
        <time>2012-08-20T09:53:08Z</time>
      </trkpt>
      <trkpt lat="39.964397" lon="-0.638561">
        <ele>818.8</ele>
        <time>2012-08-20T09:53:14Z</time>
      </trkpt>
      <trkpt lat="39.964468" lon="-0.638368">
        <ele>818.4</ele>
        <time>2012-08-20T09:53:16Z</time>
      </trkpt>
      <trkpt lat="39.964506" lon="-0.638274">
        <ele>818.0</ele>
        <time>2012-08-20T09:53:17Z</time>
      </trkpt>
      <trkpt lat="39.964545" lon="-0.638181">
        <ele>817.6</ele>
        <time>2012-08-20T09:53:18Z</time>
      </trkpt>
      <trkpt lat="39.964580" lon="-0.638086">
        <ele>817.2</ele>
        <time>2012-08-20T09:53:19Z</time>
      </trkpt>
      <trkpt lat="39.964614" lon="-0.637990">
        <ele>816.6</ele>
        <time>2012-08-20T09:53:20Z</time>
      </trkpt>
      <trkpt lat="39.964656" lon="-0.637890">
        <ele>816.6</ele>
        <time>2012-08-20T09:53:21Z</time>
      </trkpt>
      <trkpt lat="39.964913" lon="-0.637320">
        <ele>816.2</ele>
        <time>2012-08-20T09:53:27Z</time>
      </trkpt>
      <trkpt lat="39.964958" lon="-0.637221">
        <ele>815.8</ele>
        <time>2012-08-20T09:53:28Z</time>
      </trkpt>
      <trkpt lat="39.965004" lon="-0.637125">
        <ele>815.4</ele>
        <time>2012-08-20T09:53:29Z</time>
      </trkpt>
      <trkpt lat="39.965048" lon="-0.637028">
        <ele>815.0</ele>
        <time>2012-08-20T09:53:30Z</time>
      </trkpt>
      <trkpt lat="39.965093" lon="-0.636931">
        <ele>814.4</ele>
        <time>2012-08-20T09:53:31Z</time>
      </trkpt>
      <trkpt lat="39.965340" lon="-0.636455">
        <ele>814.0</ele>
        <time>2012-08-20T09:53:36Z</time>
      </trkpt>
      <trkpt lat="39.965391" lon="-0.636367">
        <ele>813.6</ele>
        <time>2012-08-20T09:53:37Z</time>
      </trkpt>
      <trkpt lat="39.965442" lon="-0.636278">
        <ele>813.2</ele>
        <time>2012-08-20T09:53:38Z</time>
      </trkpt>
      <trkpt lat="39.965491" lon="-0.636188">
        <ele>812.8</ele>
        <time>2012-08-20T09:53:39Z</time>
      </trkpt>
      <trkpt lat="39.965538" lon="-0.636100">
        <ele>812.4</ele>
        <time>2012-08-20T09:53:40Z</time>
      </trkpt>
      <trkpt lat="39.965785" lon="-0.635692">
        <ele>812.4</ele>
        <time>2012-08-20T09:53:45Z</time>
      </trkpt>
      <trkpt lat="39.965837" lon="-0.635616">
        <ele>812.0</ele>
        <time>2012-08-20T09:53:46Z</time>
      </trkpt>
      <trkpt lat="39.965891" lon="-0.635547">
        <ele>811.6</ele>
        <time>2012-08-20T09:53:47Z</time>
      </trkpt>
      <trkpt lat="39.965945" lon="-0.635480">
        <ele>811.2</ele>
        <time>2012-08-20T09:53:48Z</time>
      </trkpt>
      <trkpt lat="39.965999" lon="-0.635410">
        <ele>810.8</ele>
        <time>2012-08-20T09:53:49Z</time>
      </trkpt>
      <trkpt lat="39.966053" lon="-0.635340">
        <ele>810.4</ele>
        <time>2012-08-20T09:53:50Z</time>
      </trkpt>
      <trkpt lat="39.966108" lon="-0.635272">
        <ele>810.4</ele>
        <time>2012-08-20T09:53:51Z</time>
      </trkpt>
      <trkpt lat="39.966442" lon="-0.634835">
        <ele>810.4</ele>
        <time>2012-08-20T09:53:57Z</time>
      </trkpt>
      <trkpt lat="39.966677" lon="-0.634529">
        <ele>809.8</ele>
        <time>2012-08-20T09:54:01Z</time>
      </trkpt>
      <trkpt lat="39.966737" lon="-0.634449">
        <ele>809.4</ele>
        <time>2012-08-20T09:54:02Z</time>
      </trkpt>
      <trkpt lat="39.966787" lon="-0.634377">
        <ele>809.0</ele>
        <time>2012-08-20T09:54:03Z</time>
      </trkpt>
      <trkpt lat="39.966844" lon="-0.634305">
        <ele>808.6</ele>
        <time>2012-08-20T09:54:04Z</time>
      </trkpt>
      <trkpt lat="39.966902" lon="-0.634233">
        <ele>808.2</ele>
        <time>2012-08-20T09:54:05Z</time>
      </trkpt>
      <trkpt lat="39.967220" lon="-0.633757">
        <ele>808.2</ele>
        <time>2012-08-20T09:54:11Z</time>
      </trkpt>
      <trkpt lat="39.967310" lon="-0.633598">
        <ele>807.8</ele>
        <time>2012-08-20T09:54:13Z</time>
      </trkpt>
      <trkpt lat="39.967345" lon="-0.633523">
        <ele>807.4</ele>
        <time>2012-08-20T09:54:14Z</time>
      </trkpt>
      <trkpt lat="39.967376" lon="-0.633449">
        <ele>807.0</ele>
        <time>2012-08-20T09:54:15Z</time>
      </trkpt>
      <trkpt lat="39.967405" lon="-0.633381">
        <ele>806.4</ele>
        <time>2012-08-20T09:54:16Z</time>
      </trkpt>
      <trkpt lat="39.967435" lon="-0.633312">
        <ele>806.0</ele>
        <time>2012-08-20T09:54:17Z</time>
      </trkpt>
      <trkpt lat="39.967557" lon="-0.633044">
        <ele>806.0</ele>
        <time>2012-08-20T09:54:21Z</time>
      </trkpt>
      <trkpt lat="39.967606" lon="-0.632897">
        <ele>806.0</ele>
        <time>2012-08-20T09:54:23Z</time>
      </trkpt>
      <trkpt lat="39.967752" lon="-0.632453">
        <ele>805.6</ele>
        <time>2012-08-20T09:54:29Z</time>
      </trkpt>
      <trkpt lat="39.967780" lon="-0.632374">
        <ele>805.2</ele>
        <time>2012-08-20T09:54:30Z</time>
      </trkpt>
      <trkpt lat="39.967808" lon="-0.632301">
        <ele>804.8</ele>
        <time>2012-08-20T09:54:31Z</time>
      </trkpt>
      <trkpt lat="39.967838" lon="-0.632229">
        <ele>804.4</ele>
        <time>2012-08-20T09:54:32Z</time>
      </trkpt>
      <trkpt lat="39.967867" lon="-0.632154">
        <ele>804.0</ele>
        <time>2012-08-20T09:54:33Z</time>
      </trkpt>
      <trkpt lat="39.968002" lon="-0.631756">
        <ele>804.0</ele>
        <time>2012-08-20T09:54:38Z</time>
      </trkpt>
      <trkpt lat="39.968130" lon="-0.631447">
        <ele>803.4</ele>
        <time>2012-08-20T09:54:42Z</time>
      </trkpt>
      <trkpt lat="39.968169" lon="-0.631377">
        <ele>803.0</ele>
        <time>2012-08-20T09:54:43Z</time>
      </trkpt>
      <trkpt lat="39.968211" lon="-0.631310">
        <ele>802.4</ele>
        <time>2012-08-20T09:54:44Z</time>
      </trkpt>
      <trkpt lat="39.968247" lon="-0.631238">
        <ele>802.0</ele>
        <time>2012-08-20T09:54:45Z</time>
      </trkpt>
      <trkpt lat="39.968283" lon="-0.631154">
        <ele>801.6</ele>
        <time>2012-08-20T09:54:46Z</time>
      </trkpt>
      <trkpt lat="39.968405" lon="-0.630908">
        <ele>801.6</ele>
        <time>2012-08-20T09:54:49Z</time>
      </trkpt>
      <trkpt lat="39.968604" lon="-0.630470">
        <ele>801.6</ele>
        <time>2012-08-20T09:54:54Z</time>
      </trkpt>
      <trkpt lat="39.968654" lon="-0.630387">
        <ele>801.6</ele>
        <time>2012-08-20T09:54:55Z</time>
      </trkpt>
      <trkpt lat="39.968822" lon="-0.630143">
        <ele>801.0</ele>
        <time>2012-08-20T09:54:58Z</time>
      </trkpt>
      <trkpt lat="39.968880" lon="-0.630065">
        <ele>800.6</ele>
        <time>2012-08-20T09:54:59Z</time>
      </trkpt>
      <trkpt lat="39.968942" lon="-0.629982">
        <ele>800.2</ele>
        <time>2012-08-20T09:55:00Z</time>
      </trkpt>
      <trkpt lat="39.969345" lon="-0.629361">
        <ele>799.4</ele>
        <time>2012-08-20T09:55:07Z</time>
      </trkpt>
      <trkpt lat="39.969419" lon="-0.629154">
        <ele>799.4</ele>
        <time>2012-08-20T09:55:09Z</time>
      </trkpt>
      <trkpt lat="39.969459" lon="-0.629047">
        <ele>799.0</ele>
        <time>2012-08-20T09:55:10Z</time>
      </trkpt>
      <trkpt lat="39.969499" lon="-0.628942">
        <ele>798.0</ele>
        <time>2012-08-20T09:55:11Z</time>
      </trkpt>
      <trkpt lat="39.969543" lon="-0.628840">
        <ele>797.6</ele>
        <time>2012-08-20T09:55:12Z</time>
      </trkpt>
      <trkpt lat="39.969587" lon="-0.628739">
        <ele>797.2</ele>
        <time>2012-08-20T09:55:13Z</time>
      </trkpt>
      <trkpt lat="39.969728" lon="-0.628319">
        <ele>797.2</ele>
        <time>2012-08-20T09:55:17Z</time>
      </trkpt>
      <trkpt lat="39.969817" lon="-0.628010">
        <ele>796.8</ele>
        <time>2012-08-20T09:55:20Z</time>
      </trkpt>
      <trkpt lat="39.969836" lon="-0.627904">
        <ele>796.4</ele>
        <time>2012-08-20T09:55:21Z</time>
      </trkpt>
      <trkpt lat="39.969851" lon="-0.627798">
        <ele>795.8</ele>
        <time>2012-08-20T09:55:22Z</time>
      </trkpt>
      <trkpt lat="39.969866" lon="-0.627691">
        <ele>795.4</ele>
        <time>2012-08-20T09:55:23Z</time>
      </trkpt>
      <trkpt lat="39.969881" lon="-0.627583">
        <ele>795.0</ele>
        <time>2012-08-20T09:55:24Z</time>
      </trkpt>
      <trkpt lat="39.969959" lon="-0.626801">
        <ele>794.6</ele>
        <time>2012-08-20T09:55:31Z</time>
      </trkpt>
      <trkpt lat="39.969961" lon="-0.626688">
        <ele>794.2</ele>
        <time>2012-08-20T09:55:32Z</time>
      </trkpt>
      <trkpt lat="39.969960" lon="-0.626572">
        <ele>793.8</ele>
        <time>2012-08-20T09:55:33Z</time>
      </trkpt>
      <trkpt lat="39.969957" lon="-0.626464">
        <ele>793.0</ele>
        <time>2012-08-20T09:55:34Z</time>
      </trkpt>
      <trkpt lat="39.969940" lon="-0.626132">
        <ele>793.0</ele>
        <time>2012-08-20T09:55:37Z</time>
      </trkpt>
      <trkpt lat="39.969846" lon="-0.625464">
        <ele>792.6</ele>
        <time>2012-08-20T09:55:43Z</time>
      </trkpt>
      <trkpt lat="39.969824" lon="-0.625355">
        <ele>792.0</ele>
        <time>2012-08-20T09:55:44Z</time>
      </trkpt>
      <trkpt lat="39.969803" lon="-0.625246">
        <ele>791.6</ele>
        <time>2012-08-20T09:55:45Z</time>
      </trkpt>
      <trkpt lat="39.969782" lon="-0.625137">
        <ele>791.2</ele>
        <time>2012-08-20T09:55:46Z</time>
      </trkpt>
      <trkpt lat="39.969763" lon="-0.625027">
        <ele>790.8</ele>
        <time>2012-08-20T09:55:47Z</time>
      </trkpt>
      <trkpt lat="39.969657" lon="-0.624494">
        <ele>790.4</ele>
        <time>2012-08-20T09:55:52Z</time>
      </trkpt>
      <trkpt lat="39.969631" lon="-0.624389">
        <ele>790.0</ele>
        <time>2012-08-20T09:55:53Z</time>
      </trkpt>
      <trkpt lat="39.969606" lon="-0.624285">
        <ele>789.6</ele>
        <time>2012-08-20T09:55:54Z</time>
      </trkpt>
      <trkpt lat="39.969584" lon="-0.624180">
        <ele>789.2</ele>
        <time>2012-08-20T09:55:55Z</time>
      </trkpt>
      <trkpt lat="39.969560" lon="-0.624071">
        <ele>788.8</ele>
        <time>2012-08-20T09:55:56Z</time>
      </trkpt>
      <trkpt lat="39.969449" lon="-0.623550">
        <ele>788.8</ele>
        <time>2012-08-20T09:56:01Z</time>
      </trkpt>
      <trkpt lat="39.969379" lon="-0.623215">
        <ele>788.4</ele>
        <time>2012-08-20T09:56:04Z</time>
      </trkpt>
      <trkpt lat="39.969355" lon="-0.623101">
        <ele>787.8</ele>
        <time>2012-08-20T09:56:05Z</time>
      </trkpt>
      <trkpt lat="39.969334" lon="-0.622988">
        <ele>787.4</ele>
        <time>2012-08-20T09:56:06Z</time>
      </trkpt>
      <trkpt lat="39.969311" lon="-0.622876">
        <ele>787.0</ele>
        <time>2012-08-20T09:56:07Z</time>
      </trkpt>
      <trkpt lat="39.969290" lon="-0.622763">
        <ele>786.6</ele>
        <time>2012-08-20T09:56:08Z</time>
      </trkpt>
      <trkpt lat="39.969267" lon="-0.622650">
        <ele>786.6</ele>
        <time>2012-08-20T09:56:09Z</time>
      </trkpt>
      <trkpt lat="39.969110" lon="-0.622128">
        <ele>786.2</ele>
        <time>2012-08-20T09:56:14Z</time>
      </trkpt>
      <trkpt lat="39.969071" lon="-0.622029">
        <ele>785.8</ele>
        <time>2012-08-20T09:56:15Z</time>
      </trkpt>
      <trkpt lat="39.969028" lon="-0.621930">
        <ele>785.4</ele>
        <time>2012-08-20T09:56:16Z</time>
      </trkpt>
      <trkpt lat="39.968984" lon="-0.621833">
        <ele>785.0</ele>
        <time>2012-08-20T09:56:17Z</time>
      </trkpt>
      <trkpt lat="39.968934" lon="-0.621741">
        <ele>784.6</ele>
        <time>2012-08-20T09:56:18Z</time>
      </trkpt>
      <trkpt lat="39.968832" lon="-0.621556">
        <ele>784.6</ele>
        <time>2012-08-20T09:56:20Z</time>
      </trkpt>
      <trkpt lat="39.968546" lon="-0.621150">
        <ele>784.0</ele>
        <time>2012-08-20T09:56:25Z</time>
      </trkpt>
      <trkpt lat="39.968485" lon="-0.621077">
        <ele>783.6</ele>
        <time>2012-08-20T09:56:26Z</time>
      </trkpt>
      <trkpt lat="39.968422" lon="-0.621006">
        <ele>783.2</ele>
        <time>2012-08-20T09:56:27Z</time>
      </trkpt>
      <trkpt lat="39.968359" lon="-0.620938">
        <ele>782.8</ele>
        <time>2012-08-20T09:56:28Z</time>
      </trkpt>
      <trkpt lat="39.968295" lon="-0.620872">
        <ele>782.2</ele>
        <time>2012-08-20T09:56:29Z</time>
      </trkpt>
      <trkpt lat="39.968095" lon="-0.620700">
        <ele>782.2</ele>
        <time>2012-08-20T09:56:32Z</time>
      </trkpt>
      <trkpt lat="39.967725" lon="-0.620441">
        <ele>781.8</ele>
        <time>2012-08-20T09:56:37Z</time>
      </trkpt>
      <trkpt lat="39.967647" lon="-0.620399">
        <ele>781.4</ele>
        <time>2012-08-20T09:56:38Z</time>
      </trkpt>
      <trkpt lat="39.967570" lon="-0.620355">
        <ele>781.0</ele>
        <time>2012-08-20T09:56:39Z</time>
      </trkpt>
      <trkpt lat="39.967490" lon="-0.620322">
        <ele>780.4</ele>
        <time>2012-08-20T09:56:40Z</time>
      </trkpt>
      <trkpt lat="39.967410" lon="-0.620288">
        <ele>780.0</ele>
        <time>2012-08-20T09:56:41Z</time>
      </trkpt>
      <trkpt lat="39.967164" lon="-0.620197">
        <ele>780.0</ele>
        <time>2012-08-20T09:56:44Z</time>
      </trkpt>
      <trkpt lat="39.966919" lon="-0.620131">
        <ele>780.0</ele>
        <time>2012-08-20T09:56:47Z</time>
      </trkpt>
      <trkpt lat="39.966837" lon="-0.620125">
        <ele>779.2</ele>
        <time>2012-08-20T09:56:48Z</time>
      </trkpt>
      <trkpt lat="39.966755" lon="-0.620125">
        <ele>778.8</ele>
        <time>2012-08-20T09:56:49Z</time>
      </trkpt>
      <trkpt lat="39.966667" lon="-0.620124">
        <ele>778.4</ele>
        <time>2012-08-20T09:56:50Z</time>
      </trkpt>
      <trkpt lat="39.966587" lon="-0.620127">
        <ele>778.0</ele>
        <time>2012-08-20T09:56:51Z</time>
      </trkpt>
      <trkpt lat="39.966252" lon="-0.620176">
        <ele>778.0</ele>
        <time>2012-08-20T09:56:55Z</time>
      </trkpt>
      <trkpt lat="39.966079" lon="-0.620214">
        <ele>777.6</ele>
        <time>2012-08-20T09:56:57Z</time>
      </trkpt>
      <trkpt lat="39.965988" lon="-0.620233">
        <ele>777.2</ele>
        <time>2012-08-20T09:56:58Z</time>
      </trkpt>
      <trkpt lat="39.965902" lon="-0.620254">
        <ele>776.6</ele>
        <time>2012-08-20T09:56:59Z</time>
      </trkpt>
      <trkpt lat="39.965814" lon="-0.620271">
        <ele>776.2</ele>
        <time>2012-08-20T09:57:00Z</time>
      </trkpt>
      <trkpt lat="39.965725" lon="-0.620288">
        <ele>775.8</ele>
        <time>2012-08-20T09:57:01Z</time>
      </trkpt>
      <trkpt lat="39.965468" lon="-0.620364">
        <ele>775.8</ele>
        <time>2012-08-20T09:57:04Z</time>
      </trkpt>
      <trkpt lat="39.964944" lon="-0.620522">
        <ele>775.4</ele>
        <time>2012-08-20T09:57:10Z</time>
      </trkpt>
      <trkpt lat="39.964854" lon="-0.620546">
        <ele>775.0</ele>
        <time>2012-08-20T09:57:11Z</time>
      </trkpt>
      <trkpt lat="39.964768" lon="-0.620563">
        <ele>774.6</ele>
        <time>2012-08-20T09:57:12Z</time>
      </trkpt>
      <trkpt lat="39.964683" lon="-0.620578">
        <ele>773.8</ele>
        <time>2012-08-20T09:57:13Z</time>
      </trkpt>
      <trkpt lat="39.964135" lon="-0.620660">
        <ele>773.4</ele>
        <time>2012-08-20T09:57:20Z</time>
      </trkpt>
      <trkpt lat="39.964057" lon="-0.620678">
        <ele>773.0</ele>
        <time>2012-08-20T09:57:21Z</time>
      </trkpt>
      <trkpt lat="39.963978" lon="-0.620695">
        <ele>772.6</ele>
        <time>2012-08-20T09:57:22Z</time>
      </trkpt>
      <trkpt lat="39.963903" lon="-0.620709">
        <ele>772.2</ele>
        <time>2012-08-20T09:57:23Z</time>
      </trkpt>
      <trkpt lat="39.963828" lon="-0.620722">
        <ele>771.8</ele>
        <time>2012-08-20T09:57:24Z</time>
      </trkpt>
      <trkpt lat="39.963617" lon="-0.620751">
        <ele>771.8</ele>
        <time>2012-08-20T09:57:27Z</time>
      </trkpt>
      <trkpt lat="39.963107" lon="-0.620783">
        <ele>771.8</ele>
        <time>2012-08-20T09:57:34Z</time>
      </trkpt>
      <trkpt lat="39.963033" lon="-0.620781">
        <ele>771.2</ele>
        <time>2012-08-20T09:57:35Z</time>
      </trkpt>
      <trkpt lat="39.962957" lon="-0.620776">
        <ele>770.8</ele>
        <time>2012-08-20T09:57:36Z</time>
      </trkpt>
      <trkpt lat="39.962885" lon="-0.620771">
        <ele>770.0</ele>
        <time>2012-08-20T09:57:37Z</time>
      </trkpt>
      <trkpt lat="39.962815" lon="-0.620766">
        <ele>769.6</ele>
        <time>2012-08-20T09:57:38Z</time>
      </trkpt>
      <trkpt lat="39.962530" lon="-0.620722">
        <ele>769.6</ele>
        <time>2012-08-20T09:57:42Z</time>
      </trkpt>
      <trkpt lat="39.962307" lon="-0.620671">
        <ele>769.2</ele>
        <time>2012-08-20T09:57:45Z</time>
      </trkpt>
      <trkpt lat="39.962234" lon="-0.620652">
        <ele>768.8</ele>
        <time>2012-08-20T09:57:46Z</time>
      </trkpt>
      <trkpt lat="39.962160" lon="-0.620632">
        <ele>768.4</ele>
        <time>2012-08-20T09:57:47Z</time>
      </trkpt>
      <trkpt lat="39.962087" lon="-0.620610">
        <ele>768.0</ele>
        <time>2012-08-20T09:57:48Z</time>
      </trkpt>
      <trkpt lat="39.962010" lon="-0.620591">
        <ele>767.6</ele>
        <time>2012-08-20T09:57:49Z</time>
      </trkpt>
      <trkpt lat="39.961857" lon="-0.620545">
        <ele>767.6</ele>
        <time>2012-08-20T09:57:51Z</time>
      </trkpt>
      <trkpt lat="39.961458" lon="-0.620431">
        <ele>767.2</ele>
        <time>2012-08-20T09:57:56Z</time>
      </trkpt>
      <trkpt lat="39.961379" lon="-0.620411">
        <ele>766.8</ele>
        <time>2012-08-20T09:57:57Z</time>
      </trkpt>
      <trkpt lat="39.961300" lon="-0.620390">
        <ele>766.4</ele>
        <time>2012-08-20T09:57:58Z</time>
      </trkpt>
      <trkpt lat="39.961217" lon="-0.620371">
        <ele>766.0</ele>
        <time>2012-08-20T09:57:59Z</time>
      </trkpt>
      <trkpt lat="39.961137" lon="-0.620349">
        <ele>765.6</ele>
        <time>2012-08-20T09:58:00Z</time>
      </trkpt>
      <trkpt lat="39.960582" lon="-0.620138">
        <ele>765.0</ele>
        <time>2012-08-20T09:58:07Z</time>
      </trkpt>
      <trkpt lat="39.960502" lon="-0.620096">
        <ele>764.6</ele>
        <time>2012-08-20T09:58:08Z</time>
      </trkpt>
      <trkpt lat="39.960429" lon="-0.620049">
        <ele>764.2</ele>
        <time>2012-08-20T09:58:09Z</time>
      </trkpt>
      <trkpt lat="39.960356" lon="-0.619995">
        <ele>763.8</ele>
        <time>2012-08-20T09:58:10Z</time>
      </trkpt>
      <trkpt lat="39.960288" lon="-0.619940">
        <ele>763.4</ele>
        <time>2012-08-20T09:58:11Z</time>
      </trkpt>
      <trkpt lat="39.960148" lon="-0.619830">
        <ele>763.4</ele>
        <time>2012-08-20T09:58:13Z</time>
      </trkpt>
      <trkpt lat="39.959759" lon="-0.619433">
        <ele>763.4</ele>
        <time>2012-08-20T09:58:19Z</time>
      </trkpt>
      <trkpt lat="39.959641" lon="-0.619283">
        <ele>763.0</ele>
        <time>2012-08-20T09:58:21Z</time>
      </trkpt>
      <trkpt lat="39.959586" lon="-0.619203">
        <ele>762.6</ele>
        <time>2012-08-20T09:58:22Z</time>
      </trkpt>
      <trkpt lat="39.959529" lon="-0.619123">
        <ele>762.2</ele>
        <time>2012-08-20T09:58:23Z</time>
      </trkpt>
      <trkpt lat="39.959473" lon="-0.619037">
        <ele>761.8</ele>
        <time>2012-08-20T09:58:24Z</time>
      </trkpt>
      <trkpt lat="39.959423" lon="-0.618950">
        <ele>761.2</ele>
        <time>2012-08-20T09:58:25Z</time>
      </trkpt>
      <trkpt lat="39.959203" lon="-0.618490">
        <ele>760.8</ele>
        <time>2012-08-20T09:58:30Z</time>
      </trkpt>
      <trkpt lat="39.959160" lon="-0.618388">
        <ele>760.4</ele>
        <time>2012-08-20T09:58:31Z</time>
      </trkpt>
      <trkpt lat="39.959118" lon="-0.618292">
        <ele>760.0</ele>
        <time>2012-08-20T09:58:32Z</time>
      </trkpt>
      <trkpt lat="39.959076" lon="-0.618194">
        <ele>759.6</ele>
        <time>2012-08-20T09:58:33Z</time>
      </trkpt>
      <trkpt lat="39.959035" lon="-0.618097">
        <ele>759.2</ele>
        <time>2012-08-20T09:58:34Z</time>
      </trkpt>
      <trkpt lat="39.958779" lon="-0.617499">
        <ele>759.2</ele>
        <time>2012-08-20T09:58:40Z</time>
      </trkpt>
      <trkpt lat="39.958693" lon="-0.617305">
        <ele>758.8</ele>
        <time>2012-08-20T09:58:42Z</time>
      </trkpt>
      <trkpt lat="39.958652" lon="-0.617209">
        <ele>758.4</ele>
        <time>2012-08-20T09:58:43Z</time>
      </trkpt>
      <trkpt lat="39.958612" lon="-0.617110">
        <ele>758.0</ele>
        <time>2012-08-20T09:58:44Z</time>
      </trkpt>
      <trkpt lat="39.958569" lon="-0.617012">
        <ele>757.6</ele>
        <time>2012-08-20T09:58:45Z</time>
      </trkpt>
      <trkpt lat="39.958523" lon="-0.616911">
        <ele>757.2</ele>
        <time>2012-08-20T09:58:46Z</time>
      </trkpt>
      <trkpt lat="39.958435" lon="-0.616718">
        <ele>757.2</ele>
        <time>2012-08-20T09:58:48Z</time>
      </trkpt>
      <trkpt lat="39.958259" lon="-0.616342">
        <ele>756.8</ele>
        <time>2012-08-20T09:58:52Z</time>
      </trkpt>
      <trkpt lat="39.958210" lon="-0.616254">
        <ele>756.4</ele>
        <time>2012-08-20T09:58:53Z</time>
      </trkpt>
      <trkpt lat="39.958154" lon="-0.616162">
        <ele>756.0</ele>
        <time>2012-08-20T09:58:54Z</time>
      </trkpt>
      <trkpt lat="39.958102" lon="-0.616076">
        <ele>755.6</ele>
        <time>2012-08-20T09:58:55Z</time>
      </trkpt>
      <trkpt lat="39.958047" lon="-0.615992">
        <ele>755.2</ele>
        <time>2012-08-20T09:58:56Z</time>
      </trkpt>
      <trkpt lat="39.957740" lon="-0.615618">
        <ele>755.2</ele>
        <time>2012-08-20T09:59:01Z</time>
      </trkpt>
      <trkpt lat="39.957673" lon="-0.615551">
        <ele>754.8</ele>
        <time>2012-08-20T09:59:02Z</time>
      </trkpt>
      <trkpt lat="39.957608" lon="-0.615487">
        <ele>754.2</ele>
        <time>2012-08-20T09:59:03Z</time>
      </trkpt>
      <trkpt lat="39.957539" lon="-0.615429">
        <ele>753.8</ele>
        <time>2012-08-20T09:59:04Z</time>
      </trkpt>
      <trkpt lat="39.957470" lon="-0.615369">
        <ele>753.4</ele>
        <time>2012-08-20T09:59:05Z</time>
      </trkpt>
      <trkpt lat="39.957400" lon="-0.615310">
        <ele>753.0</ele>
        <time>2012-08-20T09:59:06Z</time>
      </trkpt>
      <trkpt lat="39.957327" lon="-0.615255">
        <ele>753.0</ele>
        <time>2012-08-20T09:59:07Z</time>
      </trkpt>
      <trkpt lat="39.956941" lon="-0.615018">
        <ele>752.6</ele>
        <time>2012-08-20T09:59:12Z</time>
      </trkpt>
      <trkpt lat="39.956861" lon="-0.614982">
        <ele>752.2</ele>
        <time>2012-08-20T09:59:13Z</time>
      </trkpt>
      <trkpt lat="39.956782" lon="-0.614944">
        <ele>751.8</ele>
        <time>2012-08-20T09:59:14Z</time>
      </trkpt>
      <trkpt lat="39.956702" lon="-0.614915">
        <ele>751.4</ele>
        <time>2012-08-20T09:59:15Z</time>
      </trkpt>
      <trkpt lat="39.956622" lon="-0.614886">
        <ele>751.0</ele>
        <time>2012-08-20T09:59:16Z</time>
      </trkpt>
      <trkpt lat="39.956377" lon="-0.614810">
        <ele>751.0</ele>
        <time>2012-08-20T09:59:19Z</time>
      </trkpt>
      <trkpt lat="39.956041" lon="-0.614773">
        <ele>750.4</ele>
        <time>2012-08-20T09:59:23Z</time>
      </trkpt>
      <trkpt lat="39.955951" lon="-0.614770">
        <ele>750.0</ele>
        <time>2012-08-20T09:59:24Z</time>
      </trkpt>
      <trkpt lat="39.955868" lon="-0.614771">
        <ele>749.6</ele>
        <time>2012-08-20T09:59:25Z</time>
      </trkpt>
      <trkpt lat="39.955776" lon="-0.614775">
        <ele>749.2</ele>
        <time>2012-08-20T09:59:26Z</time>
      </trkpt>
      <trkpt lat="39.955699" lon="-0.614779">
        <ele>748.8</ele>
        <time>2012-08-20T09:59:27Z</time>
      </trkpt>
      <trkpt lat="39.955454" lon="-0.614816">
        <ele>748.8</ele>
        <time>2012-08-20T09:59:30Z</time>
      </trkpt>
      <trkpt lat="39.955137" lon="-0.614903">
        <ele>748.4</ele>
        <time>2012-08-20T09:59:34Z</time>
      </trkpt>
      <trkpt lat="39.955057" lon="-0.614934">
        <ele>748.0</ele>
        <time>2012-08-20T09:59:35Z</time>
      </trkpt>
      <trkpt lat="39.954980" lon="-0.614971">
        <ele>747.6</ele>
        <time>2012-08-20T09:59:36Z</time>
      </trkpt>
      <trkpt lat="39.954901" lon="-0.615011">
        <ele>747.2</ele>
        <time>2012-08-20T09:59:37Z</time>
      </trkpt>
      <trkpt lat="39.954824" lon="-0.615051">
        <ele>746.6</ele>
        <time>2012-08-20T09:59:38Z</time>
      </trkpt>
      <trkpt lat="39.954438" lon="-0.615259">
        <ele>746.2</ele>
        <time>2012-08-20T09:59:43Z</time>
      </trkpt>
      <trkpt lat="39.954366" lon="-0.615300">
        <ele>745.8</ele>
        <time>2012-08-20T09:59:44Z</time>
      </trkpt>
      <trkpt lat="39.954293" lon="-0.615340">
        <ele>745.4</ele>
        <time>2012-08-20T09:59:45Z</time>
      </trkpt>
      <trkpt lat="39.954220" lon="-0.615379">
        <ele>745.0</ele>
        <time>2012-08-20T09:59:46Z</time>
      </trkpt>
      <trkpt lat="39.954140" lon="-0.615424">
        <ele>744.6</ele>
        <time>2012-08-20T09:59:47Z</time>
      </trkpt>
      <trkpt lat="39.953847" lon="-0.615588">
        <ele>744.6</ele>
        <time>2012-08-20T09:59:51Z</time>
      </trkpt>
      <trkpt lat="39.953477" lon="-0.615793">
        <ele>744.2</ele>
        <time>2012-08-20T09:59:56Z</time>
      </trkpt>
      <trkpt lat="39.953401" lon="-0.615826">
        <ele>743.8</ele>
        <time>2012-08-20T09:59:57Z</time>
      </trkpt>
      <trkpt lat="39.953325" lon="-0.615855">
        <ele>743.2</ele>
        <time>2012-08-20T09:59:58Z</time>
      </trkpt>
      <trkpt lat="39.953251" lon="-0.615880">
        <ele>742.8</ele>
        <time>2012-08-20T09:59:59Z</time>
      </trkpt>
      <trkpt lat="39.953175" lon="-0.615904">
        <ele>742.4</ele>
        <time>2012-08-20T10:00:00Z</time>
      </trkpt>
      <trkpt lat="39.952712" lon="-0.615968">
        <ele>742.4</ele>
        <time>2012-08-20T10:00:06Z</time>
      </trkpt>
      <trkpt lat="39.952636" lon="-0.615968">
        <ele>742.0</ele>
        <time>2012-08-20T10:00:07Z</time>
      </trkpt>
      <trkpt lat="39.952558" lon="-0.615964">
        <ele>741.6</ele>
        <time>2012-08-20T10:00:08Z</time>
      </trkpt>
      <trkpt lat="39.952480" lon="-0.615957">
        <ele>741.2</ele>
        <time>2012-08-20T10:00:09Z</time>
      </trkpt>
      <trkpt lat="39.952400" lon="-0.615949">
        <ele>740.6</ele>
        <time>2012-08-20T10:00:10Z</time>
      </trkpt>
      <trkpt lat="39.952320" lon="-0.615942">
        <ele>740.2</ele>
        <time>2012-08-20T10:00:11Z</time>
      </trkpt>
      <trkpt lat="39.952159" lon="-0.615903">
        <ele>740.2</ele>
        <time>2012-08-20T10:00:13Z</time>
      </trkpt>
      <trkpt lat="39.951697" lon="-0.615719">
        <ele>739.8</ele>
        <time>2012-08-20T10:00:19Z</time>
      </trkpt>
      <trkpt lat="39.951624" lon="-0.615680">
        <ele>739.4</ele>
        <time>2012-08-20T10:00:20Z</time>
      </trkpt>
      <trkpt lat="39.951552" lon="-0.615636">
        <ele>739.0</ele>
        <time>2012-08-20T10:00:21Z</time>
      </trkpt>
      <trkpt lat="39.951481" lon="-0.615587">
        <ele>738.4</ele>
        <time>2012-08-20T10:00:22Z</time>
      </trkpt>
      <trkpt lat="39.951411" lon="-0.615535">
        <ele>738.0</ele>
        <time>2012-08-20T10:00:23Z</time>
      </trkpt>
      <trkpt lat="39.951208" lon="-0.615362">
        <ele>738.0</ele>
        <time>2012-08-20T10:00:26Z</time>
      </trkpt>
      <trkpt lat="39.950951" lon="-0.615095">
        <ele>737.2</ele>
        <time>2012-08-20T10:00:30Z</time>
      </trkpt>
      <trkpt lat="39.950895" lon="-0.615020">
        <ele>736.8</ele>
        <time>2012-08-20T10:00:31Z</time>
      </trkpt>
      <trkpt lat="39.950840" lon="-0.614942">
        <ele>736.4</ele>
        <time>2012-08-20T10:00:32Z</time>
      </trkpt>
      <trkpt lat="39.950783" lon="-0.614863">
        <ele>736.0</ele>
        <time>2012-08-20T10:00:33Z</time>
      </trkpt>
      <trkpt lat="39.950536" lon="-0.614417">
        <ele>736.0</ele>
        <time>2012-08-20T10:00:38Z</time>
      </trkpt>
      <trkpt lat="39.950416" lon="-0.614127">
        <ele>735.6</ele>
        <time>2012-08-20T10:00:41Z</time>
      </trkpt>
      <trkpt lat="39.950377" lon="-0.614030">
        <ele>735.2</ele>
        <time>2012-08-20T10:00:42Z</time>
      </trkpt>
      <trkpt lat="39.950342" lon="-0.613926">
        <ele>734.8</ele>
        <time>2012-08-20T10:00:43Z</time>
      </trkpt>
      <trkpt lat="39.950311" lon="-0.613824">
        <ele>734.4</ele>
        <time>2012-08-20T10:00:44Z</time>
      </trkpt>
      <trkpt lat="39.950283" lon="-0.613719">
        <ele>733.8</ele>
        <time>2012-08-20T10:00:45Z</time>
      </trkpt>
      <trkpt lat="39.950180" lon="-0.613190">
        <ele>733.8</ele>
        <time>2012-08-20T10:00:50Z</time>
      </trkpt>
      <trkpt lat="39.950165" lon="-0.613081">
        <ele>733.4</ele>
        <time>2012-08-20T10:00:51Z</time>
      </trkpt>
      <trkpt lat="39.950157" lon="-0.612971">
        <ele>733.0</ele>
        <time>2012-08-20T10:00:52Z</time>
      </trkpt>
      <trkpt lat="39.950150" lon="-0.612860">
        <ele>732.6</ele>
        <time>2012-08-20T10:00:53Z</time>
      </trkpt>
      <trkpt lat="39.950143" lon="-0.612753">
        <ele>732.2</ele>
        <time>2012-08-20T10:00:54Z</time>
      </trkpt>
      <trkpt lat="39.950145" lon="-0.612646">
        <ele>731.8</ele>
        <time>2012-08-20T10:00:55Z</time>
      </trkpt>
      <trkpt lat="39.950152" lon="-0.612544">
        <ele>731.8</ele>
        <time>2012-08-20T10:00:56Z</time>
      </trkpt>
      <trkpt lat="39.950245" lon="-0.611912">
        <ele>731.8</ele>
        <time>2012-08-20T10:01:02Z</time>
      </trkpt>
      <trkpt lat="39.950296" lon="-0.611705">
        <ele>731.4</ele>
        <time>2012-08-20T10:01:04Z</time>
      </trkpt>
      <trkpt lat="39.950324" lon="-0.611603">
        <ele>730.8</ele>
        <time>2012-08-20T10:01:05Z</time>
      </trkpt>
      <trkpt lat="39.950359" lon="-0.611496">
        <ele>730.4</ele>
        <time>2012-08-20T10:01:06Z</time>
      </trkpt>
      <trkpt lat="39.950394" lon="-0.611393">
        <ele>730.0</ele>
        <time>2012-08-20T10:01:07Z</time>
      </trkpt>
      <trkpt lat="39.950430" lon="-0.611293">
        <ele>729.6</ele>
        <time>2012-08-20T10:01:08Z</time>
      </trkpt>
      <trkpt lat="39.950686" lon="-0.610594">
        <ele>729.6</ele>
        <time>2012-08-20T10:01:15Z</time>
      </trkpt>
      <trkpt lat="39.950722" lon="-0.610500">
        <ele>729.2</ele>
        <time>2012-08-20T10:01:16Z</time>
      </trkpt>
      <trkpt lat="39.950756" lon="-0.610405">
        <ele>728.6</ele>
        <time>2012-08-20T10:01:17Z</time>
      </trkpt>
      <trkpt lat="39.950788" lon="-0.610311">
        <ele>728.2</ele>
        <time>2012-08-20T10:01:18Z</time>
      </trkpt>
      <trkpt lat="39.950822" lon="-0.610219">
        <ele>727.8</ele>
        <time>2012-08-20T10:01:19Z</time>
      </trkpt>
      <trkpt lat="39.950856" lon="-0.610129">
        <ele>727.4</ele>
        <time>2012-08-20T10:01:20Z</time>
      </trkpt>
      <trkpt lat="39.951049" lon="-0.609593">
        <ele>727.0</ele>
        <time>2012-08-20T10:01:26Z</time>
      </trkpt>
      <trkpt lat="39.951083" lon="-0.609508">
        <ele>726.6</ele>
        <time>2012-08-20T10:01:27Z</time>
      </trkpt>
      <trkpt lat="39.951113" lon="-0.609422">
        <ele>726.0</ele>
        <time>2012-08-20T10:01:28Z</time>
      </trkpt>
      <trkpt lat="39.951147" lon="-0.609329">
        <ele>725.6</ele>
        <time>2012-08-20T10:01:29Z</time>
      </trkpt>
      <trkpt lat="39.951181" lon="-0.609237">
        <ele>725.2</ele>
        <time>2012-08-20T10:01:30Z</time>
      </trkpt>
      <trkpt lat="39.951312" lon="-0.608886">
        <ele>725.2</ele>
        <time>2012-08-20T10:01:34Z</time>
      </trkpt>
      <trkpt lat="39.951438" lon="-0.608530">
        <ele>724.8</ele>
        <time>2012-08-20T10:01:38Z</time>
      </trkpt>
      <trkpt lat="39.951471" lon="-0.608441">
        <ele>724.4</ele>
        <time>2012-08-20T10:01:39Z</time>
      </trkpt>
      <trkpt lat="39.951505" lon="-0.608352">
        <ele>724.0</ele>
        <time>2012-08-20T10:01:40Z</time>
      </trkpt>
      <trkpt lat="39.951537" lon="-0.608263">
        <ele>723.6</ele>
        <time>2012-08-20T10:01:41Z</time>
      </trkpt>
      <trkpt lat="39.951570" lon="-0.608173">
        <ele>723.2</ele>
        <time>2012-08-20T10:01:42Z</time>
      </trkpt>
      <trkpt lat="39.951601" lon="-0.608084">
        <ele>723.2</ele>
        <time>2012-08-20T10:01:43Z</time>
      </trkpt>
      <trkpt lat="39.951836" lon="-0.607423">
        <ele>722.8</ele>
        <time>2012-08-20T10:01:50Z</time>
      </trkpt>
      <trkpt lat="39.951868" lon="-0.607329">
        <ele>722.4</ele>
        <time>2012-08-20T10:01:51Z</time>
      </trkpt>
      <trkpt lat="39.951900" lon="-0.607232">
        <ele>722.0</ele>
        <time>2012-08-20T10:01:52Z</time>
      </trkpt>
      <trkpt lat="39.951932" lon="-0.607130">
        <ele>721.4</ele>
        <time>2012-08-20T10:01:53Z</time>
      </trkpt>
      <trkpt lat="39.951954" lon="-0.607031">
        <ele>721.0</ele>
        <time>2012-08-20T10:01:54Z</time>
      </trkpt>
      <trkpt lat="39.952008" lon="-0.606729">
        <ele>721.0</ele>
        <time>2012-08-20T10:01:57Z</time>
      </trkpt>
      <trkpt lat="39.952045" lon="-0.606214">
        <ele>720.6</ele>
        <time>2012-08-20T10:02:02Z</time>
      </trkpt>
      <trkpt lat="39.952046" lon="-0.606113">
        <ele>720.2</ele>
        <time>2012-08-20T10:02:03Z</time>
      </trkpt>
      <trkpt lat="39.952044" lon="-0.606011">
        <ele>719.8</ele>
        <time>2012-08-20T10:02:04Z</time>
      </trkpt>
      <trkpt lat="39.952041" lon="-0.605912">
        <ele>719.2</ele>
        <time>2012-08-20T10:02:05Z</time>
      </trkpt>
      <trkpt lat="39.952038" lon="-0.605812">
        <ele>718.8</ele>
        <time>2012-08-20T10:02:06Z</time>
      </trkpt>
      <trkpt lat="39.952008" lon="-0.605413">
        <ele>718.8</ele>
        <time>2012-08-20T10:02:10Z</time>
      </trkpt>
      <trkpt lat="39.951962" lon="-0.604680">
        <ele>718.4</ele>
        <time>2012-08-20T10:02:17Z</time>
      </trkpt>
      <trkpt lat="39.951957" lon="-0.604570">
        <ele>718.0</ele>
        <time>2012-08-20T10:02:18Z</time>
      </trkpt>
      <trkpt lat="39.951948" lon="-0.604464">
        <ele>717.6</ele>
        <time>2012-08-20T10:02:19Z</time>
      </trkpt>
      <trkpt lat="39.951940" lon="-0.604353">
        <ele>717.2</ele>
        <time>2012-08-20T10:02:20Z</time>
      </trkpt>
      <trkpt lat="39.951933" lon="-0.604245">
        <ele>716.8</ele>
        <time>2012-08-20T10:02:21Z</time>
      </trkpt>
      <trkpt lat="39.951912" lon="-0.603798">
        <ele>716.8</ele>
        <time>2012-08-20T10:02:25Z</time>
      </trkpt>
      <trkpt lat="39.951888" lon="-0.603353">
        <ele>716.4</ele>
        <time>2012-08-20T10:02:29Z</time>
      </trkpt>
      <trkpt lat="39.951882" lon="-0.603239">
        <ele>716.0</ele>
        <time>2012-08-20T10:02:30Z</time>
      </trkpt>
      <trkpt lat="39.951874" lon="-0.603123">
        <ele>715.6</ele>
        <time>2012-08-20T10:02:31Z</time>
      </trkpt>
      <trkpt lat="39.951866" lon="-0.603012">
        <ele>715.2</ele>
        <time>2012-08-20T10:02:32Z</time>
      </trkpt>
      <trkpt lat="39.951860" lon="-0.602904">
        <ele>714.8</ele>
        <time>2012-08-20T10:02:33Z</time>
      </trkpt>
      <trkpt lat="39.951827" lon="-0.602256">
        <ele>714.8</ele>
        <time>2012-08-20T10:02:39Z</time>
      </trkpt>
      <trkpt lat="39.951824" lon="-0.602152">
        <ele>714.2</ele>
        <time>2012-08-20T10:02:40Z</time>
      </trkpt>
      <trkpt lat="39.951826" lon="-0.602049">
        <ele>713.8</ele>
        <time>2012-08-20T10:02:41Z</time>
      </trkpt>
      <trkpt lat="39.951827" lon="-0.601945">
        <ele>713.4</ele>
        <time>2012-08-20T10:02:42Z</time>
      </trkpt>
      <trkpt lat="39.951827" lon="-0.601841">
        <ele>712.8</ele>
        <time>2012-08-20T10:02:43Z</time>
      </trkpt>
      <trkpt lat="39.951830" lon="-0.601736">
        <ele>712.4</ele>
        <time>2012-08-20T10:02:44Z</time>
      </trkpt>
      <trkpt lat="39.951834" lon="-0.601632">
        <ele>712.4</ele>
        <time>2012-08-20T10:02:45Z</time>
      </trkpt>
      <trkpt lat="39.951911" lon="-0.600901">
        <ele>712.4</ele>
        <time>2012-08-20T10:02:52Z</time>
      </trkpt>
      <trkpt lat="39.951933" lon="-0.600799">
        <ele>712.4</ele>
        <time>2012-08-20T10:02:53Z</time>
      </trkpt>
      <trkpt lat="39.951955" lon="-0.600689">
        <ele>712.0</ele>
        <time>2012-08-20T10:02:54Z</time>
      </trkpt>
      <trkpt lat="39.951975" lon="-0.600586">
        <ele>711.6</ele>
        <time>2012-08-20T10:02:55Z</time>
      </trkpt>
      <trkpt lat="39.951998" lon="-0.600482">
        <ele>711.0</ele>
        <time>2012-08-20T10:02:56Z</time>
      </trkpt>
      <trkpt lat="39.952024" lon="-0.600378">
        <ele>710.6</ele>
        <time>2012-08-20T10:02:57Z</time>
      </trkpt>
      <trkpt lat="39.952055" lon="-0.600272">
        <ele>710.2</ele>
        <time>2012-08-20T10:02:58Z</time>
      </trkpt>
      <trkpt lat="39.952117" lon="-0.600072">
        <ele>710.2</ele>
        <time>2012-08-20T10:03:00Z</time>
      </trkpt>
      <trkpt lat="39.952261" lon="-0.599682">
        <ele>709.8</ele>
        <time>2012-08-20T10:03:04Z</time>
      </trkpt>
      <trkpt lat="39.952302" lon="-0.599591">
        <ele>709.4</ele>
        <time>2012-08-20T10:03:05Z</time>
      </trkpt>
      <trkpt lat="39.952345" lon="-0.599504">
        <ele>709.0</ele>
        <time>2012-08-20T10:03:06Z</time>
      </trkpt>
      <trkpt lat="39.952390" lon="-0.599419">
        <ele>708.6</ele>
        <time>2012-08-20T10:03:07Z</time>
      </trkpt>
      <trkpt lat="39.952434" lon="-0.599334">
        <ele>708.2</ele>
        <time>2012-08-20T10:03:08Z</time>
      </trkpt>
      <trkpt lat="39.952569" lon="-0.599101">
        <ele>708.2</ele>
        <time>2012-08-20T10:03:11Z</time>
      </trkpt>
      <trkpt lat="39.952621" lon="-0.599024">
        <ele>708.2</ele>
        <time>2012-08-20T10:03:12Z</time>
      </trkpt>
      <trkpt lat="39.952931" lon="-0.598583">
        <ele>708.2</ele>
        <time>2012-08-20T10:03:18Z</time>
      </trkpt>
      <trkpt lat="39.953341" lon="-0.598150">
        <ele>708.2</ele>
        <time>2012-08-20T10:03:25Z</time>
      </trkpt>
      <trkpt lat="39.953694" lon="-0.597854">
        <ele>708.2</ele>
        <time>2012-08-20T10:03:31Z</time>
      </trkpt>
      <trkpt lat="39.953945" lon="-0.597652">
        <ele>707.6</ele>
        <time>2012-08-20T10:03:35Z</time>
      </trkpt>
      <trkpt lat="39.954007" lon="-0.597606">
        <ele>707.2</ele>
        <time>2012-08-20T10:03:36Z</time>
      </trkpt>
      <trkpt lat="39.954072" lon="-0.597559">
        <ele>706.6</ele>
        <time>2012-08-20T10:03:37Z</time>
      </trkpt>
      <trkpt lat="39.954137" lon="-0.597513">
        <ele>706.2</ele>
        <time>2012-08-20T10:03:38Z</time>
      </trkpt>
      <trkpt lat="39.954204" lon="-0.597466">
        <ele>705.8</ele>
        <time>2012-08-20T10:03:39Z</time>
      </trkpt>
      <trkpt lat="39.954506" lon="-0.597260">
        <ele>705.4</ele>
        <time>2012-08-20T10:03:43Z</time>
      </trkpt>
      <trkpt lat="39.954590" lon="-0.597211">
        <ele>705.0</ele>
        <time>2012-08-20T10:03:44Z</time>
      </trkpt>
      <trkpt lat="39.954679" lon="-0.597157">
        <ele>704.6</ele>
        <time>2012-08-20T10:03:45Z</time>
      </trkpt>
      <trkpt lat="39.954768" lon="-0.597103">
        <ele>704.0</ele>
        <time>2012-08-20T10:03:46Z</time>
      </trkpt>
      <trkpt lat="39.954859" lon="-0.597053">
        <ele>703.6</ele>
        <time>2012-08-20T10:03:47Z</time>
      </trkpt>
      <trkpt lat="39.954961" lon="-0.597043">
        <ele>702.8</ele>
        <time>2012-08-20T10:03:48Z</time>
      </trkpt>
      <trkpt lat="39.955059" lon="-0.597041">
        <ele>702.4</ele>
        <time>2012-08-20T10:03:49Z</time>
      </trkpt>
      <trkpt lat="39.955157" lon="-0.597047">
        <ele>702.0</ele>
        <time>2012-08-20T10:03:50Z</time>
      </trkpt>
      <trkpt lat="39.955253" lon="-0.597038">
        <ele>701.6</ele>
        <time>2012-08-20T10:03:51Z</time>
      </trkpt>
      <trkpt lat="39.955775" lon="-0.596888">
        <ele>701.6</ele>
        <time>2012-08-20T10:03:57Z</time>
      </trkpt>
      <trkpt lat="39.956022" lon="-0.596801">
        <ele>701.2</ele>
        <time>2012-08-20T10:04:00Z</time>
      </trkpt>
      <trkpt lat="39.956103" lon="-0.596767">
        <ele>700.8</ele>
        <time>2012-08-20T10:04:01Z</time>
      </trkpt>
      <trkpt lat="39.956182" lon="-0.596732">
        <ele>700.2</ele>
        <time>2012-08-20T10:04:02Z</time>
      </trkpt>
      <trkpt lat="39.956264" lon="-0.596689">
        <ele>699.8</ele>
        <time>2012-08-20T10:04:03Z</time>
      </trkpt>
      <trkpt lat="39.956338" lon="-0.596648">
        <ele>699.4</ele>
        <time>2012-08-20T10:04:04Z</time>
      </trkpt>
      <trkpt lat="39.956480" lon="-0.596559">
        <ele>699.0</ele>
        <time>2012-08-20T10:04:06Z</time>
      </trkpt>
      <trkpt lat="39.956552" lon="-0.596514">
        <ele>698.6</ele>
        <time>2012-08-20T10:04:07Z</time>
      </trkpt>
      <trkpt lat="39.956620" lon="-0.596468">
        <ele>698.2</ele>
        <time>2012-08-20T10:04:08Z</time>
      </trkpt>
      <trkpt lat="39.956689" lon="-0.596423">
        <ele>697.8</ele>
        <time>2012-08-20T10:04:09Z</time>
      </trkpt>
      <trkpt lat="39.956758" lon="-0.596375">
        <ele>697.2</ele>
        <time>2012-08-20T10:04:10Z</time>
      </trkpt>
      <trkpt lat="39.957121" lon="-0.596047">
        <ele>697.2</ele>
        <time>2012-08-20T10:04:16Z</time>
      </trkpt>
      <trkpt lat="39.957535" lon="-0.595569">
        <ele>697.2</ele>
        <time>2012-08-20T10:04:23Z</time>
      </trkpt>
      <trkpt lat="39.957592" lon="-0.595497">
        <ele>696.8</ele>
        <time>2012-08-20T10:04:24Z</time>
      </trkpt>
      <trkpt lat="39.957645" lon="-0.595420">
        <ele>696.4</ele>
        <time>2012-08-20T10:04:25Z</time>
      </trkpt>
      <trkpt lat="39.957700" lon="-0.595336">
        <ele>696.0</ele>
        <time>2012-08-20T10:04:26Z</time>
      </trkpt>
      <trkpt lat="39.957751" lon="-0.595257">
        <ele>695.6</ele>
        <time>2012-08-20T10:04:27Z</time>
      </trkpt>
      <trkpt lat="39.957803" lon="-0.595178">
        <ele>695.2</ele>
        <time>2012-08-20T10:04:28Z</time>
      </trkpt>
      <trkpt lat="39.957905" lon="-0.595012">
        <ele>695.2</ele>
        <time>2012-08-20T10:04:30Z</time>
      </trkpt>
      <trkpt lat="39.958172" lon="-0.594481">
        <ele>695.2</ele>
        <time>2012-08-20T10:04:36Z</time>
      </trkpt>
      <trkpt lat="39.958211" lon="-0.594392">
        <ele>694.8</ele>
        <time>2012-08-20T10:04:37Z</time>
      </trkpt>
      <trkpt lat="39.958247" lon="-0.594299">
        <ele>694.0</ele>
        <time>2012-08-20T10:04:38Z</time>
      </trkpt>
      <trkpt lat="39.958282" lon="-0.594206">
        <ele>693.4</ele>
        <time>2012-08-20T10:04:39Z</time>
      </trkpt>
      <trkpt lat="39.958315" lon="-0.594112">
        <ele>693.0</ele>
        <time>2012-08-20T10:04:40Z</time>
      </trkpt>
      <trkpt lat="39.958403" lon="-0.593816">
        <ele>693.0</ele>
        <time>2012-08-20T10:04:43Z</time>
      </trkpt>
      <trkpt lat="39.958522" lon="-0.593321">
        <ele>692.6</ele>
        <time>2012-08-20T10:04:48Z</time>
      </trkpt>
      <trkpt lat="39.958538" lon="-0.593220">
        <ele>692.2</ele>
        <time>2012-08-20T10:04:49Z</time>
      </trkpt>
      <trkpt lat="39.958553" lon="-0.593113">
        <ele>691.8</ele>
        <time>2012-08-20T10:04:50Z</time>
      </trkpt>
      <trkpt lat="39.958566" lon="-0.593005">
        <ele>691.4</ele>
        <time>2012-08-20T10:04:51Z</time>
      </trkpt>
      <trkpt lat="39.958576" lon="-0.592905">
        <ele>691.0</ele>
        <time>2012-08-20T10:04:52Z</time>
      </trkpt>
      <trkpt lat="39.958602" lon="-0.592592">
        <ele>691.0</ele>
        <time>2012-08-20T10:04:55Z</time>
      </trkpt>
      <trkpt lat="39.958610" lon="-0.592380">
        <ele>690.6</ele>
        <time>2012-08-20T10:04:57Z</time>
      </trkpt>
      <trkpt lat="39.958613" lon="-0.592267">
        <ele>690.2</ele>
        <time>2012-08-20T10:04:58Z</time>
      </trkpt>
      <trkpt lat="39.958614" lon="-0.592155">
        <ele>689.8</ele>
        <time>2012-08-20T10:04:59Z</time>
      </trkpt>
      <trkpt lat="39.958604" lon="-0.592056">
        <ele>689.4</ele>
        <time>2012-08-20T10:05:00Z</time>
      </trkpt>
      <trkpt lat="39.958598" lon="-0.591953">
        <ele>689.0</ele>
        <time>2012-08-20T10:05:01Z</time>
      </trkpt>
      <trkpt lat="39.958521" lon="-0.591306">
        <ele>688.4</ele>
        <time>2012-08-20T10:05:07Z</time>
      </trkpt>
      <trkpt lat="39.958504" lon="-0.591201">
        <ele>688.0</ele>
        <time>2012-08-20T10:05:08Z</time>
      </trkpt>
      <trkpt lat="39.958484" lon="-0.591095">
        <ele>687.6</ele>
        <time>2012-08-20T10:05:09Z</time>
      </trkpt>
      <trkpt lat="39.958465" lon="-0.590987">
        <ele>687.2</ele>
        <time>2012-08-20T10:05:10Z</time>
      </trkpt>
      <trkpt lat="39.958446" lon="-0.590879">
        <ele>686.8</ele>
        <time>2012-08-20T10:05:11Z</time>
      </trkpt>
      <trkpt lat="39.958371" lon="-0.590432">
        <ele>686.8</ele>
        <time>2012-08-20T10:05:15Z</time>
      </trkpt>
      <trkpt lat="39.958329" lon="-0.590209">
        <ele>686.4</ele>
        <time>2012-08-20T10:05:17Z</time>
      </trkpt>
      <trkpt lat="39.958303" lon="-0.590101">
        <ele>685.8</ele>
        <time>2012-08-20T10:05:18Z</time>
      </trkpt>
      <trkpt lat="39.958277" lon="-0.589992">
        <ele>685.4</ele>
        <time>2012-08-20T10:05:19Z</time>
      </trkpt>
      <trkpt lat="39.958249" lon="-0.589884">
        <ele>685.0</ele>
        <time>2012-08-20T10:05:20Z</time>
      </trkpt>
      <trkpt lat="39.958216" lon="-0.589784">
        <ele>684.6</ele>
        <time>2012-08-20T10:05:21Z</time>
      </trkpt>
      <trkpt lat="39.958181" lon="-0.589676">
        <ele>684.6</ele>
        <time>2012-08-20T10:05:22Z</time>
      </trkpt>
      <trkpt lat="39.957900" lon="-0.588984">
        <ele>684.0</ele>
        <time>2012-08-20T10:05:29Z</time>
      </trkpt>
      <trkpt lat="39.957855" lon="-0.588889">
        <ele>683.6</ele>
        <time>2012-08-20T10:05:30Z</time>
      </trkpt>
      <trkpt lat="39.957806" lon="-0.588793">
        <ele>683.2</ele>
        <time>2012-08-20T10:05:31Z</time>
      </trkpt>
      <trkpt lat="39.957754" lon="-0.588704">
        <ele>682.8</ele>
        <time>2012-08-20T10:05:32Z</time>
      </trkpt>
      <trkpt lat="39.957704" lon="-0.588621">
        <ele>682.4</ele>
        <time>2012-08-20T10:05:33Z</time>
      </trkpt>
      <trkpt lat="39.957591" lon="-0.588442">
        <ele>682.4</ele>
        <time>2012-08-20T10:05:35Z</time>
      </trkpt>
      <trkpt lat="39.957218" lon="-0.587951">
        <ele>682.0</ele>
        <time>2012-08-20T10:05:41Z</time>
      </trkpt>
      <trkpt lat="39.957150" lon="-0.587878">
        <ele>681.6</ele>
        <time>2012-08-20T10:05:42Z</time>
      </trkpt>
      <trkpt lat="39.957081" lon="-0.587809">
        <ele>681.2</ele>
        <time>2012-08-20T10:05:43Z</time>
      </trkpt>
      <trkpt lat="39.957012" lon="-0.587742">
        <ele>680.6</ele>
        <time>2012-08-20T10:05:44Z</time>
      </trkpt>
      <trkpt lat="39.956940" lon="-0.587669">
        <ele>680.2</ele>
        <time>2012-08-20T10:05:45Z</time>
      </trkpt>
      <trkpt lat="39.956655" lon="-0.587425">
        <ele>680.2</ele>
        <time>2012-08-20T10:05:49Z</time>
      </trkpt>
      <trkpt lat="39.956516" lon="-0.587322">
        <ele>679.8</ele>
        <time>2012-08-20T10:05:51Z</time>
      </trkpt>
      <trkpt lat="39.956444" lon="-0.587275">
        <ele>679.4</ele>
        <time>2012-08-20T10:05:52Z</time>
      </trkpt>
      <trkpt lat="39.956372" lon="-0.587228">
        <ele>679.0</ele>
        <time>2012-08-20T10:05:53Z</time>
      </trkpt>
      <trkpt lat="39.956302" lon="-0.587183">
        <ele>678.6</ele>
        <time>2012-08-20T10:05:54Z</time>
      </trkpt>
      <trkpt lat="39.956234" lon="-0.587142">
        <ele>678.2</ele>
        <time>2012-08-20T10:05:55Z</time>
      </trkpt>
      <trkpt lat="39.955861" lon="-0.586972">
        <ele>678.2</ele>
        <time>2012-08-20T10:06:00Z</time>
      </trkpt>
      <trkpt lat="39.955788" lon="-0.586947">
        <ele>677.8</ele>
        <time>2012-08-20T10:06:01Z</time>
      </trkpt>
      <trkpt lat="39.955714" lon="-0.586921">
        <ele>677.4</ele>
        <time>2012-08-20T10:06:02Z</time>
      </trkpt>
      <trkpt lat="39.955639" lon="-0.586900">
        <ele>677.0</ele>
        <time>2012-08-20T10:06:03Z</time>
      </trkpt>
      <trkpt lat="39.955571" lon="-0.586877">
        <ele>676.6</ele>
        <time>2012-08-20T10:06:04Z</time>
      </trkpt>
      <trkpt lat="39.955514" lon="-0.586860">
        <ele>676.2</ele>
        <time>2012-08-20T10:06:05Z</time>
      </trkpt>
      <trkpt lat="39.955469" lon="-0.586848">
        <ele>676.2</ele>
        <time>2012-08-20T10:06:06Z</time>
      </trkpt>
      <trkpt lat="39.955377" lon="-0.586829">
        <ele>676.2</ele>
        <time>2012-08-20T10:06:10Z</time>
      </trkpt>
      <trkpt lat="39.955379" lon="-0.586827">
        <ele>676.2</ele>
        <time>2012-08-20T10:06:11Z</time>
      </trkpt>
      <trkpt lat="39.955380" lon="-0.586830">
        <ele>676.2</ele>
        <time>2012-08-20T10:06:12Z</time>
      </trkpt>
      <trkpt lat="39.955308" lon="-0.586833">
        <ele>675.8</ele>
        <time>2012-08-20T10:07:07Z</time>
      </trkpt>
      <trkpt lat="39.955268" lon="-0.586833">
        <ele>675.4</ele>
        <time>2012-08-20T10:07:08Z</time>
      </trkpt>
      <trkpt lat="39.955226" lon="-0.586834">
        <ele>675.0</ele>
        <time>2012-08-20T10:07:09Z</time>
      </trkpt>
      <trkpt lat="39.955174" lon="-0.586837">
        <ele>674.6</ele>
        <time>2012-08-20T10:07:10Z</time>
      </trkpt>
      <trkpt lat="39.955126" lon="-0.586830">
        <ele>674.2</ele>
        <time>2012-08-20T10:07:11Z</time>
      </trkpt>
      <trkpt lat="39.954748" lon="-0.586831">
        <ele>674.2</ele>
        <time>2012-08-20T10:07:18Z</time>
      </trkpt>
      <trkpt lat="39.954388" lon="-0.586869">
        <ele>674.2</ele>
        <time>2012-08-20T10:07:24Z</time>
      </trkpt>
      <trkpt lat="39.954202" lon="-0.586911">
        <ele>673.8</ele>
        <time>2012-08-20T10:07:27Z</time>
      </trkpt>
      <trkpt lat="39.954140" lon="-0.586928">
        <ele>673.4</ele>
        <time>2012-08-20T10:07:28Z</time>
      </trkpt>
      <trkpt lat="39.954078" lon="-0.586942">
        <ele>673.0</ele>
        <time>2012-08-20T10:07:29Z</time>
      </trkpt>
      <trkpt lat="39.954015" lon="-0.586952">
        <ele>672.0</ele>
        <time>2012-08-20T10:07:30Z</time>
      </trkpt>
      <trkpt lat="39.953954" lon="-0.586961">
        <ele>672.0</ele>
        <time>2012-08-20T10:07:31Z</time>
      </trkpt>
      <trkpt lat="39.953439" lon="-0.587073">
        <ele>672.0</ele>
        <time>2012-08-20T10:07:39Z</time>
      </trkpt>
      <trkpt lat="39.953371" lon="-0.587089">
        <ele>671.6</ele>
        <time>2012-08-20T10:07:40Z</time>
      </trkpt>
      <trkpt lat="39.953302" lon="-0.587103">
        <ele>671.2</ele>
        <time>2012-08-20T10:07:41Z</time>
      </trkpt>
      <trkpt lat="39.953233" lon="-0.587117">
        <ele>670.8</ele>
        <time>2012-08-20T10:07:42Z</time>
      </trkpt>
      <trkpt lat="39.953164" lon="-0.587137">
        <ele>670.4</ele>
        <time>2012-08-20T10:07:43Z</time>
      </trkpt>
      <trkpt lat="39.953092" lon="-0.587150">
        <ele>670.0</ele>
        <time>2012-08-20T10:07:44Z</time>
      </trkpt>
      <trkpt lat="39.952953" lon="-0.587182">
        <ele>670.0</ele>
        <time>2012-08-20T10:07:46Z</time>
      </trkpt>
      <trkpt lat="39.952530" lon="-0.587270">
        <ele>669.6</ele>
        <time>2012-08-20T10:07:52Z</time>
      </trkpt>
      <trkpt lat="39.952458" lon="-0.587284">
        <ele>668.8</ele>
        <time>2012-08-20T10:07:53Z</time>
      </trkpt>
      <trkpt lat="39.952386" lon="-0.587302">
        <ele>668.4</ele>
        <time>2012-08-20T10:07:54Z</time>
      </trkpt>
      <trkpt lat="39.952314" lon="-0.587316">
        <ele>667.8</ele>
        <time>2012-08-20T10:07:55Z</time>
      </trkpt>
      <trkpt lat="39.951872" lon="-0.587403">
        <ele>667.8</ele>
        <time>2012-08-20T10:08:01Z</time>
      </trkpt>
      <trkpt lat="39.951494" lon="-0.587493">
        <ele>667.4</ele>
        <time>2012-08-20T10:08:06Z</time>
      </trkpt>
      <trkpt lat="39.951418" lon="-0.587510">
        <ele>667.0</ele>
        <time>2012-08-20T10:08:07Z</time>
      </trkpt>
      <trkpt lat="39.951340" lon="-0.587533">
        <ele>666.6</ele>
        <time>2012-08-20T10:08:08Z</time>
      </trkpt>
      <trkpt lat="39.951258" lon="-0.587551">
        <ele>666.2</ele>
        <time>2012-08-20T10:08:09Z</time>
      </trkpt>
      <trkpt lat="39.951181" lon="-0.587569">
        <ele>665.8</ele>
        <time>2012-08-20T10:08:10Z</time>
      </trkpt>
      <trkpt lat="39.950933" lon="-0.587624">
        <ele>665.8</ele>
        <time>2012-08-20T10:08:13Z</time>
      </trkpt>
      <trkpt lat="39.950605" lon="-0.587698">
        <ele>665.2</ele>
        <time>2012-08-20T10:08:17Z</time>
      </trkpt>
      <trkpt lat="39.950521" lon="-0.587714">
        <ele>664.4</ele>
        <time>2012-08-20T10:08:18Z</time>
      </trkpt>
      <trkpt lat="39.950433" lon="-0.587727">
        <ele>664.0</ele>
        <time>2012-08-20T10:08:19Z</time>
      </trkpt>
      <trkpt lat="39.950344" lon="-0.587738">
        <ele>663.6</ele>
        <time>2012-08-20T10:08:20Z</time>
      </trkpt>
      <trkpt lat="39.950004" lon="-0.587698">
        <ele>663.6</ele>
        <time>2012-08-20T10:08:24Z</time>
      </trkpt>
      <trkpt lat="39.949917" lon="-0.587672">
        <ele>663.6</ele>
        <time>2012-08-20T10:08:25Z</time>
      </trkpt>
      <trkpt lat="39.949833" lon="-0.587647">
        <ele>663.2</ele>
        <time>2012-08-20T10:08:26Z</time>
      </trkpt>
      <trkpt lat="39.949750" lon="-0.587613">
        <ele>662.8</ele>
        <time>2012-08-20T10:08:27Z</time>
      </trkpt>
      <trkpt lat="39.949666" lon="-0.587575">
        <ele>662.4</ele>
        <time>2012-08-20T10:08:28Z</time>
      </trkpt>
      <trkpt lat="39.949586" lon="-0.587535">
        <ele>662.0</ele>
        <time>2012-08-20T10:08:29Z</time>
      </trkpt>
      <trkpt lat="39.949507" lon="-0.587495">
        <ele>661.6</ele>
        <time>2012-08-20T10:08:30Z</time>
      </trkpt>
      <trkpt lat="39.949429" lon="-0.587452">
        <ele>661.6</ele>
        <time>2012-08-20T10:08:31Z</time>
      </trkpt>
      <trkpt lat="39.949147" lon="-0.587211">
        <ele>661.6</ele>
        <time>2012-08-20T10:08:35Z</time>
      </trkpt>
      <trkpt lat="39.948962" lon="-0.586999">
        <ele>661.2</ele>
        <time>2012-08-20T10:08:38Z</time>
      </trkpt>
      <trkpt lat="39.948906" lon="-0.586919">
        <ele>660.8</ele>
        <time>2012-08-20T10:08:39Z</time>
      </trkpt>
      <trkpt lat="39.948852" lon="-0.586836">
        <ele>660.4</ele>
        <time>2012-08-20T10:08:40Z</time>
      </trkpt>
      <trkpt lat="39.948800" lon="-0.586751">
        <ele>659.8</ele>
        <time>2012-08-20T10:08:41Z</time>
      </trkpt>
      <trkpt lat="39.948754" lon="-0.586661">
        <ele>659.4</ele>
        <time>2012-08-20T10:08:42Z</time>
      </trkpt>
      <trkpt lat="39.948584" lon="-0.586285">
        <ele>659.0</ele>
        <time>2012-08-20T10:08:46Z</time>
      </trkpt>
      <trkpt lat="39.948552" lon="-0.586183">
        <ele>658.6</ele>
        <time>2012-08-20T10:08:47Z</time>
      </trkpt>
      <trkpt lat="39.948524" lon="-0.586078">
        <ele>658.2</ele>
        <time>2012-08-20T10:08:48Z</time>
      </trkpt>
      <trkpt lat="39.948499" lon="-0.585974">
        <ele>657.8</ele>
        <time>2012-08-20T10:08:49Z</time>
      </trkpt>
      <trkpt lat="39.948475" lon="-0.585862">
        <ele>657.4</ele>
        <time>2012-08-20T10:08:50Z</time>
      </trkpt>
      <trkpt lat="39.948455" lon="-0.585757">
        <ele>657.4</ele>
        <time>2012-08-20T10:08:51Z</time>
      </trkpt>
      <trkpt lat="39.948438" lon="-0.585651">
        <ele>657.4</ele>
        <time>2012-08-20T10:08:52Z</time>
      </trkpt>
      <trkpt lat="39.948408" lon="-0.585227">
        <ele>657.4</ele>
        <time>2012-08-20T10:08:56Z</time>
      </trkpt>
      <trkpt lat="39.948413" lon="-0.585117">
        <ele>657.4</ele>
        <time>2012-08-20T10:08:57Z</time>
      </trkpt>
      <trkpt lat="39.948414" lon="-0.585004">
        <ele>657.0</ele>
        <time>2012-08-20T10:08:58Z</time>
      </trkpt>
      <trkpt lat="39.948421" lon="-0.584893">
        <ele>656.6</ele>
        <time>2012-08-20T10:08:59Z</time>
      </trkpt>
      <trkpt lat="39.948435" lon="-0.584787">
        <ele>656.2</ele>
        <time>2012-08-20T10:09:00Z</time>
      </trkpt>
      <trkpt lat="39.948458" lon="-0.584683">
        <ele>655.6</ele>
        <time>2012-08-20T10:09:01Z</time>
      </trkpt>
    </trkseg>
  </trk>
  <trk>
    <name>T3303249-14</name>
    <cmt>La ruta empieza en Ojos Negros. Hasta Santa Eulalia va por una carretera comarcal apenas transitada. Hay un tramo de unos 40 km durante el puerto del Escandón que no aparece reflejado en el track porque me quedé sin batería en el GPS pero la vía verde no tiene pérdida en esa zona</cmt>
    <desc>La ruta empieza en Ojos Negros. Hasta Santa Eulalia va por una carretera comarcal apenas transitada. Hay un tramo de unos 40 km durante el puerto del Escandón que no aparece reflejado en el track porque me quedé sin batería en el GPS pero la vía verde no tiene pérdida en esa zona</desc>
    <trkseg>
      <trkpt lat="39.948481" lon="-0.584579">
        <ele>655.2</ele>
        <time>2012-08-20T10:09:02Z</time>
      </trkpt>
      <trkpt lat="39.948634" lon="-0.584083">
        <ele>654.8</ele>
        <time>2012-08-20T10:09:07Z</time>
      </trkpt>
      <trkpt lat="39.948669" lon="-0.583989">
        <ele>654.4</ele>
        <time>2012-08-20T10:09:08Z</time>
      </trkpt>
      <trkpt lat="39.948705" lon="-0.583897">
        <ele>654.0</ele>
        <time>2012-08-20T10:09:09Z</time>
      </trkpt>
      <trkpt lat="39.948747" lon="-0.583805">
        <ele>653.6</ele>
        <time>2012-08-20T10:09:10Z</time>
      </trkpt>
      <trkpt lat="39.948791" lon="-0.583720">
        <ele>653.0</ele>
        <time>2012-08-20T10:09:11Z</time>
      </trkpt>
      <trkpt lat="39.948926" lon="-0.583453">
        <ele>653.0</ele>
        <time>2012-08-20T10:09:14Z</time>
      </trkpt>
      <trkpt lat="39.949224" lon="-0.582844">
        <ele>653.0</ele>
        <time>2012-08-20T10:09:21Z</time>
      </trkpt>
      <trkpt lat="39.949510" lon="-0.582283">
        <ele>653.0</ele>
        <time>2012-08-20T10:09:28Z</time>
      </trkpt>
      <trkpt lat="39.949745" lon="-0.581831">
        <ele>653.0</ele>
        <time>2012-08-20T10:09:34Z</time>
      </trkpt>
      <trkpt lat="39.949778" lon="-0.581751">
        <ele>653.0</ele>
        <time>2012-08-20T10:09:35Z</time>
      </trkpt>
      <trkpt lat="39.949927" lon="-0.581439">
        <ele>653.0</ele>
        <time>2012-08-20T10:09:39Z</time>
      </trkpt>
      <trkpt lat="39.950250" lon="-0.580835">
        <ele>653.0</ele>
        <time>2012-08-20T10:09:47Z</time>
      </trkpt>
      <trkpt lat="39.950334" lon="-0.580683">
        <ele>653.0</ele>
        <time>2012-08-20T10:09:49Z</time>
      </trkpt>
      <trkpt lat="39.950379" lon="-0.580606">
        <ele>652.6</ele>
        <time>2012-08-20T10:09:50Z</time>
      </trkpt>
      <trkpt lat="39.950425" lon="-0.580523">
        <ele>652.2</ele>
        <time>2012-08-20T10:09:51Z</time>
      </trkpt>
      <trkpt lat="39.950471" lon="-0.580447">
        <ele>651.8</ele>
        <time>2012-08-20T10:09:52Z</time>
      </trkpt>
      <trkpt lat="39.950515" lon="-0.580366">
        <ele>651.4</ele>
        <time>2012-08-20T10:09:53Z</time>
      </trkpt>
      <trkpt lat="39.950558" lon="-0.580286">
        <ele>651.0</ele>
        <time>2012-08-20T10:09:54Z</time>
      </trkpt>
      <trkpt lat="39.950642" lon="-0.580123">
        <ele>651.0</ele>
        <time>2012-08-20T10:09:56Z</time>
      </trkpt>
      <trkpt lat="39.950825" lon="-0.579669">
        <ele>650.6</ele>
        <time>2012-08-20T10:10:01Z</time>
      </trkpt>
      <trkpt lat="39.950854" lon="-0.579573">
        <ele>650.2</ele>
        <time>2012-08-20T10:10:02Z</time>
      </trkpt>
      <trkpt lat="39.950882" lon="-0.579474">
        <ele>649.8</ele>
        <time>2012-08-20T10:10:03Z</time>
      </trkpt>
      <trkpt lat="39.950906" lon="-0.579375">
        <ele>649.4</ele>
        <time>2012-08-20T10:10:04Z</time>
      </trkpt>
      <trkpt lat="39.950927" lon="-0.579274">
        <ele>649.0</ele>
        <time>2012-08-20T10:10:05Z</time>
      </trkpt>
      <trkpt lat="39.950969" lon="-0.578960">
        <ele>649.0</ele>
        <time>2012-08-20T10:10:08Z</time>
      </trkpt>
      <trkpt lat="39.950964" lon="-0.578420">
        <ele>648.6</ele>
        <time>2012-08-20T10:10:13Z</time>
      </trkpt>
      <trkpt lat="39.950951" lon="-0.578308">
        <ele>648.2</ele>
        <time>2012-08-20T10:10:14Z</time>
      </trkpt>
      <trkpt lat="39.950940" lon="-0.578203">
        <ele>647.6</ele>
        <time>2012-08-20T10:10:15Z</time>
      </trkpt>
      <trkpt lat="39.950923" lon="-0.578100">
        <ele>647.2</ele>
        <time>2012-08-20T10:10:16Z</time>
      </trkpt>
      <trkpt lat="39.950903" lon="-0.577996">
        <ele>646.8</ele>
        <time>2012-08-20T10:10:17Z</time>
      </trkpt>
      <trkpt lat="39.950855" lon="-0.577796">
        <ele>646.8</ele>
        <time>2012-08-20T10:10:19Z</time>
      </trkpt>
      <trkpt lat="39.950667" lon="-0.577308">
        <ele>646.4</ele>
        <time>2012-08-20T10:10:24Z</time>
      </trkpt>
      <trkpt lat="39.950631" lon="-0.577213">
        <ele>646.0</ele>
        <time>2012-08-20T10:10:25Z</time>
      </trkpt>
      <trkpt lat="39.950595" lon="-0.577120">
        <ele>645.6</ele>
        <time>2012-08-20T10:10:26Z</time>
      </trkpt>
      <trkpt lat="39.950558" lon="-0.577026">
        <ele>645.0</ele>
        <time>2012-08-20T10:10:27Z</time>
      </trkpt>
      <trkpt lat="39.950520" lon="-0.576933">
        <ele>644.6</ele>
        <time>2012-08-20T10:10:28Z</time>
      </trkpt>
      <trkpt lat="39.950323" lon="-0.576464">
        <ele>644.6</ele>
        <time>2012-08-20T10:10:33Z</time>
      </trkpt>
      <trkpt lat="39.950217" lon="-0.576191">
        <ele>644.2</ele>
        <time>2012-08-20T10:10:36Z</time>
      </trkpt>
      <trkpt lat="39.950175" lon="-0.576097">
        <ele>643.8</ele>
        <time>2012-08-20T10:10:37Z</time>
      </trkpt>
      <trkpt lat="39.950141" lon="-0.576005">
        <ele>643.2</ele>
        <time>2012-08-20T10:10:38Z</time>
      </trkpt>
      <trkpt lat="39.950108" lon="-0.575911">
        <ele>642.8</ele>
        <time>2012-08-20T10:10:39Z</time>
      </trkpt>
      <trkpt lat="39.950075" lon="-0.575823">
        <ele>642.4</ele>
        <time>2012-08-20T10:10:40Z</time>
      </trkpt>
      <trkpt lat="39.949924" lon="-0.575365">
        <ele>642.4</ele>
        <time>2012-08-20T10:10:45Z</time>
      </trkpt>
      <trkpt lat="39.949862" lon="-0.575078">
        <ele>642.0</ele>
        <time>2012-08-20T10:10:48Z</time>
      </trkpt>
      <trkpt lat="39.949848" lon="-0.574981">
        <ele>641.6</ele>
        <time>2012-08-20T10:10:49Z</time>
      </trkpt>
      <trkpt lat="39.949832" lon="-0.574884">
        <ele>641.2</ele>
        <time>2012-08-20T10:10:50Z</time>
      </trkpt>
      <trkpt lat="39.949820" lon="-0.574779">
        <ele>640.8</ele>
        <time>2012-08-20T10:10:51Z</time>
      </trkpt>
      <trkpt lat="39.949809" lon="-0.574679">
        <ele>640.4</ele>
        <time>2012-08-20T10:10:52Z</time>
      </trkpt>
      <trkpt lat="39.949790" lon="-0.574072">
        <ele>640.4</ele>
        <time>2012-08-20T10:10:58Z</time>
      </trkpt>
      <trkpt lat="39.949788" lon="-0.573863">
        <ele>640.0</ele>
        <time>2012-08-20T10:11:00Z</time>
      </trkpt>
      <trkpt lat="39.949788" lon="-0.573761">
        <ele>639.6</ele>
        <time>2012-08-20T10:11:01Z</time>
      </trkpt>
      <trkpt lat="39.949788" lon="-0.573660">
        <ele>639.2</ele>
        <time>2012-08-20T10:11:02Z</time>
      </trkpt>
      <trkpt lat="39.949787" lon="-0.573560">
        <ele>638.6</ele>
        <time>2012-08-20T10:11:03Z</time>
      </trkpt>
      <trkpt lat="39.949784" lon="-0.573459">
        <ele>638.2</ele>
        <time>2012-08-20T10:11:04Z</time>
      </trkpt>
      <trkpt lat="39.949777" lon="-0.573259">
        <ele>638.2</ele>
        <time>2012-08-20T10:11:06Z</time>
      </trkpt>
      <trkpt lat="39.949777" lon="-0.572765">
        <ele>637.4</ele>
        <time>2012-08-20T10:11:11Z</time>
      </trkpt>
      <trkpt lat="39.949772" lon="-0.572664">
        <ele>637.0</ele>
        <time>2012-08-20T10:11:12Z</time>
      </trkpt>
      <trkpt lat="39.949767" lon="-0.572568">
        <ele>636.6</ele>
        <time>2012-08-20T10:11:13Z</time>
      </trkpt>
      <trkpt lat="39.949766" lon="-0.572471">
        <ele>636.2</ele>
        <time>2012-08-20T10:11:14Z</time>
      </trkpt>
      <trkpt lat="39.949752" lon="-0.571864">
        <ele>636.2</ele>
        <time>2012-08-20T10:11:20Z</time>
      </trkpt>
      <trkpt lat="39.949741" lon="-0.571354">
        <ele>635.8</ele>
        <time>2012-08-20T10:11:25Z</time>
      </trkpt>
      <trkpt lat="39.949736" lon="-0.571258">
        <ele>635.4</ele>
        <time>2012-08-20T10:11:26Z</time>
      </trkpt>
      <trkpt lat="39.949734" lon="-0.571161">
        <ele>635.0</ele>
        <time>2012-08-20T10:11:27Z</time>
      </trkpt>
      <trkpt lat="39.949733" lon="-0.571066">
        <ele>634.4</ele>
        <time>2012-08-20T10:11:28Z</time>
      </trkpt>
      <trkpt lat="39.949730" lon="-0.570962">
        <ele>634.0</ele>
        <time>2012-08-20T10:11:29Z</time>
      </trkpt>
      <trkpt lat="39.949725" lon="-0.570589">
        <ele>634.0</ele>
        <time>2012-08-20T10:11:33Z</time>
      </trkpt>
      <trkpt lat="39.949706" lon="-0.570049">
        <ele>633.6</ele>
        <time>2012-08-20T10:11:39Z</time>
      </trkpt>
      <trkpt lat="39.949706" lon="-0.569960">
        <ele>633.2</ele>
        <time>2012-08-20T10:11:40Z</time>
      </trkpt>
      <trkpt lat="39.949706" lon="-0.569866">
        <ele>632.8</ele>
        <time>2012-08-20T10:11:41Z</time>
      </trkpt>
      <trkpt lat="39.948845" lon="-0.567278">
        <ele>627.6</ele>
        <time>2012-08-20T10:12:11Z</time>
      </trkpt>
      <trkpt lat="39.948790" lon="-0.567208">
        <ele>627.6</ele>
        <time>2012-08-20T10:12:12Z</time>
      </trkpt>
      <trkpt lat="39.948611" lon="-0.566899">
        <ele>627.2</ele>
        <time>2012-08-20T10:12:16Z</time>
      </trkpt>
      <trkpt lat="39.948558" lon="-0.566817">
        <ele>626.8</ele>
        <time>2012-08-20T10:12:17Z</time>
      </trkpt>
      <trkpt lat="39.948509" lon="-0.566734">
        <ele>626.4</ele>
        <time>2012-08-20T10:12:18Z</time>
      </trkpt>
      <trkpt lat="39.948461" lon="-0.566651">
        <ele>626.0</ele>
        <time>2012-08-20T10:12:19Z</time>
      </trkpt>
      <trkpt lat="39.948412" lon="-0.566562">
        <ele>625.6</ele>
        <time>2012-08-20T10:12:20Z</time>
      </trkpt>
      <trkpt lat="39.948301" lon="-0.566385">
        <ele>625.6</ele>
        <time>2012-08-20T10:12:23Z</time>
      </trkpt>
      <trkpt lat="39.948292" lon="-0.566364">
        <ele>625.6</ele>
        <time>2012-08-20T10:12:24Z</time>
      </trkpt>
      <trkpt lat="39.948268" lon="-0.566348">
        <ele>625.6</ele>
        <time>2012-08-20T10:12:26Z</time>
      </trkpt>
      <trkpt lat="39.948229" lon="-0.566305">
        <ele>625.6</ele>
        <time>2012-08-20T10:12:28Z</time>
      </trkpt>
      <trkpt lat="39.948196" lon="-0.566264">
        <ele>625.6</ele>
        <time>2012-08-20T10:12:32Z</time>
      </trkpt>
      <trkpt lat="39.948191" lon="-0.566263">
        <ele>625.6</ele>
        <time>2012-08-20T10:12:33Z</time>
      </trkpt>
      <trkpt lat="39.948195" lon="-0.566265">
        <ele>625.6</ele>
        <time>2012-08-20T10:12:36Z</time>
      </trkpt>
      <trkpt lat="39.948195" lon="-0.566263">
        <ele>625.6</ele>
        <time>2012-08-20T10:12:37Z</time>
      </trkpt>
      <trkpt lat="39.948247" lon="-0.566203">
        <ele>625.6</ele>
        <time>2012-08-20T10:13:12Z</time>
      </trkpt>
      <trkpt lat="39.948258" lon="-0.566190">
        <ele>625.6</ele>
        <time>2012-08-20T10:13:13Z</time>
      </trkpt>
      <trkpt lat="39.948326" lon="-0.566134">
        <ele>625.6</ele>
        <time>2012-08-20T10:13:20Z</time>
      </trkpt>
      <trkpt lat="39.948345" lon="-0.566120">
        <ele>625.6</ele>
        <time>2012-08-20T10:13:23Z</time>
      </trkpt>
      <trkpt lat="39.948351" lon="-0.566108">
        <ele>625.6</ele>
        <time>2012-08-20T10:13:25Z</time>
      </trkpt>
      <trkpt lat="39.948347" lon="-0.566102">
        <ele>625.6</ele>
        <time>2012-08-20T10:13:28Z</time>
      </trkpt>
      <trkpt lat="39.948342" lon="-0.566102">
        <ele>625.6</ele>
        <time>2012-08-20T10:13:30Z</time>
      </trkpt>
      <trkpt lat="39.948318" lon="-0.566102">
        <ele>625.6</ele>
        <time>2012-08-20T10:17:39Z</time>
      </trkpt>
      <trkpt lat="39.948251" lon="-0.566235">
        <ele>625.6</ele>
        <time>2012-08-20T10:17:45Z</time>
      </trkpt>
      <trkpt lat="39.948199" lon="-0.566230">
        <ele>625.6</ele>
        <time>2012-08-20T10:17:52Z</time>
      </trkpt>
      <trkpt lat="39.948199" lon="-0.566231">
        <ele>625.6</ele>
        <time>2012-08-20T10:17:54Z</time>
      </trkpt>
      <trkpt lat="39.948173" lon="-0.566211">
        <ele>625.6</ele>
        <time>2012-08-20T10:18:09Z</time>
      </trkpt>
      <trkpt lat="39.948173" lon="-0.566211">
        <ele>625.6</ele>
        <time>2012-08-20T10:18:10Z</time>
      </trkpt>
      <trkpt lat="39.948125" lon="-0.566105">
        <ele>625.6</ele>
        <time>2012-08-20T10:18:21Z</time>
      </trkpt>
      <trkpt lat="39.948099" lon="-0.566069">
        <ele>625.6</ele>
        <time>2012-08-20T10:18:22Z</time>
      </trkpt>
      <trkpt lat="39.948043" lon="-0.565959">
        <ele>625.6</ele>
        <time>2012-08-20T10:18:25Z</time>
      </trkpt>
      <trkpt lat="39.948000" lon="-0.565890">
        <ele>625.2</ele>
        <time>2012-08-20T10:18:27Z</time>
      </trkpt>
      <trkpt lat="39.947979" lon="-0.565854">
        <ele>624.8</ele>
        <time>2012-08-20T10:18:28Z</time>
      </trkpt>
      <trkpt lat="39.947953" lon="-0.565806">
        <ele>624.4</ele>
        <time>2012-08-20T10:18:29Z</time>
      </trkpt>
      <trkpt lat="39.947923" lon="-0.565762">
        <ele>624.0</ele>
        <time>2012-08-20T10:18:30Z</time>
      </trkpt>
      <trkpt lat="39.947899" lon="-0.565705">
        <ele>623.4</ele>
        <time>2012-08-20T10:18:31Z</time>
      </trkpt>
      <trkpt lat="39.947835" lon="-0.565602">
        <ele>623.4</ele>
        <time>2012-08-20T10:18:33Z</time>
      </trkpt>
      <trkpt lat="39.947711" lon="-0.565386">
        <ele>623.4</ele>
        <time>2012-08-20T10:18:37Z</time>
      </trkpt>
      <trkpt lat="39.947644" lon="-0.565277">
        <ele>623.4</ele>
        <time>2012-08-20T10:18:39Z</time>
      </trkpt>
      <trkpt lat="39.947614" lon="-0.565228">
        <ele>623.0</ele>
        <time>2012-08-20T10:18:40Z</time>
      </trkpt>
      <trkpt lat="39.947584" lon="-0.565173">
        <ele>622.6</ele>
        <time>2012-08-20T10:18:41Z</time>
      </trkpt>
      <trkpt lat="39.947553" lon="-0.565116">
        <ele>622.2</ele>
        <time>2012-08-20T10:18:42Z</time>
      </trkpt>
      <trkpt lat="39.947521" lon="-0.565055">
        <ele>621.8</ele>
        <time>2012-08-20T10:18:43Z</time>
      </trkpt>
      <trkpt lat="39.947488" lon="-0.564995">
        <ele>621.4</ele>
        <time>2012-08-20T10:18:44Z</time>
      </trkpt>
      <trkpt lat="39.947347" lon="-0.564745">
        <ele>621.4</ele>
        <time>2012-08-20T10:18:48Z</time>
      </trkpt>
      <trkpt lat="39.947239" lon="-0.564563">
        <ele>621.4</ele>
        <time>2012-08-20T10:18:51Z</time>
      </trkpt>
      <trkpt lat="39.947165" lon="-0.564439">
        <ele>621.0</ele>
        <time>2012-08-20T10:18:53Z</time>
      </trkpt>
      <trkpt lat="39.947127" lon="-0.564376">
        <ele>620.6</ele>
        <time>2012-08-20T10:18:54Z</time>
      </trkpt>
      <trkpt lat="39.947088" lon="-0.564311">
        <ele>620.2</ele>
        <time>2012-08-20T10:18:55Z</time>
      </trkpt>
      <trkpt lat="39.947050" lon="-0.564245">
        <ele>619.8</ele>
        <time>2012-08-20T10:18:56Z</time>
      </trkpt>
      <trkpt lat="39.947012" lon="-0.564178">
        <ele>619.4</ele>
        <time>2012-08-20T10:18:57Z</time>
      </trkpt>
      <trkpt lat="39.946935" lon="-0.564040">
        <ele>619.4</ele>
        <time>2012-08-20T10:18:59Z</time>
      </trkpt>
      <trkpt lat="39.946678" lon="-0.563614">
        <ele>619.4</ele>
        <time>2012-08-20T10:19:05Z</time>
      </trkpt>
      <trkpt lat="39.946596" lon="-0.563463">
        <ele>618.8</ele>
        <time>2012-08-20T10:19:07Z</time>
      </trkpt>
      <trkpt lat="39.946554" lon="-0.563390">
        <ele>618.4</ele>
        <time>2012-08-20T10:19:08Z</time>
      </trkpt>
      <trkpt lat="39.946510" lon="-0.563318">
        <ele>618.0</ele>
        <time>2012-08-20T10:19:09Z</time>
      </trkpt>
      <trkpt lat="39.946464" lon="-0.563247">
        <ele>617.6</ele>
        <time>2012-08-20T10:19:10Z</time>
      </trkpt>
      <trkpt lat="39.946417" lon="-0.563176">
        <ele>617.2</ele>
        <time>2012-08-20T10:19:11Z</time>
      </trkpt>
      <trkpt lat="39.946367" lon="-0.563109">
        <ele>617.2</ele>
        <time>2012-08-20T10:19:12Z</time>
      </trkpt>
      <trkpt lat="39.946035" lon="-0.562759">
        <ele>617.2</ele>
        <time>2012-08-20T10:19:18Z</time>
      </trkpt>
      <trkpt lat="39.945974" lon="-0.562712">
        <ele>616.8</ele>
        <time>2012-08-20T10:19:19Z</time>
      </trkpt>
      <trkpt lat="39.945911" lon="-0.562669">
        <ele>616.2</ele>
        <time>2012-08-20T10:19:20Z</time>
      </trkpt>
      <trkpt lat="39.945849" lon="-0.562629">
        <ele>615.8</ele>
        <time>2012-08-20T10:19:21Z</time>
      </trkpt>
      <trkpt lat="39.945786" lon="-0.562594">
        <ele>615.4</ele>
        <time>2012-08-20T10:19:22Z</time>
      </trkpt>
      <trkpt lat="39.945723" lon="-0.562562">
        <ele>615.0</ele>
        <time>2012-08-20T10:19:23Z</time>
      </trkpt>
      <trkpt lat="39.945657" lon="-0.562530">
        <ele>615.0</ele>
        <time>2012-08-20T10:19:24Z</time>
      </trkpt>
      <trkpt lat="39.945313" lon="-0.562434">
        <ele>615.0</ele>
        <time>2012-08-20T10:19:29Z</time>
      </trkpt>
      <trkpt lat="39.945172" lon="-0.562415">
        <ele>614.6</ele>
        <time>2012-08-20T10:19:31Z</time>
      </trkpt>
      <trkpt lat="39.945103" lon="-0.562403">
        <ele>614.2</ele>
        <time>2012-08-20T10:19:32Z</time>
      </trkpt>
      <trkpt lat="39.945031" lon="-0.562391">
        <ele>613.8</ele>
        <time>2012-08-20T10:19:33Z</time>
      </trkpt>
      <trkpt lat="39.944961" lon="-0.562379">
        <ele>613.4</ele>
        <time>2012-08-20T10:19:34Z</time>
      </trkpt>
      <trkpt lat="39.944891" lon="-0.562366">
        <ele>613.0</ele>
        <time>2012-08-20T10:19:35Z</time>
      </trkpt>
      <trkpt lat="39.944746" lon="-0.562346">
        <ele>613.0</ele>
        <time>2012-08-20T10:19:37Z</time>
      </trkpt>
      <trkpt lat="39.944247" lon="-0.562273">
        <ele>612.4</ele>
        <time>2012-08-20T10:19:44Z</time>
      </trkpt>
      <trkpt lat="39.944175" lon="-0.562261">
        <ele>612.0</ele>
        <time>2012-08-20T10:19:45Z</time>
      </trkpt>
      <trkpt lat="39.944103" lon="-0.562249">
        <ele>611.6</ele>
        <time>2012-08-20T10:19:46Z</time>
      </trkpt>
      <trkpt lat="39.944032" lon="-0.562239">
        <ele>611.2</ele>
        <time>2012-08-20T10:19:47Z</time>
      </trkpt>
      <trkpt lat="39.943960" lon="-0.562232">
        <ele>610.6</ele>
        <time>2012-08-20T10:19:48Z</time>
      </trkpt>
      <trkpt lat="39.943668" lon="-0.562199">
        <ele>610.6</ele>
        <time>2012-08-20T10:19:52Z</time>
      </trkpt>
      <trkpt lat="39.943388" lon="-0.562145">
        <ele>610.2</ele>
        <time>2012-08-20T10:19:56Z</time>
      </trkpt>
      <trkpt lat="39.943317" lon="-0.562135">
        <ele>609.8</ele>
        <time>2012-08-20T10:19:57Z</time>
      </trkpt>
      <trkpt lat="39.943245" lon="-0.562125">
        <ele>609.4</ele>
        <time>2012-08-20T10:19:58Z</time>
      </trkpt>
      <trkpt lat="39.943171" lon="-0.562113">
        <ele>609.0</ele>
        <time>2012-08-20T10:19:59Z</time>
      </trkpt>
      <trkpt lat="39.943101" lon="-0.562100">
        <ele>608.6</ele>
        <time>2012-08-20T10:20:00Z</time>
      </trkpt>
      <trkpt lat="39.942810" lon="-0.562012">
        <ele>608.6</ele>
        <time>2012-08-20T10:20:04Z</time>
      </trkpt>
      <trkpt lat="39.942465" lon="-0.561814">
        <ele>608.2</ele>
        <time>2012-08-20T10:20:09Z</time>
      </trkpt>
      <trkpt lat="39.942401" lon="-0.561763">
        <ele>607.8</ele>
        <time>2012-08-20T10:20:10Z</time>
      </trkpt>
      <trkpt lat="39.942339" lon="-0.561707">
        <ele>607.4</ele>
        <time>2012-08-20T10:20:11Z</time>
      </trkpt>
      <trkpt lat="39.942278" lon="-0.561648">
        <ele>607.0</ele>
        <time>2012-08-20T10:20:12Z</time>
      </trkpt>
      <trkpt lat="39.942218" lon="-0.561584">
        <ele>606.6</ele>
        <time>2012-08-20T10:20:13Z</time>
      </trkpt>
      <trkpt lat="39.942048" lon="-0.561377">
        <ele>606.6</ele>
        <time>2012-08-20T10:20:16Z</time>
      </trkpt>
      <trkpt lat="39.941826" lon="-0.561079">
        <ele>606.2</ele>
        <time>2012-08-20T10:20:20Z</time>
      </trkpt>
      <trkpt lat="39.941769" lon="-0.561005">
        <ele>605.6</ele>
        <time>2012-08-20T10:20:21Z</time>
      </trkpt>
      <trkpt lat="39.941712" lon="-0.560933">
        <ele>605.2</ele>
        <time>2012-08-20T10:20:22Z</time>
      </trkpt>
      <trkpt lat="39.941655" lon="-0.560859">
        <ele>604.8</ele>
        <time>2012-08-20T10:20:23Z</time>
      </trkpt>
      <trkpt lat="39.941600" lon="-0.560784">
        <ele>604.4</ele>
        <time>2012-08-20T10:20:24Z</time>
      </trkpt>
      <trkpt lat="39.941302" lon="-0.560385">
        <ele>604.4</ele>
        <time>2012-08-20T10:20:29Z</time>
      </trkpt>
      <trkpt lat="39.941071" lon="-0.560075">
        <ele>604.0</ele>
        <time>2012-08-20T10:20:33Z</time>
      </trkpt>
      <trkpt lat="39.941013" lon="-0.559996">
        <ele>603.6</ele>
        <time>2012-08-20T10:20:34Z</time>
      </trkpt>
      <trkpt lat="39.940952" lon="-0.559914">
        <ele>602.8</ele>
        <time>2012-08-20T10:20:35Z</time>
      </trkpt>
      <trkpt lat="39.940893" lon="-0.559837">
        <ele>602.2</ele>
        <time>2012-08-20T10:20:36Z</time>
      </trkpt>
      <trkpt lat="39.940715" lon="-0.559614">
        <ele>602.2</ele>
        <time>2012-08-20T10:20:39Z</time>
      </trkpt>
      <trkpt lat="39.940656" lon="-0.559543">
        <ele>601.8</ele>
        <time>2012-08-20T10:20:40Z</time>
      </trkpt>
      <trkpt lat="39.940596" lon="-0.559473">
        <ele>601.2</ele>
        <time>2012-08-20T10:20:41Z</time>
      </trkpt>
      <trkpt lat="39.940534" lon="-0.559400">
        <ele>600.8</ele>
        <time>2012-08-20T10:20:42Z</time>
      </trkpt>
      <trkpt lat="39.940473" lon="-0.559328">
        <ele>600.2</ele>
        <time>2012-08-20T10:20:43Z</time>
      </trkpt>
      <trkpt lat="39.940411" lon="-0.559257">
        <ele>599.6</ele>
        <time>2012-08-20T10:20:44Z</time>
      </trkpt>
      <trkpt lat="39.940285" lon="-0.559119">
        <ele>599.6</ele>
        <time>2012-08-20T10:20:46Z</time>
      </trkpt>
      <trkpt lat="39.939893" lon="-0.558716">
        <ele>599.6</ele>
        <time>2012-08-20T10:20:52Z</time>
      </trkpt>
      <trkpt lat="39.939401" lon="-0.558285">
        <ele>599.2</ele>
        <time>2012-08-20T10:20:59Z</time>
      </trkpt>
      <trkpt lat="39.939332" lon="-0.558227">
        <ele>598.4</ele>
        <time>2012-08-20T10:21:00Z</time>
      </trkpt>
      <trkpt lat="39.939263" lon="-0.558168">
        <ele>598.0</ele>
        <time>2012-08-20T10:21:01Z</time>
      </trkpt>
      <trkpt lat="39.939193" lon="-0.558111">
        <ele>597.6</ele>
        <time>2012-08-20T10:21:02Z</time>
      </trkpt>
      <trkpt lat="39.938909" lon="-0.557892">
        <ele>597.6</ele>
        <time>2012-08-20T10:21:06Z</time>
      </trkpt>
      <trkpt lat="39.938769" lon="-0.557784">
        <ele>597.2</ele>
        <time>2012-08-20T10:21:08Z</time>
      </trkpt>
      <trkpt lat="39.938698" lon="-0.557729">
        <ele>596.8</ele>
        <time>2012-08-20T10:21:09Z</time>
      </trkpt>
      <trkpt lat="39.938626" lon="-0.557676">
        <ele>596.4</ele>
        <time>2012-08-20T10:21:10Z</time>
      </trkpt>
      <trkpt lat="39.938557" lon="-0.557622">
        <ele>596.0</ele>
        <time>2012-08-20T10:21:11Z</time>
      </trkpt>
      <trkpt lat="39.938489" lon="-0.557566">
        <ele>595.6</ele>
        <time>2012-08-20T10:21:12Z</time>
      </trkpt>
      <trkpt lat="39.938417" lon="-0.557504">
        <ele>595.6</ele>
        <time>2012-08-20T10:21:13Z</time>
      </trkpt>
      <trkpt lat="39.937996" lon="-0.557157">
        <ele>595.2</ele>
        <time>2012-08-20T10:21:19Z</time>
      </trkpt>
      <trkpt lat="39.937926" lon="-0.557100">
        <ele>594.8</ele>
        <time>2012-08-20T10:21:20Z</time>
      </trkpt>
      <trkpt lat="39.937852" lon="-0.557037">
        <ele>594.4</ele>
        <time>2012-08-20T10:21:21Z</time>
      </trkpt>
      <trkpt lat="39.937781" lon="-0.556981">
        <ele>594.0</ele>
        <time>2012-08-20T10:21:22Z</time>
      </trkpt>
      <trkpt lat="39.937710" lon="-0.556925">
        <ele>593.6</ele>
        <time>2012-08-20T10:21:23Z</time>
      </trkpt>
      <trkpt lat="39.937431" lon="-0.556692">
        <ele>593.2</ele>
        <time>2012-08-20T10:21:27Z</time>
      </trkpt>
      <trkpt lat="39.937363" lon="-0.556630">
        <ele>592.6</ele>
        <time>2012-08-20T10:21:28Z</time>
      </trkpt>
      <trkpt lat="39.937295" lon="-0.556559">
        <ele>592.2</ele>
        <time>2012-08-20T10:21:29Z</time>
      </trkpt>
      <trkpt lat="39.937230" lon="-0.556489">
        <ele>591.8</ele>
        <time>2012-08-20T10:21:30Z</time>
      </trkpt>
      <trkpt lat="39.937167" lon="-0.556419">
        <ele>591.4</ele>
        <time>2012-08-20T10:21:31Z</time>
      </trkpt>
      <trkpt lat="39.937040" lon="-0.556274">
        <ele>591.4</ele>
        <time>2012-08-20T10:21:33Z</time>
      </trkpt>
      <trkpt lat="39.936679" lon="-0.555808">
        <ele>591.0</ele>
        <time>2012-08-20T10:21:39Z</time>
      </trkpt>
      <trkpt lat="39.936623" lon="-0.555728">
        <ele>590.6</ele>
        <time>2012-08-20T10:21:40Z</time>
      </trkpt>
      <trkpt lat="39.936568" lon="-0.555647">
        <ele>590.2</ele>
        <time>2012-08-20T10:21:41Z</time>
      </trkpt>
      <trkpt lat="39.936515" lon="-0.555566">
        <ele>589.8</ele>
        <time>2012-08-20T10:21:42Z</time>
      </trkpt>
      <trkpt lat="39.936460" lon="-0.555483">
        <ele>589.4</ele>
        <time>2012-08-20T10:21:43Z</time>
      </trkpt>
      <trkpt lat="39.936206" lon="-0.555051">
        <ele>589.4</ele>
        <time>2012-08-20T10:21:48Z</time>
      </trkpt>
      <trkpt lat="39.936158" lon="-0.554963">
        <ele>588.6</ele>
        <time>2012-08-20T10:21:49Z</time>
      </trkpt>
      <trkpt lat="39.936111" lon="-0.554874">
        <ele>588.2</ele>
        <time>2012-08-20T10:21:50Z</time>
      </trkpt>
      <trkpt lat="39.936067" lon="-0.554784">
        <ele>587.8</ele>
        <time>2012-08-20T10:21:51Z</time>
      </trkpt>
      <trkpt lat="39.936023" lon="-0.554688">
        <ele>587.4</ele>
        <time>2012-08-20T10:21:52Z</time>
      </trkpt>
      <trkpt lat="39.935855" lon="-0.554314">
        <ele>587.4</ele>
        <time>2012-08-20T10:21:56Z</time>
      </trkpt>
      <trkpt lat="39.935770" lon="-0.554130">
        <ele>587.0</ele>
        <time>2012-08-20T10:21:58Z</time>
      </trkpt>
      <trkpt lat="39.935729" lon="-0.554039">
        <ele>586.6</ele>
        <time>2012-08-20T10:21:59Z</time>
      </trkpt>
      <trkpt lat="39.935688" lon="-0.553940">
        <ele>586.0</ele>
        <time>2012-08-20T10:22:00Z</time>
      </trkpt>
      <trkpt lat="39.935648" lon="-0.553848">
        <ele>585.6</ele>
        <time>2012-08-20T10:22:01Z</time>
      </trkpt>
      <trkpt lat="39.935609" lon="-0.553759">
        <ele>585.2</ele>
        <time>2012-08-20T10:22:02Z</time>
      </trkpt>
      <trkpt lat="39.935484" lon="-0.553487">
        <ele>585.2</ele>
        <time>2012-08-20T10:22:05Z</time>
      </trkpt>
      <trkpt lat="39.935280" lon="-0.553019">
        <ele>584.8</ele>
        <time>2012-08-20T10:22:10Z</time>
      </trkpt>
      <trkpt lat="39.935237" lon="-0.552928">
        <ele>584.2</ele>
        <time>2012-08-20T10:22:11Z</time>
      </trkpt>
      <trkpt lat="39.935196" lon="-0.552837">
        <ele>583.8</ele>
        <time>2012-08-20T10:22:12Z</time>
      </trkpt>
      <trkpt lat="39.935152" lon="-0.552742">
        <ele>583.4</ele>
        <time>2012-08-20T10:22:13Z</time>
      </trkpt>
      <trkpt lat="39.935110" lon="-0.552647">
        <ele>582.8</ele>
        <time>2012-08-20T10:22:14Z</time>
      </trkpt>
      <trkpt lat="39.934819" lon="-0.551957">
        <ele>582.4</ele>
        <time>2012-08-20T10:22:21Z</time>
      </trkpt>
      <trkpt lat="39.934782" lon="-0.551856">
        <ele>582.0</ele>
        <time>2012-08-20T10:22:22Z</time>
      </trkpt>
      <trkpt lat="39.934744" lon="-0.551748">
        <ele>581.6</ele>
        <time>2012-08-20T10:22:23Z</time>
      </trkpt>
      <trkpt lat="39.934712" lon="-0.551643">
        <ele>581.2</ele>
        <time>2012-08-20T10:22:24Z</time>
      </trkpt>
      <trkpt lat="39.934680" lon="-0.551540">
        <ele>580.8</ele>
        <time>2012-08-20T10:22:25Z</time>
      </trkpt>
      <trkpt lat="39.934588" lon="-0.551223">
        <ele>580.8</ele>
        <time>2012-08-20T10:22:28Z</time>
      </trkpt>
      <trkpt lat="39.934480" lon="-0.550805">
        <ele>580.4</ele>
        <time>2012-08-20T10:22:32Z</time>
      </trkpt>
      <trkpt lat="39.934455" lon="-0.550704">
        <ele>580.0</ele>
        <time>2012-08-20T10:22:33Z</time>
      </trkpt>
      <trkpt lat="39.934428" lon="-0.550605">
        <ele>579.6</ele>
        <time>2012-08-20T10:22:34Z</time>
      </trkpt>
      <trkpt lat="39.934403" lon="-0.550507">
        <ele>579.2</ele>
        <time>2012-08-20T10:22:35Z</time>
      </trkpt>
      <trkpt lat="39.934378" lon="-0.550409">
        <ele>578.8</ele>
        <time>2012-08-20T10:22:36Z</time>
      </trkpt>
      <trkpt lat="39.934217" lon="-0.549816">
        <ele>578.4</ele>
        <time>2012-08-20T10:22:42Z</time>
      </trkpt>
      <trkpt lat="39.934189" lon="-0.549723">
        <ele>577.8</ele>
        <time>2012-08-20T10:22:43Z</time>
      </trkpt>
      <trkpt lat="39.934162" lon="-0.549631">
        <ele>577.4</ele>
        <time>2012-08-20T10:22:44Z</time>
      </trkpt>
      <trkpt lat="39.934134" lon="-0.549543">
        <ele>577.0</ele>
        <time>2012-08-20T10:22:45Z</time>
      </trkpt>
      <trkpt lat="39.934106" lon="-0.549458">
        <ele>576.6</ele>
        <time>2012-08-20T10:22:46Z</time>
      </trkpt>
      <trkpt lat="39.933958" lon="-0.549104">
        <ele>576.6</ele>
        <time>2012-08-20T10:22:50Z</time>
      </trkpt>
      <trkpt lat="39.933721" lon="-0.548687">
        <ele>576.2</ele>
        <time>2012-08-20T10:22:55Z</time>
      </trkpt>
      <trkpt lat="39.933666" lon="-0.548610">
        <ele>575.8</ele>
        <time>2012-08-20T10:22:56Z</time>
      </trkpt>
      <trkpt lat="39.933609" lon="-0.548538">
        <ele>575.4</ele>
        <time>2012-08-20T10:22:57Z</time>
      </trkpt>
      <trkpt lat="39.933551" lon="-0.548470">
        <ele>575.0</ele>
        <time>2012-08-20T10:22:58Z</time>
      </trkpt>
      <trkpt lat="39.933491" lon="-0.548404">
        <ele>574.6</ele>
        <time>2012-08-20T10:22:59Z</time>
      </trkpt>
      <trkpt lat="39.933298" lon="-0.548218">
        <ele>574.6</ele>
        <time>2012-08-20T10:23:02Z</time>
      </trkpt>
      <trkpt lat="39.933095" lon="-0.548053">
        <ele>574.2</ele>
        <time>2012-08-20T10:23:05Z</time>
      </trkpt>
      <trkpt lat="39.933027" lon="-0.548000">
        <ele>573.8</ele>
        <time>2012-08-20T10:23:06Z</time>
      </trkpt>
      <trkpt lat="39.932958" lon="-0.547949">
        <ele>573.4</ele>
        <time>2012-08-20T10:23:07Z</time>
      </trkpt>
      <trkpt lat="39.932889" lon="-0.547900">
        <ele>573.0</ele>
        <time>2012-08-20T10:23:08Z</time>
      </trkpt>
      <trkpt lat="39.932820" lon="-0.547849">
        <ele>572.6</ele>
        <time>2012-08-20T10:23:09Z</time>
      </trkpt>
      <trkpt lat="39.932748" lon="-0.547797">
        <ele>572.6</ele>
        <time>2012-08-20T10:23:10Z</time>
      </trkpt>
      <trkpt lat="39.932259" lon="-0.547459">
        <ele>572.0</ele>
        <time>2012-08-20T10:23:17Z</time>
      </trkpt>
      <trkpt lat="39.932182" lon="-0.547412">
        <ele>571.6</ele>
        <time>2012-08-20T10:23:18Z</time>
      </trkpt>
      <trkpt lat="39.932107" lon="-0.547371">
        <ele>571.2</ele>
        <time>2012-08-20T10:23:19Z</time>
      </trkpt>
      <trkpt lat="39.932029" lon="-0.547335">
        <ele>570.8</ele>
        <time>2012-08-20T10:23:20Z</time>
      </trkpt>
      <trkpt lat="39.931951" lon="-0.547308">
        <ele>570.4</ele>
        <time>2012-08-20T10:23:21Z</time>
      </trkpt>
      <trkpt lat="39.931790" lon="-0.547255">
        <ele>570.4</ele>
        <time>2012-08-20T10:23:23Z</time>
      </trkpt>
      <trkpt lat="39.931361" lon="-0.547183">
        <ele>570.0</ele>
        <time>2012-08-20T10:23:28Z</time>
      </trkpt>
      <trkpt lat="39.931275" lon="-0.547182">
        <ele>569.4</ele>
        <time>2012-08-20T10:23:29Z</time>
      </trkpt>
      <trkpt lat="39.931191" lon="-0.547185">
        <ele>569.0</ele>
        <time>2012-08-20T10:23:30Z</time>
      </trkpt>
      <trkpt lat="39.931105" lon="-0.547189">
        <ele>568.6</ele>
        <time>2012-08-20T10:23:31Z</time>
      </trkpt>
      <trkpt lat="39.931021" lon="-0.547200">
        <ele>568.2</ele>
        <time>2012-08-20T10:23:32Z</time>
      </trkpt>
      <trkpt lat="39.930776" lon="-0.547254">
        <ele>568.2</ele>
        <time>2012-08-20T10:23:35Z</time>
      </trkpt>
      <trkpt lat="39.930387" lon="-0.547426">
        <ele>567.8</ele>
        <time>2012-08-20T10:23:40Z</time>
      </trkpt>
      <trkpt lat="39.930317" lon="-0.547472">
        <ele>567.2</ele>
        <time>2012-08-20T10:23:41Z</time>
      </trkpt>
      <trkpt lat="39.930247" lon="-0.547523">
        <ele>566.8</ele>
        <time>2012-08-20T10:23:42Z</time>
      </trkpt>
      <trkpt lat="39.930179" lon="-0.547573">
        <ele>566.4</ele>
        <time>2012-08-20T10:23:43Z</time>
      </trkpt>
      <trkpt lat="39.930111" lon="-0.547624">
        <ele>566.0</ele>
        <time>2012-08-20T10:23:44Z</time>
      </trkpt>
      <trkpt lat="39.929854" lon="-0.547858">
        <ele>566.0</ele>
        <time>2012-08-20T10:23:48Z</time>
      </trkpt>
      <trkpt lat="39.929629" lon="-0.548128">
        <ele>565.2</ele>
        <time>2012-08-20T10:23:52Z</time>
      </trkpt>
      <trkpt lat="39.929576" lon="-0.548204">
        <ele>564.8</ele>
        <time>2012-08-20T10:23:53Z</time>
      </trkpt>
      <trkpt lat="39.929528" lon="-0.548285">
        <ele>564.4</ele>
        <time>2012-08-20T10:23:54Z</time>
      </trkpt>
      <trkpt lat="39.929480" lon="-0.548367">
        <ele>563.8</ele>
        <time>2012-08-20T10:23:55Z</time>
      </trkpt>
      <trkpt lat="39.929198" lon="-0.548859">
        <ele>563.4</ele>
        <time>2012-08-20T10:24:01Z</time>
      </trkpt>
      <trkpt lat="39.929154" lon="-0.548940">
        <ele>563.0</ele>
        <time>2012-08-20T10:24:02Z</time>
      </trkpt>
      <trkpt lat="39.929108" lon="-0.549022">
        <ele>562.6</ele>
        <time>2012-08-20T10:24:03Z</time>
      </trkpt>
      <trkpt lat="39.929061" lon="-0.549109">
        <ele>562.2</ele>
        <time>2012-08-20T10:24:04Z</time>
      </trkpt>
      <trkpt lat="39.929016" lon="-0.549195">
        <ele>561.8</ele>
        <time>2012-08-20T10:24:05Z</time>
      </trkpt>
      <trkpt lat="39.928864" lon="-0.549548">
        <ele>561.8</ele>
        <time>2012-08-20T10:24:09Z</time>
      </trkpt>
      <trkpt lat="39.928831" lon="-0.549637">
        <ele>561.4</ele>
        <time>2012-08-20T10:24:10Z</time>
      </trkpt>
      <trkpt lat="39.928804" lon="-0.549726">
        <ele>561.0</ele>
        <time>2012-08-20T10:24:11Z</time>
      </trkpt>
      <trkpt lat="39.928776" lon="-0.549821">
        <ele>560.6</ele>
        <time>2012-08-20T10:24:12Z</time>
      </trkpt>
      <trkpt lat="39.928751" lon="-0.549914">
        <ele>560.2</ele>
        <time>2012-08-20T10:24:13Z</time>
      </trkpt>
      <trkpt lat="39.928727" lon="-0.550007">
        <ele>559.8</ele>
        <time>2012-08-20T10:24:14Z</time>
      </trkpt>
      <trkpt lat="39.928706" lon="-0.550101">
        <ele>559.8</ele>
        <time>2012-08-20T10:24:15Z</time>
      </trkpt>
      <trkpt lat="39.928594" lon="-0.550793">
        <ele>559.8</ele>
        <time>2012-08-20T10:24:22Z</time>
      </trkpt>
      <trkpt lat="39.928582" lon="-0.550896">
        <ele>559.2</ele>
        <time>2012-08-20T10:24:23Z</time>
      </trkpt>
      <trkpt lat="39.928574" lon="-0.550998">
        <ele>558.8</ele>
        <time>2012-08-20T10:24:24Z</time>
      </trkpt>
      <trkpt lat="39.928574" lon="-0.551102">
        <ele>558.4</ele>
        <time>2012-08-20T10:24:25Z</time>
      </trkpt>
      <trkpt lat="39.928573" lon="-0.551203">
        <ele>558.0</ele>
        <time>2012-08-20T10:24:26Z</time>
      </trkpt>
      <trkpt lat="39.928572" lon="-0.551311">
        <ele>557.6</ele>
        <time>2012-08-20T10:24:27Z</time>
      </trkpt>
      <trkpt lat="39.928574" lon="-0.552060">
        <ele>557.6</ele>
        <time>2012-08-20T10:24:34Z</time>
      </trkpt>
      <trkpt lat="39.928576" lon="-0.552168">
        <ele>557.2</ele>
        <time>2012-08-20T10:24:35Z</time>
      </trkpt>
      <trkpt lat="39.928579" lon="-0.552276">
        <ele>556.8</ele>
        <time>2012-08-20T10:24:36Z</time>
      </trkpt>
      <trkpt lat="39.928580" lon="-0.552388">
        <ele>556.4</ele>
        <time>2012-08-20T10:24:37Z</time>
      </trkpt>
      <trkpt lat="39.928579" lon="-0.552500">
        <ele>556.0</ele>
        <time>2012-08-20T10:24:38Z</time>
      </trkpt>
      <trkpt lat="39.928580" lon="-0.552611">
        <ele>555.6</ele>
        <time>2012-08-20T10:24:39Z</time>
      </trkpt>
      <trkpt lat="39.928582" lon="-0.552723">
        <ele>555.6</ele>
        <time>2012-08-20T10:24:40Z</time>
      </trkpt>
      <trkpt lat="39.928598" lon="-0.553400">
        <ele>555.2</ele>
        <time>2012-08-20T10:24:46Z</time>
      </trkpt>
      <trkpt lat="39.928600" lon="-0.553511">
        <ele>554.8</ele>
        <time>2012-08-20T10:24:47Z</time>
      </trkpt>
      <trkpt lat="39.928602" lon="-0.553623">
        <ele>554.4</ele>
        <time>2012-08-20T10:24:48Z</time>
      </trkpt>
      <trkpt lat="39.928602" lon="-0.553734">
        <ele>554.0</ele>
        <time>2012-08-20T10:24:49Z</time>
      </trkpt>
      <trkpt lat="39.928602" lon="-0.553849">
        <ele>553.6</ele>
        <time>2012-08-20T10:24:50Z</time>
      </trkpt>
      <trkpt lat="39.928613" lon="-0.554383">
        <ele>553.6</ele>
        <time>2012-08-20T10:24:55Z</time>
      </trkpt>
      <trkpt lat="39.928627" lon="-0.555104">
        <ele>553.6</ele>
        <time>2012-08-20T10:25:02Z</time>
      </trkpt>
      <trkpt lat="39.928627" lon="-0.555500">
        <ele>552.6</ele>
        <time>2012-08-20T10:25:06Z</time>
      </trkpt>
      <trkpt lat="39.928630" lon="-0.555597">
        <ele>552.2</ele>
        <time>2012-08-20T10:25:07Z</time>
      </trkpt>
      <trkpt lat="39.928632" lon="-0.555694">
        <ele>551.8</ele>
        <time>2012-08-20T10:25:08Z</time>
      </trkpt>
      <trkpt lat="39.928634" lon="-0.555791">
        <ele>551.4</ele>
        <time>2012-08-20T10:25:09Z</time>
      </trkpt>
      <trkpt lat="39.928636" lon="-0.555889">
        <ele>551.4</ele>
        <time>2012-08-20T10:25:10Z</time>
      </trkpt>
      <trkpt lat="39.928638" lon="-0.556553">
        <ele>551.4</ele>
        <time>2012-08-20T10:25:17Z</time>
      </trkpt>
      <trkpt lat="39.928646" lon="-0.557071">
        <ele>551.4</ele>
        <time>2012-08-20T10:25:23Z</time>
      </trkpt>
      <trkpt lat="39.928642" lon="-0.557611">
        <ele>551.4</ele>
        <time>2012-08-20T10:25:30Z</time>
      </trkpt>
      <trkpt lat="39.928661" lon="-0.558237">
        <ele>551.4</ele>
        <time>2012-08-20T10:25:38Z</time>
      </trkpt>
      <trkpt lat="39.928672" lon="-0.558859">
        <ele>551.4</ele>
        <time>2012-08-20T10:25:45Z</time>
      </trkpt>
      <trkpt lat="39.928691" lon="-0.559514">
        <ele>551.0</ele>
        <time>2012-08-20T10:25:52Z</time>
      </trkpt>
      <trkpt lat="39.928693" lon="-0.559614">
        <ele>550.6</ele>
        <time>2012-08-20T10:25:53Z</time>
      </trkpt>
      <trkpt lat="39.928692" lon="-0.559710">
        <ele>550.0</ele>
        <time>2012-08-20T10:25:54Z</time>
      </trkpt>
      <trkpt lat="39.928692" lon="-0.559807">
        <ele>549.6</ele>
        <time>2012-08-20T10:25:55Z</time>
      </trkpt>
      <trkpt lat="39.928692" lon="-0.559902">
        <ele>549.2</ele>
        <time>2012-08-20T10:25:56Z</time>
      </trkpt>
      <trkpt lat="39.928692" lon="-0.560371">
        <ele>549.2</ele>
        <time>2012-08-20T10:26:01Z</time>
      </trkpt>
      <trkpt lat="39.928704" lon="-0.560947">
        <ele>549.2</ele>
        <time>2012-08-20T10:26:07Z</time>
      </trkpt>
      <trkpt lat="39.928712" lon="-0.561424">
        <ele>548.8</ele>
        <time>2012-08-20T10:26:12Z</time>
      </trkpt>
      <trkpt lat="39.928714" lon="-0.561517">
        <ele>548.4</ele>
        <time>2012-08-20T10:26:13Z</time>
      </trkpt>
      <trkpt lat="39.928714" lon="-0.561611">
        <ele>548.0</ele>
        <time>2012-08-20T10:26:14Z</time>
      </trkpt>
      <trkpt lat="39.928713" lon="-0.561705">
        <ele>547.6</ele>
        <time>2012-08-20T10:26:15Z</time>
      </trkpt>
      <trkpt lat="39.928712" lon="-0.561804">
        <ele>547.2</ele>
        <time>2012-08-20T10:26:16Z</time>
      </trkpt>
      <trkpt lat="39.928683" lon="-0.562172">
        <ele>547.2</ele>
        <time>2012-08-20T10:26:20Z</time>
      </trkpt>
      <trkpt lat="39.928668" lon="-0.562260">
        <ele>547.2</ele>
        <time>2012-08-20T10:26:21Z</time>
      </trkpt>
      <trkpt lat="39.928519" lon="-0.562775">
        <ele>547.2</ele>
        <time>2012-08-20T10:26:27Z</time>
      </trkpt>
      <trkpt lat="39.928274" lon="-0.563240">
        <ele>547.2</ele>
        <time>2012-08-20T10:26:33Z</time>
      </trkpt>
      <trkpt lat="39.927950" lon="-0.563613">
        <ele>547.2</ele>
        <time>2012-08-20T10:26:39Z</time>
      </trkpt>
      <trkpt lat="39.927703" lon="-0.563821">
        <ele>546.8</ele>
        <time>2012-08-20T10:26:43Z</time>
      </trkpt>
      <trkpt lat="39.927642" lon="-0.563869">
        <ele>546.4</ele>
        <time>2012-08-20T10:26:44Z</time>
      </trkpt>
      <trkpt lat="39.927581" lon="-0.563918">
        <ele>546.0</ele>
        <time>2012-08-20T10:26:45Z</time>
      </trkpt>
      <trkpt lat="39.927518" lon="-0.563967">
        <ele>545.2</ele>
        <time>2012-08-20T10:26:46Z</time>
      </trkpt>
      <trkpt lat="39.927067" lon="-0.564339">
        <ele>545.2</ele>
        <time>2012-08-20T10:26:53Z</time>
      </trkpt>
      <trkpt lat="39.926773" lon="-0.564571">
        <ele>545.2</ele>
        <time>2012-08-20T10:26:58Z</time>
      </trkpt>
      <trkpt lat="39.926414" lon="-0.564869">
        <ele>545.2</ele>
        <time>2012-08-20T10:27:04Z</time>
      </trkpt>
      <trkpt lat="39.925990" lon="-0.565204">
        <ele>545.2</ele>
        <time>2012-08-20T10:27:11Z</time>
      </trkpt>
      <trkpt lat="39.925805" lon="-0.565344">
        <ele>544.8</ele>
        <time>2012-08-20T10:27:14Z</time>
      </trkpt>
      <trkpt lat="39.925747" lon="-0.565390">
        <ele>544.2</ele>
        <time>2012-08-20T10:27:15Z</time>
      </trkpt>
      <trkpt lat="39.925686" lon="-0.565440">
        <ele>543.8</ele>
        <time>2012-08-20T10:27:16Z</time>
      </trkpt>
      <trkpt lat="39.925627" lon="-0.565490">
        <ele>543.4</ele>
        <time>2012-08-20T10:27:17Z</time>
      </trkpt>
      <trkpt lat="39.925565" lon="-0.565544">
        <ele>543.0</ele>
        <time>2012-08-20T10:27:18Z</time>
      </trkpt>
      <trkpt lat="39.925150" lon="-0.565865">
        <ele>543.0</ele>
        <time>2012-08-20T10:27:25Z</time>
      </trkpt>
      <trkpt lat="39.924743" lon="-0.566192">
        <ele>543.0</ele>
        <time>2012-08-20T10:27:32Z</time>
      </trkpt>
      <trkpt lat="39.924418" lon="-0.566436">
        <ele>543.0</ele>
        <time>2012-08-20T10:27:38Z</time>
      </trkpt>
      <trkpt lat="39.924141" lon="-0.566673">
        <ele>542.6</ele>
        <time>2012-08-20T10:27:44Z</time>
      </trkpt>
      <trkpt lat="39.924092" lon="-0.566713">
        <ele>542.2</ele>
        <time>2012-08-20T10:27:45Z</time>
      </trkpt>
      <trkpt lat="39.924041" lon="-0.566755">
        <ele>541.8</ele>
        <time>2012-08-20T10:27:46Z</time>
      </trkpt>
      <trkpt lat="39.923989" lon="-0.566795">
        <ele>541.4</ele>
        <time>2012-08-20T10:27:47Z</time>
      </trkpt>
      <trkpt lat="39.923934" lon="-0.566839">
        <ele>540.8</ele>
        <time>2012-08-20T10:27:48Z</time>
      </trkpt>
      <trkpt lat="39.923719" lon="-0.567015">
        <ele>540.8</ele>
        <time>2012-08-20T10:27:52Z</time>
      </trkpt>
      <trkpt lat="39.923377" lon="-0.567300">
        <ele>540.8</ele>
        <time>2012-08-20T10:27:59Z</time>
      </trkpt>
      <trkpt lat="39.923296" lon="-0.567394">
        <ele>540.4</ele>
        <time>2012-08-20T10:28:01Z</time>
      </trkpt>
      <trkpt lat="39.923259" lon="-0.567448">
        <ele>540.0</ele>
        <time>2012-08-20T10:28:02Z</time>
      </trkpt>
      <trkpt lat="39.923222" lon="-0.567501">
        <ele>539.6</ele>
        <time>2012-08-20T10:28:03Z</time>
      </trkpt>
      <trkpt lat="39.923182" lon="-0.567556">
        <ele>539.2</ele>
        <time>2012-08-20T10:28:04Z</time>
      </trkpt>
      <trkpt lat="39.923142" lon="-0.567614">
        <ele>538.8</ele>
        <time>2012-08-20T10:28:05Z</time>
      </trkpt>
      <trkpt lat="39.922933" lon="-0.568003">
        <ele>538.8</ele>
        <time>2012-08-20T10:28:11Z</time>
      </trkpt>
      <trkpt lat="39.922680" lon="-0.568474">
        <ele>538.0</ele>
        <time>2012-08-20T10:28:18Z</time>
      </trkpt>
      <trkpt lat="39.922642" lon="-0.568547">
        <ele>537.6</ele>
        <time>2012-08-20T10:28:19Z</time>
      </trkpt>
      <trkpt lat="39.922604" lon="-0.568615">
        <ele>537.2</ele>
        <time>2012-08-20T10:28:20Z</time>
      </trkpt>
      <trkpt lat="39.922564" lon="-0.568686">
        <ele>536.8</ele>
        <time>2012-08-20T10:28:21Z</time>
      </trkpt>
      <trkpt lat="39.922478" lon="-0.568842">
        <ele>536.8</ele>
        <time>2012-08-20T10:28:23Z</time>
      </trkpt>
      <trkpt lat="39.922214" lon="-0.569305">
        <ele>536.2</ele>
        <time>2012-08-20T10:28:29Z</time>
      </trkpt>
      <trkpt lat="39.918868" lon="-0.574921">
        <ele>523.6</ele>
        <time>2012-08-20T10:29:52Z</time>
      </trkpt>
      <trkpt lat="39.918544" lon="-0.575137">
        <ele>523.6</ele>
        <time>2012-08-20T10:29:57Z</time>
      </trkpt>
      <trkpt lat="39.918421" lon="-0.575192">
        <ele>523.6</ele>
        <time>2012-08-20T10:29:59Z</time>
      </trkpt>
      <trkpt lat="39.918287" lon="-0.575235">
        <ele>523.2</ele>
        <time>2012-08-20T10:30:01Z</time>
      </trkpt>
      <trkpt lat="39.918219" lon="-0.575252">
        <ele>522.8</ele>
        <time>2012-08-20T10:30:02Z</time>
      </trkpt>
      <trkpt lat="39.918146" lon="-0.575272">
        <ele>522.4</ele>
        <time>2012-08-20T10:30:03Z</time>
      </trkpt>
      <trkpt lat="39.918075" lon="-0.575291">
        <ele>521.8</ele>
        <time>2012-08-20T10:30:04Z</time>
      </trkpt>
      <trkpt lat="39.918003" lon="-0.575309">
        <ele>521.4</ele>
        <time>2012-08-20T10:30:05Z</time>
      </trkpt>
      <trkpt lat="39.917737" lon="-0.575320">
        <ele>521.4</ele>
        <time>2012-08-20T10:30:09Z</time>
      </trkpt>
      <trkpt lat="39.917622" lon="-0.575249">
        <ele>521.4</ele>
        <time>2012-08-20T10:30:11Z</time>
      </trkpt>
      <trkpt lat="39.917558" lon="-0.575198">
        <ele>521.4</ele>
        <time>2012-08-20T10:30:14Z</time>
      </trkpt>
      <trkpt lat="39.917627" lon="-0.575200">
        <ele>521.4</ele>
        <time>2012-08-20T10:30:24Z</time>
      </trkpt>
      <trkpt lat="39.917646" lon="-0.575216">
        <ele>521.4</ele>
        <time>2012-08-20T10:30:26Z</time>
      </trkpt>
      <trkpt lat="39.917661" lon="-0.575227">
        <ele>521.4</ele>
        <time>2012-08-20T10:30:28Z</time>
      </trkpt>
      <trkpt lat="39.917671" lon="-0.575230">
        <ele>521.0</ele>
        <time>2012-08-20T10:30:30Z</time>
      </trkpt>
      <trkpt lat="39.917673" lon="-0.575233">
        <ele>520.4</ele>
        <time>2012-08-20T10:30:31Z</time>
      </trkpt>
      <trkpt lat="39.917669" lon="-0.575234">
        <ele>520.0</ele>
        <time>2012-08-20T10:30:32Z</time>
      </trkpt>
      <trkpt lat="39.917668" lon="-0.575234">
        <ele>519.4</ele>
        <time>2012-08-20T10:30:33Z</time>
      </trkpt>
      <trkpt lat="39.917619" lon="-0.575181">
        <ele>519.0</ele>
        <time>2012-08-20T10:30:51Z</time>
      </trkpt>
      <trkpt lat="39.917613" lon="-0.575175">
        <ele>519.0</ele>
        <time>2012-08-20T10:30:55Z</time>
      </trkpt>
      <trkpt lat="39.917613" lon="-0.575173">
        <ele>519.0</ele>
        <time>2012-08-20T10:30:56Z</time>
      </trkpt>
      <trkpt lat="39.917555" lon="-0.575164">
        <ele>519.0</ele>
        <time>2012-08-20T10:31:07Z</time>
      </trkpt>
      <trkpt lat="39.917513" lon="-0.575148">
        <ele>519.0</ele>
        <time>2012-08-20T10:31:09Z</time>
      </trkpt>
      <trkpt lat="39.917436" lon="-0.575110">
        <ele>519.0</ele>
        <time>2012-08-20T10:31:12Z</time>
      </trkpt>
      <trkpt lat="39.917351" lon="-0.575083">
        <ele>519.0</ele>
        <time>2012-08-20T10:31:15Z</time>
      </trkpt>
      <trkpt lat="39.917109" lon="-0.574937">
        <ele>519.0</ele>
        <time>2012-08-20T10:31:22Z</time>
      </trkpt>
      <trkpt lat="39.916883" lon="-0.574751">
        <ele>519.0</ele>
        <time>2012-08-20T10:31:28Z</time>
      </trkpt>
      <trkpt lat="39.916804" lon="-0.574686">
        <ele>519.0</ele>
        <time>2012-08-20T10:31:30Z</time>
      </trkpt>
      <trkpt lat="39.916763" lon="-0.574655">
        <ele>518.6</ele>
        <time>2012-08-20T10:31:31Z</time>
      </trkpt>
      <trkpt lat="39.916720" lon="-0.574621">
        <ele>518.2</ele>
        <time>2012-08-20T10:31:32Z</time>
      </trkpt>
      <trkpt lat="39.916677" lon="-0.574589">
        <ele>517.8</ele>
        <time>2012-08-20T10:31:33Z</time>
      </trkpt>
      <trkpt lat="39.916635" lon="-0.574553">
        <ele>517.4</ele>
        <time>2012-08-20T10:31:34Z</time>
      </trkpt>
      <trkpt lat="39.916590" lon="-0.574517">
        <ele>517.0</ele>
        <time>2012-08-20T10:31:35Z</time>
      </trkpt>
      <trkpt lat="39.916499" lon="-0.574442">
        <ele>517.0</ele>
        <time>2012-08-20T10:31:37Z</time>
      </trkpt>
      <trkpt lat="39.916082" lon="-0.574113">
        <ele>517.0</ele>
        <time>2012-08-20T10:31:46Z</time>
      </trkpt>
      <trkpt lat="39.915945" lon="-0.574000">
        <ele>516.4</ele>
        <time>2012-08-20T10:31:49Z</time>
      </trkpt>
      <trkpt lat="39.915900" lon="-0.573964">
        <ele>516.0</ele>
        <time>2012-08-20T10:31:50Z</time>
      </trkpt>
      <trkpt lat="39.915856" lon="-0.573926">
        <ele>515.6</ele>
        <time>2012-08-20T10:31:51Z</time>
      </trkpt>
      <trkpt lat="39.915811" lon="-0.573887">
        <ele>515.2</ele>
        <time>2012-08-20T10:31:52Z</time>
      </trkpt>
      <trkpt lat="39.915765" lon="-0.573849">
        <ele>514.8</ele>
        <time>2012-08-20T10:31:53Z</time>
      </trkpt>
      <trkpt lat="39.915624" lon="-0.573735">
        <ele>514.8</ele>
        <time>2012-08-20T10:31:56Z</time>
      </trkpt>
      <trkpt lat="39.915263" lon="-0.573419">
        <ele>514.8</ele>
        <time>2012-08-20T10:32:04Z</time>
      </trkpt>
      <trkpt lat="39.915188" lon="-0.573322">
        <ele>514.2</ele>
        <time>2012-08-20T10:32:06Z</time>
      </trkpt>
      <trkpt lat="39.915155" lon="-0.573274">
        <ele>513.4</ele>
        <time>2012-08-20T10:32:07Z</time>
      </trkpt>
      <trkpt lat="39.915125" lon="-0.573225">
        <ele>512.8</ele>
        <time>2012-08-20T10:32:08Z</time>
      </trkpt>
      <trkpt lat="39.915098" lon="-0.573171">
        <ele>513.2</ele>
        <time>2012-08-20T10:32:09Z</time>
      </trkpt>
      <trkpt lat="39.915084" lon="-0.573111">
        <ele>513.4</ele>
        <time>2012-08-20T10:32:10Z</time>
      </trkpt>
      <trkpt lat="39.915076" lon="-0.573052">
        <ele>513.8</ele>
        <time>2012-08-20T10:32:11Z</time>
      </trkpt>
      <trkpt lat="39.915063" lon="-0.573001">
        <ele>514.0</ele>
        <time>2012-08-20T10:32:12Z</time>
      </trkpt>
      <trkpt lat="39.914990" lon="-0.572880">
        <ele>514.0</ele>
        <time>2012-08-20T10:32:15Z</time>
      </trkpt>
      <trkpt lat="39.914965" lon="-0.572844">
        <ele>514.0</ele>
        <time>2012-08-20T10:32:16Z</time>
      </trkpt>
      <trkpt lat="39.914870" lon="-0.572751">
        <ele>514.0</ele>
        <time>2012-08-20T10:32:20Z</time>
      </trkpt>
      <trkpt lat="39.914842" lon="-0.572744">
        <ele>514.0</ele>
        <time>2012-08-20T10:32:21Z</time>
      </trkpt>
      <trkpt lat="39.914821" lon="-0.572714">
        <ele>514.0</ele>
        <time>2012-08-20T10:32:22Z</time>
      </trkpt>
      <trkpt lat="39.914794" lon="-0.572641">
        <ele>514.0</ele>
        <time>2012-08-20T10:32:24Z</time>
      </trkpt>
      <trkpt lat="39.914734" lon="-0.572441">
        <ele>514.0</ele>
        <time>2012-08-20T10:32:30Z</time>
      </trkpt>
      <trkpt lat="39.914716" lon="-0.572396">
        <ele>513.6</ele>
        <time>2012-08-20T10:32:33Z</time>
      </trkpt>
      <trkpt lat="39.914692" lon="-0.572397">
        <ele>512.8</ele>
        <time>2012-08-20T10:32:34Z</time>
      </trkpt>
      <trkpt lat="39.914660" lon="-0.572406">
        <ele>512.2</ele>
        <time>2012-08-20T10:32:35Z</time>
      </trkpt>
      <trkpt lat="39.914627" lon="-0.572415">
        <ele>511.8</ele>
        <time>2012-08-20T10:32:36Z</time>
      </trkpt>
      <trkpt lat="39.914539" lon="-0.572438">
        <ele>511.8</ele>
        <time>2012-08-20T10:32:38Z</time>
      </trkpt>
      <trkpt lat="39.914374" lon="-0.572481">
        <ele>511.8</ele>
        <time>2012-08-20T10:32:43Z</time>
      </trkpt>
      <trkpt lat="39.914357" lon="-0.572488">
        <ele>511.8</ele>
        <time>2012-08-20T10:32:44Z</time>
      </trkpt>
      <trkpt lat="39.914303" lon="-0.572420">
        <ele>511.8</ele>
        <time>2012-08-20T10:32:47Z</time>
      </trkpt>
      <trkpt lat="39.914283" lon="-0.572405">
        <ele>511.8</ele>
        <time>2012-08-20T10:32:48Z</time>
      </trkpt>
      <trkpt lat="39.914069" lon="-0.572238">
        <ele>511.4</ele>
        <time>2012-08-20T10:32:55Z</time>
      </trkpt>
      <trkpt lat="39.914034" lon="-0.572211">
        <ele>511.0</ele>
        <time>2012-08-20T10:32:56Z</time>
      </trkpt>
      <trkpt lat="39.914008" lon="-0.572188">
        <ele>510.6</ele>
        <time>2012-08-20T10:32:57Z</time>
      </trkpt>
      <trkpt lat="39.913977" lon="-0.572164">
        <ele>509.8</ele>
        <time>2012-08-20T10:32:58Z</time>
      </trkpt>
      <trkpt lat="39.913942" lon="-0.572152">
        <ele>509.8</ele>
        <time>2012-08-20T10:32:59Z</time>
      </trkpt>
      <trkpt lat="39.913910" lon="-0.572132">
        <ele>509.8</ele>
        <time>2012-08-20T10:33:00Z</time>
      </trkpt>
      <trkpt lat="39.913665" lon="-0.572047">
        <ele>509.8</ele>
        <time>2012-08-20T10:33:06Z</time>
      </trkpt>
      <trkpt lat="39.913532" lon="-0.572039">
        <ele>509.8</ele>
        <time>2012-08-20T10:33:09Z</time>
      </trkpt>
      <trkpt lat="39.913481" lon="-0.572047">
        <ele>509.4</ele>
        <time>2012-08-20T10:33:10Z</time>
      </trkpt>
      <trkpt lat="39.913432" lon="-0.572064">
        <ele>509.0</ele>
        <time>2012-08-20T10:33:11Z</time>
      </trkpt>
      <trkpt lat="39.913381" lon="-0.572086">
        <ele>508.6</ele>
        <time>2012-08-20T10:33:12Z</time>
      </trkpt>
      <trkpt lat="39.913335" lon="-0.572102">
        <ele>508.2</ele>
        <time>2012-08-20T10:33:13Z</time>
      </trkpt>
      <trkpt lat="39.913297" lon="-0.572115">
        <ele>507.8</ele>
        <time>2012-08-20T10:33:14Z</time>
      </trkpt>
      <trkpt lat="39.913242" lon="-0.572164">
        <ele>507.8</ele>
        <time>2012-08-20T10:33:16Z</time>
      </trkpt>
      <trkpt lat="39.913228" lon="-0.572159">
        <ele>507.8</ele>
        <time>2012-08-20T10:33:17Z</time>
      </trkpt>
      <trkpt lat="39.913194" lon="-0.572123">
        <ele>507.8</ele>
        <time>2012-08-20T10:33:19Z</time>
      </trkpt>
      <trkpt lat="39.913153" lon="-0.572062">
        <ele>507.4</ele>
        <time>2012-08-20T10:33:22Z</time>
      </trkpt>
      <trkpt lat="39.913144" lon="-0.572057">
        <ele>506.6</ele>
        <time>2012-08-20T10:33:23Z</time>
      </trkpt>
      <trkpt lat="39.913137" lon="-0.572054">
        <ele>506.2</ele>
        <time>2012-08-20T10:33:24Z</time>
      </trkpt>
      <trkpt lat="39.913110" lon="-0.572060">
        <ele>505.8</ele>
        <time>2012-08-20T10:33:25Z</time>
      </trkpt>
      <trkpt lat="39.913076" lon="-0.572077">
        <ele>505.8</ele>
        <time>2012-08-20T10:33:27Z</time>
      </trkpt>
      <trkpt lat="39.912933" lon="-0.572185">
        <ele>505.8</ele>
        <time>2012-08-20T10:33:32Z</time>
      </trkpt>
      <trkpt lat="39.912707" lon="-0.572349">
        <ele>505.8</ele>
        <time>2012-08-20T10:33:40Z</time>
      </trkpt>
      <trkpt lat="39.912628" lon="-0.572422">
        <ele>505.8</ele>
        <time>2012-08-20T10:33:44Z</time>
      </trkpt>
      <trkpt lat="39.912625" lon="-0.572434">
        <ele>505.4</ele>
        <time>2012-08-20T10:33:45Z</time>
      </trkpt>
      <trkpt lat="39.912623" lon="-0.572440">
        <ele>505.0</ele>
        <time>2012-08-20T10:33:46Z</time>
      </trkpt>
      <trkpt lat="39.912621" lon="-0.572442">
        <ele>504.6</ele>
        <time>2012-08-20T10:33:47Z</time>
      </trkpt>
      <trkpt lat="39.912619" lon="-0.572438">
        <ele>503.8</ele>
        <time>2012-08-20T10:33:48Z</time>
      </trkpt>
      <trkpt lat="39.912619" lon="-0.572438">
        <ele>503.8</ele>
        <time>2012-08-20T10:33:49Z</time>
      </trkpt>
      <trkpt lat="39.912586" lon="-0.572461">
        <ele>503.8</ele>
        <time>2012-08-20T10:36:00Z</time>
      </trkpt>
      <trkpt lat="39.912581" lon="-0.572491">
        <ele>503.8</ele>
        <time>2012-08-20T10:36:03Z</time>
      </trkpt>
      <trkpt lat="39.912572" lon="-0.572501">
        <ele>503.8</ele>
        <time>2012-08-20T10:36:06Z</time>
      </trkpt>
      <trkpt lat="39.912573" lon="-0.572499">
        <ele>503.8</ele>
        <time>2012-08-20T10:36:08Z</time>
      </trkpt>
      <trkpt lat="39.912523" lon="-0.572538">
        <ele>503.8</ele>
        <time>2012-08-20T10:36:32Z</time>
      </trkpt>
      <trkpt lat="39.912490" lon="-0.572566">
        <ele>503.8</ele>
        <time>2012-08-20T10:36:34Z</time>
      </trkpt>
      <trkpt lat="39.912411" lon="-0.572695">
        <ele>503.8</ele>
        <time>2012-08-20T10:36:39Z</time>
      </trkpt>
      <trkpt lat="39.912274" lon="-0.572801">
        <ele>503.8</ele>
        <time>2012-08-20T10:36:44Z</time>
      </trkpt>
      <trkpt lat="39.912248" lon="-0.572817">
        <ele>503.2</ele>
        <time>2012-08-20T10:36:45Z</time>
      </trkpt>
      <trkpt lat="39.912220" lon="-0.572834">
        <ele>502.8</ele>
        <time>2012-08-20T10:36:46Z</time>
      </trkpt>
      <trkpt lat="39.912193" lon="-0.572852">
        <ele>502.4</ele>
        <time>2012-08-20T10:36:47Z</time>
      </trkpt>
      <trkpt lat="39.912168" lon="-0.572871">
        <ele>502.0</ele>
        <time>2012-08-20T10:36:48Z</time>
      </trkpt>
      <trkpt lat="39.912142" lon="-0.572890">
        <ele>501.6</ele>
        <time>2012-08-20T10:36:49Z</time>
      </trkpt>
      <trkpt lat="39.912070" lon="-0.572950">
        <ele>501.6</ele>
        <time>2012-08-20T10:36:52Z</time>
      </trkpt>
      <trkpt lat="39.911992" lon="-0.573116">
        <ele>501.6</ele>
        <time>2012-08-20T10:36:57Z</time>
      </trkpt>
      <trkpt lat="39.911976" lon="-0.573149">
        <ele>501.2</ele>
        <time>2012-08-20T10:36:58Z</time>
      </trkpt>
      <trkpt lat="39.911952" lon="-0.573175">
        <ele>500.8</ele>
        <time>2012-08-20T10:36:59Z</time>
      </trkpt>
      <trkpt lat="39.911920" lon="-0.573203">
        <ele>500.4</ele>
        <time>2012-08-20T10:37:00Z</time>
      </trkpt>
      <trkpt lat="39.911891" lon="-0.573228">
        <ele>500.0</ele>
        <time>2012-08-20T10:37:01Z</time>
      </trkpt>
      <trkpt lat="39.911862" lon="-0.573249">
        <ele>499.6</ele>
        <time>2012-08-20T10:37:02Z</time>
      </trkpt>
      <trkpt lat="39.911836" lon="-0.573266">
        <ele>499.6</ele>
        <time>2012-08-20T10:37:03Z</time>
      </trkpt>
      <trkpt lat="39.911573" lon="-0.573282">
        <ele>499.6</ele>
        <time>2012-08-20T10:37:11Z</time>
      </trkpt>
      <trkpt lat="39.911346" lon="-0.573264">
        <ele>499.6</ele>
        <time>2012-08-20T10:37:19Z</time>
      </trkpt>
      <trkpt lat="39.911316" lon="-0.573235">
        <ele>499.6</ele>
        <time>2012-08-20T10:37:24Z</time>
      </trkpt>
      <trkpt lat="39.911360" lon="-0.573234">
        <ele>499.6</ele>
        <time>2012-08-20T10:37:27Z</time>
      </trkpt>
      <trkpt lat="39.911380" lon="-0.573229">
        <ele>499.6</ele>
        <time>2012-08-20T10:37:28Z</time>
      </trkpt>
      <trkpt lat="39.911590" lon="-0.573225">
        <ele>499.6</ele>
        <time>2012-08-20T10:37:35Z</time>
      </trkpt>
      <trkpt lat="39.911846" lon="-0.573235">
        <ele>499.6</ele>
        <time>2012-08-20T10:37:44Z</time>
      </trkpt>
      <trkpt lat="39.912003" lon="-0.573155">
        <ele>499.6</ele>
        <time>2012-08-20T10:37:49Z</time>
      </trkpt>
      <trkpt lat="39.912020" lon="-0.573125">
        <ele>499.6</ele>
        <time>2012-08-20T10:37:50Z</time>
      </trkpt>
      <trkpt lat="39.912070" lon="-0.573039">
        <ele>499.6</ele>
        <time>2012-08-20T10:37:53Z</time>
      </trkpt>
      <trkpt lat="39.912108" lon="-0.572993">
        <ele>499.6</ele>
        <time>2012-08-20T10:37:55Z</time>
      </trkpt>
      <trkpt lat="39.912209" lon="-0.572876">
        <ele>500.0</ele>
        <time>2012-08-20T10:38:00Z</time>
      </trkpt>
      <trkpt lat="39.912230" lon="-0.572846">
        <ele>500.4</ele>
        <time>2012-08-20T10:38:01Z</time>
      </trkpt>
      <trkpt lat="39.912252" lon="-0.572819">
        <ele>500.8</ele>
        <time>2012-08-20T10:38:02Z</time>
      </trkpt>
      <trkpt lat="39.912271" lon="-0.572792">
        <ele>501.2</ele>
        <time>2012-08-20T10:38:03Z</time>
      </trkpt>
      <trkpt lat="39.912289" lon="-0.572767">
        <ele>501.6</ele>
        <time>2012-08-20T10:38:04Z</time>
      </trkpt>
      <trkpt lat="39.912360" lon="-0.572705">
        <ele>501.6</ele>
        <time>2012-08-20T10:38:07Z</time>
      </trkpt>
    </trkseg>
  </trk>
  <trk>
    <name>T3303249-15</name>
    <cmt>La ruta empieza en Ojos Negros. Hasta Santa Eulalia va por una carretera comarcal apenas transitada. Hay un tramo de unos 40 km durante el puerto del Escandón que no aparece reflejado en el track porque me quedé sin batería en el GPS pero la vía verde no tiene pérdida en esa zona</cmt>
    <desc>La ruta empieza en Ojos Negros. Hasta Santa Eulalia va por una carretera comarcal apenas transitada. Hay un tramo de unos 40 km durante el puerto del Escandón que no aparece reflejado en el track porque me quedé sin batería en el GPS pero la vía verde no tiene pérdida en esa zona</desc>
    <trkseg>
      <trkpt lat="39.912488" lon="-0.572547">
        <ele>501.6</ele>
        <time>2012-08-20T10:38:13Z</time>
      </trkpt>
      <trkpt lat="39.912534" lon="-0.572394">
        <ele>501.6</ele>
        <time>2012-08-20T10:38:18Z</time>
      </trkpt>
      <trkpt lat="39.912540" lon="-0.572319">
        <ele>502.4</ele>
        <time>2012-08-20T10:38:20Z</time>
      </trkpt>
      <trkpt lat="39.912545" lon="-0.572281">
        <ele>502.8</ele>
        <time>2012-08-20T10:38:21Z</time>
      </trkpt>
      <trkpt lat="39.912548" lon="-0.572241">
        <ele>503.2</ele>
        <time>2012-08-20T10:38:22Z</time>
      </trkpt>
      <trkpt lat="39.912559" lon="-0.572203">
        <ele>503.6</ele>
        <time>2012-08-20T10:38:23Z</time>
      </trkpt>
      <trkpt lat="39.912574" lon="-0.572078">
        <ele>503.6</ele>
        <time>2012-08-20T10:38:26Z</time>
      </trkpt>
      <trkpt lat="39.912509" lon="-0.571789">
        <ele>503.6</ele>
        <time>2012-08-20T10:38:32Z</time>
      </trkpt>
      <trkpt lat="39.912411" lon="-0.571454">
        <ele>503.6</ele>
        <time>2012-08-20T10:38:38Z</time>
      </trkpt>
      <trkpt lat="39.912330" lon="-0.571276">
        <ele>503.2</ele>
        <time>2012-08-20T10:38:41Z</time>
      </trkpt>
      <trkpt lat="39.912295" lon="-0.571228">
        <ele>502.8</ele>
        <time>2012-08-20T10:38:42Z</time>
      </trkpt>
      <trkpt lat="39.912262" lon="-0.571184">
        <ele>502.4</ele>
        <time>2012-08-20T10:38:43Z</time>
      </trkpt>
      <trkpt lat="39.912229" lon="-0.571151">
        <ele>501.6</ele>
        <time>2012-08-20T10:38:44Z</time>
      </trkpt>
      <trkpt lat="39.912122" lon="-0.571048">
        <ele>501.6</ele>
        <time>2012-08-20T10:38:48Z</time>
      </trkpt>
      <trkpt lat="39.912048" lon="-0.570940">
        <ele>501.6</ele>
        <time>2012-08-20T10:38:53Z</time>
      </trkpt>
      <trkpt lat="39.912043" lon="-0.570944">
        <ele>501.6</ele>
        <time>2012-08-20T10:38:54Z</time>
      </trkpt>
      <trkpt lat="39.912048" lon="-0.570948">
        <ele>501.6</ele>
        <time>2012-08-20T10:38:55Z</time>
      </trkpt>
      <trkpt lat="39.912068" lon="-0.570988">
        <ele>501.6</ele>
        <time>2012-08-20T10:38:56Z</time>
      </trkpt>
      <trkpt lat="39.912186" lon="-0.571171">
        <ele>501.6</ele>
        <time>2012-08-20T10:39:02Z</time>
      </trkpt>
      <trkpt lat="39.912238" lon="-0.571193">
        <ele>501.6</ele>
        <time>2012-08-20T10:39:04Z</time>
      </trkpt>
      <trkpt lat="39.912278" lon="-0.571130">
        <ele>501.6</ele>
        <time>2012-08-20T10:39:06Z</time>
      </trkpt>
      <trkpt lat="39.912275" lon="-0.570965">
        <ele>501.6</ele>
        <time>2012-08-20T10:39:10Z</time>
      </trkpt>
      <trkpt lat="39.912223" lon="-0.570839">
        <ele>501.2</ele>
        <time>2012-08-20T10:39:12Z</time>
      </trkpt>
      <trkpt lat="39.912187" lon="-0.570768">
        <ele>500.8</ele>
        <time>2012-08-20T10:39:13Z</time>
      </trkpt>
      <trkpt lat="39.912150" lon="-0.570690">
        <ele>500.4</ele>
        <time>2012-08-20T10:39:14Z</time>
      </trkpt>
      <trkpt lat="39.912128" lon="-0.570610">
        <ele>499.8</ele>
        <time>2012-08-20T10:39:15Z</time>
      </trkpt>
      <trkpt lat="39.912113" lon="-0.570529">
        <ele>499.2</ele>
        <time>2012-08-20T10:39:16Z</time>
      </trkpt>
      <trkpt lat="39.912105" lon="-0.570447">
        <ele>498.6</ele>
        <time>2012-08-20T10:39:17Z</time>
      </trkpt>
      <trkpt lat="39.912106" lon="-0.570360">
        <ele>498.0</ele>
        <time>2012-08-20T10:39:18Z</time>
      </trkpt>
      <trkpt lat="39.912104" lon="-0.570281">
        <ele>497.4</ele>
        <time>2012-08-20T10:39:19Z</time>
      </trkpt>
      <trkpt lat="39.912098" lon="-0.570211">
        <ele>496.8</ele>
        <time>2012-08-20T10:39:20Z</time>
      </trkpt>
      <trkpt lat="39.912074" lon="-0.570118">
        <ele>496.8</ele>
        <time>2012-08-20T10:39:22Z</time>
      </trkpt>
      <trkpt lat="39.912054" lon="-0.570090">
        <ele>496.8</ele>
        <time>2012-08-20T10:39:23Z</time>
      </trkpt>
      <trkpt lat="39.912035" lon="-0.570070">
        <ele>496.4</ele>
        <time>2012-08-20T10:39:24Z</time>
      </trkpt>
      <trkpt lat="39.912015" lon="-0.570046">
        <ele>496.0</ele>
        <time>2012-08-20T10:39:25Z</time>
      </trkpt>
      <trkpt lat="39.911987" lon="-0.570030">
        <ele>495.6</ele>
        <time>2012-08-20T10:39:26Z</time>
      </trkpt>
      <trkpt lat="39.911956" lon="-0.570009">
        <ele>495.2</ele>
        <time>2012-08-20T10:39:27Z</time>
      </trkpt>
      <trkpt lat="39.911924" lon="-0.569983">
        <ele>494.8</ele>
        <time>2012-08-20T10:39:28Z</time>
      </trkpt>
      <trkpt lat="39.911705" lon="-0.569807">
        <ele>494.0</ele>
        <time>2012-08-20T10:39:34Z</time>
      </trkpt>
      <trkpt lat="39.911667" lon="-0.569769">
        <ele>493.4</ele>
        <time>2012-08-20T10:39:35Z</time>
      </trkpt>
      <trkpt lat="39.911634" lon="-0.569731">
        <ele>493.0</ele>
        <time>2012-08-20T10:39:36Z</time>
      </trkpt>
      <trkpt lat="39.911605" lon="-0.569685">
        <ele>492.6</ele>
        <time>2012-08-20T10:39:37Z</time>
      </trkpt>
      <trkpt lat="39.911536" lon="-0.569603">
        <ele>492.6</ele>
        <time>2012-08-20T10:39:39Z</time>
      </trkpt>
      <trkpt lat="39.911365" lon="-0.569415">
        <ele>492.2</ele>
        <time>2012-08-20T10:39:44Z</time>
      </trkpt>
      <trkpt lat="39.911324" lon="-0.569373">
        <ele>491.8</ele>
        <time>2012-08-20T10:39:45Z</time>
      </trkpt>
      <trkpt lat="39.911285" lon="-0.569331">
        <ele>491.4</ele>
        <time>2012-08-20T10:39:46Z</time>
      </trkpt>
      <trkpt lat="39.911243" lon="-0.569290">
        <ele>491.0</ele>
        <time>2012-08-20T10:39:47Z</time>
      </trkpt>
      <trkpt lat="39.911205" lon="-0.569258">
        <ele>490.6</ele>
        <time>2012-08-20T10:39:48Z</time>
      </trkpt>
      <trkpt lat="39.911184" lon="-0.569234">
        <ele>490.6</ele>
        <time>2012-08-20T10:39:50Z</time>
      </trkpt>
      <trkpt lat="39.911189" lon="-0.569234">
        <ele>490.6</ele>
        <time>2012-08-20T10:39:51Z</time>
      </trkpt>
      <trkpt lat="39.911170" lon="-0.569213">
        <ele>490.6</ele>
        <time>2012-08-20T10:39:52Z</time>
      </trkpt>
      <trkpt lat="39.911123" lon="-0.569161">
        <ele>490.6</ele>
        <time>2012-08-20T10:39:54Z</time>
      </trkpt>
      <trkpt lat="39.911031" lon="-0.569102">
        <ele>489.6</ele>
        <time>2012-08-20T10:39:58Z</time>
      </trkpt>
      <trkpt lat="39.911022" lon="-0.569090">
        <ele>489.2</ele>
        <time>2012-08-20T10:39:59Z</time>
      </trkpt>
      <trkpt lat="39.911012" lon="-0.569079">
        <ele>488.8</ele>
        <time>2012-08-20T10:40:00Z</time>
      </trkpt>
      <trkpt lat="39.911014" lon="-0.569074">
        <ele>488.4</ele>
        <time>2012-08-20T10:40:01Z</time>
      </trkpt>
      <trkpt lat="39.911020" lon="-0.569060">
        <ele>488.4</ele>
        <time>2012-08-20T10:40:03Z</time>
      </trkpt>
      <trkpt lat="39.911019" lon="-0.569060">
        <ele>488.4</ele>
        <time>2012-08-20T10:40:05Z</time>
      </trkpt>
      <trkpt lat="39.911077" lon="-0.569068">
        <ele>488.4</ele>
        <time>2012-08-20T10:40:23Z</time>
      </trkpt>
      <trkpt lat="39.911112" lon="-0.569108">
        <ele>488.4</ele>
        <time>2012-08-20T10:40:25Z</time>
      </trkpt>
      <trkpt lat="39.911223" lon="-0.569251">
        <ele>488.4</ele>
        <time>2012-08-20T10:40:32Z</time>
      </trkpt>
      <trkpt lat="39.911280" lon="-0.569349">
        <ele>488.4</ele>
        <time>2012-08-20T10:40:38Z</time>
      </trkpt>
      <trkpt lat="39.911279" lon="-0.569348">
        <ele>488.4</ele>
        <time>2012-08-20T10:40:39Z</time>
      </trkpt>
      <trkpt lat="39.911279" lon="-0.569347">
        <ele>488.4</ele>
        <time>2012-08-20T10:40:41Z</time>
      </trkpt>
      <trkpt lat="39.911276" lon="-0.569350">
        <ele>488.4</ele>
        <time>2012-08-20T10:40:52Z</time>
      </trkpt>
      <trkpt lat="39.911276" lon="-0.569353">
        <ele>488.4</ele>
        <time>2012-08-20T10:40:53Z</time>
      </trkpt>
      <trkpt lat="39.911275" lon="-0.569352">
        <ele>488.4</ele>
        <time>2012-08-20T10:40:55Z</time>
      </trkpt>
      <trkpt lat="39.911290" lon="-0.569381">
        <ele>488.4</ele>
        <time>2012-08-20T10:41:03Z</time>
      </trkpt>
      <trkpt lat="39.911298" lon="-0.569421">
        <ele>488.4</ele>
        <time>2012-08-20T10:41:06Z</time>
      </trkpt>
      <trkpt lat="39.911299" lon="-0.569427">
        <ele>488.4</ele>
        <time>2012-08-20T10:41:07Z</time>
      </trkpt>
      <trkpt lat="39.911296" lon="-0.569429">
        <ele>488.4</ele>
        <time>2012-08-20T10:41:09Z</time>
      </trkpt>
      <trkpt lat="39.911297" lon="-0.569430">
        <ele>488.4</ele>
        <time>2012-08-20T10:41:11Z</time>
      </trkpt>
      <trkpt lat="39.911277" lon="-0.569391">
        <ele>488.4</ele>
        <time>2012-08-20T10:41:17Z</time>
      </trkpt>
      <trkpt lat="39.911283" lon="-0.569380">
        <ele>488.4</ele>
        <time>2012-08-20T10:41:19Z</time>
      </trkpt>
      <trkpt lat="39.911296" lon="-0.569379">
        <ele>488.8</ele>
        <time>2012-08-20T10:41:21Z</time>
      </trkpt>
      <trkpt lat="39.911295" lon="-0.569381">
        <ele>489.2</ele>
        <time>2012-08-20T10:41:22Z</time>
      </trkpt>
      <trkpt lat="39.911349" lon="-0.569356">
        <ele>488.4</ele>
        <time>2012-08-20T10:59:54Z</time>
      </trkpt>
      <trkpt lat="39.911392" lon="-0.569372">
        <ele>488.4</ele>
        <time>2012-08-20T10:59:57Z</time>
      </trkpt>
      <trkpt lat="39.911455" lon="-0.569435">
        <ele>488.4</ele>
        <time>2012-08-20T11:00:01Z</time>
      </trkpt>
      <trkpt lat="39.911505" lon="-0.569482">
        <ele>488.4</ele>
        <time>2012-08-20T11:00:03Z</time>
      </trkpt>
      <trkpt lat="39.911639" lon="-0.569611">
        <ele>488.4</ele>
        <time>2012-08-20T11:00:09Z</time>
      </trkpt>
      <trkpt lat="39.911738" lon="-0.569724">
        <ele>488.4</ele>
        <time>2012-08-20T11:00:14Z</time>
      </trkpt>
      <trkpt lat="39.912554" lon="-0.572389">
        <ele>498.8</ele>
        <time>2012-08-20T11:05:53Z</time>
      </trkpt>
      <trkpt lat="39.912559" lon="-0.572369">
        <ele>498.8</ele>
        <time>2012-08-20T11:05:54Z</time>
      </trkpt>
      <trkpt lat="39.912569" lon="-0.572301">
        <ele>498.8</ele>
        <time>2012-08-20T11:05:57Z</time>
      </trkpt>
      <trkpt lat="39.912580" lon="-0.572252">
        <ele>498.8</ele>
        <time>2012-08-20T11:05:59Z</time>
      </trkpt>
      <trkpt lat="39.912569" lon="-0.572042">
        <ele>498.8</ele>
        <time>2012-08-20T11:06:04Z</time>
      </trkpt>
      <trkpt lat="39.912495" lon="-0.571761">
        <ele>498.8</ele>
        <time>2012-08-20T11:06:10Z</time>
      </trkpt>
      <trkpt lat="39.912435" lon="-0.571547">
        <ele>498.4</ele>
        <time>2012-08-20T11:06:14Z</time>
      </trkpt>
      <trkpt lat="39.912423" lon="-0.571503">
        <ele>498.0</ele>
        <time>2012-08-20T11:06:15Z</time>
      </trkpt>
      <trkpt lat="39.912410" lon="-0.571460">
        <ele>497.6</ele>
        <time>2012-08-20T11:06:16Z</time>
      </trkpt>
      <trkpt lat="39.912394" lon="-0.571419">
        <ele>497.2</ele>
        <time>2012-08-20T11:06:17Z</time>
      </trkpt>
      <trkpt lat="39.912370" lon="-0.571374">
        <ele>496.8</ele>
        <time>2012-08-20T11:06:18Z</time>
      </trkpt>
      <trkpt lat="39.912314" lon="-0.571268">
        <ele>496.8</ele>
        <time>2012-08-20T11:06:20Z</time>
      </trkpt>
      <trkpt lat="39.912326" lon="-0.571145">
        <ele>496.8</ele>
        <time>2012-08-20T11:06:22Z</time>
      </trkpt>
      <trkpt lat="39.912323" lon="-0.571013">
        <ele>496.8</ele>
        <time>2012-08-20T11:06:25Z</time>
      </trkpt>
      <trkpt lat="39.912303" lon="-0.570922">
        <ele>496.8</ele>
        <time>2012-08-20T11:06:27Z</time>
      </trkpt>
      <trkpt lat="39.912271" lon="-0.570808">
        <ele>496.2</ele>
        <time>2012-08-20T11:06:29Z</time>
      </trkpt>
      <trkpt lat="39.912254" lon="-0.570741">
        <ele>495.8</ele>
        <time>2012-08-20T11:06:30Z</time>
      </trkpt>
      <trkpt lat="39.912223" lon="-0.570660">
        <ele>495.2</ele>
        <time>2012-08-20T11:06:31Z</time>
      </trkpt>
      <trkpt lat="39.912193" lon="-0.570584">
        <ele>494.8</ele>
        <time>2012-08-20T11:06:32Z</time>
      </trkpt>
      <trkpt lat="39.912161" lon="-0.570517">
        <ele>494.2</ele>
        <time>2012-08-20T11:06:33Z</time>
      </trkpt>
      <trkpt lat="39.912133" lon="-0.570448">
        <ele>493.8</ele>
        <time>2012-08-20T11:06:34Z</time>
      </trkpt>
      <trkpt lat="39.912116" lon="-0.570368">
        <ele>493.2</ele>
        <time>2012-08-20T11:06:35Z</time>
      </trkpt>
      <trkpt lat="39.912107" lon="-0.570292">
        <ele>492.6</ele>
        <time>2012-08-20T11:06:36Z</time>
      </trkpt>
      <trkpt lat="39.912102" lon="-0.570225">
        <ele>492.2</ele>
        <time>2012-08-20T11:06:37Z</time>
      </trkpt>
      <trkpt lat="39.912093" lon="-0.570161">
        <ele>492.2</ele>
        <time>2012-08-20T11:06:38Z</time>
      </trkpt>
      <trkpt lat="39.912081" lon="-0.570096">
        <ele>491.8</ele>
        <time>2012-08-20T11:06:39Z</time>
      </trkpt>
      <trkpt lat="39.912075" lon="-0.570030">
        <ele>491.4</ele>
        <time>2012-08-20T11:06:40Z</time>
      </trkpt>
      <trkpt lat="39.912018" lon="-0.570012">
        <ele>490.2</ele>
        <time>2012-08-20T11:07:23Z</time>
      </trkpt>
      <trkpt lat="39.911885" lon="-0.569898">
        <ele>490.2</ele>
        <time>2012-08-20T11:07:27Z</time>
      </trkpt>
      <trkpt lat="39.911804" lon="-0.569818">
        <ele>489.6</ele>
        <time>2012-08-20T11:07:29Z</time>
      </trkpt>
      <trkpt lat="39.911756" lon="-0.569772">
        <ele>489.2</ele>
        <time>2012-08-20T11:07:30Z</time>
      </trkpt>
      <trkpt lat="39.911712" lon="-0.569726">
        <ele>488.8</ele>
        <time>2012-08-20T11:07:31Z</time>
      </trkpt>
      <trkpt lat="39.911671" lon="-0.569682">
        <ele>488.2</ele>
        <time>2012-08-20T11:07:32Z</time>
      </trkpt>
      <trkpt lat="39.911630" lon="-0.569647">
        <ele>487.8</ele>
        <time>2012-08-20T11:07:33Z</time>
      </trkpt>
      <trkpt lat="39.911505" lon="-0.569534">
        <ele>487.8</ele>
        <time>2012-08-20T11:07:37Z</time>
      </trkpt>
      <trkpt lat="39.911477" lon="-0.569509">
        <ele>487.4</ele>
        <time>2012-08-20T11:07:38Z</time>
      </trkpt>
      <trkpt lat="39.911450" lon="-0.569483">
        <ele>487.0</ele>
        <time>2012-08-20T11:07:39Z</time>
      </trkpt>
      <trkpt lat="39.911422" lon="-0.569458">
        <ele>486.6</ele>
        <time>2012-08-20T11:07:40Z</time>
      </trkpt>
      <trkpt lat="39.911392" lon="-0.569430">
        <ele>486.2</ele>
        <time>2012-08-20T11:07:41Z</time>
      </trkpt>
      <trkpt lat="39.911363" lon="-0.569398">
        <ele>485.8</ele>
        <time>2012-08-20T11:07:42Z</time>
      </trkpt>
      <trkpt lat="39.911317" lon="-0.569319">
        <ele>485.8</ele>
        <time>2012-08-20T11:07:44Z</time>
      </trkpt>
      <trkpt lat="39.911203" lon="-0.569191">
        <ele>485.8</ele>
        <time>2012-08-20T11:07:48Z</time>
      </trkpt>
      <trkpt lat="39.911147" lon="-0.569137">
        <ele>485.2</ele>
        <time>2012-08-20T11:07:50Z</time>
      </trkpt>
      <trkpt lat="39.911120" lon="-0.569102">
        <ele>484.8</ele>
        <time>2012-08-20T11:07:51Z</time>
      </trkpt>
      <trkpt lat="39.911098" lon="-0.569058">
        <ele>484.4</ele>
        <time>2012-08-20T11:07:52Z</time>
      </trkpt>
      <trkpt lat="39.911081" lon="-0.569006">
        <ele>484.0</ele>
        <time>2012-08-20T11:07:53Z</time>
      </trkpt>
      <trkpt lat="39.911066" lon="-0.568950">
        <ele>483.6</ele>
        <time>2012-08-20T11:07:54Z</time>
      </trkpt>
      <trkpt lat="39.911028" lon="-0.568830">
        <ele>483.6</ele>
        <time>2012-08-20T11:07:56Z</time>
      </trkpt>
      <trkpt lat="39.910976" lon="-0.568709">
        <ele>482.6</ele>
        <time>2012-08-20T11:07:58Z</time>
      </trkpt>
      <trkpt lat="39.910951" lon="-0.568653">
        <ele>482.2</ele>
        <time>2012-08-20T11:07:59Z</time>
      </trkpt>
      <trkpt lat="39.910930" lon="-0.568600">
        <ele>481.8</ele>
        <time>2012-08-20T11:08:00Z</time>
      </trkpt>
      <trkpt lat="39.910908" lon="-0.568548">
        <ele>481.4</ele>
        <time>2012-08-20T11:08:01Z</time>
      </trkpt>
      <trkpt lat="39.910834" lon="-0.568398">
        <ele>481.4</ele>
        <time>2012-08-20T11:08:04Z</time>
      </trkpt>
      <trkpt lat="39.910733" lon="-0.568192">
        <ele>481.4</ele>
        <time>2012-08-20T11:08:09Z</time>
      </trkpt>
      <trkpt lat="39.910695" lon="-0.568099">
        <ele>480.8</ele>
        <time>2012-08-20T11:08:11Z</time>
      </trkpt>
      <trkpt lat="39.910678" lon="-0.568054">
        <ele>480.4</ele>
        <time>2012-08-20T11:08:12Z</time>
      </trkpt>
      <trkpt lat="39.910663" lon="-0.568008">
        <ele>480.0</ele>
        <time>2012-08-20T11:08:13Z</time>
      </trkpt>
      <trkpt lat="39.910647" lon="-0.567964">
        <ele>479.4</ele>
        <time>2012-08-20T11:08:14Z</time>
      </trkpt>
      <trkpt lat="39.910623" lon="-0.567919">
        <ele>479.0</ele>
        <time>2012-08-20T11:08:15Z</time>
      </trkpt>
      <trkpt lat="39.910575" lon="-0.567826">
        <ele>479.0</ele>
        <time>2012-08-20T11:08:17Z</time>
      </trkpt>
      <trkpt lat="39.910504" lon="-0.567713">
        <ele>478.6</ele>
        <time>2012-08-20T11:08:20Z</time>
      </trkpt>
      <trkpt lat="39.910479" lon="-0.567683">
        <ele>478.0</ele>
        <time>2012-08-20T11:08:21Z</time>
      </trkpt>
      <trkpt lat="39.910459" lon="-0.567662">
        <ele>477.2</ele>
        <time>2012-08-20T11:08:22Z</time>
      </trkpt>
      <trkpt lat="39.910443" lon="-0.567646">
        <ele>476.8</ele>
        <time>2012-08-20T11:08:23Z</time>
      </trkpt>
      <trkpt lat="39.910433" lon="-0.567636">
        <ele>476.8</ele>
        <time>2012-08-20T11:08:24Z</time>
      </trkpt>
      <trkpt lat="39.910427" lon="-0.567634">
        <ele>476.8</ele>
        <time>2012-08-20T11:08:26Z</time>
      </trkpt>
      <trkpt lat="39.910427" lon="-0.567633">
        <ele>476.8</ele>
        <time>2012-08-20T11:08:27Z</time>
      </trkpt>
      <trkpt lat="39.910381" lon="-0.567621">
        <ele>476.0</ele>
        <time>2012-08-20T11:09:37Z</time>
      </trkpt>
      <trkpt lat="39.910363" lon="-0.567609">
        <ele>475.6</ele>
        <time>2012-08-20T11:09:38Z</time>
      </trkpt>
      <trkpt lat="39.910345" lon="-0.567595">
        <ele>475.2</ele>
        <time>2012-08-20T11:09:39Z</time>
      </trkpt>
      <trkpt lat="39.910328" lon="-0.567579">
        <ele>474.8</ele>
        <time>2012-08-20T11:09:40Z</time>
      </trkpt>
      <trkpt lat="39.910251" lon="-0.567502">
        <ele>474.8</ele>
        <time>2012-08-20T11:09:44Z</time>
      </trkpt>
      <trkpt lat="39.910071" lon="-0.567305">
        <ele>474.8</ele>
        <time>2012-08-20T11:09:52Z</time>
      </trkpt>
      <trkpt lat="39.910037" lon="-0.567265">
        <ele>474.4</ele>
        <time>2012-08-20T11:09:54Z</time>
      </trkpt>
      <trkpt lat="39.910024" lon="-0.567249">
        <ele>474.0</ele>
        <time>2012-08-20T11:09:55Z</time>
      </trkpt>
      <trkpt lat="39.910013" lon="-0.567238">
        <ele>473.6</ele>
        <time>2012-08-20T11:09:56Z</time>
      </trkpt>
      <trkpt lat="39.910003" lon="-0.567225">
        <ele>473.2</ele>
        <time>2012-08-20T11:09:57Z</time>
      </trkpt>
      <trkpt lat="39.909991" lon="-0.567208">
        <ele>472.8</ele>
        <time>2012-08-20T11:09:58Z</time>
      </trkpt>
      <trkpt lat="39.909966" lon="-0.567064">
        <ele>472.8</ele>
        <time>2012-08-20T11:10:02Z</time>
      </trkpt>
      <trkpt lat="39.909983" lon="-0.566851">
        <ele>472.4</ele>
        <time>2012-08-20T11:10:06Z</time>
      </trkpt>
      <trkpt lat="39.909983" lon="-0.566788">
        <ele>471.8</ele>
        <time>2012-08-20T11:10:07Z</time>
      </trkpt>
      <trkpt lat="39.909983" lon="-0.566722">
        <ele>471.4</ele>
        <time>2012-08-20T11:10:08Z</time>
      </trkpt>
      <trkpt lat="39.909978" lon="-0.566652">
        <ele>471.0</ele>
        <time>2012-08-20T11:10:09Z</time>
      </trkpt>
      <trkpt lat="39.909971" lon="-0.566583">
        <ele>470.6</ele>
        <time>2012-08-20T11:10:10Z</time>
      </trkpt>
      <trkpt lat="39.909961" lon="-0.566516">
        <ele>470.6</ele>
        <time>2012-08-20T11:10:11Z</time>
      </trkpt>
      <trkpt lat="39.909935" lon="-0.566385">
        <ele>470.6</ele>
        <time>2012-08-20T11:10:13Z</time>
      </trkpt>
      <trkpt lat="39.909845" lon="-0.566052">
        <ele>470.2</ele>
        <time>2012-08-20T11:10:18Z</time>
      </trkpt>
      <trkpt lat="39.909827" lon="-0.565984">
        <ele>469.6</ele>
        <time>2012-08-20T11:10:19Z</time>
      </trkpt>
      <trkpt lat="39.909810" lon="-0.565917">
        <ele>469.2</ele>
        <time>2012-08-20T11:10:20Z</time>
      </trkpt>
      <trkpt lat="39.909792" lon="-0.565851">
        <ele>468.8</ele>
        <time>2012-08-20T11:10:21Z</time>
      </trkpt>
      <trkpt lat="39.909775" lon="-0.565782">
        <ele>468.4</ele>
        <time>2012-08-20T11:10:22Z</time>
      </trkpt>
      <trkpt lat="39.909634" lon="-0.565227">
        <ele>468.4</ele>
        <time>2012-08-20T11:10:30Z</time>
      </trkpt>
      <trkpt lat="39.909613" lon="-0.565153">
        <ele>468.0</ele>
        <time>2012-08-20T11:10:31Z</time>
      </trkpt>
      <trkpt lat="39.909592" lon="-0.565079">
        <ele>467.6</ele>
        <time>2012-08-20T11:10:32Z</time>
      </trkpt>
      <trkpt lat="39.909571" lon="-0.565001">
        <ele>467.2</ele>
        <time>2012-08-20T11:10:33Z</time>
      </trkpt>
      <trkpt lat="39.909552" lon="-0.564927">
        <ele>466.8</ele>
        <time>2012-08-20T11:10:34Z</time>
      </trkpt>
      <trkpt lat="39.909534" lon="-0.564853">
        <ele>466.4</ele>
        <time>2012-08-20T11:10:35Z</time>
      </trkpt>
      <trkpt lat="39.909457" lon="-0.564553">
        <ele>466.4</ele>
        <time>2012-08-20T11:10:39Z</time>
      </trkpt>
      <trkpt lat="39.909344" lon="-0.564096">
        <ele>466.0</ele>
        <time>2012-08-20T11:10:45Z</time>
      </trkpt>
      <trkpt lat="39.909323" lon="-0.564023">
        <ele>465.6</ele>
        <time>2012-08-20T11:10:46Z</time>
      </trkpt>
      <trkpt lat="39.909301" lon="-0.563949">
        <ele>465.2</ele>
        <time>2012-08-20T11:10:47Z</time>
      </trkpt>
      <trkpt lat="39.909279" lon="-0.563875">
        <ele>464.8</ele>
        <time>2012-08-20T11:10:48Z</time>
      </trkpt>
      <trkpt lat="39.909257" lon="-0.563795">
        <ele>464.4</ele>
        <time>2012-08-20T11:10:49Z</time>
      </trkpt>
      <trkpt lat="39.909181" lon="-0.563491">
        <ele>463.8</ele>
        <time>2012-08-20T11:10:53Z</time>
      </trkpt>
      <trkpt lat="39.909164" lon="-0.563413">
        <ele>463.4</ele>
        <time>2012-08-20T11:10:54Z</time>
      </trkpt>
      <trkpt lat="39.909147" lon="-0.563340">
        <ele>463.0</ele>
        <time>2012-08-20T11:10:55Z</time>
      </trkpt>
      <trkpt lat="39.909129" lon="-0.563269">
        <ele>462.6</ele>
        <time>2012-08-20T11:10:56Z</time>
      </trkpt>
      <trkpt lat="39.909110" lon="-0.563196">
        <ele>462.2</ele>
        <time>2012-08-20T11:10:57Z</time>
      </trkpt>
      <trkpt lat="39.908978" lon="-0.562695">
        <ele>462.2</ele>
        <time>2012-08-20T11:11:04Z</time>
      </trkpt>
      <trkpt lat="39.908865" lon="-0.562151">
        <ele>462.2</ele>
        <time>2012-08-20T11:11:12Z</time>
      </trkpt>
      <trkpt lat="39.908751" lon="-0.561691">
        <ele>462.2</ele>
        <time>2012-08-20T11:11:20Z</time>
      </trkpt>
      <trkpt lat="39.908637" lon="-0.561316">
        <ele>462.2</ele>
        <time>2012-08-20T11:11:27Z</time>
      </trkpt>
      <trkpt lat="39.908616" lon="-0.561261">
        <ele>462.2</ele>
        <time>2012-08-20T11:11:28Z</time>
      </trkpt>
      <trkpt lat="39.908462" lon="-0.560841">
        <ele>462.2</ele>
        <time>2012-08-20T11:11:36Z</time>
      </trkpt>
      <trkpt lat="39.908292" lon="-0.560488">
        <ele>462.2</ele>
        <time>2012-08-20T11:11:43Z</time>
      </trkpt>
      <trkpt lat="39.908083" lon="-0.560113">
        <ele>462.2</ele>
        <time>2012-08-20T11:11:51Z</time>
      </trkpt>
      <trkpt lat="39.907847" lon="-0.559735">
        <ele>462.2</ele>
        <time>2012-08-20T11:11:59Z</time>
      </trkpt>
      <trkpt lat="39.907580" lon="-0.559352">
        <ele>462.2</ele>
        <time>2012-08-20T11:12:08Z</time>
      </trkpt>
      <trkpt lat="39.907366" lon="-0.559138">
        <ele>462.2</ele>
        <time>2012-08-20T11:12:15Z</time>
      </trkpt>
      <trkpt lat="39.907170" lon="-0.559003">
        <ele>462.2</ele>
        <time>2012-08-20T11:12:21Z</time>
      </trkpt>
      <trkpt lat="39.907135" lon="-0.558983">
        <ele>462.2</ele>
        <time>2012-08-20T11:12:22Z</time>
      </trkpt>
      <trkpt lat="39.906956" lon="-0.558909">
        <ele>462.2</ele>
        <time>2012-08-20T11:12:27Z</time>
      </trkpt>
      <trkpt lat="39.906757" lon="-0.558867">
        <ele>462.2</ele>
        <time>2012-08-20T11:12:33Z</time>
      </trkpt>
      <trkpt lat="39.906533" lon="-0.558892">
        <ele>462.6</ele>
        <time>2012-08-20T11:12:39Z</time>
      </trkpt>
      <trkpt lat="39.906494" lon="-0.558902">
        <ele>463.0</ele>
        <time>2012-08-20T11:12:40Z</time>
      </trkpt>
      <trkpt lat="39.906462" lon="-0.558915">
        <ele>463.4</ele>
        <time>2012-08-20T11:12:41Z</time>
      </trkpt>
      <trkpt lat="39.906430" lon="-0.558925">
        <ele>463.8</ele>
        <time>2012-08-20T11:12:42Z</time>
      </trkpt>
      <trkpt lat="39.906396" lon="-0.558938">
        <ele>464.4</ele>
        <time>2012-08-20T11:12:43Z</time>
      </trkpt>
      <trkpt lat="39.906334" lon="-0.558971">
        <ele>464.4</ele>
        <time>2012-08-20T11:12:45Z</time>
      </trkpt>
      <trkpt lat="39.906118" lon="-0.559101">
        <ele>464.8</ele>
        <time>2012-08-20T11:12:52Z</time>
      </trkpt>
      <trkpt lat="39.906087" lon="-0.559118">
        <ele>465.6</ele>
        <time>2012-08-20T11:12:53Z</time>
      </trkpt>
      <trkpt lat="39.906054" lon="-0.559136">
        <ele>466.0</ele>
        <time>2012-08-20T11:12:54Z</time>
      </trkpt>
      <trkpt lat="39.906021" lon="-0.559154">
        <ele>466.6</ele>
        <time>2012-08-20T11:12:55Z</time>
      </trkpt>
      <trkpt lat="39.905886" lon="-0.559219">
        <ele>466.6</ele>
        <time>2012-08-20T11:12:59Z</time>
      </trkpt>
      <trkpt lat="39.905702" lon="-0.559295">
        <ele>467.0</ele>
        <time>2012-08-20T11:13:05Z</time>
      </trkpt>
      <trkpt lat="39.905672" lon="-0.559299">
        <ele>467.4</ele>
        <time>2012-08-20T11:13:06Z</time>
      </trkpt>
      <trkpt lat="39.905642" lon="-0.559302">
        <ele>467.8</ele>
        <time>2012-08-20T11:13:07Z</time>
      </trkpt>
      <trkpt lat="39.905614" lon="-0.559302">
        <ele>468.2</ele>
        <time>2012-08-20T11:13:08Z</time>
      </trkpt>
      <trkpt lat="39.905587" lon="-0.559305">
        <ele>468.8</ele>
        <time>2012-08-20T11:13:09Z</time>
      </trkpt>
      <trkpt lat="39.905538" lon="-0.559301">
        <ele>468.8</ele>
        <time>2012-08-20T11:13:11Z</time>
      </trkpt>
      <trkpt lat="39.905500" lon="-0.559320">
        <ele>468.8</ele>
        <time>2012-08-20T11:13:13Z</time>
      </trkpt>
      <trkpt lat="39.905459" lon="-0.559366">
        <ele>468.8</ele>
        <time>2012-08-20T11:13:15Z</time>
      </trkpt>
      <trkpt lat="39.905295" lon="-0.559538">
        <ele>468.8</ele>
        <time>2012-08-20T11:13:21Z</time>
      </trkpt>
      <trkpt lat="39.905118" lon="-0.559706">
        <ele>468.8</ele>
        <time>2012-08-20T11:13:27Z</time>
      </trkpt>
      <trkpt lat="39.904939" lon="-0.559863">
        <ele>468.8</ele>
        <time>2012-08-20T11:13:34Z</time>
      </trkpt>
      <trkpt lat="39.904852" lon="-0.559941">
        <ele>468.8</ele>
        <time>2012-08-20T11:13:40Z</time>
      </trkpt>
      <trkpt lat="39.904852" lon="-0.559941">
        <ele>468.8</ele>
        <time>2012-08-20T11:13:43Z</time>
      </trkpt>
      <trkpt lat="39.904873" lon="-0.559925">
        <ele>468.8</ele>
        <time>2012-08-20T11:14:55Z</time>
      </trkpt>
      <trkpt lat="39.904845" lon="-0.559952">
        <ele>468.8</ele>
        <time>2012-08-20T11:14:57Z</time>
      </trkpt>
      <trkpt lat="39.904809" lon="-0.559979">
        <ele>468.8</ele>
        <time>2012-08-20T11:14:59Z</time>
      </trkpt>
      <trkpt lat="39.904758" lon="-0.560016">
        <ele>468.8</ele>
        <time>2012-08-20T11:15:02Z</time>
      </trkpt>
      <trkpt lat="39.904667" lon="-0.560115">
        <ele>468.8</ele>
        <time>2012-08-20T11:15:08Z</time>
      </trkpt>
      <trkpt lat="39.904668" lon="-0.560112">
        <ele>468.8</ele>
        <time>2012-08-20T11:15:09Z</time>
      </trkpt>
      <trkpt lat="39.904669" lon="-0.560113">
        <ele>468.8</ele>
        <time>2012-08-20T11:15:11Z</time>
      </trkpt>
      <trkpt lat="39.904632" lon="-0.560150">
        <ele>466.8</ele>
        <time>2012-08-20T11:15:41Z</time>
      </trkpt>
      <trkpt lat="39.904634" lon="-0.560146">
        <ele>466.8</ele>
        <time>2012-08-20T11:15:42Z</time>
      </trkpt>
      <trkpt lat="39.904635" lon="-0.560147">
        <ele>466.8</ele>
        <time>2012-08-20T11:15:44Z</time>
      </trkpt>
      <trkpt lat="39.904579" lon="-0.560198">
        <ele>466.8</ele>
        <time>2012-08-20T11:16:04Z</time>
      </trkpt>
      <trkpt lat="39.904538" lon="-0.560237">
        <ele>466.8</ele>
        <time>2012-08-20T11:16:06Z</time>
      </trkpt>
      <trkpt lat="39.904332" lon="-0.560434">
        <ele>466.8</ele>
        <time>2012-08-20T11:16:14Z</time>
      </trkpt>
      <trkpt lat="39.904163" lon="-0.560569">
        <ele>466.8</ele>
        <time>2012-08-20T11:16:19Z</time>
      </trkpt>
      <trkpt lat="39.904132" lon="-0.560603">
        <ele>466.8</ele>
        <time>2012-08-20T11:16:20Z</time>
      </trkpt>
      <trkpt lat="39.903919" lon="-0.560790">
        <ele>466.8</ele>
        <time>2012-08-20T11:16:26Z</time>
      </trkpt>
      <trkpt lat="39.903771" lon="-0.560890">
        <ele>466.4</ele>
        <time>2012-08-20T11:16:30Z</time>
      </trkpt>
      <trkpt lat="39.903731" lon="-0.560919">
        <ele>466.0</ele>
        <time>2012-08-20T11:16:31Z</time>
      </trkpt>
      <trkpt lat="39.903691" lon="-0.560942">
        <ele>465.4</ele>
        <time>2012-08-20T11:16:32Z</time>
      </trkpt>
      <trkpt lat="39.903649" lon="-0.560962">
        <ele>465.0</ele>
        <time>2012-08-20T11:16:33Z</time>
      </trkpt>
      <trkpt lat="39.903604" lon="-0.560981">
        <ele>464.6</ele>
        <time>2012-08-20T11:16:34Z</time>
      </trkpt>
      <trkpt lat="39.903317" lon="-0.561066">
        <ele>464.6</ele>
        <time>2012-08-20T11:16:40Z</time>
      </trkpt>
      <trkpt lat="39.903269" lon="-0.561073">
        <ele>464.6</ele>
        <time>2012-08-20T11:16:41Z</time>
      </trkpt>
      <trkpt lat="39.903041" lon="-0.561115">
        <ele>464.6</ele>
        <time>2012-08-20T11:16:46Z</time>
      </trkpt>
      <trkpt lat="39.902993" lon="-0.561117">
        <ele>464.2</ele>
        <time>2012-08-20T11:16:47Z</time>
      </trkpt>
      <trkpt lat="39.902947" lon="-0.561119">
        <ele>463.8</ele>
        <time>2012-08-20T11:16:48Z</time>
      </trkpt>
      <trkpt lat="39.902899" lon="-0.561126">
        <ele>463.0</ele>
        <time>2012-08-20T11:16:49Z</time>
      </trkpt>
      <trkpt lat="39.902849" lon="-0.561130">
        <ele>462.6</ele>
        <time>2012-08-20T11:16:50Z</time>
      </trkpt>
      <trkpt lat="39.902626" lon="-0.561114">
        <ele>462.6</ele>
        <time>2012-08-20T11:16:54Z</time>
      </trkpt>
      <trkpt lat="39.902322" lon="-0.561055">
        <ele>462.2</ele>
        <time>2012-08-20T11:16:59Z</time>
      </trkpt>
      <trkpt lat="39.902264" lon="-0.561034">
        <ele>461.8</ele>
        <time>2012-08-20T11:17:00Z</time>
      </trkpt>
      <trkpt lat="39.902206" lon="-0.561012">
        <ele>461.4</ele>
        <time>2012-08-20T11:17:01Z</time>
      </trkpt>
      <trkpt lat="39.902148" lon="-0.560986">
        <ele>461.0</ele>
        <time>2012-08-20T11:17:02Z</time>
      </trkpt>
      <trkpt lat="39.902088" lon="-0.560953">
        <ele>460.6</ele>
        <time>2012-08-20T11:17:03Z</time>
      </trkpt>
      <trkpt lat="39.901793" lon="-0.560776">
        <ele>460.6</ele>
        <time>2012-08-20T11:17:08Z</time>
      </trkpt>
      <trkpt lat="39.901674" lon="-0.560700">
        <ele>460.2</ele>
        <time>2012-08-20T11:17:10Z</time>
      </trkpt>
      <trkpt lat="39.901622" lon="-0.560662">
        <ele>459.8</ele>
        <time>2012-08-20T11:17:11Z</time>
      </trkpt>
      <trkpt lat="39.901572" lon="-0.560618">
        <ele>459.4</ele>
        <time>2012-08-20T11:17:12Z</time>
      </trkpt>
      <trkpt lat="39.901522" lon="-0.560572">
        <ele>458.6</ele>
        <time>2012-08-20T11:17:13Z</time>
      </trkpt>
      <trkpt lat="39.901362" lon="-0.560429">
        <ele>458.6</ele>
        <time>2012-08-20T11:17:16Z</time>
      </trkpt>
      <trkpt lat="39.901021" lon="-0.560112">
        <ele>458.6</ele>
        <time>2012-08-20T11:17:23Z</time>
      </trkpt>
      <trkpt lat="39.900738" lon="-0.559854">
        <ele>458.6</ele>
        <time>2012-08-20T11:17:29Z</time>
      </trkpt>
      <trkpt lat="39.900586" lon="-0.559725">
        <ele>458.2</ele>
        <time>2012-08-20T11:17:32Z</time>
      </trkpt>
      <trkpt lat="39.900535" lon="-0.559683">
        <ele>457.6</ele>
        <time>2012-08-20T11:17:33Z</time>
      </trkpt>
      <trkpt lat="39.900486" lon="-0.559640">
        <ele>457.2</ele>
        <time>2012-08-20T11:17:34Z</time>
      </trkpt>
      <trkpt lat="39.900435" lon="-0.559597">
        <ele>456.8</ele>
        <time>2012-08-20T11:17:35Z</time>
      </trkpt>
      <trkpt lat="39.900383" lon="-0.559554">
        <ele>456.4</ele>
        <time>2012-08-20T11:17:36Z</time>
      </trkpt>
      <trkpt lat="39.900276" lon="-0.559457">
        <ele>456.4</ele>
        <time>2012-08-20T11:17:38Z</time>
      </trkpt>
      <trkpt lat="39.899901" lon="-0.559145">
        <ele>456.4</ele>
        <time>2012-08-20T11:17:45Z</time>
      </trkpt>
      <trkpt lat="39.899588" lon="-0.558875">
        <ele>456.0</ele>
        <time>2012-08-20T11:17:51Z</time>
      </trkpt>
      <trkpt lat="39.899535" lon="-0.558833">
        <ele>455.6</ele>
        <time>2012-08-20T11:17:52Z</time>
      </trkpt>
      <trkpt lat="39.899478" lon="-0.558791">
        <ele>455.2</ele>
        <time>2012-08-20T11:17:53Z</time>
      </trkpt>
      <trkpt lat="39.899423" lon="-0.558746">
        <ele>454.8</ele>
        <time>2012-08-20T11:17:54Z</time>
      </trkpt>
      <trkpt lat="39.899371" lon="-0.558702">
        <ele>454.4</ele>
        <time>2012-08-20T11:17:55Z</time>
      </trkpt>
      <trkpt lat="39.898948" lon="-0.558334">
        <ele>454.4</ele>
        <time>2012-08-20T11:18:03Z</time>
      </trkpt>
      <trkpt lat="39.898678" lon="-0.558101">
        <ele>454.0</ele>
        <time>2012-08-20T11:18:08Z</time>
      </trkpt>
      <trkpt lat="39.898620" lon="-0.558052">
        <ele>453.4</ele>
        <time>2012-08-20T11:18:09Z</time>
      </trkpt>
      <trkpt lat="39.898567" lon="-0.558005">
        <ele>453.0</ele>
        <time>2012-08-20T11:18:10Z</time>
      </trkpt>
      <trkpt lat="39.898514" lon="-0.557956">
        <ele>452.6</ele>
        <time>2012-08-20T11:18:11Z</time>
      </trkpt>
      <trkpt lat="39.898460" lon="-0.557909">
        <ele>452.2</ele>
        <time>2012-08-20T11:18:12Z</time>
      </trkpt>
      <trkpt lat="39.898156" lon="-0.557595">
        <ele>452.2</ele>
        <time>2012-08-20T11:18:18Z</time>
      </trkpt>
      <trkpt lat="39.898067" lon="-0.557485">
        <ele>451.8</ele>
        <time>2012-08-20T11:18:20Z</time>
      </trkpt>
      <trkpt lat="39.898021" lon="-0.557425">
        <ele>451.2</ele>
        <time>2012-08-20T11:18:21Z</time>
      </trkpt>
      <trkpt lat="39.897981" lon="-0.557361">
        <ele>450.8</ele>
        <time>2012-08-20T11:18:22Z</time>
      </trkpt>
      <trkpt lat="39.897942" lon="-0.557289">
        <ele>450.4</ele>
        <time>2012-08-20T11:18:23Z</time>
      </trkpt>
      <trkpt lat="39.897895" lon="-0.557220">
        <ele>450.0</ele>
        <time>2012-08-20T11:18:24Z</time>
      </trkpt>
      <trkpt lat="39.897859" lon="-0.557152">
        <ele>450.0</ele>
        <time>2012-08-20T11:18:25Z</time>
      </trkpt>
      <trkpt lat="39.897591" lon="-0.556649">
        <ele>450.0</ele>
        <time>2012-08-20T11:18:32Z</time>
      </trkpt>
      <trkpt lat="39.897558" lon="-0.556570">
        <ele>450.0</ele>
        <time>2012-08-20T11:18:33Z</time>
      </trkpt>
      <trkpt lat="39.897442" lon="-0.556359">
        <ele>449.6</ele>
        <time>2012-08-20T11:18:36Z</time>
      </trkpt>
      <trkpt lat="39.897402" lon="-0.556287">
        <ele>449.2</ele>
        <time>2012-08-20T11:18:37Z</time>
      </trkpt>
      <trkpt lat="39.897361" lon="-0.556216">
        <ele>448.8</ele>
        <time>2012-08-20T11:18:38Z</time>
      </trkpt>
      <trkpt lat="39.897321" lon="-0.556145">
        <ele>448.2</ele>
        <time>2012-08-20T11:18:39Z</time>
      </trkpt>
      <trkpt lat="39.897281" lon="-0.556069">
        <ele>447.8</ele>
        <time>2012-08-20T11:18:40Z</time>
      </trkpt>
      <trkpt lat="39.897059" lon="-0.555639">
        <ele>447.8</ele>
        <time>2012-08-20T11:18:46Z</time>
      </trkpt>
      <trkpt lat="39.896865" lon="-0.555299">
        <ele>447.0</ele>
        <time>2012-08-20T11:18:51Z</time>
      </trkpt>
      <trkpt lat="39.896825" lon="-0.555227">
        <ele>446.6</ele>
        <time>2012-08-20T11:18:52Z</time>
      </trkpt>
      <trkpt lat="39.896785" lon="-0.555156">
        <ele>446.2</ele>
        <time>2012-08-20T11:18:53Z</time>
      </trkpt>
      <trkpt lat="39.896744" lon="-0.555082">
        <ele>445.6</ele>
        <time>2012-08-20T11:18:54Z</time>
      </trkpt>
      <trkpt lat="39.896405" lon="-0.554475">
        <ele>445.6</ele>
        <time>2012-08-20T11:19:02Z</time>
      </trkpt>
      <trkpt lat="39.896276" lon="-0.554241">
        <ele>445.2</ele>
        <time>2012-08-20T11:19:05Z</time>
      </trkpt>
      <trkpt lat="39.896235" lon="-0.554163">
        <ele>444.8</ele>
        <time>2012-08-20T11:19:06Z</time>
      </trkpt>
      <trkpt lat="39.896195" lon="-0.554087">
        <ele>444.4</ele>
        <time>2012-08-20T11:19:07Z</time>
      </trkpt>
      <trkpt lat="39.896153" lon="-0.554014">
        <ele>444.0</ele>
        <time>2012-08-20T11:19:08Z</time>
      </trkpt>
      <trkpt lat="39.896112" lon="-0.553939">
        <ele>443.6</ele>
        <time>2012-08-20T11:19:09Z</time>
      </trkpt>
      <trkpt lat="39.895982" lon="-0.553707">
        <ele>443.6</ele>
        <time>2012-08-20T11:19:12Z</time>
      </trkpt>
      <trkpt lat="39.895699" lon="-0.553186">
        <ele>443.2</ele>
        <time>2012-08-20T11:19:19Z</time>
      </trkpt>
      <trkpt lat="39.895662" lon="-0.553114">
        <ele>442.8</ele>
        <time>2012-08-20T11:19:20Z</time>
      </trkpt>
      <trkpt lat="39.895623" lon="-0.553042">
        <ele>442.2</ele>
        <time>2012-08-20T11:19:21Z</time>
      </trkpt>
      <trkpt lat="39.895585" lon="-0.552969">
        <ele>441.8</ele>
        <time>2012-08-20T11:19:22Z</time>
      </trkpt>
      <trkpt lat="39.895546" lon="-0.552903">
        <ele>441.4</ele>
        <time>2012-08-20T11:19:23Z</time>
      </trkpt>
      <trkpt lat="39.895362" lon="-0.552574">
        <ele>441.4</ele>
        <time>2012-08-20T11:19:28Z</time>
      </trkpt>
      <trkpt lat="39.895090" lon="-0.552085">
        <ele>441.4</ele>
        <time>2012-08-20T11:19:36Z</time>
      </trkpt>
      <trkpt lat="39.894803" lon="-0.551543">
        <ele>441.4</ele>
        <time>2012-08-20T11:19:45Z</time>
      </trkpt>
      <trkpt lat="39.894513" lon="-0.551033">
        <ele>441.4</ele>
        <time>2012-08-20T11:19:54Z</time>
      </trkpt>
      <trkpt lat="39.894336" lon="-0.550733">
        <ele>441.4</ele>
        <time>2012-08-20T11:20:00Z</time>
      </trkpt>
      <trkpt lat="39.894075" lon="-0.550304">
        <ele>441.4</ele>
        <time>2012-08-20T11:20:08Z</time>
      </trkpt>
      <trkpt lat="39.893857" lon="-0.549872">
        <ele>441.4</ele>
        <time>2012-08-20T11:20:15Z</time>
      </trkpt>
      <trkpt lat="39.893594" lon="-0.549352">
        <ele>441.4</ele>
        <time>2012-08-20T11:20:23Z</time>
      </trkpt>
      <trkpt lat="39.893375" lon="-0.548973">
        <ele>441.4</ele>
        <time>2012-08-20T11:20:30Z</time>
      </trkpt>
      <trkpt lat="39.893303" lon="-0.548879">
        <ele>441.4</ele>
        <time>2012-08-20T11:20:32Z</time>
      </trkpt>
      <trkpt lat="39.893145" lon="-0.548704">
        <ele>441.4</ele>
        <time>2012-08-20T11:20:36Z</time>
      </trkpt>
      <trkpt lat="39.893034" lon="-0.548602">
        <ele>441.4</ele>
        <time>2012-08-20T11:20:39Z</time>
      </trkpt>
      <trkpt lat="39.892870" lon="-0.548467">
        <ele>441.4</ele>
        <time>2012-08-20T11:20:43Z</time>
      </trkpt>
      <trkpt lat="39.892513" lon="-0.548234">
        <ele>441.4</ele>
        <time>2012-08-20T11:20:51Z</time>
      </trkpt>
      <trkpt lat="39.892275" lon="-0.548121">
        <ele>441.4</ele>
        <time>2012-08-20T11:20:56Z</time>
      </trkpt>
      <trkpt lat="39.892114" lon="-0.548079">
        <ele>441.4</ele>
        <time>2012-08-20T11:20:59Z</time>
      </trkpt>
      <trkpt lat="39.891765" lon="-0.548005">
        <ele>441.4</ele>
        <time>2012-08-20T11:21:06Z</time>
      </trkpt>
      <trkpt lat="39.891413" lon="-0.547960">
        <ele>441.4</ele>
        <time>2012-08-20T11:21:13Z</time>
      </trkpt>
      <trkpt lat="39.891060" lon="-0.547922">
        <ele>441.4</ele>
        <time>2012-08-20T11:21:20Z</time>
      </trkpt>
      <trkpt lat="39.890697" lon="-0.547846">
        <ele>441.4</ele>
        <time>2012-08-20T11:21:27Z</time>
      </trkpt>
      <trkpt lat="39.890637" lon="-0.547846">
        <ele>441.4</ele>
        <time>2012-08-20T11:21:28Z</time>
      </trkpt>
      <trkpt lat="39.890359" lon="-0.547843">
        <ele>441.4</ele>
        <time>2012-08-20T11:21:33Z</time>
      </trkpt>
      <trkpt lat="39.889967" lon="-0.547768">
        <ele>441.4</ele>
        <time>2012-08-20T11:21:40Z</time>
      </trkpt>
      <trkpt lat="39.889516" lon="-0.547613">
        <ele>441.4</ele>
        <time>2012-08-20T11:21:48Z</time>
      </trkpt>
      <trkpt lat="39.889115" lon="-0.547400">
        <ele>441.4</ele>
        <time>2012-08-20T11:21:55Z</time>
      </trkpt>
      <trkpt lat="39.888852" lon="-0.547185">
        <ele>441.4</ele>
        <time>2012-08-20T11:22:00Z</time>
      </trkpt>
      <trkpt lat="39.888752" lon="-0.547089">
        <ele>441.4</ele>
        <time>2012-08-20T11:22:02Z</time>
      </trkpt>
      <trkpt lat="39.888497" lon="-0.546748">
        <ele>441.4</ele>
        <time>2012-08-20T11:22:08Z</time>
      </trkpt>
      <trkpt lat="39.888266" lon="-0.546329">
        <ele>441.4</ele>
        <time>2012-08-20T11:22:15Z</time>
      </trkpt>
      <trkpt lat="39.888047" lon="-0.545900">
        <ele>441.4</ele>
        <time>2012-08-20T11:22:22Z</time>
      </trkpt>
      <trkpt lat="39.888015" lon="-0.545842">
        <ele>441.4</ele>
        <time>2012-08-20T11:22:23Z</time>
      </trkpt>
      <trkpt lat="39.887927" lon="-0.545588">
        <ele>441.4</ele>
        <time>2012-08-20T11:22:27Z</time>
      </trkpt>
      <trkpt lat="39.887910" lon="-0.545521">
        <ele>441.4</ele>
        <time>2012-08-20T11:22:28Z</time>
      </trkpt>
      <trkpt lat="39.887834" lon="-0.545261">
        <ele>441.4</ele>
        <time>2012-08-20T11:22:32Z</time>
      </trkpt>
      <trkpt lat="39.887718" lon="-0.544865">
        <ele>441.4</ele>
        <time>2012-08-20T11:22:38Z</time>
      </trkpt>
      <trkpt lat="39.887712" lon="-0.544791">
        <ele>441.4</ele>
        <time>2012-08-20T11:22:39Z</time>
      </trkpt>
      <trkpt lat="39.887760" lon="-0.544562">
        <ele>441.4</ele>
        <time>2012-08-20T11:22:42Z</time>
      </trkpt>
      <trkpt lat="39.887935" lon="-0.543934">
        <ele>439.6</ele>
        <time>2012-08-20T11:22:50Z</time>
      </trkpt>
      <trkpt lat="39.887935" lon="-0.543902">
        <ele>439.2</ele>
        <time>2012-08-20T11:22:51Z</time>
      </trkpt>
      <trkpt lat="39.887841" lon="-0.543821">
        <ele>439.2</ele>
        <time>2012-08-20T11:22:54Z</time>
      </trkpt>
      <trkpt lat="39.887771" lon="-0.543808">
        <ele>439.2</ele>
        <time>2012-08-20T11:22:56Z</time>
      </trkpt>
      <trkpt lat="39.887661" lon="-0.543785">
        <ele>439.2</ele>
        <time>2012-08-20T11:22:59Z</time>
      </trkpt>
      <trkpt lat="39.887411" lon="-0.543682">
        <ele>439.2</ele>
        <time>2012-08-20T11:23:06Z</time>
      </trkpt>
      <trkpt lat="39.887259" lon="-0.543602">
        <ele>439.2</ele>
        <time>2012-08-20T11:23:11Z</time>
      </trkpt>
      <trkpt lat="39.886986" lon="-0.543442">
        <ele>439.2</ele>
        <time>2012-08-20T11:23:19Z</time>
      </trkpt>
      <trkpt lat="39.886747" lon="-0.543298">
        <ele>439.2</ele>
        <time>2012-08-20T11:23:26Z</time>
      </trkpt>
      <trkpt lat="39.886712" lon="-0.543274">
        <ele>439.6</ele>
        <time>2012-08-20T11:23:27Z</time>
      </trkpt>
      <trkpt lat="39.886676" lon="-0.543251">
        <ele>440.0</ele>
        <time>2012-08-20T11:23:28Z</time>
      </trkpt>
      <trkpt lat="39.886641" lon="-0.543231">
        <ele>440.4</ele>
        <time>2012-08-20T11:23:29Z</time>
      </trkpt>
      <trkpt lat="39.886604" lon="-0.543210">
        <ele>440.8</ele>
        <time>2012-08-20T11:23:30Z</time>
      </trkpt>
      <trkpt lat="39.886569" lon="-0.543191">
        <ele>441.2</ele>
        <time>2012-08-20T11:23:31Z</time>
      </trkpt>
      <trkpt lat="39.886400" lon="-0.543081">
        <ele>441.2</ele>
        <time>2012-08-20T11:23:36Z</time>
      </trkpt>
      <trkpt lat="39.886256" lon="-0.542992">
        <ele>441.2</ele>
        <time>2012-08-20T11:23:40Z</time>
      </trkpt>
      <trkpt lat="39.886149" lon="-0.542926">
        <ele>441.2</ele>
        <time>2012-08-20T11:23:43Z</time>
      </trkpt>
      <trkpt lat="39.885870" lon="-0.542703">
        <ele>441.2</ele>
        <time>2012-08-20T11:23:51Z</time>
      </trkpt>
      <trkpt lat="39.885589" lon="-0.542443">
        <ele>441.2</ele>
        <time>2012-08-20T11:23:59Z</time>
      </trkpt>
      <trkpt lat="39.885268" lon="-0.542102">
        <ele>441.2</ele>
        <time>2012-08-20T11:24:08Z</time>
      </trkpt>
      <trkpt lat="39.884939" lon="-0.541748">
        <ele>441.2</ele>
        <time>2012-08-20T11:24:17Z</time>
      </trkpt>
      <trkpt lat="39.884592" lon="-0.541312">
        <ele>441.2</ele>
        <time>2012-08-20T11:24:27Z</time>
      </trkpt>
      <trkpt lat="39.884367" lon="-0.540911">
        <ele>441.2</ele>
        <time>2012-08-20T11:24:35Z</time>
      </trkpt>
      <trkpt lat="39.884239" lon="-0.540649">
        <ele>441.2</ele>
        <time>2012-08-20T11:24:40Z</time>
      </trkpt>
      <trkpt lat="39.884203" lon="-0.540538">
        <ele>441.2</ele>
        <time>2012-08-20T11:24:42Z</time>
      </trkpt>
      <trkpt lat="39.884114" lon="-0.540277">
        <ele>442.0</ele>
        <time>2012-08-20T11:24:47Z</time>
      </trkpt>
      <trkpt lat="39.884097" lon="-0.540226">
        <ele>442.8</ele>
        <time>2012-08-20T11:24:48Z</time>
      </trkpt>
      <trkpt lat="39.884081" lon="-0.540179">
        <ele>443.8</ele>
        <time>2012-08-20T11:24:49Z</time>
      </trkpt>
      <trkpt lat="39.884065" lon="-0.540131">
        <ele>443.6</ele>
        <time>2012-08-20T11:24:50Z</time>
      </trkpt>
      <trkpt lat="39.884053" lon="-0.540085">
        <ele>443.6</ele>
        <time>2012-08-20T11:24:51Z</time>
      </trkpt>
      <trkpt lat="39.884040" lon="-0.540039">
        <ele>443.6</ele>
        <time>2012-08-20T11:24:52Z</time>
      </trkpt>
      <trkpt lat="39.884029" lon="-0.539991">
        <ele>443.4</ele>
        <time>2012-08-20T11:24:53Z</time>
      </trkpt>
      <trkpt lat="39.884019" lon="-0.539939">
        <ele>443.4</ele>
        <time>2012-08-20T11:24:54Z</time>
      </trkpt>
      <trkpt lat="39.884001" lon="-0.539834">
        <ele>443.4</ele>
        <time>2012-08-20T11:24:56Z</time>
      </trkpt>
      <trkpt lat="39.883986" lon="-0.539737">
        <ele>442.8</ele>
        <time>2012-08-20T11:24:58Z</time>
      </trkpt>
      <trkpt lat="39.883982" lon="-0.539690">
        <ele>442.4</ele>
        <time>2012-08-20T11:24:59Z</time>
      </trkpt>
      <trkpt lat="39.883980" lon="-0.539647">
        <ele>441.8</ele>
        <time>2012-08-20T11:25:00Z</time>
      </trkpt>
      <trkpt lat="39.883977" lon="-0.539609">
        <ele>442.4</ele>
        <time>2012-08-20T11:25:01Z</time>
      </trkpt>
      <trkpt lat="39.883972" lon="-0.539566">
        <ele>442.0</ele>
        <time>2012-08-20T11:25:02Z</time>
      </trkpt>
      <trkpt lat="39.883971" lon="-0.539523">
        <ele>441.6</ele>
        <time>2012-08-20T11:25:03Z</time>
      </trkpt>
      <trkpt lat="39.883964" lon="-0.539479">
        <ele>441.2</ele>
        <time>2012-08-20T11:25:04Z</time>
      </trkpt>
      <trkpt lat="39.883960" lon="-0.539439">
        <ele>441.0</ele>
        <time>2012-08-20T11:25:05Z</time>
      </trkpt>
      <trkpt lat="39.883956" lon="-0.539404">
        <ele>440.6</ele>
        <time>2012-08-20T11:25:06Z</time>
      </trkpt>
      <trkpt lat="39.883941" lon="-0.539303">
        <ele>440.6</ele>
        <time>2012-08-20T11:25:09Z</time>
      </trkpt>
      <trkpt lat="39.883922" lon="-0.539105">
        <ele>440.6</ele>
        <time>2012-08-20T11:25:15Z</time>
      </trkpt>
      <trkpt lat="39.883891" lon="-0.538867">
        <ele>440.6</ele>
        <time>2012-08-20T11:25:21Z</time>
      </trkpt>
      <trkpt lat="39.883883" lon="-0.538830">
        <ele>440.6</ele>
        <time>2012-08-20T11:25:24Z</time>
      </trkpt>
      <trkpt lat="39.883859" lon="-0.538739">
        <ele>440.8</ele>
        <time>2012-08-20T11:26:57Z</time>
      </trkpt>
      <trkpt lat="39.883844" lon="-0.538491">
        <ele>440.8</ele>
        <time>2012-08-20T11:27:03Z</time>
      </trkpt>
      <trkpt lat="39.883791" lon="-0.538195">
        <ele>440.8</ele>
        <time>2012-08-20T11:27:09Z</time>
      </trkpt>
      <trkpt lat="39.883747" lon="-0.537817">
        <ele>440.8</ele>
        <time>2012-08-20T11:27:16Z</time>
      </trkpt>
      <trkpt lat="39.883726" lon="-0.537325">
        <ele>440.8</ele>
        <time>2012-08-20T11:27:24Z</time>
      </trkpt>
      <trkpt lat="39.883684" lon="-0.536785">
        <ele>440.8</ele>
        <time>2012-08-20T11:27:32Z</time>
      </trkpt>
      <trkpt lat="39.883661" lon="-0.536318">
        <ele>440.8</ele>
        <time>2012-08-20T11:27:39Z</time>
      </trkpt>
      <trkpt lat="39.883652" lon="-0.535860">
        <ele>440.8</ele>
        <time>2012-08-20T11:27:46Z</time>
      </trkpt>
      <trkpt lat="39.883668" lon="-0.535394">
        <ele>440.8</ele>
        <time>2012-08-20T11:27:54Z</time>
      </trkpt>
      <trkpt lat="39.883667" lon="-0.535330">
        <ele>440.8</ele>
        <time>2012-08-20T11:27:55Z</time>
      </trkpt>
      <trkpt lat="39.883669" lon="-0.534999">
        <ele>440.8</ele>
        <time>2012-08-20T11:28:00Z</time>
      </trkpt>
      <trkpt lat="39.883680" lon="-0.534459">
        <ele>440.8</ele>
        <time>2012-08-20T11:28:08Z</time>
      </trkpt>
      <trkpt lat="39.883673" lon="-0.534036">
        <ele>440.8</ele>
        <time>2012-08-20T11:28:15Z</time>
      </trkpt>
      <trkpt lat="39.883692" lon="-0.533771">
        <ele>440.8</ele>
        <time>2012-08-20T11:28:20Z</time>
      </trkpt>
      <trkpt lat="39.883691" lon="-0.533715">
        <ele>440.8</ele>
        <time>2012-08-20T11:28:21Z</time>
      </trkpt>
      <trkpt lat="39.883705" lon="-0.533271">
        <ele>440.8</ele>
        <time>2012-08-20T11:28:28Z</time>
      </trkpt>
      <trkpt lat="39.883732" lon="-0.532668">
        <ele>440.8</ele>
        <time>2012-08-20T11:28:37Z</time>
      </trkpt>
      <trkpt lat="39.883803" lon="-0.532126">
        <ele>440.8</ele>
        <time>2012-08-20T11:28:45Z</time>
      </trkpt>
      <trkpt lat="39.883907" lon="-0.531633">
        <ele>440.8</ele>
        <time>2012-08-20T11:28:52Z</time>
      </trkpt>
      <trkpt lat="39.884092" lon="-0.531032">
        <ele>440.8</ele>
        <time>2012-08-20T11:29:01Z</time>
      </trkpt>
      <trkpt lat="39.884340" lon="-0.530406">
        <ele>440.8</ele>
        <time>2012-08-20T11:29:10Z</time>
      </trkpt>
      <trkpt lat="39.884562" lon="-0.529840">
        <ele>440.8</ele>
        <time>2012-08-20T11:29:18Z</time>
      </trkpt>
      <trkpt lat="39.884732" lon="-0.529407">
        <ele>440.8</ele>
        <time>2012-08-20T11:29:24Z</time>
      </trkpt>
      <trkpt lat="39.884890" lon="-0.528947">
        <ele>440.8</ele>
        <time>2012-08-20T11:29:30Z</time>
      </trkpt>
      <trkpt lat="39.885134" lon="-0.528336">
        <ele>440.8</ele>
        <time>2012-08-20T11:29:38Z</time>
      </trkpt>
      <trkpt lat="39.885160" lon="-0.528261">
        <ele>440.8</ele>
        <time>2012-08-20T11:29:39Z</time>
      </trkpt>
      <trkpt lat="39.885394" lon="-0.527618">
        <ele>440.8</ele>
        <time>2012-08-20T11:29:48Z</time>
      </trkpt>
      <trkpt lat="39.885619" lon="-0.526997">
        <ele>440.8</ele>
        <time>2012-08-20T11:29:57Z</time>
      </trkpt>
      <trkpt lat="39.885777" lon="-0.526601">
        <ele>440.8</ele>
        <time>2012-08-20T11:30:03Z</time>
      </trkpt>
      <trkpt lat="39.885933" lon="-0.526206">
        <ele>440.8</ele>
        <time>2012-08-20T11:30:09Z</time>
      </trkpt>
      <trkpt lat="39.886551" lon="-0.524253">
        <ele>440.8</ele>
        <time>2012-08-20T11:30:37Z</time>
      </trkpt>
      <trkpt lat="39.886599" lon="-0.523775">
        <ele>440.8</ele>
        <time>2012-08-20T11:30:44Z</time>
      </trkpt>
      <trkpt lat="39.886591" lon="-0.523651">
        <ele>440.4</ele>
        <time>2012-08-20T11:30:46Z</time>
      </trkpt>
      <trkpt lat="39.886588" lon="-0.523593">
        <ele>440.0</ele>
        <time>2012-08-20T11:30:47Z</time>
      </trkpt>
      <trkpt lat="39.886583" lon="-0.523533">
        <ele>439.6</ele>
        <time>2012-08-20T11:30:48Z</time>
      </trkpt>
      <trkpt lat="39.886576" lon="-0.523474">
        <ele>438.8</ele>
        <time>2012-08-20T11:30:49Z</time>
      </trkpt>
      <trkpt lat="39.886564" lon="-0.523358">
        <ele>438.8</ele>
        <time>2012-08-20T11:30:51Z</time>
      </trkpt>
      <trkpt lat="39.886552" lon="-0.523270">
        <ele>438.8</ele>
        <time>2012-08-20T11:30:54Z</time>
      </trkpt>
      <trkpt lat="39.886552" lon="-0.523270">
        <ele>438.8</ele>
        <time>2012-08-20T11:30:56Z</time>
      </trkpt>
      <trkpt lat="39.886543" lon="-0.523235">
        <ele>438.8</ele>
        <time>2012-08-20T11:32:01Z</time>
      </trkpt>
      <trkpt lat="39.886529" lon="-0.523180">
        <ele>438.8</ele>
        <time>2012-08-20T11:32:03Z</time>
      </trkpt>
      <trkpt lat="39.886491" lon="-0.522965">
        <ele>438.8</ele>
        <time>2012-08-20T11:32:09Z</time>
      </trkpt>
      <trkpt lat="39.886449" lon="-0.522645">
        <ele>438.8</ele>
        <time>2012-08-20T11:32:16Z</time>
      </trkpt>
      <trkpt lat="39.886381" lon="-0.522158">
        <ele>438.8</ele>
        <time>2012-08-20T11:32:25Z</time>
      </trkpt>
      <trkpt lat="39.886313" lon="-0.521693">
        <ele>438.8</ele>
        <time>2012-08-20T11:32:33Z</time>
      </trkpt>
      <trkpt lat="39.886200" lon="-0.521243">
        <ele>438.8</ele>
        <time>2012-08-20T11:32:41Z</time>
      </trkpt>
      <trkpt lat="39.886146" lon="-0.521086">
        <ele>438.8</ele>
        <time>2012-08-20T11:32:44Z</time>
      </trkpt>
      <trkpt lat="39.886073" lon="-0.520925">
        <ele>438.8</ele>
        <time>2012-08-20T11:32:47Z</time>
      </trkpt>
      <trkpt lat="39.885913" lon="-0.520650">
        <ele>438.8</ele>
        <time>2012-08-20T11:32:52Z</time>
      </trkpt>
      <trkpt lat="39.885877" lon="-0.520600">
        <ele>438.8</ele>
        <time>2012-08-20T11:32:53Z</time>
      </trkpt>
      <trkpt lat="39.885563" lon="-0.520216">
        <ele>438.4</ele>
        <time>2012-08-20T11:33:01Z</time>
      </trkpt>
      <trkpt lat="39.885526" lon="-0.520168">
        <ele>438.0</ele>
        <time>2012-08-20T11:33:02Z</time>
      </trkpt>
      <trkpt lat="39.885488" lon="-0.520125">
        <ele>437.6</ele>
        <time>2012-08-20T11:33:03Z</time>
      </trkpt>
      <trkpt lat="39.885450" lon="-0.520080">
        <ele>437.2</ele>
        <time>2012-08-20T11:33:04Z</time>
      </trkpt>
      <trkpt lat="39.885412" lon="-0.520032">
        <ele>436.8</ele>
        <time>2012-08-20T11:33:05Z</time>
      </trkpt>
      <trkpt lat="39.885303" lon="-0.519892">
        <ele>436.8</ele>
        <time>2012-08-20T11:33:08Z</time>
      </trkpt>
      <trkpt lat="39.885109" lon="-0.519642">
        <ele>436.8</ele>
        <time>2012-08-20T11:33:14Z</time>
      </trkpt>
      <trkpt lat="39.883696" lon="-0.518369">
        <ele>436.8</ele>
        <time>2012-08-20T11:33:51Z</time>
      </trkpt>
      <trkpt lat="39.883668" lon="-0.518334">
        <ele>436.8</ele>
        <time>2012-08-20T11:33:52Z</time>
      </trkpt>
      <trkpt lat="39.883426" lon="-0.518225">
        <ele>436.8</ele>
        <time>2012-08-20T11:33:57Z</time>
      </trkpt>
      <trkpt lat="39.883070" lon="-0.518096">
        <ele>436.8</ele>
        <time>2012-08-20T11:34:04Z</time>
      </trkpt>
      <trkpt lat="39.882677" lon="-0.517947">
        <ele>436.8</ele>
        <time>2012-08-20T11:34:12Z</time>
      </trkpt>
      <trkpt lat="39.882584" lon="-0.517910">
        <ele>436.8</ele>
        <time>2012-08-20T11:34:14Z</time>
      </trkpt>
      <trkpt lat="39.882492" lon="-0.517863">
        <ele>436.8</ele>
        <time>2012-08-20T11:34:16Z</time>
      </trkpt>
      <trkpt lat="39.882401" lon="-0.517827">
        <ele>436.8</ele>
        <time>2012-08-20T11:34:18Z</time>
      </trkpt>
      <trkpt lat="39.882099" lon="-0.517705">
        <ele>436.8</ele>
        <time>2012-08-20T11:34:24Z</time>
      </trkpt>
      <trkpt lat="39.881779" lon="-0.517560">
        <ele>436.8</ele>
        <time>2012-08-20T11:34:30Z</time>
      </trkpt>
      <trkpt lat="39.881386" lon="-0.517398">
        <ele>436.8</ele>
        <time>2012-08-20T11:34:37Z</time>
      </trkpt>
      <trkpt lat="39.880872" lon="-0.517193">
        <ele>436.8</ele>
        <time>2012-08-20T11:34:46Z</time>
      </trkpt>
      <trkpt lat="39.880815" lon="-0.517169">
        <ele>436.8</ele>
        <time>2012-08-20T11:34:47Z</time>
      </trkpt>
      <trkpt lat="39.880424" lon="-0.517009">
        <ele>436.8</ele>
        <time>2012-08-20T11:34:54Z</time>
      </trkpt>
      <trkpt lat="39.880059" lon="-0.516861">
        <ele>436.8</ele>
        <time>2012-08-20T11:35:01Z</time>
      </trkpt>
      <trkpt lat="39.879701" lon="-0.516718">
        <ele>436.8</ele>
        <time>2012-08-20T11:35:08Z</time>
      </trkpt>
      <trkpt lat="39.879446" lon="-0.516617">
        <ele>436.8</ele>
        <time>2012-08-20T11:35:13Z</time>
      </trkpt>
      <trkpt lat="39.879293" lon="-0.516558">
        <ele>436.8</ele>
        <time>2012-08-20T11:35:16Z</time>
      </trkpt>
      <trkpt lat="39.878903" lon="-0.516338">
        <ele>436.8</ele>
        <time>2012-08-20T11:35:24Z</time>
      </trkpt>
      <trkpt lat="39.878715" lon="-0.516191">
        <ele>436.8</ele>
        <time>2012-08-20T11:35:28Z</time>
      </trkpt>
      <trkpt lat="39.878636" lon="-0.516110">
        <ele>436.8</ele>
        <time>2012-08-20T11:35:30Z</time>
      </trkpt>
      <trkpt lat="39.878428" lon="-0.515880">
        <ele>436.8</ele>
        <time>2012-08-20T11:35:35Z</time>
      </trkpt>
      <trkpt lat="39.878391" lon="-0.515825">
        <ele>436.8</ele>
        <time>2012-08-20T11:35:36Z</time>
      </trkpt>
      <trkpt lat="39.878245" lon="-0.515610">
        <ele>436.8</ele>
        <time>2012-08-20T11:35:40Z</time>
      </trkpt>
      <trkpt lat="39.878113" lon="-0.515455">
        <ele>436.8</ele>
        <time>2012-08-20T11:35:43Z</time>
      </trkpt>
      <trkpt lat="39.878028" lon="-0.515353">
        <ele>436.8</ele>
        <time>2012-08-20T11:35:45Z</time>
      </trkpt>
      <trkpt lat="39.877833" lon="-0.515083">
        <ele>436.8</ele>
        <time>2012-08-20T11:35:50Z</time>
      </trkpt>
      <trkpt lat="39.877587" lon="-0.514783">
        <ele>436.8</ele>
        <time>2012-08-20T11:35:56Z</time>
      </trkpt>
      <trkpt lat="39.877336" lon="-0.514526">
        <ele>436.8</ele>
        <time>2012-08-20T11:36:02Z</time>
      </trkpt>
      <trkpt lat="39.876990" lon="-0.514299">
        <ele>436.8</ele>
        <time>2012-08-20T11:36:09Z</time>
      </trkpt>
      <trkpt lat="39.876631" lon="-0.514137">
        <ele>436.8</ele>
        <time>2012-08-20T11:36:16Z</time>
      </trkpt>
      <trkpt lat="39.876290" lon="-0.513994">
        <ele>436.8</ele>
        <time>2012-08-20T11:36:22Z</time>
      </trkpt>
      <trkpt lat="39.875945" lon="-0.513856">
        <ele>436.8</ele>
        <time>2012-08-20T11:36:28Z</time>
      </trkpt>
      <trkpt lat="39.875551" lon="-0.513671">
        <ele>436.8</ele>
        <time>2012-08-20T11:36:35Z</time>
      </trkpt>
      <trkpt lat="39.875244" lon="-0.513439">
        <ele>436.8</ele>
        <time>2012-08-20T11:36:41Z</time>
      </trkpt>
      <trkpt lat="39.874977" lon="-0.513136">
        <ele>436.8</ele>
        <time>2012-08-20T11:36:47Z</time>
      </trkpt>
      <trkpt lat="39.874741" lon="-0.512754">
        <ele>436.8</ele>
        <time>2012-08-20T11:36:53Z</time>
      </trkpt>
      <trkpt lat="39.874437" lon="-0.512253">
        <ele>436.8</ele>
        <time>2012-08-20T11:37:01Z</time>
      </trkpt>
      <trkpt lat="39.874153" lon="-0.511788">
        <ele>436.8</ele>
        <time>2012-08-20T11:37:09Z</time>
      </trkpt>
    </trkseg>
  </trk>
  <trk>
    <name>T3303249-16</name>
    <cmt>La ruta empieza en Ojos Negros. Hasta Santa Eulalia va por una carretera comarcal apenas transitada. Hay un tramo de unos 40 km durante el puerto del Escandón que no aparece reflejado en el track porque me quedé sin batería en el GPS pero la vía verde no tiene pérdida en esa zona</cmt>
    <desc>La ruta empieza en Ojos Negros. Hasta Santa Eulalia va por una carretera comarcal apenas transitada. Hay un tramo de unos 40 km durante el puerto del Escandón que no aparece reflejado en el track porque me quedé sin batería en el GPS pero la vía verde no tiene pérdida en esa zona</desc>
    <trkseg>
      <trkpt lat="39.873900" lon="-0.511422">
        <ele>436.8</ele>
        <time>2012-08-20T11:37:16Z</time>
      </trkpt>
      <trkpt lat="39.873756" lon="-0.511158">
        <ele>436.8</ele>
        <time>2012-08-20T11:37:21Z</time>
      </trkpt>
      <trkpt lat="39.873726" lon="-0.511113">
        <ele>436.8</ele>
        <time>2012-08-20T11:37:22Z</time>
      </trkpt>
      <trkpt lat="39.873566" lon="-0.510900">
        <ele>436.8</ele>
        <time>2012-08-20T11:37:27Z</time>
      </trkpt>
      <trkpt lat="39.873535" lon="-0.510864">
        <ele>436.8</ele>
        <time>2012-08-20T11:37:28Z</time>
      </trkpt>
      <trkpt lat="39.873437" lon="-0.510763">
        <ele>436.8</ele>
        <time>2012-08-20T11:37:31Z</time>
      </trkpt>
      <trkpt lat="39.873402" lon="-0.510738">
        <ele>436.8</ele>
        <time>2012-08-20T11:37:32Z</time>
      </trkpt>
      <trkpt lat="39.873255" lon="-0.510620">
        <ele>436.8</ele>
        <time>2012-08-20T11:37:36Z</time>
      </trkpt>
      <trkpt lat="39.872946" lon="-0.510411">
        <ele>436.8</ele>
        <time>2012-08-20T11:37:43Z</time>
      </trkpt>
      <trkpt lat="39.872858" lon="-0.510358">
        <ele>436.8</ele>
        <time>2012-08-20T11:37:45Z</time>
      </trkpt>
      <trkpt lat="39.872651" lon="-0.510286">
        <ele>436.8</ele>
        <time>2012-08-20T11:37:49Z</time>
      </trkpt>
      <trkpt lat="39.872497" lon="-0.510263">
        <ele>436.8</ele>
        <time>2012-08-20T11:37:52Z</time>
      </trkpt>
      <trkpt lat="39.872338" lon="-0.510263">
        <ele>436.8</ele>
        <time>2012-08-20T11:37:55Z</time>
      </trkpt>
      <trkpt lat="39.872285" lon="-0.510271">
        <ele>436.8</ele>
        <time>2012-08-20T11:37:56Z</time>
      </trkpt>
      <trkpt lat="39.872068" lon="-0.510334">
        <ele>436.8</ele>
        <time>2012-08-20T11:38:00Z</time>
      </trkpt>
      <trkpt lat="39.871742" lon="-0.510450">
        <ele>436.8</ele>
        <time>2012-08-20T11:38:06Z</time>
      </trkpt>
      <trkpt lat="39.871361" lon="-0.510676">
        <ele>436.8</ele>
        <time>2012-08-20T11:38:13Z</time>
      </trkpt>
      <trkpt lat="39.870861" lon="-0.511043">
        <ele>436.8</ele>
        <time>2012-08-20T11:38:22Z</time>
      </trkpt>
      <trkpt lat="39.870804" lon="-0.511083">
        <ele>436.8</ele>
        <time>2012-08-20T11:38:23Z</time>
      </trkpt>
      <trkpt lat="39.870363" lon="-0.511391">
        <ele>436.8</ele>
        <time>2012-08-20T11:38:31Z</time>
      </trkpt>
      <trkpt lat="39.870318" lon="-0.511440">
        <ele>436.8</ele>
        <time>2012-08-20T11:38:32Z</time>
      </trkpt>
      <trkpt lat="39.870148" lon="-0.511566">
        <ele>436.8</ele>
        <time>2012-08-20T11:38:35Z</time>
      </trkpt>
      <trkpt lat="39.870087" lon="-0.511607">
        <ele>436.8</ele>
        <time>2012-08-20T11:38:36Z</time>
      </trkpt>
      <trkpt lat="39.869608" lon="-0.511934">
        <ele>436.8</ele>
        <time>2012-08-20T11:38:44Z</time>
      </trkpt>
      <trkpt lat="39.869545" lon="-0.511964">
        <ele>436.8</ele>
        <time>2012-08-20T11:38:45Z</time>
      </trkpt>
      <trkpt lat="39.869360" lon="-0.512040">
        <ele>436.8</ele>
        <time>2012-08-20T11:38:48Z</time>
      </trkpt>
      <trkpt lat="39.869300" lon="-0.512066">
        <ele>436.4</ele>
        <time>2012-08-20T11:38:49Z</time>
      </trkpt>
      <trkpt lat="39.869244" lon="-0.512088">
        <ele>436.0</ele>
        <time>2012-08-20T11:38:50Z</time>
      </trkpt>
      <trkpt lat="39.869189" lon="-0.512106">
        <ele>435.6</ele>
        <time>2012-08-20T11:38:51Z</time>
      </trkpt>
      <trkpt lat="39.869135" lon="-0.512122">
        <ele>435.2</ele>
        <time>2012-08-20T11:38:52Z</time>
      </trkpt>
      <trkpt lat="39.869081" lon="-0.512139">
        <ele>434.8</ele>
        <time>2012-08-20T11:38:53Z</time>
      </trkpt>
      <trkpt lat="39.868977" lon="-0.512170">
        <ele>434.8</ele>
        <time>2012-08-20T11:38:55Z</time>
      </trkpt>
      <trkpt lat="39.868836" lon="-0.512211">
        <ele>434.8</ele>
        <time>2012-08-20T11:38:59Z</time>
      </trkpt>
      <trkpt lat="39.868633" lon="-0.512253">
        <ele>434.8</ele>
        <time>2012-08-20T11:39:05Z</time>
      </trkpt>
      <trkpt lat="39.868284" lon="-0.512288">
        <ele>434.8</ele>
        <time>2012-08-20T11:39:13Z</time>
      </trkpt>
      <trkpt lat="39.867937" lon="-0.512303">
        <ele>434.8</ele>
        <time>2012-08-20T11:39:20Z</time>
      </trkpt>
      <trkpt lat="39.867790" lon="-0.512316">
        <ele>434.8</ele>
        <time>2012-08-20T11:39:23Z</time>
      </trkpt>
      <trkpt lat="39.867648" lon="-0.512331">
        <ele>434.8</ele>
        <time>2012-08-20T11:39:26Z</time>
      </trkpt>
      <trkpt lat="39.867275" lon="-0.512325">
        <ele>434.8</ele>
        <time>2012-08-20T11:39:33Z</time>
      </trkpt>
      <trkpt lat="39.866877" lon="-0.512335">
        <ele>434.8</ele>
        <time>2012-08-20T11:39:40Z</time>
      </trkpt>
      <trkpt lat="39.866462" lon="-0.512355">
        <ele>434.4</ele>
        <time>2012-08-20T11:39:47Z</time>
      </trkpt>
      <trkpt lat="39.866398" lon="-0.512358">
        <ele>434.0</ele>
        <time>2012-08-20T11:39:48Z</time>
      </trkpt>
      <trkpt lat="39.866333" lon="-0.512361">
        <ele>433.4</ele>
        <time>2012-08-20T11:39:49Z</time>
      </trkpt>
      <trkpt lat="39.866266" lon="-0.512364">
        <ele>433.0</ele>
        <time>2012-08-20T11:39:50Z</time>
      </trkpt>
      <trkpt lat="39.866194" lon="-0.512368">
        <ele>432.6</ele>
        <time>2012-08-20T11:39:51Z</time>
      </trkpt>
      <trkpt lat="39.865779" lon="-0.512400">
        <ele>432.2</ele>
        <time>2012-08-20T11:39:57Z</time>
      </trkpt>
      <trkpt lat="39.865701" lon="-0.512406">
        <ele>431.8</ele>
        <time>2012-08-20T11:39:58Z</time>
      </trkpt>
      <trkpt lat="39.865624" lon="-0.512417">
        <ele>431.4</ele>
        <time>2012-08-20T11:39:59Z</time>
      </trkpt>
      <trkpt lat="39.865545" lon="-0.512429">
        <ele>431.0</ele>
        <time>2012-08-20T11:40:00Z</time>
      </trkpt>
      <trkpt lat="39.865467" lon="-0.512435">
        <ele>430.6</ele>
        <time>2012-08-20T11:40:01Z</time>
      </trkpt>
      <trkpt lat="39.865226" lon="-0.512463">
        <ele>430.6</ele>
        <time>2012-08-20T11:40:04Z</time>
      </trkpt>
      <trkpt lat="39.864690" lon="-0.512528">
        <ele>430.6</ele>
        <time>2012-08-20T11:40:11Z</time>
      </trkpt>
      <trkpt lat="39.864409" lon="-0.512560">
        <ele>430.6</ele>
        <time>2012-08-20T11:40:15Z</time>
      </trkpt>
      <trkpt lat="39.864144" lon="-0.512584">
        <ele>430.6</ele>
        <time>2012-08-20T11:40:20Z</time>
      </trkpt>
      <trkpt lat="39.864011" lon="-0.512590">
        <ele>430.6</ele>
        <time>2012-08-20T11:40:23Z</time>
      </trkpt>
      <trkpt lat="39.863838" lon="-0.512580">
        <ele>430.6</ele>
        <time>2012-08-20T11:40:27Z</time>
      </trkpt>
      <trkpt lat="39.863708" lon="-0.512571">
        <ele>431.0</ele>
        <time>2012-08-20T11:40:30Z</time>
      </trkpt>
      <trkpt lat="39.863668" lon="-0.512570">
        <ele>431.4</ele>
        <time>2012-08-20T11:40:31Z</time>
      </trkpt>
      <trkpt lat="39.863629" lon="-0.512571">
        <ele>432.0</ele>
        <time>2012-08-20T11:40:32Z</time>
      </trkpt>
      <trkpt lat="39.863591" lon="-0.512567">
        <ele>432.4</ele>
        <time>2012-08-20T11:40:33Z</time>
      </trkpt>
      <trkpt lat="39.863554" lon="-0.512567">
        <ele>432.8</ele>
        <time>2012-08-20T11:40:34Z</time>
      </trkpt>
      <trkpt lat="39.863215" lon="-0.512535">
        <ele>432.8</ele>
        <time>2012-08-20T11:40:43Z</time>
      </trkpt>
      <trkpt lat="39.862959" lon="-0.512509">
        <ele>432.8</ele>
        <time>2012-08-20T11:40:49Z</time>
      </trkpt>
      <trkpt lat="39.862584" lon="-0.512426">
        <ele>432.8</ele>
        <time>2012-08-20T11:40:57Z</time>
      </trkpt>
      <trkpt lat="39.862486" lon="-0.512393">
        <ele>432.8</ele>
        <time>2012-08-20T11:40:59Z</time>
      </trkpt>
      <trkpt lat="39.862382" lon="-0.512365">
        <ele>432.8</ele>
        <time>2012-08-20T11:41:01Z</time>
      </trkpt>
      <trkpt lat="39.862326" lon="-0.512360">
        <ele>432.8</ele>
        <time>2012-08-20T11:41:02Z</time>
      </trkpt>
      <trkpt lat="39.862156" lon="-0.512402">
        <ele>432.8</ele>
        <time>2012-08-20T11:41:05Z</time>
      </trkpt>
      <trkpt lat="39.862101" lon="-0.512422">
        <ele>432.8</ele>
        <time>2012-08-20T11:41:06Z</time>
      </trkpt>
      <trkpt lat="39.861195" lon="-0.512941">
        <ele>432.8</ele>
        <time>2012-08-20T11:41:24Z</time>
      </trkpt>
      <trkpt lat="39.861154" lon="-0.512994">
        <ele>432.8</ele>
        <time>2012-08-20T11:41:25Z</time>
      </trkpt>
      <trkpt lat="39.861093" lon="-0.513099">
        <ele>432.8</ele>
        <time>2012-08-20T11:41:27Z</time>
      </trkpt>
      <trkpt lat="39.861049" lon="-0.513205">
        <ele>432.8</ele>
        <time>2012-08-20T11:41:29Z</time>
      </trkpt>
      <trkpt lat="39.861038" lon="-0.513261">
        <ele>432.8</ele>
        <time>2012-08-20T11:41:30Z</time>
      </trkpt>
      <trkpt lat="39.861020" lon="-0.513309">
        <ele>432.8</ele>
        <time>2012-08-20T11:41:31Z</time>
      </trkpt>
      <trkpt lat="39.860943" lon="-0.513428">
        <ele>432.8</ele>
        <time>2012-08-20T11:41:34Z</time>
      </trkpt>
      <trkpt lat="39.860921" lon="-0.513471">
        <ele>432.8</ele>
        <time>2012-08-20T11:41:35Z</time>
      </trkpt>
      <trkpt lat="39.860899" lon="-0.513506">
        <ele>432.4</ele>
        <time>2012-08-20T11:41:36Z</time>
      </trkpt>
      <trkpt lat="39.860884" lon="-0.513527">
        <ele>432.0</ele>
        <time>2012-08-20T11:41:37Z</time>
      </trkpt>
      <trkpt lat="39.860869" lon="-0.513535">
        <ele>431.6</ele>
        <time>2012-08-20T11:41:38Z</time>
      </trkpt>
      <trkpt lat="39.860863" lon="-0.513539">
        <ele>431.2</ele>
        <time>2012-08-20T11:41:39Z</time>
      </trkpt>
      <trkpt lat="39.860858" lon="-0.513541">
        <ele>430.8</ele>
        <time>2012-08-20T11:41:40Z</time>
      </trkpt>
      <trkpt lat="39.860858" lon="-0.513542">
        <ele>430.8</ele>
        <time>2012-08-20T11:41:42Z</time>
      </trkpt>
      <trkpt lat="39.860843" lon="-0.513618">
        <ele>430.8</ele>
        <time>2012-08-20T11:42:09Z</time>
      </trkpt>
      <trkpt lat="39.860758" lon="-0.513854">
        <ele>430.8</ele>
        <time>2012-08-20T11:42:17Z</time>
      </trkpt>
      <trkpt lat="39.860659" lon="-0.514086">
        <ele>430.8</ele>
        <time>2012-08-20T11:42:24Z</time>
      </trkpt>
      <trkpt lat="39.860547" lon="-0.514338">
        <ele>430.8</ele>
        <time>2012-08-20T11:42:31Z</time>
      </trkpt>
      <trkpt lat="39.860444" lon="-0.514553">
        <ele>430.8</ele>
        <time>2012-08-20T11:42:37Z</time>
      </trkpt>
      <trkpt lat="39.860344" lon="-0.514757">
        <ele>430.8</ele>
        <time>2012-08-20T11:42:43Z</time>
      </trkpt>
      <trkpt lat="39.860203" lon="-0.514994">
        <ele>430.8</ele>
        <time>2012-08-20T11:42:49Z</time>
      </trkpt>
      <trkpt lat="39.860149" lon="-0.515071">
        <ele>430.8</ele>
        <time>2012-08-20T11:42:51Z</time>
      </trkpt>
      <trkpt lat="39.860042" lon="-0.515224">
        <ele>430.8</ele>
        <time>2012-08-20T11:42:55Z</time>
      </trkpt>
      <trkpt lat="39.859872" lon="-0.515425">
        <ele>430.8</ele>
        <time>2012-08-20T11:43:01Z</time>
      </trkpt>
      <trkpt lat="39.859699" lon="-0.515623">
        <ele>430.8</ele>
        <time>2012-08-20T11:43:07Z</time>
      </trkpt>
      <trkpt lat="39.859486" lon="-0.515813">
        <ele>430.8</ele>
        <time>2012-08-20T11:43:13Z</time>
      </trkpt>
      <trkpt lat="39.859447" lon="-0.515846">
        <ele>430.4</ele>
        <time>2012-08-20T11:43:14Z</time>
      </trkpt>
      <trkpt lat="39.859409" lon="-0.515881">
        <ele>430.0</ele>
        <time>2012-08-20T11:43:15Z</time>
      </trkpt>
      <trkpt lat="39.859372" lon="-0.515915">
        <ele>429.4</ele>
        <time>2012-08-20T11:43:16Z</time>
      </trkpt>
      <trkpt lat="39.859330" lon="-0.515947">
        <ele>429.0</ele>
        <time>2012-08-20T11:43:17Z</time>
      </trkpt>
      <trkpt lat="39.859288" lon="-0.515983">
        <ele>428.6</ele>
        <time>2012-08-20T11:43:18Z</time>
      </trkpt>
      <trkpt lat="39.859244" lon="-0.516014">
        <ele>428.6</ele>
        <time>2012-08-20T11:43:19Z</time>
      </trkpt>
      <trkpt lat="39.859196" lon="-0.516041">
        <ele>428.6</ele>
        <time>2012-08-20T11:43:20Z</time>
      </trkpt>
      <trkpt lat="39.858794" lon="-0.516243">
        <ele>428.6</ele>
        <time>2012-08-20T11:43:28Z</time>
      </trkpt>
      <trkpt lat="39.858391" lon="-0.516352">
        <ele>428.6</ele>
        <time>2012-08-20T11:43:35Z</time>
      </trkpt>
      <trkpt lat="39.857975" lon="-0.516419">
        <ele>428.6</ele>
        <time>2012-08-20T11:43:42Z</time>
      </trkpt>
      <trkpt lat="39.857695" lon="-0.516483">
        <ele>428.2</ele>
        <time>2012-08-20T11:43:47Z</time>
      </trkpt>
      <trkpt lat="39.857638" lon="-0.516496">
        <ele>427.8</ele>
        <time>2012-08-20T11:43:48Z</time>
      </trkpt>
      <trkpt lat="39.857579" lon="-0.516507">
        <ele>427.4</ele>
        <time>2012-08-20T11:43:49Z</time>
      </trkpt>
      <trkpt lat="39.857519" lon="-0.516517">
        <ele>427.0</ele>
        <time>2012-08-20T11:43:50Z</time>
      </trkpt>
      <trkpt lat="39.857460" lon="-0.516530">
        <ele>426.6</ele>
        <time>2012-08-20T11:43:51Z</time>
      </trkpt>
      <trkpt lat="39.857099" lon="-0.516582">
        <ele>426.6</ele>
        <time>2012-08-20T11:43:57Z</time>
      </trkpt>
      <trkpt lat="39.856673" lon="-0.516655">
        <ele>426.6</ele>
        <time>2012-08-20T11:44:04Z</time>
      </trkpt>
      <trkpt lat="39.856217" lon="-0.516734">
        <ele>426.6</ele>
        <time>2012-08-20T11:44:12Z</time>
      </trkpt>
      <trkpt lat="39.856051" lon="-0.516766">
        <ele>426.2</ele>
        <time>2012-08-20T11:44:15Z</time>
      </trkpt>
      <trkpt lat="39.855996" lon="-0.516777">
        <ele>425.6</ele>
        <time>2012-08-20T11:44:16Z</time>
      </trkpt>
      <trkpt lat="39.855941" lon="-0.516787">
        <ele>425.2</ele>
        <time>2012-08-20T11:44:17Z</time>
      </trkpt>
      <trkpt lat="39.855886" lon="-0.516797">
        <ele>424.8</ele>
        <time>2012-08-20T11:44:18Z</time>
      </trkpt>
      <trkpt lat="39.855832" lon="-0.516806">
        <ele>424.4</ele>
        <time>2012-08-20T11:44:19Z</time>
      </trkpt>
      <trkpt lat="39.855777" lon="-0.516814">
        <ele>424.4</ele>
        <time>2012-08-20T11:44:20Z</time>
      </trkpt>
      <trkpt lat="39.855462" lon="-0.516883">
        <ele>424.4</ele>
        <time>2012-08-20T11:44:26Z</time>
      </trkpt>
      <trkpt lat="39.855308" lon="-0.516909">
        <ele>424.4</ele>
        <time>2012-08-20T11:44:29Z</time>
      </trkpt>
      <trkpt lat="39.855171" lon="-0.516924">
        <ele>424.4</ele>
        <time>2012-08-20T11:44:32Z</time>
      </trkpt>
      <trkpt lat="39.855075" lon="-0.516942">
        <ele>424.4</ele>
        <time>2012-08-20T11:44:34Z</time>
      </trkpt>
      <trkpt lat="39.854928" lon="-0.516954">
        <ele>424.4</ele>
        <time>2012-08-20T11:44:37Z</time>
      </trkpt>
      <trkpt lat="39.854879" lon="-0.516962">
        <ele>424.0</ele>
        <time>2012-08-20T11:44:38Z</time>
      </trkpt>
      <trkpt lat="39.854827" lon="-0.516964">
        <ele>423.6</ele>
        <time>2012-08-20T11:44:39Z</time>
      </trkpt>
      <trkpt lat="39.854776" lon="-0.516971">
        <ele>423.2</ele>
        <time>2012-08-20T11:44:40Z</time>
      </trkpt>
      <trkpt lat="39.854726" lon="-0.516981">
        <ele>422.6</ele>
        <time>2012-08-20T11:44:41Z</time>
      </trkpt>
      <trkpt lat="39.854677" lon="-0.516989">
        <ele>422.2</ele>
        <time>2012-08-20T11:44:42Z</time>
      </trkpt>
      <trkpt lat="39.854626" lon="-0.516995">
        <ele>422.2</ele>
        <time>2012-08-20T11:44:43Z</time>
      </trkpt>
      <trkpt lat="39.854441" lon="-0.517053">
        <ele>422.2</ele>
        <time>2012-08-20T11:44:47Z</time>
      </trkpt>
      <trkpt lat="39.854402" lon="-0.517070">
        <ele>422.2</ele>
        <time>2012-08-20T11:44:48Z</time>
      </trkpt>
      <trkpt lat="39.854362" lon="-0.517080">
        <ele>422.2</ele>
        <time>2012-08-20T11:44:49Z</time>
      </trkpt>
      <trkpt lat="39.854251" lon="-0.517099">
        <ele>422.2</ele>
        <time>2012-08-20T11:44:53Z</time>
      </trkpt>
      <trkpt lat="39.854188" lon="-0.517112">
        <ele>422.2</ele>
        <time>2012-08-20T11:44:57Z</time>
      </trkpt>
      <trkpt lat="39.854181" lon="-0.517104">
        <ele>422.2</ele>
        <time>2012-08-20T11:44:58Z</time>
      </trkpt>
      <trkpt lat="39.854178" lon="-0.517101">
        <ele>422.2</ele>
        <time>2012-08-20T11:44:59Z</time>
      </trkpt>
      <trkpt lat="39.854141" lon="-0.517113">
        <ele>422.2</ele>
        <time>2012-08-20T11:46:24Z</time>
      </trkpt>
      <trkpt lat="39.854102" lon="-0.517108">
        <ele>422.2</ele>
        <time>2012-08-20T11:46:27Z</time>
      </trkpt>
      <trkpt lat="39.854083" lon="-0.517107">
        <ele>422.2</ele>
        <time>2012-08-20T11:46:30Z</time>
      </trkpt>
      <trkpt lat="39.854039" lon="-0.517115">
        <ele>422.2</ele>
        <time>2012-08-20T11:46:36Z</time>
      </trkpt>
      <trkpt lat="39.854026" lon="-0.517110">
        <ele>422.2</ele>
        <time>2012-08-20T11:46:39Z</time>
      </trkpt>
      <trkpt lat="39.853965" lon="-0.517121">
        <ele>422.2</ele>
        <time>2012-08-20T11:46:43Z</time>
      </trkpt>
      <trkpt lat="39.853911" lon="-0.517130">
        <ele>422.2</ele>
        <time>2012-08-20T11:46:46Z</time>
      </trkpt>
      <trkpt lat="39.853898" lon="-0.517130">
        <ele>422.2</ele>
        <time>2012-08-20T11:46:48Z</time>
      </trkpt>
      <trkpt lat="39.853899" lon="-0.517135">
        <ele>422.2</ele>
        <time>2012-08-20T11:46:51Z</time>
      </trkpt>
      <trkpt lat="39.853870" lon="-0.517143">
        <ele>422.2</ele>
        <time>2012-08-20T11:47:08Z</time>
      </trkpt>
      <trkpt lat="39.853870" lon="-0.517143">
        <ele>422.2</ele>
        <time>2012-08-20T11:47:13Z</time>
      </trkpt>
      <trkpt lat="39.853835" lon="-0.517185">
        <ele>422.2</ele>
        <time>2012-08-20T11:54:22Z</time>
      </trkpt>
      <trkpt lat="39.853815" lon="-0.517190">
        <ele>422.2</ele>
        <time>2012-08-20T11:54:23Z</time>
      </trkpt>
      <trkpt lat="39.853625" lon="-0.517231">
        <ele>422.2</ele>
        <time>2012-08-20T11:54:29Z</time>
      </trkpt>
      <trkpt lat="39.853404" lon="-0.517267">
        <ele>422.2</ele>
        <time>2012-08-20T11:54:36Z</time>
      </trkpt>
      <trkpt lat="39.853228" lon="-0.517315">
        <ele>421.8</ele>
        <time>2012-08-20T11:54:41Z</time>
      </trkpt>
      <trkpt lat="39.853190" lon="-0.517327">
        <ele>421.4</ele>
        <time>2012-08-20T11:54:42Z</time>
      </trkpt>
      <trkpt lat="39.853154" lon="-0.517332">
        <ele>421.0</ele>
        <time>2012-08-20T11:54:43Z</time>
      </trkpt>
      <trkpt lat="39.853116" lon="-0.517336">
        <ele>420.6</ele>
        <time>2012-08-20T11:54:44Z</time>
      </trkpt>
      <trkpt lat="39.853079" lon="-0.517345">
        <ele>420.2</ele>
        <time>2012-08-20T11:54:45Z</time>
      </trkpt>
      <trkpt lat="39.852896" lon="-0.517369">
        <ele>420.2</ele>
        <time>2012-08-20T11:54:49Z</time>
      </trkpt>
      <trkpt lat="39.852813" lon="-0.517384">
        <ele>420.2</ele>
        <time>2012-08-20T11:54:51Z</time>
      </trkpt>
      <trkpt lat="39.852695" lon="-0.517387">
        <ele>420.2</ele>
        <time>2012-08-20T11:54:54Z</time>
      </trkpt>
      <trkpt lat="39.852376" lon="-0.517440">
        <ele>420.2</ele>
        <time>2012-08-20T11:55:01Z</time>
      </trkpt>
      <trkpt lat="39.852333" lon="-0.517461">
        <ele>420.2</ele>
        <time>2012-08-20T11:55:02Z</time>
      </trkpt>
      <trkpt lat="39.852251" lon="-0.517487">
        <ele>420.2</ele>
        <time>2012-08-20T11:55:04Z</time>
      </trkpt>
      <trkpt lat="39.852185" lon="-0.517506">
        <ele>420.2</ele>
        <time>2012-08-20T11:55:06Z</time>
      </trkpt>
      <trkpt lat="39.852094" lon="-0.517503">
        <ele>419.8</ele>
        <time>2012-08-20T11:55:10Z</time>
      </trkpt>
      <trkpt lat="39.852071" lon="-0.517504">
        <ele>419.4</ele>
        <time>2012-08-20T11:55:11Z</time>
      </trkpt>
      <trkpt lat="39.852041" lon="-0.517508">
        <ele>419.0</ele>
        <time>2012-08-20T11:55:12Z</time>
      </trkpt>
      <trkpt lat="39.852012" lon="-0.517511">
        <ele>418.6</ele>
        <time>2012-08-20T11:55:13Z</time>
      </trkpt>
      <trkpt lat="39.851976" lon="-0.517512">
        <ele>418.2</ele>
        <time>2012-08-20T11:55:14Z</time>
      </trkpt>
      <trkpt lat="39.851857" lon="-0.517533">
        <ele>418.2</ele>
        <time>2012-08-20T11:55:17Z</time>
      </trkpt>
      <trkpt lat="39.851484" lon="-0.517585">
        <ele>418.2</ele>
        <time>2012-08-20T11:55:25Z</time>
      </trkpt>
      <trkpt lat="39.851194" lon="-0.517628">
        <ele>418.2</ele>
        <time>2012-08-20T11:55:31Z</time>
      </trkpt>
      <trkpt lat="39.850998" lon="-0.517655">
        <ele>417.8</ele>
        <time>2012-08-20T11:55:35Z</time>
      </trkpt>
      <trkpt lat="39.850943" lon="-0.517659">
        <ele>417.4</ele>
        <time>2012-08-20T11:55:36Z</time>
      </trkpt>
      <trkpt lat="39.850891" lon="-0.517648">
        <ele>417.0</ele>
        <time>2012-08-20T11:55:37Z</time>
      </trkpt>
      <trkpt lat="39.850841" lon="-0.517645">
        <ele>416.6</ele>
        <time>2012-08-20T11:55:38Z</time>
      </trkpt>
      <trkpt lat="39.850791" lon="-0.517640">
        <ele>416.2</ele>
        <time>2012-08-20T11:55:39Z</time>
      </trkpt>
      <trkpt lat="39.850588" lon="-0.517630">
        <ele>416.2</ele>
        <time>2012-08-20T11:55:43Z</time>
      </trkpt>
      <trkpt lat="39.850491" lon="-0.517628">
        <ele>416.2</ele>
        <time>2012-08-20T11:55:45Z</time>
      </trkpt>
      <trkpt lat="39.850442" lon="-0.517618">
        <ele>416.2</ele>
        <time>2012-08-20T11:55:46Z</time>
      </trkpt>
      <trkpt lat="39.850278" lon="-0.517581">
        <ele>416.2</ele>
        <time>2012-08-20T11:55:50Z</time>
      </trkpt>
      <trkpt lat="39.850236" lon="-0.517567">
        <ele>416.2</ele>
        <time>2012-08-20T11:55:51Z</time>
      </trkpt>
      <trkpt lat="39.850084" lon="-0.517531">
        <ele>416.2</ele>
        <time>2012-08-20T11:55:55Z</time>
      </trkpt>
      <trkpt lat="39.850037" lon="-0.517524">
        <ele>416.2</ele>
        <time>2012-08-20T11:55:56Z</time>
      </trkpt>
      <trkpt lat="39.849892" lon="-0.517454">
        <ele>415.2</ele>
        <time>2012-08-20T11:55:59Z</time>
      </trkpt>
      <trkpt lat="39.849850" lon="-0.517428">
        <ele>414.8</ele>
        <time>2012-08-20T11:56:00Z</time>
      </trkpt>
      <trkpt lat="39.849806" lon="-0.517404">
        <ele>414.4</ele>
        <time>2012-08-20T11:56:01Z</time>
      </trkpt>
      <trkpt lat="39.849760" lon="-0.517379">
        <ele>414.0</ele>
        <time>2012-08-20T11:56:02Z</time>
      </trkpt>
      <trkpt lat="39.849448" lon="-0.517166">
        <ele>414.0</ele>
        <time>2012-08-20T11:56:09Z</time>
      </trkpt>
      <trkpt lat="39.849112" lon="-0.516913">
        <ele>414.0</ele>
        <time>2012-08-20T11:56:16Z</time>
      </trkpt>
      <trkpt lat="39.848808" lon="-0.516709">
        <ele>414.0</ele>
        <time>2012-08-20T11:56:22Z</time>
      </trkpt>
      <trkpt lat="39.848756" lon="-0.516662">
        <ele>414.0</ele>
        <time>2012-08-20T11:56:23Z</time>
      </trkpt>
      <trkpt lat="39.848664" lon="-0.516490">
        <ele>414.0</ele>
        <time>2012-08-20T11:56:27Z</time>
      </trkpt>
      <trkpt lat="39.848605" lon="-0.516454">
        <ele>414.0</ele>
        <time>2012-08-20T11:56:30Z</time>
      </trkpt>
      <trkpt lat="39.848445" lon="-0.516355">
        <ele>414.0</ele>
        <time>2012-08-20T11:56:37Z</time>
      </trkpt>
      <trkpt lat="39.848315" lon="-0.516235">
        <ele>414.0</ele>
        <time>2012-08-20T11:56:44Z</time>
      </trkpt>
      <trkpt lat="39.848306" lon="-0.516226">
        <ele>414.0</ele>
        <time>2012-08-20T11:56:46Z</time>
      </trkpt>
      <trkpt lat="39.848307" lon="-0.516225">
        <ele>414.0</ele>
        <time>2012-08-20T11:56:48Z</time>
      </trkpt>
      <trkpt lat="39.848307" lon="-0.516226">
        <ele>414.0</ele>
        <time>2012-08-20T11:56:49Z</time>
      </trkpt>
      <trkpt lat="39.848253" lon="-0.516239">
        <ele>414.8</ele>
        <time>2012-08-20T11:56:57Z</time>
      </trkpt>
      <trkpt lat="39.848243" lon="-0.516241">
        <ele>415.2</ele>
        <time>2012-08-20T11:56:58Z</time>
      </trkpt>
      <trkpt lat="39.848237" lon="-0.516243">
        <ele>415.6</ele>
        <time>2012-08-20T11:56:59Z</time>
      </trkpt>
      <trkpt lat="39.848233" lon="-0.516248">
        <ele>416.0</ele>
        <time>2012-08-20T11:57:00Z</time>
      </trkpt>
      <trkpt lat="39.848229" lon="-0.516255">
        <ele>416.0</ele>
        <time>2012-08-20T11:57:05Z</time>
      </trkpt>
      <trkpt lat="39.848190" lon="-0.516305">
        <ele>416.0</ele>
        <time>2012-08-20T11:57:11Z</time>
      </trkpt>
      <trkpt lat="39.848137" lon="-0.516405">
        <ele>416.0</ele>
        <time>2012-08-20T11:57:16Z</time>
      </trkpt>
      <trkpt lat="39.848105" lon="-0.516510">
        <ele>416.4</ele>
        <time>2012-08-20T11:57:20Z</time>
      </trkpt>
      <trkpt lat="39.848094" lon="-0.516536">
        <ele>416.8</ele>
        <time>2012-08-20T11:57:21Z</time>
      </trkpt>
      <trkpt lat="39.848083" lon="-0.516564">
        <ele>417.2</ele>
        <time>2012-08-20T11:57:22Z</time>
      </trkpt>
      <trkpt lat="39.848073" lon="-0.516594">
        <ele>417.6</ele>
        <time>2012-08-20T11:57:23Z</time>
      </trkpt>
      <trkpt lat="39.848070" lon="-0.516628">
        <ele>418.0</ele>
        <time>2012-08-20T11:57:24Z</time>
      </trkpt>
      <trkpt lat="39.848068" lon="-0.516693">
        <ele>418.0</ele>
        <time>2012-08-20T11:57:26Z</time>
      </trkpt>
      <trkpt lat="39.848076" lon="-0.516721">
        <ele>418.0</ele>
        <time>2012-08-20T11:57:27Z</time>
      </trkpt>
      <trkpt lat="39.848149" lon="-0.516911">
        <ele>418.0</ele>
        <time>2012-08-20T11:57:33Z</time>
      </trkpt>
      <trkpt lat="39.848155" lon="-0.517123">
        <ele>418.4</ele>
        <time>2012-08-20T11:57:39Z</time>
      </trkpt>
      <trkpt lat="39.848146" lon="-0.517160">
        <ele>418.8</ele>
        <time>2012-08-20T11:57:40Z</time>
      </trkpt>
      <trkpt lat="39.848135" lon="-0.517191">
        <ele>419.2</ele>
        <time>2012-08-20T11:57:41Z</time>
      </trkpt>
      <trkpt lat="39.848121" lon="-0.517220">
        <ele>419.6</ele>
        <time>2012-08-20T11:57:42Z</time>
      </trkpt>
      <trkpt lat="39.848104" lon="-0.517244">
        <ele>420.0</ele>
        <time>2012-08-20T11:57:43Z</time>
      </trkpt>
      <trkpt lat="39.848082" lon="-0.517261">
        <ele>420.0</ele>
        <time>2012-08-20T11:57:44Z</time>
      </trkpt>
      <trkpt lat="39.847940" lon="-0.517330">
        <ele>420.0</ele>
        <time>2012-08-20T11:57:50Z</time>
      </trkpt>
      <trkpt lat="39.847809" lon="-0.517319">
        <ele>420.0</ele>
        <time>2012-08-20T11:57:56Z</time>
      </trkpt>
      <trkpt lat="39.847702" lon="-0.517231">
        <ele>420.0</ele>
        <time>2012-08-20T11:58:02Z</time>
      </trkpt>
      <trkpt lat="39.847621" lon="-0.517149">
        <ele>420.0</ele>
        <time>2012-08-20T11:58:07Z</time>
      </trkpt>
      <trkpt lat="39.847618" lon="-0.517144">
        <ele>420.0</ele>
        <time>2012-08-20T11:58:11Z</time>
      </trkpt>
      <trkpt lat="39.847625" lon="-0.517091">
        <ele>420.0</ele>
        <time>2012-08-20T11:58:17Z</time>
      </trkpt>
      <trkpt lat="39.847625" lon="-0.517090">
        <ele>420.0</ele>
        <time>2012-08-20T11:58:19Z</time>
      </trkpt>
      <trkpt lat="39.847572" lon="-0.517054">
        <ele>420.0</ele>
        <time>2012-08-20T11:58:52Z</time>
      </trkpt>
      <trkpt lat="39.847502" lon="-0.517039">
        <ele>420.0</ele>
        <time>2012-08-20T11:58:54Z</time>
      </trkpt>
      <trkpt lat="39.847231" lon="-0.516989">
        <ele>420.0</ele>
        <time>2012-08-20T11:59:02Z</time>
      </trkpt>
      <trkpt lat="39.846957" lon="-0.516956">
        <ele>420.0</ele>
        <time>2012-08-20T11:59:09Z</time>
      </trkpt>
      <trkpt lat="39.846590" lon="-0.516915">
        <ele>420.0</ele>
        <time>2012-08-20T11:59:17Z</time>
      </trkpt>
      <trkpt lat="39.846477" lon="-0.516901">
        <ele>419.6</ele>
        <time>2012-08-20T11:59:19Z</time>
      </trkpt>
      <trkpt lat="39.846420" lon="-0.516896">
        <ele>419.2</ele>
        <time>2012-08-20T11:59:20Z</time>
      </trkpt>
      <trkpt lat="39.846366" lon="-0.516891">
        <ele>418.8</ele>
        <time>2012-08-20T11:59:21Z</time>
      </trkpt>
      <trkpt lat="39.846310" lon="-0.516886">
        <ele>418.4</ele>
        <time>2012-08-20T11:59:22Z</time>
      </trkpt>
      <trkpt lat="39.846255" lon="-0.516880">
        <ele>417.8</ele>
        <time>2012-08-20T11:59:23Z</time>
      </trkpt>
      <trkpt lat="39.846069" lon="-0.516862">
        <ele>417.4</ele>
        <time>2012-08-20T11:59:26Z</time>
      </trkpt>
      <trkpt lat="39.846005" lon="-0.516862">
        <ele>417.0</ele>
        <time>2012-08-20T11:59:27Z</time>
      </trkpt>
      <trkpt lat="39.845943" lon="-0.516861">
        <ele>416.6</ele>
        <time>2012-08-20T11:59:28Z</time>
      </trkpt>
      <trkpt lat="39.845880" lon="-0.516857">
        <ele>416.2</ele>
        <time>2012-08-20T11:59:29Z</time>
      </trkpt>
      <trkpt lat="39.845814" lon="-0.516858">
        <ele>415.8</ele>
        <time>2012-08-20T11:59:30Z</time>
      </trkpt>
      <trkpt lat="39.845753" lon="-0.516858">
        <ele>415.4</ele>
        <time>2012-08-20T11:59:31Z</time>
      </trkpt>
      <trkpt lat="39.845693" lon="-0.516867">
        <ele>415.0</ele>
        <time>2012-08-20T11:59:32Z</time>
      </trkpt>
      <trkpt lat="39.845632" lon="-0.516878">
        <ele>414.4</ele>
        <time>2012-08-20T11:59:33Z</time>
      </trkpt>
      <trkpt lat="39.845574" lon="-0.516896">
        <ele>414.0</ele>
        <time>2012-08-20T11:59:34Z</time>
      </trkpt>
      <trkpt lat="39.845524" lon="-0.516916">
        <ele>413.6</ele>
        <time>2012-08-20T11:59:35Z</time>
      </trkpt>
      <trkpt lat="39.845455" lon="-0.516947">
        <ele>413.2</ele>
        <time>2012-08-20T11:59:37Z</time>
      </trkpt>
      <trkpt lat="39.845423" lon="-0.516951">
        <ele>412.8</ele>
        <time>2012-08-20T11:59:38Z</time>
      </trkpt>
      <trkpt lat="39.845393" lon="-0.516938">
        <ele>412.2</ele>
        <time>2012-08-20T11:59:39Z</time>
      </trkpt>
      <trkpt lat="39.845372" lon="-0.516918">
        <ele>411.8</ele>
        <time>2012-08-20T11:59:40Z</time>
      </trkpt>
      <trkpt lat="39.845359" lon="-0.516890">
        <ele>411.4</ele>
        <time>2012-08-20T11:59:41Z</time>
      </trkpt>
      <trkpt lat="39.845363" lon="-0.516794">
        <ele>411.4</ele>
        <time>2012-08-20T11:59:44Z</time>
      </trkpt>
      <trkpt lat="39.845373" lon="-0.516777">
        <ele>411.4</ele>
        <time>2012-08-20T11:59:45Z</time>
      </trkpt>
      <trkpt lat="39.845382" lon="-0.516722">
        <ele>411.0</ele>
        <time>2012-08-20T11:59:47Z</time>
      </trkpt>
      <trkpt lat="39.845384" lon="-0.516694">
        <ele>410.6</ele>
        <time>2012-08-20T11:59:48Z</time>
      </trkpt>
      <trkpt lat="39.845383" lon="-0.516667">
        <ele>410.2</ele>
        <time>2012-08-20T11:59:49Z</time>
      </trkpt>
      <trkpt lat="39.845376" lon="-0.516645">
        <ele>409.8</ele>
        <time>2012-08-20T11:59:50Z</time>
      </trkpt>
      <trkpt lat="39.845369" lon="-0.516631">
        <ele>409.4</ele>
        <time>2012-08-20T11:59:51Z</time>
      </trkpt>
      <trkpt lat="39.845347" lon="-0.516616">
        <ele>409.4</ele>
        <time>2012-08-20T11:59:53Z</time>
      </trkpt>
      <trkpt lat="39.845296" lon="-0.516645">
        <ele>409.4</ele>
        <time>2012-08-20T11:59:56Z</time>
      </trkpt>
      <trkpt lat="39.845150" lon="-0.516783">
        <ele>409.4</ele>
        <time>2012-08-20T12:00:02Z</time>
      </trkpt>
      <trkpt lat="39.844910" lon="-0.516943">
        <ele>409.4</ele>
        <time>2012-08-20T12:00:09Z</time>
      </trkpt>
      <trkpt lat="39.844724" lon="-0.517066">
        <ele>408.8</ele>
        <time>2012-08-20T12:00:14Z</time>
      </trkpt>
      <trkpt lat="39.844682" lon="-0.517090">
        <ele>408.4</ele>
        <time>2012-08-20T12:00:15Z</time>
      </trkpt>
      <trkpt lat="39.844640" lon="-0.517119">
        <ele>408.0</ele>
        <time>2012-08-20T12:00:16Z</time>
      </trkpt>
      <trkpt lat="39.844595" lon="-0.517149">
        <ele>407.6</ele>
        <time>2012-08-20T12:00:17Z</time>
      </trkpt>
      <trkpt lat="39.844553" lon="-0.517182">
        <ele>407.2</ele>
        <time>2012-08-20T12:00:18Z</time>
      </trkpt>
      <trkpt lat="39.844378" lon="-0.517297">
        <ele>407.2</ele>
        <time>2012-08-20T12:00:22Z</time>
      </trkpt>
      <trkpt lat="39.844016" lon="-0.517542">
        <ele>407.2</ele>
        <time>2012-08-20T12:00:30Z</time>
      </trkpt>
      <trkpt lat="39.843641" lon="-0.517797">
        <ele>407.2</ele>
        <time>2012-08-20T12:00:39Z</time>
      </trkpt>
      <trkpt lat="39.843400" lon="-0.517954">
        <ele>407.2</ele>
        <time>2012-08-20T12:00:45Z</time>
      </trkpt>
      <trkpt lat="39.843328" lon="-0.517999">
        <ele>407.2</ele>
        <time>2012-08-20T12:00:47Z</time>
      </trkpt>
      <trkpt lat="39.843191" lon="-0.518089">
        <ele>407.2</ele>
        <time>2012-08-20T12:00:51Z</time>
      </trkpt>
      <trkpt lat="39.842979" lon="-0.518229">
        <ele>407.2</ele>
        <time>2012-08-20T12:00:58Z</time>
      </trkpt>
      <trkpt lat="39.842773" lon="-0.518342">
        <ele>407.6</ele>
        <time>2012-08-20T12:01:04Z</time>
      </trkpt>
      <trkpt lat="39.842737" lon="-0.518358">
        <ele>408.2</ele>
        <time>2012-08-20T12:01:05Z</time>
      </trkpt>
      <trkpt lat="39.842702" lon="-0.518377">
        <ele>408.6</ele>
        <time>2012-08-20T12:01:06Z</time>
      </trkpt>
      <trkpt lat="39.842666" lon="-0.518388">
        <ele>409.0</ele>
        <time>2012-08-20T12:01:07Z</time>
      </trkpt>
      <trkpt lat="39.842634" lon="-0.518401">
        <ele>409.4</ele>
        <time>2012-08-20T12:01:08Z</time>
      </trkpt>
      <trkpt lat="39.842541" lon="-0.518437">
        <ele>409.4</ele>
        <time>2012-08-20T12:01:11Z</time>
      </trkpt>
      <trkpt lat="39.842329" lon="-0.518488">
        <ele>409.4</ele>
        <time>2012-08-20T12:01:18Z</time>
      </trkpt>
      <trkpt lat="39.842241" lon="-0.518514">
        <ele>410.2</ele>
        <time>2012-08-20T12:01:21Z</time>
      </trkpt>
      <trkpt lat="39.842209" lon="-0.518521">
        <ele>410.6</ele>
        <time>2012-08-20T12:01:22Z</time>
      </trkpt>
      <trkpt lat="39.842183" lon="-0.518530">
        <ele>411.0</ele>
        <time>2012-08-20T12:01:23Z</time>
      </trkpt>
      <trkpt lat="39.842158" lon="-0.518539">
        <ele>411.4</ele>
        <time>2012-08-20T12:01:24Z</time>
      </trkpt>
      <trkpt lat="39.842127" lon="-0.518561">
        <ele>411.4</ele>
        <time>2012-08-20T12:01:26Z</time>
      </trkpt>
      <trkpt lat="39.841993" lon="-0.518543">
        <ele>411.4</ele>
        <time>2012-08-20T12:01:31Z</time>
      </trkpt>
      <trkpt lat="39.841779" lon="-0.518516">
        <ele>411.4</ele>
        <time>2012-08-20T12:01:37Z</time>
      </trkpt>
      <trkpt lat="39.841730" lon="-0.518512">
        <ele>411.4</ele>
        <time>2012-08-20T12:01:38Z</time>
      </trkpt>
      <trkpt lat="39.841564" lon="-0.518488">
        <ele>411.4</ele>
        <time>2012-08-20T12:01:41Z</time>
      </trkpt>
      <trkpt lat="39.841493" lon="-0.518473">
        <ele>411.0</ele>
        <time>2012-08-20T12:01:42Z</time>
      </trkpt>
      <trkpt lat="39.841417" lon="-0.518457">
        <ele>410.6</ele>
        <time>2012-08-20T12:01:43Z</time>
      </trkpt>
      <trkpt lat="39.841340" lon="-0.518445">
        <ele>410.2</ele>
        <time>2012-08-20T12:01:44Z</time>
      </trkpt>
      <trkpt lat="39.841259" lon="-0.518431">
        <ele>409.4</ele>
        <time>2012-08-20T12:01:45Z</time>
      </trkpt>
      <trkpt lat="39.841175" lon="-0.518419">
        <ele>409.0</ele>
        <time>2012-08-20T12:01:46Z</time>
      </trkpt>
      <trkpt lat="39.841090" lon="-0.518406">
        <ele>408.4</ele>
        <time>2012-08-20T12:01:47Z</time>
      </trkpt>
      <trkpt lat="39.841003" lon="-0.518394">
        <ele>408.0</ele>
        <time>2012-08-20T12:01:48Z</time>
      </trkpt>
      <trkpt lat="39.840919" lon="-0.518379">
        <ele>407.4</ele>
        <time>2012-08-20T12:01:49Z</time>
      </trkpt>
      <trkpt lat="39.840829" lon="-0.518363">
        <ele>407.0</ele>
        <time>2012-08-20T12:01:50Z</time>
      </trkpt>
      <trkpt lat="39.840744" lon="-0.518351">
        <ele>406.4</ele>
        <time>2012-08-20T12:01:51Z</time>
      </trkpt>
      <trkpt lat="39.840661" lon="-0.518336">
        <ele>406.0</ele>
        <time>2012-08-20T12:01:52Z</time>
      </trkpt>
      <trkpt lat="39.840575" lon="-0.518320">
        <ele>405.4</ele>
        <time>2012-08-20T12:01:53Z</time>
      </trkpt>
      <trkpt lat="39.840488" lon="-0.518303">
        <ele>405.0</ele>
        <time>2012-08-20T12:01:54Z</time>
      </trkpt>
      <trkpt lat="39.840220" lon="-0.518226">
        <ele>404.4</ele>
        <time>2012-08-20T12:01:57Z</time>
      </trkpt>
      <trkpt lat="39.840130" lon="-0.518200">
        <ele>404.0</ele>
        <time>2012-08-20T12:01:58Z</time>
      </trkpt>
      <trkpt lat="39.840039" lon="-0.518180">
        <ele>403.6</ele>
        <time>2012-08-20T12:01:59Z</time>
      </trkpt>
      <trkpt lat="39.839947" lon="-0.518156">
        <ele>403.2</ele>
        <time>2012-08-20T12:02:00Z</time>
      </trkpt>
      <trkpt lat="39.839857" lon="-0.518134">
        <ele>402.8</ele>
        <time>2012-08-20T12:02:01Z</time>
      </trkpt>
      <trkpt lat="39.839769" lon="-0.518112">
        <ele>402.4</ele>
        <time>2012-08-20T12:02:02Z</time>
      </trkpt>
      <trkpt lat="39.839685" lon="-0.518096">
        <ele>402.0</ele>
        <time>2012-08-20T12:02:03Z</time>
      </trkpt>
      <trkpt lat="39.839609" lon="-0.518080">
        <ele>401.6</ele>
        <time>2012-08-20T12:02:04Z</time>
      </trkpt>
      <trkpt lat="39.839531" lon="-0.518060">
        <ele>401.2</ele>
        <time>2012-08-20T12:02:05Z</time>
      </trkpt>
      <trkpt lat="39.839454" lon="-0.518038">
        <ele>400.8</ele>
        <time>2012-08-20T12:02:06Z</time>
      </trkpt>
      <trkpt lat="39.839157" lon="-0.517932">
        <ele>400.8</ele>
        <time>2012-08-20T12:02:10Z</time>
      </trkpt>
      <trkpt lat="39.839086" lon="-0.517910">
        <ele>400.2</ele>
        <time>2012-08-20T12:02:11Z</time>
      </trkpt>
      <trkpt lat="39.839009" lon="-0.517882">
        <ele>399.8</ele>
        <time>2012-08-20T12:02:12Z</time>
      </trkpt>
      <trkpt lat="39.838936" lon="-0.517858">
        <ele>399.4</ele>
        <time>2012-08-20T12:02:13Z</time>
      </trkpt>
      <trkpt lat="39.838865" lon="-0.517832">
        <ele>399.0</ele>
        <time>2012-08-20T12:02:14Z</time>
      </trkpt>
      <trkpt lat="39.838793" lon="-0.517807">
        <ele>398.4</ele>
        <time>2012-08-20T12:02:15Z</time>
      </trkpt>
      <trkpt lat="39.838586" lon="-0.517737">
        <ele>398.4</ele>
        <time>2012-08-20T12:02:18Z</time>
      </trkpt>
      <trkpt lat="39.838066" lon="-0.517531">
        <ele>398.4</ele>
        <time>2012-08-20T12:02:26Z</time>
      </trkpt>
      <trkpt lat="39.837996" lon="-0.517500">
        <ele>398.4</ele>
        <time>2012-08-20T12:02:27Z</time>
      </trkpt>
      <trkpt lat="39.837862" lon="-0.517437">
        <ele>398.0</ele>
        <time>2012-08-20T12:02:29Z</time>
      </trkpt>
      <trkpt lat="39.837797" lon="-0.517403">
        <ele>397.6</ele>
        <time>2012-08-20T12:02:30Z</time>
      </trkpt>
      <trkpt lat="39.837733" lon="-0.517376">
        <ele>397.2</ele>
        <time>2012-08-20T12:02:31Z</time>
      </trkpt>
      <trkpt lat="39.837670" lon="-0.517348">
        <ele>396.8</ele>
        <time>2012-08-20T12:02:32Z</time>
      </trkpt>
      <trkpt lat="39.837607" lon="-0.517322">
        <ele>396.4</ele>
        <time>2012-08-20T12:02:33Z</time>
      </trkpt>
      <trkpt lat="39.837484" lon="-0.517265">
        <ele>396.4</ele>
        <time>2012-08-20T12:02:35Z</time>
      </trkpt>
      <trkpt lat="39.837011" lon="-0.517028">
        <ele>396.4</ele>
        <time>2012-08-20T12:02:43Z</time>
      </trkpt>
      <trkpt lat="39.836703" lon="-0.516883">
        <ele>396.0</ele>
        <time>2012-08-20T12:02:48Z</time>
      </trkpt>
      <trkpt lat="39.836640" lon="-0.516855">
        <ele>395.6</ele>
        <time>2012-08-20T12:02:49Z</time>
      </trkpt>
      <trkpt lat="39.836577" lon="-0.516821">
        <ele>395.2</ele>
        <time>2012-08-20T12:02:50Z</time>
      </trkpt>
      <trkpt lat="39.836518" lon="-0.516791">
        <ele>394.6</ele>
        <time>2012-08-20T12:02:51Z</time>
      </trkpt>
      <trkpt lat="39.836453" lon="-0.516760">
        <ele>394.2</ele>
        <time>2012-08-20T12:02:52Z</time>
      </trkpt>
      <trkpt lat="39.836074" lon="-0.516548">
        <ele>394.2</ele>
        <time>2012-08-20T12:02:58Z</time>
      </trkpt>
      <trkpt lat="39.835682" lon="-0.516217">
        <ele>394.2</ele>
        <time>2012-08-20T12:03:05Z</time>
      </trkpt>
      <trkpt lat="39.835531" lon="-0.516031">
        <ele>393.8</ele>
        <time>2012-08-20T12:03:08Z</time>
      </trkpt>
      <trkpt lat="39.835486" lon="-0.515964">
        <ele>393.2</ele>
        <time>2012-08-20T12:03:09Z</time>
      </trkpt>
      <trkpt lat="39.835444" lon="-0.515900">
        <ele>392.8</ele>
        <time>2012-08-20T12:03:10Z</time>
      </trkpt>
      <trkpt lat="39.835403" lon="-0.515835">
        <ele>392.4</ele>
        <time>2012-08-20T12:03:11Z</time>
      </trkpt>
      <trkpt lat="39.835364" lon="-0.515764">
        <ele>391.8</ele>
        <time>2012-08-20T12:03:12Z</time>
      </trkpt>
      <trkpt lat="39.835194" lon="-0.515382">
        <ele>391.8</ele>
        <time>2012-08-20T12:03:17Z</time>
      </trkpt>
      <trkpt lat="39.835061" lon="-0.514895">
        <ele>391.4</ele>
        <time>2012-08-20T12:03:23Z</time>
      </trkpt>
      <trkpt lat="39.835048" lon="-0.514816">
        <ele>390.6</ele>
        <time>2012-08-20T12:03:24Z</time>
      </trkpt>
      <trkpt lat="39.835037" lon="-0.514738">
        <ele>390.2</ele>
        <time>2012-08-20T12:03:25Z</time>
      </trkpt>
      <trkpt lat="39.835026" lon="-0.514661">
        <ele>389.8</ele>
        <time>2012-08-20T12:03:26Z</time>
      </trkpt>
      <trkpt lat="39.835016" lon="-0.514343">
        <ele>389.8</ele>
        <time>2012-08-20T12:03:30Z</time>
      </trkpt>
      <trkpt lat="39.835065" lon="-0.513924">
        <ele>389.8</ele>
        <time>2012-08-20T12:03:35Z</time>
      </trkpt>
      <trkpt lat="39.835079" lon="-0.513839">
        <ele>389.8</ele>
        <time>2012-08-20T12:03:36Z</time>
      </trkpt>
      <trkpt lat="39.835156" lon="-0.513578">
        <ele>389.4</ele>
        <time>2012-08-20T12:03:39Z</time>
      </trkpt>
      <trkpt lat="39.835178" lon="-0.513494">
        <ele>389.0</ele>
        <time>2012-08-20T12:03:40Z</time>
      </trkpt>
      <trkpt lat="39.835201" lon="-0.513406">
        <ele>388.6</ele>
        <time>2012-08-20T12:03:41Z</time>
      </trkpt>
      <trkpt lat="39.835227" lon="-0.513317">
        <ele>388.2</ele>
        <time>2012-08-20T12:03:42Z</time>
      </trkpt>
      <trkpt lat="39.835247" lon="-0.513228">
        <ele>387.8</ele>
        <time>2012-08-20T12:03:43Z</time>
      </trkpt>
      <trkpt lat="39.835371" lon="-0.512679">
        <ele>387.8</ele>
        <time>2012-08-20T12:03:49Z</time>
      </trkpt>
      <trkpt lat="39.835530" lon="-0.512147">
        <ele>387.8</ele>
        <time>2012-08-20T12:03:55Z</time>
      </trkpt>
      <trkpt lat="39.835774" lon="-0.511562">
        <ele>387.8</ele>
        <time>2012-08-20T12:04:02Z</time>
      </trkpt>
      <trkpt lat="39.835857" lon="-0.511405">
        <ele>387.4</ele>
        <time>2012-08-20T12:04:04Z</time>
      </trkpt>
      <trkpt lat="39.835891" lon="-0.511322">
        <ele>387.0</ele>
        <time>2012-08-20T12:04:05Z</time>
      </trkpt>
      <trkpt lat="39.835925" lon="-0.511240">
        <ele>386.6</ele>
        <time>2012-08-20T12:04:06Z</time>
      </trkpt>
      <trkpt lat="39.835960" lon="-0.511160">
        <ele>386.2</ele>
        <time>2012-08-20T12:04:07Z</time>
      </trkpt>
      <trkpt lat="39.835996" lon="-0.511081">
        <ele>385.8</ele>
        <time>2012-08-20T12:04:08Z</time>
      </trkpt>
      <trkpt lat="39.836276" lon="-0.510470">
        <ele>385.8</ele>
        <time>2012-08-20T12:04:16Z</time>
      </trkpt>
      <trkpt lat="39.836302" lon="-0.510397">
        <ele>385.8</ele>
        <time>2012-08-20T12:04:17Z</time>
      </trkpt>
      <trkpt lat="39.836415" lon="-0.510126">
        <ele>385.8</ele>
        <time>2012-08-20T12:04:21Z</time>
      </trkpt>
      <trkpt lat="39.836646" lon="-0.509595">
        <ele>385.8</ele>
        <time>2012-08-20T12:04:29Z</time>
      </trkpt>
      <trkpt lat="39.836697" lon="-0.509458">
        <ele>385.8</ele>
        <time>2012-08-20T12:04:31Z</time>
      </trkpt>
      <trkpt lat="39.836807" lon="-0.509215">
        <ele>385.8</ele>
        <time>2012-08-20T12:04:35Z</time>
      </trkpt>
      <trkpt lat="39.836974" lon="-0.508844">
        <ele>385.8</ele>
        <time>2012-08-20T12:04:41Z</time>
      </trkpt>
      <trkpt lat="39.837091" lon="-0.508518">
        <ele>385.8</ele>
        <time>2012-08-20T12:04:46Z</time>
      </trkpt>
      <trkpt lat="39.837133" lon="-0.508388">
        <ele>385.8</ele>
        <time>2012-08-20T12:04:48Z</time>
      </trkpt>
      <trkpt lat="39.837240" lon="-0.507928">
        <ele>385.8</ele>
        <time>2012-08-20T12:04:55Z</time>
      </trkpt>
      <trkpt lat="39.837320" lon="-0.507484">
        <ele>385.8</ele>
        <time>2012-08-20T12:05:02Z</time>
      </trkpt>
      <trkpt lat="39.837362" lon="-0.507040">
        <ele>385.8</ele>
        <time>2012-08-20T12:05:09Z</time>
      </trkpt>
      <trkpt lat="39.837365" lon="-0.506970">
        <ele>385.4</ele>
        <time>2012-08-20T12:05:10Z</time>
      </trkpt>
      <trkpt lat="39.837369" lon="-0.506905">
        <ele>384.8</ele>
        <time>2012-08-20T12:05:11Z</time>
      </trkpt>
      <trkpt lat="39.837371" lon="-0.506837">
        <ele>384.4</ele>
        <time>2012-08-20T12:05:12Z</time>
      </trkpt>
      <trkpt lat="39.837372" lon="-0.506766">
        <ele>384.0</ele>
        <time>2012-08-20T12:05:13Z</time>
      </trkpt>
      <trkpt lat="39.837373" lon="-0.506694">
        <ele>383.6</ele>
        <time>2012-08-20T12:05:14Z</time>
      </trkpt>
      <trkpt lat="39.837367" lon="-0.506472">
        <ele>383.6</ele>
        <time>2012-08-20T12:05:17Z</time>
      </trkpt>
      <trkpt lat="39.837305" lon="-0.505786">
        <ele>383.6</ele>
        <time>2012-08-20T12:05:26Z</time>
      </trkpt>
      <trkpt lat="39.837281" lon="-0.505641">
        <ele>382.8</ele>
        <time>2012-08-20T12:05:28Z</time>
      </trkpt>
      <trkpt lat="39.837268" lon="-0.505571">
        <ele>382.4</ele>
        <time>2012-08-20T12:05:29Z</time>
      </trkpt>
      <trkpt lat="39.837255" lon="-0.505494">
        <ele>382.0</ele>
        <time>2012-08-20T12:05:30Z</time>
      </trkpt>
      <trkpt lat="39.837235" lon="-0.505423">
        <ele>381.6</ele>
        <time>2012-08-20T12:05:31Z</time>
      </trkpt>
      <trkpt lat="39.837197" lon="-0.505279">
        <ele>381.6</ele>
        <time>2012-08-20T12:05:33Z</time>
      </trkpt>
      <trkpt lat="39.837058" lon="-0.504805">
        <ele>381.6</ele>
        <time>2012-08-20T12:05:40Z</time>
      </trkpt>
      <trkpt lat="39.837001" lon="-0.504619">
        <ele>381.6</ele>
        <time>2012-08-20T12:05:43Z</time>
      </trkpt>
      <trkpt lat="39.836955" lon="-0.504513">
        <ele>381.6</ele>
        <time>2012-08-20T12:05:45Z</time>
      </trkpt>
      <trkpt lat="39.836880" lon="-0.504353">
        <ele>381.0</ele>
        <time>2012-08-20T12:05:48Z</time>
      </trkpt>
      <trkpt lat="39.836855" lon="-0.504295">
        <ele>380.6</ele>
        <time>2012-08-20T12:05:49Z</time>
      </trkpt>
      <trkpt lat="39.836830" lon="-0.504242">
        <ele>380.2</ele>
        <time>2012-08-20T12:05:50Z</time>
      </trkpt>
      <trkpt lat="39.836807" lon="-0.504191">
        <ele>379.8</ele>
        <time>2012-08-20T12:05:51Z</time>
      </trkpt>
      <trkpt lat="39.836787" lon="-0.504136">
        <ele>379.4</ele>
        <time>2012-08-20T12:05:52Z</time>
      </trkpt>
      <trkpt lat="39.836766" lon="-0.504080">
        <ele>379.4</ele>
        <time>2012-08-20T12:05:53Z</time>
      </trkpt>
      <trkpt lat="39.836592" lon="-0.503701">
        <ele>379.4</ele>
        <time>2012-08-20T12:05:59Z</time>
      </trkpt>
      <trkpt lat="39.836348" lon="-0.503157">
        <ele>379.4</ele>
        <time>2012-08-20T12:06:07Z</time>
      </trkpt>
      <trkpt lat="39.836188" lon="-0.502805">
        <ele>379.4</ele>
        <time>2012-08-20T12:06:12Z</time>
      </trkpt>
      <trkpt lat="39.836154" lon="-0.502739">
        <ele>379.0</ele>
        <time>2012-08-20T12:06:13Z</time>
      </trkpt>
      <trkpt lat="39.836122" lon="-0.502666">
        <ele>378.6</ele>
        <time>2012-08-20T12:06:14Z</time>
      </trkpt>
      <trkpt lat="39.836090" lon="-0.502594">
        <ele>378.2</ele>
        <time>2012-08-20T12:06:15Z</time>
      </trkpt>
      <trkpt lat="39.836060" lon="-0.502520">
        <ele>377.8</ele>
        <time>2012-08-20T12:06:16Z</time>
      </trkpt>
      <trkpt lat="39.836030" lon="-0.502448">
        <ele>377.4</ele>
        <time>2012-08-20T12:06:17Z</time>
      </trkpt>
      <trkpt lat="39.835823" lon="-0.502015">
        <ele>377.4</ele>
        <time>2012-08-20T12:06:23Z</time>
      </trkpt>
      <trkpt lat="39.835620" lon="-0.501571">
        <ele>377.0</ele>
        <time>2012-08-20T12:06:29Z</time>
      </trkpt>
      <trkpt lat="39.835585" lon="-0.501492">
        <ele>376.6</ele>
        <time>2012-08-20T12:06:30Z</time>
      </trkpt>
      <trkpt lat="39.835549" lon="-0.501413">
        <ele>376.2</ele>
        <time>2012-08-20T12:06:31Z</time>
      </trkpt>
      <trkpt lat="39.835515" lon="-0.501338">
        <ele>375.8</ele>
        <time>2012-08-20T12:06:32Z</time>
      </trkpt>
      <trkpt lat="39.835476" lon="-0.501266">
        <ele>375.4</ele>
        <time>2012-08-20T12:06:33Z</time>
      </trkpt>
      <trkpt lat="39.835209" lon="-0.500696">
        <ele>375.4</ele>
        <time>2012-08-20T12:06:41Z</time>
      </trkpt>
      <trkpt lat="39.835142" lon="-0.500555">
        <ele>375.4</ele>
        <time>2012-08-20T12:06:43Z</time>
      </trkpt>
      <trkpt lat="39.835081" lon="-0.500415">
        <ele>374.8</ele>
        <time>2012-08-20T12:06:45Z</time>
      </trkpt>
      <trkpt lat="39.835048" lon="-0.500345">
        <ele>374.4</ele>
        <time>2012-08-20T12:06:46Z</time>
      </trkpt>
      <trkpt lat="39.835018" lon="-0.500275">
        <ele>374.0</ele>
        <time>2012-08-20T12:06:47Z</time>
      </trkpt>
      <trkpt lat="39.834987" lon="-0.500207">
        <ele>373.6</ele>
        <time>2012-08-20T12:06:48Z</time>
      </trkpt>
      <trkpt lat="39.834955" lon="-0.500136">
        <ele>373.2</ele>
        <time>2012-08-20T12:06:49Z</time>
      </trkpt>
      <trkpt lat="39.834724" lon="-0.499615">
        <ele>373.2</ele>
        <time>2012-08-20T12:06:56Z</time>
      </trkpt>
      <trkpt lat="39.834444" lon="-0.498983">
        <ele>373.2</ele>
        <time>2012-08-20T12:07:04Z</time>
      </trkpt>
      <trkpt lat="39.834401" lon="-0.498901">
        <ele>372.4</ele>
        <time>2012-08-20T12:07:05Z</time>
      </trkpt>
      <trkpt lat="39.834365" lon="-0.498823">
        <ele>372.0</ele>
        <time>2012-08-20T12:07:06Z</time>
      </trkpt>
      <trkpt lat="39.834325" lon="-0.498746">
        <ele>371.6</ele>
        <time>2012-08-20T12:07:07Z</time>
      </trkpt>
      <trkpt lat="39.834289" lon="-0.498670">
        <ele>371.0</ele>
        <time>2012-08-20T12:07:08Z</time>
      </trkpt>
      <trkpt lat="39.834151" lon="-0.498368">
        <ele>371.0</ele>
        <time>2012-08-20T12:07:12Z</time>
      </trkpt>
      <trkpt lat="39.834054" lon="-0.498127">
        <ele>370.6</ele>
        <time>2012-08-20T12:07:15Z</time>
      </trkpt>
      <trkpt lat="39.834020" lon="-0.498048">
        <ele>370.2</ele>
        <time>2012-08-20T12:07:16Z</time>
      </trkpt>
      <trkpt lat="39.833989" lon="-0.497971">
        <ele>369.8</ele>
        <time>2012-08-20T12:07:17Z</time>
      </trkpt>
      <trkpt lat="39.833956" lon="-0.497893">
        <ele>369.4</ele>
        <time>2012-08-20T12:07:18Z</time>
      </trkpt>
      <trkpt lat="39.833924" lon="-0.497813">
        <ele>369.0</ele>
        <time>2012-08-20T12:07:19Z</time>
      </trkpt>
      <trkpt lat="39.833671" lon="-0.497149">
        <ele>369.0</ele>
        <time>2012-08-20T12:07:27Z</time>
      </trkpt>
      <trkpt lat="39.833461" lon="-0.496599">
        <ele>369.0</ele>
        <time>2012-08-20T12:07:34Z</time>
      </trkpt>
      <trkpt lat="39.833429" lon="-0.496523">
        <ele>368.6</ele>
        <time>2012-08-20T12:07:35Z</time>
      </trkpt>
      <trkpt lat="39.833396" lon="-0.496446">
        <ele>368.2</ele>
        <time>2012-08-20T12:07:36Z</time>
      </trkpt>
      <trkpt lat="39.833368" lon="-0.496373">
        <ele>367.8</ele>
        <time>2012-08-20T12:07:37Z</time>
      </trkpt>
      <trkpt lat="39.833340" lon="-0.496300">
        <ele>367.4</ele>
        <time>2012-08-20T12:07:38Z</time>
      </trkpt>
      <trkpt lat="39.833310" lon="-0.496224">
        <ele>367.0</ele>
        <time>2012-08-20T12:07:39Z</time>
      </trkpt>
      <trkpt lat="39.833254" lon="-0.496082">
        <ele>367.0</ele>
        <time>2012-08-20T12:07:41Z</time>
      </trkpt>
      <trkpt lat="39.833058" lon="-0.495589">
        <ele>367.0</ele>
        <time>2012-08-20T12:07:48Z</time>
      </trkpt>
      <trkpt lat="39.832936" lon="-0.495303">
        <ele>366.4</ele>
        <time>2012-08-20T12:07:52Z</time>
      </trkpt>
      <trkpt lat="39.832905" lon="-0.495226">
        <ele>366.0</ele>
        <time>2012-08-20T12:07:53Z</time>
      </trkpt>
      <trkpt lat="39.832875" lon="-0.495158">
        <ele>365.6</ele>
        <time>2012-08-20T12:07:54Z</time>
      </trkpt>
      <trkpt lat="39.832842" lon="-0.495087">
        <ele>364.6</ele>
        <time>2012-08-20T12:07:55Z</time>
      </trkpt>
      <trkpt lat="39.832806" lon="-0.495017">
        <ele>364.6</ele>
        <time>2012-08-20T12:07:56Z</time>
      </trkpt>
      <trkpt lat="39.832678" lon="-0.494772">
        <ele>364.6</ele>
        <time>2012-08-20T12:08:00Z</time>
      </trkpt>
      <trkpt lat="39.832628" lon="-0.494720">
        <ele>364.6</ele>
        <time>2012-08-20T12:08:02Z</time>
      </trkpt>
      <trkpt lat="39.832611" lon="-0.494685">
        <ele>364.6</ele>
        <time>2012-08-20T12:08:04Z</time>
      </trkpt>
      <trkpt lat="39.832600" lon="-0.494650">
        <ele>364.6</ele>
        <time>2012-08-20T12:08:06Z</time>
      </trkpt>
      <trkpt lat="39.832515" lon="-0.494521">
        <ele>364.6</ele>
        <time>2012-08-20T12:08:11Z</time>
      </trkpt>
      <trkpt lat="39.832405" lon="-0.494367">
        <ele>364.6</ele>
        <time>2012-08-20T12:08:15Z</time>
      </trkpt>
      <trkpt lat="39.832373" lon="-0.494323">
        <ele>364.6</ele>
        <time>2012-08-20T12:08:16Z</time>
      </trkpt>
      <trkpt lat="39.832279" lon="-0.494194">
        <ele>363.8</ele>
        <time>2012-08-20T12:08:19Z</time>
      </trkpt>
      <trkpt lat="39.832247" lon="-0.494151">
        <ele>363.4</ele>
        <time>2012-08-20T12:08:20Z</time>
      </trkpt>
      <trkpt lat="39.832219" lon="-0.494112">
        <ele>362.8</ele>
        <time>2012-08-20T12:08:21Z</time>
      </trkpt>
      <trkpt lat="39.832206" lon="-0.494103">
        <ele>362.4</ele>
        <time>2012-08-20T12:08:22Z</time>
      </trkpt>
      <trkpt lat="39.832197" lon="-0.494091">
        <ele>362.4</ele>
        <time>2012-08-20T12:08:24Z</time>
      </trkpt>
      <trkpt lat="39.832153" lon="-0.494052">
        <ele>362.4</ele>
        <time>2012-08-20T12:10:19Z</time>
      </trkpt>
      <trkpt lat="39.832106" lon="-0.493998">
        <ele>362.4</ele>
        <time>2012-08-20T12:10:21Z</time>
      </trkpt>
      <trkpt lat="39.831941" lon="-0.493781">
        <ele>362.4</ele>
        <time>2012-08-20T12:10:27Z</time>
      </trkpt>
      <trkpt lat="39.831746" lon="-0.493535">
        <ele>362.0</ele>
        <time>2012-08-20T12:10:33Z</time>
      </trkpt>
      <trkpt lat="39.831710" lon="-0.493489">
        <ele>361.6</ele>
        <time>2012-08-20T12:10:34Z</time>
      </trkpt>
      <trkpt lat="39.831673" lon="-0.493443">
        <ele>361.2</ele>
        <time>2012-08-20T12:10:35Z</time>
      </trkpt>
      <trkpt lat="39.831638" lon="-0.493399">
        <ele>360.4</ele>
        <time>2012-08-20T12:10:36Z</time>
      </trkpt>
      <trkpt lat="39.831597" lon="-0.493351">
        <ele>359.8</ele>
        <time>2012-08-20T12:10:37Z</time>
      </trkpt>
      <trkpt lat="39.831564" lon="-0.493311">
        <ele>359.2</ele>
        <time>2012-08-20T12:10:38Z</time>
      </trkpt>
      <trkpt lat="39.831527" lon="-0.493268">
        <ele>359.6</ele>
        <time>2012-08-20T12:10:39Z</time>
      </trkpt>
      <trkpt lat="39.831490" lon="-0.493228">
        <ele>360.2</ele>
        <time>2012-08-20T12:10:40Z</time>
      </trkpt>
      <trkpt lat="39.831454" lon="-0.493185">
        <ele>360.6</ele>
        <time>2012-08-20T12:10:41Z</time>
      </trkpt>
      <trkpt lat="39.831411" lon="-0.493141">
        <ele>360.4</ele>
        <time>2012-08-20T12:10:42Z</time>
      </trkpt>
      <trkpt lat="39.831377" lon="-0.493099">
        <ele>360.2</ele>
        <time>2012-08-20T12:10:43Z</time>
      </trkpt>
      <trkpt lat="39.831345" lon="-0.493054">
        <ele>360.0</ele>
        <time>2012-08-20T12:10:44Z</time>
      </trkpt>
      <trkpt lat="39.831309" lon="-0.493006">
        <ele>359.8</ele>
        <time>2012-08-20T12:10:45Z</time>
      </trkpt>
      <trkpt lat="39.831276" lon="-0.492964">
        <ele>359.6</ele>
        <time>2012-08-20T12:10:46Z</time>
      </trkpt>
      <trkpt lat="39.830985" lon="-0.492565">
        <ele>359.6</ele>
        <time>2012-08-20T12:10:54Z</time>
      </trkpt>
      <trkpt lat="39.830755" lon="-0.492137">
        <ele>359.6</ele>
        <time>2012-08-20T12:11:01Z</time>
      </trkpt>
      <trkpt lat="39.830727" lon="-0.492073">
        <ele>359.2</ele>
        <time>2012-08-20T12:11:02Z</time>
      </trkpt>
      <trkpt lat="39.830702" lon="-0.492008">
        <ele>358.6</ele>
        <time>2012-08-20T12:11:03Z</time>
      </trkpt>
      <trkpt lat="39.830680" lon="-0.491946">
        <ele>358.2</ele>
        <time>2012-08-20T12:11:04Z</time>
      </trkpt>
      <trkpt lat="39.830659" lon="-0.491879">
        <ele>357.8</ele>
        <time>2012-08-20T12:11:05Z</time>
      </trkpt>
      <trkpt lat="39.830638" lon="-0.491809">
        <ele>357.4</ele>
        <time>2012-08-20T12:11:06Z</time>
      </trkpt>
      <trkpt lat="39.830602" lon="-0.491671">
        <ele>357.4</ele>
        <time>2012-08-20T12:11:08Z</time>
      </trkpt>
      <trkpt lat="39.830494" lon="-0.491144">
        <ele>357.4</ele>
        <time>2012-08-20T12:11:16Z</time>
      </trkpt>
      <trkpt lat="39.830440" lon="-0.490704">
        <ele>357.4</ele>
        <time>2012-08-20T12:11:23Z</time>
      </trkpt>
      <trkpt lat="39.830373" lon="-0.490228">
        <ele>357.4</ele>
        <time>2012-08-20T12:11:30Z</time>
      </trkpt>
      <trkpt lat="39.830346" lon="-0.490091">
        <ele>357.4</ele>
        <time>2012-08-20T12:11:32Z</time>
      </trkpt>
      <trkpt lat="39.830312" lon="-0.489880">
        <ele>357.4</ele>
        <time>2012-08-20T12:11:35Z</time>
      </trkpt>
      <trkpt lat="39.830278" lon="-0.489745">
        <ele>356.8</ele>
        <time>2012-08-20T12:11:37Z</time>
      </trkpt>
      <trkpt lat="39.830262" lon="-0.489670">
        <ele>356.4</ele>
        <time>2012-08-20T12:11:38Z</time>
      </trkpt>
      <trkpt lat="39.830246" lon="-0.489596">
        <ele>356.0</ele>
        <time>2012-08-20T12:11:39Z</time>
      </trkpt>
      <trkpt lat="39.830238" lon="-0.489516">
        <ele>355.6</ele>
        <time>2012-08-20T12:11:40Z</time>
      </trkpt>
      <trkpt lat="39.830229" lon="-0.489443">
        <ele>355.2</ele>
        <time>2012-08-20T12:11:41Z</time>
      </trkpt>
      <trkpt lat="39.830207" lon="-0.489296">
        <ele>355.2</ele>
        <time>2012-08-20T12:11:43Z</time>
      </trkpt>
      <trkpt lat="39.830090" lon="-0.488718">
        <ele>355.2</ele>
        <time>2012-08-20T12:11:51Z</time>
      </trkpt>
      <trkpt lat="39.830004" lon="-0.488139">
        <ele>355.2</ele>
        <time>2012-08-20T12:11:59Z</time>
      </trkpt>
      <trkpt lat="39.829957" lon="-0.487692">
        <ele>354.8</ele>
        <time>2012-08-20T12:12:05Z</time>
      </trkpt>
      <trkpt lat="39.829948" lon="-0.487622">
        <ele>354.4</ele>
        <time>2012-08-20T12:12:06Z</time>
      </trkpt>
      <trkpt lat="39.829943" lon="-0.487550">
        <ele>353.8</ele>
        <time>2012-08-20T12:12:07Z</time>
      </trkpt>
      <trkpt lat="39.829940" lon="-0.487477">
        <ele>353.4</ele>
        <time>2012-08-20T12:12:08Z</time>
      </trkpt>
      <trkpt lat="39.829938" lon="-0.487408">
        <ele>353.0</ele>
        <time>2012-08-20T12:12:09Z</time>
      </trkpt>
      <trkpt lat="39.829959" lon="-0.486954">
        <ele>353.0</ele>
        <time>2012-08-20T12:12:15Z</time>
      </trkpt>
      <trkpt lat="39.830080" lon="-0.486369">
        <ele>353.0</ele>
        <time>2012-08-20T12:12:23Z</time>
      </trkpt>
    </trkseg>
  </trk>
  <trk>
    <name>T3303249-17</name>
    <cmt>La ruta empieza en Ojos Negros. Hasta Santa Eulalia va por una carretera comarcal apenas transitada. Hay un tramo de unos 40 km durante el puerto del Escandón que no aparece reflejado en el track porque me quedé sin batería en el GPS pero la vía verde no tiene pérdida en esa zona</cmt>
    <desc>La ruta empieza en Ojos Negros. Hasta Santa Eulalia va por una carretera comarcal apenas transitada. Hay un tramo de unos 40 km durante el puerto del Escandón que no aparece reflejado en el track porque me quedé sin batería en el GPS pero la vía verde no tiene pérdida en esa zona</desc>
    <trkseg>
      <trkpt lat="39.830230" lon="-0.485732">
        <ele>353.0</ele>
        <time>2012-08-20T12:12:32Z</time>
      </trkpt>
      <trkpt lat="39.830289" lon="-0.485454">
        <ele>352.6</ele>
        <time>2012-08-20T12:12:36Z</time>
      </trkpt>
      <trkpt lat="39.830301" lon="-0.485382">
        <ele>352.2</ele>
        <time>2012-08-20T12:12:37Z</time>
      </trkpt>
      <trkpt lat="39.830315" lon="-0.485313">
        <ele>351.8</ele>
        <time>2012-08-20T12:12:38Z</time>
      </trkpt>
      <trkpt lat="39.830330" lon="-0.485245">
        <ele>351.4</ele>
        <time>2012-08-20T12:12:39Z</time>
      </trkpt>
      <trkpt lat="39.830343" lon="-0.485178">
        <ele>351.0</ele>
        <time>2012-08-20T12:12:40Z</time>
      </trkpt>
      <trkpt lat="39.830455" lon="-0.484631">
        <ele>351.0</ele>
        <time>2012-08-20T12:12:48Z</time>
      </trkpt>
      <trkpt lat="39.830553" lon="-0.484173">
        <ele>351.0</ele>
        <time>2012-08-20T12:12:55Z</time>
      </trkpt>
      <trkpt lat="39.830657" lon="-0.483695">
        <ele>351.0</ele>
        <time>2012-08-20T12:13:02Z</time>
      </trkpt>
      <trkpt lat="39.830709" lon="-0.483492">
        <ele>350.6</ele>
        <time>2012-08-20T12:13:05Z</time>
      </trkpt>
      <trkpt lat="39.830727" lon="-0.483425">
        <ele>350.2</ele>
        <time>2012-08-20T12:13:06Z</time>
      </trkpt>
      <trkpt lat="39.830745" lon="-0.483355">
        <ele>349.8</ele>
        <time>2012-08-20T12:13:07Z</time>
      </trkpt>
      <trkpt lat="39.830761" lon="-0.483284">
        <ele>349.4</ele>
        <time>2012-08-20T12:13:08Z</time>
      </trkpt>
      <trkpt lat="39.830777" lon="-0.483213">
        <ele>349.0</ele>
        <time>2012-08-20T12:13:09Z</time>
      </trkpt>
      <trkpt lat="39.830792" lon="-0.483143">
        <ele>349.0</ele>
        <time>2012-08-20T12:13:10Z</time>
      </trkpt>
      <trkpt lat="39.830935" lon="-0.482496">
        <ele>349.0</ele>
        <time>2012-08-20T12:13:19Z</time>
      </trkpt>
      <trkpt lat="39.831054" lon="-0.482002">
        <ele>348.6</ele>
        <time>2012-08-20T12:13:26Z</time>
      </trkpt>
      <trkpt lat="39.831069" lon="-0.481928">
        <ele>348.2</ele>
        <time>2012-08-20T12:13:27Z</time>
      </trkpt>
      <trkpt lat="39.831085" lon="-0.481855">
        <ele>347.8</ele>
        <time>2012-08-20T12:13:28Z</time>
      </trkpt>
      <trkpt lat="39.831100" lon="-0.481782">
        <ele>347.4</ele>
        <time>2012-08-20T12:13:29Z</time>
      </trkpt>
      <trkpt lat="39.831115" lon="-0.481709">
        <ele>347.0</ele>
        <time>2012-08-20T12:13:30Z</time>
      </trkpt>
      <trkpt lat="39.831219" lon="-0.481216">
        <ele>347.0</ele>
        <time>2012-08-20T12:13:37Z</time>
      </trkpt>
      <trkpt lat="39.831319" lon="-0.480656">
        <ele>347.0</ele>
        <time>2012-08-20T12:13:45Z</time>
      </trkpt>
      <trkpt lat="39.831346" lon="-0.480128">
        <ele>346.6</ele>
        <time>2012-08-20T12:13:52Z</time>
      </trkpt>
      <trkpt lat="39.831346" lon="-0.480050">
        <ele>346.2</ele>
        <time>2012-08-20T12:13:53Z</time>
      </trkpt>
      <trkpt lat="39.831347" lon="-0.479975">
        <ele>345.6</ele>
        <time>2012-08-20T12:13:54Z</time>
      </trkpt>
      <trkpt lat="39.831349" lon="-0.479899">
        <ele>345.2</ele>
        <time>2012-08-20T12:13:55Z</time>
      </trkpt>
      <trkpt lat="39.831350" lon="-0.479823">
        <ele>344.8</ele>
        <time>2012-08-20T12:13:56Z</time>
      </trkpt>
      <trkpt lat="39.831338" lon="-0.479355">
        <ele>344.8</ele>
        <time>2012-08-20T12:14:02Z</time>
      </trkpt>
      <trkpt lat="39.831317" lon="-0.478646">
        <ele>344.8</ele>
        <time>2012-08-20T12:14:11Z</time>
      </trkpt>
      <trkpt lat="39.831314" lon="-0.478567">
        <ele>344.4</ele>
        <time>2012-08-20T12:14:12Z</time>
      </trkpt>
      <trkpt lat="39.831311" lon="-0.478486">
        <ele>344.0</ele>
        <time>2012-08-20T12:14:13Z</time>
      </trkpt>
      <trkpt lat="39.831310" lon="-0.478409">
        <ele>343.6</ele>
        <time>2012-08-20T12:14:14Z</time>
      </trkpt>
      <trkpt lat="39.831308" lon="-0.478333">
        <ele>343.0</ele>
        <time>2012-08-20T12:14:15Z</time>
      </trkpt>
      <trkpt lat="39.831306" lon="-0.478256">
        <ele>342.6</ele>
        <time>2012-08-20T12:14:16Z</time>
      </trkpt>
      <trkpt lat="39.831301" lon="-0.477952">
        <ele>342.6</ele>
        <time>2012-08-20T12:14:20Z</time>
      </trkpt>
      <trkpt lat="39.831288" lon="-0.477457">
        <ele>342.2</ele>
        <time>2012-08-20T12:14:27Z</time>
      </trkpt>
      <trkpt lat="39.831289" lon="-0.477394">
        <ele>341.8</ele>
        <time>2012-08-20T12:14:28Z</time>
      </trkpt>
      <trkpt lat="39.831290" lon="-0.477331">
        <ele>341.4</ele>
        <time>2012-08-20T12:14:29Z</time>
      </trkpt>
      <trkpt lat="39.831289" lon="-0.477263">
        <ele>341.0</ele>
        <time>2012-08-20T12:14:30Z</time>
      </trkpt>
      <trkpt lat="39.831284" lon="-0.477193">
        <ele>340.6</ele>
        <time>2012-08-20T12:14:31Z</time>
      </trkpt>
      <trkpt lat="39.831270" lon="-0.477049">
        <ele>340.6</ele>
        <time>2012-08-20T12:14:33Z</time>
      </trkpt>
      <trkpt lat="39.831182" lon="-0.476463">
        <ele>340.6</ele>
        <time>2012-08-20T12:14:41Z</time>
      </trkpt>
      <trkpt lat="39.831057" lon="-0.476040">
        <ele>340.2</ele>
        <time>2012-08-20T12:14:47Z</time>
      </trkpt>
      <trkpt lat="39.831032" lon="-0.475970">
        <ele>339.6</ele>
        <time>2012-08-20T12:14:48Z</time>
      </trkpt>
      <trkpt lat="39.831008" lon="-0.475901">
        <ele>339.2</ele>
        <time>2012-08-20T12:14:49Z</time>
      </trkpt>
      <trkpt lat="39.830985" lon="-0.475832">
        <ele>338.8</ele>
        <time>2012-08-20T12:14:50Z</time>
      </trkpt>
      <trkpt lat="39.830960" lon="-0.475763">
        <ele>338.4</ele>
        <time>2012-08-20T12:14:51Z</time>
      </trkpt>
      <trkpt lat="39.830843" lon="-0.475428">
        <ele>338.4</ele>
        <time>2012-08-20T12:14:56Z</time>
      </trkpt>
      <trkpt lat="39.830644" lon="-0.474807">
        <ele>338.0</ele>
        <time>2012-08-20T12:15:05Z</time>
      </trkpt>
      <trkpt lat="39.830621" lon="-0.474737">
        <ele>337.4</ele>
        <time>2012-08-20T12:15:06Z</time>
      </trkpt>
      <trkpt lat="39.830596" lon="-0.474667">
        <ele>337.0</ele>
        <time>2012-08-20T12:15:07Z</time>
      </trkpt>
      <trkpt lat="39.830572" lon="-0.474596">
        <ele>336.6</ele>
        <time>2012-08-20T12:15:08Z</time>
      </trkpt>
      <trkpt lat="39.830547" lon="-0.474522">
        <ele>336.2</ele>
        <time>2012-08-20T12:15:09Z</time>
      </trkpt>
      <trkpt lat="39.830476" lon="-0.474308">
        <ele>336.2</ele>
        <time>2012-08-20T12:15:12Z</time>
      </trkpt>
      <trkpt lat="39.830399" lon="-0.474087">
        <ele>336.2</ele>
        <time>2012-08-20T12:15:16Z</time>
      </trkpt>
      <trkpt lat="39.830386" lon="-0.474034">
        <ele>335.8</ele>
        <time>2012-08-20T12:15:18Z</time>
      </trkpt>
      <trkpt lat="39.830377" lon="-0.474008">
        <ele>335.4</ele>
        <time>2012-08-20T12:15:19Z</time>
      </trkpt>
      <trkpt lat="39.830365" lon="-0.473981">
        <ele>334.8</ele>
        <time>2012-08-20T12:15:20Z</time>
      </trkpt>
      <trkpt lat="39.830341" lon="-0.473962">
        <ele>334.0</ele>
        <time>2012-08-20T12:15:21Z</time>
      </trkpt>
      <trkpt lat="39.830261" lon="-0.473831">
        <ele>334.0</ele>
        <time>2012-08-20T12:15:25Z</time>
      </trkpt>
      <trkpt lat="39.830241" lon="-0.473681">
        <ele>334.0</ele>
        <time>2012-08-20T12:15:29Z</time>
      </trkpt>
      <trkpt lat="39.830235" lon="-0.473642">
        <ele>334.0</ele>
        <time>2012-08-20T12:15:30Z</time>
      </trkpt>
      <trkpt lat="39.830143" lon="-0.473318">
        <ele>334.0</ele>
        <time>2012-08-20T12:15:37Z</time>
      </trkpt>
      <trkpt lat="39.830031" lon="-0.472983">
        <ele>334.0</ele>
        <time>2012-08-20T12:15:43Z</time>
      </trkpt>
      <trkpt lat="39.829870" lon="-0.472489">
        <ele>334.0</ele>
        <time>2012-08-20T12:15:51Z</time>
      </trkpt>
      <trkpt lat="39.829763" lon="-0.472157">
        <ele>333.6</ele>
        <time>2012-08-20T12:15:56Z</time>
      </trkpt>
      <trkpt lat="39.829741" lon="-0.472089">
        <ele>333.2</ele>
        <time>2012-08-20T12:15:57Z</time>
      </trkpt>
      <trkpt lat="39.829719" lon="-0.472021">
        <ele>332.8</ele>
        <time>2012-08-20T12:15:58Z</time>
      </trkpt>
      <trkpt lat="39.829695" lon="-0.471952">
        <ele>332.2</ele>
        <time>2012-08-20T12:15:59Z</time>
      </trkpt>
      <trkpt lat="39.829671" lon="-0.471883">
        <ele>331.8</ele>
        <time>2012-08-20T12:16:00Z</time>
      </trkpt>
      <trkpt lat="39.829531" lon="-0.471456">
        <ele>331.8</ele>
        <time>2012-08-20T12:16:06Z</time>
      </trkpt>
      <trkpt lat="39.829362" lon="-0.470894">
        <ele>331.8</ele>
        <time>2012-08-20T12:16:14Z</time>
      </trkpt>
      <trkpt lat="39.829224" lon="-0.470402">
        <ele>331.8</ele>
        <time>2012-08-20T12:16:21Z</time>
      </trkpt>
      <trkpt lat="39.828996" lon="-0.469950">
        <ele>331.8</ele>
        <time>2012-08-20T12:16:28Z</time>
      </trkpt>
      <trkpt lat="39.828764" lon="-0.469618">
        <ele>331.8</ele>
        <time>2012-08-20T12:16:34Z</time>
      </trkpt>
      <trkpt lat="39.828512" lon="-0.469307">
        <ele>331.8</ele>
        <time>2012-08-20T12:16:40Z</time>
      </trkpt>
      <trkpt lat="39.828140" lon="-0.468919">
        <ele>331.8</ele>
        <time>2012-08-20T12:16:48Z</time>
      </trkpt>
      <trkpt lat="39.828051" lon="-0.468821">
        <ele>331.8</ele>
        <time>2012-08-20T12:16:50Z</time>
      </trkpt>
      <trkpt lat="39.827893" lon="-0.468614">
        <ele>331.8</ele>
        <time>2012-08-20T12:16:54Z</time>
      </trkpt>
      <trkpt lat="39.827586" lon="-0.468259">
        <ele>331.8</ele>
        <time>2012-08-20T12:17:01Z</time>
      </trkpt>
      <trkpt lat="39.827543" lon="-0.468206">
        <ele>331.8</ele>
        <time>2012-08-20T12:17:02Z</time>
      </trkpt>
      <trkpt lat="39.827337" lon="-0.467932">
        <ele>331.8</ele>
        <time>2012-08-20T12:17:07Z</time>
      </trkpt>
      <trkpt lat="39.826996" lon="-0.467528">
        <ele>331.8</ele>
        <time>2012-08-20T12:17:15Z</time>
      </trkpt>
      <trkpt lat="39.826923" lon="-0.467428">
        <ele>331.8</ele>
        <time>2012-08-20T12:17:17Z</time>
      </trkpt>
      <trkpt lat="39.826797" lon="-0.467211">
        <ele>331.8</ele>
        <time>2012-08-20T12:17:21Z</time>
      </trkpt>
      <trkpt lat="39.826648" lon="-0.466855">
        <ele>331.8</ele>
        <time>2012-08-20T12:17:27Z</time>
      </trkpt>
      <trkpt lat="39.826544" lon="-0.466456">
        <ele>331.8</ele>
        <time>2012-08-20T12:17:34Z</time>
      </trkpt>
      <trkpt lat="39.826532" lon="-0.466404">
        <ele>331.8</ele>
        <time>2012-08-20T12:17:35Z</time>
      </trkpt>
      <trkpt lat="39.826521" lon="-0.466211">
        <ele>331.8</ele>
        <time>2012-08-20T12:17:39Z</time>
      </trkpt>
      <trkpt lat="39.826525" lon="-0.466143">
        <ele>331.8</ele>
        <time>2012-08-20T12:17:43Z</time>
      </trkpt>
      <trkpt lat="39.826525" lon="-0.466143">
        <ele>331.8</ele>
        <time>2012-08-20T12:17:44Z</time>
      </trkpt>
      <trkpt lat="39.826523" lon="-0.466087">
        <ele>331.8</ele>
        <time>2012-08-20T12:21:18Z</time>
      </trkpt>
      <trkpt lat="39.826516" lon="-0.466017">
        <ele>331.8</ele>
        <time>2012-08-20T12:21:20Z</time>
      </trkpt>
      <trkpt lat="39.826514" lon="-0.465942">
        <ele>331.8</ele>
        <time>2012-08-20T12:21:22Z</time>
      </trkpt>
      <trkpt lat="39.826509" lon="-0.465773">
        <ele>331.8</ele>
        <time>2012-08-20T12:21:26Z</time>
      </trkpt>
      <trkpt lat="39.826496" lon="-0.465431">
        <ele>331.8</ele>
        <time>2012-08-20T12:21:33Z</time>
      </trkpt>
      <trkpt lat="39.826482" lon="-0.465009">
        <ele>331.8</ele>
        <time>2012-08-20T12:21:41Z</time>
      </trkpt>
      <trkpt lat="39.826468" lon="-0.464585">
        <ele>331.8</ele>
        <time>2012-08-20T12:21:49Z</time>
      </trkpt>
      <trkpt lat="39.826456" lon="-0.464147">
        <ele>331.8</ele>
        <time>2012-08-20T12:21:57Z</time>
      </trkpt>
      <trkpt lat="39.826383" lon="-0.463622">
        <ele>331.8</ele>
        <time>2012-08-20T12:22:07Z</time>
      </trkpt>
      <trkpt lat="39.826290" lon="-0.463269">
        <ele>331.8</ele>
        <time>2012-08-20T12:22:14Z</time>
      </trkpt>
      <trkpt lat="39.826142" lon="-0.462921">
        <ele>331.8</ele>
        <time>2012-08-20T12:22:21Z</time>
      </trkpt>
      <trkpt lat="39.826099" lon="-0.462830">
        <ele>331.4</ele>
        <time>2012-08-20T12:22:23Z</time>
      </trkpt>
      <trkpt lat="39.826079" lon="-0.462785">
        <ele>331.0</ele>
        <time>2012-08-20T12:22:24Z</time>
      </trkpt>
      <trkpt lat="39.826059" lon="-0.462740">
        <ele>330.6</ele>
        <time>2012-08-20T12:22:25Z</time>
      </trkpt>
      <trkpt lat="39.826039" lon="-0.462694">
        <ele>330.2</ele>
        <time>2012-08-20T12:22:26Z</time>
      </trkpt>
      <trkpt lat="39.826017" lon="-0.462648">
        <ele>329.8</ele>
        <time>2012-08-20T12:22:27Z</time>
      </trkpt>
      <trkpt lat="39.825952" lon="-0.462511">
        <ele>329.8</ele>
        <time>2012-08-20T12:22:30Z</time>
      </trkpt>
      <trkpt lat="39.825910" lon="-0.462421">
        <ele>329.8</ele>
        <time>2012-08-20T12:22:32Z</time>
      </trkpt>
      <trkpt lat="39.825837" lon="-0.462281">
        <ele>329.8</ele>
        <time>2012-08-20T12:22:35Z</time>
      </trkpt>
      <trkpt lat="39.825623" lon="-0.461803">
        <ele>329.8</ele>
        <time>2012-08-20T12:22:44Z</time>
      </trkpt>
      <trkpt lat="39.825400" lon="-0.461331">
        <ele>329.8</ele>
        <time>2012-08-20T12:22:53Z</time>
      </trkpt>
      <trkpt lat="39.825228" lon="-0.460959">
        <ele>329.8</ele>
        <time>2012-08-20T12:23:00Z</time>
      </trkpt>
      <trkpt lat="39.825013" lon="-0.460496">
        <ele>329.8</ele>
        <time>2012-08-20T12:23:09Z</time>
      </trkpt>
      <trkpt lat="39.824829" lon="-0.460098">
        <ele>329.8</ele>
        <time>2012-08-20T12:23:17Z</time>
      </trkpt>
      <trkpt lat="39.824674" lon="-0.459782">
        <ele>329.8</ele>
        <time>2012-08-20T12:23:24Z</time>
      </trkpt>
      <trkpt lat="39.824485" lon="-0.459357">
        <ele>329.8</ele>
        <time>2012-08-20T12:23:32Z</time>
      </trkpt>
      <trkpt lat="39.824286" lon="-0.458917">
        <ele>329.8</ele>
        <time>2012-08-20T12:23:40Z</time>
      </trkpt>
      <trkpt lat="39.824127" lon="-0.458562">
        <ele>329.4</ele>
        <time>2012-08-20T12:23:46Z</time>
      </trkpt>
      <trkpt lat="39.824099" lon="-0.458502">
        <ele>329.0</ele>
        <time>2012-08-20T12:23:47Z</time>
      </trkpt>
      <trkpt lat="39.824070" lon="-0.458441">
        <ele>328.6</ele>
        <time>2012-08-20T12:23:48Z</time>
      </trkpt>
      <trkpt lat="39.824040" lon="-0.458379">
        <ele>328.2</ele>
        <time>2012-08-20T12:23:49Z</time>
      </trkpt>
      <trkpt lat="39.824010" lon="-0.458313">
        <ele>327.8</ele>
        <time>2012-08-20T12:23:50Z</time>
      </trkpt>
      <trkpt lat="39.823831" lon="-0.457921">
        <ele>327.8</ele>
        <time>2012-08-20T12:23:56Z</time>
      </trkpt>
      <trkpt lat="39.823616" lon="-0.457450">
        <ele>327.4</ele>
        <time>2012-08-20T12:24:03Z</time>
      </trkpt>
      <trkpt lat="39.823587" lon="-0.457383">
        <ele>327.0</ele>
        <time>2012-08-20T12:24:04Z</time>
      </trkpt>
      <trkpt lat="39.823557" lon="-0.457316">
        <ele>326.6</ele>
        <time>2012-08-20T12:24:05Z</time>
      </trkpt>
      <trkpt lat="39.823526" lon="-0.457247">
        <ele>326.2</ele>
        <time>2012-08-20T12:24:06Z</time>
      </trkpt>
      <trkpt lat="39.823496" lon="-0.457181">
        <ele>325.8</ele>
        <time>2012-08-20T12:24:07Z</time>
      </trkpt>
      <trkpt lat="39.823342" lon="-0.456847">
        <ele>325.8</ele>
        <time>2012-08-20T12:24:12Z</time>
      </trkpt>
      <trkpt lat="39.823071" lon="-0.456300">
        <ele>325.8</ele>
        <time>2012-08-20T12:24:20Z</time>
      </trkpt>
      <trkpt lat="39.823034" lon="-0.456233">
        <ele>325.2</ele>
        <time>2012-08-20T12:24:21Z</time>
      </trkpt>
      <trkpt lat="39.822994" lon="-0.456164">
        <ele>324.8</ele>
        <time>2012-08-20T12:24:22Z</time>
      </trkpt>
      <trkpt lat="39.822955" lon="-0.456100">
        <ele>324.4</ele>
        <time>2012-08-20T12:24:23Z</time>
      </trkpt>
      <trkpt lat="39.822915" lon="-0.456038">
        <ele>324.0</ele>
        <time>2012-08-20T12:24:24Z</time>
      </trkpt>
      <trkpt lat="39.822875" lon="-0.455976">
        <ele>323.6</ele>
        <time>2012-08-20T12:24:25Z</time>
      </trkpt>
      <trkpt lat="39.822838" lon="-0.455913">
        <ele>323.6</ele>
        <time>2012-08-20T12:24:26Z</time>
      </trkpt>
      <trkpt lat="39.822798" lon="-0.455852">
        <ele>323.6</ele>
        <time>2012-08-20T12:24:27Z</time>
      </trkpt>
      <trkpt lat="39.822754" lon="-0.455793">
        <ele>323.6</ele>
        <time>2012-08-20T12:24:28Z</time>
      </trkpt>
      <trkpt lat="39.822410" lon="-0.455423">
        <ele>323.2</ele>
        <time>2012-08-20T12:24:35Z</time>
      </trkpt>
      <trkpt lat="39.822358" lon="-0.455380">
        <ele>322.8</ele>
        <time>2012-08-20T12:24:36Z</time>
      </trkpt>
      <trkpt lat="39.822304" lon="-0.455338">
        <ele>322.2</ele>
        <time>2012-08-20T12:24:37Z</time>
      </trkpt>
      <trkpt lat="39.822247" lon="-0.455295">
        <ele>321.8</ele>
        <time>2012-08-20T12:24:38Z</time>
      </trkpt>
      <trkpt lat="39.822193" lon="-0.455251">
        <ele>321.4</ele>
        <time>2012-08-20T12:24:39Z</time>
      </trkpt>
      <trkpt lat="39.822139" lon="-0.455205">
        <ele>321.4</ele>
        <time>2012-08-20T12:24:40Z</time>
      </trkpt>
      <trkpt lat="39.821690" lon="-0.454857">
        <ele>321.4</ele>
        <time>2012-08-20T12:24:48Z</time>
      </trkpt>
      <trkpt lat="39.821520" lon="-0.454724">
        <ele>321.0</ele>
        <time>2012-08-20T12:24:51Z</time>
      </trkpt>
      <trkpt lat="39.821462" lon="-0.454679">
        <ele>320.6</ele>
        <time>2012-08-20T12:24:52Z</time>
      </trkpt>
      <trkpt lat="39.821403" lon="-0.454634">
        <ele>320.2</ele>
        <time>2012-08-20T12:24:53Z</time>
      </trkpt>
      <trkpt lat="39.821347" lon="-0.454589">
        <ele>319.6</ele>
        <time>2012-08-20T12:24:54Z</time>
      </trkpt>
      <trkpt lat="39.821293" lon="-0.454544">
        <ele>319.2</ele>
        <time>2012-08-20T12:24:55Z</time>
      </trkpt>
      <trkpt lat="39.820872" lon="-0.454234">
        <ele>319.2</ele>
        <time>2012-08-20T12:25:02Z</time>
      </trkpt>
      <trkpt lat="39.820636" lon="-0.454067">
        <ele>318.8</ele>
        <time>2012-08-20T12:25:06Z</time>
      </trkpt>
      <trkpt lat="39.820578" lon="-0.454025">
        <ele>318.4</ele>
        <time>2012-08-20T12:25:07Z</time>
      </trkpt>
      <trkpt lat="39.820520" lon="-0.453978">
        <ele>318.0</ele>
        <time>2012-08-20T12:25:08Z</time>
      </trkpt>
      <trkpt lat="39.820465" lon="-0.453934">
        <ele>317.6</ele>
        <time>2012-08-20T12:25:09Z</time>
      </trkpt>
      <trkpt lat="39.820408" lon="-0.453889">
        <ele>317.2</ele>
        <time>2012-08-20T12:25:10Z</time>
      </trkpt>
      <trkpt lat="39.820173" lon="-0.453720">
        <ele>317.2</ele>
        <time>2012-08-20T12:25:14Z</time>
      </trkpt>
      <trkpt lat="39.819871" lon="-0.453500">
        <ele>316.8</ele>
        <time>2012-08-20T12:25:19Z</time>
      </trkpt>
      <trkpt lat="39.819810" lon="-0.453455">
        <ele>316.4</ele>
        <time>2012-08-20T12:25:20Z</time>
      </trkpt>
      <trkpt lat="39.819748" lon="-0.453414">
        <ele>316.0</ele>
        <time>2012-08-20T12:25:21Z</time>
      </trkpt>
      <trkpt lat="39.819688" lon="-0.453371">
        <ele>315.6</ele>
        <time>2012-08-20T12:25:22Z</time>
      </trkpt>
      <trkpt lat="39.819624" lon="-0.453323">
        <ele>315.2</ele>
        <time>2012-08-20T12:25:23Z</time>
      </trkpt>
      <trkpt lat="39.819379" lon="-0.453144">
        <ele>315.2</ele>
        <time>2012-08-20T12:25:27Z</time>
      </trkpt>
      <trkpt lat="39.818906" lon="-0.452759">
        <ele>315.2</ele>
        <time>2012-08-20T12:25:35Z</time>
      </trkpt>
      <trkpt lat="39.818851" lon="-0.452700">
        <ele>315.2</ele>
        <time>2012-08-20T12:25:36Z</time>
      </trkpt>
      <trkpt lat="39.818646" lon="-0.452433">
        <ele>314.8</ele>
        <time>2012-08-20T12:25:40Z</time>
      </trkpt>
      <trkpt lat="39.818604" lon="-0.452361">
        <ele>314.4</ele>
        <time>2012-08-20T12:25:41Z</time>
      </trkpt>
      <trkpt lat="39.818564" lon="-0.452286">
        <ele>314.0</ele>
        <time>2012-08-20T12:25:42Z</time>
      </trkpt>
      <trkpt lat="39.818529" lon="-0.452209">
        <ele>313.6</ele>
        <time>2012-08-20T12:25:43Z</time>
      </trkpt>
      <trkpt lat="39.818495" lon="-0.452133">
        <ele>313.2</ele>
        <time>2012-08-20T12:25:44Z</time>
      </trkpt>
      <trkpt lat="39.818432" lon="-0.451974">
        <ele>312.6</ele>
        <time>2012-08-20T12:25:46Z</time>
      </trkpt>
      <trkpt lat="39.818403" lon="-0.451895">
        <ele>312.2</ele>
        <time>2012-08-20T12:25:47Z</time>
      </trkpt>
      <trkpt lat="39.818379" lon="-0.451815">
        <ele>311.8</ele>
        <time>2012-08-20T12:25:48Z</time>
      </trkpt>
      <trkpt lat="39.818358" lon="-0.451733">
        <ele>311.4</ele>
        <time>2012-08-20T12:25:49Z</time>
      </trkpt>
      <trkpt lat="39.818337" lon="-0.451652">
        <ele>311.0</ele>
        <time>2012-08-20T12:25:50Z</time>
      </trkpt>
      <trkpt lat="39.818272" lon="-0.451243">
        <ele>311.0</ele>
        <time>2012-08-20T12:25:55Z</time>
      </trkpt>
      <trkpt lat="39.818226" lon="-0.450773">
        <ele>311.0</ele>
        <time>2012-08-20T12:26:01Z</time>
      </trkpt>
      <trkpt lat="39.818197" lon="-0.450454">
        <ele>310.6</ele>
        <time>2012-08-20T12:26:05Z</time>
      </trkpt>
      <trkpt lat="39.818192" lon="-0.450375">
        <ele>310.2</ele>
        <time>2012-08-20T12:26:06Z</time>
      </trkpt>
      <trkpt lat="39.818185" lon="-0.450296">
        <ele>309.8</ele>
        <time>2012-08-20T12:26:07Z</time>
      </trkpt>
      <trkpt lat="39.818177" lon="-0.450217">
        <ele>309.4</ele>
        <time>2012-08-20T12:26:08Z</time>
      </trkpt>
      <trkpt lat="39.818171" lon="-0.450137">
        <ele>309.0</ele>
        <time>2012-08-20T12:26:09Z</time>
      </trkpt>
      <trkpt lat="39.818100" lon="-0.449458">
        <ele>309.0</ele>
        <time>2012-08-20T12:26:18Z</time>
      </trkpt>
      <trkpt lat="39.818055" lon="-0.448947">
        <ele>309.0</ele>
        <time>2012-08-20T12:26:25Z</time>
      </trkpt>
      <trkpt lat="39.817997" lon="-0.448492">
        <ele>309.0</ele>
        <time>2012-08-20T12:26:32Z</time>
      </trkpt>
      <trkpt lat="39.817985" lon="-0.448425">
        <ele>309.0</ele>
        <time>2012-08-20T12:26:33Z</time>
      </trkpt>
      <trkpt lat="39.817958" lon="-0.448299">
        <ele>309.0</ele>
        <time>2012-08-20T12:26:35Z</time>
      </trkpt>
      <trkpt lat="39.817936" lon="-0.448181">
        <ele>309.0</ele>
        <time>2012-08-20T12:26:37Z</time>
      </trkpt>
      <trkpt lat="39.817915" lon="-0.448063">
        <ele>309.0</ele>
        <time>2012-08-20T12:26:39Z</time>
      </trkpt>
      <trkpt lat="39.817878" lon="-0.447958">
        <ele>309.0</ele>
        <time>2012-08-20T12:26:41Z</time>
      </trkpt>
      <trkpt lat="39.817810" lon="-0.447745">
        <ele>309.0</ele>
        <time>2012-08-20T12:26:45Z</time>
      </trkpt>
      <trkpt lat="39.817639" lon="-0.447275">
        <ele>309.0</ele>
        <time>2012-08-20T12:26:54Z</time>
      </trkpt>
      <trkpt lat="39.817420" lon="-0.446802">
        <ele>309.0</ele>
        <time>2012-08-20T12:27:03Z</time>
      </trkpt>
      <trkpt lat="39.817256" lon="-0.446449">
        <ele>309.0</ele>
        <time>2012-08-20T12:27:10Z</time>
      </trkpt>
      <trkpt lat="39.817055" lon="-0.446014">
        <ele>309.0</ele>
        <time>2012-08-20T12:27:19Z</time>
      </trkpt>
      <trkpt lat="39.816844" lon="-0.445626">
        <ele>309.0</ele>
        <time>2012-08-20T12:27:27Z</time>
      </trkpt>
      <trkpt lat="39.816620" lon="-0.445167">
        <ele>309.0</ele>
        <time>2012-08-20T12:27:36Z</time>
      </trkpt>
      <trkpt lat="39.816545" lon="-0.445016">
        <ele>309.0</ele>
        <time>2012-08-20T12:27:39Z</time>
      </trkpt>
      <trkpt lat="39.816475" lon="-0.444867">
        <ele>309.0</ele>
        <time>2012-08-20T12:27:42Z</time>
      </trkpt>
      <trkpt lat="39.816257" lon="-0.444421">
        <ele>309.0</ele>
        <time>2012-08-20T12:27:51Z</time>
      </trkpt>
      <trkpt lat="39.816067" lon="-0.444018">
        <ele>309.0</ele>
        <time>2012-08-20T12:27:59Z</time>
      </trkpt>
      <trkpt lat="39.815962" lon="-0.443771">
        <ele>309.0</ele>
        <time>2012-08-20T12:28:04Z</time>
      </trkpt>
      <trkpt lat="39.815919" lon="-0.443689">
        <ele>309.0</ele>
        <time>2012-08-20T12:28:06Z</time>
      </trkpt>
      <trkpt lat="39.815803" lon="-0.443442">
        <ele>309.0</ele>
        <time>2012-08-20T12:28:12Z</time>
      </trkpt>
      <trkpt lat="39.815659" lon="-0.443165">
        <ele>309.0</ele>
        <time>2012-08-20T12:28:19Z</time>
      </trkpt>
      <trkpt lat="39.815641" lon="-0.443125">
        <ele>309.4</ele>
        <time>2012-08-20T12:28:20Z</time>
      </trkpt>
      <trkpt lat="39.815621" lon="-0.443083">
        <ele>309.8</ele>
        <time>2012-08-20T12:28:21Z</time>
      </trkpt>
      <trkpt lat="39.815605" lon="-0.443039">
        <ele>310.2</ele>
        <time>2012-08-20T12:28:22Z</time>
      </trkpt>
      <trkpt lat="39.815587" lon="-0.442996">
        <ele>310.6</ele>
        <time>2012-08-20T12:28:23Z</time>
      </trkpt>
      <trkpt lat="39.815567" lon="-0.442956">
        <ele>311.0</ele>
        <time>2012-08-20T12:28:24Z</time>
      </trkpt>
      <trkpt lat="39.815545" lon="-0.442915">
        <ele>311.0</ele>
        <time>2012-08-20T12:28:25Z</time>
      </trkpt>
      <trkpt lat="39.815414" lon="-0.442664">
        <ele>311.0</ele>
        <time>2012-08-20T12:28:31Z</time>
      </trkpt>
      <trkpt lat="39.815396" lon="-0.442621">
        <ele>311.0</ele>
        <time>2012-08-20T12:28:32Z</time>
      </trkpt>
      <trkpt lat="39.815210" lon="-0.442224">
        <ele>311.0</ele>
        <time>2012-08-20T12:28:41Z</time>
      </trkpt>
      <trkpt lat="39.815186" lon="-0.442183">
        <ele>311.0</ele>
        <time>2012-08-20T12:28:42Z</time>
      </trkpt>
      <trkpt lat="39.815079" lon="-0.441952">
        <ele>311.0</ele>
        <time>2012-08-20T12:28:47Z</time>
      </trkpt>
      <trkpt lat="39.814894" lon="-0.441586">
        <ele>311.0</ele>
        <time>2012-08-20T12:28:55Z</time>
      </trkpt>
      <trkpt lat="39.814688" lon="-0.441173">
        <ele>311.0</ele>
        <time>2012-08-20T12:29:04Z</time>
      </trkpt>
      <trkpt lat="39.814504" lon="-0.440800">
        <ele>311.0</ele>
        <time>2012-08-20T12:29:12Z</time>
      </trkpt>
      <trkpt lat="39.814313" lon="-0.440425">
        <ele>311.0</ele>
        <time>2012-08-20T12:29:20Z</time>
      </trkpt>
      <trkpt lat="39.814138" lon="-0.440049">
        <ele>311.0</ele>
        <time>2012-08-20T12:29:28Z</time>
      </trkpt>
      <trkpt lat="39.813944" lon="-0.439633">
        <ele>311.0</ele>
        <time>2012-08-20T12:29:37Z</time>
      </trkpt>
      <trkpt lat="39.813758" lon="-0.439191">
        <ele>311.0</ele>
        <time>2012-08-20T12:29:46Z</time>
      </trkpt>
      <trkpt lat="39.813598" lon="-0.438773">
        <ele>311.0</ele>
        <time>2012-08-20T12:29:54Z</time>
      </trkpt>
      <trkpt lat="39.813457" lon="-0.438327">
        <ele>311.0</ele>
        <time>2012-08-20T12:30:02Z</time>
      </trkpt>
      <trkpt lat="39.813317" lon="-0.437877">
        <ele>311.0</ele>
        <time>2012-08-20T12:30:10Z</time>
      </trkpt>
      <trkpt lat="39.813251" lon="-0.437662">
        <ele>311.0</ele>
        <time>2012-08-20T12:30:14Z</time>
      </trkpt>
      <trkpt lat="39.813210" lon="-0.437508">
        <ele>311.0</ele>
        <time>2012-08-20T12:30:17Z</time>
      </trkpt>
      <trkpt lat="39.813143" lon="-0.437184">
        <ele>311.4</ele>
        <time>2012-08-20T12:30:23Z</time>
      </trkpt>
      <trkpt lat="39.813133" lon="-0.437130">
        <ele>311.8</ele>
        <time>2012-08-20T12:30:24Z</time>
      </trkpt>
      <trkpt lat="39.813121" lon="-0.437075">
        <ele>312.2</ele>
        <time>2012-08-20T12:30:25Z</time>
      </trkpt>
      <trkpt lat="39.813108" lon="-0.437019">
        <ele>312.6</ele>
        <time>2012-08-20T12:30:26Z</time>
      </trkpt>
      <trkpt lat="39.813097" lon="-0.436964">
        <ele>313.0</ele>
        <time>2012-08-20T12:30:27Z</time>
      </trkpt>
      <trkpt lat="39.813044" lon="-0.436689">
        <ele>313.0</ele>
        <time>2012-08-20T12:30:32Z</time>
      </trkpt>
      <trkpt lat="39.812950" lon="-0.436248">
        <ele>313.0</ele>
        <time>2012-08-20T12:30:40Z</time>
      </trkpt>
      <trkpt lat="39.812886" lon="-0.435862">
        <ele>313.0</ele>
        <time>2012-08-20T12:30:47Z</time>
      </trkpt>
      <trkpt lat="39.812859" lon="-0.435575">
        <ele>313.0</ele>
        <time>2012-08-20T12:30:52Z</time>
      </trkpt>
      <trkpt lat="39.812842" lon="-0.435403">
        <ele>313.0</ele>
        <time>2012-08-20T12:30:55Z</time>
      </trkpt>
      <trkpt lat="39.812825" lon="-0.435232">
        <ele>313.0</ele>
        <time>2012-08-20T12:30:58Z</time>
      </trkpt>
      <trkpt lat="39.812804" lon="-0.434967">
        <ele>313.0</ele>
        <time>2012-08-20T12:31:03Z</time>
      </trkpt>
      <trkpt lat="39.812775" lon="-0.434656">
        <ele>313.0</ele>
        <time>2012-08-20T12:31:10Z</time>
      </trkpt>
      <trkpt lat="39.812752" lon="-0.434397">
        <ele>312.4</ele>
        <time>2012-08-20T12:31:14Z</time>
      </trkpt>
      <trkpt lat="39.812732" lon="-0.434335">
        <ele>312.0</ele>
        <time>2012-08-20T12:31:15Z</time>
      </trkpt>
      <trkpt lat="39.812709" lon="-0.434275">
        <ele>311.6</ele>
        <time>2012-08-20T12:31:16Z</time>
      </trkpt>
      <trkpt lat="39.812683" lon="-0.434221">
        <ele>311.2</ele>
        <time>2012-08-20T12:31:17Z</time>
      </trkpt>
      <trkpt lat="39.812656" lon="-0.434167">
        <ele>310.6</ele>
        <time>2012-08-20T12:31:18Z</time>
      </trkpt>
      <trkpt lat="39.812625" lon="-0.434118">
        <ele>310.6</ele>
        <time>2012-08-20T12:31:19Z</time>
      </trkpt>
      <trkpt lat="39.812477" lon="-0.433903">
        <ele>310.6</ele>
        <time>2012-08-20T12:31:24Z</time>
      </trkpt>
      <trkpt lat="39.812370" lon="-0.433796">
        <ele>310.6</ele>
        <time>2012-08-20T12:31:29Z</time>
      </trkpt>
      <trkpt lat="39.812369" lon="-0.433797">
        <ele>310.6</ele>
        <time>2012-08-20T12:31:30Z</time>
      </trkpt>
      <trkpt lat="39.812369" lon="-0.433796">
        <ele>310.6</ele>
        <time>2012-08-20T12:31:31Z</time>
      </trkpt>
      <trkpt lat="39.812333" lon="-0.433742">
        <ele>310.6</ele>
        <time>2012-08-20T12:32:38Z</time>
      </trkpt>
      <trkpt lat="39.812324" lon="-0.433726">
        <ele>310.6</ele>
        <time>2012-08-20T12:32:39Z</time>
      </trkpt>
      <trkpt lat="39.812250" lon="-0.433647">
        <ele>310.6</ele>
        <time>2012-08-20T12:32:44Z</time>
      </trkpt>
      <trkpt lat="39.812232" lon="-0.433623">
        <ele>310.6</ele>
        <time>2012-08-20T12:32:45Z</time>
      </trkpt>
      <trkpt lat="39.812154" lon="-0.433541">
        <ele>310.6</ele>
        <time>2012-08-20T12:32:49Z</time>
      </trkpt>
      <trkpt lat="39.812054" lon="-0.433411">
        <ele>310.6</ele>
        <time>2012-08-20T12:32:53Z</time>
      </trkpt>
      <trkpt lat="39.811831" lon="-0.433131">
        <ele>310.6</ele>
        <time>2012-08-20T12:33:01Z</time>
      </trkpt>
      <trkpt lat="39.811523" lon="-0.432823">
        <ele>310.6</ele>
        <time>2012-08-20T12:33:10Z</time>
      </trkpt>
      <trkpt lat="39.811442" lon="-0.432750">
        <ele>311.0</ele>
        <time>2012-08-20T12:33:12Z</time>
      </trkpt>
      <trkpt lat="39.811402" lon="-0.432713">
        <ele>311.4</ele>
        <time>2012-08-20T12:33:13Z</time>
      </trkpt>
      <trkpt lat="39.811362" lon="-0.432677">
        <ele>311.8</ele>
        <time>2012-08-20T12:33:14Z</time>
      </trkpt>
      <trkpt lat="39.811325" lon="-0.432643">
        <ele>312.2</ele>
        <time>2012-08-20T12:33:15Z</time>
      </trkpt>
      <trkpt lat="39.811284" lon="-0.432610">
        <ele>312.6</ele>
        <time>2012-08-20T12:33:16Z</time>
      </trkpt>
      <trkpt lat="39.811202" lon="-0.432548">
        <ele>312.6</ele>
        <time>2012-08-20T12:33:18Z</time>
      </trkpt>
      <trkpt lat="39.811088" lon="-0.432470">
        <ele>312.6</ele>
        <time>2012-08-20T12:33:21Z</time>
      </trkpt>
      <trkpt lat="39.811050" lon="-0.432448">
        <ele>312.6</ele>
        <time>2012-08-20T12:33:22Z</time>
      </trkpt>
      <trkpt lat="39.811015" lon="-0.432427">
        <ele>313.2</ele>
        <time>2012-08-20T12:33:23Z</time>
      </trkpt>
      <trkpt lat="39.810978" lon="-0.432406">
        <ele>313.8</ele>
        <time>2012-08-20T12:33:24Z</time>
      </trkpt>
      <trkpt lat="39.810940" lon="-0.432386">
        <ele>314.2</ele>
        <time>2012-08-20T12:33:25Z</time>
      </trkpt>
      <trkpt lat="39.810904" lon="-0.432363">
        <ele>314.8</ele>
        <time>2012-08-20T12:33:26Z</time>
      </trkpt>
      <trkpt lat="39.810869" lon="-0.432339">
        <ele>315.4</ele>
        <time>2012-08-20T12:33:27Z</time>
      </trkpt>
      <trkpt lat="39.810735" lon="-0.432239">
        <ele>315.4</ele>
        <time>2012-08-20T12:33:31Z</time>
      </trkpt>
      <trkpt lat="39.810513" lon="-0.432083">
        <ele>315.4</ele>
        <time>2012-08-20T12:33:38Z</time>
      </trkpt>
      <trkpt lat="39.810295" lon="-0.431997">
        <ele>315.4</ele>
        <time>2012-08-20T12:33:44Z</time>
      </trkpt>
      <trkpt lat="39.810078" lon="-0.431917">
        <ele>315.8</ele>
        <time>2012-08-20T12:33:50Z</time>
      </trkpt>
      <trkpt lat="39.810047" lon="-0.431901">
        <ele>316.2</ele>
        <time>2012-08-20T12:33:51Z</time>
      </trkpt>
      <trkpt lat="39.810013" lon="-0.431888">
        <ele>316.6</ele>
        <time>2012-08-20T12:33:52Z</time>
      </trkpt>
      <trkpt lat="39.809977" lon="-0.431874">
        <ele>317.0</ele>
        <time>2012-08-20T12:33:53Z</time>
      </trkpt>
      <trkpt lat="39.809939" lon="-0.431863">
        <ele>317.4</ele>
        <time>2012-08-20T12:33:54Z</time>
      </trkpt>
      <trkpt lat="39.809820" lon="-0.431836">
        <ele>317.4</ele>
        <time>2012-08-20T12:33:57Z</time>
      </trkpt>
      <trkpt lat="39.809527" lon="-0.431770">
        <ele>317.4</ele>
        <time>2012-08-20T12:34:04Z</time>
      </trkpt>
      <trkpt lat="39.809283" lon="-0.431666">
        <ele>317.4</ele>
        <time>2012-08-20T12:34:10Z</time>
      </trkpt>
      <trkpt lat="39.809192" lon="-0.431637">
        <ele>317.4</ele>
        <time>2012-08-20T12:34:12Z</time>
      </trkpt>
      <trkpt lat="39.809144" lon="-0.431634">
        <ele>317.4</ele>
        <time>2012-08-20T12:34:13Z</time>
      </trkpt>
      <trkpt lat="39.809054" lon="-0.431627">
        <ele>317.8</ele>
        <time>2012-08-20T12:34:15Z</time>
      </trkpt>
      <trkpt lat="39.809011" lon="-0.431623">
        <ele>318.2</ele>
        <time>2012-08-20T12:34:16Z</time>
      </trkpt>
      <trkpt lat="39.808966" lon="-0.431621">
        <ele>318.6</ele>
        <time>2012-08-20T12:34:17Z</time>
      </trkpt>
      <trkpt lat="39.808922" lon="-0.431622">
        <ele>319.6</ele>
        <time>2012-08-20T12:34:18Z</time>
      </trkpt>
      <trkpt lat="39.808882" lon="-0.431615">
        <ele>319.6</ele>
        <time>2012-08-20T12:34:19Z</time>
      </trkpt>
      <trkpt lat="39.808737" lon="-0.431583">
        <ele>319.6</ele>
        <time>2012-08-20T12:34:23Z</time>
      </trkpt>
      <trkpt lat="39.808448" lon="-0.431485">
        <ele>319.6</ele>
        <time>2012-08-20T12:34:31Z</time>
      </trkpt>
      <trkpt lat="39.808209" lon="-0.431369">
        <ele>319.6</ele>
        <time>2012-08-20T12:34:38Z</time>
      </trkpt>
      <trkpt lat="39.808092" lon="-0.431308">
        <ele>319.6</ele>
        <time>2012-08-20T12:34:41Z</time>
      </trkpt>
      <trkpt lat="39.808003" lon="-0.431268">
        <ele>319.6</ele>
        <time>2012-08-20T12:34:43Z</time>
      </trkpt>
      <trkpt lat="39.807729" lon="-0.431068">
        <ele>319.2</ele>
        <time>2012-08-20T12:34:48Z</time>
      </trkpt>
      <trkpt lat="39.807664" lon="-0.431007">
        <ele>318.6</ele>
        <time>2012-08-20T12:34:49Z</time>
      </trkpt>
      <trkpt lat="39.807600" lon="-0.430947">
        <ele>318.2</ele>
        <time>2012-08-20T12:34:50Z</time>
      </trkpt>
      <trkpt lat="39.807533" lon="-0.430885">
        <ele>317.6</ele>
        <time>2012-08-20T12:34:51Z</time>
      </trkpt>
      <trkpt lat="39.807466" lon="-0.430817">
        <ele>317.0</ele>
        <time>2012-08-20T12:34:52Z</time>
      </trkpt>
      <trkpt lat="39.807397" lon="-0.430746">
        <ele>316.2</ele>
        <time>2012-08-20T12:34:53Z</time>
      </trkpt>
      <trkpt lat="39.807323" lon="-0.430672">
        <ele>315.6</ele>
        <time>2012-08-20T12:34:54Z</time>
      </trkpt>
      <trkpt lat="39.807248" lon="-0.430594">
        <ele>315.0</ele>
        <time>2012-08-20T12:34:55Z</time>
      </trkpt>
      <trkpt lat="39.807173" lon="-0.430511">
        <ele>314.4</ele>
        <time>2012-08-20T12:34:56Z</time>
      </trkpt>
      <trkpt lat="39.807094" lon="-0.430417">
        <ele>313.8</ele>
        <time>2012-08-20T12:34:57Z</time>
      </trkpt>
      <trkpt lat="39.807019" lon="-0.430324">
        <ele>313.0</ele>
        <time>2012-08-20T12:34:58Z</time>
      </trkpt>
      <trkpt lat="39.806942" lon="-0.430226">
        <ele>312.2</ele>
        <time>2012-08-20T12:34:59Z</time>
      </trkpt>
      <trkpt lat="39.806864" lon="-0.430127">
        <ele>311.4</ele>
        <time>2012-08-20T12:35:00Z</time>
      </trkpt>
      <trkpt lat="39.806786" lon="-0.430025">
        <ele>310.4</ele>
        <time>2012-08-20T12:35:01Z</time>
      </trkpt>
      <trkpt lat="39.806712" lon="-0.429921">
        <ele>309.4</ele>
        <time>2012-08-20T12:35:02Z</time>
      </trkpt>
      <trkpt lat="39.806642" lon="-0.429814">
        <ele>308.4</ele>
        <time>2012-08-20T12:35:03Z</time>
      </trkpt>
      <trkpt lat="39.806573" lon="-0.429703">
        <ele>307.4</ele>
        <time>2012-08-20T12:35:04Z</time>
      </trkpt>
      <trkpt lat="39.806513" lon="-0.429592">
        <ele>306.4</ele>
        <time>2012-08-20T12:35:05Z</time>
      </trkpt>
      <trkpt lat="39.806457" lon="-0.429481">
        <ele>304.2</ele>
        <time>2012-08-20T12:35:06Z</time>
      </trkpt>
      <trkpt lat="39.806402" lon="-0.429370">
        <ele>303.2</ele>
        <time>2012-08-20T12:35:07Z</time>
      </trkpt>
      <trkpt lat="39.806348" lon="-0.429259">
        <ele>302.0</ele>
        <time>2012-08-20T12:35:08Z</time>
      </trkpt>
      <trkpt lat="39.806300" lon="-0.429141">
        <ele>300.8</ele>
        <time>2012-08-20T12:35:09Z</time>
      </trkpt>
      <trkpt lat="39.806247" lon="-0.429031">
        <ele>299.8</ele>
        <time>2012-08-20T12:35:10Z</time>
      </trkpt>
      <trkpt lat="39.806194" lon="-0.428924">
        <ele>298.8</ele>
        <time>2012-08-20T12:35:11Z</time>
      </trkpt>
      <trkpt lat="39.806145" lon="-0.428823">
        <ele>297.8</ele>
        <time>2012-08-20T12:35:12Z</time>
      </trkpt>
      <trkpt lat="39.806108" lon="-0.428737">
        <ele>297.0</ele>
        <time>2012-08-20T12:35:13Z</time>
      </trkpt>
      <trkpt lat="39.806079" lon="-0.428666">
        <ele>296.0</ele>
        <time>2012-08-20T12:35:14Z</time>
      </trkpt>
      <trkpt lat="39.806047" lon="-0.428605">
        <ele>295.2</ele>
        <time>2012-08-20T12:35:15Z</time>
      </trkpt>
      <trkpt lat="39.806014" lon="-0.428551">
        <ele>294.4</ele>
        <time>2012-08-20T12:35:16Z</time>
      </trkpt>
      <trkpt lat="39.805990" lon="-0.428508">
        <ele>293.8</ele>
        <time>2012-08-20T12:35:17Z</time>
      </trkpt>
      <trkpt lat="39.805970" lon="-0.428469">
        <ele>293.2</ele>
        <time>2012-08-20T12:35:18Z</time>
      </trkpt>
      <trkpt lat="39.805944" lon="-0.428422">
        <ele>292.6</ele>
        <time>2012-08-20T12:35:19Z</time>
      </trkpt>
      <trkpt lat="39.805909" lon="-0.428381">
        <ele>292.0</ele>
        <time>2012-08-20T12:35:20Z</time>
      </trkpt>
      <trkpt lat="39.805883" lon="-0.428325">
        <ele>291.4</ele>
        <time>2012-08-20T12:35:21Z</time>
      </trkpt>
      <trkpt lat="39.805861" lon="-0.428261">
        <ele>291.4</ele>
        <time>2012-08-20T12:35:22Z</time>
      </trkpt>
      <trkpt lat="39.805746" lon="-0.428183">
        <ele>291.4</ele>
        <time>2012-08-20T12:35:25Z</time>
      </trkpt>
      <trkpt lat="39.805671" lon="-0.428221">
        <ele>291.0</ele>
        <time>2012-08-20T12:35:27Z</time>
      </trkpt>
      <trkpt lat="39.805635" lon="-0.428237">
        <ele>290.6</ele>
        <time>2012-08-20T12:35:28Z</time>
      </trkpt>
      <trkpt lat="39.805595" lon="-0.428223">
        <ele>290.2</ele>
        <time>2012-08-20T12:35:29Z</time>
      </trkpt>
      <trkpt lat="39.805552" lon="-0.428201">
        <ele>289.8</ele>
        <time>2012-08-20T12:35:30Z</time>
      </trkpt>
      <trkpt lat="39.805506" lon="-0.428172">
        <ele>289.4</ele>
        <time>2012-08-20T12:35:31Z</time>
      </trkpt>
      <trkpt lat="39.805395" lon="-0.428132">
        <ele>289.4</ele>
        <time>2012-08-20T12:35:33Z</time>
      </trkpt>
      <trkpt lat="39.805337" lon="-0.428115">
        <ele>289.4</ele>
        <time>2012-08-20T12:35:34Z</time>
      </trkpt>
      <trkpt lat="39.805152" lon="-0.428057">
        <ele>289.0</ele>
        <time>2012-08-20T12:35:37Z</time>
      </trkpt>
      <trkpt lat="39.805089" lon="-0.428041">
        <ele>288.6</ele>
        <time>2012-08-20T12:35:38Z</time>
      </trkpt>
      <trkpt lat="39.805023" lon="-0.428025">
        <ele>288.2</ele>
        <time>2012-08-20T12:35:39Z</time>
      </trkpt>
      <trkpt lat="39.804960" lon="-0.428001">
        <ele>287.8</ele>
        <time>2012-08-20T12:35:40Z</time>
      </trkpt>
      <trkpt lat="39.804895" lon="-0.427980">
        <ele>287.2</ele>
        <time>2012-08-20T12:35:41Z</time>
      </trkpt>
      <trkpt lat="39.804826" lon="-0.427951">
        <ele>287.2</ele>
        <time>2012-08-20T12:35:43Z</time>
      </trkpt>
      <trkpt lat="39.804701" lon="-0.427874">
        <ele>287.2</ele>
        <time>2012-08-20T12:35:45Z</time>
      </trkpt>
      <trkpt lat="39.804386" lon="-0.427723">
        <ele>287.2</ele>
        <time>2012-08-20T12:35:50Z</time>
      </trkpt>
      <trkpt lat="39.804142" lon="-0.427608">
        <ele>287.2</ele>
        <time>2012-08-20T12:35:54Z</time>
      </trkpt>
      <trkpt lat="39.804024" lon="-0.427564">
        <ele>287.2</ele>
        <time>2012-08-20T12:35:56Z</time>
      </trkpt>
      <trkpt lat="39.803733" lon="-0.427471">
        <ele>287.2</ele>
        <time>2012-08-20T12:36:01Z</time>
      </trkpt>
      <trkpt lat="39.803669" lon="-0.427463">
        <ele>287.2</ele>
        <time>2012-08-20T12:36:02Z</time>
      </trkpt>
      <trkpt lat="39.803603" lon="-0.427444">
        <ele>287.2</ele>
        <time>2012-08-20T12:36:03Z</time>
      </trkpt>
      <trkpt lat="39.803541" lon="-0.427407">
        <ele>286.8</ele>
        <time>2012-08-20T12:36:04Z</time>
      </trkpt>
      <trkpt lat="39.803484" lon="-0.427354">
        <ele>286.4</ele>
        <time>2012-08-20T12:36:05Z</time>
      </trkpt>
      <trkpt lat="39.803432" lon="-0.427295">
        <ele>286.0</ele>
        <time>2012-08-20T12:36:06Z</time>
      </trkpt>
      <trkpt lat="39.803373" lon="-0.427240">
        <ele>285.4</ele>
        <time>2012-08-20T12:36:07Z</time>
      </trkpt>
      <trkpt lat="39.803316" lon="-0.427197">
        <ele>285.0</ele>
        <time>2012-08-20T12:36:08Z</time>
      </trkpt>
      <trkpt lat="39.803254" lon="-0.427154">
        <ele>285.0</ele>
        <time>2012-08-20T12:36:09Z</time>
      </trkpt>
      <trkpt lat="39.802939" lon="-0.426896">
        <ele>285.0</ele>
        <time>2012-08-20T12:36:15Z</time>
      </trkpt>
      <trkpt lat="39.802820" lon="-0.426802">
        <ele>285.0</ele>
        <time>2012-08-20T12:36:18Z</time>
      </trkpt>
      <trkpt lat="39.802741" lon="-0.426751">
        <ele>285.0</ele>
        <time>2012-08-20T12:36:20Z</time>
      </trkpt>
      <trkpt lat="39.802428" lon="-0.426532">
        <ele>285.0</ele>
        <time>2012-08-20T12:36:27Z</time>
      </trkpt>
      <trkpt lat="39.802278" lon="-0.426393">
        <ele>285.0</ele>
        <time>2012-08-20T12:36:30Z</time>
      </trkpt>
      <trkpt lat="39.802231" lon="-0.426340">
        <ele>284.6</ele>
        <time>2012-08-20T12:36:31Z</time>
      </trkpt>
      <trkpt lat="39.802181" lon="-0.426289">
        <ele>284.2</ele>
        <time>2012-08-20T12:36:32Z</time>
      </trkpt>
      <trkpt lat="39.802135" lon="-0.426238">
        <ele>283.8</ele>
        <time>2012-08-20T12:36:33Z</time>
      </trkpt>
      <trkpt lat="39.802090" lon="-0.426190">
        <ele>283.4</ele>
        <time>2012-08-20T12:36:34Z</time>
      </trkpt>
      <trkpt lat="39.802046" lon="-0.426137">
        <ele>283.0</ele>
        <time>2012-08-20T12:36:35Z</time>
      </trkpt>
      <trkpt lat="39.802002" lon="-0.426094">
        <ele>283.0</ele>
        <time>2012-08-20T12:36:36Z</time>
      </trkpt>
      <trkpt lat="39.801911" lon="-0.426001">
        <ele>283.0</ele>
        <time>2012-08-20T12:36:38Z</time>
      </trkpt>
      <trkpt lat="39.801679" lon="-0.425774">
        <ele>282.6</ele>
        <time>2012-08-20T12:36:43Z</time>
      </trkpt>
      <trkpt lat="39.801636" lon="-0.425714">
        <ele>282.2</ele>
        <time>2012-08-20T12:36:44Z</time>
      </trkpt>
      <trkpt lat="39.801598" lon="-0.425653">
        <ele>281.4</ele>
        <time>2012-08-20T12:36:45Z</time>
      </trkpt>
      <trkpt lat="39.801562" lon="-0.425598">
        <ele>281.0</ele>
        <time>2012-08-20T12:36:46Z</time>
      </trkpt>
      <trkpt lat="39.801526" lon="-0.425548">
        <ele>281.0</ele>
        <time>2012-08-20T12:36:47Z</time>
      </trkpt>
      <trkpt lat="39.801371" lon="-0.425353">
        <ele>281.0</ele>
        <time>2012-08-20T12:36:51Z</time>
      </trkpt>
      <trkpt lat="39.801151" lon="-0.425072">
        <ele>281.0</ele>
        <time>2012-08-20T12:36:57Z</time>
      </trkpt>
      <trkpt lat="39.801116" lon="-0.425022">
        <ele>281.0</ele>
        <time>2012-08-20T12:36:58Z</time>
      </trkpt>
      <trkpt lat="39.801055" lon="-0.424913">
        <ele>281.0</ele>
        <time>2012-08-20T12:37:00Z</time>
      </trkpt>
      <trkpt lat="39.800938" lon="-0.424705">
        <ele>281.0</ele>
        <time>2012-08-20T12:37:04Z</time>
      </trkpt>
      <trkpt lat="39.800842" lon="-0.424555">
        <ele>281.0</ele>
        <time>2012-08-20T12:37:07Z</time>
      </trkpt>
      <trkpt lat="39.800737" lon="-0.424406">
        <ele>281.0</ele>
        <time>2012-08-20T12:37:10Z</time>
      </trkpt>
      <trkpt lat="39.800559" lon="-0.424170">
        <ele>281.0</ele>
        <time>2012-08-20T12:37:15Z</time>
      </trkpt>
      <trkpt lat="39.800497" lon="-0.424058">
        <ele>281.0</ele>
        <time>2012-08-20T12:37:17Z</time>
      </trkpt>
      <trkpt lat="39.800247" lon="-0.423561">
        <ele>281.0</ele>
        <time>2012-08-20T12:37:26Z</time>
      </trkpt>
      <trkpt lat="39.800035" lon="-0.423131">
        <ele>281.0</ele>
        <time>2012-08-20T12:37:34Z</time>
      </trkpt>
      <trkpt lat="39.799870" lon="-0.422808">
        <ele>281.0</ele>
        <time>2012-08-20T12:37:41Z</time>
      </trkpt>
      <trkpt lat="39.799836" lon="-0.422742">
        <ele>281.0</ele>
        <time>2012-08-20T12:37:43Z</time>
      </trkpt>
      <trkpt lat="39.799815" lon="-0.422703">
        <ele>281.0</ele>
        <time>2012-08-20T12:37:45Z</time>
      </trkpt>
      <trkpt lat="39.799814" lon="-0.422702">
        <ele>281.0</ele>
        <time>2012-08-20T12:37:47Z</time>
      </trkpt>
      <trkpt lat="39.799814" lon="-0.422703">
        <ele>281.0</ele>
        <time>2012-08-20T12:37:48Z</time>
      </trkpt>
      <trkpt lat="39.799781" lon="-0.422678">
        <ele>279.0</ele>
        <time>2012-08-20T12:49:49Z</time>
      </trkpt>
      <trkpt lat="39.799708" lon="-0.422540">
        <ele>279.0</ele>
        <time>2012-08-20T12:49:54Z</time>
      </trkpt>
      <trkpt lat="39.799640" lon="-0.422391">
        <ele>279.0</ele>
        <time>2012-08-20T12:49:58Z</time>
      </trkpt>
      <trkpt lat="39.799607" lon="-0.422305">
        <ele>279.0</ele>
        <time>2012-08-20T12:50:00Z</time>
      </trkpt>
      <trkpt lat="39.799444" lon="-0.421999">
        <ele>279.0</ele>
        <time>2012-08-20T12:50:07Z</time>
      </trkpt>
      <trkpt lat="39.799309" lon="-0.421754">
        <ele>278.6</ele>
        <time>2012-08-20T12:50:12Z</time>
      </trkpt>
      <trkpt lat="39.799283" lon="-0.421697">
        <ele>278.2</ele>
        <time>2012-08-20T12:50:13Z</time>
      </trkpt>
      <trkpt lat="39.799254" lon="-0.421634">
        <ele>277.8</ele>
        <time>2012-08-20T12:50:14Z</time>
      </trkpt>
      <trkpt lat="39.799226" lon="-0.421572">
        <ele>277.2</ele>
        <time>2012-08-20T12:50:15Z</time>
      </trkpt>
      <trkpt lat="39.799196" lon="-0.421508">
        <ele>276.8</ele>
        <time>2012-08-20T12:50:16Z</time>
      </trkpt>
      <trkpt lat="39.799049" lon="-0.421201">
        <ele>276.8</ele>
        <time>2012-08-20T12:50:21Z</time>
      </trkpt>
      <trkpt lat="39.798871" lon="-0.420868">
        <ele>276.8</ele>
        <time>2012-08-20T12:50:28Z</time>
      </trkpt>
      <trkpt lat="39.798827" lon="-0.420779">
        <ele>276.8</ele>
        <time>2012-08-20T12:50:30Z</time>
      </trkpt>
      <trkpt lat="39.798718" lon="-0.420580">
        <ele>276.8</ele>
        <time>2012-08-20T12:50:35Z</time>
      </trkpt>
      <trkpt lat="39.798569" lon="-0.420359">
        <ele>276.8</ele>
        <time>2012-08-20T12:50:41Z</time>
      </trkpt>
      <trkpt lat="39.798468" lon="-0.420286">
        <ele>276.8</ele>
        <time>2012-08-20T12:50:44Z</time>
      </trkpt>
      <trkpt lat="39.798395" lon="-0.420283">
        <ele>276.8</ele>
        <time>2012-08-20T12:50:46Z</time>
      </trkpt>
      <trkpt lat="39.798282" lon="-0.420358">
        <ele>276.8</ele>
        <time>2012-08-20T12:50:50Z</time>
      </trkpt>
      <trkpt lat="39.798209" lon="-0.420415">
        <ele>277.4</ele>
        <time>2012-08-20T12:50:53Z</time>
      </trkpt>
      <trkpt lat="39.798185" lon="-0.420427">
        <ele>277.8</ele>
        <time>2012-08-20T12:50:54Z</time>
      </trkpt>
      <trkpt lat="39.798160" lon="-0.420425">
        <ele>278.2</ele>
        <time>2012-08-20T12:50:55Z</time>
      </trkpt>
      <trkpt lat="39.798136" lon="-0.420414">
        <ele>278.6</ele>
        <time>2012-08-20T12:50:56Z</time>
      </trkpt>
      <trkpt lat="39.798114" lon="-0.420398">
        <ele>279.0</ele>
        <time>2012-08-20T12:50:57Z</time>
      </trkpt>
      <trkpt lat="39.798039" lon="-0.420291">
        <ele>279.0</ele>
        <time>2012-08-20T12:51:01Z</time>
      </trkpt>
      <trkpt lat="39.797901" lon="-0.420092">
        <ele>279.0</ele>
        <time>2012-08-20T12:51:07Z</time>
      </trkpt>
      <trkpt lat="39.797851" lon="-0.420012">
        <ele>279.0</ele>
        <time>2012-08-20T12:51:09Z</time>
      </trkpt>
      <trkpt lat="39.797716" lon="-0.419818">
        <ele>279.0</ele>
        <time>2012-08-20T12:51:14Z</time>
      </trkpt>
      <trkpt lat="39.797547" lon="-0.419572">
        <ele>279.0</ele>
        <time>2012-08-20T12:51:20Z</time>
      </trkpt>
      <trkpt lat="39.797368" lon="-0.419298">
        <ele>279.0</ele>
        <time>2012-08-20T12:51:26Z</time>
      </trkpt>
      <trkpt lat="39.797334" lon="-0.419256">
        <ele>279.0</ele>
        <time>2012-08-20T12:51:27Z</time>
      </trkpt>
      <trkpt lat="39.797165" lon="-0.419002">
        <ele>279.0</ele>
        <time>2012-08-20T12:51:33Z</time>
      </trkpt>
      <trkpt lat="39.797141" lon="-0.418963">
        <ele>278.2</ele>
        <time>2012-08-20T12:51:34Z</time>
      </trkpt>
      <trkpt lat="39.797115" lon="-0.418924">
        <ele>277.8</ele>
        <time>2012-08-20T12:51:35Z</time>
      </trkpt>
      <trkpt lat="39.797089" lon="-0.418882">
        <ele>277.4</ele>
        <time>2012-08-20T12:51:36Z</time>
      </trkpt>
      <trkpt lat="39.797061" lon="-0.418844">
        <ele>276.8</ele>
        <time>2012-08-20T12:51:37Z</time>
      </trkpt>
      <trkpt lat="39.796943" lon="-0.418678">
        <ele>276.8</ele>
        <time>2012-08-20T12:51:41Z</time>
      </trkpt>
      <trkpt lat="39.796909" lon="-0.418635">
        <ele>276.8</ele>
        <time>2012-08-20T12:51:42Z</time>
      </trkpt>
      <trkpt lat="39.796775" lon="-0.418439">
        <ele>276.8</ele>
        <time>2012-08-20T12:51:46Z</time>
      </trkpt>
      <trkpt lat="39.796448" lon="-0.417979">
        <ele>276.8</ele>
        <time>2012-08-20T12:51:55Z</time>
      </trkpt>
      <trkpt lat="39.796344" lon="-0.417820">
        <ele>276.4</ele>
        <time>2012-08-20T12:51:58Z</time>
      </trkpt>
      <trkpt lat="39.796308" lon="-0.417768">
        <ele>275.6</ele>
        <time>2012-08-20T12:51:59Z</time>
      </trkpt>
      <trkpt lat="39.796277" lon="-0.417715">
        <ele>275.2</ele>
        <time>2012-08-20T12:52:00Z</time>
      </trkpt>
      <trkpt lat="39.796241" lon="-0.417668">
        <ele>274.8</ele>
        <time>2012-08-20T12:52:01Z</time>
      </trkpt>
      <trkpt lat="39.796022" lon="-0.417318">
        <ele>274.8</ele>
        <time>2012-08-20T12:52:07Z</time>
      </trkpt>
      <trkpt lat="39.795659" lon="-0.416789">
        <ele>274.8</ele>
        <time>2012-08-20T12:52:16Z</time>
      </trkpt>
      <trkpt lat="39.795361" lon="-0.416378">
        <ele>273.8</ele>
        <time>2012-08-20T12:52:23Z</time>
      </trkpt>
      <trkpt lat="39.795320" lon="-0.416320">
        <ele>273.4</ele>
        <time>2012-08-20T12:52:24Z</time>
      </trkpt>
      <trkpt lat="39.795278" lon="-0.416267">
        <ele>273.0</ele>
        <time>2012-08-20T12:52:25Z</time>
      </trkpt>
      <trkpt lat="39.795239" lon="-0.416208">
        <ele>272.6</ele>
        <time>2012-08-20T12:52:26Z</time>
      </trkpt>
      <trkpt lat="39.795040" lon="-0.415924">
        <ele>272.6</ele>
        <time>2012-08-20T12:52:31Z</time>
      </trkpt>
      <trkpt lat="39.794815" lon="-0.415588">
        <ele>272.6</ele>
        <time>2012-08-20T12:52:37Z</time>
      </trkpt>
      <trkpt lat="39.794618" lon="-0.415323">
        <ele>272.6</ele>
        <time>2012-08-20T12:52:42Z</time>
      </trkpt>
      <trkpt lat="39.794431" lon="-0.415054">
        <ele>272.6</ele>
        <time>2012-08-20T12:52:47Z</time>
      </trkpt>
      <trkpt lat="39.794352" lon="-0.414939">
        <ele>272.2</ele>
        <time>2012-08-20T12:52:49Z</time>
      </trkpt>
      <trkpt lat="39.794311" lon="-0.414883">
        <ele>271.6</ele>
        <time>2012-08-20T12:52:50Z</time>
      </trkpt>
      <trkpt lat="39.794272" lon="-0.414825">
        <ele>271.2</ele>
        <time>2012-08-20T12:52:51Z</time>
      </trkpt>
      <trkpt lat="39.794232" lon="-0.414762">
        <ele>270.8</ele>
        <time>2012-08-20T12:52:52Z</time>
      </trkpt>
      <trkpt lat="39.794191" lon="-0.414702">
        <ele>270.4</ele>
        <time>2012-08-20T12:52:53Z</time>
      </trkpt>
      <trkpt lat="39.794109" lon="-0.414580">
        <ele>270.4</ele>
        <time>2012-08-20T12:52:55Z</time>
      </trkpt>
      <trkpt lat="39.793901" lon="-0.414282">
        <ele>270.4</ele>
        <time>2012-08-20T12:53:00Z</time>
      </trkpt>
      <trkpt lat="39.793582" lon="-0.413904">
        <ele>270.4</ele>
        <time>2012-08-20T12:53:07Z</time>
      </trkpt>
      <trkpt lat="39.793352" lon="-0.413665">
        <ele>270.4</ele>
        <time>2012-08-20T12:53:12Z</time>
      </trkpt>
      <trkpt lat="39.793304" lon="-0.413615">
        <ele>270.4</ele>
        <time>2012-08-20T12:53:13Z</time>
      </trkpt>
      <trkpt lat="39.793256" lon="-0.413572">
        <ele>270.0</ele>
        <time>2012-08-20T12:53:14Z</time>
      </trkpt>
      <trkpt lat="39.793205" lon="-0.413534">
        <ele>269.6</ele>
        <time>2012-08-20T12:53:15Z</time>
      </trkpt>
      <trkpt lat="39.793155" lon="-0.413495">
        <ele>269.2</ele>
        <time>2012-08-20T12:53:16Z</time>
      </trkpt>
      <trkpt lat="39.793105" lon="-0.413456">
        <ele>268.8</ele>
        <time>2012-08-20T12:53:17Z</time>
      </trkpt>
      <trkpt lat="39.793057" lon="-0.413416">
        <ele>268.4</ele>
        <time>2012-08-20T12:53:18Z</time>
      </trkpt>
      <trkpt lat="39.792955" lon="-0.413342">
        <ele>268.4</ele>
        <time>2012-08-20T12:53:20Z</time>
      </trkpt>
      <trkpt lat="39.792606" lon="-0.413117">
        <ele>268.4</ele>
        <time>2012-08-20T12:53:27Z</time>
      </trkpt>
      <trkpt lat="39.792206" lon="-0.412849">
        <ele>268.4</ele>
        <time>2012-08-20T12:53:35Z</time>
      </trkpt>
      <trkpt lat="39.791898" lon="-0.412664">
        <ele>268.4</ele>
        <time>2012-08-20T12:53:41Z</time>
      </trkpt>
      <trkpt lat="39.791850" lon="-0.412634">
        <ele>268.4</ele>
        <time>2012-08-20T12:53:42Z</time>
      </trkpt>
      <trkpt lat="39.791637" lon="-0.412472">
        <ele>268.4</ele>
        <time>2012-08-20T12:53:47Z</time>
      </trkpt>
      <trkpt lat="39.791592" lon="-0.412440">
        <ele>268.0</ele>
        <time>2012-08-20T12:53:48Z</time>
      </trkpt>
      <trkpt lat="39.791546" lon="-0.412404">
        <ele>267.6</ele>
        <time>2012-08-20T12:53:49Z</time>
      </trkpt>
      <trkpt lat="39.791499" lon="-0.412374">
        <ele>267.0</ele>
        <time>2012-08-20T12:53:50Z</time>
      </trkpt>
      <trkpt lat="39.791447" lon="-0.412350">
        <ele>266.6</ele>
        <time>2012-08-20T12:53:51Z</time>
      </trkpt>
      <trkpt lat="39.791400" lon="-0.412323">
        <ele>266.2</ele>
        <time>2012-08-20T12:53:52Z</time>
      </trkpt>
      <trkpt lat="39.791314" lon="-0.412268">
        <ele>266.2</ele>
        <time>2012-08-20T12:53:54Z</time>
      </trkpt>
      <trkpt lat="39.791016" lon="-0.412071">
        <ele>266.2</ele>
        <time>2012-08-20T12:54:01Z</time>
      </trkpt>
      <trkpt lat="39.790818" lon="-0.411936">
        <ele>266.2</ele>
        <time>2012-08-20T12:54:06Z</time>
      </trkpt>
      <trkpt lat="39.790780" lon="-0.411902">
        <ele>266.2</ele>
        <time>2012-08-20T12:54:07Z</time>
      </trkpt>
      <trkpt lat="39.790523" lon="-0.411714">
        <ele>266.2</ele>
        <time>2012-08-20T12:54:13Z</time>
      </trkpt>
      <trkpt lat="39.790184" lon="-0.411499">
        <ele>266.2</ele>
        <time>2012-08-20T12:54:20Z</time>
      </trkpt>
      <trkpt lat="39.790031" lon="-0.411413">
        <ele>265.8</ele>
        <time>2012-08-20T12:54:23Z</time>
      </trkpt>
      <trkpt lat="39.789981" lon="-0.411378">
        <ele>265.4</ele>
        <time>2012-08-20T12:54:24Z</time>
      </trkpt>
      <trkpt lat="39.789930" lon="-0.411347">
        <ele>265.0</ele>
        <time>2012-08-20T12:54:25Z</time>
      </trkpt>
      <trkpt lat="39.789881" lon="-0.411312">
        <ele>264.6</ele>
        <time>2012-08-20T12:54:26Z</time>
      </trkpt>
      <trkpt lat="39.789832" lon="-0.411279">
        <ele>264.2</ele>
        <time>2012-08-20T12:54:27Z</time>
      </trkpt>
      <trkpt lat="39.789508" lon="-0.411073">
        <ele>264.2</ele>
        <time>2012-08-20T12:54:34Z</time>
      </trkpt>
      <trkpt lat="39.789138" lon="-0.410823">
        <ele>264.2</ele>
        <time>2012-08-20T12:54:42Z</time>
      </trkpt>
      <trkpt lat="39.789095" lon="-0.410789">
        <ele>264.2</ele>
        <time>2012-08-20T12:54:43Z</time>
      </trkpt>
      <trkpt lat="39.789009" lon="-0.410726">
        <ele>263.8</ele>
        <time>2012-08-20T12:54:45Z</time>
      </trkpt>
      <trkpt lat="39.788959" lon="-0.410701">
        <ele>263.4</ele>
        <time>2012-08-20T12:54:46Z</time>
      </trkpt>
      <trkpt lat="39.788911" lon="-0.410666">
        <ele>263.0</ele>
        <time>2012-08-20T12:54:47Z</time>
      </trkpt>
      <trkpt lat="39.788866" lon="-0.410628">
        <ele>262.6</ele>
        <time>2012-08-20T12:54:48Z</time>
      </trkpt>
      <trkpt lat="39.788814" lon="-0.410595">
        <ele>262.2</ele>
        <time>2012-08-20T12:54:49Z</time>
      </trkpt>
      <trkpt lat="39.788767" lon="-0.410560">
        <ele>262.2</ele>
        <time>2012-08-20T12:54:50Z</time>
      </trkpt>
      <trkpt lat="39.788619" lon="-0.410458">
        <ele>262.2</ele>
        <time>2012-08-20T12:54:53Z</time>
      </trkpt>
      <trkpt lat="39.788570" lon="-0.410435">
        <ele>262.2</ele>
        <time>2012-08-20T12:54:54Z</time>
      </trkpt>
      <trkpt lat="39.788332" lon="-0.410290">
        <ele>262.2</ele>
        <time>2012-08-20T12:54:59Z</time>
      </trkpt>
      <trkpt lat="39.788135" lon="-0.410161">
        <ele>262.2</ele>
        <time>2012-08-20T12:55:03Z</time>
      </trkpt>
      <trkpt lat="39.788035" lon="-0.410096">
        <ele>262.2</ele>
        <time>2012-08-20T12:55:05Z</time>
      </trkpt>
      <trkpt lat="39.787709" lon="-0.409898">
        <ele>262.2</ele>
        <time>2012-08-20T12:55:12Z</time>
      </trkpt>
      <trkpt lat="39.787424" lon="-0.409691">
        <ele>261.8</ele>
        <time>2012-08-20T12:55:18Z</time>
      </trkpt>
      <trkpt lat="39.787382" lon="-0.409656">
        <ele>261.4</ele>
        <time>2012-08-20T12:55:19Z</time>
      </trkpt>
      <trkpt lat="39.787338" lon="-0.409618">
        <ele>261.0</ele>
        <time>2012-08-20T12:55:20Z</time>
      </trkpt>
    </trkseg>
  </trk>
  <trk>
    <name>T3303249-18</name>
    <cmt>La ruta empieza en Ojos Negros. Hasta Santa Eulalia va por una carretera comarcal apenas transitada. Hay un tramo de unos 40 km durante el puerto del Escandón que no aparece reflejado en el track porque me quedé sin batería en el GPS pero la vía verde no tiene pérdida en esa zona</cmt>
    <desc>La ruta empieza en Ojos Negros. Hasta Santa Eulalia va por una carretera comarcal apenas transitada. Hay un tramo de unos 40 km durante el puerto del Escandón que no aparece reflejado en el track porque me quedé sin batería en el GPS pero la vía verde no tiene pérdida en esa zona</desc>
    <trkseg>
      <trkpt lat="39.787295" lon="-0.409580">
        <ele>260.6</ele>
        <time>2012-08-20T12:55:21Z</time>
      </trkpt>
      <trkpt lat="39.787250" lon="-0.409541">
        <ele>260.2</ele>
        <time>2012-08-20T12:55:22Z</time>
      </trkpt>
      <trkpt lat="39.787169" lon="-0.409458">
        <ele>260.2</ele>
        <time>2012-08-20T12:55:24Z</time>
      </trkpt>
      <trkpt lat="39.787094" lon="-0.409359">
        <ele>260.2</ele>
        <time>2012-08-20T12:55:26Z</time>
      </trkpt>
      <trkpt lat="39.787066" lon="-0.409305">
        <ele>260.2</ele>
        <time>2012-08-20T12:55:27Z</time>
      </trkpt>
      <trkpt lat="39.786973" lon="-0.409156">
        <ele>260.2</ele>
        <time>2012-08-20T12:55:30Z</time>
      </trkpt>
      <trkpt lat="39.786942" lon="-0.409099">
        <ele>260.2</ele>
        <time>2012-08-20T12:55:31Z</time>
      </trkpt>
      <trkpt lat="39.786754" lon="-0.408664">
        <ele>260.2</ele>
        <time>2012-08-20T12:55:38Z</time>
      </trkpt>
      <trkpt lat="39.786710" lon="-0.408528">
        <ele>260.2</ele>
        <time>2012-08-20T12:55:40Z</time>
      </trkpt>
      <trkpt lat="39.786645" lon="-0.408247">
        <ele>260.2</ele>
        <time>2012-08-20T12:55:44Z</time>
      </trkpt>
      <trkpt lat="39.786583" lon="-0.407965">
        <ele>259.8</ele>
        <time>2012-08-20T12:55:48Z</time>
      </trkpt>
      <trkpt lat="39.786572" lon="-0.407899">
        <ele>259.2</ele>
        <time>2012-08-20T12:55:49Z</time>
      </trkpt>
      <trkpt lat="39.786560" lon="-0.407834">
        <ele>258.8</ele>
        <time>2012-08-20T12:55:50Z</time>
      </trkpt>
      <trkpt lat="39.786545" lon="-0.407770">
        <ele>258.4</ele>
        <time>2012-08-20T12:55:51Z</time>
      </trkpt>
      <trkpt lat="39.786535" lon="-0.407705">
        <ele>258.0</ele>
        <time>2012-08-20T12:55:52Z</time>
      </trkpt>
      <trkpt lat="39.786491" lon="-0.407501">
        <ele>258.0</ele>
        <time>2012-08-20T12:55:55Z</time>
      </trkpt>
      <trkpt lat="39.786470" lon="-0.407366">
        <ele>258.0</ele>
        <time>2012-08-20T12:55:57Z</time>
      </trkpt>
      <trkpt lat="39.786376" lon="-0.406951">
        <ele>258.0</ele>
        <time>2012-08-20T12:56:03Z</time>
      </trkpt>
      <trkpt lat="39.786324" lon="-0.406621">
        <ele>258.0</ele>
        <time>2012-08-20T12:56:08Z</time>
      </trkpt>
      <trkpt lat="39.786265" lon="-0.406381">
        <ele>258.0</ele>
        <time>2012-08-20T12:56:12Z</time>
      </trkpt>
      <trkpt lat="39.786243" lon="-0.406264">
        <ele>258.0</ele>
        <time>2012-08-20T12:56:14Z</time>
      </trkpt>
      <trkpt lat="39.786171" lon="-0.405890">
        <ele>258.0</ele>
        <time>2012-08-20T12:56:21Z</time>
      </trkpt>
      <trkpt lat="39.786109" lon="-0.405585">
        <ele>258.0</ele>
        <time>2012-08-20T12:56:27Z</time>
      </trkpt>
      <trkpt lat="39.786036" lon="-0.405170">
        <ele>258.0</ele>
        <time>2012-08-20T12:56:35Z</time>
      </trkpt>
      <trkpt lat="39.785952" lon="-0.404747">
        <ele>258.0</ele>
        <time>2012-08-20T12:56:43Z</time>
      </trkpt>
      <trkpt lat="39.785880" lon="-0.404321">
        <ele>258.0</ele>
        <time>2012-08-20T12:56:51Z</time>
      </trkpt>
      <trkpt lat="39.785780" lon="-0.403831">
        <ele>258.0</ele>
        <time>2012-08-20T12:57:00Z</time>
      </trkpt>
      <trkpt lat="39.785707" lon="-0.403464">
        <ele>258.0</ele>
        <time>2012-08-20T12:57:06Z</time>
      </trkpt>
      <trkpt lat="39.785701" lon="-0.403402">
        <ele>258.0</ele>
        <time>2012-08-20T12:57:07Z</time>
      </trkpt>
      <trkpt lat="39.785667" lon="-0.403156">
        <ele>258.0</ele>
        <time>2012-08-20T12:57:11Z</time>
      </trkpt>
      <trkpt lat="39.785626" lon="-0.402696">
        <ele>258.0</ele>
        <time>2012-08-20T12:57:19Z</time>
      </trkpt>
      <trkpt lat="39.785630" lon="-0.402480">
        <ele>258.0</ele>
        <time>2012-08-20T12:57:23Z</time>
      </trkpt>
      <trkpt lat="39.785636" lon="-0.402365">
        <ele>258.0</ele>
        <time>2012-08-20T12:57:25Z</time>
      </trkpt>
      <trkpt lat="39.785679" lon="-0.402088">
        <ele>258.0</ele>
        <time>2012-08-20T12:57:30Z</time>
      </trkpt>
      <trkpt lat="39.785684" lon="-0.401975">
        <ele>258.0</ele>
        <time>2012-08-20T12:57:32Z</time>
      </trkpt>
      <trkpt lat="39.785700" lon="-0.401865">
        <ele>258.0</ele>
        <time>2012-08-20T12:57:34Z</time>
      </trkpt>
      <trkpt lat="39.785758" lon="-0.401589">
        <ele>258.0</ele>
        <time>2012-08-20T12:57:39Z</time>
      </trkpt>
      <trkpt lat="39.785846" lon="-0.401220">
        <ele>258.0</ele>
        <time>2012-08-20T12:57:46Z</time>
      </trkpt>
      <trkpt lat="39.785903" lon="-0.400954">
        <ele>258.0</ele>
        <time>2012-08-20T12:57:51Z</time>
      </trkpt>
      <trkpt lat="39.785914" lon="-0.400902">
        <ele>258.0</ele>
        <time>2012-08-20T12:57:52Z</time>
      </trkpt>
      <trkpt lat="39.785986" lon="-0.400604">
        <ele>258.0</ele>
        <time>2012-08-20T12:57:58Z</time>
      </trkpt>
      <trkpt lat="39.786077" lon="-0.400205">
        <ele>258.0</ele>
        <time>2012-08-20T12:58:05Z</time>
      </trkpt>
      <trkpt lat="39.786129" lon="-0.399976">
        <ele>258.4</ele>
        <time>2012-08-20T12:58:09Z</time>
      </trkpt>
      <trkpt lat="39.786141" lon="-0.399915">
        <ele>259.2</ele>
        <time>2012-08-20T12:58:10Z</time>
      </trkpt>
      <trkpt lat="39.786157" lon="-0.399859">
        <ele>259.8</ele>
        <time>2012-08-20T12:58:11Z</time>
      </trkpt>
      <trkpt lat="39.786169" lon="-0.399808">
        <ele>260.2</ele>
        <time>2012-08-20T12:58:12Z</time>
      </trkpt>
      <trkpt lat="39.786185" lon="-0.399756">
        <ele>260.2</ele>
        <time>2012-08-20T12:58:13Z</time>
      </trkpt>
      <trkpt lat="39.786266" lon="-0.399416">
        <ele>260.2</ele>
        <time>2012-08-20T12:58:19Z</time>
      </trkpt>
      <trkpt lat="39.786271" lon="-0.399361">
        <ele>260.2</ele>
        <time>2012-08-20T12:58:20Z</time>
      </trkpt>
      <trkpt lat="39.786318" lon="-0.399113">
        <ele>260.2</ele>
        <time>2012-08-20T12:58:24Z</time>
      </trkpt>
      <trkpt lat="39.786410" lon="-0.398640">
        <ele>260.2</ele>
        <time>2012-08-20T12:58:32Z</time>
      </trkpt>
      <trkpt lat="39.786506" lon="-0.398279">
        <ele>260.2</ele>
        <time>2012-08-20T12:58:38Z</time>
      </trkpt>
      <trkpt lat="39.786598" lon="-0.397870">
        <ele>260.2</ele>
        <time>2012-08-20T12:58:45Z</time>
      </trkpt>
      <trkpt lat="39.786672" lon="-0.397538">
        <ele>260.2</ele>
        <time>2012-08-20T12:58:51Z</time>
      </trkpt>
      <trkpt lat="39.786735" lon="-0.397217">
        <ele>260.2</ele>
        <time>2012-08-20T12:58:58Z</time>
      </trkpt>
      <trkpt lat="39.786793" lon="-0.397091">
        <ele>260.2</ele>
        <time>2012-08-20T12:59:03Z</time>
      </trkpt>
      <trkpt lat="39.786838" lon="-0.397056">
        <ele>260.2</ele>
        <time>2012-08-20T12:59:06Z</time>
      </trkpt>
      <trkpt lat="39.786900" lon="-0.397067">
        <ele>260.2</ele>
        <time>2012-08-20T12:59:08Z</time>
      </trkpt>
      <trkpt lat="39.787083" lon="-0.397132">
        <ele>260.2</ele>
        <time>2012-08-20T12:59:13Z</time>
      </trkpt>
      <trkpt lat="39.787130" lon="-0.397137">
        <ele>260.2</ele>
        <time>2012-08-20T12:59:14Z</time>
      </trkpt>
      <trkpt lat="39.787304" lon="-0.397120">
        <ele>260.2</ele>
        <time>2012-08-20T12:59:17Z</time>
      </trkpt>
      <trkpt lat="39.787352" lon="-0.397106">
        <ele>259.8</ele>
        <time>2012-08-20T12:59:18Z</time>
      </trkpt>
      <trkpt lat="39.787374" lon="-0.397106">
        <ele>259.4</ele>
        <time>2012-08-20T12:59:19Z</time>
      </trkpt>
      <trkpt lat="39.787391" lon="-0.397102">
        <ele>259.0</ele>
        <time>2012-08-20T12:59:20Z</time>
      </trkpt>
      <trkpt lat="39.787414" lon="-0.397118">
        <ele>258.4</ele>
        <time>2012-08-20T12:59:21Z</time>
      </trkpt>
      <trkpt lat="39.787442" lon="-0.397114">
        <ele>258.0</ele>
        <time>2012-08-20T12:59:22Z</time>
      </trkpt>
      <trkpt lat="39.787512" lon="-0.397035">
        <ele>258.0</ele>
        <time>2012-08-20T12:59:25Z</time>
      </trkpt>
      <trkpt lat="39.787546" lon="-0.396840">
        <ele>258.0</ele>
        <time>2012-08-20T12:59:30Z</time>
      </trkpt>
      <trkpt lat="39.787546" lon="-0.396748">
        <ele>258.0</ele>
        <time>2012-08-20T12:59:32Z</time>
      </trkpt>
      <trkpt lat="39.787536" lon="-0.396528">
        <ele>258.0</ele>
        <time>2012-08-20T12:59:37Z</time>
      </trkpt>
      <trkpt lat="39.787538" lon="-0.396298">
        <ele>258.0</ele>
        <time>2012-08-20T12:59:42Z</time>
      </trkpt>
      <trkpt lat="39.787506" lon="-0.395906">
        <ele>258.0</ele>
        <time>2012-08-20T12:59:50Z</time>
      </trkpt>
      <trkpt lat="39.787499" lon="-0.395636">
        <ele>258.0</ele>
        <time>2012-08-20T12:59:56Z</time>
      </trkpt>
      <trkpt lat="39.787457" lon="-0.395395">
        <ele>258.0</ele>
        <time>2012-08-20T13:00:02Z</time>
      </trkpt>
      <trkpt lat="39.787472" lon="-0.395144">
        <ele>258.0</ele>
        <time>2012-08-20T13:00:07Z</time>
      </trkpt>
      <trkpt lat="39.787501" lon="-0.394800">
        <ele>258.0</ele>
        <time>2012-08-20T13:00:14Z</time>
      </trkpt>
      <trkpt lat="39.787483" lon="-0.394681">
        <ele>258.6</ele>
        <time>2012-08-20T13:00:17Z</time>
      </trkpt>
      <trkpt lat="39.787484" lon="-0.394647">
        <ele>259.0</ele>
        <time>2012-08-20T13:00:18Z</time>
      </trkpt>
      <trkpt lat="39.787485" lon="-0.394612">
        <ele>259.4</ele>
        <time>2012-08-20T13:00:19Z</time>
      </trkpt>
      <trkpt lat="39.787481" lon="-0.394575">
        <ele>259.8</ele>
        <time>2012-08-20T13:00:20Z</time>
      </trkpt>
      <trkpt lat="39.787479" lon="-0.394537">
        <ele>260.4</ele>
        <time>2012-08-20T13:00:21Z</time>
      </trkpt>
      <trkpt lat="39.787474" lon="-0.394323">
        <ele>260.4</ele>
        <time>2012-08-20T13:00:26Z</time>
      </trkpt>
      <trkpt lat="39.787381" lon="-0.394126">
        <ele>260.4</ele>
        <time>2012-08-20T13:00:31Z</time>
      </trkpt>
      <trkpt lat="39.787294" lon="-0.394025">
        <ele>260.8</ele>
        <time>2012-08-20T13:00:34Z</time>
      </trkpt>
      <trkpt lat="39.787258" lon="-0.394000">
        <ele>261.2</ele>
        <time>2012-08-20T13:00:35Z</time>
      </trkpt>
      <trkpt lat="39.787222" lon="-0.393979">
        <ele>261.6</ele>
        <time>2012-08-20T13:00:36Z</time>
      </trkpt>
      <trkpt lat="39.787188" lon="-0.393966">
        <ele>262.0</ele>
        <time>2012-08-20T13:00:37Z</time>
      </trkpt>
      <trkpt lat="39.787164" lon="-0.393944">
        <ele>262.4</ele>
        <time>2012-08-20T13:00:38Z</time>
      </trkpt>
      <trkpt lat="39.787111" lon="-0.393909">
        <ele>262.4</ele>
        <time>2012-08-20T13:00:40Z</time>
      </trkpt>
      <trkpt lat="39.787028" lon="-0.393723">
        <ele>262.4</ele>
        <time>2012-08-20T13:00:44Z</time>
      </trkpt>
      <trkpt lat="39.786992" lon="-0.393569">
        <ele>262.4</ele>
        <time>2012-08-20T13:00:46Z</time>
      </trkpt>
      <trkpt lat="39.786963" lon="-0.393414">
        <ele>262.4</ele>
        <time>2012-08-20T13:00:48Z</time>
      </trkpt>
      <trkpt lat="39.786817" lon="-0.392939">
        <ele>262.4</ele>
        <time>2012-08-20T13:00:55Z</time>
      </trkpt>
      <trkpt lat="39.786633" lon="-0.392449">
        <ele>262.4</ele>
        <time>2012-08-20T13:01:03Z</time>
      </trkpt>
      <trkpt lat="39.786498" lon="-0.392171">
        <ele>262.4</ele>
        <time>2012-08-20T13:01:08Z</time>
      </trkpt>
      <trkpt lat="39.786437" lon="-0.392064">
        <ele>262.4</ele>
        <time>2012-08-20T13:01:10Z</time>
      </trkpt>
      <trkpt lat="39.786293" lon="-0.391851">
        <ele>262.4</ele>
        <time>2012-08-20T13:01:14Z</time>
      </trkpt>
      <trkpt lat="39.786225" lon="-0.391760">
        <ele>262.4</ele>
        <time>2012-08-20T13:01:16Z</time>
      </trkpt>
      <trkpt lat="39.786015" lon="-0.391447">
        <ele>262.4</ele>
        <time>2012-08-20T13:01:23Z</time>
      </trkpt>
      <trkpt lat="39.785811" lon="-0.391205">
        <ele>262.4</ele>
        <time>2012-08-20T13:01:29Z</time>
      </trkpt>
      <trkpt lat="39.785713" lon="-0.391085">
        <ele>262.4</ele>
        <time>2012-08-20T13:01:32Z</time>
      </trkpt>
      <trkpt lat="39.785572" lon="-0.390919">
        <ele>262.4</ele>
        <time>2012-08-20T13:01:36Z</time>
      </trkpt>
      <trkpt lat="39.785412" lon="-0.390727">
        <ele>262.4</ele>
        <time>2012-08-20T13:01:41Z</time>
      </trkpt>
      <trkpt lat="39.785376" lon="-0.390682">
        <ele>262.4</ele>
        <time>2012-08-20T13:01:42Z</time>
      </trkpt>
      <trkpt lat="39.785183" lon="-0.390439">
        <ele>262.4</ele>
        <time>2012-08-20T13:01:49Z</time>
      </trkpt>
      <trkpt lat="39.785095" lon="-0.390321">
        <ele>262.4</ele>
        <time>2012-08-20T13:01:53Z</time>
      </trkpt>
      <trkpt lat="39.784943" lon="-0.390116">
        <ele>262.4</ele>
        <time>2012-08-20T13:01:59Z</time>
      </trkpt>
      <trkpt lat="39.784916" lon="-0.390082">
        <ele>262.8</ele>
        <time>2012-08-20T13:02:00Z</time>
      </trkpt>
      <trkpt lat="39.784889" lon="-0.390048">
        <ele>263.2</ele>
        <time>2012-08-20T13:02:01Z</time>
      </trkpt>
      <trkpt lat="39.784863" lon="-0.390015">
        <ele>263.6</ele>
        <time>2012-08-20T13:02:02Z</time>
      </trkpt>
      <trkpt lat="39.784837" lon="-0.389985">
        <ele>264.0</ele>
        <time>2012-08-20T13:02:03Z</time>
      </trkpt>
      <trkpt lat="39.784810" lon="-0.389950">
        <ele>264.4</ele>
        <time>2012-08-20T13:02:04Z</time>
      </trkpt>
      <trkpt lat="39.784761" lon="-0.389883">
        <ele>264.4</ele>
        <time>2012-08-20T13:02:06Z</time>
      </trkpt>
      <trkpt lat="39.784607" lon="-0.389703">
        <ele>264.4</ele>
        <time>2012-08-20T13:02:13Z</time>
      </trkpt>
      <trkpt lat="39.784450" lon="-0.389484">
        <ele>264.4</ele>
        <time>2012-08-20T13:02:21Z</time>
      </trkpt>
      <trkpt lat="39.784343" lon="-0.389354">
        <ele>264.4</ele>
        <time>2012-08-20T13:02:27Z</time>
      </trkpt>
      <trkpt lat="39.784329" lon="-0.389334">
        <ele>264.4</ele>
        <time>2012-08-20T13:02:29Z</time>
      </trkpt>
      <trkpt lat="39.784329" lon="-0.389334">
        <ele>264.4</ele>
        <time>2012-08-20T13:02:31Z</time>
      </trkpt>
      <trkpt lat="39.784279" lon="-0.389271">
        <ele>264.4</ele>
        <time>2012-08-20T13:03:40Z</time>
      </trkpt>
      <trkpt lat="39.784242" lon="-0.389226">
        <ele>264.4</ele>
        <time>2012-08-20T13:03:42Z</time>
      </trkpt>
      <trkpt lat="39.784152" lon="-0.389119">
        <ele>264.4</ele>
        <time>2012-08-20T13:03:46Z</time>
      </trkpt>
      <trkpt lat="39.784011" lon="-0.388940">
        <ele>264.4</ele>
        <time>2012-08-20T13:03:52Z</time>
      </trkpt>
      <trkpt lat="39.783954" lon="-0.388866">
        <ele>264.0</ele>
        <time>2012-08-20T13:03:54Z</time>
      </trkpt>
      <trkpt lat="39.783924" lon="-0.388828">
        <ele>263.4</ele>
        <time>2012-08-20T13:03:55Z</time>
      </trkpt>
      <trkpt lat="39.783893" lon="-0.388790">
        <ele>262.6</ele>
        <time>2012-08-20T13:03:56Z</time>
      </trkpt>
      <trkpt lat="39.783859" lon="-0.388749">
        <ele>262.2</ele>
        <time>2012-08-20T13:03:57Z</time>
      </trkpt>
      <trkpt lat="39.783824" lon="-0.388705">
        <ele>262.2</ele>
        <time>2012-08-20T13:03:58Z</time>
      </trkpt>
      <trkpt lat="39.783590" lon="-0.388421">
        <ele>262.2</ele>
        <time>2012-08-20T13:04:04Z</time>
      </trkpt>
      <trkpt lat="39.783510" lon="-0.388323">
        <ele>261.8</ele>
        <time>2012-08-20T13:04:06Z</time>
      </trkpt>
      <trkpt lat="39.783469" lon="-0.388273">
        <ele>261.4</ele>
        <time>2012-08-20T13:04:07Z</time>
      </trkpt>
      <trkpt lat="39.783427" lon="-0.388220">
        <ele>261.0</ele>
        <time>2012-08-20T13:04:08Z</time>
      </trkpt>
      <trkpt lat="39.783383" lon="-0.388165">
        <ele>260.6</ele>
        <time>2012-08-20T13:04:09Z</time>
      </trkpt>
      <trkpt lat="39.783340" lon="-0.388111">
        <ele>260.2</ele>
        <time>2012-08-20T13:04:10Z</time>
      </trkpt>
      <trkpt lat="39.783036" lon="-0.387726">
        <ele>260.2</ele>
        <time>2012-08-20T13:04:17Z</time>
      </trkpt>
      <trkpt lat="39.782993" lon="-0.387670">
        <ele>259.8</ele>
        <time>2012-08-20T13:04:18Z</time>
      </trkpt>
      <trkpt lat="39.782949" lon="-0.387614">
        <ele>259.4</ele>
        <time>2012-08-20T13:04:19Z</time>
      </trkpt>
      <trkpt lat="39.782906" lon="-0.387558">
        <ele>259.0</ele>
        <time>2012-08-20T13:04:20Z</time>
      </trkpt>
      <trkpt lat="39.782863" lon="-0.387502">
        <ele>258.2</ele>
        <time>2012-08-20T13:04:21Z</time>
      </trkpt>
      <trkpt lat="39.782685" lon="-0.387280">
        <ele>258.2</ele>
        <time>2012-08-20T13:04:25Z</time>
      </trkpt>
      <trkpt lat="39.782319" lon="-0.386819">
        <ele>258.2</ele>
        <time>2012-08-20T13:04:33Z</time>
      </trkpt>
      <trkpt lat="39.782043" lon="-0.386457">
        <ele>257.8</ele>
        <time>2012-08-20T13:04:39Z</time>
      </trkpt>
      <trkpt lat="39.781995" lon="-0.386395">
        <ele>257.4</ele>
        <time>2012-08-20T13:04:40Z</time>
      </trkpt>
      <trkpt lat="39.781950" lon="-0.386332">
        <ele>257.0</ele>
        <time>2012-08-20T13:04:41Z</time>
      </trkpt>
      <trkpt lat="39.781908" lon="-0.386269">
        <ele>256.4</ele>
        <time>2012-08-20T13:04:42Z</time>
      </trkpt>
      <trkpt lat="39.781867" lon="-0.386204">
        <ele>256.0</ele>
        <time>2012-08-20T13:04:43Z</time>
      </trkpt>
      <trkpt lat="39.781717" lon="-0.385942">
        <ele>256.0</ele>
        <time>2012-08-20T13:04:47Z</time>
      </trkpt>
      <trkpt lat="39.781559" lon="-0.385615">
        <ele>255.6</ele>
        <time>2012-08-20T13:04:52Z</time>
      </trkpt>
      <trkpt lat="39.781540" lon="-0.385550">
        <ele>255.2</ele>
        <time>2012-08-20T13:04:53Z</time>
      </trkpt>
      <trkpt lat="39.781529" lon="-0.385482">
        <ele>254.8</ele>
        <time>2012-08-20T13:04:54Z</time>
      </trkpt>
      <trkpt lat="39.781527" lon="-0.385410">
        <ele>254.4</ele>
        <time>2012-08-20T13:04:55Z</time>
      </trkpt>
      <trkpt lat="39.781529" lon="-0.385340">
        <ele>254.0</ele>
        <time>2012-08-20T13:04:56Z</time>
      </trkpt>
      <trkpt lat="39.781533" lon="-0.385267">
        <ele>254.0</ele>
        <time>2012-08-20T13:04:57Z</time>
      </trkpt>
      <trkpt lat="39.781577" lon="-0.384811">
        <ele>253.4</ele>
        <time>2012-08-20T13:05:02Z</time>
      </trkpt>
      <trkpt lat="39.781593" lon="-0.384698">
        <ele>253.0</ele>
        <time>2012-08-20T13:05:03Z</time>
      </trkpt>
      <trkpt lat="39.781611" lon="-0.384581">
        <ele>252.4</ele>
        <time>2012-08-20T13:05:04Z</time>
      </trkpt>
      <trkpt lat="39.781634" lon="-0.384466">
        <ele>251.8</ele>
        <time>2012-08-20T13:05:05Z</time>
      </trkpt>
      <trkpt lat="39.781660" lon="-0.384352">
        <ele>251.2</ele>
        <time>2012-08-20T13:05:06Z</time>
      </trkpt>
      <trkpt lat="39.781685" lon="-0.384235">
        <ele>250.4</ele>
        <time>2012-08-20T13:05:07Z</time>
      </trkpt>
      <trkpt lat="39.781709" lon="-0.384115">
        <ele>249.6</ele>
        <time>2012-08-20T13:05:08Z</time>
      </trkpt>
      <trkpt lat="39.781728" lon="-0.383992">
        <ele>248.8</ele>
        <time>2012-08-20T13:05:09Z</time>
      </trkpt>
      <trkpt lat="39.781741" lon="-0.383864">
        <ele>248.2</ele>
        <time>2012-08-20T13:05:10Z</time>
      </trkpt>
      <trkpt lat="39.781748" lon="-0.383740">
        <ele>246.8</ele>
        <time>2012-08-20T13:05:11Z</time>
      </trkpt>
      <trkpt lat="39.781751" lon="-0.383619">
        <ele>246.0</ele>
        <time>2012-08-20T13:05:12Z</time>
      </trkpt>
      <trkpt lat="39.781749" lon="-0.383500">
        <ele>245.4</ele>
        <time>2012-08-20T13:05:13Z</time>
      </trkpt>
      <trkpt lat="39.781736" lon="-0.383249">
        <ele>244.8</ele>
        <time>2012-08-20T13:05:15Z</time>
      </trkpt>
      <trkpt lat="39.781730" lon="-0.383123">
        <ele>244.4</ele>
        <time>2012-08-20T13:05:16Z</time>
      </trkpt>
      <trkpt lat="39.781725" lon="-0.383000">
        <ele>244.0</ele>
        <time>2012-08-20T13:05:17Z</time>
      </trkpt>
      <trkpt lat="39.781724" lon="-0.382891">
        <ele>243.6</ele>
        <time>2012-08-20T13:05:18Z</time>
      </trkpt>
      <trkpt lat="39.781723" lon="-0.382794">
        <ele>243.2</ele>
        <time>2012-08-20T13:05:19Z</time>
      </trkpt>
      <trkpt lat="39.781725" lon="-0.382713">
        <ele>243.2</ele>
        <time>2012-08-20T13:05:20Z</time>
      </trkpt>
      <trkpt lat="39.781720" lon="-0.382588">
        <ele>243.8</ele>
        <time>2012-08-20T13:05:22Z</time>
      </trkpt>
      <trkpt lat="39.781717" lon="-0.382543">
        <ele>244.4</ele>
        <time>2012-08-20T13:05:23Z</time>
      </trkpt>
      <trkpt lat="39.781714" lon="-0.382513">
        <ele>245.0</ele>
        <time>2012-08-20T13:05:24Z</time>
      </trkpt>
      <trkpt lat="39.781710" lon="-0.382486">
        <ele>245.6</ele>
        <time>2012-08-20T13:05:25Z</time>
      </trkpt>
      <trkpt lat="39.781707" lon="-0.382458">
        <ele>246.2</ele>
        <time>2012-08-20T13:05:26Z</time>
      </trkpt>
      <trkpt lat="39.781710" lon="-0.382431">
        <ele>246.6</ele>
        <time>2012-08-20T13:05:27Z</time>
      </trkpt>
      <trkpt lat="39.781712" lon="-0.382403">
        <ele>247.2</ele>
        <time>2012-08-20T13:05:28Z</time>
      </trkpt>
      <trkpt lat="39.781714" lon="-0.382375">
        <ele>247.8</ele>
        <time>2012-08-20T13:05:29Z</time>
      </trkpt>
      <trkpt lat="39.781715" lon="-0.382349">
        <ele>248.4</ele>
        <time>2012-08-20T13:05:30Z</time>
      </trkpt>
      <trkpt lat="39.781711" lon="-0.382323">
        <ele>248.4</ele>
        <time>2012-08-20T13:05:31Z</time>
      </trkpt>
      <trkpt lat="39.781705" lon="-0.382243">
        <ele>248.8</ele>
        <time>2012-08-20T13:05:34Z</time>
      </trkpt>
      <trkpt lat="39.781703" lon="-0.382219">
        <ele>249.2</ele>
        <time>2012-08-20T13:05:35Z</time>
      </trkpt>
      <trkpt lat="39.781703" lon="-0.382195">
        <ele>250.0</ele>
        <time>2012-08-20T13:05:36Z</time>
      </trkpt>
      <trkpt lat="39.781703" lon="-0.382169">
        <ele>250.4</ele>
        <time>2012-08-20T13:05:37Z</time>
      </trkpt>
      <trkpt lat="39.781702" lon="-0.382118">
        <ele>250.4</ele>
        <time>2012-08-20T13:05:39Z</time>
      </trkpt>
      <trkpt lat="39.781703" lon="-0.382089">
        <ele>250.4</ele>
        <time>2012-08-20T13:05:40Z</time>
      </trkpt>
      <trkpt lat="39.781743" lon="-0.381888">
        <ele>250.4</ele>
        <time>2012-08-20T13:05:45Z</time>
      </trkpt>
      <trkpt lat="39.781793" lon="-0.381677">
        <ele>250.4</ele>
        <time>2012-08-20T13:05:49Z</time>
      </trkpt>
      <trkpt lat="39.781818" lon="-0.381562">
        <ele>250.4</ele>
        <time>2012-08-20T13:05:51Z</time>
      </trkpt>
      <trkpt lat="39.781931" lon="-0.381104">
        <ele>250.4</ele>
        <time>2012-08-20T13:05:59Z</time>
      </trkpt>
      <trkpt lat="39.782027" lon="-0.380644">
        <ele>250.4</ele>
        <time>2012-08-20T13:06:06Z</time>
      </trkpt>
      <trkpt lat="39.782033" lon="-0.380580">
        <ele>250.4</ele>
        <time>2012-08-20T13:06:07Z</time>
      </trkpt>
      <trkpt lat="39.782075" lon="-0.380127">
        <ele>250.4</ele>
        <time>2012-08-20T13:06:14Z</time>
      </trkpt>
      <trkpt lat="39.782080" lon="-0.379995">
        <ele>250.0</ele>
        <time>2012-08-20T13:06:16Z</time>
      </trkpt>
      <trkpt lat="39.782079" lon="-0.379928">
        <ele>249.6</ele>
        <time>2012-08-20T13:06:17Z</time>
      </trkpt>
      <trkpt lat="39.782076" lon="-0.379860">
        <ele>249.2</ele>
        <time>2012-08-20T13:06:18Z</time>
      </trkpt>
      <trkpt lat="39.782074" lon="-0.379789">
        <ele>248.8</ele>
        <time>2012-08-20T13:06:19Z</time>
      </trkpt>
      <trkpt lat="39.782071" lon="-0.379718">
        <ele>248.4</ele>
        <time>2012-08-20T13:06:20Z</time>
      </trkpt>
      <trkpt lat="39.781998" lon="-0.379178">
        <ele>248.4</ele>
        <time>2012-08-20T13:06:28Z</time>
      </trkpt>
      <trkpt lat="39.781923" lon="-0.378834">
        <ele>248.4</ele>
        <time>2012-08-20T13:06:33Z</time>
      </trkpt>
      <trkpt lat="39.781904" lon="-0.378762">
        <ele>248.0</ele>
        <time>2012-08-20T13:06:34Z</time>
      </trkpt>
      <trkpt lat="39.781882" lon="-0.378689">
        <ele>247.6</ele>
        <time>2012-08-20T13:06:35Z</time>
      </trkpt>
      <trkpt lat="39.781856" lon="-0.378614">
        <ele>247.2</ele>
        <time>2012-08-20T13:06:36Z</time>
      </trkpt>
      <trkpt lat="39.781831" lon="-0.378541">
        <ele>246.8</ele>
        <time>2012-08-20T13:06:37Z</time>
      </trkpt>
      <trkpt lat="39.781803" lon="-0.378469">
        <ele>246.4</ele>
        <time>2012-08-20T13:06:38Z</time>
      </trkpt>
      <trkpt lat="39.781748" lon="-0.378327">
        <ele>246.4</ele>
        <time>2012-08-20T13:06:40Z</time>
      </trkpt>
      <trkpt lat="39.781583" lon="-0.377925">
        <ele>246.4</ele>
        <time>2012-08-20T13:06:46Z</time>
      </trkpt>
      <trkpt lat="39.781479" lon="-0.377671">
        <ele>246.4</ele>
        <time>2012-08-20T13:06:51Z</time>
      </trkpt>
      <trkpt lat="39.781377" lon="-0.377489">
        <ele>246.4</ele>
        <time>2012-08-20T13:06:56Z</time>
      </trkpt>
      <trkpt lat="39.781348" lon="-0.377442">
        <ele>246.4</ele>
        <time>2012-08-20T13:06:57Z</time>
      </trkpt>
      <trkpt lat="39.781279" lon="-0.377343">
        <ele>245.8</ele>
        <time>2012-08-20T13:06:59Z</time>
      </trkpt>
      <trkpt lat="39.781244" lon="-0.377292">
        <ele>245.4</ele>
        <time>2012-08-20T13:07:00Z</time>
      </trkpt>
      <trkpt lat="39.781208" lon="-0.377237">
        <ele>245.0</ele>
        <time>2012-08-20T13:07:01Z</time>
      </trkpt>
      <trkpt lat="39.781169" lon="-0.377180">
        <ele>244.4</ele>
        <time>2012-08-20T13:07:02Z</time>
      </trkpt>
      <trkpt lat="39.781130" lon="-0.377122">
        <ele>244.0</ele>
        <time>2012-08-20T13:07:03Z</time>
      </trkpt>
      <trkpt lat="39.780968" lon="-0.376879">
        <ele>243.6</ele>
        <time>2012-08-20T13:07:07Z</time>
      </trkpt>
      <trkpt lat="39.780927" lon="-0.376820">
        <ele>243.2</ele>
        <time>2012-08-20T13:07:08Z</time>
      </trkpt>
      <trkpt lat="39.780885" lon="-0.376762">
        <ele>242.8</ele>
        <time>2012-08-20T13:07:09Z</time>
      </trkpt>
      <trkpt lat="39.780842" lon="-0.376706">
        <ele>242.4</ele>
        <time>2012-08-20T13:07:10Z</time>
      </trkpt>
      <trkpt lat="39.780799" lon="-0.376649">
        <ele>241.8</ele>
        <time>2012-08-20T13:07:11Z</time>
      </trkpt>
      <trkpt lat="39.780667" lon="-0.376476">
        <ele>241.8</ele>
        <time>2012-08-20T13:07:14Z</time>
      </trkpt>
      <trkpt lat="39.780572" lon="-0.376365">
        <ele>241.8</ele>
        <time>2012-08-20T13:07:16Z</time>
      </trkpt>
      <trkpt lat="39.780529" lon="-0.376307">
        <ele>241.4</ele>
        <time>2012-08-20T13:07:17Z</time>
      </trkpt>
      <trkpt lat="39.780483" lon="-0.376250">
        <ele>241.0</ele>
        <time>2012-08-20T13:07:18Z</time>
      </trkpt>
      <trkpt lat="39.780436" lon="-0.376192">
        <ele>240.6</ele>
        <time>2012-08-20T13:07:19Z</time>
      </trkpt>
      <trkpt lat="39.780391" lon="-0.376132">
        <ele>240.0</ele>
        <time>2012-08-20T13:07:20Z</time>
      </trkpt>
      <trkpt lat="39.780345" lon="-0.376072">
        <ele>239.6</ele>
        <time>2012-08-20T13:07:21Z</time>
      </trkpt>
      <trkpt lat="39.780295" lon="-0.376009">
        <ele>239.6</ele>
        <time>2012-08-20T13:07:22Z</time>
      </trkpt>
      <trkpt lat="39.780107" lon="-0.375772">
        <ele>239.2</ele>
        <time>2012-08-20T13:07:26Z</time>
      </trkpt>
      <trkpt lat="39.780058" lon="-0.375715">
        <ele>238.8</ele>
        <time>2012-08-20T13:07:27Z</time>
      </trkpt>
      <trkpt lat="39.780007" lon="-0.375660">
        <ele>238.2</ele>
        <time>2012-08-20T13:07:28Z</time>
      </trkpt>
      <trkpt lat="39.779954" lon="-0.375607">
        <ele>237.8</ele>
        <time>2012-08-20T13:07:29Z</time>
      </trkpt>
      <trkpt lat="39.779899" lon="-0.375548">
        <ele>237.4</ele>
        <time>2012-08-20T13:07:30Z</time>
      </trkpt>
      <trkpt lat="39.779737" lon="-0.375363">
        <ele>237.4</ele>
        <time>2012-08-20T13:07:33Z</time>
      </trkpt>
      <trkpt lat="39.779684" lon="-0.375294">
        <ele>237.4</ele>
        <time>2012-08-20T13:07:34Z</time>
      </trkpt>
      <trkpt lat="39.779523" lon="-0.375087">
        <ele>237.0</ele>
        <time>2012-08-20T13:07:37Z</time>
      </trkpt>
      <trkpt lat="39.779472" lon="-0.375017">
        <ele>236.6</ele>
        <time>2012-08-20T13:07:38Z</time>
      </trkpt>
      <trkpt lat="39.779416" lon="-0.374951">
        <ele>236.2</ele>
        <time>2012-08-20T13:07:39Z</time>
      </trkpt>
      <trkpt lat="39.779357" lon="-0.374887">
        <ele>235.4</ele>
        <time>2012-08-20T13:07:40Z</time>
      </trkpt>
      <trkpt lat="39.779298" lon="-0.374821">
        <ele>235.4</ele>
        <time>2012-08-20T13:07:41Z</time>
      </trkpt>
      <trkpt lat="39.779055" lon="-0.374551">
        <ele>235.0</ele>
        <time>2012-08-20T13:07:45Z</time>
      </trkpt>
      <trkpt lat="39.778997" lon="-0.374485">
        <ele>234.4</ele>
        <time>2012-08-20T13:07:46Z</time>
      </trkpt>
      <trkpt lat="39.778940" lon="-0.374422">
        <ele>234.0</ele>
        <time>2012-08-20T13:07:47Z</time>
      </trkpt>
      <trkpt lat="39.778882" lon="-0.374359">
        <ele>233.6</ele>
        <time>2012-08-20T13:07:48Z</time>
      </trkpt>
      <trkpt lat="39.778821" lon="-0.374296">
        <ele>233.2</ele>
        <time>2012-08-20T13:07:49Z</time>
      </trkpt>
      <trkpt lat="39.778433" lon="-0.373890">
        <ele>233.2</ele>
        <time>2012-08-20T13:07:56Z</time>
      </trkpt>
      <trkpt lat="39.778286" lon="-0.373743">
        <ele>233.2</ele>
        <time>2012-08-20T13:07:59Z</time>
      </trkpt>
      <trkpt lat="39.778245" lon="-0.373720">
        <ele>233.2</ele>
        <time>2012-08-20T13:08:00Z</time>
      </trkpt>
      <trkpt lat="39.778180" lon="-0.373780">
        <ele>233.2</ele>
        <time>2012-08-20T13:08:03Z</time>
      </trkpt>
      <trkpt lat="39.778177" lon="-0.373826">
        <ele>232.8</ele>
        <time>2012-08-20T13:08:04Z</time>
      </trkpt>
      <trkpt lat="39.778173" lon="-0.373873">
        <ele>232.0</ele>
        <time>2012-08-20T13:08:05Z</time>
      </trkpt>
      <trkpt lat="39.778166" lon="-0.373919">
        <ele>231.6</ele>
        <time>2012-08-20T13:08:06Z</time>
      </trkpt>
      <trkpt lat="39.778155" lon="-0.373965">
        <ele>231.2</ele>
        <time>2012-08-20T13:08:07Z</time>
      </trkpt>
      <trkpt lat="39.778117" lon="-0.374102">
        <ele>231.2</ele>
        <time>2012-08-20T13:08:10Z</time>
      </trkpt>
      <trkpt lat="39.778093" lon="-0.374138">
        <ele>231.2</ele>
        <time>2012-08-20T13:08:11Z</time>
      </trkpt>
      <trkpt lat="39.778056" lon="-0.374151">
        <ele>231.2</ele>
        <time>2012-08-20T13:08:12Z</time>
      </trkpt>
      <trkpt lat="39.777967" lon="-0.374098">
        <ele>231.2</ele>
        <time>2012-08-20T13:08:15Z</time>
      </trkpt>
      <trkpt lat="39.777921" lon="-0.374050">
        <ele>231.6</ele>
        <time>2012-08-20T13:08:17Z</time>
      </trkpt>
      <trkpt lat="39.777896" lon="-0.374029">
        <ele>232.0</ele>
        <time>2012-08-20T13:08:18Z</time>
      </trkpt>
      <trkpt lat="39.777871" lon="-0.374005">
        <ele>232.6</ele>
        <time>2012-08-20T13:08:19Z</time>
      </trkpt>
      <trkpt lat="39.777845" lon="-0.373977">
        <ele>233.0</ele>
        <time>2012-08-20T13:08:20Z</time>
      </trkpt>
      <trkpt lat="39.777816" lon="-0.373950">
        <ele>233.4</ele>
        <time>2012-08-20T13:08:21Z</time>
      </trkpt>
      <trkpt lat="39.777630" lon="-0.373799">
        <ele>233.4</ele>
        <time>2012-08-20T13:08:27Z</time>
      </trkpt>
      <trkpt lat="39.777362" lon="-0.373560">
        <ele>233.4</ele>
        <time>2012-08-20T13:08:36Z</time>
      </trkpt>
      <trkpt lat="39.777189" lon="-0.373421">
        <ele>233.4</ele>
        <time>2012-08-20T13:08:42Z</time>
      </trkpt>
      <trkpt lat="39.777035" lon="-0.373288">
        <ele>233.4</ele>
        <time>2012-08-20T13:08:48Z</time>
      </trkpt>
      <trkpt lat="39.776940" lon="-0.373213">
        <ele>233.4</ele>
        <time>2012-08-20T13:08:52Z</time>
      </trkpt>
      <trkpt lat="39.776932" lon="-0.373213">
        <ele>233.4</ele>
        <time>2012-08-20T13:08:53Z</time>
      </trkpt>
      <trkpt lat="39.776931" lon="-0.373213">
        <ele>233.4</ele>
        <time>2012-08-20T13:08:55Z</time>
      </trkpt>
      <trkpt lat="39.776896" lon="-0.373169">
        <ele>233.4</ele>
        <time>2012-08-20T13:10:28Z</time>
      </trkpt>
      <trkpt lat="39.776875" lon="-0.373151">
        <ele>233.4</ele>
        <time>2012-08-20T13:10:29Z</time>
      </trkpt>
      <trkpt lat="39.776737" lon="-0.373042">
        <ele>233.4</ele>
        <time>2012-08-20T13:10:34Z</time>
      </trkpt>
      <trkpt lat="39.776565" lon="-0.372891">
        <ele>233.0</ele>
        <time>2012-08-20T13:10:39Z</time>
      </trkpt>
      <trkpt lat="39.776532" lon="-0.372862">
        <ele>232.6</ele>
        <time>2012-08-20T13:10:40Z</time>
      </trkpt>
      <trkpt lat="39.776498" lon="-0.372834">
        <ele>232.2</ele>
        <time>2012-08-20T13:10:41Z</time>
      </trkpt>
      <trkpt lat="39.776465" lon="-0.372809">
        <ele>231.8</ele>
        <time>2012-08-20T13:10:42Z</time>
      </trkpt>
      <trkpt lat="39.776433" lon="-0.372786">
        <ele>231.4</ele>
        <time>2012-08-20T13:10:43Z</time>
      </trkpt>
      <trkpt lat="39.776380" lon="-0.372738">
        <ele>231.4</ele>
        <time>2012-08-20T13:10:45Z</time>
      </trkpt>
      <trkpt lat="39.776226" lon="-0.372607">
        <ele>231.4</ele>
        <time>2012-08-20T13:10:52Z</time>
      </trkpt>
      <trkpt lat="39.776181" lon="-0.372586">
        <ele>231.4</ele>
        <time>2012-08-20T13:10:56Z</time>
      </trkpt>
      <trkpt lat="39.776182" lon="-0.372586">
        <ele>231.4</ele>
        <time>2012-08-20T13:10:57Z</time>
      </trkpt>
      <trkpt lat="39.776136" lon="-0.372528">
        <ele>231.4</ele>
        <time>2012-08-20T13:13:18Z</time>
      </trkpt>
      <trkpt lat="39.776091" lon="-0.372474">
        <ele>231.4</ele>
        <time>2012-08-20T13:13:20Z</time>
      </trkpt>
      <trkpt lat="39.775912" lon="-0.372311">
        <ele>231.4</ele>
        <time>2012-08-20T13:13:26Z</time>
      </trkpt>
      <trkpt lat="39.775769" lon="-0.372196">
        <ele>231.0</ele>
        <time>2012-08-20T13:13:30Z</time>
      </trkpt>
      <trkpt lat="39.775731" lon="-0.372165">
        <ele>230.6</ele>
        <time>2012-08-20T13:13:31Z</time>
      </trkpt>
      <trkpt lat="39.775696" lon="-0.372133">
        <ele>230.2</ele>
        <time>2012-08-20T13:13:32Z</time>
      </trkpt>
      <trkpt lat="39.775661" lon="-0.372105">
        <ele>229.8</ele>
        <time>2012-08-20T13:13:33Z</time>
      </trkpt>
      <trkpt lat="39.775624" lon="-0.372078">
        <ele>229.4</ele>
        <time>2012-08-20T13:13:34Z</time>
      </trkpt>
      <trkpt lat="39.775373" lon="-0.371845">
        <ele>229.4</ele>
        <time>2012-08-20T13:13:41Z</time>
      </trkpt>
      <trkpt lat="39.775076" lon="-0.371619">
        <ele>229.4</ele>
        <time>2012-08-20T13:13:48Z</time>
      </trkpt>
      <trkpt lat="39.774941" lon="-0.371537">
        <ele>229.4</ele>
        <time>2012-08-20T13:13:51Z</time>
      </trkpt>
      <trkpt lat="39.774805" lon="-0.371481">
        <ele>229.0</ele>
        <time>2012-08-20T13:13:54Z</time>
      </trkpt>
      <trkpt lat="39.774761" lon="-0.371461">
        <ele>228.6</ele>
        <time>2012-08-20T13:13:55Z</time>
      </trkpt>
      <trkpt lat="39.774714" lon="-0.371438">
        <ele>228.0</ele>
        <time>2012-08-20T13:13:56Z</time>
      </trkpt>
      <trkpt lat="39.774669" lon="-0.371414">
        <ele>227.6</ele>
        <time>2012-08-20T13:13:57Z</time>
      </trkpt>
      <trkpt lat="39.774621" lon="-0.371388">
        <ele>227.2</ele>
        <time>2012-08-20T13:13:58Z</time>
      </trkpt>
      <trkpt lat="39.774480" lon="-0.371305">
        <ele>227.2</ele>
        <time>2012-08-20T13:14:01Z</time>
      </trkpt>
      <trkpt lat="39.774119" lon="-0.371138">
        <ele>227.2</ele>
        <time>2012-08-20T13:14:08Z</time>
      </trkpt>
      <trkpt lat="39.773893" lon="-0.371069">
        <ele>226.8</ele>
        <time>2012-08-20T13:14:12Z</time>
      </trkpt>
      <trkpt lat="39.773835" lon="-0.371054">
        <ele>226.4</ele>
        <time>2012-08-20T13:14:13Z</time>
      </trkpt>
      <trkpt lat="39.773773" lon="-0.371040">
        <ele>226.0</ele>
        <time>2012-08-20T13:14:14Z</time>
      </trkpt>
      <trkpt lat="39.773711" lon="-0.371025">
        <ele>225.2</ele>
        <time>2012-08-20T13:14:15Z</time>
      </trkpt>
      <trkpt lat="39.773650" lon="-0.371010">
        <ele>225.2</ele>
        <time>2012-08-20T13:14:16Z</time>
      </trkpt>
      <trkpt lat="39.773154" lon="-0.370912">
        <ele>225.2</ele>
        <time>2012-08-20T13:14:24Z</time>
      </trkpt>
      <trkpt lat="39.773019" lon="-0.370884">
        <ele>224.8</ele>
        <time>2012-08-20T13:14:26Z</time>
      </trkpt>
      <trkpt lat="39.772952" lon="-0.370869">
        <ele>224.4</ele>
        <time>2012-08-20T13:14:27Z</time>
      </trkpt>
      <trkpt lat="39.772885" lon="-0.370853">
        <ele>224.0</ele>
        <time>2012-08-20T13:14:28Z</time>
      </trkpt>
      <trkpt lat="39.772819" lon="-0.370832">
        <ele>223.6</ele>
        <time>2012-08-20T13:14:29Z</time>
      </trkpt>
      <trkpt lat="39.772752" lon="-0.370815">
        <ele>223.2</ele>
        <time>2012-08-20T13:14:30Z</time>
      </trkpt>
      <trkpt lat="39.772686" lon="-0.370801">
        <ele>223.2</ele>
        <time>2012-08-20T13:14:31Z</time>
      </trkpt>
      <trkpt lat="39.772206" lon="-0.370688">
        <ele>223.2</ele>
        <time>2012-08-20T13:14:38Z</time>
      </trkpt>
      <trkpt lat="39.772142" lon="-0.370673">
        <ele>222.4</ele>
        <time>2012-08-20T13:14:39Z</time>
      </trkpt>
      <trkpt lat="39.772079" lon="-0.370658">
        <ele>222.0</ele>
        <time>2012-08-20T13:14:40Z</time>
      </trkpt>
      <trkpt lat="39.772016" lon="-0.370642">
        <ele>221.6</ele>
        <time>2012-08-20T13:14:41Z</time>
      </trkpt>
      <trkpt lat="39.771958" lon="-0.370628">
        <ele>221.2</ele>
        <time>2012-08-20T13:14:42Z</time>
      </trkpt>
      <trkpt lat="39.771841" lon="-0.370610">
        <ele>221.2</ele>
        <time>2012-08-20T13:14:44Z</time>
      </trkpt>
      <trkpt lat="39.771779" lon="-0.370602">
        <ele>221.2</ele>
        <time>2012-08-20T13:14:45Z</time>
      </trkpt>
      <trkpt lat="39.771348" lon="-0.370563">
        <ele>221.2</ele>
        <time>2012-08-20T13:14:52Z</time>
      </trkpt>
      <trkpt lat="39.770966" lon="-0.370634">
        <ele>221.2</ele>
        <time>2012-08-20T13:14:59Z</time>
      </trkpt>
      <trkpt lat="39.770831" lon="-0.370668">
        <ele>221.2</ele>
        <time>2012-08-20T13:15:02Z</time>
      </trkpt>
      <trkpt lat="39.770772" lon="-0.370674">
        <ele>220.4</ele>
        <time>2012-08-20T13:15:04Z</time>
      </trkpt>
      <trkpt lat="39.770758" lon="-0.370677">
        <ele>220.0</ele>
        <time>2012-08-20T13:15:05Z</time>
      </trkpt>
      <trkpt lat="39.770754" lon="-0.370678">
        <ele>219.6</ele>
        <time>2012-08-20T13:15:06Z</time>
      </trkpt>
      <trkpt lat="39.770756" lon="-0.370676">
        <ele>219.2</ele>
        <time>2012-08-20T13:15:07Z</time>
      </trkpt>
      <trkpt lat="39.770702" lon="-0.370712">
        <ele>219.2</ele>
        <time>2012-08-20T13:16:14Z</time>
      </trkpt>
      <trkpt lat="39.770526" lon="-0.370763">
        <ele>219.2</ele>
        <time>2012-08-20T13:16:20Z</time>
      </trkpt>
      <trkpt lat="39.770201" lon="-0.370859">
        <ele>219.2</ele>
        <time>2012-08-20T13:16:28Z</time>
      </trkpt>
      <trkpt lat="39.769756" lon="-0.370995">
        <ele>219.2</ele>
        <time>2012-08-20T13:16:38Z</time>
      </trkpt>
      <trkpt lat="39.769372" lon="-0.371124">
        <ele>218.8</ele>
        <time>2012-08-20T13:16:46Z</time>
      </trkpt>
      <trkpt lat="39.769322" lon="-0.371139">
        <ele>218.2</ele>
        <time>2012-08-20T13:16:47Z</time>
      </trkpt>
      <trkpt lat="39.769271" lon="-0.371151">
        <ele>217.8</ele>
        <time>2012-08-20T13:16:48Z</time>
      </trkpt>
      <trkpt lat="39.769221" lon="-0.371165">
        <ele>217.4</ele>
        <time>2012-08-20T13:16:49Z</time>
      </trkpt>
      <trkpt lat="39.769172" lon="-0.371179">
        <ele>217.0</ele>
        <time>2012-08-20T13:16:50Z</time>
      </trkpt>
      <trkpt lat="39.768870" lon="-0.371255">
        <ele>217.0</ele>
        <time>2012-08-20T13:16:56Z</time>
      </trkpt>
      <trkpt lat="39.768530" lon="-0.371274">
        <ele>217.0</ele>
        <time>2012-08-20T13:17:03Z</time>
      </trkpt>
      <trkpt lat="39.768204" lon="-0.371210">
        <ele>217.0</ele>
        <time>2012-08-20T13:17:10Z</time>
      </trkpt>
      <trkpt lat="39.767851" lon="-0.371029">
        <ele>217.0</ele>
        <time>2012-08-20T13:17:18Z</time>
      </trkpt>
      <trkpt lat="39.767772" lon="-0.370975">
        <ele>217.0</ele>
        <time>2012-08-20T13:17:20Z</time>
      </trkpt>
      <trkpt lat="39.767653" lon="-0.370891">
        <ele>217.0</ele>
        <time>2012-08-20T13:17:23Z</time>
      </trkpt>
      <trkpt lat="39.767617" lon="-0.370861">
        <ele>217.0</ele>
        <time>2012-08-20T13:17:24Z</time>
      </trkpt>
      <trkpt lat="39.767518" lon="-0.370757">
        <ele>217.0</ele>
        <time>2012-08-20T13:17:27Z</time>
      </trkpt>
      <trkpt lat="39.767419" lon="-0.370646">
        <ele>217.0</ele>
        <time>2012-08-20T13:17:30Z</time>
      </trkpt>
      <trkpt lat="39.767159" lon="-0.370264">
        <ele>217.0</ele>
        <time>2012-08-20T13:17:39Z</time>
      </trkpt>
      <trkpt lat="39.767059" lon="-0.370104">
        <ele>217.0</ele>
        <time>2012-08-20T13:17:43Z</time>
      </trkpt>
      <trkpt lat="39.767022" lon="-0.370040">
        <ele>217.0</ele>
        <time>2012-08-20T13:17:45Z</time>
      </trkpt>
      <trkpt lat="39.766894" lon="-0.369838">
        <ele>217.0</ele>
        <time>2012-08-20T13:17:51Z</time>
      </trkpt>
      <trkpt lat="39.766700" lon="-0.369570">
        <ele>217.0</ele>
        <time>2012-08-20T13:17:58Z</time>
      </trkpt>
      <trkpt lat="39.766504" lon="-0.369283">
        <ele>217.0</ele>
        <time>2012-08-20T13:18:05Z</time>
      </trkpt>
      <trkpt lat="39.766262" lon="-0.368928">
        <ele>217.0</ele>
        <time>2012-08-20T13:18:13Z</time>
      </trkpt>
      <trkpt lat="39.766049" lon="-0.368616">
        <ele>217.0</ele>
        <time>2012-08-20T13:18:20Z</time>
      </trkpt>
      <trkpt lat="39.765794" lon="-0.368245">
        <ele>217.0</ele>
        <time>2012-08-20T13:18:28Z</time>
      </trkpt>
      <trkpt lat="39.765505" lon="-0.367860">
        <ele>217.0</ele>
        <time>2012-08-20T13:18:37Z</time>
      </trkpt>
      <trkpt lat="39.765249" lon="-0.367516">
        <ele>217.0</ele>
        <time>2012-08-20T13:18:46Z</time>
      </trkpt>
      <trkpt lat="39.765191" lon="-0.367414">
        <ele>217.0</ele>
        <time>2012-08-20T13:18:48Z</time>
      </trkpt>
      <trkpt lat="39.765114" lon="-0.367271">
        <ele>217.6</ele>
        <time>2012-08-20T13:18:51Z</time>
      </trkpt>
      <trkpt lat="39.765091" lon="-0.367221">
        <ele>218.0</ele>
        <time>2012-08-20T13:18:52Z</time>
      </trkpt>
      <trkpt lat="39.765057" lon="-0.367164">
        <ele>218.6</ele>
        <time>2012-08-20T13:18:53Z</time>
      </trkpt>
      <trkpt lat="39.765037" lon="-0.367128">
        <ele>219.2</ele>
        <time>2012-08-20T13:18:54Z</time>
      </trkpt>
      <trkpt lat="39.765009" lon="-0.367083">
        <ele>219.6</ele>
        <time>2012-08-20T13:18:55Z</time>
      </trkpt>
      <trkpt lat="39.764878" lon="-0.366913">
        <ele>219.2</ele>
        <time>2012-08-20T13:18:59Z</time>
      </trkpt>
      <trkpt lat="39.764842" lon="-0.366877">
        <ele>218.8</ele>
        <time>2012-08-20T13:19:00Z</time>
      </trkpt>
      <trkpt lat="39.764807" lon="-0.366838">
        <ele>218.4</ele>
        <time>2012-08-20T13:19:01Z</time>
      </trkpt>
      <trkpt lat="39.764774" lon="-0.366797">
        <ele>218.6</ele>
        <time>2012-08-20T13:19:02Z</time>
      </trkpt>
      <trkpt lat="39.764740" lon="-0.366755">
        <ele>218.8</ele>
        <time>2012-08-20T13:19:03Z</time>
      </trkpt>
      <trkpt lat="39.764705" lon="-0.366716">
        <ele>219.0</ele>
        <time>2012-08-20T13:19:04Z</time>
      </trkpt>
      <trkpt lat="39.764675" lon="-0.366679">
        <ele>219.2</ele>
        <time>2012-08-20T13:19:05Z</time>
      </trkpt>
      <trkpt lat="39.764642" lon="-0.366637">
        <ele>219.4</ele>
        <time>2012-08-20T13:19:06Z</time>
      </trkpt>
      <trkpt lat="39.764605" lon="-0.366602">
        <ele>219.4</ele>
        <time>2012-08-20T13:19:07Z</time>
      </trkpt>
      <trkpt lat="39.764454" lon="-0.366465">
        <ele>219.4</ele>
        <time>2012-08-20T13:19:11Z</time>
      </trkpt>
      <trkpt lat="39.764416" lon="-0.366437">
        <ele>219.4</ele>
        <time>2012-08-20T13:19:12Z</time>
      </trkpt>
      <trkpt lat="39.764315" lon="-0.366342">
        <ele>219.4</ele>
        <time>2012-08-20T13:19:15Z</time>
      </trkpt>
      <trkpt lat="39.764246" lon="-0.366280">
        <ele>219.4</ele>
        <time>2012-08-20T13:19:17Z</time>
      </trkpt>
      <trkpt lat="39.764022" lon="-0.366130">
        <ele>219.4</ele>
        <time>2012-08-20T13:19:23Z</time>
      </trkpt>
      <trkpt lat="39.763695" lon="-0.365940">
        <ele>219.4</ele>
        <time>2012-08-20T13:19:31Z</time>
      </trkpt>
      <trkpt lat="39.763402" lon="-0.365823">
        <ele>219.4</ele>
        <time>2012-08-20T13:19:38Z</time>
      </trkpt>
      <trkpt lat="39.763084" lon="-0.365741">
        <ele>219.4</ele>
        <time>2012-08-20T13:19:45Z</time>
      </trkpt>
      <trkpt lat="39.762804" lon="-0.365679">
        <ele>219.4</ele>
        <time>2012-08-20T13:19:51Z</time>
      </trkpt>
      <trkpt lat="39.762533" lon="-0.365624">
        <ele>219.4</ele>
        <time>2012-08-20T13:19:57Z</time>
      </trkpt>
      <trkpt lat="39.762489" lon="-0.365614">
        <ele>219.4</ele>
        <time>2012-08-20T13:19:58Z</time>
      </trkpt>
      <trkpt lat="39.762205" lon="-0.365538">
        <ele>219.4</ele>
        <time>2012-08-20T13:20:04Z</time>
      </trkpt>
      <trkpt lat="39.762015" lon="-0.365486">
        <ele>219.4</ele>
        <time>2012-08-20T13:20:08Z</time>
      </trkpt>
      <trkpt lat="39.761966" lon="-0.365476">
        <ele>219.4</ele>
        <time>2012-08-20T13:20:09Z</time>
      </trkpt>
      <trkpt lat="39.761883" lon="-0.365456">
        <ele>219.4</ele>
        <time>2012-08-20T13:20:11Z</time>
      </trkpt>
      <trkpt lat="39.761753" lon="-0.365418">
        <ele>219.4</ele>
        <time>2012-08-20T13:20:14Z</time>
      </trkpt>
      <trkpt lat="39.761713" lon="-0.365413">
        <ele>219.4</ele>
        <time>2012-08-20T13:20:15Z</time>
      </trkpt>
      <trkpt lat="39.761494" lon="-0.365372">
        <ele>219.4</ele>
        <time>2012-08-20T13:20:20Z</time>
      </trkpt>
      <trkpt lat="39.761153" lon="-0.365289">
        <ele>219.4</ele>
        <time>2012-08-20T13:20:27Z</time>
      </trkpt>
      <trkpt lat="39.760830" lon="-0.365218">
        <ele>219.4</ele>
        <time>2012-08-20T13:20:34Z</time>
      </trkpt>
      <trkpt lat="39.760689" lon="-0.365192">
        <ele>219.4</ele>
        <time>2012-08-20T13:20:37Z</time>
      </trkpt>
      <trkpt lat="39.760549" lon="-0.365153">
        <ele>219.4</ele>
        <time>2012-08-20T13:20:40Z</time>
      </trkpt>
      <trkpt lat="39.760320" lon="-0.365089">
        <ele>219.4</ele>
        <time>2012-08-20T13:20:45Z</time>
      </trkpt>
      <trkpt lat="39.760275" lon="-0.365067">
        <ele>219.4</ele>
        <time>2012-08-20T13:20:46Z</time>
      </trkpt>
      <trkpt lat="39.759926" lon="-0.364893">
        <ele>219.4</ele>
        <time>2012-08-20T13:20:54Z</time>
      </trkpt>
      <trkpt lat="39.759601" lon="-0.364655">
        <ele>219.4</ele>
        <time>2012-08-20T13:21:02Z</time>
      </trkpt>
      <trkpt lat="39.759274" lon="-0.364334">
        <ele>219.4</ele>
        <time>2012-08-20T13:21:10Z</time>
      </trkpt>
      <trkpt lat="39.758920" lon="-0.363974">
        <ele>219.4</ele>
        <time>2012-08-20T13:21:18Z</time>
      </trkpt>
      <trkpt lat="39.758616" lon="-0.363643">
        <ele>219.4</ele>
        <time>2012-08-20T13:21:25Z</time>
      </trkpt>
      <trkpt lat="39.758570" lon="-0.363595">
        <ele>219.4</ele>
        <time>2012-08-20T13:21:26Z</time>
      </trkpt>
      <trkpt lat="39.758245" lon="-0.363293">
        <ele>219.4</ele>
        <time>2012-08-20T13:21:33Z</time>
      </trkpt>
      <trkpt lat="39.757913" lon="-0.363060">
        <ele>219.4</ele>
        <time>2012-08-20T13:21:40Z</time>
      </trkpt>
      <trkpt lat="39.757633" lon="-0.362932">
        <ele>219.4</ele>
        <time>2012-08-20T13:21:46Z</time>
      </trkpt>
      <trkpt lat="39.757579" lon="-0.362925">
        <ele>219.4</ele>
        <time>2012-08-20T13:21:47Z</time>
      </trkpt>
      <trkpt lat="39.757396" lon="-0.362944">
        <ele>219.4</ele>
        <time>2012-08-20T13:21:50Z</time>
      </trkpt>
      <trkpt lat="39.757273" lon="-0.362959">
        <ele>219.4</ele>
        <time>2012-08-20T13:21:52Z</time>
      </trkpt>
      <trkpt lat="39.757113" lon="-0.362992">
        <ele>219.4</ele>
        <time>2012-08-20T13:21:55Z</time>
      </trkpt>
      <trkpt lat="39.757009" lon="-0.363015">
        <ele>219.4</ele>
        <time>2012-08-20T13:21:57Z</time>
      </trkpt>
      <trkpt lat="39.756667" lon="-0.363159">
        <ele>219.4</ele>
        <time>2012-08-20T13:22:04Z</time>
      </trkpt>
      <trkpt lat="39.756374" lon="-0.363368">
        <ele>219.4</ele>
        <time>2012-08-20T13:22:11Z</time>
      </trkpt>
      <trkpt lat="39.756219" lon="-0.363505">
        <ele>219.4</ele>
        <time>2012-08-20T13:22:15Z</time>
      </trkpt>
      <trkpt lat="39.756182" lon="-0.363549">
        <ele>219.0</ele>
        <time>2012-08-20T13:22:16Z</time>
      </trkpt>
      <trkpt lat="39.756146" lon="-0.363592">
        <ele>218.6</ele>
        <time>2012-08-20T13:22:17Z</time>
      </trkpt>
      <trkpt lat="39.756109" lon="-0.363634">
        <ele>218.2</ele>
        <time>2012-08-20T13:22:18Z</time>
      </trkpt>
      <trkpt lat="39.756076" lon="-0.363681">
        <ele>217.8</ele>
        <time>2012-08-20T13:22:19Z</time>
      </trkpt>
      <trkpt lat="39.756045" lon="-0.363729">
        <ele>217.2</ele>
        <time>2012-08-20T13:22:20Z</time>
      </trkpt>
      <trkpt lat="39.755918" lon="-0.363926">
        <ele>217.2</ele>
        <time>2012-08-20T13:22:24Z</time>
      </trkpt>
      <trkpt lat="39.755697" lon="-0.364299">
        <ele>217.2</ele>
        <time>2012-08-20T13:22:31Z</time>
      </trkpt>
      <trkpt lat="39.755497" lon="-0.364626">
        <ele>216.8</ele>
        <time>2012-08-20T13:22:37Z</time>
      </trkpt>
      <trkpt lat="39.755466" lon="-0.364682">
        <ele>216.4</ele>
        <time>2012-08-20T13:22:38Z</time>
      </trkpt>
      <trkpt lat="39.755433" lon="-0.364740">
        <ele>216.0</ele>
        <time>2012-08-20T13:22:39Z</time>
      </trkpt>
      <trkpt lat="39.755402" lon="-0.364794">
        <ele>215.6</ele>
        <time>2012-08-20T13:22:40Z</time>
      </trkpt>
      <trkpt lat="39.755368" lon="-0.364849">
        <ele>215.2</ele>
        <time>2012-08-20T13:22:41Z</time>
      </trkpt>
      <trkpt lat="39.755167" lon="-0.365194">
        <ele>215.2</ele>
        <time>2012-08-20T13:22:47Z</time>
      </trkpt>
      <trkpt lat="39.754971" lon="-0.365529">
        <ele>215.2</ele>
        <time>2012-08-20T13:22:53Z</time>
      </trkpt>
      <trkpt lat="39.754770" lon="-0.365855">
        <ele>214.8</ele>
        <time>2012-08-20T13:22:59Z</time>
      </trkpt>
      <trkpt lat="39.754737" lon="-0.365911">
        <ele>214.4</ele>
        <time>2012-08-20T13:23:00Z</time>
      </trkpt>
      <trkpt lat="39.754703" lon="-0.365964">
        <ele>214.0</ele>
        <time>2012-08-20T13:23:01Z</time>
      </trkpt>
      <trkpt lat="39.754667" lon="-0.366017">
        <ele>213.6</ele>
        <time>2012-08-20T13:23:02Z</time>
      </trkpt>
      <trkpt lat="39.754633" lon="-0.366069">
        <ele>213.2</ele>
        <time>2012-08-20T13:23:03Z</time>
      </trkpt>
      <trkpt lat="39.754494" lon="-0.366280">
        <ele>213.2</ele>
        <time>2012-08-20T13:23:07Z</time>
      </trkpt>
      <trkpt lat="39.754260" lon="-0.366626">
        <ele>213.2</ele>
        <time>2012-08-20T13:23:14Z</time>
      </trkpt>
      <trkpt lat="39.754030" lon="-0.366940">
        <ele>213.2</ele>
        <time>2012-08-20T13:23:21Z</time>
      </trkpt>
      <trkpt lat="39.754000" lon="-0.366974">
        <ele>213.2</ele>
        <time>2012-08-20T13:23:22Z</time>
      </trkpt>
      <trkpt lat="39.753868" lon="-0.367122">
        <ele>213.2</ele>
        <time>2012-08-20T13:23:27Z</time>
      </trkpt>
      <trkpt lat="39.753696" lon="-0.367323">
        <ele>212.8</ele>
        <time>2012-08-20T13:23:32Z</time>
      </trkpt>
      <trkpt lat="39.753658" lon="-0.367365">
        <ele>212.4</ele>
        <time>2012-08-20T13:23:33Z</time>
      </trkpt>
      <trkpt lat="39.753618" lon="-0.367410">
        <ele>212.0</ele>
        <time>2012-08-20T13:23:34Z</time>
      </trkpt>
      <trkpt lat="39.753577" lon="-0.367453">
        <ele>211.6</ele>
        <time>2012-08-20T13:23:35Z</time>
      </trkpt>
      <trkpt lat="39.753534" lon="-0.367499">
        <ele>211.2</ele>
        <time>2012-08-20T13:23:36Z</time>
      </trkpt>
      <trkpt lat="39.753415" lon="-0.367633">
        <ele>211.2</ele>
        <time>2012-08-20T13:23:39Z</time>
      </trkpt>
      <trkpt lat="39.753060" lon="-0.367977">
        <ele>211.2</ele>
        <time>2012-08-20T13:23:47Z</time>
      </trkpt>
      <trkpt lat="39.752730" lon="-0.368289">
        <ele>211.2</ele>
        <time>2012-08-20T13:23:54Z</time>
      </trkpt>
      <trkpt lat="39.752439" lon="-0.368565">
        <ele>210.8</ele>
        <time>2012-08-20T13:24:00Z</time>
      </trkpt>
      <trkpt lat="39.752390" lon="-0.368609">
        <ele>210.4</ele>
        <time>2012-08-20T13:24:01Z</time>
      </trkpt>
      <trkpt lat="39.752338" lon="-0.368655">
        <ele>209.4</ele>
        <time>2012-08-20T13:24:02Z</time>
      </trkpt>
      <trkpt lat="39.752289" lon="-0.368700">
        <ele>209.0</ele>
        <time>2012-08-20T13:24:03Z</time>
      </trkpt>
      <trkpt lat="39.751947" lon="-0.369022">
        <ele>209.0</ele>
        <time>2012-08-20T13:24:10Z</time>
      </trkpt>
      <trkpt lat="39.751597" lon="-0.369338">
        <ele>209.0</ele>
        <time>2012-08-20T13:24:17Z</time>
      </trkpt>
      <trkpt lat="39.751204" lon="-0.369697">
        <ele>208.6</ele>
        <time>2012-08-20T13:24:25Z</time>
      </trkpt>
      <trkpt lat="39.751153" lon="-0.369741">
        <ele>207.8</ele>
        <time>2012-08-20T13:24:26Z</time>
      </trkpt>
      <trkpt lat="39.751102" lon="-0.369783">
        <ele>207.4</ele>
        <time>2012-08-20T13:24:27Z</time>
      </trkpt>
      <trkpt lat="39.751052" lon="-0.369827">
        <ele>207.0</ele>
        <time>2012-08-20T13:24:28Z</time>
      </trkpt>
      <trkpt lat="39.750841" lon="-0.370023">
        <ele>207.0</ele>
        <time>2012-08-20T13:24:32Z</time>
      </trkpt>
      <trkpt lat="39.750739" lon="-0.370121">
        <ele>207.0</ele>
        <time>2012-08-20T13:24:34Z</time>
      </trkpt>
      <trkpt lat="39.750548" lon="-0.370299">
        <ele>207.0</ele>
        <time>2012-08-20T13:24:38Z</time>
      </trkpt>
      <trkpt lat="39.750215" lon="-0.370595">
        <ele>207.0</ele>
        <time>2012-08-20T13:24:45Z</time>
      </trkpt>
      <trkpt lat="39.750109" lon="-0.370686">
        <ele>206.6</ele>
        <time>2012-08-20T13:24:47Z</time>
      </trkpt>
      <trkpt lat="39.750058" lon="-0.370730">
        <ele>206.2</ele>
        <time>2012-08-20T13:24:48Z</time>
      </trkpt>
      <trkpt lat="39.750011" lon="-0.370777">
        <ele>205.8</ele>
        <time>2012-08-20T13:24:49Z</time>
      </trkpt>
      <trkpt lat="39.749963" lon="-0.370824">
        <ele>205.2</ele>
        <time>2012-08-20T13:24:50Z</time>
      </trkpt>
      <trkpt lat="39.749916" lon="-0.370871">
        <ele>204.8</ele>
        <time>2012-08-20T13:24:51Z</time>
      </trkpt>
      <trkpt lat="39.749863" lon="-0.370912">
        <ele>204.8</ele>
        <time>2012-08-20T13:24:52Z</time>
      </trkpt>
      <trkpt lat="39.749712" lon="-0.371056">
        <ele>204.8</ele>
        <time>2012-08-20T13:24:55Z</time>
      </trkpt>
      <trkpt lat="39.749619" lon="-0.371156">
        <ele>204.8</ele>
        <time>2012-08-20T13:24:57Z</time>
      </trkpt>
      <trkpt lat="39.749471" lon="-0.371281">
        <ele>204.8</ele>
        <time>2012-08-20T13:25:00Z</time>
      </trkpt>
      <trkpt lat="39.749422" lon="-0.371321">
        <ele>204.8</ele>
        <time>2012-08-20T13:25:01Z</time>
      </trkpt>
      <trkpt lat="39.749108" lon="-0.371519">
        <ele>204.8</ele>
        <time>2012-08-20T13:25:07Z</time>
      </trkpt>
      <trkpt lat="39.748837" lon="-0.371624">
        <ele>204.8</ele>
        <time>2012-08-20T13:25:12Z</time>
      </trkpt>
      <trkpt lat="39.748731" lon="-0.371642">
        <ele>204.8</ele>
        <time>2012-08-20T13:25:14Z</time>
      </trkpt>
      <trkpt lat="39.748466" lon="-0.371654">
        <ele>204.8</ele>
        <time>2012-08-20T13:25:20Z</time>
      </trkpt>
      <trkpt lat="39.748455" lon="-0.371648">
        <ele>204.8</ele>
        <time>2012-08-20T13:25:23Z</time>
      </trkpt>
      <trkpt lat="39.748408" lon="-0.371604">
        <ele>202.4</ele>
        <time>2012-08-20T13:33:32Z</time>
      </trkpt>
      <trkpt lat="39.748399" lon="-0.371623">
        <ele>202.4</ele>
        <time>2012-08-20T13:33:35Z</time>
      </trkpt>
      <trkpt lat="39.748398" lon="-0.371623">
        <ele>202.4</ele>
        <time>2012-08-20T13:33:36Z</time>
      </trkpt>
      <trkpt lat="39.748395" lon="-0.371628">
        <ele>202.4</ele>
        <time>2012-08-20T13:33:37Z</time>
      </trkpt>
      <trkpt lat="39.748330" lon="-0.371631">
        <ele>202.4</ele>
        <time>2012-08-20T13:33:41Z</time>
      </trkpt>
      <trkpt lat="39.748290" lon="-0.371630">
        <ele>202.4</ele>
        <time>2012-08-20T13:33:43Z</time>
      </trkpt>
      <trkpt lat="39.748158" lon="-0.371601">
        <ele>202.4</ele>
        <time>2012-08-20T13:33:48Z</time>
      </trkpt>
      <trkpt lat="39.747922" lon="-0.371523">
        <ele>202.4</ele>
        <time>2012-08-20T13:33:54Z</time>
      </trkpt>
      <trkpt lat="39.747653" lon="-0.371382">
        <ele>202.4</ele>
        <time>2012-08-20T13:34:00Z</time>
      </trkpt>
      <trkpt lat="39.747301" lon="-0.371101">
        <ele>202.4</ele>
        <time>2012-08-20T13:34:08Z</time>
      </trkpt>
      <trkpt lat="39.747108" lon="-0.370894">
        <ele>202.4</ele>
        <time>2012-08-20T13:34:13Z</time>
      </trkpt>
      <trkpt lat="39.747070" lon="-0.370858">
        <ele>202.4</ele>
        <time>2012-08-20T13:34:14Z</time>
      </trkpt>
      <trkpt lat="39.746957" lon="-0.370752">
        <ele>202.4</ele>
        <time>2012-08-20T13:34:17Z</time>
      </trkpt>
      <trkpt lat="39.746845" lon="-0.370642">
        <ele>202.4</ele>
        <time>2012-08-20T13:34:20Z</time>
      </trkpt>
      <trkpt lat="39.746703" lon="-0.370495">
        <ele>202.4</ele>
        <time>2012-08-20T13:34:24Z</time>
      </trkpt>
      <trkpt lat="39.746631" lon="-0.370426">
        <ele>202.4</ele>
        <time>2012-08-20T13:34:26Z</time>
      </trkpt>
      <trkpt lat="39.746601" lon="-0.370387">
        <ele>202.4</ele>
        <time>2012-08-20T13:34:27Z</time>
      </trkpt>
      <trkpt lat="39.746522" lon="-0.370221">
        <ele>202.4</ele>
        <time>2012-08-20T13:34:31Z</time>
      </trkpt>
      <trkpt lat="39.746514" lon="-0.370087">
        <ele>202.4</ele>
        <time>2012-08-20T13:34:35Z</time>
      </trkpt>
      <trkpt lat="39.746507" lon="-0.370034">
        <ele>202.0</ele>
        <time>2012-08-20T13:34:37Z</time>
      </trkpt>
      <trkpt lat="39.746506" lon="-0.370012">
        <ele>201.6</ele>
        <time>2012-08-20T13:34:38Z</time>
      </trkpt>
      <trkpt lat="39.746500" lon="-0.369996">
        <ele>201.2</ele>
        <time>2012-08-20T13:34:39Z</time>
      </trkpt>
      <trkpt lat="39.746492" lon="-0.369988">
        <ele>200.8</ele>
        <time>2012-08-20T13:34:40Z</time>
      </trkpt>
      <trkpt lat="39.746491" lon="-0.369981">
        <ele>200.4</ele>
        <time>2012-08-20T13:34:41Z</time>
      </trkpt>
      <trkpt lat="39.746491" lon="-0.369981">
        <ele>200.4</ele>
        <time>2012-08-20T13:34:43Z</time>
      </trkpt>
      <trkpt lat="39.746491" lon="-0.369981">
        <ele>200.4</ele>
        <time>2012-08-20T13:34:44Z</time>
      </trkpt>
      <trkpt lat="39.746447" lon="-0.369989">
        <ele>200.4</ele>
        <time>2012-08-20T13:34:53Z</time>
      </trkpt>
      <trkpt lat="39.746426" lon="-0.370039">
        <ele>200.4</ele>
        <time>2012-08-20T13:34:56Z</time>
      </trkpt>
      <trkpt lat="39.746418" lon="-0.370058">
        <ele>200.4</ele>
        <time>2012-08-20T13:34:57Z</time>
      </trkpt>
    </trkseg>
  </trk>
  <trk>
    <name>T3303249-19</name>
    <cmt>La ruta empieza en Ojos Negros. Hasta Santa Eulalia va por una carretera comarcal apenas transitada. Hay un tramo de unos 40 km durante el puerto del Escandón que no aparece reflejado en el track porque me quedé sin batería en el GPS pero la vía verde no tiene pérdida en esa zona</cmt>
    <desc>La ruta empieza en Ojos Negros. Hasta Santa Eulalia va por una carretera comarcal apenas transitada. Hay un tramo de unos 40 km durante el puerto del Escandón que no aparece reflejado en el track porque me quedé sin batería en el GPS pero la vía verde no tiene pérdida en esa zona</desc>
    <trkseg>
      <trkpt lat="39.746344" lon="-0.370216">
        <ele>200.4</ele>
        <time>2012-08-20T13:35:03Z</time>
      </trkpt>
      <trkpt lat="39.746301" lon="-0.370385">
        <ele>200.4</ele>
        <time>2012-08-20T13:35:08Z</time>
      </trkpt>
      <trkpt lat="39.746262" lon="-0.370492">
        <ele>200.4</ele>
        <time>2012-08-20T13:35:11Z</time>
      </trkpt>
      <trkpt lat="39.746232" lon="-0.370506">
        <ele>200.4</ele>
        <time>2012-08-20T13:35:12Z</time>
      </trkpt>
      <trkpt lat="39.746168" lon="-0.370439">
        <ele>200.4</ele>
        <time>2012-08-20T13:35:15Z</time>
      </trkpt>
      <trkpt lat="39.746148" lon="-0.370363">
        <ele>200.4</ele>
        <time>2012-08-20T13:35:17Z</time>
      </trkpt>
      <trkpt lat="39.746116" lon="-0.370253">
        <ele>200.8</ele>
        <time>2012-08-20T13:35:20Z</time>
      </trkpt>
      <trkpt lat="39.746104" lon="-0.370213">
        <ele>201.2</ele>
        <time>2012-08-20T13:35:21Z</time>
      </trkpt>
      <trkpt lat="39.746093" lon="-0.370177">
        <ele>201.8</ele>
        <time>2012-08-20T13:35:22Z</time>
      </trkpt>
      <trkpt lat="39.746080" lon="-0.370142">
        <ele>202.2</ele>
        <time>2012-08-20T13:35:23Z</time>
      </trkpt>
      <trkpt lat="39.746066" lon="-0.370112">
        <ele>202.6</ele>
        <time>2012-08-20T13:35:24Z</time>
      </trkpt>
      <trkpt lat="39.746026" lon="-0.370058">
        <ele>203.0</ele>
        <time>2012-08-20T13:35:26Z</time>
      </trkpt>
      <trkpt lat="39.746002" lon="-0.370037">
        <ele>203.4</ele>
        <time>2012-08-20T13:35:27Z</time>
      </trkpt>
      <trkpt lat="39.745977" lon="-0.370022">
        <ele>203.8</ele>
        <time>2012-08-20T13:35:28Z</time>
      </trkpt>
      <trkpt lat="39.745948" lon="-0.370009">
        <ele>204.4</ele>
        <time>2012-08-20T13:35:29Z</time>
      </trkpt>
      <trkpt lat="39.745926" lon="-0.369994">
        <ele>204.8</ele>
        <time>2012-08-20T13:35:30Z</time>
      </trkpt>
      <trkpt lat="39.745851" lon="-0.369937">
        <ele>204.8</ele>
        <time>2012-08-20T13:35:33Z</time>
      </trkpt>
      <trkpt lat="39.745827" lon="-0.369920">
        <ele>205.2</ele>
        <time>2012-08-20T13:35:34Z</time>
      </trkpt>
      <trkpt lat="39.745803" lon="-0.369902">
        <ele>205.6</ele>
        <time>2012-08-20T13:35:35Z</time>
      </trkpt>
      <trkpt lat="39.745781" lon="-0.369883">
        <ele>206.0</ele>
        <time>2012-08-20T13:35:36Z</time>
      </trkpt>
      <trkpt lat="39.745757" lon="-0.369867">
        <ele>206.4</ele>
        <time>2012-08-20T13:35:37Z</time>
      </trkpt>
      <trkpt lat="39.745734" lon="-0.369857">
        <ele>207.0</ele>
        <time>2012-08-20T13:35:38Z</time>
      </trkpt>
      <trkpt lat="39.745687" lon="-0.369832">
        <ele>207.0</ele>
        <time>2012-08-20T13:35:40Z</time>
      </trkpt>
      <trkpt lat="39.745643" lon="-0.369804">
        <ele>207.4</ele>
        <time>2012-08-20T13:35:42Z</time>
      </trkpt>
      <trkpt lat="39.745620" lon="-0.369789">
        <ele>208.2</ele>
        <time>2012-08-20T13:35:43Z</time>
      </trkpt>
      <trkpt lat="39.745595" lon="-0.369771">
        <ele>208.6</ele>
        <time>2012-08-20T13:35:44Z</time>
      </trkpt>
      <trkpt lat="39.745568" lon="-0.369749">
        <ele>209.0</ele>
        <time>2012-08-20T13:35:45Z</time>
      </trkpt>
      <trkpt lat="39.745549" lon="-0.369735">
        <ele>209.0</ele>
        <time>2012-08-20T13:35:46Z</time>
      </trkpt>
      <trkpt lat="39.745470" lon="-0.369676">
        <ele>209.4</ele>
        <time>2012-08-20T13:35:50Z</time>
      </trkpt>
      <trkpt lat="39.745450" lon="-0.369664">
        <ele>209.8</ele>
        <time>2012-08-20T13:35:51Z</time>
      </trkpt>
      <trkpt lat="39.745434" lon="-0.369646">
        <ele>210.2</ele>
        <time>2012-08-20T13:35:52Z</time>
      </trkpt>
      <trkpt lat="39.745416" lon="-0.369629">
        <ele>210.6</ele>
        <time>2012-08-20T13:35:53Z</time>
      </trkpt>
      <trkpt lat="39.745402" lon="-0.369617">
        <ele>211.0</ele>
        <time>2012-08-20T13:35:54Z</time>
      </trkpt>
      <trkpt lat="39.745344" lon="-0.369569">
        <ele>211.0</ele>
        <time>2012-08-20T13:35:58Z</time>
      </trkpt>
      <trkpt lat="39.745323" lon="-0.369552">
        <ele>211.0</ele>
        <time>2012-08-20T13:36:02Z</time>
      </trkpt>
      <trkpt lat="39.745323" lon="-0.369552">
        <ele>211.0</ele>
        <time>2012-08-20T13:36:03Z</time>
      </trkpt>
      <trkpt lat="39.745323" lon="-0.369552">
        <ele>211.0</ele>
        <time>2012-08-20T13:36:04Z</time>
      </trkpt>
      <trkpt lat="39.745245" lon="-0.369480">
        <ele>211.0</ele>
        <time>2012-08-20T13:37:48Z</time>
      </trkpt>
      <trkpt lat="39.745220" lon="-0.369461">
        <ele>211.0</ele>
        <time>2012-08-20T13:37:49Z</time>
      </trkpt>
      <trkpt lat="39.745026" lon="-0.369326">
        <ele>211.0</ele>
        <time>2012-08-20T13:37:56Z</time>
      </trkpt>
      <trkpt lat="39.744777" lon="-0.369149">
        <ele>211.0</ele>
        <time>2012-08-20T13:38:04Z</time>
      </trkpt>
      <trkpt lat="39.744537" lon="-0.368968">
        <ele>211.0</ele>
        <time>2012-08-20T13:38:11Z</time>
      </trkpt>
      <trkpt lat="39.744500" lon="-0.368945">
        <ele>211.0</ele>
        <time>2012-08-20T13:38:12Z</time>
      </trkpt>
      <trkpt lat="39.744314" lon="-0.368826">
        <ele>211.0</ele>
        <time>2012-08-20T13:38:17Z</time>
      </trkpt>
      <trkpt lat="39.744071" lon="-0.368663">
        <ele>211.0</ele>
        <time>2012-08-20T13:38:24Z</time>
      </trkpt>
      <trkpt lat="39.743827" lon="-0.368534">
        <ele>211.0</ele>
        <time>2012-08-20T13:38:31Z</time>
      </trkpt>
      <trkpt lat="39.743791" lon="-0.368515">
        <ele>211.4</ele>
        <time>2012-08-20T13:38:32Z</time>
      </trkpt>
      <trkpt lat="39.743754" lon="-0.368498">
        <ele>211.8</ele>
        <time>2012-08-20T13:38:33Z</time>
      </trkpt>
      <trkpt lat="39.743715" lon="-0.368482">
        <ele>212.2</ele>
        <time>2012-08-20T13:38:34Z</time>
      </trkpt>
      <trkpt lat="39.743676" lon="-0.368471">
        <ele>212.6</ele>
        <time>2012-08-20T13:38:35Z</time>
      </trkpt>
      <trkpt lat="39.743641" lon="-0.368456">
        <ele>213.0</ele>
        <time>2012-08-20T13:38:36Z</time>
      </trkpt>
      <trkpt lat="39.743524" lon="-0.368415">
        <ele>213.0</ele>
        <time>2012-08-20T13:38:39Z</time>
      </trkpt>
      <trkpt lat="39.743446" lon="-0.368391">
        <ele>213.0</ele>
        <time>2012-08-20T13:38:41Z</time>
      </trkpt>
      <trkpt lat="39.743219" lon="-0.368324">
        <ele>213.0</ele>
        <time>2012-08-20T13:38:46Z</time>
      </trkpt>
      <trkpt lat="39.742877" lon="-0.368174">
        <ele>213.0</ele>
        <time>2012-08-20T13:38:54Z</time>
      </trkpt>
      <trkpt lat="39.742838" lon="-0.368136">
        <ele>213.0</ele>
        <time>2012-08-20T13:38:55Z</time>
      </trkpt>
      <trkpt lat="39.742726" lon="-0.367930">
        <ele>212.6</ele>
        <time>2012-08-20T13:38:59Z</time>
      </trkpt>
      <trkpt lat="39.742717" lon="-0.367869">
        <ele>212.2</ele>
        <time>2012-08-20T13:39:00Z</time>
      </trkpt>
      <trkpt lat="39.742715" lon="-0.367811">
        <ele>211.8</ele>
        <time>2012-08-20T13:39:01Z</time>
      </trkpt>
      <trkpt lat="39.742715" lon="-0.367765">
        <ele>211.0</ele>
        <time>2012-08-20T13:39:02Z</time>
      </trkpt>
      <trkpt lat="39.742714" lon="-0.367735">
        <ele>211.0</ele>
        <time>2012-08-20T13:39:03Z</time>
      </trkpt>
      <trkpt lat="39.742709" lon="-0.367702">
        <ele>210.4</ele>
        <time>2012-08-20T13:39:04Z</time>
      </trkpt>
      <trkpt lat="39.742713" lon="-0.367665">
        <ele>210.0</ele>
        <time>2012-08-20T13:39:05Z</time>
      </trkpt>
      <trkpt lat="39.742713" lon="-0.367634">
        <ele>209.6</ele>
        <time>2012-08-20T13:39:06Z</time>
      </trkpt>
      <trkpt lat="39.742713" lon="-0.367596">
        <ele>209.0</ele>
        <time>2012-08-20T13:39:07Z</time>
      </trkpt>
      <trkpt lat="39.742709" lon="-0.367561">
        <ele>208.6</ele>
        <time>2012-08-20T13:39:08Z</time>
      </trkpt>
      <trkpt lat="39.742705" lon="-0.367438">
        <ele>208.6</ele>
        <time>2012-08-20T13:39:12Z</time>
      </trkpt>
      <trkpt lat="39.742700" lon="-0.367361">
        <ele>208.2</ele>
        <time>2012-08-20T13:39:15Z</time>
      </trkpt>
      <trkpt lat="39.742695" lon="-0.367327">
        <ele>207.8</ele>
        <time>2012-08-20T13:39:16Z</time>
      </trkpt>
      <trkpt lat="39.742688" lon="-0.367290">
        <ele>207.4</ele>
        <time>2012-08-20T13:39:17Z</time>
      </trkpt>
      <trkpt lat="39.742682" lon="-0.367253">
        <ele>207.0</ele>
        <time>2012-08-20T13:39:18Z</time>
      </trkpt>
      <trkpt lat="39.742673" lon="-0.367227">
        <ele>206.6</ele>
        <time>2012-08-20T13:39:19Z</time>
      </trkpt>
      <trkpt lat="39.742669" lon="-0.367221">
        <ele>206.6</ele>
        <time>2012-08-20T13:39:20Z</time>
      </trkpt>
      <trkpt lat="39.742666" lon="-0.367222">
        <ele>206.6</ele>
        <time>2012-08-20T13:39:21Z</time>
      </trkpt>
      <trkpt lat="39.742665" lon="-0.367221">
        <ele>206.6</ele>
        <time>2012-08-20T13:39:23Z</time>
      </trkpt>
      <trkpt lat="39.742683" lon="-0.367254">
        <ele>206.6</ele>
        <time>2012-08-20T13:42:14Z</time>
      </trkpt>
      <trkpt lat="39.742682" lon="-0.367268">
        <ele>206.6</ele>
        <time>2012-08-20T13:42:18Z</time>
      </trkpt>
      <trkpt lat="39.742682" lon="-0.367287">
        <ele>206.6</ele>
        <time>2012-08-20T13:42:20Z</time>
      </trkpt>
      <trkpt lat="39.742682" lon="-0.367324">
        <ele>206.6</ele>
        <time>2012-08-20T13:42:23Z</time>
      </trkpt>
      <trkpt lat="39.742685" lon="-0.367372">
        <ele>206.6</ele>
        <time>2012-08-20T13:42:28Z</time>
      </trkpt>
      <trkpt lat="39.742680" lon="-0.367380">
        <ele>206.6</ele>
        <time>2012-08-20T13:42:33Z</time>
      </trkpt>
      <trkpt lat="39.742649" lon="-0.367305">
        <ele>206.6</ele>
        <time>2012-08-20T13:42:39Z</time>
      </trkpt>
      <trkpt lat="39.742620" lon="-0.367196">
        <ele>206.6</ele>
        <time>2012-08-20T13:42:43Z</time>
      </trkpt>
      <trkpt lat="39.742605" lon="-0.367136">
        <ele>206.6</ele>
        <time>2012-08-20T13:42:45Z</time>
      </trkpt>
      <trkpt lat="39.742568" lon="-0.367069">
        <ele>206.2</ele>
        <time>2012-08-20T13:42:47Z</time>
      </trkpt>
      <trkpt lat="39.742544" lon="-0.367039">
        <ele>205.6</ele>
        <time>2012-08-20T13:42:48Z</time>
      </trkpt>
      <trkpt lat="39.742509" lon="-0.367007">
        <ele>205.2</ele>
        <time>2012-08-20T13:42:49Z</time>
      </trkpt>
      <trkpt lat="39.742473" lon="-0.366984">
        <ele>204.8</ele>
        <time>2012-08-20T13:42:50Z</time>
      </trkpt>
      <trkpt lat="39.742436" lon="-0.366971">
        <ele>204.4</ele>
        <time>2012-08-20T13:42:51Z</time>
      </trkpt>
      <trkpt lat="39.742350" lon="-0.366952">
        <ele>204.4</ele>
        <time>2012-08-20T13:42:54Z</time>
      </trkpt>
      <trkpt lat="39.742340" lon="-0.366947">
        <ele>204.4</ele>
        <time>2012-08-20T13:42:56Z</time>
      </trkpt>
      <trkpt lat="39.742312" lon="-0.366943">
        <ele>204.4</ele>
        <time>2012-08-20T13:43:06Z</time>
      </trkpt>
      <trkpt lat="39.742312" lon="-0.366943">
        <ele>204.4</ele>
        <time>2012-08-20T13:43:07Z</time>
      </trkpt>
      <trkpt lat="39.742312" lon="-0.366943">
        <ele>204.4</ele>
        <time>2012-08-20T13:43:09Z</time>
      </trkpt>
      <trkpt lat="39.742326" lon="-0.366852">
        <ele>202.4</ele>
        <time>2012-08-20T13:43:44Z</time>
      </trkpt>
      <trkpt lat="39.742283" lon="-0.366832">
        <ele>202.4</ele>
        <time>2012-08-20T13:43:46Z</time>
      </trkpt>
      <trkpt lat="39.742083" lon="-0.366759">
        <ele>202.4</ele>
        <time>2012-08-20T13:43:52Z</time>
      </trkpt>
      <trkpt lat="39.741886" lon="-0.366735">
        <ele>202.4</ele>
        <time>2012-08-20T13:43:59Z</time>
      </trkpt>
      <trkpt lat="39.741870" lon="-0.366740">
        <ele>202.4</ele>
        <time>2012-08-20T13:44:00Z</time>
      </trkpt>
      <trkpt lat="39.741864" lon="-0.366798">
        <ele>202.4</ele>
        <time>2012-08-20T13:44:02Z</time>
      </trkpt>
      <trkpt lat="39.741814" lon="-0.366963">
        <ele>202.4</ele>
        <time>2012-08-20T13:44:08Z</time>
      </trkpt>
      <trkpt lat="39.741770" lon="-0.367018">
        <ele>202.4</ele>
        <time>2012-08-20T13:44:11Z</time>
      </trkpt>
      <trkpt lat="39.741733" lon="-0.367060">
        <ele>202.4</ele>
        <time>2012-08-20T13:44:13Z</time>
      </trkpt>
      <trkpt lat="39.741618" lon="-0.367218">
        <ele>202.4</ele>
        <time>2012-08-20T13:44:20Z</time>
      </trkpt>
      <trkpt lat="39.741571" lon="-0.367293">
        <ele>202.4</ele>
        <time>2012-08-20T13:44:24Z</time>
      </trkpt>
      <trkpt lat="39.741576" lon="-0.367329">
        <ele>202.4</ele>
        <time>2012-08-20T13:44:26Z</time>
      </trkpt>
      <trkpt lat="39.741593" lon="-0.367370">
        <ele>202.4</ele>
        <time>2012-08-20T13:44:29Z</time>
      </trkpt>
      <trkpt lat="39.741595" lon="-0.367371">
        <ele>202.4</ele>
        <time>2012-08-20T13:44:30Z</time>
      </trkpt>
      <trkpt lat="39.741594" lon="-0.367371">
        <ele>202.4</ele>
        <time>2012-08-20T13:44:31Z</time>
      </trkpt>
      <trkpt lat="39.741595" lon="-0.367371">
        <ele>202.4</ele>
        <time>2012-08-20T13:44:32Z</time>
      </trkpt>
      <trkpt lat="39.741562" lon="-0.367354">
        <ele>202.4</ele>
        <time>2012-08-20T13:44:38Z</time>
      </trkpt>
      <trkpt lat="39.741529" lon="-0.367328">
        <ele>202.4</ele>
        <time>2012-08-20T13:44:41Z</time>
      </trkpt>
      <trkpt lat="39.741528" lon="-0.367329">
        <ele>202.4</ele>
        <time>2012-08-20T13:44:42Z</time>
      </trkpt>
      <trkpt lat="39.741527" lon="-0.367328">
        <ele>202.4</ele>
        <time>2012-08-20T13:44:44Z</time>
      </trkpt>
      <trkpt lat="39.741507" lon="-0.367362">
        <ele>202.4</ele>
        <time>2012-08-20T13:45:27Z</time>
      </trkpt>
      <trkpt lat="39.741507" lon="-0.367363">
        <ele>202.4</ele>
        <time>2012-08-20T13:45:29Z</time>
      </trkpt>
      <trkpt lat="39.741468" lon="-0.367331">
        <ele>202.4</ele>
        <time>2012-08-20T13:45:38Z</time>
      </trkpt>
      <trkpt lat="39.741467" lon="-0.367330">
        <ele>202.4</ele>
        <time>2012-08-20T13:45:40Z</time>
      </trkpt>
      <trkpt lat="39.741467" lon="-0.367330">
        <ele>202.4</ele>
        <time>2012-08-20T13:45:42Z</time>
      </trkpt>
      <trkpt lat="39.741433" lon="-0.367311">
        <ele>200.2</ele>
        <time>2012-08-20T13:46:13Z</time>
      </trkpt>
      <trkpt lat="39.741432" lon="-0.367313">
        <ele>200.2</ele>
        <time>2012-08-20T13:46:14Z</time>
      </trkpt>
      <trkpt lat="39.741431" lon="-0.367312">
        <ele>200.2</ele>
        <time>2012-08-20T13:46:15Z</time>
      </trkpt>
      <trkpt lat="39.741368" lon="-0.367334">
        <ele>200.2</ele>
        <time>2012-08-20T13:46:20Z</time>
      </trkpt>
      <trkpt lat="39.741351" lon="-0.367343">
        <ele>200.2</ele>
        <time>2012-08-20T13:46:21Z</time>
      </trkpt>
      <trkpt lat="39.741253" lon="-0.367399">
        <ele>200.2</ele>
        <time>2012-08-20T13:46:26Z</time>
      </trkpt>
      <trkpt lat="39.741122" lon="-0.367531">
        <ele>200.2</ele>
        <time>2012-08-20T13:46:32Z</time>
      </trkpt>
      <trkpt lat="39.741066" lon="-0.367704">
        <ele>200.2</ele>
        <time>2012-08-20T13:46:37Z</time>
      </trkpt>
      <trkpt lat="39.741035" lon="-0.367809">
        <ele>200.2</ele>
        <time>2012-08-20T13:46:40Z</time>
      </trkpt>
      <trkpt lat="39.741014" lon="-0.367957">
        <ele>200.2</ele>
        <time>2012-08-20T13:46:44Z</time>
      </trkpt>
      <trkpt lat="39.740993" lon="-0.368224">
        <ele>200.2</ele>
        <time>2012-08-20T13:46:51Z</time>
      </trkpt>
      <trkpt lat="39.740962" lon="-0.368552">
        <ele>200.2</ele>
        <time>2012-08-20T13:46:58Z</time>
      </trkpt>
      <trkpt lat="39.740974" lon="-0.368650">
        <ele>200.2</ele>
        <time>2012-08-20T13:47:00Z</time>
      </trkpt>
      <trkpt lat="39.740932" lon="-0.368860">
        <ele>200.2</ele>
        <time>2012-08-20T13:47:04Z</time>
      </trkpt>
      <trkpt lat="39.740916" lon="-0.368953">
        <ele>200.6</ele>
        <time>2012-08-20T13:47:06Z</time>
      </trkpt>
      <trkpt lat="39.740901" lon="-0.368995">
        <ele>201.2</ele>
        <time>2012-08-20T13:47:07Z</time>
      </trkpt>
      <trkpt lat="39.740883" lon="-0.369032">
        <ele>201.6</ele>
        <time>2012-08-20T13:47:08Z</time>
      </trkpt>
      <trkpt lat="39.740864" lon="-0.369073">
        <ele>202.2</ele>
        <time>2012-08-20T13:47:09Z</time>
      </trkpt>
      <trkpt lat="39.740845" lon="-0.369113">
        <ele>202.6</ele>
        <time>2012-08-20T13:47:10Z</time>
      </trkpt>
      <trkpt lat="39.740825" lon="-0.369150">
        <ele>203.2</ele>
        <time>2012-08-20T13:47:11Z</time>
      </trkpt>
      <trkpt lat="39.740805" lon="-0.369186">
        <ele>203.6</ele>
        <time>2012-08-20T13:47:12Z</time>
      </trkpt>
      <trkpt lat="39.740782" lon="-0.369223">
        <ele>204.0</ele>
        <time>2012-08-20T13:47:13Z</time>
      </trkpt>
      <trkpt lat="39.740758" lon="-0.369259">
        <ele>204.4</ele>
        <time>2012-08-20T13:47:14Z</time>
      </trkpt>
      <trkpt lat="39.740734" lon="-0.369295">
        <ele>204.8</ele>
        <time>2012-08-20T13:47:15Z</time>
      </trkpt>
      <trkpt lat="39.740712" lon="-0.369333">
        <ele>204.8</ele>
        <time>2012-08-20T13:47:16Z</time>
      </trkpt>
      <trkpt lat="39.740697" lon="-0.369367">
        <ele>205.2</ele>
        <time>2012-08-20T13:47:17Z</time>
      </trkpt>
      <trkpt lat="39.740679" lon="-0.369399">
        <ele>205.6</ele>
        <time>2012-08-20T13:47:18Z</time>
      </trkpt>
      <trkpt lat="39.740661" lon="-0.369429">
        <ele>206.0</ele>
        <time>2012-08-20T13:47:19Z</time>
      </trkpt>
      <trkpt lat="39.740638" lon="-0.369455">
        <ele>206.4</ele>
        <time>2012-08-20T13:47:20Z</time>
      </trkpt>
      <trkpt lat="39.740616" lon="-0.369483">
        <ele>206.8</ele>
        <time>2012-08-20T13:47:21Z</time>
      </trkpt>
      <trkpt lat="39.740580" lon="-0.369538">
        <ele>207.2</ele>
        <time>2012-08-20T13:47:23Z</time>
      </trkpt>
      <trkpt lat="39.740565" lon="-0.369565">
        <ele>207.6</ele>
        <time>2012-08-20T13:47:24Z</time>
      </trkpt>
      <trkpt lat="39.740546" lon="-0.369590">
        <ele>208.0</ele>
        <time>2012-08-20T13:47:25Z</time>
      </trkpt>
      <trkpt lat="39.740525" lon="-0.369609">
        <ele>208.6</ele>
        <time>2012-08-20T13:47:26Z</time>
      </trkpt>
      <trkpt lat="39.740507" lon="-0.369626">
        <ele>209.0</ele>
        <time>2012-08-20T13:47:27Z</time>
      </trkpt>
      <trkpt lat="39.740472" lon="-0.369666">
        <ele>209.0</ele>
        <time>2012-08-20T13:47:30Z</time>
      </trkpt>
      <trkpt lat="39.740445" lon="-0.369667">
        <ele>209.4</ele>
        <time>2012-08-20T13:47:32Z</time>
      </trkpt>
      <trkpt lat="39.740434" lon="-0.369659">
        <ele>209.8</ele>
        <time>2012-08-20T13:47:33Z</time>
      </trkpt>
      <trkpt lat="39.740423" lon="-0.369648">
        <ele>210.2</ele>
        <time>2012-08-20T13:47:34Z</time>
      </trkpt>
      <trkpt lat="39.740416" lon="-0.369640">
        <ele>210.6</ele>
        <time>2012-08-20T13:47:35Z</time>
      </trkpt>
      <trkpt lat="39.740415" lon="-0.369638">
        <ele>211.0</ele>
        <time>2012-08-20T13:47:36Z</time>
      </trkpt>
      <trkpt lat="39.740416" lon="-0.369638">
        <ele>211.0</ele>
        <time>2012-08-20T13:47:37Z</time>
      </trkpt>
      <trkpt lat="39.740416" lon="-0.369638">
        <ele>211.0</ele>
        <time>2012-08-20T13:47:39Z</time>
      </trkpt>
      <trkpt lat="39.740385" lon="-0.369592">
        <ele>211.0</ele>
        <time>2012-08-20T13:48:12Z</time>
      </trkpt>
      <trkpt lat="39.740380" lon="-0.369586">
        <ele>211.0</ele>
        <time>2012-08-20T13:48:14Z</time>
      </trkpt>
      <trkpt lat="39.740380" lon="-0.369586">
        <ele>211.0</ele>
        <time>2012-08-20T13:48:16Z</time>
      </trkpt>
      <trkpt lat="39.740342" lon="-0.369538">
        <ele>211.0</ele>
        <time>2012-08-20T13:48:43Z</time>
      </trkpt>
      <trkpt lat="39.740317" lon="-0.369500">
        <ele>211.0</ele>
        <time>2012-08-20T13:48:45Z</time>
      </trkpt>
      <trkpt lat="39.740221" lon="-0.369349">
        <ele>211.0</ele>
        <time>2012-08-20T13:48:51Z</time>
      </trkpt>
      <trkpt lat="39.740095" lon="-0.369154">
        <ele>211.0</ele>
        <time>2012-08-20T13:48:57Z</time>
      </trkpt>
      <trkpt lat="39.740053" lon="-0.369084">
        <ele>210.6</ele>
        <time>2012-08-20T13:48:59Z</time>
      </trkpt>
      <trkpt lat="39.740031" lon="-0.369049">
        <ele>210.2</ele>
        <time>2012-08-20T13:49:00Z</time>
      </trkpt>
      <trkpt lat="39.740011" lon="-0.369012">
        <ele>209.8</ele>
        <time>2012-08-20T13:49:01Z</time>
      </trkpt>
      <trkpt lat="39.739986" lon="-0.368978">
        <ele>209.4</ele>
        <time>2012-08-20T13:49:02Z</time>
      </trkpt>
      <trkpt lat="39.739956" lon="-0.368957">
        <ele>209.0</ele>
        <time>2012-08-20T13:49:03Z</time>
      </trkpt>
      <trkpt lat="39.739924" lon="-0.368948">
        <ele>209.0</ele>
        <time>2012-08-20T13:49:04Z</time>
      </trkpt>
      <trkpt lat="39.739811" lon="-0.369004">
        <ele>209.0</ele>
        <time>2012-08-20T13:49:08Z</time>
      </trkpt>
      <trkpt lat="39.739607" lon="-0.369192">
        <ele>209.0</ele>
        <time>2012-08-20T13:49:15Z</time>
      </trkpt>
      <trkpt lat="39.739479" lon="-0.369296">
        <ele>209.0</ele>
        <time>2012-08-20T13:49:19Z</time>
      </trkpt>
      <trkpt lat="39.739402" lon="-0.369345">
        <ele>209.0</ele>
        <time>2012-08-20T13:49:21Z</time>
      </trkpt>
      <trkpt lat="39.739334" lon="-0.369385">
        <ele>208.4</ele>
        <time>2012-08-20T13:49:23Z</time>
      </trkpt>
      <trkpt lat="39.739296" lon="-0.369392">
        <ele>208.0</ele>
        <time>2012-08-20T13:49:24Z</time>
      </trkpt>
      <trkpt lat="39.739256" lon="-0.369392">
        <ele>207.6</ele>
        <time>2012-08-20T13:49:25Z</time>
      </trkpt>
      <trkpt lat="39.739213" lon="-0.369382">
        <ele>207.2</ele>
        <time>2012-08-20T13:49:26Z</time>
      </trkpt>
      <trkpt lat="39.739171" lon="-0.369364">
        <ele>206.8</ele>
        <time>2012-08-20T13:49:27Z</time>
      </trkpt>
      <trkpt lat="39.739086" lon="-0.369305">
        <ele>206.4</ele>
        <time>2012-08-20T13:49:29Z</time>
      </trkpt>
      <trkpt lat="39.739042" lon="-0.369272">
        <ele>206.0</ele>
        <time>2012-08-20T13:49:30Z</time>
      </trkpt>
      <trkpt lat="39.739002" lon="-0.369236">
        <ele>205.6</ele>
        <time>2012-08-20T13:49:31Z</time>
      </trkpt>
      <trkpt lat="39.738961" lon="-0.369196">
        <ele>205.2</ele>
        <time>2012-08-20T13:49:32Z</time>
      </trkpt>
      <trkpt lat="39.738919" lon="-0.369163">
        <ele>204.8</ele>
        <time>2012-08-20T13:49:33Z</time>
      </trkpt>
      <trkpt lat="39.738825" lon="-0.369102">
        <ele>204.8</ele>
        <time>2012-08-20T13:49:35Z</time>
      </trkpt>
      <trkpt lat="39.738759" lon="-0.369090">
        <ele>204.2</ele>
        <time>2012-08-20T13:49:36Z</time>
      </trkpt>
      <trkpt lat="39.738683" lon="-0.369094">
        <ele>203.8</ele>
        <time>2012-08-20T13:49:37Z</time>
      </trkpt>
      <trkpt lat="39.738610" lon="-0.369115">
        <ele>203.4</ele>
        <time>2012-08-20T13:49:38Z</time>
      </trkpt>
      <trkpt lat="39.738541" lon="-0.369146">
        <ele>203.0</ele>
        <time>2012-08-20T13:49:39Z</time>
      </trkpt>
      <trkpt lat="39.738472" lon="-0.369181">
        <ele>202.4</ele>
        <time>2012-08-20T13:49:40Z</time>
      </trkpt>
      <trkpt lat="39.738403" lon="-0.369214">
        <ele>202.0</ele>
        <time>2012-08-20T13:49:41Z</time>
      </trkpt>
      <trkpt lat="39.738332" lon="-0.369249">
        <ele>201.6</ele>
        <time>2012-08-20T13:49:42Z</time>
      </trkpt>
      <trkpt lat="39.738260" lon="-0.369286">
        <ele>201.2</ele>
        <time>2012-08-20T13:49:43Z</time>
      </trkpt>
      <trkpt lat="39.738194" lon="-0.369322">
        <ele>200.8</ele>
        <time>2012-08-20T13:49:44Z</time>
      </trkpt>
      <trkpt lat="39.738129" lon="-0.369354">
        <ele>200.2</ele>
        <time>2012-08-20T13:49:45Z</time>
      </trkpt>
      <trkpt lat="39.737941" lon="-0.369466">
        <ele>200.2</ele>
        <time>2012-08-20T13:49:48Z</time>
      </trkpt>
      <trkpt lat="39.737704" lon="-0.369607">
        <ele>199.8</ele>
        <time>2012-08-20T13:49:52Z</time>
      </trkpt>
      <trkpt lat="39.737649" lon="-0.369647">
        <ele>199.0</ele>
        <time>2012-08-20T13:49:53Z</time>
      </trkpt>
      <trkpt lat="39.737594" lon="-0.369685">
        <ele>198.6</ele>
        <time>2012-08-20T13:49:54Z</time>
      </trkpt>
      <trkpt lat="39.737538" lon="-0.369718">
        <ele>198.2</ele>
        <time>2012-08-20T13:49:55Z</time>
      </trkpt>
      <trkpt lat="39.737379" lon="-0.369829">
        <ele>198.2</ele>
        <time>2012-08-20T13:49:58Z</time>
      </trkpt>
      <trkpt lat="39.737275" lon="-0.369913">
        <ele>198.2</ele>
        <time>2012-08-20T13:50:00Z</time>
      </trkpt>
      <trkpt lat="39.736855" lon="-0.370232">
        <ele>197.8</ele>
        <time>2012-08-20T13:50:08Z</time>
      </trkpt>
      <trkpt lat="39.736802" lon="-0.370273">
        <ele>197.4</ele>
        <time>2012-08-20T13:50:09Z</time>
      </trkpt>
      <trkpt lat="39.736746" lon="-0.370313">
        <ele>196.8</ele>
        <time>2012-08-20T13:50:10Z</time>
      </trkpt>
      <trkpt lat="39.736694" lon="-0.370353">
        <ele>196.4</ele>
        <time>2012-08-20T13:50:11Z</time>
      </trkpt>
      <trkpt lat="39.736638" lon="-0.370396">
        <ele>196.0</ele>
        <time>2012-08-20T13:50:12Z</time>
      </trkpt>
      <trkpt lat="39.736420" lon="-0.370560">
        <ele>196.0</ele>
        <time>2012-08-20T13:50:16Z</time>
      </trkpt>
      <trkpt lat="39.736366" lon="-0.370596">
        <ele>196.0</ele>
        <time>2012-08-20T13:50:17Z</time>
      </trkpt>
      <trkpt lat="39.736315" lon="-0.370637">
        <ele>196.0</ele>
        <time>2012-08-20T13:50:18Z</time>
      </trkpt>
      <trkpt lat="39.736055" lon="-0.370837">
        <ele>196.0</ele>
        <time>2012-08-20T13:50:23Z</time>
      </trkpt>
      <trkpt lat="39.735946" lon="-0.370924">
        <ele>195.6</ele>
        <time>2012-08-20T13:50:25Z</time>
      </trkpt>
      <trkpt lat="39.735890" lon="-0.370970">
        <ele>195.2</ele>
        <time>2012-08-20T13:50:26Z</time>
      </trkpt>
      <trkpt lat="39.735834" lon="-0.371017">
        <ele>194.8</ele>
        <time>2012-08-20T13:50:27Z</time>
      </trkpt>
      <trkpt lat="39.735775" lon="-0.371064">
        <ele>194.4</ele>
        <time>2012-08-20T13:50:28Z</time>
      </trkpt>
      <trkpt lat="39.735711" lon="-0.371108">
        <ele>194.0</ele>
        <time>2012-08-20T13:50:29Z</time>
      </trkpt>
      <trkpt lat="39.735646" lon="-0.371155">
        <ele>194.0</ele>
        <time>2012-08-20T13:50:30Z</time>
      </trkpt>
      <trkpt lat="39.735194" lon="-0.371499">
        <ele>194.0</ele>
        <time>2012-08-20T13:50:38Z</time>
      </trkpt>
      <trkpt lat="39.734906" lon="-0.371721">
        <ele>193.2</ele>
        <time>2012-08-20T13:50:43Z</time>
      </trkpt>
      <trkpt lat="39.734851" lon="-0.371765">
        <ele>192.8</ele>
        <time>2012-08-20T13:50:44Z</time>
      </trkpt>
      <trkpt lat="39.734792" lon="-0.371814">
        <ele>192.4</ele>
        <time>2012-08-20T13:50:45Z</time>
      </trkpt>
      <trkpt lat="39.734737" lon="-0.371859">
        <ele>191.8</ele>
        <time>2012-08-20T13:50:46Z</time>
      </trkpt>
      <trkpt lat="39.734220" lon="-0.372219">
        <ele>191.8</ele>
        <time>2012-08-20T13:50:55Z</time>
      </trkpt>
      <trkpt lat="39.734001" lon="-0.372369">
        <ele>191.4</ele>
        <time>2012-08-20T13:50:59Z</time>
      </trkpt>
      <trkpt lat="39.733948" lon="-0.372406">
        <ele>191.0</ele>
        <time>2012-08-20T13:51:00Z</time>
      </trkpt>
      <trkpt lat="39.733892" lon="-0.372443">
        <ele>190.6</ele>
        <time>2012-08-20T13:51:01Z</time>
      </trkpt>
      <trkpt lat="39.733837" lon="-0.372479">
        <ele>190.2</ele>
        <time>2012-08-20T13:51:02Z</time>
      </trkpt>
      <trkpt lat="39.733785" lon="-0.372514">
        <ele>189.8</ele>
        <time>2012-08-20T13:51:03Z</time>
      </trkpt>
      <trkpt lat="39.733389" lon="-0.372749">
        <ele>189.8</ele>
        <time>2012-08-20T13:51:10Z</time>
      </trkpt>
      <trkpt lat="39.732947" lon="-0.372973">
        <ele>189.8</ele>
        <time>2012-08-20T13:51:18Z</time>
      </trkpt>
      <trkpt lat="39.732783" lon="-0.373050">
        <ele>189.8</ele>
        <time>2012-08-20T13:51:21Z</time>
      </trkpt>
      <trkpt lat="39.732624" lon="-0.373141">
        <ele>189.8</ele>
        <time>2012-08-20T13:51:24Z</time>
      </trkpt>
      <trkpt lat="39.732510" lon="-0.373195">
        <ele>189.4</ele>
        <time>2012-08-20T13:51:26Z</time>
      </trkpt>
      <trkpt lat="39.732452" lon="-0.373222">
        <ele>189.0</ele>
        <time>2012-08-20T13:51:27Z</time>
      </trkpt>
      <trkpt lat="39.732393" lon="-0.373249">
        <ele>188.4</ele>
        <time>2012-08-20T13:51:28Z</time>
      </trkpt>
      <trkpt lat="39.732331" lon="-0.373271">
        <ele>188.0</ele>
        <time>2012-08-20T13:51:29Z</time>
      </trkpt>
      <trkpt lat="39.732269" lon="-0.373287">
        <ele>187.6</ele>
        <time>2012-08-20T13:51:30Z</time>
      </trkpt>
      <trkpt lat="39.731963" lon="-0.373319">
        <ele>187.2</ele>
        <time>2012-08-20T13:51:35Z</time>
      </trkpt>
      <trkpt lat="39.731903" lon="-0.373321">
        <ele>186.8</ele>
        <time>2012-08-20T13:51:36Z</time>
      </trkpt>
      <trkpt lat="39.731841" lon="-0.373326">
        <ele>186.4</ele>
        <time>2012-08-20T13:51:37Z</time>
      </trkpt>
      <trkpt lat="39.731776" lon="-0.373330">
        <ele>185.8</ele>
        <time>2012-08-20T13:51:38Z</time>
      </trkpt>
      <trkpt lat="39.731708" lon="-0.373331">
        <ele>185.4</ele>
        <time>2012-08-20T13:51:39Z</time>
      </trkpt>
      <trkpt lat="39.731713" lon="-0.373250">
        <ele>185.2</ele>
        <time>2012-08-20T13:58:30Z</time>
      </trkpt>
      <trkpt lat="39.731708" lon="-0.373202">
        <ele>184.4</ele>
        <time>2012-08-20T13:58:32Z</time>
      </trkpt>
      <trkpt lat="39.731710" lon="-0.373183">
        <ele>184.0</ele>
        <time>2012-08-20T13:58:33Z</time>
      </trkpt>
      <trkpt lat="39.731711" lon="-0.373164">
        <ele>183.6</ele>
        <time>2012-08-20T13:58:34Z</time>
      </trkpt>
      <trkpt lat="39.731711" lon="-0.373147">
        <ele>183.0</ele>
        <time>2012-08-20T13:58:35Z</time>
      </trkpt>
      <trkpt lat="39.731709" lon="-0.373111">
        <ele>183.0</ele>
        <time>2012-08-20T13:58:37Z</time>
      </trkpt>
      <trkpt lat="39.731659" lon="-0.372846">
        <ele>183.0</ele>
        <time>2012-08-20T13:58:45Z</time>
      </trkpt>
      <trkpt lat="39.731643" lon="-0.372813">
        <ele>183.0</ele>
        <time>2012-08-20T13:58:46Z</time>
      </trkpt>
      <trkpt lat="39.731578" lon="-0.372768">
        <ele>183.0</ele>
        <time>2012-08-20T13:58:49Z</time>
      </trkpt>
      <trkpt lat="39.731493" lon="-0.372787">
        <ele>183.0</ele>
        <time>2012-08-20T13:58:53Z</time>
      </trkpt>
      <trkpt lat="39.731419" lon="-0.372774">
        <ele>183.6</ele>
        <time>2012-08-20T13:58:57Z</time>
      </trkpt>
      <trkpt lat="39.731401" lon="-0.372784">
        <ele>184.0</ele>
        <time>2012-08-20T13:58:58Z</time>
      </trkpt>
      <trkpt lat="39.731387" lon="-0.372798">
        <ele>184.4</ele>
        <time>2012-08-20T13:58:59Z</time>
      </trkpt>
      <trkpt lat="39.731372" lon="-0.372803">
        <ele>184.8</ele>
        <time>2012-08-20T13:59:00Z</time>
      </trkpt>
      <trkpt lat="39.731357" lon="-0.372792">
        <ele>185.2</ele>
        <time>2012-08-20T13:59:01Z</time>
      </trkpt>
      <trkpt lat="39.731340" lon="-0.372789">
        <ele>185.2</ele>
        <time>2012-08-20T13:59:02Z</time>
      </trkpt>
      <trkpt lat="39.731275" lon="-0.372808">
        <ele>185.2</ele>
        <time>2012-08-20T13:59:07Z</time>
      </trkpt>
      <trkpt lat="39.731221" lon="-0.372810">
        <ele>185.2</ele>
        <time>2012-08-20T13:59:12Z</time>
      </trkpt>
      <trkpt lat="39.731113" lon="-0.372796">
        <ele>185.2</ele>
        <time>2012-08-20T13:59:18Z</time>
      </trkpt>
      <trkpt lat="39.731096" lon="-0.372796">
        <ele>185.2</ele>
        <time>2012-08-20T13:59:19Z</time>
      </trkpt>
      <trkpt lat="39.731013" lon="-0.372795">
        <ele>185.2</ele>
        <time>2012-08-20T13:59:24Z</time>
      </trkpt>
      <trkpt lat="39.730994" lon="-0.372797">
        <ele>185.2</ele>
        <time>2012-08-20T13:59:28Z</time>
      </trkpt>
      <trkpt lat="39.730995" lon="-0.372798">
        <ele>185.2</ele>
        <time>2012-08-20T13:59:30Z</time>
      </trkpt>
      <trkpt lat="39.730941" lon="-0.372775">
        <ele>185.6</ele>
        <time>2012-08-20T13:59:49Z</time>
      </trkpt>
      <trkpt lat="39.730867" lon="-0.372773">
        <ele>185.6</ele>
        <time>2012-08-20T13:59:51Z</time>
      </trkpt>
      <trkpt lat="39.730651" lon="-0.372745">
        <ele>185.6</ele>
        <time>2012-08-20T13:59:56Z</time>
      </trkpt>
      <trkpt lat="39.730368" lon="-0.372679">
        <ele>185.6</ele>
        <time>2012-08-20T14:00:03Z</time>
      </trkpt>
      <trkpt lat="39.730067" lon="-0.372595">
        <ele>185.6</ele>
        <time>2012-08-20T14:00:09Z</time>
      </trkpt>
      <trkpt lat="39.729679" lon="-0.372462">
        <ele>185.6</ele>
        <time>2012-08-20T14:00:17Z</time>
      </trkpt>
      <trkpt lat="39.729363" lon="-0.372336">
        <ele>185.6</ele>
        <time>2012-08-20T14:00:24Z</time>
      </trkpt>
      <trkpt lat="39.729013" lon="-0.372177">
        <ele>185.6</ele>
        <time>2012-08-20T14:00:30Z</time>
      </trkpt>
      <trkpt lat="39.728650" lon="-0.371961">
        <ele>185.6</ele>
        <time>2012-08-20T14:00:37Z</time>
      </trkpt>
      <trkpt lat="39.728594" lon="-0.371923">
        <ele>184.8</ele>
        <time>2012-08-20T14:00:38Z</time>
      </trkpt>
      <trkpt lat="39.728535" lon="-0.371890">
        <ele>184.4</ele>
        <time>2012-08-20T14:00:39Z</time>
      </trkpt>
      <trkpt lat="39.728480" lon="-0.371852">
        <ele>184.0</ele>
        <time>2012-08-20T14:00:40Z</time>
      </trkpt>
      <trkpt lat="39.728424" lon="-0.371817">
        <ele>183.4</ele>
        <time>2012-08-20T14:00:41Z</time>
      </trkpt>
      <trkpt lat="39.728315" lon="-0.371748">
        <ele>183.4</ele>
        <time>2012-08-20T14:00:43Z</time>
      </trkpt>
      <trkpt lat="39.727974" lon="-0.371594">
        <ele>183.0</ele>
        <time>2012-08-20T14:00:49Z</time>
      </trkpt>
      <trkpt lat="39.727913" lon="-0.371579">
        <ele>182.6</ele>
        <time>2012-08-20T14:00:50Z</time>
      </trkpt>
      <trkpt lat="39.727846" lon="-0.371560">
        <ele>182.2</ele>
        <time>2012-08-20T14:00:51Z</time>
      </trkpt>
      <trkpt lat="39.727779" lon="-0.371527">
        <ele>181.6</ele>
        <time>2012-08-20T14:00:52Z</time>
      </trkpt>
      <trkpt lat="39.727709" lon="-0.371474">
        <ele>181.2</ele>
        <time>2012-08-20T14:00:53Z</time>
      </trkpt>
      <trkpt lat="39.727645" lon="-0.371429">
        <ele>180.8</ele>
        <time>2012-08-20T14:00:54Z</time>
      </trkpt>
      <trkpt lat="39.727579" lon="-0.371386">
        <ele>180.4</ele>
        <time>2012-08-20T14:00:55Z</time>
      </trkpt>
      <trkpt lat="39.727513" lon="-0.371343">
        <ele>179.8</ele>
        <time>2012-08-20T14:00:56Z</time>
      </trkpt>
      <trkpt lat="39.727453" lon="-0.371294">
        <ele>179.4</ele>
        <time>2012-08-20T14:00:57Z</time>
      </trkpt>
      <trkpt lat="39.727387" lon="-0.371253">
        <ele>178.8</ele>
        <time>2012-08-20T14:00:58Z</time>
      </trkpt>
      <trkpt lat="39.727190" lon="-0.371135">
        <ele>178.8</ele>
        <time>2012-08-20T14:01:01Z</time>
      </trkpt>
      <trkpt lat="39.727026" lon="-0.370981">
        <ele>178.8</ele>
        <time>2012-08-20T14:01:04Z</time>
      </trkpt>
      <trkpt lat="39.726987" lon="-0.370906">
        <ele>178.8</ele>
        <time>2012-08-20T14:01:05Z</time>
      </trkpt>
      <trkpt lat="39.726845" lon="-0.370666">
        <ele>178.8</ele>
        <time>2012-08-20T14:01:09Z</time>
      </trkpt>
      <trkpt lat="39.726807" lon="-0.370627">
        <ele>178.8</ele>
        <time>2012-08-20T14:01:10Z</time>
      </trkpt>
      <trkpt lat="39.726669" lon="-0.370534">
        <ele>178.8</ele>
        <time>2012-08-20T14:01:13Z</time>
      </trkpt>
      <trkpt lat="39.726569" lon="-0.370486">
        <ele>178.8</ele>
        <time>2012-08-20T14:01:15Z</time>
      </trkpt>
      <trkpt lat="39.726359" lon="-0.370407">
        <ele>178.8</ele>
        <time>2012-08-20T14:01:19Z</time>
      </trkpt>
      <trkpt lat="39.726084" lon="-0.370317">
        <ele>178.8</ele>
        <time>2012-08-20T14:01:24Z</time>
      </trkpt>
      <trkpt lat="39.726033" lon="-0.370308">
        <ele>178.4</ele>
        <time>2012-08-20T14:01:25Z</time>
      </trkpt>
      <trkpt lat="39.725982" lon="-0.370284">
        <ele>178.0</ele>
        <time>2012-08-20T14:01:26Z</time>
      </trkpt>
      <trkpt lat="39.725932" lon="-0.370259">
        <ele>177.2</ele>
        <time>2012-08-20T14:01:27Z</time>
      </trkpt>
      <trkpt lat="39.725876" lon="-0.370241">
        <ele>176.8</ele>
        <time>2012-08-20T14:01:28Z</time>
      </trkpt>
      <trkpt lat="39.725823" lon="-0.370219">
        <ele>176.8</ele>
        <time>2012-08-20T14:01:29Z</time>
      </trkpt>
      <trkpt lat="39.725664" lon="-0.370139">
        <ele>176.8</ele>
        <time>2012-08-20T14:01:32Z</time>
      </trkpt>
      <trkpt lat="39.725567" lon="-0.370073">
        <ele>176.8</ele>
        <time>2012-08-20T14:01:34Z</time>
      </trkpt>
      <trkpt lat="39.725411" lon="-0.369964">
        <ele>176.2</ele>
        <time>2012-08-20T14:01:37Z</time>
      </trkpt>
      <trkpt lat="39.725361" lon="-0.369926">
        <ele>175.8</ele>
        <time>2012-08-20T14:01:38Z</time>
      </trkpt>
      <trkpt lat="39.725308" lon="-0.369892">
        <ele>175.4</ele>
        <time>2012-08-20T14:01:39Z</time>
      </trkpt>
      <trkpt lat="39.725252" lon="-0.369863">
        <ele>175.0</ele>
        <time>2012-08-20T14:01:40Z</time>
      </trkpt>
      <trkpt lat="39.725197" lon="-0.369833">
        <ele>174.6</ele>
        <time>2012-08-20T14:01:41Z</time>
      </trkpt>
      <trkpt lat="39.724868" lon="-0.369614">
        <ele>174.6</ele>
        <time>2012-08-20T14:01:47Z</time>
      </trkpt>
      <trkpt lat="39.724718" lon="-0.369507">
        <ele>174.6</ele>
        <time>2012-08-20T14:01:50Z</time>
      </trkpt>
      <trkpt lat="39.724593" lon="-0.369396">
        <ele>174.6</ele>
        <time>2012-08-20T14:01:53Z</time>
      </trkpt>
      <trkpt lat="39.724551" lon="-0.369370">
        <ele>174.6</ele>
        <time>2012-08-20T14:01:54Z</time>
      </trkpt>
      <trkpt lat="39.724384" lon="-0.369262">
        <ele>174.6</ele>
        <time>2012-08-20T14:01:58Z</time>
      </trkpt>
      <trkpt lat="39.724297" lon="-0.369203">
        <ele>174.6</ele>
        <time>2012-08-20T14:02:00Z</time>
      </trkpt>
      <trkpt lat="39.724087" lon="-0.369056">
        <ele>174.6</ele>
        <time>2012-08-20T14:02:05Z</time>
      </trkpt>
      <trkpt lat="39.723974" lon="-0.368952">
        <ele>174.6</ele>
        <time>2012-08-20T14:02:08Z</time>
      </trkpt>
      <trkpt lat="39.723859" lon="-0.368858">
        <ele>174.6</ele>
        <time>2012-08-20T14:02:11Z</time>
      </trkpt>
      <trkpt lat="39.723562" lon="-0.368642">
        <ele>174.6</ele>
        <time>2012-08-20T14:02:18Z</time>
      </trkpt>
      <trkpt lat="39.723433" lon="-0.368540">
        <ele>174.2</ele>
        <time>2012-08-20T14:02:21Z</time>
      </trkpt>
      <trkpt lat="39.723399" lon="-0.368476">
        <ele>173.8</ele>
        <time>2012-08-20T14:02:22Z</time>
      </trkpt>
      <trkpt lat="39.723360" lon="-0.368418">
        <ele>173.4</ele>
        <time>2012-08-20T14:02:23Z</time>
      </trkpt>
      <trkpt lat="39.723325" lon="-0.368353">
        <ele>173.0</ele>
        <time>2012-08-20T14:02:24Z</time>
      </trkpt>
      <trkpt lat="39.723294" lon="-0.368288">
        <ele>172.6</ele>
        <time>2012-08-20T14:02:25Z</time>
      </trkpt>
      <trkpt lat="39.723211" lon="-0.368083">
        <ele>172.6</ele>
        <time>2012-08-20T14:02:28Z</time>
      </trkpt>
      <trkpt lat="39.723187" lon="-0.368022">
        <ele>172.0</ele>
        <time>2012-08-20T14:02:29Z</time>
      </trkpt>
      <trkpt lat="39.723159" lon="-0.367971">
        <ele>171.6</ele>
        <time>2012-08-20T14:02:30Z</time>
      </trkpt>
      <trkpt lat="39.723138" lon="-0.367920">
        <ele>171.2</ele>
        <time>2012-08-20T14:02:31Z</time>
      </trkpt>
      <trkpt lat="39.723126" lon="-0.367868">
        <ele>170.8</ele>
        <time>2012-08-20T14:02:32Z</time>
      </trkpt>
      <trkpt lat="39.723112" lon="-0.367817">
        <ele>170.4</ele>
        <time>2012-08-20T14:02:33Z</time>
      </trkpt>
      <trkpt lat="39.723094" lon="-0.367773">
        <ele>170.4</ele>
        <time>2012-08-20T14:02:34Z</time>
      </trkpt>
      <trkpt lat="39.723101" lon="-0.367666">
        <ele>168.4</ele>
        <time>2012-08-20T14:09:09Z</time>
      </trkpt>
      <trkpt lat="39.723308" lon="-0.367875">
        <ele>168.4</ele>
        <time>2012-08-20T14:09:16Z</time>
      </trkpt>
      <trkpt lat="39.723363" lon="-0.367930">
        <ele>168.8</ele>
        <time>2012-08-20T14:09:18Z</time>
      </trkpt>
      <trkpt lat="39.723389" lon="-0.367955">
        <ele>169.2</ele>
        <time>2012-08-20T14:09:19Z</time>
      </trkpt>
      <trkpt lat="39.723413" lon="-0.367978">
        <ele>169.6</ele>
        <time>2012-08-20T14:09:20Z</time>
      </trkpt>
      <trkpt lat="39.723441" lon="-0.367998">
        <ele>170.6</ele>
        <time>2012-08-20T14:09:21Z</time>
      </trkpt>
      <trkpt lat="39.723469" lon="-0.368021">
        <ele>170.6</ele>
        <time>2012-08-20T14:09:22Z</time>
      </trkpt>
      <trkpt lat="39.723496" lon="-0.368044">
        <ele>171.0</ele>
        <time>2012-08-20T14:09:23Z</time>
      </trkpt>
      <trkpt lat="39.723520" lon="-0.368065">
        <ele>171.6</ele>
        <time>2012-08-20T14:09:24Z</time>
      </trkpt>
      <trkpt lat="39.723546" lon="-0.368085">
        <ele>172.0</ele>
        <time>2012-08-20T14:09:25Z</time>
      </trkpt>
      <trkpt lat="39.723573" lon="-0.368102">
        <ele>172.6</ele>
        <time>2012-08-20T14:09:26Z</time>
      </trkpt>
      <trkpt lat="39.723598" lon="-0.368122">
        <ele>173.0</ele>
        <time>2012-08-20T14:09:27Z</time>
      </trkpt>
      <trkpt lat="39.723652" lon="-0.368170">
        <ele>173.0</ele>
        <time>2012-08-20T14:09:29Z</time>
      </trkpt>
      <trkpt lat="39.723846" lon="-0.368321">
        <ele>173.0</ele>
        <time>2012-08-20T14:09:35Z</time>
      </trkpt>
      <trkpt lat="39.723903" lon="-0.368368">
        <ele>173.4</ele>
        <time>2012-08-20T14:09:37Z</time>
      </trkpt>
      <trkpt lat="39.723934" lon="-0.368391">
        <ele>173.8</ele>
        <time>2012-08-20T14:09:38Z</time>
      </trkpt>
      <trkpt lat="39.723963" lon="-0.368412">
        <ele>174.4</ele>
        <time>2012-08-20T14:09:39Z</time>
      </trkpt>
      <trkpt lat="39.723991" lon="-0.368434">
        <ele>174.8</ele>
        <time>2012-08-20T14:09:40Z</time>
      </trkpt>
      <trkpt lat="39.724013" lon="-0.368461">
        <ele>175.2</ele>
        <time>2012-08-20T14:09:41Z</time>
      </trkpt>
      <trkpt lat="39.724037" lon="-0.368491">
        <ele>175.2</ele>
        <time>2012-08-20T14:09:42Z</time>
      </trkpt>
      <trkpt lat="39.724125" lon="-0.368609">
        <ele>176.0</ele>
        <time>2012-08-20T14:09:46Z</time>
      </trkpt>
      <trkpt lat="39.724150" lon="-0.368639">
        <ele>176.4</ele>
        <time>2012-08-20T14:09:47Z</time>
      </trkpt>
      <trkpt lat="39.724175" lon="-0.368671">
        <ele>177.0</ele>
        <time>2012-08-20T14:09:48Z</time>
      </trkpt>
      <trkpt lat="39.724196" lon="-0.368704">
        <ele>177.4</ele>
        <time>2012-08-20T14:09:49Z</time>
      </trkpt>
      <trkpt lat="39.724226" lon="-0.368819">
        <ele>177.4</ele>
        <time>2012-08-20T14:09:52Z</time>
      </trkpt>
      <trkpt lat="39.724221" lon="-0.368926">
        <ele>177.8</ele>
        <time>2012-08-20T14:09:55Z</time>
      </trkpt>
      <trkpt lat="39.724211" lon="-0.368956">
        <ele>178.2</ele>
        <time>2012-08-20T14:09:56Z</time>
      </trkpt>
      <trkpt lat="39.724201" lon="-0.368983">
        <ele>178.6</ele>
        <time>2012-08-20T14:09:57Z</time>
      </trkpt>
      <trkpt lat="39.724189" lon="-0.369008">
        <ele>179.0</ele>
        <time>2012-08-20T14:09:58Z</time>
      </trkpt>
      <trkpt lat="39.724179" lon="-0.369035">
        <ele>179.6</ele>
        <time>2012-08-20T14:09:59Z</time>
      </trkpt>
      <trkpt lat="39.724157" lon="-0.369113">
        <ele>179.6</ele>
        <time>2012-08-20T14:10:02Z</time>
      </trkpt>
      <trkpt lat="39.724105" lon="-0.369257">
        <ele>179.6</ele>
        <time>2012-08-20T14:10:08Z</time>
      </trkpt>
      <trkpt lat="39.724096" lon="-0.369281">
        <ele>179.6</ele>
        <time>2012-08-20T14:10:09Z</time>
      </trkpt>
      <trkpt lat="39.724058" lon="-0.369348">
        <ele>179.6</ele>
        <time>2012-08-20T14:10:12Z</time>
      </trkpt>
      <trkpt lat="39.724037" lon="-0.369400">
        <ele>180.0</ele>
        <time>2012-08-20T14:10:14Z</time>
      </trkpt>
      <trkpt lat="39.724028" lon="-0.369426">
        <ele>180.4</ele>
        <time>2012-08-20T14:10:15Z</time>
      </trkpt>
      <trkpt lat="39.724016" lon="-0.369450">
        <ele>180.8</ele>
        <time>2012-08-20T14:10:16Z</time>
      </trkpt>
      <trkpt lat="39.724006" lon="-0.369476">
        <ele>181.2</ele>
        <time>2012-08-20T14:10:17Z</time>
      </trkpt>
      <trkpt lat="39.723996" lon="-0.369501">
        <ele>181.6</ele>
        <time>2012-08-20T14:10:18Z</time>
      </trkpt>
      <trkpt lat="39.723984" lon="-0.369529">
        <ele>181.6</ele>
        <time>2012-08-20T14:10:19Z</time>
      </trkpt>
      <trkpt lat="39.723928" lon="-0.369715">
        <ele>181.6</ele>
        <time>2012-08-20T14:10:26Z</time>
      </trkpt>
      <trkpt lat="39.723871" lon="-0.369835">
        <ele>181.6</ele>
        <time>2012-08-20T14:10:31Z</time>
      </trkpt>
      <trkpt lat="39.723833" lon="-0.370134">
        <ele>181.6</ele>
        <time>2012-08-20T14:10:40Z</time>
      </trkpt>
      <trkpt lat="39.723886" lon="-0.370386">
        <ele>181.6</ele>
        <time>2012-08-20T14:10:47Z</time>
      </trkpt>
      <trkpt lat="39.723986" lon="-0.370569">
        <ele>181.6</ele>
        <time>2012-08-20T14:10:53Z</time>
      </trkpt>
      <trkpt lat="39.724026" lon="-0.370738">
        <ele>181.6</ele>
        <time>2012-08-20T14:10:58Z</time>
      </trkpt>
      <trkpt lat="39.723956" lon="-0.370747">
        <ele>181.6</ele>
        <time>2012-08-20T14:11:01Z</time>
      </trkpt>
      <trkpt lat="39.723827" lon="-0.370623">
        <ele>181.6</ele>
        <time>2012-08-20T14:11:06Z</time>
      </trkpt>
      <trkpt lat="39.723719" lon="-0.370439">
        <ele>181.6</ele>
        <time>2012-08-20T14:11:10Z</time>
      </trkpt>
      <trkpt lat="39.723657" lon="-0.370285">
        <ele>181.6</ele>
        <time>2012-08-20T14:11:13Z</time>
      </trkpt>
      <trkpt lat="39.723638" lon="-0.370234">
        <ele>181.6</ele>
        <time>2012-08-20T14:11:14Z</time>
      </trkpt>
      <trkpt lat="39.723620" lon="-0.370184">
        <ele>181.6</ele>
        <time>2012-08-20T14:11:15Z</time>
      </trkpt>
      <trkpt lat="39.723558" lon="-0.370021">
        <ele>181.2</ele>
        <time>2012-08-20T14:11:18Z</time>
      </trkpt>
      <trkpt lat="39.723523" lon="-0.369961">
        <ele>180.6</ele>
        <time>2012-08-20T14:11:19Z</time>
      </trkpt>
      <trkpt lat="39.723479" lon="-0.369908">
        <ele>180.2</ele>
        <time>2012-08-20T14:11:20Z</time>
      </trkpt>
      <trkpt lat="39.723426" lon="-0.369874">
        <ele>179.6</ele>
        <time>2012-08-20T14:11:21Z</time>
      </trkpt>
      <trkpt lat="39.723367" lon="-0.369859">
        <ele>179.2</ele>
        <time>2012-08-20T14:11:22Z</time>
      </trkpt>
      <trkpt lat="39.723310" lon="-0.369856">
        <ele>178.6</ele>
        <time>2012-08-20T14:11:23Z</time>
      </trkpt>
      <trkpt lat="39.723251" lon="-0.369859">
        <ele>178.2</ele>
        <time>2012-08-20T14:11:24Z</time>
      </trkpt>
      <trkpt lat="39.723193" lon="-0.369864">
        <ele>177.2</ele>
        <time>2012-08-20T14:11:25Z</time>
      </trkpt>
      <trkpt lat="39.722959" lon="-0.369886">
        <ele>177.2</ele>
        <time>2012-08-20T14:11:29Z</time>
      </trkpt>
      <trkpt lat="39.722702" lon="-0.369950">
        <ele>177.2</ele>
        <time>2012-08-20T14:11:35Z</time>
      </trkpt>
      <trkpt lat="39.722661" lon="-0.369957">
        <ele>177.2</ele>
        <time>2012-08-20T14:11:36Z</time>
      </trkpt>
      <trkpt lat="39.722472" lon="-0.369996">
        <ele>177.2</ele>
        <time>2012-08-20T14:11:41Z</time>
      </trkpt>
      <trkpt lat="39.722361" lon="-0.370000">
        <ele>177.2</ele>
        <time>2012-08-20T14:11:44Z</time>
      </trkpt>
      <trkpt lat="39.722282" lon="-0.369976">
        <ele>177.2</ele>
        <time>2012-08-20T14:11:46Z</time>
      </trkpt>
      <trkpt lat="39.722151" lon="-0.369937">
        <ele>177.2</ele>
        <time>2012-08-20T14:11:49Z</time>
      </trkpt>
      <trkpt lat="39.722102" lon="-0.369952">
        <ele>177.2</ele>
        <time>2012-08-20T14:11:50Z</time>
      </trkpt>
      <trkpt lat="39.721970" lon="-0.370052">
        <ele>177.2</ele>
        <time>2012-08-20T14:11:53Z</time>
      </trkpt>
      <trkpt lat="39.721887" lon="-0.370138">
        <ele>177.2</ele>
        <time>2012-08-20T14:11:55Z</time>
      </trkpt>
      <trkpt lat="39.721609" lon="-0.370333">
        <ele>177.2</ele>
        <time>2012-08-20T14:12:01Z</time>
      </trkpt>
      <trkpt lat="39.721386" lon="-0.370366">
        <ele>177.6</ele>
        <time>2012-08-20T14:12:06Z</time>
      </trkpt>
      <trkpt lat="39.721350" lon="-0.370364">
        <ele>178.0</ele>
        <time>2012-08-20T14:12:07Z</time>
      </trkpt>
      <trkpt lat="39.721315" lon="-0.370361">
        <ele>178.4</ele>
        <time>2012-08-20T14:12:08Z</time>
      </trkpt>
      <trkpt lat="39.721283" lon="-0.370357">
        <ele>179.0</ele>
        <time>2012-08-20T14:12:09Z</time>
      </trkpt>
      <trkpt lat="39.721254" lon="-0.370355">
        <ele>179.4</ele>
        <time>2012-08-20T14:12:10Z</time>
      </trkpt>
      <trkpt lat="39.721226" lon="-0.370358">
        <ele>179.4</ele>
        <time>2012-08-20T14:12:11Z</time>
      </trkpt>
      <trkpt lat="39.721056" lon="-0.370313">
        <ele>179.4</ele>
        <time>2012-08-20T14:12:17Z</time>
      </trkpt>
      <trkpt lat="39.720812" lon="-0.370242">
        <ele>179.4</ele>
        <time>2012-08-20T14:12:24Z</time>
      </trkpt>
      <trkpt lat="39.720518" lon="-0.370157">
        <ele>179.4</ele>
        <time>2012-08-20T14:12:31Z</time>
      </trkpt>
      <trkpt lat="39.720202" lon="-0.370143">
        <ele>179.4</ele>
        <time>2012-08-20T14:12:37Z</time>
      </trkpt>
      <trkpt lat="39.719950" lon="-0.370141">
        <ele>179.4</ele>
        <time>2012-08-20T14:12:42Z</time>
      </trkpt>
      <trkpt lat="39.719721" lon="-0.370146">
        <ele>179.4</ele>
        <time>2012-08-20T14:12:48Z</time>
      </trkpt>
      <trkpt lat="39.719656" lon="-0.370147">
        <ele>179.8</ele>
        <time>2012-08-20T14:12:50Z</time>
      </trkpt>
      <trkpt lat="39.719625" lon="-0.370150">
        <ele>180.2</ele>
        <time>2012-08-20T14:12:51Z</time>
      </trkpt>
      <trkpt lat="39.719594" lon="-0.370152">
        <ele>180.6</ele>
        <time>2012-08-20T14:12:52Z</time>
      </trkpt>
      <trkpt lat="39.719563" lon="-0.370154">
        <ele>181.0</ele>
        <time>2012-08-20T14:12:53Z</time>
      </trkpt>
      <trkpt lat="39.719530" lon="-0.370154">
        <ele>181.4</ele>
        <time>2012-08-20T14:12:54Z</time>
      </trkpt>
      <trkpt lat="39.719466" lon="-0.370161">
        <ele>181.4</ele>
        <time>2012-08-20T14:12:56Z</time>
      </trkpt>
      <trkpt lat="39.719194" lon="-0.370182">
        <ele>181.4</ele>
        <time>2012-08-20T14:13:04Z</time>
      </trkpt>
      <trkpt lat="39.719018" lon="-0.370190">
        <ele>181.4</ele>
        <time>2012-08-20T14:13:10Z</time>
      </trkpt>
      <trkpt lat="39.718880" lon="-0.370179">
        <ele>181.4</ele>
        <time>2012-08-20T14:13:16Z</time>
      </trkpt>
      <trkpt lat="39.718796" lon="-0.370030">
        <ele>181.4</ele>
        <time>2012-08-20T14:13:21Z</time>
      </trkpt>
      <trkpt lat="39.718794" lon="-0.369970">
        <ele>181.4</ele>
        <time>2012-08-20T14:13:22Z</time>
      </trkpt>
      <trkpt lat="39.718775" lon="-0.369782">
        <ele>181.4</ele>
        <time>2012-08-20T14:13:25Z</time>
      </trkpt>
      <trkpt lat="39.718677" lon="-0.369695">
        <ele>181.4</ele>
        <time>2012-08-20T14:13:28Z</time>
      </trkpt>
      <trkpt lat="39.718538" lon="-0.369727">
        <ele>181.4</ele>
        <time>2012-08-20T14:13:31Z</time>
      </trkpt>
      <trkpt lat="39.718452" lon="-0.369746">
        <ele>181.4</ele>
        <time>2012-08-20T14:13:33Z</time>
      </trkpt>
      <trkpt lat="39.718165" lon="-0.369794">
        <ele>181.4</ele>
        <time>2012-08-20T14:13:40Z</time>
      </trkpt>
      <trkpt lat="39.718029" lon="-0.369816">
        <ele>181.0</ele>
        <time>2012-08-20T14:13:43Z</time>
      </trkpt>
      <trkpt lat="39.717976" lon="-0.369826">
        <ele>180.6</ele>
        <time>2012-08-20T14:13:44Z</time>
      </trkpt>
      <trkpt lat="39.717917" lon="-0.369839">
        <ele>180.2</ele>
        <time>2012-08-20T14:13:45Z</time>
      </trkpt>
      <trkpt lat="39.717861" lon="-0.369852">
        <ele>179.8</ele>
        <time>2012-08-20T14:13:46Z</time>
      </trkpt>
      <trkpt lat="39.717802" lon="-0.369864">
        <ele>179.4</ele>
        <time>2012-08-20T14:13:47Z</time>
      </trkpt>
      <trkpt lat="39.717743" lon="-0.369875">
        <ele>179.0</ele>
        <time>2012-08-20T14:13:48Z</time>
      </trkpt>
      <trkpt lat="39.717684" lon="-0.369884">
        <ele>178.4</ele>
        <time>2012-08-20T14:13:49Z</time>
      </trkpt>
      <trkpt lat="39.717627" lon="-0.369893">
        <ele>178.0</ele>
        <time>2012-08-20T14:13:50Z</time>
      </trkpt>
      <trkpt lat="39.717574" lon="-0.369906">
        <ele>177.4</ele>
        <time>2012-08-20T14:13:51Z</time>
      </trkpt>
      <trkpt lat="39.717523" lon="-0.369928">
        <ele>176.6</ele>
        <time>2012-08-20T14:13:52Z</time>
      </trkpt>
      <trkpt lat="39.717472" lon="-0.369956">
        <ele>175.4</ele>
        <time>2012-08-20T14:13:53Z</time>
      </trkpt>
      <trkpt lat="39.717427" lon="-0.369989">
        <ele>174.8</ele>
        <time>2012-08-20T14:13:54Z</time>
      </trkpt>
      <trkpt lat="39.717388" lon="-0.370036">
        <ele>174.2</ele>
        <time>2012-08-20T14:13:55Z</time>
      </trkpt>
      <trkpt lat="39.717360" lon="-0.370097">
        <ele>173.8</ele>
        <time>2012-08-20T14:13:56Z</time>
      </trkpt>
      <trkpt lat="39.717341" lon="-0.370158">
        <ele>173.2</ele>
        <time>2012-08-20T14:13:57Z</time>
      </trkpt>
      <trkpt lat="39.717331" lon="-0.370214">
        <ele>172.6</ele>
        <time>2012-08-20T14:13:58Z</time>
      </trkpt>
      <trkpt lat="39.717327" lon="-0.370270">
        <ele>172.0</ele>
        <time>2012-08-20T14:13:59Z</time>
      </trkpt>
      <trkpt lat="39.717325" lon="-0.370323">
        <ele>171.4</ele>
        <time>2012-08-20T14:14:00Z</time>
      </trkpt>
      <trkpt lat="39.717315" lon="-0.370355">
        <ele>171.0</ele>
        <time>2012-08-20T14:14:01Z</time>
      </trkpt>
      <trkpt lat="39.717295" lon="-0.370375">
        <ele>170.4</ele>
        <time>2012-08-20T14:14:02Z</time>
      </trkpt>
      <trkpt lat="39.717268" lon="-0.370386">
        <ele>170.4</ele>
        <time>2012-08-20T14:14:03Z</time>
      </trkpt>
      <trkpt lat="39.717127" lon="-0.370362">
        <ele>170.4</ele>
        <time>2012-08-20T14:14:06Z</time>
      </trkpt>
      <trkpt lat="39.717024" lon="-0.370254">
        <ele>170.4</ele>
        <time>2012-08-20T14:14:09Z</time>
      </trkpt>
      <trkpt lat="39.716997" lon="-0.370218">
        <ele>170.4</ele>
        <time>2012-08-20T14:14:10Z</time>
      </trkpt>
      <trkpt lat="39.716910" lon="-0.370091">
        <ele>170.4</ele>
        <time>2012-08-20T14:14:14Z</time>
      </trkpt>
      <trkpt lat="39.716823" lon="-0.369969">
        <ele>171.2</ele>
        <time>2012-08-20T14:14:18Z</time>
      </trkpt>
      <trkpt lat="39.716798" lon="-0.369937">
        <ele>171.6</ele>
        <time>2012-08-20T14:14:19Z</time>
      </trkpt>
      <trkpt lat="39.716775" lon="-0.369903">
        <ele>172.0</ele>
        <time>2012-08-20T14:14:20Z</time>
      </trkpt>
      <trkpt lat="39.716754" lon="-0.369867">
        <ele>172.6</ele>
        <time>2012-08-20T14:14:21Z</time>
      </trkpt>
      <trkpt lat="39.716717" lon="-0.369797">
        <ele>173.0</ele>
        <time>2012-08-20T14:14:23Z</time>
      </trkpt>
      <trkpt lat="39.716698" lon="-0.369763">
        <ele>173.4</ele>
        <time>2012-08-20T14:14:24Z</time>
      </trkpt>
      <trkpt lat="39.716680" lon="-0.369727">
        <ele>174.0</ele>
        <time>2012-08-20T14:14:25Z</time>
      </trkpt>
      <trkpt lat="39.716664" lon="-0.369691">
        <ele>174.4</ele>
        <time>2012-08-20T14:14:26Z</time>
      </trkpt>
      <trkpt lat="39.716652" lon="-0.369655">
        <ele>174.8</ele>
        <time>2012-08-20T14:14:27Z</time>
      </trkpt>
      <trkpt lat="39.716640" lon="-0.369616">
        <ele>175.2</ele>
        <time>2012-08-20T14:14:28Z</time>
      </trkpt>
      <trkpt lat="39.716630" lon="-0.369578">
        <ele>175.8</ele>
        <time>2012-08-20T14:14:29Z</time>
      </trkpt>
      <trkpt lat="39.716621" lon="-0.369539">
        <ele>176.2</ele>
        <time>2012-08-20T14:14:30Z</time>
      </trkpt>
      <trkpt lat="39.716613" lon="-0.369495">
        <ele>176.6</ele>
        <time>2012-08-20T14:14:31Z</time>
      </trkpt>
      <trkpt lat="39.716603" lon="-0.369458">
        <ele>177.0</ele>
        <time>2012-08-20T14:14:32Z</time>
      </trkpt>
      <trkpt lat="39.716595" lon="-0.369426">
        <ele>177.0</ele>
        <time>2012-08-20T14:14:33Z</time>
      </trkpt>
      <trkpt lat="39.716590" lon="-0.369395">
        <ele>177.4</ele>
        <time>2012-08-20T14:14:34Z</time>
      </trkpt>
      <trkpt lat="39.716587" lon="-0.369361">
        <ele>178.0</ele>
        <time>2012-08-20T14:14:35Z</time>
      </trkpt>
      <trkpt lat="39.716582" lon="-0.369328">
        <ele>178.4</ele>
        <time>2012-08-20T14:14:36Z</time>
      </trkpt>
      <trkpt lat="39.716574" lon="-0.369298">
        <ele>178.8</ele>
        <time>2012-08-20T14:14:37Z</time>
      </trkpt>
      <trkpt lat="39.716566" lon="-0.369267">
        <ele>179.2</ele>
        <time>2012-08-20T14:14:38Z</time>
      </trkpt>
      <trkpt lat="39.716560" lon="-0.369235">
        <ele>179.2</ele>
        <time>2012-08-20T14:14:39Z</time>
      </trkpt>
      <trkpt lat="39.716554" lon="-0.369111">
        <ele>179.8</ele>
        <time>2012-08-20T14:14:44Z</time>
      </trkpt>
      <trkpt lat="39.716555" lon="-0.369091">
        <ele>180.2</ele>
        <time>2012-08-20T14:14:45Z</time>
      </trkpt>
      <trkpt lat="39.716557" lon="-0.369068">
        <ele>180.6</ele>
        <time>2012-08-20T14:14:46Z</time>
      </trkpt>
      <trkpt lat="39.716560" lon="-0.369047">
        <ele>181.0</ele>
        <time>2012-08-20T14:14:47Z</time>
      </trkpt>
      <trkpt lat="39.716562" lon="-0.369023">
        <ele>181.4</ele>
        <time>2012-08-20T14:14:48Z</time>
      </trkpt>
      <trkpt lat="39.716575" lon="-0.368901">
        <ele>181.4</ele>
        <time>2012-08-20T14:14:52Z</time>
      </trkpt>
      <trkpt lat="39.716653" lon="-0.368621">
        <ele>181.4</ele>
        <time>2012-08-20T14:14:58Z</time>
      </trkpt>
      <trkpt lat="39.716719" lon="-0.368493">
        <ele>180.8</ele>
        <time>2012-08-20T14:15:00Z</time>
      </trkpt>
      <trkpt lat="39.716758" lon="-0.368426">
        <ele>180.2</ele>
        <time>2012-08-20T14:15:01Z</time>
      </trkpt>
      <trkpt lat="39.716801" lon="-0.368360">
        <ele>179.8</ele>
        <time>2012-08-20T14:15:02Z</time>
      </trkpt>
      <trkpt lat="39.716843" lon="-0.368298">
        <ele>179.2</ele>
        <time>2012-08-20T14:15:03Z</time>
      </trkpt>
      <trkpt lat="39.716883" lon="-0.368241">
        <ele>178.6</ele>
        <time>2012-08-20T14:15:04Z</time>
      </trkpt>
      <trkpt lat="39.716980" lon="-0.368094">
        <ele>178.6</ele>
        <time>2012-08-20T14:15:07Z</time>
      </trkpt>
      <trkpt lat="39.717001" lon="-0.368044">
        <ele>177.8</ele>
        <time>2012-08-20T14:15:08Z</time>
      </trkpt>
      <trkpt lat="39.717019" lon="-0.367991">
        <ele>177.4</ele>
        <time>2012-08-20T14:15:09Z</time>
      </trkpt>
      <trkpt lat="39.717030" lon="-0.367931">
        <ele>177.0</ele>
        <time>2012-08-20T14:15:10Z</time>
      </trkpt>
      <trkpt lat="39.717031" lon="-0.367868">
        <ele>176.6</ele>
        <time>2012-08-20T14:15:11Z</time>
      </trkpt>
      <trkpt lat="39.716994" lon="-0.367678">
        <ele>176.6</ele>
        <time>2012-08-20T14:15:14Z</time>
      </trkpt>
    </trkseg>
  </trk>
  <trk>
    <name>T3303249-20</name>
    <cmt>La ruta empieza en Ojos Negros. Hasta Santa Eulalia va por una carretera comarcal apenas transitada. Hay un tramo de unos 40 km durante el puerto del Escandón que no aparece reflejado en el track porque me quedé sin batería en el GPS pero la vía verde no tiene pérdida en esa zona</cmt>
    <desc>La ruta empieza en Ojos Negros. Hasta Santa Eulalia va por una carretera comarcal apenas transitada. Hay un tramo de unos 40 km durante el puerto del Escandón que no aparece reflejado en el track porque me quedé sin batería en el GPS pero la vía verde no tiene pérdida en esa zona</desc>
    <trkseg>
      <trkpt lat="39.716960" lon="-0.367550">
        <ele>176.2</ele>
        <time>2012-08-20T14:15:16Z</time>
      </trkpt>
      <trkpt lat="39.716943" lon="-0.367482">
        <ele>175.8</ele>
        <time>2012-08-20T14:15:17Z</time>
      </trkpt>
      <trkpt lat="39.716928" lon="-0.367419">
        <ele>175.4</ele>
        <time>2012-08-20T14:15:18Z</time>
      </trkpt>
      <trkpt lat="39.716906" lon="-0.367365">
        <ele>174.8</ele>
        <time>2012-08-20T14:15:19Z</time>
      </trkpt>
      <trkpt lat="39.716881" lon="-0.367314">
        <ele>174.4</ele>
        <time>2012-08-20T14:15:20Z</time>
      </trkpt>
      <trkpt lat="39.716855" lon="-0.367268">
        <ele>174.4</ele>
        <time>2012-08-20T14:15:21Z</time>
      </trkpt>
      <trkpt lat="39.716673" lon="-0.367120">
        <ele>174.4</ele>
        <time>2012-08-20T14:15:26Z</time>
      </trkpt>
      <trkpt lat="39.716403" lon="-0.366940">
        <ele>174.0</ele>
        <time>2012-08-20T14:15:32Z</time>
      </trkpt>
      <trkpt lat="39.716353" lon="-0.366912">
        <ele>173.6</ele>
        <time>2012-08-20T14:15:33Z</time>
      </trkpt>
      <trkpt lat="39.716301" lon="-0.366891">
        <ele>173.2</ele>
        <time>2012-08-20T14:15:34Z</time>
      </trkpt>
      <trkpt lat="39.716244" lon="-0.366877">
        <ele>172.8</ele>
        <time>2012-08-20T14:15:35Z</time>
      </trkpt>
      <trkpt lat="39.716186" lon="-0.366876">
        <ele>172.4</ele>
        <time>2012-08-20T14:15:36Z</time>
      </trkpt>
      <trkpt lat="39.716129" lon="-0.366887">
        <ele>172.4</ele>
        <time>2012-08-20T14:15:37Z</time>
      </trkpt>
      <trkpt lat="39.715983" lon="-0.366988">
        <ele>172.4</ele>
        <time>2012-08-20T14:15:40Z</time>
      </trkpt>
      <trkpt lat="39.715940" lon="-0.367026">
        <ele>172.4</ele>
        <time>2012-08-20T14:15:41Z</time>
      </trkpt>
      <trkpt lat="39.715814" lon="-0.367105">
        <ele>172.4</ele>
        <time>2012-08-20T14:15:44Z</time>
      </trkpt>
      <trkpt lat="39.715726" lon="-0.367136">
        <ele>172.4</ele>
        <time>2012-08-20T14:15:46Z</time>
      </trkpt>
      <trkpt lat="39.715569" lon="-0.367077">
        <ele>172.4</ele>
        <time>2012-08-20T14:15:50Z</time>
      </trkpt>
      <trkpt lat="39.715520" lon="-0.366993">
        <ele>172.4</ele>
        <time>2012-08-20T14:15:52Z</time>
      </trkpt>
      <trkpt lat="39.715503" lon="-0.366946">
        <ele>172.4</ele>
        <time>2012-08-20T14:15:53Z</time>
      </trkpt>
      <trkpt lat="39.715495" lon="-0.366894">
        <ele>172.4</ele>
        <time>2012-08-20T14:15:54Z</time>
      </trkpt>
      <trkpt lat="39.715548" lon="-0.366682">
        <ele>172.4</ele>
        <time>2012-08-20T14:15:58Z</time>
      </trkpt>
      <trkpt lat="39.715588" lon="-0.366591">
        <ele>172.4</ele>
        <time>2012-08-20T14:16:00Z</time>
      </trkpt>
      <trkpt lat="39.715637" lon="-0.366480">
        <ele>172.4</ele>
        <time>2012-08-20T14:16:03Z</time>
      </trkpt>
      <trkpt lat="39.715632" lon="-0.366326">
        <ele>172.0</ele>
        <time>2012-08-20T14:16:08Z</time>
      </trkpt>
      <trkpt lat="39.715612" lon="-0.366288">
        <ele>171.6</ele>
        <time>2012-08-20T14:16:09Z</time>
      </trkpt>
      <trkpt lat="39.715590" lon="-0.366247">
        <ele>171.2</ele>
        <time>2012-08-20T14:16:10Z</time>
      </trkpt>
      <trkpt lat="39.715564" lon="-0.366207">
        <ele>170.6</ele>
        <time>2012-08-20T14:16:11Z</time>
      </trkpt>
      <trkpt lat="39.715536" lon="-0.366166">
        <ele>170.2</ele>
        <time>2012-08-20T14:16:12Z</time>
      </trkpt>
      <trkpt lat="39.715504" lon="-0.366126">
        <ele>170.2</ele>
        <time>2012-08-20T14:16:13Z</time>
      </trkpt>
      <trkpt lat="39.715273" lon="-0.365883">
        <ele>170.2</ele>
        <time>2012-08-20T14:16:19Z</time>
      </trkpt>
      <trkpt lat="39.715237" lon="-0.365840">
        <ele>170.2</ele>
        <time>2012-08-20T14:16:20Z</time>
      </trkpt>
      <trkpt lat="39.715022" lon="-0.365612">
        <ele>170.2</ele>
        <time>2012-08-20T14:16:26Z</time>
      </trkpt>
      <trkpt lat="39.714760" lon="-0.365324">
        <ele>170.2</ele>
        <time>2012-08-20T14:16:34Z</time>
      </trkpt>
      <trkpt lat="39.714632" lon="-0.365185">
        <ele>170.2</ele>
        <time>2012-08-20T14:16:38Z</time>
      </trkpt>
      <trkpt lat="39.714543" lon="-0.365082">
        <ele>170.2</ele>
        <time>2012-08-20T14:16:41Z</time>
      </trkpt>
      <trkpt lat="39.714391" lon="-0.364906">
        <ele>170.2</ele>
        <time>2012-08-20T14:16:46Z</time>
      </trkpt>
      <trkpt lat="39.714334" lon="-0.364829">
        <ele>170.2</ele>
        <time>2012-08-20T14:16:48Z</time>
      </trkpt>
      <trkpt lat="39.714099" lon="-0.364555">
        <ele>170.2</ele>
        <time>2012-08-20T14:16:55Z</time>
      </trkpt>
      <trkpt lat="39.713815" lon="-0.364197">
        <ele>170.2</ele>
        <time>2012-08-20T14:17:02Z</time>
      </trkpt>
      <trkpt lat="39.713685" lon="-0.364003">
        <ele>169.8</ele>
        <time>2012-08-20T14:17:05Z</time>
      </trkpt>
      <trkpt lat="39.713636" lon="-0.363929">
        <ele>169.4</ele>
        <time>2012-08-20T14:17:06Z</time>
      </trkpt>
      <trkpt lat="39.713587" lon="-0.363861">
        <ele>169.0</ele>
        <time>2012-08-20T14:17:07Z</time>
      </trkpt>
      <trkpt lat="39.713540" lon="-0.363792">
        <ele>168.4</ele>
        <time>2012-08-20T14:17:08Z</time>
      </trkpt>
      <trkpt lat="39.713496" lon="-0.363720">
        <ele>168.0</ele>
        <time>2012-08-20T14:17:09Z</time>
      </trkpt>
      <trkpt lat="39.713452" lon="-0.363648">
        <ele>167.2</ele>
        <time>2012-08-20T14:17:10Z</time>
      </trkpt>
      <trkpt lat="39.713405" lon="-0.363574">
        <ele>166.6</ele>
        <time>2012-08-20T14:17:11Z</time>
      </trkpt>
      <trkpt lat="39.713360" lon="-0.363498">
        <ele>166.2</ele>
        <time>2012-08-20T14:17:12Z</time>
      </trkpt>
      <trkpt lat="39.713317" lon="-0.363420">
        <ele>165.8</ele>
        <time>2012-08-20T14:17:13Z</time>
      </trkpt>
      <trkpt lat="39.713274" lon="-0.363334">
        <ele>165.4</ele>
        <time>2012-08-20T14:17:14Z</time>
      </trkpt>
      <trkpt lat="39.713237" lon="-0.363246">
        <ele>165.0</ele>
        <time>2012-08-20T14:17:15Z</time>
      </trkpt>
      <trkpt lat="39.713201" lon="-0.363154">
        <ele>164.4</ele>
        <time>2012-08-20T14:17:16Z</time>
      </trkpt>
      <trkpt lat="39.713168" lon="-0.363060">
        <ele>164.0</ele>
        <time>2012-08-20T14:17:17Z</time>
      </trkpt>
      <trkpt lat="39.713131" lon="-0.362965">
        <ele>163.6</ele>
        <time>2012-08-20T14:17:18Z</time>
      </trkpt>
      <trkpt lat="39.713097" lon="-0.362870">
        <ele>163.2</ele>
        <time>2012-08-20T14:17:19Z</time>
      </trkpt>
      <trkpt lat="39.713062" lon="-0.362774">
        <ele>162.8</ele>
        <time>2012-08-20T14:17:20Z</time>
      </trkpt>
      <trkpt lat="39.713020" lon="-0.362680">
        <ele>162.4</ele>
        <time>2012-08-20T14:17:21Z</time>
      </trkpt>
      <trkpt lat="39.712987" lon="-0.362611">
        <ele>162.0</ele>
        <time>2012-08-20T14:17:22Z</time>
      </trkpt>
      <trkpt lat="39.712957" lon="-0.362558">
        <ele>161.6</ele>
        <time>2012-08-20T14:17:23Z</time>
      </trkpt>
      <trkpt lat="39.712928" lon="-0.362510">
        <ele>161.6</ele>
        <time>2012-08-20T14:17:24Z</time>
      </trkpt>
      <trkpt lat="39.712897" lon="-0.362464">
        <ele>161.2</ele>
        <time>2012-08-20T14:17:25Z</time>
      </trkpt>
      <trkpt lat="39.712864" lon="-0.362416">
        <ele>160.8</ele>
        <time>2012-08-20T14:17:26Z</time>
      </trkpt>
      <trkpt lat="39.712827" lon="-0.362373">
        <ele>160.4</ele>
        <time>2012-08-20T14:17:27Z</time>
      </trkpt>
      <trkpt lat="39.712786" lon="-0.362333">
        <ele>159.8</ele>
        <time>2012-08-20T14:17:28Z</time>
      </trkpt>
      <trkpt lat="39.712744" lon="-0.362294">
        <ele>159.4</ele>
        <time>2012-08-20T14:17:29Z</time>
      </trkpt>
      <trkpt lat="39.712705" lon="-0.362252">
        <ele>159.4</ele>
        <time>2012-08-20T14:17:30Z</time>
      </trkpt>
      <trkpt lat="39.712563" lon="-0.362090">
        <ele>159.4</ele>
        <time>2012-08-20T14:17:34Z</time>
      </trkpt>
      <trkpt lat="39.712463" lon="-0.361953">
        <ele>159.4</ele>
        <time>2012-08-20T14:17:39Z</time>
      </trkpt>
      <trkpt lat="39.712450" lon="-0.361942">
        <ele>159.4</ele>
        <time>2012-08-20T14:17:42Z</time>
      </trkpt>
      <trkpt lat="39.712450" lon="-0.361942">
        <ele>159.4</ele>
        <time>2012-08-20T14:17:43Z</time>
      </trkpt>
      <trkpt lat="39.712409" lon="-0.361889">
        <ele>159.4</ele>
        <time>2012-08-20T14:18:09Z</time>
      </trkpt>
      <trkpt lat="39.712375" lon="-0.361843">
        <ele>159.4</ele>
        <time>2012-08-20T14:18:11Z</time>
      </trkpt>
      <trkpt lat="39.712224" lon="-0.361696">
        <ele>159.4</ele>
        <time>2012-08-20T14:18:17Z</time>
      </trkpt>
      <trkpt lat="39.712013" lon="-0.361468">
        <ele>159.4</ele>
        <time>2012-08-20T14:18:24Z</time>
      </trkpt>
      <trkpt lat="39.711951" lon="-0.361397">
        <ele>159.0</ele>
        <time>2012-08-20T14:18:26Z</time>
      </trkpt>
      <trkpt lat="39.711919" lon="-0.361361">
        <ele>158.6</ele>
        <time>2012-08-20T14:18:27Z</time>
      </trkpt>
      <trkpt lat="39.711889" lon="-0.361322">
        <ele>158.2</ele>
        <time>2012-08-20T14:18:28Z</time>
      </trkpt>
      <trkpt lat="39.711856" lon="-0.361286">
        <ele>157.8</ele>
        <time>2012-08-20T14:18:29Z</time>
      </trkpt>
      <trkpt lat="39.711822" lon="-0.361251">
        <ele>157.4</ele>
        <time>2012-08-20T14:18:30Z</time>
      </trkpt>
      <trkpt lat="39.711688" lon="-0.361120">
        <ele>157.4</ele>
        <time>2012-08-20T14:18:35Z</time>
      </trkpt>
      <trkpt lat="39.711675" lon="-0.361101">
        <ele>157.4</ele>
        <time>2012-08-20T14:18:37Z</time>
      </trkpt>
      <trkpt lat="39.711623" lon="-0.361055">
        <ele>157.4</ele>
        <time>2012-08-20T14:18:50Z</time>
      </trkpt>
      <trkpt lat="39.711593" lon="-0.361016">
        <ele>157.4</ele>
        <time>2012-08-20T14:18:52Z</time>
      </trkpt>
      <trkpt lat="39.711239" lon="-0.360458">
        <ele>156.2</ele>
        <time>2012-08-20T14:19:09Z</time>
      </trkpt>
      <trkpt lat="39.711218" lon="-0.360395">
        <ele>155.8</ele>
        <time>2012-08-20T14:19:10Z</time>
      </trkpt>
      <trkpt lat="39.711203" lon="-0.360349">
        <ele>155.4</ele>
        <time>2012-08-20T14:19:11Z</time>
      </trkpt>
      <trkpt lat="39.711144" lon="-0.360217">
        <ele>155.4</ele>
        <time>2012-08-20T14:19:15Z</time>
      </trkpt>
      <trkpt lat="39.711122" lon="-0.360029">
        <ele>155.4</ele>
        <time>2012-08-20T14:19:20Z</time>
      </trkpt>
      <trkpt lat="39.711079" lon="-0.359799">
        <ele>155.4</ele>
        <time>2012-08-20T14:19:27Z</time>
      </trkpt>
      <trkpt lat="39.711050" lon="-0.359586">
        <ele>155.4</ele>
        <time>2012-08-20T14:19:32Z</time>
      </trkpt>
      <trkpt lat="39.711037" lon="-0.359440">
        <ele>155.4</ele>
        <time>2012-08-20T14:19:35Z</time>
      </trkpt>
      <trkpt lat="39.711032" lon="-0.359011">
        <ele>155.4</ele>
        <time>2012-08-20T14:19:44Z</time>
      </trkpt>
      <trkpt lat="39.711052" lon="-0.358863">
        <ele>155.4</ele>
        <time>2012-08-20T14:19:47Z</time>
      </trkpt>
      <trkpt lat="39.711077" lon="-0.358766">
        <ele>155.4</ele>
        <time>2012-08-20T14:19:49Z</time>
      </trkpt>
      <trkpt lat="39.711106" lon="-0.358612">
        <ele>155.0</ele>
        <time>2012-08-20T14:19:52Z</time>
      </trkpt>
      <trkpt lat="39.711115" lon="-0.358562">
        <ele>154.6</ele>
        <time>2012-08-20T14:19:53Z</time>
      </trkpt>
      <trkpt lat="39.711123" lon="-0.358513">
        <ele>154.2</ele>
        <time>2012-08-20T14:19:54Z</time>
      </trkpt>
      <trkpt lat="39.711133" lon="-0.358464">
        <ele>153.8</ele>
        <time>2012-08-20T14:19:55Z</time>
      </trkpt>
      <trkpt lat="39.711146" lon="-0.358416">
        <ele>153.2</ele>
        <time>2012-08-20T14:19:56Z</time>
      </trkpt>
      <trkpt lat="39.711163" lon="-0.358370">
        <ele>153.2</ele>
        <time>2012-08-20T14:19:57Z</time>
      </trkpt>
      <trkpt lat="39.711217" lon="-0.358230">
        <ele>153.2</ele>
        <time>2012-08-20T14:20:00Z</time>
      </trkpt>
      <trkpt lat="39.711262" lon="-0.358139">
        <ele>153.2</ele>
        <time>2012-08-20T14:20:02Z</time>
      </trkpt>
      <trkpt lat="39.711329" lon="-0.358007">
        <ele>153.2</ele>
        <time>2012-08-20T14:20:05Z</time>
      </trkpt>
      <trkpt lat="39.711404" lon="-0.357871">
        <ele>153.2</ele>
        <time>2012-08-20T14:20:08Z</time>
      </trkpt>
      <trkpt lat="39.711586" lon="-0.357537">
        <ele>153.2</ele>
        <time>2012-08-20T14:20:15Z</time>
      </trkpt>
      <trkpt lat="39.711698" lon="-0.357333">
        <ele>152.8</ele>
        <time>2012-08-20T14:20:19Z</time>
      </trkpt>
      <trkpt lat="39.711723" lon="-0.357282">
        <ele>152.4</ele>
        <time>2012-08-20T14:20:20Z</time>
      </trkpt>
      <trkpt lat="39.711749" lon="-0.357230">
        <ele>152.0</ele>
        <time>2012-08-20T14:20:21Z</time>
      </trkpt>
      <trkpt lat="39.711775" lon="-0.357179">
        <ele>151.6</ele>
        <time>2012-08-20T14:20:22Z</time>
      </trkpt>
      <trkpt lat="39.711804" lon="-0.357130">
        <ele>151.2</ele>
        <time>2012-08-20T14:20:23Z</time>
      </trkpt>
      <trkpt lat="39.712005" lon="-0.356753">
        <ele>151.2</ele>
        <time>2012-08-20T14:20:31Z</time>
      </trkpt>
      <trkpt lat="39.712087" lon="-0.356577">
        <ele>151.2</ele>
        <time>2012-08-20T14:20:35Z</time>
      </trkpt>
      <trkpt lat="39.712121" lon="-0.356483">
        <ele>151.2</ele>
        <time>2012-08-20T14:20:37Z</time>
      </trkpt>
      <trkpt lat="39.712177" lon="-0.356339">
        <ele>151.2</ele>
        <time>2012-08-20T14:20:40Z</time>
      </trkpt>
      <trkpt lat="39.712217" lon="-0.356195">
        <ele>151.2</ele>
        <time>2012-08-20T14:20:43Z</time>
      </trkpt>
      <trkpt lat="39.712241" lon="-0.356085">
        <ele>151.2</ele>
        <time>2012-08-20T14:20:45Z</time>
      </trkpt>
      <trkpt lat="39.712256" lon="-0.355981">
        <ele>151.2</ele>
        <time>2012-08-20T14:20:47Z</time>
      </trkpt>
      <trkpt lat="39.712273" lon="-0.355883">
        <ele>151.2</ele>
        <time>2012-08-20T14:20:49Z</time>
      </trkpt>
      <trkpt lat="39.712290" lon="-0.355786">
        <ele>150.8</ele>
        <time>2012-08-20T14:20:51Z</time>
      </trkpt>
      <trkpt lat="39.712297" lon="-0.355734">
        <ele>150.4</ele>
        <time>2012-08-20T14:20:52Z</time>
      </trkpt>
      <trkpt lat="39.712303" lon="-0.355682">
        <ele>149.6</ele>
        <time>2012-08-20T14:20:53Z</time>
      </trkpt>
      <trkpt lat="39.712305" lon="-0.355628">
        <ele>149.2</ele>
        <time>2012-08-20T14:20:54Z</time>
      </trkpt>
      <trkpt lat="39.712305" lon="-0.355577">
        <ele>149.2</ele>
        <time>2012-08-20T14:20:55Z</time>
      </trkpt>
      <trkpt lat="39.712300" lon="-0.355526">
        <ele>149.2</ele>
        <time>2012-08-20T14:20:56Z</time>
      </trkpt>
      <trkpt lat="39.712253" lon="-0.355344">
        <ele>149.2</ele>
        <time>2012-08-20T14:21:00Z</time>
      </trkpt>
      <trkpt lat="39.712242" lon="-0.355296">
        <ele>149.2</ele>
        <time>2012-08-20T14:21:01Z</time>
      </trkpt>
      <trkpt lat="39.712210" lon="-0.355069">
        <ele>149.2</ele>
        <time>2012-08-20T14:21:06Z</time>
      </trkpt>
      <trkpt lat="39.712135" lon="-0.354770">
        <ele>149.2</ele>
        <time>2012-08-20T14:21:13Z</time>
      </trkpt>
      <trkpt lat="39.712039" lon="-0.354666">
        <ele>149.2</ele>
        <time>2012-08-20T14:21:18Z</time>
      </trkpt>
      <trkpt lat="39.712029" lon="-0.354653">
        <ele>149.2</ele>
        <time>2012-08-20T14:21:19Z</time>
      </trkpt>
      <trkpt lat="39.711996" lon="-0.354594">
        <ele>149.2</ele>
        <time>2012-08-20T14:21:23Z</time>
      </trkpt>
      <trkpt lat="39.711990" lon="-0.354570">
        <ele>149.2</ele>
        <time>2012-08-20T14:21:27Z</time>
      </trkpt>
      <trkpt lat="39.711990" lon="-0.354569">
        <ele>149.2</ele>
        <time>2012-08-20T14:21:28Z</time>
      </trkpt>
      <trkpt lat="39.711943" lon="-0.354515">
        <ele>149.2</ele>
        <time>2012-08-20T14:21:35Z</time>
      </trkpt>
      <trkpt lat="39.711895" lon="-0.354472">
        <ele>149.2</ele>
        <time>2012-08-20T14:21:37Z</time>
      </trkpt>
      <trkpt lat="39.711718" lon="-0.354234">
        <ele>149.2</ele>
        <time>2012-08-20T14:21:45Z</time>
      </trkpt>
      <trkpt lat="39.711521" lon="-0.353958">
        <ele>149.2</ele>
        <time>2012-08-20T14:21:52Z</time>
      </trkpt>
      <trkpt lat="39.711412" lon="-0.353832">
        <ele>149.2</ele>
        <time>2012-08-20T14:21:55Z</time>
      </trkpt>
      <trkpt lat="39.711326" lon="-0.353774">
        <ele>149.2</ele>
        <time>2012-08-20T14:21:57Z</time>
      </trkpt>
      <trkpt lat="39.711282" lon="-0.353748">
        <ele>148.4</ele>
        <time>2012-08-20T14:21:58Z</time>
      </trkpt>
      <trkpt lat="39.711234" lon="-0.353720">
        <ele>147.8</ele>
        <time>2012-08-20T14:21:59Z</time>
      </trkpt>
      <trkpt lat="39.711188" lon="-0.353693">
        <ele>147.2</ele>
        <time>2012-08-20T14:22:00Z</time>
      </trkpt>
      <trkpt lat="39.711143" lon="-0.353665">
        <ele>147.6</ele>
        <time>2012-08-20T14:22:01Z</time>
      </trkpt>
      <trkpt lat="39.711097" lon="-0.353641">
        <ele>148.2</ele>
        <time>2012-08-20T14:22:02Z</time>
      </trkpt>
      <trkpt lat="39.711051" lon="-0.353618">
        <ele>148.0</ele>
        <time>2012-08-20T14:22:03Z</time>
      </trkpt>
      <trkpt lat="39.711006" lon="-0.353592">
        <ele>147.8</ele>
        <time>2012-08-20T14:22:04Z</time>
      </trkpt>
      <trkpt lat="39.710962" lon="-0.353564">
        <ele>147.8</ele>
        <time>2012-08-20T14:22:05Z</time>
      </trkpt>
      <trkpt lat="39.710920" lon="-0.353536">
        <ele>147.6</ele>
        <time>2012-08-20T14:22:06Z</time>
      </trkpt>
      <trkpt lat="39.710876" lon="-0.353510">
        <ele>147.4</ele>
        <time>2012-08-20T14:22:07Z</time>
      </trkpt>
      <trkpt lat="39.710744" lon="-0.353443">
        <ele>147.4</ele>
        <time>2012-08-20T14:22:10Z</time>
      </trkpt>
      <trkpt lat="39.710624" lon="-0.353402">
        <ele>147.4</ele>
        <time>2012-08-20T14:22:13Z</time>
      </trkpt>
      <trkpt lat="39.710548" lon="-0.353372">
        <ele>147.4</ele>
        <time>2012-08-20T14:22:17Z</time>
      </trkpt>
      <trkpt lat="39.710545" lon="-0.353369">
        <ele>147.4</ele>
        <time>2012-08-20T14:22:18Z</time>
      </trkpt>
      <trkpt lat="39.710548" lon="-0.353368">
        <ele>147.4</ele>
        <time>2012-08-20T14:22:20Z</time>
      </trkpt>
      <trkpt lat="39.710525" lon="-0.353288">
        <ele>147.4</ele>
        <time>2012-08-20T14:22:24Z</time>
      </trkpt>
      <trkpt lat="39.710533" lon="-0.353200">
        <ele>147.0</ele>
        <time>2012-08-20T14:22:26Z</time>
      </trkpt>
      <trkpt lat="39.710535" lon="-0.353151">
        <ele>146.6</ele>
        <time>2012-08-20T14:22:27Z</time>
      </trkpt>
      <trkpt lat="39.710532" lon="-0.353103">
        <ele>146.2</ele>
        <time>2012-08-20T14:22:28Z</time>
      </trkpt>
      <trkpt lat="39.710529" lon="-0.353055">
        <ele>145.8</ele>
        <time>2012-08-20T14:22:29Z</time>
      </trkpt>
      <trkpt lat="39.710530" lon="-0.353007">
        <ele>145.4</ele>
        <time>2012-08-20T14:22:30Z</time>
      </trkpt>
      <trkpt lat="39.710526" lon="-0.352914">
        <ele>145.0</ele>
        <time>2012-08-20T14:22:32Z</time>
      </trkpt>
      <trkpt lat="39.710521" lon="-0.352869">
        <ele>144.0</ele>
        <time>2012-08-20T14:22:33Z</time>
      </trkpt>
      <trkpt lat="39.710518" lon="-0.352826">
        <ele>143.6</ele>
        <time>2012-08-20T14:22:34Z</time>
      </trkpt>
      <trkpt lat="39.710515" lon="-0.352782">
        <ele>143.2</ele>
        <time>2012-08-20T14:22:35Z</time>
      </trkpt>
      <trkpt lat="39.710517" lon="-0.352728">
        <ele>142.8</ele>
        <time>2012-08-20T14:22:36Z</time>
      </trkpt>
      <trkpt lat="39.710525" lon="-0.352670">
        <ele>142.4</ele>
        <time>2012-08-20T14:22:37Z</time>
      </trkpt>
      <trkpt lat="39.710540" lon="-0.352610">
        <ele>142.0</ele>
        <time>2012-08-20T14:22:38Z</time>
      </trkpt>
      <trkpt lat="39.710564" lon="-0.352551">
        <ele>141.4</ele>
        <time>2012-08-20T14:22:39Z</time>
      </trkpt>
      <trkpt lat="39.710590" lon="-0.352494">
        <ele>141.0</ele>
        <time>2012-08-20T14:22:40Z</time>
      </trkpt>
      <trkpt lat="39.710616" lon="-0.352435">
        <ele>140.6</ele>
        <time>2012-08-20T14:22:41Z</time>
      </trkpt>
      <trkpt lat="39.710640" lon="-0.352383">
        <ele>140.2</ele>
        <time>2012-08-20T14:22:42Z</time>
      </trkpt>
      <trkpt lat="39.710662" lon="-0.352333">
        <ele>139.8</ele>
        <time>2012-08-20T14:22:43Z</time>
      </trkpt>
      <trkpt lat="39.710672" lon="-0.352287">
        <ele>139.4</ele>
        <time>2012-08-20T14:22:44Z</time>
      </trkpt>
      <trkpt lat="39.710674" lon="-0.352241">
        <ele>139.0</ele>
        <time>2012-08-20T14:22:45Z</time>
      </trkpt>
      <trkpt lat="39.710602" lon="-0.352077">
        <ele>139.0</ele>
        <time>2012-08-20T14:22:49Z</time>
      </trkpt>
      <trkpt lat="39.710494" lon="-0.352004">
        <ele>139.0</ele>
        <time>2012-08-20T14:22:52Z</time>
      </trkpt>
      <trkpt lat="39.710373" lon="-0.351928">
        <ele>139.0</ele>
        <time>2012-08-20T14:22:55Z</time>
      </trkpt>
      <trkpt lat="39.710288" lon="-0.351879">
        <ele>139.0</ele>
        <time>2012-08-20T14:22:57Z</time>
      </trkpt>
      <trkpt lat="39.710191" lon="-0.351784">
        <ele>139.0</ele>
        <time>2012-08-20T14:23:00Z</time>
      </trkpt>
      <trkpt lat="39.710146" lon="-0.351694">
        <ele>139.0</ele>
        <time>2012-08-20T14:23:02Z</time>
      </trkpt>
      <trkpt lat="39.710129" lon="-0.351643">
        <ele>139.0</ele>
        <time>2012-08-20T14:23:03Z</time>
      </trkpt>
      <trkpt lat="39.710098" lon="-0.351534">
        <ele>139.0</ele>
        <time>2012-08-20T14:23:05Z</time>
      </trkpt>
      <trkpt lat="39.710060" lon="-0.351432">
        <ele>139.0</ele>
        <time>2012-08-20T14:23:07Z</time>
      </trkpt>
      <trkpt lat="39.710040" lon="-0.351381">
        <ele>138.6</ele>
        <time>2012-08-20T14:23:08Z</time>
      </trkpt>
      <trkpt lat="39.710021" lon="-0.351328">
        <ele>138.2</ele>
        <time>2012-08-20T14:23:09Z</time>
      </trkpt>
      <trkpt lat="39.710002" lon="-0.351271">
        <ele>137.8</ele>
        <time>2012-08-20T14:23:10Z</time>
      </trkpt>
      <trkpt lat="39.709981" lon="-0.351215">
        <ele>137.2</ele>
        <time>2012-08-20T14:23:11Z</time>
      </trkpt>
      <trkpt lat="39.709960" lon="-0.351161">
        <ele>136.8</ele>
        <time>2012-08-20T14:23:12Z</time>
      </trkpt>
      <trkpt lat="39.709903" lon="-0.351035">
        <ele>136.8</ele>
        <time>2012-08-20T14:23:15Z</time>
      </trkpt>
      <trkpt lat="39.709886" lon="-0.351024">
        <ele>136.8</ele>
        <time>2012-08-20T14:23:16Z</time>
      </trkpt>
      <trkpt lat="39.709826" lon="-0.351070">
        <ele>136.8</ele>
        <time>2012-08-20T14:23:20Z</time>
      </trkpt>
      <trkpt lat="39.709813" lon="-0.351094">
        <ele>136.8</ele>
        <time>2012-08-20T14:23:21Z</time>
      </trkpt>
      <trkpt lat="39.709749" lon="-0.351216">
        <ele>136.8</ele>
        <time>2012-08-20T14:23:26Z</time>
      </trkpt>
      <trkpt lat="39.709632" lon="-0.351252">
        <ele>136.8</ele>
        <time>2012-08-20T14:23:31Z</time>
      </trkpt>
      <trkpt lat="39.709474" lon="-0.351134">
        <ele>136.8</ele>
        <time>2012-08-20T14:23:38Z</time>
      </trkpt>
      <trkpt lat="39.709239" lon="-0.350978">
        <ele>136.8</ele>
        <time>2012-08-20T14:23:46Z</time>
      </trkpt>
      <trkpt lat="39.709017" lon="-0.350814">
        <ele>136.8</ele>
        <time>2012-08-20T14:23:52Z</time>
      </trkpt>
      <trkpt lat="39.708740" lon="-0.350595">
        <ele>136.4</ele>
        <time>2012-08-20T14:23:58Z</time>
      </trkpt>
      <trkpt lat="39.708686" lon="-0.350555">
        <ele>135.8</ele>
        <time>2012-08-20T14:23:59Z</time>
      </trkpt>
      <trkpt lat="39.708632" lon="-0.350520">
        <ele>135.4</ele>
        <time>2012-08-20T14:24:00Z</time>
      </trkpt>
      <trkpt lat="39.708576" lon="-0.350485">
        <ele>135.0</ele>
        <time>2012-08-20T14:24:01Z</time>
      </trkpt>
      <trkpt lat="39.708517" lon="-0.350451">
        <ele>134.4</ele>
        <time>2012-08-20T14:24:02Z</time>
      </trkpt>
      <trkpt lat="39.708345" lon="-0.350350">
        <ele>134.4</ele>
        <time>2012-08-20T14:24:05Z</time>
      </trkpt>
      <trkpt lat="39.708225" lon="-0.350279">
        <ele>134.0</ele>
        <time>2012-08-20T14:24:07Z</time>
      </trkpt>
      <trkpt lat="39.708166" lon="-0.350247">
        <ele>133.4</ele>
        <time>2012-08-20T14:24:08Z</time>
      </trkpt>
      <trkpt lat="39.708107" lon="-0.350215">
        <ele>133.0</ele>
        <time>2012-08-20T14:24:09Z</time>
      </trkpt>
      <trkpt lat="39.708048" lon="-0.350188">
        <ele>132.6</ele>
        <time>2012-08-20T14:24:10Z</time>
      </trkpt>
      <trkpt lat="39.707991" lon="-0.350161">
        <ele>132.0</ele>
        <time>2012-08-20T14:24:11Z</time>
      </trkpt>
      <trkpt lat="39.707880" lon="-0.350106">
        <ele>132.0</ele>
        <time>2012-08-20T14:24:13Z</time>
      </trkpt>
      <trkpt lat="39.707559" lon="-0.349981">
        <ele>132.0</ele>
        <time>2012-08-20T14:24:19Z</time>
      </trkpt>
      <trkpt lat="39.707336" lon="-0.349939">
        <ele>132.0</ele>
        <time>2012-08-20T14:24:24Z</time>
      </trkpt>
      <trkpt lat="39.707062" lon="-0.349879">
        <ele>132.0</ele>
        <time>2012-08-20T14:24:31Z</time>
      </trkpt>
      <trkpt lat="39.707025" lon="-0.349864">
        <ele>132.0</ele>
        <time>2012-08-20T14:24:32Z</time>
      </trkpt>
      <trkpt lat="39.706915" lon="-0.349833">
        <ele>132.0</ele>
        <time>2012-08-20T14:24:35Z</time>
      </trkpt>
      <trkpt lat="39.706766" lon="-0.349792">
        <ele>132.0</ele>
        <time>2012-08-20T14:24:39Z</time>
      </trkpt>
      <trkpt lat="39.706728" lon="-0.349782">
        <ele>132.4</ele>
        <time>2012-08-20T14:24:40Z</time>
      </trkpt>
      <trkpt lat="39.706690" lon="-0.349768">
        <ele>132.8</ele>
        <time>2012-08-20T14:24:41Z</time>
      </trkpt>
      <trkpt lat="39.706650" lon="-0.349754">
        <ele>133.4</ele>
        <time>2012-08-20T14:24:42Z</time>
      </trkpt>
      <trkpt lat="39.706610" lon="-0.349738">
        <ele>133.8</ele>
        <time>2012-08-20T14:24:43Z</time>
      </trkpt>
      <trkpt lat="39.706569" lon="-0.349721">
        <ele>134.2</ele>
        <time>2012-08-20T14:24:44Z</time>
      </trkpt>
      <trkpt lat="39.706447" lon="-0.349671">
        <ele>134.2</ele>
        <time>2012-08-20T14:24:47Z</time>
      </trkpt>
      <trkpt lat="39.706140" lon="-0.349517">
        <ele>134.2</ele>
        <time>2012-08-20T14:24:54Z</time>
      </trkpt>
      <trkpt lat="39.705843" lon="-0.349372">
        <ele>133.8</ele>
        <time>2012-08-20T14:25:00Z</time>
      </trkpt>
      <trkpt lat="39.705786" lon="-0.349347">
        <ele>133.0</ele>
        <time>2012-08-20T14:25:01Z</time>
      </trkpt>
      <trkpt lat="39.705731" lon="-0.349321">
        <ele>132.6</ele>
        <time>2012-08-20T14:25:02Z</time>
      </trkpt>
      <trkpt lat="39.705674" lon="-0.349297">
        <ele>132.0</ele>
        <time>2012-08-20T14:25:03Z</time>
      </trkpt>
      <trkpt lat="39.705269" lon="-0.349118">
        <ele>132.0</ele>
        <time>2012-08-20T14:25:10Z</time>
      </trkpt>
      <trkpt lat="39.705153" lon="-0.349063">
        <ele>131.6</ele>
        <time>2012-08-20T14:25:12Z</time>
      </trkpt>
      <trkpt lat="39.705097" lon="-0.349038">
        <ele>131.2</ele>
        <time>2012-08-20T14:25:13Z</time>
      </trkpt>
      <trkpt lat="39.705040" lon="-0.349013">
        <ele>130.8</ele>
        <time>2012-08-20T14:25:14Z</time>
      </trkpt>
      <trkpt lat="39.704983" lon="-0.348987">
        <ele>130.4</ele>
        <time>2012-08-20T14:25:15Z</time>
      </trkpt>
      <trkpt lat="39.704928" lon="-0.348962">
        <ele>130.0</ele>
        <time>2012-08-20T14:25:16Z</time>
      </trkpt>
      <trkpt lat="39.704870" lon="-0.348935">
        <ele>130.0</ele>
        <time>2012-08-20T14:25:17Z</time>
      </trkpt>
      <trkpt lat="39.704762" lon="-0.348879">
        <ele>130.0</ele>
        <time>2012-08-20T14:25:19Z</time>
      </trkpt>
      <trkpt lat="39.704556" lon="-0.348760">
        <ele>130.0</ele>
        <time>2012-08-20T14:25:23Z</time>
      </trkpt>
      <trkpt lat="39.704416" lon="-0.348685">
        <ele>130.0</ele>
        <time>2012-08-20T14:25:26Z</time>
      </trkpt>
      <trkpt lat="39.704299" lon="-0.348602">
        <ele>130.0</ele>
        <time>2012-08-20T14:25:29Z</time>
      </trkpt>
      <trkpt lat="39.704008" lon="-0.348359">
        <ele>130.0</ele>
        <time>2012-08-20T14:25:37Z</time>
      </trkpt>
      <trkpt lat="39.703856" lon="-0.348217">
        <ele>130.0</ele>
        <time>2012-08-20T14:25:41Z</time>
      </trkpt>
      <trkpt lat="39.703724" lon="-0.348150">
        <ele>130.0</ele>
        <time>2012-08-20T14:25:44Z</time>
      </trkpt>
      <trkpt lat="39.703467" lon="-0.348026">
        <ele>130.0</ele>
        <time>2012-08-20T14:25:49Z</time>
      </trkpt>
      <trkpt lat="39.703415" lon="-0.347986">
        <ele>130.0</ele>
        <time>2012-08-20T14:25:50Z</time>
      </trkpt>
      <trkpt lat="39.703014" lon="-0.347644">
        <ele>130.0</ele>
        <time>2012-08-20T14:25:58Z</time>
      </trkpt>
      <trkpt lat="39.702824" lon="-0.347479">
        <ele>130.0</ele>
        <time>2012-08-20T14:26:02Z</time>
      </trkpt>
      <trkpt lat="39.702729" lon="-0.347387">
        <ele>130.0</ele>
        <time>2012-08-20T14:26:04Z</time>
      </trkpt>
      <trkpt lat="39.702378" lon="-0.347057">
        <ele>130.0</ele>
        <time>2012-08-20T14:26:12Z</time>
      </trkpt>
      <trkpt lat="39.702293" lon="-0.346883">
        <ele>130.0</ele>
        <time>2012-08-20T14:26:15Z</time>
      </trkpt>
      <trkpt lat="39.702221" lon="-0.346777">
        <ele>130.0</ele>
        <time>2012-08-20T14:26:17Z</time>
      </trkpt>
      <trkpt lat="39.702052" lon="-0.346589">
        <ele>130.0</ele>
        <time>2012-08-20T14:26:21Z</time>
      </trkpt>
      <trkpt lat="39.701815" lon="-0.346359">
        <ele>130.0</ele>
        <time>2012-08-20T14:26:27Z</time>
      </trkpt>
      <trkpt lat="39.701664" lon="-0.346226">
        <ele>129.6</ele>
        <time>2012-08-20T14:26:31Z</time>
      </trkpt>
      <trkpt lat="39.701625" lon="-0.346190">
        <ele>129.2</ele>
        <time>2012-08-20T14:26:32Z</time>
      </trkpt>
      <trkpt lat="39.701587" lon="-0.346157">
        <ele>128.8</ele>
        <time>2012-08-20T14:26:33Z</time>
      </trkpt>
      <trkpt lat="39.701550" lon="-0.346124">
        <ele>128.4</ele>
        <time>2012-08-20T14:26:34Z</time>
      </trkpt>
      <trkpt lat="39.701514" lon="-0.346089">
        <ele>128.0</ele>
        <time>2012-08-20T14:26:35Z</time>
      </trkpt>
      <trkpt lat="39.701253" lon="-0.345858">
        <ele>128.0</ele>
        <time>2012-08-20T14:26:41Z</time>
      </trkpt>
      <trkpt lat="39.700879" lon="-0.345585">
        <ele>128.0</ele>
        <time>2012-08-20T14:26:49Z</time>
      </trkpt>
      <trkpt lat="39.700544" lon="-0.345392">
        <ele>128.0</ele>
        <time>2012-08-20T14:26:56Z</time>
      </trkpt>
      <trkpt lat="39.700303" lon="-0.345197">
        <ele>128.0</ele>
        <time>2012-08-20T14:27:02Z</time>
      </trkpt>
      <trkpt lat="39.700101" lon="-0.345025">
        <ele>127.6</ele>
        <time>2012-08-20T14:27:06Z</time>
      </trkpt>
      <trkpt lat="39.700051" lon="-0.344977">
        <ele>127.2</ele>
        <time>2012-08-20T14:27:07Z</time>
      </trkpt>
      <trkpt lat="39.700004" lon="-0.344925">
        <ele>126.8</ele>
        <time>2012-08-20T14:27:08Z</time>
      </trkpt>
      <trkpt lat="39.699965" lon="-0.344866">
        <ele>126.4</ele>
        <time>2012-08-20T14:27:09Z</time>
      </trkpt>
      <trkpt lat="39.699936" lon="-0.344801">
        <ele>125.8</ele>
        <time>2012-08-20T14:27:10Z</time>
      </trkpt>
      <trkpt lat="39.699911" lon="-0.344730">
        <ele>125.8</ele>
        <time>2012-08-20T14:27:11Z</time>
      </trkpt>
      <trkpt lat="39.699815" lon="-0.344426">
        <ele>125.4</ele>
        <time>2012-08-20T14:27:15Z</time>
      </trkpt>
      <trkpt lat="39.699792" lon="-0.344348">
        <ele>125.0</ele>
        <time>2012-08-20T14:27:16Z</time>
      </trkpt>
      <trkpt lat="39.699765" lon="-0.344272">
        <ele>124.6</ele>
        <time>2012-08-20T14:27:17Z</time>
      </trkpt>
      <trkpt lat="39.699732" lon="-0.344200">
        <ele>124.2</ele>
        <time>2012-08-20T14:27:18Z</time>
      </trkpt>
      <trkpt lat="39.699690" lon="-0.344135">
        <ele>123.8</ele>
        <time>2012-08-20T14:27:19Z</time>
      </trkpt>
      <trkpt lat="39.699587" lon="-0.343944">
        <ele>123.8</ele>
        <time>2012-08-20T14:27:22Z</time>
      </trkpt>
      <trkpt lat="39.699576" lon="-0.343780">
        <ele>123.8</ele>
        <time>2012-08-20T14:27:24Z</time>
      </trkpt>
      <trkpt lat="39.699573" lon="-0.343699">
        <ele>123.8</ele>
        <time>2012-08-20T14:27:25Z</time>
      </trkpt>
      <trkpt lat="39.699565" lon="-0.343543">
        <ele>123.4</ele>
        <time>2012-08-20T14:27:27Z</time>
      </trkpt>
      <trkpt lat="39.699560" lon="-0.343473">
        <ele>122.8</ele>
        <time>2012-08-20T14:27:28Z</time>
      </trkpt>
      <trkpt lat="39.699553" lon="-0.343404">
        <ele>122.0</ele>
        <time>2012-08-20T14:27:29Z</time>
      </trkpt>
      <trkpt lat="39.699536" lon="-0.343332">
        <ele>121.6</ele>
        <time>2012-08-20T14:27:30Z</time>
      </trkpt>
      <trkpt lat="39.699517" lon="-0.343260">
        <ele>121.6</ele>
        <time>2012-08-20T14:27:31Z</time>
      </trkpt>
      <trkpt lat="39.699493" lon="-0.343187">
        <ele>121.2</ele>
        <time>2012-08-20T14:27:32Z</time>
      </trkpt>
      <trkpt lat="39.699465" lon="-0.343118">
        <ele>120.6</ele>
        <time>2012-08-20T14:27:33Z</time>
      </trkpt>
      <trkpt lat="39.699434" lon="-0.343053">
        <ele>120.2</ele>
        <time>2012-08-20T14:27:34Z</time>
      </trkpt>
      <trkpt lat="39.699392" lon="-0.342994">
        <ele>119.8</ele>
        <time>2012-08-20T14:27:35Z</time>
      </trkpt>
      <trkpt lat="39.699347" lon="-0.342938">
        <ele>119.4</ele>
        <time>2012-08-20T14:27:36Z</time>
      </trkpt>
      <trkpt lat="39.699249" lon="-0.342838">
        <ele>119.0</ele>
        <time>2012-08-20T14:27:38Z</time>
      </trkpt>
      <trkpt lat="39.699196" lon="-0.342802">
        <ele>118.4</ele>
        <time>2012-08-20T14:27:39Z</time>
      </trkpt>
      <trkpt lat="39.699142" lon="-0.342768">
        <ele>118.0</ele>
        <time>2012-08-20T14:27:40Z</time>
      </trkpt>
      <trkpt lat="39.699090" lon="-0.342737">
        <ele>117.6</ele>
        <time>2012-08-20T14:27:41Z</time>
      </trkpt>
      <trkpt lat="39.699038" lon="-0.342705">
        <ele>117.2</ele>
        <time>2012-08-20T14:27:42Z</time>
      </trkpt>
      <trkpt lat="39.698935" lon="-0.342650">
        <ele>117.2</ele>
        <time>2012-08-20T14:27:44Z</time>
      </trkpt>
      <trkpt lat="39.698814" lon="-0.342602">
        <ele>117.2</ele>
        <time>2012-08-20T14:27:47Z</time>
      </trkpt>
      <trkpt lat="39.698741" lon="-0.342577">
        <ele>116.8</ele>
        <time>2012-08-20T14:27:49Z</time>
      </trkpt>
      <trkpt lat="39.698693" lon="-0.342571">
        <ele>116.4</ele>
        <time>2012-08-20T14:27:50Z</time>
      </trkpt>
      <trkpt lat="39.698649" lon="-0.342570">
        <ele>115.8</ele>
        <time>2012-08-20T14:27:51Z</time>
      </trkpt>
      <trkpt lat="39.698611" lon="-0.342574">
        <ele>115.4</ele>
        <time>2012-08-20T14:27:52Z</time>
      </trkpt>
      <trkpt lat="39.698584" lon="-0.342584">
        <ele>115.0</ele>
        <time>2012-08-20T14:27:53Z</time>
      </trkpt>
      <trkpt lat="39.698566" lon="-0.342596">
        <ele>114.0</ele>
        <time>2012-08-20T14:27:54Z</time>
      </trkpt>
      <trkpt lat="39.698551" lon="-0.342604">
        <ele>113.6</ele>
        <time>2012-08-20T14:27:55Z</time>
      </trkpt>
      <trkpt lat="39.698532" lon="-0.342618">
        <ele>113.0</ele>
        <time>2012-08-20T14:27:56Z</time>
      </trkpt>
      <trkpt lat="39.698512" lon="-0.342643">
        <ele>112.6</ele>
        <time>2012-08-20T14:27:57Z</time>
      </trkpt>
      <trkpt lat="39.698477" lon="-0.342706">
        <ele>112.6</ele>
        <time>2012-08-20T14:27:59Z</time>
      </trkpt>
      <trkpt lat="39.698344" lon="-0.342762">
        <ele>112.6</ele>
        <time>2012-08-20T14:28:03Z</time>
      </trkpt>
      <trkpt lat="39.698288" lon="-0.342642">
        <ele>112.6</ele>
        <time>2012-08-20T14:28:06Z</time>
      </trkpt>
      <trkpt lat="39.698340" lon="-0.342487">
        <ele>112.6</ele>
        <time>2012-08-20T14:28:09Z</time>
      </trkpt>
      <trkpt lat="39.698412" lon="-0.342394">
        <ele>112.6</ele>
        <time>2012-08-20T14:28:11Z</time>
      </trkpt>
      <trkpt lat="39.698447" lon="-0.342340">
        <ele>112.6</ele>
        <time>2012-08-20T14:28:12Z</time>
      </trkpt>
      <trkpt lat="39.698506" lon="-0.342207">
        <ele>112.6</ele>
        <time>2012-08-20T14:28:14Z</time>
      </trkpt>
      <trkpt lat="39.698637" lon="-0.341887">
        <ele>111.6</ele>
        <time>2012-08-20T14:28:18Z</time>
      </trkpt>
      <trkpt lat="39.698675" lon="-0.341801">
        <ele>111.2</ele>
        <time>2012-08-20T14:28:19Z</time>
      </trkpt>
      <trkpt lat="39.698708" lon="-0.341716">
        <ele>110.6</ele>
        <time>2012-08-20T14:28:20Z</time>
      </trkpt>
      <trkpt lat="39.698741" lon="-0.341629">
        <ele>110.2</ele>
        <time>2012-08-20T14:28:21Z</time>
      </trkpt>
      <trkpt lat="39.698824" lon="-0.341394">
        <ele>110.2</ele>
        <time>2012-08-20T14:28:24Z</time>
      </trkpt>
      <trkpt lat="39.698837" lon="-0.341256">
        <ele>110.2</ele>
        <time>2012-08-20T14:28:26Z</time>
      </trkpt>
      <trkpt lat="39.698819" lon="-0.341197">
        <ele>110.2</ele>
        <time>2012-08-20T14:28:27Z</time>
      </trkpt>
      <trkpt lat="39.698765" lon="-0.341017">
        <ele>110.2</ele>
        <time>2012-08-20T14:28:30Z</time>
      </trkpt>
      <trkpt lat="39.698743" lon="-0.340957">
        <ele>110.2</ele>
        <time>2012-08-20T14:28:31Z</time>
      </trkpt>
      <trkpt lat="39.698611" lon="-0.340787">
        <ele>110.2</ele>
        <time>2012-08-20T14:28:35Z</time>
      </trkpt>
      <trkpt lat="39.698480" lon="-0.340648">
        <ele>110.2</ele>
        <time>2012-08-20T14:28:39Z</time>
      </trkpt>
      <trkpt lat="39.698427" lon="-0.340561">
        <ele>110.2</ele>
        <time>2012-08-20T14:28:41Z</time>
      </trkpt>
      <trkpt lat="39.698401" lon="-0.340511">
        <ele>110.2</ele>
        <time>2012-08-20T14:28:42Z</time>
      </trkpt>
      <trkpt lat="39.698343" lon="-0.340417">
        <ele>110.2</ele>
        <time>2012-08-20T14:28:44Z</time>
      </trkpt>
      <trkpt lat="39.698202" lon="-0.340236">
        <ele>110.2</ele>
        <time>2012-08-20T14:28:48Z</time>
      </trkpt>
      <trkpt lat="39.697956" lon="-0.339909">
        <ele>110.2</ele>
        <time>2012-08-20T14:28:55Z</time>
      </trkpt>
      <trkpt lat="39.697812" lon="-0.339514">
        <ele>110.2</ele>
        <time>2012-08-20T14:29:01Z</time>
      </trkpt>
      <trkpt lat="39.697641" lon="-0.338967">
        <ele>110.2</ele>
        <time>2012-08-20T14:29:09Z</time>
      </trkpt>
      <trkpt lat="39.697477" lon="-0.338439">
        <ele>109.8</ele>
        <time>2012-08-20T14:29:16Z</time>
      </trkpt>
      <trkpt lat="39.697450" lon="-0.338360">
        <ele>109.4</ele>
        <time>2012-08-20T14:29:17Z</time>
      </trkpt>
      <trkpt lat="39.697422" lon="-0.338281">
        <ele>109.0</ele>
        <time>2012-08-20T14:29:18Z</time>
      </trkpt>
      <trkpt lat="39.697395" lon="-0.338201">
        <ele>108.6</ele>
        <time>2012-08-20T14:29:19Z</time>
      </trkpt>
      <trkpt lat="39.697366" lon="-0.338121">
        <ele>108.2</ele>
        <time>2012-08-20T14:29:20Z</time>
      </trkpt>
      <trkpt lat="39.697205" lon="-0.337726">
        <ele>108.2</ele>
        <time>2012-08-20T14:29:25Z</time>
      </trkpt>
      <trkpt lat="39.696942" lon="-0.337191">
        <ele>108.2</ele>
        <time>2012-08-20T14:29:32Z</time>
      </trkpt>
      <trkpt lat="39.696721" lon="-0.336699">
        <ele>108.2</ele>
        <time>2012-08-20T14:29:39Z</time>
      </trkpt>
      <trkpt lat="39.696476" lon="-0.336081">
        <ele>108.2</ele>
        <time>2012-08-20T14:29:48Z</time>
      </trkpt>
      <trkpt lat="39.696440" lon="-0.336019">
        <ele>108.2</ele>
        <time>2012-08-20T14:29:49Z</time>
      </trkpt>
      <trkpt lat="39.696323" lon="-0.335855">
        <ele>108.2</ele>
        <time>2012-08-20T14:29:52Z</time>
      </trkpt>
      <trkpt lat="39.696274" lon="-0.335811">
        <ele>108.2</ele>
        <time>2012-08-20T14:29:53Z</time>
      </trkpt>
      <trkpt lat="39.696008" lon="-0.335551">
        <ele>108.2</ele>
        <time>2012-08-20T14:29:59Z</time>
      </trkpt>
      <trkpt lat="39.695638" lon="-0.335253">
        <ele>108.2</ele>
        <time>2012-08-20T14:30:08Z</time>
      </trkpt>
      <trkpt lat="39.695433" lon="-0.335102">
        <ele>108.2</ele>
        <time>2012-08-20T14:30:13Z</time>
      </trkpt>
      <trkpt lat="39.695399" lon="-0.335072">
        <ele>108.2</ele>
        <time>2012-08-20T14:30:14Z</time>
      </trkpt>
      <trkpt lat="39.695330" lon="-0.335012">
        <ele>108.2</ele>
        <time>2012-08-20T14:30:16Z</time>
      </trkpt>
      <trkpt lat="39.695226" lon="-0.334926">
        <ele>108.2</ele>
        <time>2012-08-20T14:30:19Z</time>
      </trkpt>
      <trkpt lat="39.695102" lon="-0.334830">
        <ele>108.6</ele>
        <time>2012-08-20T14:30:23Z</time>
      </trkpt>
      <trkpt lat="39.695071" lon="-0.334812">
        <ele>109.0</ele>
        <time>2012-08-20T14:30:24Z</time>
      </trkpt>
      <trkpt lat="39.695039" lon="-0.334788">
        <ele>109.4</ele>
        <time>2012-08-20T14:30:25Z</time>
      </trkpt>
      <trkpt lat="39.695007" lon="-0.334763">
        <ele>109.8</ele>
        <time>2012-08-20T14:30:26Z</time>
      </trkpt>
      <trkpt lat="39.694976" lon="-0.334740">
        <ele>110.2</ele>
        <time>2012-08-20T14:30:27Z</time>
      </trkpt>
      <trkpt lat="39.694763" lon="-0.334564">
        <ele>110.2</ele>
        <time>2012-08-20T14:30:34Z</time>
      </trkpt>
      <trkpt lat="39.694536" lon="-0.334388">
        <ele>110.2</ele>
        <time>2012-08-20T14:30:41Z</time>
      </trkpt>
      <trkpt lat="39.694264" lon="-0.334176">
        <ele>110.2</ele>
        <time>2012-08-20T14:30:48Z</time>
      </trkpt>
      <trkpt lat="39.693947" lon="-0.333919">
        <ele>110.2</ele>
        <time>2012-08-20T14:30:55Z</time>
      </trkpt>
      <trkpt lat="39.693449" lon="-0.333523">
        <ele>110.2</ele>
        <time>2012-08-20T14:31:05Z</time>
      </trkpt>
      <trkpt lat="39.693054" lon="-0.333217">
        <ele>110.2</ele>
        <time>2012-08-20T14:31:13Z</time>
      </trkpt>
      <trkpt lat="39.692842" lon="-0.333048">
        <ele>109.8</ele>
        <time>2012-08-20T14:31:17Z</time>
      </trkpt>
      <trkpt lat="39.692788" lon="-0.333006">
        <ele>109.4</ele>
        <time>2012-08-20T14:31:18Z</time>
      </trkpt>
      <trkpt lat="39.692732" lon="-0.332963">
        <ele>108.8</ele>
        <time>2012-08-20T14:31:19Z</time>
      </trkpt>
      <trkpt lat="39.692677" lon="-0.332921">
        <ele>108.4</ele>
        <time>2012-08-20T14:31:20Z</time>
      </trkpt>
      <trkpt lat="39.692624" lon="-0.332880">
        <ele>108.0</ele>
        <time>2012-08-20T14:31:21Z</time>
      </trkpt>
      <trkpt lat="39.692158" lon="-0.332493">
        <ele>108.0</ele>
        <time>2012-08-20T14:31:30Z</time>
      </trkpt>
      <trkpt lat="39.692011" lon="-0.332377">
        <ele>107.6</ele>
        <time>2012-08-20T14:31:33Z</time>
      </trkpt>
      <trkpt lat="39.691960" lon="-0.332338">
        <ele>107.2</ele>
        <time>2012-08-20T14:31:34Z</time>
      </trkpt>
      <trkpt lat="39.691904" lon="-0.332300">
        <ele>106.8</ele>
        <time>2012-08-20T14:31:35Z</time>
      </trkpt>
      <trkpt lat="39.691851" lon="-0.332270">
        <ele>106.4</ele>
        <time>2012-08-20T14:31:36Z</time>
      </trkpt>
      <trkpt lat="39.691797" lon="-0.332242">
        <ele>106.0</ele>
        <time>2012-08-20T14:31:37Z</time>
      </trkpt>
      <trkpt lat="39.691401" lon="-0.332080">
        <ele>106.0</ele>
        <time>2012-08-20T14:31:44Z</time>
      </trkpt>
      <trkpt lat="39.691346" lon="-0.332064">
        <ele>106.0</ele>
        <time>2012-08-20T14:31:45Z</time>
      </trkpt>
      <trkpt lat="39.691026" lon="-0.331961">
        <ele>106.0</ele>
        <time>2012-08-20T14:31:51Z</time>
      </trkpt>
      <trkpt lat="39.690921" lon="-0.331922">
        <ele>106.4</ele>
        <time>2012-08-20T14:31:53Z</time>
      </trkpt>
      <trkpt lat="39.690868" lon="-0.331905">
        <ele>106.8</ele>
        <time>2012-08-20T14:31:54Z</time>
      </trkpt>
      <trkpt lat="39.690816" lon="-0.331889">
        <ele>107.2</ele>
        <time>2012-08-20T14:31:55Z</time>
      </trkpt>
      <trkpt lat="39.690764" lon="-0.331873">
        <ele>107.6</ele>
        <time>2012-08-20T14:31:56Z</time>
      </trkpt>
      <trkpt lat="39.690714" lon="-0.331856">
        <ele>108.0</ele>
        <time>2012-08-20T14:31:57Z</time>
      </trkpt>
      <trkpt lat="39.690564" lon="-0.331798">
        <ele>108.0</ele>
        <time>2012-08-20T14:32:00Z</time>
      </trkpt>
      <trkpt lat="39.690281" lon="-0.331621">
        <ele>108.0</ele>
        <time>2012-08-20T14:32:06Z</time>
      </trkpt>
      <trkpt lat="39.690007" lon="-0.331417">
        <ele>108.0</ele>
        <time>2012-08-20T14:32:12Z</time>
      </trkpt>
      <trkpt lat="39.689962" lon="-0.331382">
        <ele>108.0</ele>
        <time>2012-08-20T14:32:13Z</time>
      </trkpt>
      <trkpt lat="39.689631" lon="-0.331130">
        <ele>108.0</ele>
        <time>2012-08-20T14:32:20Z</time>
      </trkpt>
      <trkpt lat="39.689370" lon="-0.330935">
        <ele>107.6</ele>
        <time>2012-08-20T14:32:25Z</time>
      </trkpt>
      <trkpt lat="39.689321" lon="-0.330896">
        <ele>107.2</ele>
        <time>2012-08-20T14:32:26Z</time>
      </trkpt>
      <trkpt lat="39.689271" lon="-0.330857">
        <ele>106.2</ele>
        <time>2012-08-20T14:32:27Z</time>
      </trkpt>
      <trkpt lat="39.689222" lon="-0.330819">
        <ele>105.8</ele>
        <time>2012-08-20T14:32:28Z</time>
      </trkpt>
      <trkpt lat="39.688881" lon="-0.330544">
        <ele>105.8</ele>
        <time>2012-08-20T14:32:35Z</time>
      </trkpt>
      <trkpt lat="39.688488" lon="-0.330188">
        <ele>105.8</ele>
        <time>2012-08-20T14:32:43Z</time>
      </trkpt>
      <trkpt lat="39.688109" lon="-0.329850">
        <ele>105.0</ele>
        <time>2012-08-20T14:32:51Z</time>
      </trkpt>
      <trkpt lat="39.688063" lon="-0.329809">
        <ele>104.6</ele>
        <time>2012-08-20T14:32:52Z</time>
      </trkpt>
      <trkpt lat="39.688013" lon="-0.329771">
        <ele>104.2</ele>
        <time>2012-08-20T14:32:53Z</time>
      </trkpt>
      <trkpt lat="39.687966" lon="-0.329740">
        <ele>103.8</ele>
        <time>2012-08-20T14:32:54Z</time>
      </trkpt>
      <trkpt lat="39.687915" lon="-0.329718">
        <ele>103.8</ele>
        <time>2012-08-20T14:32:55Z</time>
      </trkpt>
      <trkpt lat="39.687810" lon="-0.329726">
        <ele>103.8</ele>
        <time>2012-08-20T14:32:57Z</time>
      </trkpt>
      <trkpt lat="39.687678" lon="-0.329834">
        <ele>103.8</ele>
        <time>2012-08-20T14:33:00Z</time>
      </trkpt>
      <trkpt lat="39.687632" lon="-0.329865">
        <ele>103.8</ele>
        <time>2012-08-20T14:33:01Z</time>
      </trkpt>
      <trkpt lat="39.687535" lon="-0.329869">
        <ele>103.8</ele>
        <time>2012-08-20T14:33:03Z</time>
      </trkpt>
      <trkpt lat="39.687367" lon="-0.329738">
        <ele>103.8</ele>
        <time>2012-08-20T14:33:07Z</time>
      </trkpt>
      <trkpt lat="39.687333" lon="-0.329556">
        <ele>103.8</ele>
        <time>2012-08-20T14:33:10Z</time>
      </trkpt>
      <trkpt lat="39.687355" lon="-0.329358">
        <ele>103.8</ele>
        <time>2012-08-20T14:33:13Z</time>
      </trkpt>
      <trkpt lat="39.687364" lon="-0.329223">
        <ele>103.8</ele>
        <time>2012-08-20T14:33:15Z</time>
      </trkpt>
      <trkpt lat="39.687303" lon="-0.329051">
        <ele>103.8</ele>
        <time>2012-08-20T14:33:18Z</time>
      </trkpt>
      <trkpt lat="39.687267" lon="-0.329004">
        <ele>104.2</ele>
        <time>2012-08-20T14:33:19Z</time>
      </trkpt>
      <trkpt lat="39.687229" lon="-0.328961">
        <ele>104.6</ele>
        <time>2012-08-20T14:33:20Z</time>
      </trkpt>
      <trkpt lat="39.687187" lon="-0.328918">
        <ele>105.0</ele>
        <time>2012-08-20T14:33:21Z</time>
      </trkpt>
      <trkpt lat="39.687145" lon="-0.328879">
        <ele>105.4</ele>
        <time>2012-08-20T14:33:22Z</time>
      </trkpt>
      <trkpt lat="39.687096" lon="-0.328846">
        <ele>106.0</ele>
        <time>2012-08-20T14:33:23Z</time>
      </trkpt>
      <trkpt lat="39.686866" lon="-0.328705">
        <ele>106.0</ele>
        <time>2012-08-20T14:33:28Z</time>
      </trkpt>
      <trkpt lat="39.686681" lon="-0.328611">
        <ele>106.4</ele>
        <time>2012-08-20T14:33:32Z</time>
      </trkpt>
      <trkpt lat="39.686635" lon="-0.328589">
        <ele>106.8</ele>
        <time>2012-08-20T14:33:33Z</time>
      </trkpt>
      <trkpt lat="39.686591" lon="-0.328569">
        <ele>107.2</ele>
        <time>2012-08-20T14:33:34Z</time>
      </trkpt>
      <trkpt lat="39.686549" lon="-0.328544">
        <ele>107.6</ele>
        <time>2012-08-20T14:33:35Z</time>
      </trkpt>
      <trkpt lat="39.686505" lon="-0.328526">
        <ele>108.0</ele>
        <time>2012-08-20T14:33:36Z</time>
      </trkpt>
      <trkpt lat="39.686225" lon="-0.328437">
        <ele>108.0</ele>
        <time>2012-08-20T14:33:42Z</time>
      </trkpt>
      <trkpt lat="39.686182" lon="-0.328423">
        <ele>108.4</ele>
        <time>2012-08-20T14:33:43Z</time>
      </trkpt>
      <trkpt lat="39.686135" lon="-0.328419">
        <ele>108.8</ele>
        <time>2012-08-20T14:33:44Z</time>
      </trkpt>
      <trkpt lat="39.686092" lon="-0.328414">
        <ele>109.2</ele>
        <time>2012-08-20T14:33:45Z</time>
      </trkpt>
      <trkpt lat="39.686050" lon="-0.328411">
        <ele>109.6</ele>
        <time>2012-08-20T14:33:46Z</time>
      </trkpt>
      <trkpt lat="39.686009" lon="-0.328407">
        <ele>110.0</ele>
        <time>2012-08-20T14:33:47Z</time>
      </trkpt>
      <trkpt lat="39.685850" lon="-0.328393">
        <ele>110.0</ele>
        <time>2012-08-20T14:33:51Z</time>
      </trkpt>
      <trkpt lat="39.685774" lon="-0.328388">
        <ele>110.0</ele>
        <time>2012-08-20T14:33:53Z</time>
      </trkpt>
      <trkpt lat="39.685511" lon="-0.328391">
        <ele>110.0</ele>
        <time>2012-08-20T14:34:00Z</time>
      </trkpt>
      <trkpt lat="39.685179" lon="-0.328390">
        <ele>110.0</ele>
        <time>2012-08-20T14:34:08Z</time>
      </trkpt>
      <trkpt lat="39.684846" lon="-0.328381">
        <ele>110.0</ele>
        <time>2012-08-20T14:34:15Z</time>
      </trkpt>
      <trkpt lat="39.684521" lon="-0.328374">
        <ele>110.0</ele>
        <time>2012-08-20T14:34:21Z</time>
      </trkpt>
      <trkpt lat="39.684155" lon="-0.328368">
        <ele>109.6</ele>
        <time>2012-08-20T14:34:27Z</time>
      </trkpt>
      <trkpt lat="39.684093" lon="-0.328363">
        <ele>109.2</ele>
        <time>2012-08-20T14:34:28Z</time>
      </trkpt>
      <trkpt lat="39.684032" lon="-0.328358">
        <ele>108.4</ele>
        <time>2012-08-20T14:34:29Z</time>
      </trkpt>
      <trkpt lat="39.683970" lon="-0.328360">
        <ele>108.0</ele>
        <time>2012-08-20T14:34:30Z</time>
      </trkpt>
      <trkpt lat="39.683583" lon="-0.328357">
        <ele>108.0</ele>
        <time>2012-08-20T14:34:36Z</time>
      </trkpt>
      <trkpt lat="39.683388" lon="-0.328358">
        <ele>107.6</ele>
        <time>2012-08-20T14:34:39Z</time>
      </trkpt>
      <trkpt lat="39.683326" lon="-0.328358">
        <ele>107.2</ele>
        <time>2012-08-20T14:34:40Z</time>
      </trkpt>
      <trkpt lat="39.683265" lon="-0.328355">
        <ele>106.6</ele>
        <time>2012-08-20T14:34:41Z</time>
      </trkpt>
      <trkpt lat="39.683205" lon="-0.328353">
        <ele>106.2</ele>
        <time>2012-08-20T14:34:42Z</time>
      </trkpt>
      <trkpt lat="39.683144" lon="-0.328353">
        <ele>105.8</ele>
        <time>2012-08-20T14:34:43Z</time>
      </trkpt>
      <trkpt lat="39.682966" lon="-0.328362">
        <ele>105.8</ele>
        <time>2012-08-20T14:34:46Z</time>
      </trkpt>
      <trkpt lat="39.682845" lon="-0.328377">
        <ele>105.8</ele>
        <time>2012-08-20T14:34:48Z</time>
      </trkpt>
      <trkpt lat="39.682732" lon="-0.328371">
        <ele>105.8</ele>
        <time>2012-08-20T14:34:50Z</time>
      </trkpt>
      <trkpt lat="39.682518" lon="-0.328346">
        <ele>105.8</ele>
        <time>2012-08-20T14:34:54Z</time>
      </trkpt>
      <trkpt lat="39.682301" lon="-0.328302">
        <ele>105.8</ele>
        <time>2012-08-20T14:34:59Z</time>
      </trkpt>
      <trkpt lat="39.682267" lon="-0.328290">
        <ele>105.8</ele>
        <time>2012-08-20T14:35:00Z</time>
      </trkpt>
      <trkpt lat="39.682081" lon="-0.328207">
        <ele>105.8</ele>
        <time>2012-08-20T14:35:06Z</time>
      </trkpt>
      <trkpt lat="39.681843" lon="-0.328099">
        <ele>105.8</ele>
        <time>2012-08-20T14:35:13Z</time>
      </trkpt>
      <trkpt lat="39.681734" lon="-0.328042">
        <ele>105.8</ele>
        <time>2012-08-20T14:35:16Z</time>
      </trkpt>
      <trkpt lat="39.681595" lon="-0.327978">
        <ele>105.8</ele>
        <time>2012-08-20T14:35:20Z</time>
      </trkpt>
      <trkpt lat="39.681393" lon="-0.327894">
        <ele>105.8</ele>
        <time>2012-08-20T14:35:26Z</time>
      </trkpt>
      <trkpt lat="39.681414" lon="-0.327993">
        <ele>105.8</ele>
        <time>2012-08-20T14:35:29Z</time>
      </trkpt>
      <trkpt lat="39.681528" lon="-0.328048">
        <ele>105.8</ele>
        <time>2012-08-20T14:35:32Z</time>
      </trkpt>
      <trkpt lat="39.681569" lon="-0.328063">
        <ele>105.8</ele>
        <time>2012-08-20T14:35:33Z</time>
      </trkpt>
      <trkpt lat="39.681612" lon="-0.328065">
        <ele>105.8</ele>
        <time>2012-08-20T14:35:34Z</time>
      </trkpt>
      <trkpt lat="39.681700" lon="-0.328075">
        <ele>105.8</ele>
        <time>2012-08-20T14:35:36Z</time>
      </trkpt>
      <trkpt lat="39.682277" lon="-0.328713">
        <ele>105.8</ele>
        <time>2012-08-20T14:45:49Z</time>
      </trkpt>
      <trkpt lat="39.682224" lon="-0.328644">
        <ele>105.8</ele>
        <time>2012-08-20T14:45:52Z</time>
      </trkpt>
      <trkpt lat="39.682199" lon="-0.328505">
        <ele>105.8</ele>
        <time>2012-08-20T14:45:56Z</time>
      </trkpt>
      <trkpt lat="39.682200" lon="-0.328366">
        <ele>105.8</ele>
        <time>2012-08-20T14:46:01Z</time>
      </trkpt>
      <trkpt lat="39.682182" lon="-0.328342">
        <ele>105.8</ele>
        <time>2012-08-20T14:46:02Z</time>
      </trkpt>
      <trkpt lat="39.682093" lon="-0.328304">
        <ele>105.8</ele>
        <time>2012-08-20T14:46:05Z</time>
      </trkpt>
      <trkpt lat="39.682033" lon="-0.328275">
        <ele>105.8</ele>
        <time>2012-08-20T14:46:07Z</time>
      </trkpt>
      <trkpt lat="39.681814" lon="-0.328182">
        <ele>105.8</ele>
        <time>2012-08-20T14:46:14Z</time>
      </trkpt>
      <trkpt lat="39.681560" lon="-0.328051">
        <ele>105.8</ele>
        <time>2012-08-20T14:46:22Z</time>
      </trkpt>
      <trkpt lat="39.681419" lon="-0.328005">
        <ele>105.4</ele>
        <time>2012-08-20T14:46:26Z</time>
      </trkpt>
      <trkpt lat="39.681384" lon="-0.328027">
        <ele>105.0</ele>
        <time>2012-08-20T14:46:27Z</time>
      </trkpt>
      <trkpt lat="39.681359" lon="-0.328062">
        <ele>104.6</ele>
        <time>2012-08-20T14:46:28Z</time>
      </trkpt>
      <trkpt lat="39.681338" lon="-0.328096">
        <ele>104.2</ele>
        <time>2012-08-20T14:46:29Z</time>
      </trkpt>
      <trkpt lat="39.681313" lon="-0.328124">
        <ele>103.8</ele>
        <time>2012-08-20T14:46:30Z</time>
      </trkpt>
      <trkpt lat="39.681285" lon="-0.328144">
        <ele>103.8</ele>
        <time>2012-08-20T14:46:31Z</time>
      </trkpt>
      <trkpt lat="39.681146" lon="-0.328136">
        <ele>103.8</ele>
        <time>2012-08-20T14:46:35Z</time>
      </trkpt>
      <trkpt lat="39.681033" lon="-0.327986">
        <ele>103.8</ele>
        <time>2012-08-20T14:46:39Z</time>
      </trkpt>
      <trkpt lat="39.681030" lon="-0.327839">
        <ele>103.8</ele>
        <time>2012-08-20T14:46:42Z</time>
      </trkpt>
      <trkpt lat="39.680988" lon="-0.327693">
        <ele>103.8</ele>
        <time>2012-08-20T14:46:46Z</time>
      </trkpt>
      <trkpt lat="39.680911" lon="-0.327648">
        <ele>103.8</ele>
        <time>2012-08-20T14:46:48Z</time>
      </trkpt>
      <trkpt lat="39.680720" lon="-0.327532">
        <ele>103.8</ele>
        <time>2012-08-20T14:46:53Z</time>
      </trkpt>
      <trkpt lat="39.680395" lon="-0.327340">
        <ele>103.8</ele>
        <time>2012-08-20T14:47:01Z</time>
      </trkpt>
      <trkpt lat="39.680077" lon="-0.327166">
        <ele>103.8</ele>
        <time>2012-08-20T14:47:09Z</time>
      </trkpt>
      <trkpt lat="39.679713" lon="-0.327002">
        <ele>103.8</ele>
        <time>2012-08-20T14:47:18Z</time>
      </trkpt>
      <trkpt lat="39.679601" lon="-0.326965">
        <ele>103.8</ele>
        <time>2012-08-20T14:47:21Z</time>
      </trkpt>
      <trkpt lat="39.679564" lon="-0.326980">
        <ele>103.8</ele>
        <time>2012-08-20T14:47:22Z</time>
      </trkpt>
      <trkpt lat="39.679509" lon="-0.327048">
        <ele>104.2</ele>
        <time>2012-08-20T14:47:24Z</time>
      </trkpt>
      <trkpt lat="39.679495" lon="-0.327085">
        <ele>104.8</ele>
        <time>2012-08-20T14:47:25Z</time>
      </trkpt>
      <trkpt lat="39.679477" lon="-0.327126">
        <ele>105.2</ele>
        <time>2012-08-20T14:47:26Z</time>
      </trkpt>
      <trkpt lat="39.679455" lon="-0.327160">
        <ele>105.6</ele>
        <time>2012-08-20T14:47:27Z</time>
      </trkpt>
      <trkpt lat="39.679427" lon="-0.327186">
        <ele>106.2</ele>
        <time>2012-08-20T14:47:28Z</time>
      </trkpt>
      <trkpt lat="39.679365" lon="-0.327208">
        <ele>106.2</ele>
        <time>2012-08-20T14:47:30Z</time>
      </trkpt>
      <trkpt lat="39.679301" lon="-0.327189">
        <ele>106.6</ele>
        <time>2012-08-20T14:47:32Z</time>
      </trkpt>
      <trkpt lat="39.679271" lon="-0.327173">
        <ele>107.0</ele>
        <time>2012-08-20T14:47:33Z</time>
      </trkpt>
      <trkpt lat="39.679244" lon="-0.327147">
        <ele>107.4</ele>
        <time>2012-08-20T14:47:34Z</time>
      </trkpt>
      <trkpt lat="39.679222" lon="-0.327113">
        <ele>107.8</ele>
        <time>2012-08-20T14:47:35Z</time>
      </trkpt>
      <trkpt lat="39.679212" lon="-0.327081">
        <ele>108.2</ele>
        <time>2012-08-20T14:47:36Z</time>
      </trkpt>
      <trkpt lat="39.679207" lon="-0.326997">
        <ele>108.2</ele>
        <time>2012-08-20T14:47:38Z</time>
      </trkpt>
      <trkpt lat="39.679213" lon="-0.326703">
        <ele>108.2</ele>
        <time>2012-08-20T14:47:44Z</time>
      </trkpt>
      <trkpt lat="39.679195" lon="-0.326304">
        <ele>108.2</ele>
        <time>2012-08-20T14:47:52Z</time>
      </trkpt>
      <trkpt lat="39.679193" lon="-0.326174">
        <ele>108.8</ele>
        <time>2012-08-20T14:47:55Z</time>
      </trkpt>
      <trkpt lat="39.679194" lon="-0.326125">
        <ele>109.6</ele>
        <time>2012-08-20T14:47:56Z</time>
      </trkpt>
      <trkpt lat="39.679192" lon="-0.326086">
        <ele>110.0</ele>
        <time>2012-08-20T14:47:57Z</time>
      </trkpt>
      <trkpt lat="39.679188" lon="-0.326042">
        <ele>110.4</ele>
        <time>2012-08-20T14:47:58Z</time>
      </trkpt>
      <trkpt lat="39.679181" lon="-0.325911">
        <ele>110.4</ele>
        <time>2012-08-20T14:48:01Z</time>
      </trkpt>
      <trkpt lat="39.679155" lon="-0.325604">
        <ele>110.4</ele>
        <time>2012-08-20T14:48:08Z</time>
      </trkpt>
      <trkpt lat="39.679139" lon="-0.325303">
        <ele>110.4</ele>
        <time>2012-08-20T14:48:14Z</time>
      </trkpt>
      <trkpt lat="39.679134" lon="-0.325028">
        <ele>110.4</ele>
        <time>2012-08-20T14:48:19Z</time>
      </trkpt>
      <trkpt lat="39.679156" lon="-0.324906">
        <ele>110.4</ele>
        <time>2012-08-20T14:48:21Z</time>
      </trkpt>
      <trkpt lat="39.679187" lon="-0.324774">
        <ele>110.4</ele>
        <time>2012-08-20T14:48:23Z</time>
      </trkpt>
      <trkpt lat="39.679279" lon="-0.324550">
        <ele>110.0</ele>
        <time>2012-08-20T14:48:26Z</time>
      </trkpt>
      <trkpt lat="39.679316" lon="-0.324468">
        <ele>109.4</ele>
        <time>2012-08-20T14:48:27Z</time>
      </trkpt>
      <trkpt lat="39.679355" lon="-0.324384">
        <ele>109.0</ele>
        <time>2012-08-20T14:48:28Z</time>
      </trkpt>
      <trkpt lat="39.679399" lon="-0.324302">
        <ele>108.4</ele>
        <time>2012-08-20T14:48:29Z</time>
      </trkpt>
    </trkseg>
  </trk>
  <trk>
    <name>T3303249-21</name>
    <cmt>La ruta empieza en Ojos Negros. Hasta Santa Eulalia va por una carretera comarcal apenas transitada. Hay un tramo de unos 40 km durante el puerto del Escandón que no aparece reflejado en el track porque me quedé sin batería en el GPS pero la vía verde no tiene pérdida en esa zona</cmt>
    <desc>La ruta empieza en Ojos Negros. Hasta Santa Eulalia va por una carretera comarcal apenas transitada. Hay un tramo de unos 40 km durante el puerto del Escandón que no aparece reflejado en el track porque me quedé sin batería en el GPS pero la vía verde no tiene pérdida en esa zona</desc>
    <trkseg>
      <trkpt lat="39.679440" lon="-0.324219">
        <ele>108.0</ele>
        <time>2012-08-20T14:48:30Z</time>
      </trkpt>
      <trkpt lat="39.679477" lon="-0.324137">
        <ele>107.4</ele>
        <time>2012-08-20T14:48:31Z</time>
      </trkpt>
      <trkpt lat="39.679510" lon="-0.324056">
        <ele>106.8</ele>
        <time>2012-08-20T14:48:32Z</time>
      </trkpt>
      <trkpt lat="39.679542" lon="-0.323987">
        <ele>106.2</ele>
        <time>2012-08-20T14:48:33Z</time>
      </trkpt>
      <trkpt lat="39.679568" lon="-0.323922">
        <ele>105.6</ele>
        <time>2012-08-20T14:48:34Z</time>
      </trkpt>
      <trkpt lat="39.679594" lon="-0.323865">
        <ele>105.2</ele>
        <time>2012-08-20T14:48:35Z</time>
      </trkpt>
      <trkpt lat="39.679620" lon="-0.323808">
        <ele>104.6</ele>
        <time>2012-08-20T14:48:36Z</time>
      </trkpt>
      <trkpt lat="39.679640" lon="-0.323749">
        <ele>104.0</ele>
        <time>2012-08-20T14:48:37Z</time>
      </trkpt>
      <trkpt lat="39.679654" lon="-0.323683">
        <ele>103.4</ele>
        <time>2012-08-20T14:48:38Z</time>
      </trkpt>
      <trkpt lat="39.679655" lon="-0.323607">
        <ele>103.0</ele>
        <time>2012-08-20T14:48:39Z</time>
      </trkpt>
      <trkpt lat="39.679644" lon="-0.323530">
        <ele>102.6</ele>
        <time>2012-08-20T14:48:40Z</time>
      </trkpt>
      <trkpt lat="39.679624" lon="-0.323454">
        <ele>102.2</ele>
        <time>2012-08-20T14:48:41Z</time>
      </trkpt>
      <trkpt lat="39.679600" lon="-0.323379">
        <ele>101.8</ele>
        <time>2012-08-20T14:48:42Z</time>
      </trkpt>
      <trkpt lat="39.679575" lon="-0.323303">
        <ele>101.4</ele>
        <time>2012-08-20T14:48:43Z</time>
      </trkpt>
      <trkpt lat="39.679510" lon="-0.323080">
        <ele>101.0</ele>
        <time>2012-08-20T14:48:46Z</time>
      </trkpt>
      <trkpt lat="39.679488" lon="-0.323025">
        <ele>100.0</ele>
        <time>2012-08-20T14:48:47Z</time>
      </trkpt>
      <trkpt lat="39.679467" lon="-0.322993">
        <ele>99.6</ele>
        <time>2012-08-20T14:48:48Z</time>
      </trkpt>
      <trkpt lat="39.679454" lon="-0.322968">
        <ele>99.2</ele>
        <time>2012-08-20T14:48:49Z</time>
      </trkpt>
      <trkpt lat="39.679431" lon="-0.322914">
        <ele>99.2</ele>
        <time>2012-08-20T14:48:51Z</time>
      </trkpt>
      <trkpt lat="39.679406" lon="-0.322825">
        <ele>99.2</ele>
        <time>2012-08-20T14:48:55Z</time>
      </trkpt>
      <trkpt lat="39.679406" lon="-0.322825">
        <ele>99.2</ele>
        <time>2012-08-20T14:48:56Z</time>
      </trkpt>
      <trkpt lat="39.679443" lon="-0.322785">
        <ele>99.2</ele>
        <time>2012-08-20T14:51:39Z</time>
      </trkpt>
      <trkpt lat="39.679440" lon="-0.322736">
        <ele>99.2</ele>
        <time>2012-08-20T14:51:42Z</time>
      </trkpt>
      <trkpt lat="39.679440" lon="-0.322720">
        <ele>99.2</ele>
        <time>2012-08-20T14:51:43Z</time>
      </trkpt>
      <trkpt lat="39.679417" lon="-0.322638">
        <ele>99.2</ele>
        <time>2012-08-20T14:51:46Z</time>
      </trkpt>
      <trkpt lat="39.679396" lon="-0.322554">
        <ele>98.8</ele>
        <time>2012-08-20T14:51:48Z</time>
      </trkpt>
      <trkpt lat="39.679383" lon="-0.322510">
        <ele>98.4</ele>
        <time>2012-08-20T14:51:49Z</time>
      </trkpt>
      <trkpt lat="39.679366" lon="-0.322469">
        <ele>98.0</ele>
        <time>2012-08-20T14:51:50Z</time>
      </trkpt>
      <trkpt lat="39.679348" lon="-0.322428">
        <ele>97.6</ele>
        <time>2012-08-20T14:51:51Z</time>
      </trkpt>
      <trkpt lat="39.679329" lon="-0.322380">
        <ele>97.2</ele>
        <time>2012-08-20T14:51:52Z</time>
      </trkpt>
      <trkpt lat="39.679258" lon="-0.322238">
        <ele>97.2</ele>
        <time>2012-08-20T14:51:55Z</time>
      </trkpt>
      <trkpt lat="39.679200" lon="-0.322147">
        <ele>97.2</ele>
        <time>2012-08-20T14:51:57Z</time>
      </trkpt>
      <trkpt lat="39.679074" lon="-0.321996">
        <ele>97.2</ele>
        <time>2012-08-20T14:52:01Z</time>
      </trkpt>
      <trkpt lat="39.679012" lon="-0.321933">
        <ele>97.2</ele>
        <time>2012-08-20T14:52:03Z</time>
      </trkpt>
      <trkpt lat="39.678940" lon="-0.321821">
        <ele>97.2</ele>
        <time>2012-08-20T14:52:06Z</time>
      </trkpt>
      <trkpt lat="39.678946" lon="-0.321779">
        <ele>97.2</ele>
        <time>2012-08-20T14:52:07Z</time>
      </trkpt>
      <trkpt lat="39.679008" lon="-0.321658">
        <ele>96.8</ele>
        <time>2012-08-20T14:52:12Z</time>
      </trkpt>
      <trkpt lat="39.679022" lon="-0.321627">
        <ele>96.4</ele>
        <time>2012-08-20T14:52:13Z</time>
      </trkpt>
      <trkpt lat="39.679039" lon="-0.321596">
        <ele>96.0</ele>
        <time>2012-08-20T14:52:14Z</time>
      </trkpt>
      <trkpt lat="39.679060" lon="-0.321564">
        <ele>95.4</ele>
        <time>2012-08-20T14:52:15Z</time>
      </trkpt>
      <trkpt lat="39.679080" lon="-0.321531">
        <ele>95.0</ele>
        <time>2012-08-20T14:52:16Z</time>
      </trkpt>
      <trkpt lat="39.679097" lon="-0.321503">
        <ele>95.0</ele>
        <time>2012-08-20T14:52:17Z</time>
      </trkpt>
      <trkpt lat="39.679135" lon="-0.321423">
        <ele>94.6</ele>
        <time>2012-08-20T14:52:21Z</time>
      </trkpt>
      <trkpt lat="39.679140" lon="-0.321411">
        <ele>94.2</ele>
        <time>2012-08-20T14:52:22Z</time>
      </trkpt>
      <trkpt lat="39.679145" lon="-0.321406">
        <ele>93.8</ele>
        <time>2012-08-20T14:52:23Z</time>
      </trkpt>
      <trkpt lat="39.679148" lon="-0.321403">
        <ele>93.4</ele>
        <time>2012-08-20T14:52:24Z</time>
      </trkpt>
      <trkpt lat="39.679148" lon="-0.321401">
        <ele>93.0</ele>
        <time>2012-08-20T14:52:25Z</time>
      </trkpt>
      <trkpt lat="39.679162" lon="-0.321217">
        <ele>93.4</ele>
        <time>2012-08-20T14:54:01Z</time>
      </trkpt>
      <trkpt lat="39.679187" lon="-0.321149">
        <ele>92.8</ele>
        <time>2012-08-20T14:54:02Z</time>
      </trkpt>
      <trkpt lat="39.679210" lon="-0.321086">
        <ele>92.4</ele>
        <time>2012-08-20T14:54:03Z</time>
      </trkpt>
      <trkpt lat="39.679232" lon="-0.321027">
        <ele>92.0</ele>
        <time>2012-08-20T14:54:04Z</time>
      </trkpt>
      <trkpt lat="39.679254" lon="-0.320974">
        <ele>91.6</ele>
        <time>2012-08-20T14:54:05Z</time>
      </trkpt>
      <trkpt lat="39.679276" lon="-0.320926">
        <ele>91.2</ele>
        <time>2012-08-20T14:54:06Z</time>
      </trkpt>
      <trkpt lat="39.679307" lon="-0.320740">
        <ele>91.2</ele>
        <time>2012-08-20T14:54:10Z</time>
      </trkpt>
      <trkpt lat="39.679201" lon="-0.320659">
        <ele>91.2</ele>
        <time>2012-08-20T14:54:13Z</time>
      </trkpt>
      <trkpt lat="39.679164" lon="-0.320633">
        <ele>91.2</ele>
        <time>2012-08-20T14:54:14Z</time>
      </trkpt>
      <trkpt lat="39.678982" lon="-0.320479">
        <ele>91.2</ele>
        <time>2012-08-20T14:54:19Z</time>
      </trkpt>
      <trkpt lat="39.678950" lon="-0.320450">
        <ele>91.2</ele>
        <time>2012-08-20T14:54:20Z</time>
      </trkpt>
      <trkpt lat="39.678781" lon="-0.320298">
        <ele>91.2</ele>
        <time>2012-08-20T14:54:26Z</time>
      </trkpt>
      <trkpt lat="39.678727" lon="-0.320235">
        <ele>90.8</ele>
        <time>2012-08-20T14:54:28Z</time>
      </trkpt>
      <trkpt lat="39.678695" lon="-0.320203">
        <ele>90.4</ele>
        <time>2012-08-20T14:54:29Z</time>
      </trkpt>
      <trkpt lat="39.678663" lon="-0.320171">
        <ele>89.8</ele>
        <time>2012-08-20T14:54:30Z</time>
      </trkpt>
      <trkpt lat="39.678628" lon="-0.320137">
        <ele>89.4</ele>
        <time>2012-08-20T14:54:31Z</time>
      </trkpt>
      <trkpt lat="39.678591" lon="-0.320104">
        <ele>89.0</ele>
        <time>2012-08-20T14:54:32Z</time>
      </trkpt>
      <trkpt lat="39.678555" lon="-0.320070">
        <ele>89.0</ele>
        <time>2012-08-20T14:54:33Z</time>
      </trkpt>
      <trkpt lat="39.678447" lon="-0.319963">
        <ele>89.0</ele>
        <time>2012-08-20T14:54:36Z</time>
      </trkpt>
      <trkpt lat="39.678341" lon="-0.319855">
        <ele>89.0</ele>
        <time>2012-08-20T14:54:39Z</time>
      </trkpt>
      <trkpt lat="39.678120" lon="-0.319637">
        <ele>89.0</ele>
        <time>2012-08-20T14:54:45Z</time>
      </trkpt>
      <trkpt lat="39.678031" lon="-0.319516">
        <ele>89.0</ele>
        <time>2012-08-20T14:54:48Z</time>
      </trkpt>
      <trkpt lat="39.677914" lon="-0.319340">
        <ele>89.0</ele>
        <time>2012-08-20T14:54:52Z</time>
      </trkpt>
      <trkpt lat="39.677800" lon="-0.319244">
        <ele>89.0</ele>
        <time>2012-08-20T14:54:55Z</time>
      </trkpt>
      <trkpt lat="39.677758" lon="-0.319218">
        <ele>89.0</ele>
        <time>2012-08-20T14:54:56Z</time>
      </trkpt>
      <trkpt lat="39.677603" lon="-0.319129">
        <ele>89.0</ele>
        <time>2012-08-20T14:55:00Z</time>
      </trkpt>
      <trkpt lat="39.677572" lon="-0.319098">
        <ele>89.0</ele>
        <time>2012-08-20T14:55:01Z</time>
      </trkpt>
      <trkpt lat="39.677456" lon="-0.318912">
        <ele>88.6</ele>
        <time>2012-08-20T14:55:05Z</time>
      </trkpt>
      <trkpt lat="39.677516" lon="-0.318886">
        <ele>87.0</ele>
        <time>2012-08-20T14:55:22Z</time>
      </trkpt>
      <trkpt lat="39.677607" lon="-0.318776">
        <ele>87.0</ele>
        <time>2012-08-20T14:55:27Z</time>
      </trkpt>
      <trkpt lat="39.677658" lon="-0.318663">
        <ele>87.0</ele>
        <time>2012-08-20T14:55:30Z</time>
      </trkpt>
      <trkpt lat="39.677668" lon="-0.318588">
        <ele>87.0</ele>
        <time>2012-08-20T14:55:32Z</time>
      </trkpt>
      <trkpt lat="39.677633" lon="-0.318447">
        <ele>87.0</ele>
        <time>2012-08-20T14:55:36Z</time>
      </trkpt>
      <trkpt lat="39.677563" lon="-0.318165">
        <ele>87.0</ele>
        <time>2012-08-20T14:55:43Z</time>
      </trkpt>
      <trkpt lat="39.677545" lon="-0.318067">
        <ele>87.0</ele>
        <time>2012-08-20T14:55:45Z</time>
      </trkpt>
      <trkpt lat="39.677544" lon="-0.317955">
        <ele>87.0</ele>
        <time>2012-08-20T14:55:47Z</time>
      </trkpt>
      <trkpt lat="39.677548" lon="-0.317901">
        <ele>87.0</ele>
        <time>2012-08-20T14:55:48Z</time>
      </trkpt>
      <trkpt lat="39.677547" lon="-0.317849">
        <ele>87.0</ele>
        <time>2012-08-20T14:55:49Z</time>
      </trkpt>
      <trkpt lat="39.677501" lon="-0.317655">
        <ele>87.0</ele>
        <time>2012-08-20T14:55:53Z</time>
      </trkpt>
      <trkpt lat="39.677445" lon="-0.317492">
        <ele>87.0</ele>
        <time>2012-08-20T14:55:56Z</time>
      </trkpt>
      <trkpt lat="39.677388" lon="-0.317334">
        <ele>87.0</ele>
        <time>2012-08-20T14:55:59Z</time>
      </trkpt>
      <trkpt lat="39.677347" lon="-0.317230">
        <ele>87.0</ele>
        <time>2012-08-20T14:56:01Z</time>
      </trkpt>
      <trkpt lat="39.677275" lon="-0.317031">
        <ele>87.0</ele>
        <time>2012-08-20T14:56:05Z</time>
      </trkpt>
      <trkpt lat="39.677220" lon="-0.316762">
        <ele>87.0</ele>
        <time>2012-08-20T14:56:10Z</time>
      </trkpt>
      <trkpt lat="39.677228" lon="-0.316709">
        <ele>86.0</ele>
        <time>2012-08-20T14:56:11Z</time>
      </trkpt>
      <trkpt lat="39.677247" lon="-0.316667">
        <ele>85.6</ele>
        <time>2012-08-20T14:56:12Z</time>
      </trkpt>
      <trkpt lat="39.677272" lon="-0.316626">
        <ele>85.2</ele>
        <time>2012-08-20T14:56:13Z</time>
      </trkpt>
      <trkpt lat="39.677293" lon="-0.316581">
        <ele>84.6</ele>
        <time>2012-08-20T14:56:14Z</time>
      </trkpt>
      <trkpt lat="39.677302" lon="-0.316532">
        <ele>84.6</ele>
        <time>2012-08-20T14:56:15Z</time>
      </trkpt>
      <trkpt lat="39.677250" lon="-0.316333">
        <ele>84.6</ele>
        <time>2012-08-20T14:56:19Z</time>
      </trkpt>
      <trkpt lat="39.677226" lon="-0.316288">
        <ele>84.6</ele>
        <time>2012-08-20T14:56:20Z</time>
      </trkpt>
      <trkpt lat="39.677178" lon="-0.316211">
        <ele>84.6</ele>
        <time>2012-08-20T14:56:22Z</time>
      </trkpt>
      <trkpt lat="39.677207" lon="-0.316232">
        <ele>84.6</ele>
        <time>2012-08-20T14:57:02Z</time>
      </trkpt>
      <trkpt lat="39.677261" lon="-0.316185">
        <ele>84.6</ele>
        <time>2012-08-20T14:57:04Z</time>
      </trkpt>
      <trkpt lat="39.677316" lon="-0.316114">
        <ele>84.2</ele>
        <time>2012-08-20T14:57:06Z</time>
      </trkpt>
      <trkpt lat="39.677343" lon="-0.316080">
        <ele>83.8</ele>
        <time>2012-08-20T14:57:07Z</time>
      </trkpt>
      <trkpt lat="39.677372" lon="-0.316048">
        <ele>83.4</ele>
        <time>2012-08-20T14:57:08Z</time>
      </trkpt>
      <trkpt lat="39.677401" lon="-0.316018">
        <ele>83.0</ele>
        <time>2012-08-20T14:57:09Z</time>
      </trkpt>
      <trkpt lat="39.677428" lon="-0.315987">
        <ele>82.6</ele>
        <time>2012-08-20T14:57:10Z</time>
      </trkpt>
      <trkpt lat="39.677455" lon="-0.315954">
        <ele>82.6</ele>
        <time>2012-08-20T14:57:11Z</time>
      </trkpt>
      <trkpt lat="39.677498" lon="-0.315778">
        <ele>82.6</ele>
        <time>2012-08-20T14:57:15Z</time>
      </trkpt>
      <trkpt lat="39.677452" lon="-0.315537">
        <ele>82.6</ele>
        <time>2012-08-20T14:57:20Z</time>
      </trkpt>
      <trkpt lat="39.677497" lon="-0.315364">
        <ele>82.6</ele>
        <time>2012-08-20T14:57:24Z</time>
      </trkpt>
      <trkpt lat="39.677527" lon="-0.315224">
        <ele>82.6</ele>
        <time>2012-08-20T14:57:27Z</time>
      </trkpt>
      <trkpt lat="39.677530" lon="-0.315118">
        <ele>82.6</ele>
        <time>2012-08-20T14:57:29Z</time>
      </trkpt>
      <trkpt lat="39.677522" lon="-0.314678">
        <ele>82.6</ele>
        <time>2012-08-20T14:57:36Z</time>
      </trkpt>
      <trkpt lat="39.677503" lon="-0.314235">
        <ele>82.6</ele>
        <time>2012-08-20T14:57:43Z</time>
      </trkpt>
      <trkpt lat="39.677552" lon="-0.314012">
        <ele>82.6</ele>
        <time>2012-08-20T14:57:47Z</time>
      </trkpt>
      <trkpt lat="39.677552" lon="-0.313890">
        <ele>82.6</ele>
        <time>2012-08-20T14:57:49Z</time>
      </trkpt>
      <trkpt lat="39.677548" lon="-0.313447">
        <ele>82.6</ele>
        <time>2012-08-20T14:57:56Z</time>
      </trkpt>
      <trkpt lat="39.677541" lon="-0.313386">
        <ele>82.6</ele>
        <time>2012-08-20T14:57:57Z</time>
      </trkpt>
      <trkpt lat="39.677514" lon="-0.313282">
        <ele>82.2</ele>
        <time>2012-08-20T14:58:00Z</time>
      </trkpt>
      <trkpt lat="39.677515" lon="-0.313272">
        <ele>81.8</ele>
        <time>2012-08-20T14:58:01Z</time>
      </trkpt>
      <trkpt lat="39.677510" lon="-0.313173">
        <ele>80.6</ele>
        <time>2012-08-20T14:58:04Z</time>
      </trkpt>
      <trkpt lat="39.677497" lon="-0.313124">
        <ele>80.6</ele>
        <time>2012-08-20T14:58:05Z</time>
      </trkpt>
      <trkpt lat="39.677388" lon="-0.312745">
        <ele>80.6</ele>
        <time>2012-08-20T14:58:12Z</time>
      </trkpt>
      <trkpt lat="39.677365" lon="-0.312702">
        <ele>80.6</ele>
        <time>2012-08-20T14:58:13Z</time>
      </trkpt>
      <trkpt lat="39.677345" lon="-0.312670">
        <ele>80.2</ele>
        <time>2012-08-20T14:58:14Z</time>
      </trkpt>
      <trkpt lat="39.677326" lon="-0.312635">
        <ele>79.8</ele>
        <time>2012-08-20T14:58:15Z</time>
      </trkpt>
      <trkpt lat="39.677309" lon="-0.312593">
        <ele>79.4</ele>
        <time>2012-08-20T14:58:16Z</time>
      </trkpt>
      <trkpt lat="39.677300" lon="-0.312556">
        <ele>79.0</ele>
        <time>2012-08-20T14:58:17Z</time>
      </trkpt>
      <trkpt lat="39.677294" lon="-0.312525">
        <ele>78.6</ele>
        <time>2012-08-20T14:58:18Z</time>
      </trkpt>
      <trkpt lat="39.677293" lon="-0.312488">
        <ele>78.6</ele>
        <time>2012-08-20T14:58:20Z</time>
      </trkpt>
      <trkpt lat="39.677347" lon="-0.312423">
        <ele>78.2</ele>
        <time>2012-08-20T14:58:24Z</time>
      </trkpt>
      <trkpt lat="39.677360" lon="-0.312415">
        <ele>77.6</ele>
        <time>2012-08-20T14:58:25Z</time>
      </trkpt>
      <trkpt lat="39.677370" lon="-0.312406">
        <ele>77.2</ele>
        <time>2012-08-20T14:58:26Z</time>
      </trkpt>
      <trkpt lat="39.677383" lon="-0.312394">
        <ele>76.8</ele>
        <time>2012-08-20T14:58:27Z</time>
      </trkpt>
      <trkpt lat="39.677395" lon="-0.312380">
        <ele>76.4</ele>
        <time>2012-08-20T14:58:28Z</time>
      </trkpt>
      <trkpt lat="39.677400" lon="-0.312376">
        <ele>76.4</ele>
        <time>2012-08-20T14:58:29Z</time>
      </trkpt>
      <trkpt lat="39.677398" lon="-0.312377">
        <ele>76.4</ele>
        <time>2012-08-20T14:58:30Z</time>
      </trkpt>
      <trkpt lat="39.677399" lon="-0.312377">
        <ele>76.4</ele>
        <time>2012-08-20T14:58:31Z</time>
      </trkpt>
      <trkpt lat="39.677389" lon="-0.312318">
        <ele>76.4</ele>
        <time>2012-08-20T14:58:38Z</time>
      </trkpt>
      <trkpt lat="39.677398" lon="-0.312262">
        <ele>76.4</ele>
        <time>2012-08-20T14:58:41Z</time>
      </trkpt>
      <trkpt lat="39.677421" lon="-0.312136">
        <ele>76.4</ele>
        <time>2012-08-20T14:58:48Z</time>
      </trkpt>
      <trkpt lat="39.677403" lon="-0.312020">
        <ele>76.4</ele>
        <time>2012-08-20T14:58:55Z</time>
      </trkpt>
      <trkpt lat="39.677398" lon="-0.311909">
        <ele>76.4</ele>
        <time>2012-08-20T14:59:02Z</time>
      </trkpt>
      <trkpt lat="39.677392" lon="-0.311835">
        <ele>76.4</ele>
        <time>2012-08-20T14:59:09Z</time>
      </trkpt>
      <trkpt lat="39.677383" lon="-0.311688">
        <ele>76.4</ele>
        <time>2012-08-20T14:59:17Z</time>
      </trkpt>
      <trkpt lat="39.677388" lon="-0.311636">
        <ele>76.4</ele>
        <time>2012-08-20T14:59:21Z</time>
      </trkpt>
      <trkpt lat="39.677388" lon="-0.311636">
        <ele>76.4</ele>
        <time>2012-08-20T14:59:23Z</time>
      </trkpt>
      <trkpt lat="39.677379" lon="-0.311558">
        <ele>76.4</ele>
        <time>2012-08-20T14:59:38Z</time>
      </trkpt>
      <trkpt lat="39.677373" lon="-0.311487">
        <ele>76.4</ele>
        <time>2012-08-20T14:59:40Z</time>
      </trkpt>
      <trkpt lat="39.677361" lon="-0.311285">
        <ele>76.4</ele>
        <time>2012-08-20T14:59:45Z</time>
      </trkpt>
      <trkpt lat="39.677367" lon="-0.311181">
        <ele>76.8</ele>
        <time>2012-08-20T14:59:48Z</time>
      </trkpt>
      <trkpt lat="39.677368" lon="-0.311172">
        <ele>77.4</ele>
        <time>2012-08-20T14:59:49Z</time>
      </trkpt>
      <trkpt lat="39.677370" lon="-0.311171">
        <ele>77.8</ele>
        <time>2012-08-20T14:59:50Z</time>
      </trkpt>
      <trkpt lat="39.677372" lon="-0.311170">
        <ele>78.2</ele>
        <time>2012-08-20T14:59:51Z</time>
      </trkpt>
      <trkpt lat="39.677391" lon="-0.311115">
        <ele>78.6</ele>
        <time>2012-08-20T14:59:57Z</time>
      </trkpt>
      <trkpt lat="39.677396" lon="-0.311069">
        <ele>78.6</ele>
        <time>2012-08-20T15:00:00Z</time>
      </trkpt>
      <trkpt lat="39.677397" lon="-0.311053">
        <ele>78.6</ele>
        <time>2012-08-20T15:00:01Z</time>
      </trkpt>
      <trkpt lat="39.677410" lon="-0.310924">
        <ele>78.6</ele>
        <time>2012-08-20T15:00:09Z</time>
      </trkpt>
      <trkpt lat="39.677436" lon="-0.310815">
        <ele>78.6</ele>
        <time>2012-08-20T15:00:17Z</time>
      </trkpt>
      <trkpt lat="39.677437" lon="-0.310808">
        <ele>78.6</ele>
        <time>2012-08-20T15:00:18Z</time>
      </trkpt>
      <trkpt lat="39.677441" lon="-0.310810">
        <ele>78.6</ele>
        <time>2012-08-20T15:00:22Z</time>
      </trkpt>
      <trkpt lat="39.677440" lon="-0.310810">
        <ele>78.6</ele>
        <time>2012-08-20T15:00:23Z</time>
      </trkpt>
      <trkpt lat="39.677435" lon="-0.310713">
        <ele>80.8</ele>
        <time>2012-08-20T15:00:42Z</time>
      </trkpt>
      <trkpt lat="39.677438" lon="-0.310679">
        <ele>80.8</ele>
        <time>2012-08-20T15:00:43Z</time>
      </trkpt>
      <trkpt lat="39.677489" lon="-0.310434">
        <ele>80.8</ele>
        <time>2012-08-20T15:00:50Z</time>
      </trkpt>
      <trkpt lat="39.677542" lon="-0.310177">
        <ele>80.8</ele>
        <time>2012-08-20T15:00:56Z</time>
      </trkpt>
      <trkpt lat="39.677631" lon="-0.309874">
        <ele>80.8</ele>
        <time>2012-08-20T15:01:03Z</time>
      </trkpt>
      <trkpt lat="39.677735" lon="-0.309708">
        <ele>80.8</ele>
        <time>2012-08-20T15:01:08Z</time>
      </trkpt>
      <trkpt lat="39.677814" lon="-0.309490">
        <ele>80.4</ele>
        <time>2012-08-20T15:01:13Z</time>
      </trkpt>
      <trkpt lat="39.677822" lon="-0.309441">
        <ele>80.0</ele>
        <time>2012-08-20T15:01:14Z</time>
      </trkpt>
      <trkpt lat="39.677829" lon="-0.309395">
        <ele>79.6</ele>
        <time>2012-08-20T15:01:15Z</time>
      </trkpt>
      <trkpt lat="39.677833" lon="-0.309348">
        <ele>79.2</ele>
        <time>2012-08-20T15:01:16Z</time>
      </trkpt>
      <trkpt lat="39.677839" lon="-0.309302">
        <ele>78.8</ele>
        <time>2012-08-20T15:01:17Z</time>
      </trkpt>
      <trkpt lat="39.677868" lon="-0.309159">
        <ele>78.8</ele>
        <time>2012-08-20T15:01:20Z</time>
      </trkpt>
      <trkpt lat="39.677915" lon="-0.308883">
        <ele>78.8</ele>
        <time>2012-08-20T15:01:26Z</time>
      </trkpt>
      <trkpt lat="39.677921" lon="-0.308656">
        <ele>78.8</ele>
        <time>2012-08-20T15:01:31Z</time>
      </trkpt>
      <trkpt lat="39.677931" lon="-0.308457">
        <ele>78.8</ele>
        <time>2012-08-20T15:01:35Z</time>
      </trkpt>
      <trkpt lat="39.677971" lon="-0.308050">
        <ele>78.8</ele>
        <time>2012-08-20T15:01:43Z</time>
      </trkpt>
      <trkpt lat="39.677997" lon="-0.307699">
        <ele>78.8</ele>
        <time>2012-08-20T15:01:50Z</time>
      </trkpt>
      <trkpt lat="39.678003" lon="-0.307598">
        <ele>78.8</ele>
        <time>2012-08-20T15:01:52Z</time>
      </trkpt>
      <trkpt lat="39.678002" lon="-0.307342">
        <ele>78.8</ele>
        <time>2012-08-20T15:01:57Z</time>
      </trkpt>
      <trkpt lat="39.678040" lon="-0.307045">
        <ele>78.8</ele>
        <time>2012-08-20T15:02:03Z</time>
      </trkpt>
      <trkpt lat="39.678063" lon="-0.306905">
        <ele>78.2</ele>
        <time>2012-08-20T15:02:06Z</time>
      </trkpt>
      <trkpt lat="39.678074" lon="-0.306861">
        <ele>77.8</ele>
        <time>2012-08-20T15:02:07Z</time>
      </trkpt>
      <trkpt lat="39.678085" lon="-0.306817">
        <ele>77.4</ele>
        <time>2012-08-20T15:02:08Z</time>
      </trkpt>
      <trkpt lat="39.678088" lon="-0.306774">
        <ele>77.0</ele>
        <time>2012-08-20T15:02:09Z</time>
      </trkpt>
      <trkpt lat="39.678092" lon="-0.306731">
        <ele>76.6</ele>
        <time>2012-08-20T15:02:10Z</time>
      </trkpt>
      <trkpt lat="39.678128" lon="-0.306482">
        <ele>76.6</ele>
        <time>2012-08-20T15:02:16Z</time>
      </trkpt>
      <trkpt lat="39.678121" lon="-0.306292">
        <ele>76.6</ele>
        <time>2012-08-20T15:02:22Z</time>
      </trkpt>
      <trkpt lat="39.678023" lon="-0.306176">
        <ele>76.6</ele>
        <time>2012-08-20T15:02:27Z</time>
      </trkpt>
      <trkpt lat="39.677861" lon="-0.306074">
        <ele>76.6</ele>
        <time>2012-08-20T15:02:34Z</time>
      </trkpt>
      <trkpt lat="39.677728" lon="-0.306062">
        <ele>76.6</ele>
        <time>2012-08-20T15:02:38Z</time>
      </trkpt>
      <trkpt lat="39.677691" lon="-0.306043">
        <ele>76.6</ele>
        <time>2012-08-20T15:02:39Z</time>
      </trkpt>
      <trkpt lat="39.677598" lon="-0.305944">
        <ele>76.6</ele>
        <time>2012-08-20T15:02:42Z</time>
      </trkpt>
      <trkpt lat="39.677579" lon="-0.305899">
        <ele>76.6</ele>
        <time>2012-08-20T15:02:43Z</time>
      </trkpt>
      <trkpt lat="39.677581" lon="-0.305690">
        <ele>76.6</ele>
        <time>2012-08-20T15:02:47Z</time>
      </trkpt>
      <trkpt lat="39.677674" lon="-0.305510">
        <ele>76.6</ele>
        <time>2012-08-20T15:02:51Z</time>
      </trkpt>
      <trkpt lat="39.677700" lon="-0.305464">
        <ele>76.6</ele>
        <time>2012-08-20T15:02:52Z</time>
      </trkpt>
      <trkpt lat="39.677802" lon="-0.305152">
        <ele>76.6</ele>
        <time>2012-08-20T15:02:57Z</time>
      </trkpt>
      <trkpt lat="39.677878" lon="-0.304633">
        <ele>76.6</ele>
        <time>2012-08-20T15:03:04Z</time>
      </trkpt>
      <trkpt lat="39.677939" lon="-0.304019">
        <ele>76.6</ele>
        <time>2012-08-20T15:03:12Z</time>
      </trkpt>
      <trkpt lat="39.677915" lon="-0.303489">
        <ele>76.6</ele>
        <time>2012-08-20T15:03:19Z</time>
      </trkpt>
      <trkpt lat="39.677837" lon="-0.303222">
        <ele>76.6</ele>
        <time>2012-08-20T15:03:23Z</time>
      </trkpt>
      <trkpt lat="39.677766" lon="-0.303116">
        <ele>76.6</ele>
        <time>2012-08-20T15:03:25Z</time>
      </trkpt>
      <trkpt lat="39.677632" lon="-0.303032">
        <ele>76.6</ele>
        <time>2012-08-20T15:03:28Z</time>
      </trkpt>
      <trkpt lat="39.677587" lon="-0.303003">
        <ele>76.6</ele>
        <time>2012-08-20T15:03:29Z</time>
      </trkpt>
      <trkpt lat="39.677496" lon="-0.302849">
        <ele>76.2</ele>
        <time>2012-08-20T15:03:32Z</time>
      </trkpt>
      <trkpt lat="39.677490" lon="-0.302781">
        <ele>75.8</ele>
        <time>2012-08-20T15:03:33Z</time>
      </trkpt>
      <trkpt lat="39.677499" lon="-0.302719">
        <ele>75.4</ele>
        <time>2012-08-20T15:03:34Z</time>
      </trkpt>
      <trkpt lat="39.677521" lon="-0.302661">
        <ele>74.6</ele>
        <time>2012-08-20T15:03:35Z</time>
      </trkpt>
      <trkpt lat="39.677595" lon="-0.302388">
        <ele>74.6</ele>
        <time>2012-08-20T15:03:40Z</time>
      </trkpt>
      <trkpt lat="39.677545" lon="-0.302267">
        <ele>74.6</ele>
        <time>2012-08-20T15:03:44Z</time>
      </trkpt>
      <trkpt lat="39.677474" lon="-0.302175">
        <ele>72.4</ele>
        <time>2012-08-20T15:05:55Z</time>
      </trkpt>
      <trkpt lat="39.677408" lon="-0.302050">
        <ele>72.4</ele>
        <time>2012-08-20T15:05:57Z</time>
      </trkpt>
      <trkpt lat="39.677338" lon="-0.301930">
        <ele>72.4</ele>
        <time>2012-08-20T15:05:59Z</time>
      </trkpt>
      <trkpt lat="39.677271" lon="-0.301812">
        <ele>72.8</ele>
        <time>2012-08-20T15:06:01Z</time>
      </trkpt>
      <trkpt lat="39.677238" lon="-0.301755">
        <ele>73.4</ele>
        <time>2012-08-20T15:06:02Z</time>
      </trkpt>
      <trkpt lat="39.677205" lon="-0.301698">
        <ele>73.8</ele>
        <time>2012-08-20T15:06:03Z</time>
      </trkpt>
      <trkpt lat="39.677173" lon="-0.301642">
        <ele>74.2</ele>
        <time>2012-08-20T15:06:04Z</time>
      </trkpt>
      <trkpt lat="39.677142" lon="-0.301590">
        <ele>74.6</ele>
        <time>2012-08-20T15:06:05Z</time>
      </trkpt>
      <trkpt lat="39.677112" lon="-0.301539">
        <ele>74.6</ele>
        <time>2012-08-20T15:06:06Z</time>
      </trkpt>
      <trkpt lat="39.677056" lon="-0.301432">
        <ele>75.0</ele>
        <time>2012-08-20T15:06:08Z</time>
      </trkpt>
      <trkpt lat="39.677034" lon="-0.301379">
        <ele>75.4</ele>
        <time>2012-08-20T15:06:09Z</time>
      </trkpt>
      <trkpt lat="39.677014" lon="-0.301323">
        <ele>75.8</ele>
        <time>2012-08-20T15:06:10Z</time>
      </trkpt>
      <trkpt lat="39.676995" lon="-0.301266">
        <ele>76.2</ele>
        <time>2012-08-20T15:06:11Z</time>
      </trkpt>
      <trkpt lat="39.676979" lon="-0.301209">
        <ele>76.6</ele>
        <time>2012-08-20T15:06:12Z</time>
      </trkpt>
      <trkpt lat="39.676952" lon="-0.301100">
        <ele>76.6</ele>
        <time>2012-08-20T15:06:14Z</time>
      </trkpt>
      <trkpt lat="39.676917" lon="-0.300947">
        <ele>77.2</ele>
        <time>2012-08-20T15:06:17Z</time>
      </trkpt>
      <trkpt lat="39.676906" lon="-0.300899">
        <ele>77.6</ele>
        <time>2012-08-20T15:06:18Z</time>
      </trkpt>
      <trkpt lat="39.676897" lon="-0.300851">
        <ele>78.0</ele>
        <time>2012-08-20T15:06:19Z</time>
      </trkpt>
      <trkpt lat="39.676886" lon="-0.300804">
        <ele>78.4</ele>
        <time>2012-08-20T15:06:20Z</time>
      </trkpt>
      <trkpt lat="39.676877" lon="-0.300755">
        <ele>78.8</ele>
        <time>2012-08-20T15:06:21Z</time>
      </trkpt>
      <trkpt lat="39.676819" lon="-0.300430">
        <ele>78.8</ele>
        <time>2012-08-20T15:06:27Z</time>
      </trkpt>
      <trkpt lat="39.676728" lon="-0.299962">
        <ele>78.8</ele>
        <time>2012-08-20T15:06:34Z</time>
      </trkpt>
      <trkpt lat="39.676697" lon="-0.299790">
        <ele>78.2</ele>
        <time>2012-08-20T15:06:36Z</time>
      </trkpt>
      <trkpt lat="39.676678" lon="-0.299700">
        <ele>77.8</ele>
        <time>2012-08-20T15:06:37Z</time>
      </trkpt>
      <trkpt lat="39.676661" lon="-0.299601">
        <ele>77.4</ele>
        <time>2012-08-20T15:06:38Z</time>
      </trkpt>
      <trkpt lat="39.676643" lon="-0.299507">
        <ele>76.8</ele>
        <time>2012-08-20T15:06:39Z</time>
      </trkpt>
      <trkpt lat="39.676624" lon="-0.299410">
        <ele>76.4</ele>
        <time>2012-08-20T15:06:40Z</time>
      </trkpt>
      <trkpt lat="39.676607" lon="-0.299309">
        <ele>76.0</ele>
        <time>2012-08-20T15:06:41Z</time>
      </trkpt>
      <trkpt lat="39.676589" lon="-0.299205">
        <ele>75.4</ele>
        <time>2012-08-20T15:06:42Z</time>
      </trkpt>
      <trkpt lat="39.676570" lon="-0.299099">
        <ele>75.0</ele>
        <time>2012-08-20T15:06:43Z</time>
      </trkpt>
      <trkpt lat="39.676551" lon="-0.298992">
        <ele>74.6</ele>
        <time>2012-08-20T15:06:44Z</time>
      </trkpt>
      <trkpt lat="39.676532" lon="-0.298881">
        <ele>74.0</ele>
        <time>2012-08-20T15:06:45Z</time>
      </trkpt>
      <trkpt lat="39.676509" lon="-0.298765">
        <ele>73.6</ele>
        <time>2012-08-20T15:06:46Z</time>
      </trkpt>
      <trkpt lat="39.676487" lon="-0.298652">
        <ele>73.0</ele>
        <time>2012-08-20T15:06:47Z</time>
      </trkpt>
      <trkpt lat="39.676468" lon="-0.298543">
        <ele>72.6</ele>
        <time>2012-08-20T15:06:48Z</time>
      </trkpt>
      <trkpt lat="39.676450" lon="-0.298437">
        <ele>72.0</ele>
        <time>2012-08-20T15:06:49Z</time>
      </trkpt>
      <trkpt lat="39.676431" lon="-0.298334">
        <ele>71.6</ele>
        <time>2012-08-20T15:06:50Z</time>
      </trkpt>
      <trkpt lat="39.676412" lon="-0.298233">
        <ele>71.2</ele>
        <time>2012-08-20T15:06:51Z</time>
      </trkpt>
      <trkpt lat="39.676392" lon="-0.298134">
        <ele>70.8</ele>
        <time>2012-08-20T15:06:52Z</time>
      </trkpt>
      <trkpt lat="39.676374" lon="-0.298035">
        <ele>70.4</ele>
        <time>2012-08-20T15:06:53Z</time>
      </trkpt>
      <trkpt lat="39.676357" lon="-0.297935">
        <ele>69.8</ele>
        <time>2012-08-20T15:06:54Z</time>
      </trkpt>
      <trkpt lat="39.676296" lon="-0.297388">
        <ele>69.8</ele>
        <time>2012-08-20T15:07:00Z</time>
      </trkpt>
      <trkpt lat="39.676275" lon="-0.296922">
        <ele>69.8</ele>
        <time>2012-08-20T15:07:06Z</time>
      </trkpt>
      <trkpt lat="39.676280" lon="-0.296853">
        <ele>69.8</ele>
        <time>2012-08-20T15:07:07Z</time>
      </trkpt>
      <trkpt lat="39.676311" lon="-0.296601">
        <ele>69.8</ele>
        <time>2012-08-20T15:07:11Z</time>
      </trkpt>
      <trkpt lat="39.676377" lon="-0.296298">
        <ele>69.8</ele>
        <time>2012-08-20T15:07:16Z</time>
      </trkpt>
      <trkpt lat="39.676399" lon="-0.296236">
        <ele>69.8</ele>
        <time>2012-08-20T15:07:17Z</time>
      </trkpt>
      <trkpt lat="39.676552" lon="-0.295747">
        <ele>69.8</ele>
        <time>2012-08-20T15:07:25Z</time>
      </trkpt>
      <trkpt lat="39.676725" lon="-0.295218">
        <ele>69.8</ele>
        <time>2012-08-20T15:07:33Z</time>
      </trkpt>
      <trkpt lat="39.676743" lon="-0.295151">
        <ele>69.8</ele>
        <time>2012-08-20T15:07:34Z</time>
      </trkpt>
      <trkpt lat="39.676960" lon="-0.294584">
        <ele>69.8</ele>
        <time>2012-08-20T15:07:43Z</time>
      </trkpt>
      <trkpt lat="39.677210" lon="-0.294112">
        <ele>69.8</ele>
        <time>2012-08-20T15:07:51Z</time>
      </trkpt>
      <trkpt lat="39.677477" lon="-0.293670">
        <ele>69.8</ele>
        <time>2012-08-20T15:07:59Z</time>
      </trkpt>
      <trkpt lat="39.677676" lon="-0.293334">
        <ele>69.4</ele>
        <time>2012-08-20T15:08:05Z</time>
      </trkpt>
      <trkpt lat="39.677710" lon="-0.293278">
        <ele>69.0</ele>
        <time>2012-08-20T15:08:06Z</time>
      </trkpt>
      <trkpt lat="39.677742" lon="-0.293225">
        <ele>68.6</ele>
        <time>2012-08-20T15:08:07Z</time>
      </trkpt>
      <trkpt lat="39.677773" lon="-0.293172">
        <ele>67.8</ele>
        <time>2012-08-20T15:08:08Z</time>
      </trkpt>
      <trkpt lat="39.677970" lon="-0.292861">
        <ele>67.8</ele>
        <time>2012-08-20T15:08:15Z</time>
      </trkpt>
      <trkpt lat="39.678168" lon="-0.292490">
        <ele>67.8</ele>
        <time>2012-08-20T15:08:21Z</time>
      </trkpt>
      <trkpt lat="39.678212" lon="-0.292369">
        <ele>67.4</ele>
        <time>2012-08-20T15:08:23Z</time>
      </trkpt>
      <trkpt lat="39.678232" lon="-0.292298">
        <ele>67.0</ele>
        <time>2012-08-20T15:08:24Z</time>
      </trkpt>
      <trkpt lat="39.678245" lon="-0.292232">
        <ele>66.6</ele>
        <time>2012-08-20T15:08:25Z</time>
      </trkpt>
      <trkpt lat="39.678262" lon="-0.292164">
        <ele>66.0</ele>
        <time>2012-08-20T15:08:26Z</time>
      </trkpt>
      <trkpt lat="39.678274" lon="-0.292092">
        <ele>65.6</ele>
        <time>2012-08-20T15:08:27Z</time>
      </trkpt>
      <trkpt lat="39.678288" lon="-0.292018">
        <ele>65.6</ele>
        <time>2012-08-20T15:08:28Z</time>
      </trkpt>
      <trkpt lat="39.678397" lon="-0.291350">
        <ele>65.6</ele>
        <time>2012-08-20T15:08:37Z</time>
      </trkpt>
      <trkpt lat="39.678492" lon="-0.290836">
        <ele>65.6</ele>
        <time>2012-08-20T15:08:44Z</time>
      </trkpt>
      <trkpt lat="39.678655" lon="-0.290249">
        <ele>65.6</ele>
        <time>2012-08-20T15:08:52Z</time>
      </trkpt>
      <trkpt lat="39.678848" lon="-0.289683">
        <ele>65.6</ele>
        <time>2012-08-20T15:09:00Z</time>
      </trkpt>
      <trkpt lat="39.679024" lon="-0.289210">
        <ele>65.6</ele>
        <time>2012-08-20T15:09:07Z</time>
      </trkpt>
      <trkpt lat="39.679264" lon="-0.288674">
        <ele>65.6</ele>
        <time>2012-08-20T15:09:15Z</time>
      </trkpt>
      <trkpt lat="39.679535" lon="-0.288255">
        <ele>65.6</ele>
        <time>2012-08-20T15:09:22Z</time>
      </trkpt>
      <trkpt lat="39.679764" lon="-0.287920">
        <ele>65.6</ele>
        <time>2012-08-20T15:09:28Z</time>
      </trkpt>
      <trkpt lat="39.679909" lon="-0.287683">
        <ele>65.6</ele>
        <time>2012-08-20T15:09:32Z</time>
      </trkpt>
      <trkpt lat="39.680001" lon="-0.287501">
        <ele>65.6</ele>
        <time>2012-08-20T15:09:35Z</time>
      </trkpt>
      <trkpt lat="39.680086" lon="-0.287310">
        <ele>65.6</ele>
        <time>2012-08-20T15:09:38Z</time>
      </trkpt>
      <trkpt lat="39.680160" lon="-0.287123">
        <ele>65.6</ele>
        <time>2012-08-20T15:09:41Z</time>
      </trkpt>
      <trkpt lat="39.680188" lon="-0.287067">
        <ele>65.6</ele>
        <time>2012-08-20T15:09:42Z</time>
      </trkpt>
      <trkpt lat="39.680210" lon="-0.287008">
        <ele>65.6</ele>
        <time>2012-08-20T15:09:43Z</time>
      </trkpt>
      <trkpt lat="39.680263" lon="-0.286752">
        <ele>65.6</ele>
        <time>2012-08-20T15:09:47Z</time>
      </trkpt>
      <trkpt lat="39.680318" lon="-0.286554">
        <ele>65.6</ele>
        <time>2012-08-20T15:09:51Z</time>
      </trkpt>
      <trkpt lat="39.680347" lon="-0.286527">
        <ele>65.6</ele>
        <time>2012-08-20T15:09:52Z</time>
      </trkpt>
      <trkpt lat="39.680450" lon="-0.286369">
        <ele>65.6</ele>
        <time>2012-08-20T15:09:57Z</time>
      </trkpt>
      <trkpt lat="39.680507" lon="-0.286139">
        <ele>65.6</ele>
        <time>2012-08-20T15:10:02Z</time>
      </trkpt>
      <trkpt lat="39.680518" lon="-0.286085">
        <ele>65.6</ele>
        <time>2012-08-20T15:10:03Z</time>
      </trkpt>
      <trkpt lat="39.680567" lon="-0.285846">
        <ele>65.2</ele>
        <time>2012-08-20T15:10:07Z</time>
      </trkpt>
      <trkpt lat="39.680578" lon="-0.285789">
        <ele>64.8</ele>
        <time>2012-08-20T15:10:08Z</time>
      </trkpt>
      <trkpt lat="39.680586" lon="-0.285726">
        <ele>64.2</ele>
        <time>2012-08-20T15:10:09Z</time>
      </trkpt>
      <trkpt lat="39.680594" lon="-0.285663">
        <ele>63.8</ele>
        <time>2012-08-20T15:10:10Z</time>
      </trkpt>
      <trkpt lat="39.680605" lon="-0.285598">
        <ele>63.4</ele>
        <time>2012-08-20T15:10:11Z</time>
      </trkpt>
      <trkpt lat="39.680692" lon="-0.285234">
        <ele>63.4</ele>
        <time>2012-08-20T15:10:17Z</time>
      </trkpt>
      <trkpt lat="39.680768" lon="-0.284813">
        <ele>63.4</ele>
        <time>2012-08-20T15:10:24Z</time>
      </trkpt>
      <trkpt lat="39.680807" lon="-0.284430">
        <ele>63.4</ele>
        <time>2012-08-20T15:10:30Z</time>
      </trkpt>
      <trkpt lat="39.680818" lon="-0.284225">
        <ele>63.4</ele>
        <time>2012-08-20T15:10:33Z</time>
      </trkpt>
      <trkpt lat="39.680849" lon="-0.283962">
        <ele>63.4</ele>
        <time>2012-08-20T15:10:37Z</time>
      </trkpt>
      <trkpt lat="39.680947" lon="-0.283360">
        <ele>63.4</ele>
        <time>2012-08-20T15:10:46Z</time>
      </trkpt>
      <trkpt lat="39.680996" lon="-0.283030">
        <ele>63.4</ele>
        <time>2012-08-20T15:10:51Z</time>
      </trkpt>
      <trkpt lat="39.681003" lon="-0.282966">
        <ele>63.4</ele>
        <time>2012-08-20T15:10:52Z</time>
      </trkpt>
      <trkpt lat="39.681021" lon="-0.282803">
        <ele>63.4</ele>
        <time>2012-08-20T15:10:55Z</time>
      </trkpt>
      <trkpt lat="39.681017" lon="-0.282697">
        <ele>63.4</ele>
        <time>2012-08-20T15:10:57Z</time>
      </trkpt>
      <trkpt lat="39.681051" lon="-0.282309">
        <ele>63.4</ele>
        <time>2012-08-20T15:11:05Z</time>
      </trkpt>
      <trkpt lat="39.681046" lon="-0.282211">
        <ele>63.4</ele>
        <time>2012-08-20T15:11:07Z</time>
      </trkpt>
      <trkpt lat="39.681015" lon="-0.282039">
        <ele>63.4</ele>
        <time>2012-08-20T15:11:10Z</time>
      </trkpt>
      <trkpt lat="39.680902" lon="-0.281512">
        <ele>63.4</ele>
        <time>2012-08-20T15:11:18Z</time>
      </trkpt>
      <trkpt lat="39.680825" lon="-0.281127">
        <ele>63.0</ele>
        <time>2012-08-20T15:11:23Z</time>
      </trkpt>
      <trkpt lat="39.680810" lon="-0.281051">
        <ele>62.6</ele>
        <time>2012-08-20T15:11:24Z</time>
      </trkpt>
      <trkpt lat="39.680793" lon="-0.280971">
        <ele>62.2</ele>
        <time>2012-08-20T15:11:25Z</time>
      </trkpt>
      <trkpt lat="39.680774" lon="-0.280895">
        <ele>61.8</ele>
        <time>2012-08-20T15:11:26Z</time>
      </trkpt>
      <trkpt lat="39.680760" lon="-0.280821">
        <ele>61.4</ele>
        <time>2012-08-20T15:11:27Z</time>
      </trkpt>
      <trkpt lat="39.680727" lon="-0.280545">
        <ele>61.4</ele>
        <time>2012-08-20T15:11:31Z</time>
      </trkpt>
      <trkpt lat="39.680705" lon="-0.280360">
        <ele>61.4</ele>
        <time>2012-08-20T15:11:35Z</time>
      </trkpt>
      <trkpt lat="39.680589" lon="-0.280113">
        <ele>61.4</ele>
        <time>2012-08-20T15:11:42Z</time>
      </trkpt>
      <trkpt lat="39.680479" lon="-0.279762">
        <ele>61.4</ele>
        <time>2012-08-20T15:11:48Z</time>
      </trkpt>
      <trkpt lat="39.680457" lon="-0.279628">
        <ele>61.4</ele>
        <time>2012-08-20T15:11:50Z</time>
      </trkpt>
      <trkpt lat="39.680419" lon="-0.279358">
        <ele>61.4</ele>
        <time>2012-08-20T15:11:54Z</time>
      </trkpt>
      <trkpt lat="39.680326" lon="-0.278896">
        <ele>61.4</ele>
        <time>2012-08-20T15:12:01Z</time>
      </trkpt>
      <trkpt lat="39.680301" lon="-0.278715">
        <ele>61.4</ele>
        <time>2012-08-20T15:12:04Z</time>
      </trkpt>
      <trkpt lat="39.680262" lon="-0.278548">
        <ele>61.4</ele>
        <time>2012-08-20T15:12:07Z</time>
      </trkpt>
      <trkpt lat="39.680237" lon="-0.278250">
        <ele>61.4</ele>
        <time>2012-08-20T15:12:13Z</time>
      </trkpt>
      <trkpt lat="39.680250" lon="-0.278194">
        <ele>61.4</ele>
        <time>2012-08-20T15:12:14Z</time>
      </trkpt>
      <trkpt lat="39.680328" lon="-0.278047">
        <ele>61.4</ele>
        <time>2012-08-20T15:12:17Z</time>
      </trkpt>
      <trkpt lat="39.680368" lon="-0.278013">
        <ele>61.4</ele>
        <time>2012-08-20T15:12:18Z</time>
      </trkpt>
      <trkpt lat="39.680463" lon="-0.277990">
        <ele>61.4</ele>
        <time>2012-08-20T15:12:20Z</time>
      </trkpt>
      <trkpt lat="39.680625" lon="-0.277921">
        <ele>61.4</ele>
        <time>2012-08-20T15:12:23Z</time>
      </trkpt>
      <trkpt lat="39.680675" lon="-0.277901">
        <ele>61.4</ele>
        <time>2012-08-20T15:12:24Z</time>
      </trkpt>
      <trkpt lat="39.680932" lon="-0.277809">
        <ele>61.4</ele>
        <time>2012-08-20T15:12:29Z</time>
      </trkpt>
      <trkpt lat="39.680986" lon="-0.277797">
        <ele>61.4</ele>
        <time>2012-08-20T15:12:30Z</time>
      </trkpt>
      <trkpt lat="39.681093" lon="-0.277762">
        <ele>61.0</ele>
        <time>2012-08-20T15:12:32Z</time>
      </trkpt>
      <trkpt lat="39.681145" lon="-0.277737">
        <ele>60.6</ele>
        <time>2012-08-20T15:12:33Z</time>
      </trkpt>
      <trkpt lat="39.681198" lon="-0.277715">
        <ele>60.2</ele>
        <time>2012-08-20T15:12:34Z</time>
      </trkpt>
      <trkpt lat="39.681249" lon="-0.277691">
        <ele>59.8</ele>
        <time>2012-08-20T15:12:35Z</time>
      </trkpt>
      <trkpt lat="39.681303" lon="-0.277668">
        <ele>59.2</ele>
        <time>2012-08-20T15:12:36Z</time>
      </trkpt>
      <trkpt lat="39.681568" lon="-0.277558">
        <ele>59.2</ele>
        <time>2012-08-20T15:12:41Z</time>
      </trkpt>
      <trkpt lat="39.681946" lon="-0.277411">
        <ele>59.2</ele>
        <time>2012-08-20T15:12:48Z</time>
      </trkpt>
      <trkpt lat="39.682091" lon="-0.277349">
        <ele>59.2</ele>
        <time>2012-08-20T15:12:51Z</time>
      </trkpt>
      <trkpt lat="39.682192" lon="-0.277282">
        <ele>59.2</ele>
        <time>2012-08-20T15:12:54Z</time>
      </trkpt>
      <trkpt lat="39.682276" lon="-0.277215">
        <ele>59.2</ele>
        <time>2012-08-20T15:12:58Z</time>
      </trkpt>
      <trkpt lat="39.682237" lon="-0.277053">
        <ele>59.2</ele>
        <time>2012-08-20T15:13:01Z</time>
      </trkpt>
      <trkpt lat="39.682207" lon="-0.276940">
        <ele>59.2</ele>
        <time>2012-08-20T15:13:03Z</time>
      </trkpt>
      <trkpt lat="39.682117" lon="-0.276664">
        <ele>59.2</ele>
        <time>2012-08-20T15:13:08Z</time>
      </trkpt>
      <trkpt lat="39.682029" lon="-0.276309">
        <ele>59.2</ele>
        <time>2012-08-20T15:13:14Z</time>
      </trkpt>
      <trkpt lat="39.681924" lon="-0.275955">
        <ele>59.2</ele>
        <time>2012-08-20T15:13:19Z</time>
      </trkpt>
      <trkpt lat="39.681884" lon="-0.275809">
        <ele>59.2</ele>
        <time>2012-08-20T15:13:21Z</time>
      </trkpt>
      <trkpt lat="39.681750" lon="-0.275325">
        <ele>58.8</ele>
        <time>2012-08-20T15:13:28Z</time>
      </trkpt>
      <trkpt lat="39.681728" lon="-0.275261">
        <ele>58.4</ele>
        <time>2012-08-20T15:13:29Z</time>
      </trkpt>
      <trkpt lat="39.681709" lon="-0.275197">
        <ele>58.0</ele>
        <time>2012-08-20T15:13:30Z</time>
      </trkpt>
      <trkpt lat="39.681690" lon="-0.275131">
        <ele>57.6</ele>
        <time>2012-08-20T15:13:31Z</time>
      </trkpt>
      <trkpt lat="39.681671" lon="-0.275070">
        <ele>57.2</ele>
        <time>2012-08-20T15:13:32Z</time>
      </trkpt>
      <trkpt lat="39.681621" lon="-0.274886">
        <ele>57.2</ele>
        <time>2012-08-20T15:13:35Z</time>
      </trkpt>
      <trkpt lat="39.681549" lon="-0.274641">
        <ele>57.2</ele>
        <time>2012-08-20T15:13:39Z</time>
      </trkpt>
      <trkpt lat="39.681512" lon="-0.274521">
        <ele>57.2</ele>
        <time>2012-08-20T15:13:41Z</time>
      </trkpt>
      <trkpt lat="39.681377" lon="-0.274036">
        <ele>57.2</ele>
        <time>2012-08-20T15:13:49Z</time>
      </trkpt>
      <trkpt lat="39.681256" lon="-0.273613">
        <ele>57.2</ele>
        <time>2012-08-20T15:13:56Z</time>
      </trkpt>
      <trkpt lat="39.681240" lon="-0.273552">
        <ele>57.2</ele>
        <time>2012-08-20T15:13:57Z</time>
      </trkpt>
      <trkpt lat="39.681174" lon="-0.273289">
        <ele>57.2</ele>
        <time>2012-08-20T15:14:01Z</time>
      </trkpt>
      <trkpt lat="39.681140" lon="-0.273236">
        <ele>57.2</ele>
        <time>2012-08-20T15:14:02Z</time>
      </trkpt>
      <trkpt lat="39.681023" lon="-0.273041">
        <ele>57.2</ele>
        <time>2012-08-20T15:14:06Z</time>
      </trkpt>
      <trkpt lat="39.680998" lon="-0.272983">
        <ele>57.2</ele>
        <time>2012-08-20T15:14:07Z</time>
      </trkpt>
      <trkpt lat="39.680920" lon="-0.272811">
        <ele>56.8</ele>
        <time>2012-08-20T15:14:10Z</time>
      </trkpt>
      <trkpt lat="39.680894" lon="-0.272756">
        <ele>56.4</ele>
        <time>2012-08-20T15:14:11Z</time>
      </trkpt>
      <trkpt lat="39.680874" lon="-0.272703">
        <ele>56.0</ele>
        <time>2012-08-20T15:14:12Z</time>
      </trkpt>
      <trkpt lat="39.680857" lon="-0.272661">
        <ele>55.6</ele>
        <time>2012-08-20T15:14:13Z</time>
      </trkpt>
      <trkpt lat="39.680847" lon="-0.272625">
        <ele>55.2</ele>
        <time>2012-08-20T15:14:14Z</time>
      </trkpt>
      <trkpt lat="39.680835" lon="-0.272551">
        <ele>55.2</ele>
        <time>2012-08-20T15:14:17Z</time>
      </trkpt>
      <trkpt lat="39.680834" lon="-0.272539">
        <ele>55.2</ele>
        <time>2012-08-20T15:14:18Z</time>
      </trkpt>
      <trkpt lat="39.680836" lon="-0.272520">
        <ele>55.2</ele>
        <time>2012-08-20T15:14:21Z</time>
      </trkpt>
      <trkpt lat="39.680830" lon="-0.272452">
        <ele>55.2</ele>
        <time>2012-08-20T15:14:23Z</time>
      </trkpt>
      <trkpt lat="39.680823" lon="-0.272412">
        <ele>55.2</ele>
        <time>2012-08-20T15:14:24Z</time>
      </trkpt>
      <trkpt lat="39.680769" lon="-0.272257">
        <ele>55.2</ele>
        <time>2012-08-20T15:14:27Z</time>
      </trkpt>
      <trkpt lat="39.680732" lon="-0.272187">
        <ele>55.2</ele>
        <time>2012-08-20T15:14:28Z</time>
      </trkpt>
      <trkpt lat="39.680548" lon="-0.271802">
        <ele>55.2</ele>
        <time>2012-08-20T15:14:34Z</time>
      </trkpt>
      <trkpt lat="39.680383" lon="-0.271392">
        <ele>55.2</ele>
        <time>2012-08-20T15:14:40Z</time>
      </trkpt>
      <trkpt lat="39.680252" lon="-0.270908">
        <ele>55.2</ele>
        <time>2012-08-20T15:14:47Z</time>
      </trkpt>
      <trkpt lat="39.680223" lon="-0.270863">
        <ele>55.2</ele>
        <time>2012-08-20T15:14:48Z</time>
      </trkpt>
      <trkpt lat="39.680387" lon="-0.270661">
        <ele>55.2</ele>
        <time>2012-08-20T15:16:43Z</time>
      </trkpt>
      <trkpt lat="39.680422" lon="-0.270633">
        <ele>54.8</ele>
        <time>2012-08-20T15:16:45Z</time>
      </trkpt>
      <trkpt lat="39.680440" lon="-0.270620">
        <ele>54.4</ele>
        <time>2012-08-20T15:16:46Z</time>
      </trkpt>
      <trkpt lat="39.680457" lon="-0.270606">
        <ele>54.0</ele>
        <time>2012-08-20T15:16:47Z</time>
      </trkpt>
      <trkpt lat="39.680470" lon="-0.270601">
        <ele>53.6</ele>
        <time>2012-08-20T15:16:48Z</time>
      </trkpt>
      <trkpt lat="39.680484" lon="-0.270592">
        <ele>53.2</ele>
        <time>2012-08-20T15:16:49Z</time>
      </trkpt>
      <trkpt lat="39.680494" lon="-0.270593">
        <ele>53.2</ele>
        <time>2012-08-20T15:16:50Z</time>
      </trkpt>
      <trkpt lat="39.680500" lon="-0.270605">
        <ele>53.2</ele>
        <time>2012-08-20T15:16:52Z</time>
      </trkpt>
      <trkpt lat="39.680549" lon="-0.270554">
        <ele>53.2</ele>
        <time>2012-08-20T15:17:14Z</time>
      </trkpt>
      <trkpt lat="39.680542" lon="-0.270470">
        <ele>53.2</ele>
        <time>2012-08-20T15:17:16Z</time>
      </trkpt>
      <trkpt lat="39.680450" lon="-0.270325">
        <ele>53.2</ele>
        <time>2012-08-20T15:17:20Z</time>
      </trkpt>
      <trkpt lat="39.680425" lon="-0.270288">
        <ele>53.2</ele>
        <time>2012-08-20T15:17:21Z</time>
      </trkpt>
      <trkpt lat="39.680317" lon="-0.270024">
        <ele>53.2</ele>
        <time>2012-08-20T15:17:27Z</time>
      </trkpt>
      <trkpt lat="39.680222" lon="-0.269721">
        <ele>53.2</ele>
        <time>2012-08-20T15:17:34Z</time>
      </trkpt>
      <trkpt lat="39.680195" lon="-0.269626">
        <ele>52.8</ele>
        <time>2012-08-20T15:17:36Z</time>
      </trkpt>
      <trkpt lat="39.680180" lon="-0.269573">
        <ele>52.4</ele>
        <time>2012-08-20T15:17:37Z</time>
      </trkpt>
      <trkpt lat="39.680167" lon="-0.269525">
        <ele>52.0</ele>
        <time>2012-08-20T15:17:38Z</time>
      </trkpt>
      <trkpt lat="39.680156" lon="-0.269476">
        <ele>51.6</ele>
        <time>2012-08-20T15:17:39Z</time>
      </trkpt>
      <trkpt lat="39.680150" lon="-0.269427">
        <ele>51.2</ele>
        <time>2012-08-20T15:17:40Z</time>
      </trkpt>
      <trkpt lat="39.680148" lon="-0.269378">
        <ele>51.2</ele>
        <time>2012-08-20T15:17:41Z</time>
      </trkpt>
      <trkpt lat="39.680150" lon="-0.269086">
        <ele>51.2</ele>
        <time>2012-08-20T15:17:47Z</time>
      </trkpt>
      <trkpt lat="39.680140" lon="-0.269027">
        <ele>51.2</ele>
        <time>2012-08-20T15:17:48Z</time>
      </trkpt>
      <trkpt lat="39.680115" lon="-0.268763">
        <ele>51.2</ele>
        <time>2012-08-20T15:17:52Z</time>
      </trkpt>
      <trkpt lat="39.680105" lon="-0.268615">
        <ele>50.6</ele>
        <time>2012-08-20T15:17:54Z</time>
      </trkpt>
      <trkpt lat="39.680099" lon="-0.268541">
        <ele>50.2</ele>
        <time>2012-08-20T15:17:55Z</time>
      </trkpt>
      <trkpt lat="39.680093" lon="-0.268464">
        <ele>49.8</ele>
        <time>2012-08-20T15:17:56Z</time>
      </trkpt>
      <trkpt lat="39.680081" lon="-0.268382">
        <ele>49.4</ele>
        <time>2012-08-20T15:17:57Z</time>
      </trkpt>
      <trkpt lat="39.680069" lon="-0.268296">
        <ele>49.0</ele>
        <time>2012-08-20T15:17:58Z</time>
      </trkpt>
      <trkpt lat="39.680052" lon="-0.268212">
        <ele>49.0</ele>
        <time>2012-08-20T15:17:59Z</time>
      </trkpt>
      <trkpt lat="39.680034" lon="-0.268133">
        <ele>48.6</ele>
        <time>2012-08-20T15:18:00Z</time>
      </trkpt>
      <trkpt lat="39.680007" lon="-0.268047">
        <ele>48.2</ele>
        <time>2012-08-20T15:18:01Z</time>
      </trkpt>
      <trkpt lat="39.679982" lon="-0.267974">
        <ele>47.8</ele>
        <time>2012-08-20T15:18:02Z</time>
      </trkpt>
      <trkpt lat="39.679956" lon="-0.267910">
        <ele>47.4</ele>
        <time>2012-08-20T15:18:03Z</time>
      </trkpt>
      <trkpt lat="39.679928" lon="-0.267846">
        <ele>47.0</ele>
        <time>2012-08-20T15:18:04Z</time>
      </trkpt>
      <trkpt lat="39.679792" lon="-0.267616">
        <ele>47.0</ele>
        <time>2012-08-20T15:18:09Z</time>
      </trkpt>
      <trkpt lat="39.679701" lon="-0.267514">
        <ele>47.4</ele>
        <time>2012-08-20T15:18:12Z</time>
      </trkpt>
      <trkpt lat="39.679668" lon="-0.267488">
        <ele>47.8</ele>
        <time>2012-08-20T15:18:13Z</time>
      </trkpt>
      <trkpt lat="39.679636" lon="-0.267459">
        <ele>48.2</ele>
        <time>2012-08-20T15:18:14Z</time>
      </trkpt>
      <trkpt lat="39.679608" lon="-0.267429">
        <ele>48.6</ele>
        <time>2012-08-20T15:18:15Z</time>
      </trkpt>
      <trkpt lat="39.679577" lon="-0.267399">
        <ele>49.0</ele>
        <time>2012-08-20T15:18:16Z</time>
      </trkpt>
      <trkpt lat="39.679491" lon="-0.267256">
        <ele>49.0</ele>
        <time>2012-08-20T15:18:20Z</time>
      </trkpt>
      <trkpt lat="39.679456" lon="-0.267178">
        <ele>49.0</ele>
        <time>2012-08-20T15:18:22Z</time>
      </trkpt>
      <trkpt lat="39.679355" lon="-0.266932">
        <ele>49.0</ele>
        <time>2012-08-20T15:18:28Z</time>
      </trkpt>
      <trkpt lat="39.679313" lon="-0.266787">
        <ele>49.0</ele>
        <time>2012-08-20T15:18:31Z</time>
      </trkpt>
      <trkpt lat="39.679268" lon="-0.266635">
        <ele>49.0</ele>
        <time>2012-08-20T15:18:34Z</time>
      </trkpt>
      <trkpt lat="39.679132" lon="-0.266158">
        <ele>49.0</ele>
        <time>2012-08-20T15:18:43Z</time>
      </trkpt>
      <trkpt lat="39.678999" lon="-0.265686">
        <ele>49.0</ele>
        <time>2012-08-20T15:18:52Z</time>
      </trkpt>
      <trkpt lat="39.678852" lon="-0.265176">
        <ele>49.0</ele>
        <time>2012-08-20T15:19:02Z</time>
      </trkpt>
      <trkpt lat="39.678673" lon="-0.264793">
        <ele>49.0</ele>
        <time>2012-08-20T15:19:10Z</time>
      </trkpt>
      <trkpt lat="39.678629" lon="-0.264696">
        <ele>49.0</ele>
        <time>2012-08-20T15:19:12Z</time>
      </trkpt>
      <trkpt lat="39.678496" lon="-0.264632">
        <ele>49.0</ele>
        <time>2012-08-20T15:19:15Z</time>
      </trkpt>
      <trkpt lat="39.678360" lon="-0.264642">
        <ele>49.0</ele>
        <time>2012-08-20T15:19:18Z</time>
      </trkpt>
      <trkpt lat="39.678315" lon="-0.264638">
        <ele>49.0</ele>
        <time>2012-08-20T15:19:19Z</time>
      </trkpt>
      <trkpt lat="39.678272" lon="-0.264618">
        <ele>49.0</ele>
        <time>2012-08-20T15:19:20Z</time>
      </trkpt>
      <trkpt lat="39.678150" lon="-0.264469">
        <ele>49.0</ele>
        <time>2012-08-20T15:19:24Z</time>
      </trkpt>
      <trkpt lat="39.678135" lon="-0.264254">
        <ele>49.0</ele>
        <time>2012-08-20T15:19:28Z</time>
      </trkpt>
      <trkpt lat="39.678242" lon="-0.264072">
        <ele>49.0</ele>
        <time>2012-08-20T15:19:32Z</time>
      </trkpt>
      <trkpt lat="39.678312" lon="-0.263987">
        <ele>49.0</ele>
        <time>2012-08-20T15:19:34Z</time>
      </trkpt>
      <trkpt lat="39.678340" lon="-0.263936">
        <ele>49.0</ele>
        <time>2012-08-20T15:19:35Z</time>
      </trkpt>
      <trkpt lat="39.678406" lon="-0.263775">
        <ele>49.0</ele>
        <time>2012-08-20T15:19:38Z</time>
      </trkpt>
      <trkpt lat="39.678443" lon="-0.263655">
        <ele>49.0</ele>
        <time>2012-08-20T15:19:40Z</time>
      </trkpt>
      <trkpt lat="39.678458" lon="-0.263590">
        <ele>49.0</ele>
        <time>2012-08-20T15:19:41Z</time>
      </trkpt>
      <trkpt lat="39.678479" lon="-0.263470">
        <ele>49.0</ele>
        <time>2012-08-20T15:19:43Z</time>
      </trkpt>
      <trkpt lat="39.678528" lon="-0.262899">
        <ele>49.0</ele>
        <time>2012-08-20T15:19:52Z</time>
      </trkpt>
      <trkpt lat="39.678548" lon="-0.262210">
        <ele>49.0</ele>
        <time>2012-08-20T15:20:02Z</time>
      </trkpt>
      <trkpt lat="39.678538" lon="-0.261731">
        <ele>49.0</ele>
        <time>2012-08-20T15:20:09Z</time>
      </trkpt>
      <trkpt lat="39.678546" lon="-0.261200">
        <ele>49.0</ele>
        <time>2012-08-20T15:20:17Z</time>
      </trkpt>
      <trkpt lat="39.678526" lon="-0.260907">
        <ele>49.0</ele>
        <time>2012-08-20T15:20:22Z</time>
      </trkpt>
      <trkpt lat="39.678497" lon="-0.260857">
        <ele>49.0</ele>
        <time>2012-08-20T15:20:23Z</time>
      </trkpt>
      <trkpt lat="39.678388" lon="-0.260742">
        <ele>49.0</ele>
        <time>2012-08-20T15:20:26Z</time>
      </trkpt>
      <trkpt lat="39.678351" lon="-0.260702">
        <ele>49.0</ele>
        <time>2012-08-20T15:20:27Z</time>
      </trkpt>
      <trkpt lat="39.678320" lon="-0.260652">
        <ele>49.0</ele>
        <time>2012-08-20T15:20:28Z</time>
      </trkpt>
      <trkpt lat="39.678292" lon="-0.260481">
        <ele>49.0</ele>
        <time>2012-08-20T15:20:31Z</time>
      </trkpt>
      <trkpt lat="39.678332" lon="-0.260254">
        <ele>49.0</ele>
        <time>2012-08-20T15:20:35Z</time>
      </trkpt>
      <trkpt lat="39.678466" lon="-0.260103">
        <ele>49.0</ele>
        <time>2012-08-20T15:20:39Z</time>
      </trkpt>
      <trkpt lat="39.678548" lon="-0.259880">
        <ele>49.0</ele>
        <time>2012-08-20T15:20:43Z</time>
      </trkpt>
      <trkpt lat="39.678550" lon="-0.259754">
        <ele>49.0</ele>
        <time>2012-08-20T15:20:45Z</time>
      </trkpt>
      <trkpt lat="39.678522" lon="-0.259447">
        <ele>49.0</ele>
        <time>2012-08-20T15:20:50Z</time>
      </trkpt>
      <trkpt lat="39.678487" lon="-0.259263">
        <ele>49.0</ele>
        <time>2012-08-20T15:20:53Z</time>
      </trkpt>
      <trkpt lat="39.678485" lon="-0.259130">
        <ele>49.0</ele>
        <time>2012-08-20T15:20:55Z</time>
      </trkpt>
      <trkpt lat="39.678428" lon="-0.258513">
        <ele>49.0</ele>
        <time>2012-08-20T15:21:04Z</time>
      </trkpt>
      <trkpt lat="39.678352" lon="-0.258013">
        <ele>48.6</ele>
        <time>2012-08-20T15:21:11Z</time>
      </trkpt>
      <trkpt lat="39.678340" lon="-0.257944">
        <ele>48.2</ele>
        <time>2012-08-20T15:21:12Z</time>
      </trkpt>
      <trkpt lat="39.678330" lon="-0.257874">
        <ele>47.8</ele>
        <time>2012-08-20T15:21:13Z</time>
      </trkpt>
      <trkpt lat="39.678317" lon="-0.257791">
        <ele>47.4</ele>
        <time>2012-08-20T15:21:14Z</time>
      </trkpt>
      <trkpt lat="39.678307" lon="-0.257730">
        <ele>47.0</ele>
        <time>2012-08-20T15:21:15Z</time>
      </trkpt>
      <trkpt lat="39.678205" lon="-0.257120">
        <ele>47.0</ele>
        <time>2012-08-20T15:21:24Z</time>
      </trkpt>
      <trkpt lat="39.678120" lon="-0.256587">
        <ele>47.0</ele>
        <time>2012-08-20T15:21:32Z</time>
      </trkpt>
      <trkpt lat="39.678022" lon="-0.255983">
        <ele>47.0</ele>
        <time>2012-08-20T15:21:41Z</time>
      </trkpt>
      <trkpt lat="39.677914" lon="-0.255376">
        <ele>47.0</ele>
        <time>2012-08-20T15:21:50Z</time>
      </trkpt>
      <trkpt lat="39.677883" lon="-0.255234">
        <ele>46.6</ele>
        <time>2012-08-20T15:21:52Z</time>
      </trkpt>
      <trkpt lat="39.677867" lon="-0.255164">
        <ele>46.2</ele>
        <time>2012-08-20T15:21:53Z</time>
      </trkpt>
      <trkpt lat="39.677852" lon="-0.255094">
        <ele>45.8</ele>
        <time>2012-08-20T15:21:54Z</time>
      </trkpt>
      <trkpt lat="39.677840" lon="-0.255034">
        <ele>45.4</ele>
        <time>2012-08-20T15:21:55Z</time>
      </trkpt>
      <trkpt lat="39.677828" lon="-0.254963">
        <ele>44.8</ele>
        <time>2012-08-20T15:21:56Z</time>
      </trkpt>
      <trkpt lat="39.677798" lon="-0.254853">
        <ele>44.8</ele>
        <time>2012-08-20T15:21:58Z</time>
      </trkpt>
      <trkpt lat="39.677791" lon="-0.254793">
        <ele>44.8</ele>
        <time>2012-08-20T15:21:59Z</time>
      </trkpt>
      <trkpt lat="39.677773" lon="-0.254676">
        <ele>44.8</ele>
        <time>2012-08-20T15:22:01Z</time>
      </trkpt>
      <trkpt lat="39.677740" lon="-0.254570">
        <ele>44.8</ele>
        <time>2012-08-20T15:22:03Z</time>
      </trkpt>
      <trkpt lat="39.677711" lon="-0.254516">
        <ele>44.8</ele>
        <time>2012-08-20T15:22:04Z</time>
      </trkpt>
      <trkpt lat="39.677587" lon="-0.254399">
        <ele>44.8</ele>
        <time>2012-08-20T15:22:07Z</time>
      </trkpt>
      <trkpt lat="39.677431" lon="-0.254233">
        <ele>44.8</ele>
        <time>2012-08-20T15:22:11Z</time>
      </trkpt>
      <trkpt lat="39.677410" lon="-0.254168">
        <ele>44.8</ele>
        <time>2012-08-20T15:22:12Z</time>
      </trkpt>
      <trkpt lat="39.677399" lon="-0.253961">
        <ele>44.8</ele>
        <time>2012-08-20T15:22:15Z</time>
      </trkpt>
      <trkpt lat="39.677453" lon="-0.253762">
        <ele>44.8</ele>
        <time>2012-08-20T15:22:18Z</time>
      </trkpt>
      <trkpt lat="39.677446" lon="-0.253687">
        <ele>44.8</ele>
        <time>2012-08-20T15:22:19Z</time>
      </trkpt>
      <trkpt lat="39.677368" lon="-0.253484">
        <ele>44.8</ele>
        <time>2012-08-20T15:22:22Z</time>
      </trkpt>
      <trkpt lat="39.677152" lon="-0.252845">
        <ele>44.8</ele>
        <time>2012-08-20T15:22:31Z</time>
      </trkpt>
      <trkpt lat="39.676927" lon="-0.252181">
        <ele>44.8</ele>
        <time>2012-08-20T15:22:40Z</time>
      </trkpt>
      <trkpt lat="39.676903" lon="-0.252104">
        <ele>44.4</ele>
        <time>2012-08-20T15:22:41Z</time>
      </trkpt>
      <trkpt lat="39.676876" lon="-0.252023">
        <ele>44.0</ele>
        <time>2012-08-20T15:22:42Z</time>
      </trkpt>
      <trkpt lat="39.676847" lon="-0.251943">
        <ele>43.6</ele>
        <time>2012-08-20T15:22:43Z</time>
      </trkpt>
      <trkpt lat="39.676823" lon="-0.251876">
        <ele>43.2</ele>
        <time>2012-08-20T15:22:44Z</time>
      </trkpt>
      <trkpt lat="39.676795" lon="-0.251796">
        <ele>42.8</ele>
        <time>2012-08-20T15:22:45Z</time>
      </trkpt>
    </trkseg>
  </trk>
  <trk>
    <name>T3303249-22</name>
    <cmt>La ruta empieza en Ojos Negros. Hasta Santa Eulalia va por una carretera comarcal apenas transitada. Hay un tramo de unos 40 km durante el puerto del Escandón que no aparece reflejado en el track porque me quedé sin batería en el GPS pero la vía verde no tiene pérdida en esa zona</cmt>
    <desc>La ruta empieza en Ojos Negros. Hasta Santa Eulalia va por una carretera comarcal apenas transitada. Hay un tramo de unos 40 km durante el puerto del Escandón que no aparece reflejado en el track porque me quedé sin batería en el GPS pero la vía verde no tiene pérdida en esa zona</desc>
    <trkseg>
      <trkpt lat="39.676594" lon="-0.251222">
        <ele>42.8</ele>
        <time>2012-08-20T15:22:52Z</time>
      </trkpt>
      <trkpt lat="39.676376" lon="-0.250592">
        <ele>42.8</ele>
        <time>2012-08-20T15:23:00Z</time>
      </trkpt>
      <trkpt lat="39.676350" lon="-0.250514">
        <ele>42.8</ele>
        <time>2012-08-20T15:23:01Z</time>
      </trkpt>
      <trkpt lat="39.676290" lon="-0.250357">
        <ele>42.4</ele>
        <time>2012-08-20T15:23:03Z</time>
      </trkpt>
      <trkpt lat="39.676261" lon="-0.250281">
        <ele>42.0</ele>
        <time>2012-08-20T15:23:04Z</time>
      </trkpt>
      <trkpt lat="39.676231" lon="-0.250199">
        <ele>41.6</ele>
        <time>2012-08-20T15:23:05Z</time>
      </trkpt>
      <trkpt lat="39.676204" lon="-0.250125">
        <ele>41.2</ele>
        <time>2012-08-20T15:23:06Z</time>
      </trkpt>
      <trkpt lat="39.676176" lon="-0.250043">
        <ele>40.6</ele>
        <time>2012-08-20T15:23:07Z</time>
      </trkpt>
      <trkpt lat="39.676095" lon="-0.249802">
        <ele>40.6</ele>
        <time>2012-08-20T15:23:10Z</time>
      </trkpt>
      <trkpt lat="39.675882" lon="-0.249159">
        <ele>40.6</ele>
        <time>2012-08-20T15:23:18Z</time>
      </trkpt>
      <trkpt lat="39.675856" lon="-0.249078">
        <ele>40.6</ele>
        <time>2012-08-20T15:23:19Z</time>
      </trkpt>
      <trkpt lat="39.675638" lon="-0.248417">
        <ele>40.6</ele>
        <time>2012-08-20T15:23:27Z</time>
      </trkpt>
      <trkpt lat="39.675529" lon="-0.248079">
        <ele>40.2</ele>
        <time>2012-08-20T15:23:31Z</time>
      </trkpt>
      <trkpt lat="39.675502" lon="-0.247994">
        <ele>39.8</ele>
        <time>2012-08-20T15:23:32Z</time>
      </trkpt>
      <trkpt lat="39.675477" lon="-0.247916">
        <ele>39.4</ele>
        <time>2012-08-20T15:23:33Z</time>
      </trkpt>
      <trkpt lat="39.675450" lon="-0.247834">
        <ele>39.0</ele>
        <time>2012-08-20T15:23:34Z</time>
      </trkpt>
      <trkpt lat="39.675423" lon="-0.247753">
        <ele>38.6</ele>
        <time>2012-08-20T15:23:35Z</time>
      </trkpt>
      <trkpt lat="39.675369" lon="-0.247591">
        <ele>38.6</ele>
        <time>2012-08-20T15:23:37Z</time>
      </trkpt>
      <trkpt lat="39.675164" lon="-0.246966">
        <ele>38.6</ele>
        <time>2012-08-20T15:23:45Z</time>
      </trkpt>
      <trkpt lat="39.675142" lon="-0.246890">
        <ele>38.6</ele>
        <time>2012-08-20T15:23:46Z</time>
      </trkpt>
      <trkpt lat="39.674951" lon="-0.246330">
        <ele>38.6</ele>
        <time>2012-08-20T15:23:54Z</time>
      </trkpt>
      <trkpt lat="39.674730" lon="-0.245664">
        <ele>38.6</ele>
        <time>2012-08-20T15:24:04Z</time>
      </trkpt>
      <trkpt lat="39.674708" lon="-0.245597">
        <ele>38.6</ele>
        <time>2012-08-20T15:24:05Z</time>
      </trkpt>
      <trkpt lat="39.674511" lon="-0.244986">
        <ele>38.6</ele>
        <time>2012-08-20T15:24:14Z</time>
      </trkpt>
      <trkpt lat="39.674353" lon="-0.244388">
        <ele>38.6</ele>
        <time>2012-08-20T15:24:22Z</time>
      </trkpt>
      <trkpt lat="39.674332" lon="-0.244311">
        <ele>38.2</ele>
        <time>2012-08-20T15:24:23Z</time>
      </trkpt>
      <trkpt lat="39.674311" lon="-0.244234">
        <ele>37.8</ele>
        <time>2012-08-20T15:24:24Z</time>
      </trkpt>
      <trkpt lat="39.674291" lon="-0.244159">
        <ele>37.4</ele>
        <time>2012-08-20T15:24:25Z</time>
      </trkpt>
      <trkpt lat="39.674270" lon="-0.244082">
        <ele>37.0</ele>
        <time>2012-08-20T15:24:26Z</time>
      </trkpt>
      <trkpt lat="39.674249" lon="-0.244004">
        <ele>36.6</ele>
        <time>2012-08-20T15:24:27Z</time>
      </trkpt>
      <trkpt lat="39.674189" lon="-0.243764">
        <ele>36.6</ele>
        <time>2012-08-20T15:24:30Z</time>
      </trkpt>
      <trkpt lat="39.674010" lon="-0.243059">
        <ele>36.6</ele>
        <time>2012-08-20T15:24:39Z</time>
      </trkpt>
      <trkpt lat="39.673837" lon="-0.242366">
        <ele>36.6</ele>
        <time>2012-08-20T15:24:48Z</time>
      </trkpt>
      <trkpt lat="39.673819" lon="-0.242287">
        <ele>36.6</ele>
        <time>2012-08-20T15:24:49Z</time>
      </trkpt>
      <trkpt lat="39.673719" lon="-0.241899">
        <ele>36.2</ele>
        <time>2012-08-20T15:24:54Z</time>
      </trkpt>
      <trkpt lat="39.673696" lon="-0.241818">
        <ele>35.8</ele>
        <time>2012-08-20T15:24:55Z</time>
      </trkpt>
      <trkpt lat="39.673674" lon="-0.241738">
        <ele>35.4</ele>
        <time>2012-08-20T15:24:56Z</time>
      </trkpt>
      <trkpt lat="39.673656" lon="-0.241658">
        <ele>35.0</ele>
        <time>2012-08-20T15:24:57Z</time>
      </trkpt>
      <trkpt lat="39.673637" lon="-0.241580">
        <ele>34.6</ele>
        <time>2012-08-20T15:24:58Z</time>
      </trkpt>
      <trkpt lat="39.673500" lon="-0.241049">
        <ele>34.6</ele>
        <time>2012-08-20T15:25:05Z</time>
      </trkpt>
      <trkpt lat="39.673348" lon="-0.240459">
        <ele>34.6</ele>
        <time>2012-08-20T15:25:13Z</time>
      </trkpt>
      <trkpt lat="39.673190" lon="-0.239820">
        <ele>34.6</ele>
        <time>2012-08-20T15:25:22Z</time>
      </trkpt>
      <trkpt lat="39.673153" lon="-0.239685">
        <ele>34.6</ele>
        <time>2012-08-20T15:25:24Z</time>
      </trkpt>
      <trkpt lat="39.673051" lon="-0.239503">
        <ele>34.6</ele>
        <time>2012-08-20T15:25:27Z</time>
      </trkpt>
      <trkpt lat="39.673018" lon="-0.239438">
        <ele>34.6</ele>
        <time>2012-08-20T15:25:28Z</time>
      </trkpt>
      <trkpt lat="39.672982" lon="-0.239219">
        <ele>34.6</ele>
        <time>2012-08-20T15:25:31Z</time>
      </trkpt>
      <trkpt lat="39.672988" lon="-0.239152">
        <ele>34.6</ele>
        <time>2012-08-20T15:25:32Z</time>
      </trkpt>
      <trkpt lat="39.672958" lon="-0.238926">
        <ele>34.6</ele>
        <time>2012-08-20T15:25:35Z</time>
      </trkpt>
      <trkpt lat="39.672936" lon="-0.238855">
        <ele>34.6</ele>
        <time>2012-08-20T15:25:36Z</time>
      </trkpt>
      <trkpt lat="39.672813" lon="-0.238331">
        <ele>34.6</ele>
        <time>2012-08-20T15:25:43Z</time>
      </trkpt>
      <trkpt lat="39.672739" lon="-0.238042">
        <ele>34.2</ele>
        <time>2012-08-20T15:25:47Z</time>
      </trkpt>
      <trkpt lat="39.672718" lon="-0.237968">
        <ele>33.8</ele>
        <time>2012-08-20T15:25:48Z</time>
      </trkpt>
      <trkpt lat="39.672698" lon="-0.237894">
        <ele>33.2</ele>
        <time>2012-08-20T15:25:49Z</time>
      </trkpt>
      <trkpt lat="39.672680" lon="-0.237820">
        <ele>32.4</ele>
        <time>2012-08-20T15:25:50Z</time>
      </trkpt>
      <trkpt lat="39.672488" lon="-0.237144">
        <ele>32.4</ele>
        <time>2012-08-20T15:25:59Z</time>
      </trkpt>
      <trkpt lat="39.672466" lon="-0.237069">
        <ele>32.4</ele>
        <time>2012-08-20T15:26:00Z</time>
      </trkpt>
      <trkpt lat="39.672267" lon="-0.236411">
        <ele>32.4</ele>
        <time>2012-08-20T15:26:09Z</time>
      </trkpt>
      <trkpt lat="39.672124" lon="-0.235964">
        <ele>32.4</ele>
        <time>2012-08-20T15:26:16Z</time>
      </trkpt>
      <trkpt lat="39.672080" lon="-0.235851">
        <ele>32.4</ele>
        <time>2012-08-20T15:26:18Z</time>
      </trkpt>
      <trkpt lat="39.671976" lon="-0.235663">
        <ele>32.4</ele>
        <time>2012-08-20T15:26:22Z</time>
      </trkpt>
      <trkpt lat="39.671912" lon="-0.235557">
        <ele>32.4</ele>
        <time>2012-08-20T15:26:26Z</time>
      </trkpt>
      <trkpt lat="39.671899" lon="-0.235541">
        <ele>32.4</ele>
        <time>2012-08-20T15:26:28Z</time>
      </trkpt>
      <trkpt lat="39.671899" lon="-0.235541">
        <ele>32.4</ele>
        <time>2012-08-20T15:26:30Z</time>
      </trkpt>
      <trkpt lat="39.671866" lon="-0.235511">
        <ele>32.4</ele>
        <time>2012-08-20T15:26:39Z</time>
      </trkpt>
      <trkpt lat="39.671809" lon="-0.235471">
        <ele>32.4</ele>
        <time>2012-08-20T15:26:41Z</time>
      </trkpt>
      <trkpt lat="39.671738" lon="-0.235407">
        <ele>32.4</ele>
        <time>2012-08-20T15:26:43Z</time>
      </trkpt>
      <trkpt lat="39.671647" lon="-0.235267">
        <ele>32.4</ele>
        <time>2012-08-20T15:26:46Z</time>
      </trkpt>
      <trkpt lat="39.671610" lon="-0.235042">
        <ele>32.4</ele>
        <time>2012-08-20T15:26:50Z</time>
      </trkpt>
      <trkpt lat="39.671606" lon="-0.234925">
        <ele>32.4</ele>
        <time>2012-08-20T15:26:52Z</time>
      </trkpt>
      <trkpt lat="39.671613" lon="-0.234693">
        <ele>32.4</ele>
        <time>2012-08-20T15:26:56Z</time>
      </trkpt>
      <trkpt lat="39.671612" lon="-0.234639">
        <ele>32.4</ele>
        <time>2012-08-20T15:26:57Z</time>
      </trkpt>
      <trkpt lat="39.671601" lon="-0.234534">
        <ele>32.4</ele>
        <time>2012-08-20T15:26:59Z</time>
      </trkpt>
      <trkpt lat="39.671559" lon="-0.234443">
        <ele>32.4</ele>
        <time>2012-08-20T15:27:01Z</time>
      </trkpt>
      <trkpt lat="39.671514" lon="-0.234356">
        <ele>32.4</ele>
        <time>2012-08-20T15:27:03Z</time>
      </trkpt>
      <trkpt lat="39.671475" lon="-0.234229">
        <ele>32.4</ele>
        <time>2012-08-20T15:27:06Z</time>
      </trkpt>
      <trkpt lat="39.671399" lon="-0.233971">
        <ele>32.4</ele>
        <time>2012-08-20T15:27:12Z</time>
      </trkpt>
      <trkpt lat="39.671323" lon="-0.233671">
        <ele>32.4</ele>
        <time>2012-08-20T15:27:19Z</time>
      </trkpt>
      <trkpt lat="39.671211" lon="-0.233289">
        <ele>32.4</ele>
        <time>2012-08-20T15:27:27Z</time>
      </trkpt>
      <trkpt lat="39.671130" lon="-0.232989">
        <ele>32.4</ele>
        <time>2012-08-20T15:27:33Z</time>
      </trkpt>
      <trkpt lat="39.671111" lon="-0.232940">
        <ele>32.0</ele>
        <time>2012-08-20T15:27:34Z</time>
      </trkpt>
      <trkpt lat="39.671095" lon="-0.232892">
        <ele>31.6</ele>
        <time>2012-08-20T15:27:35Z</time>
      </trkpt>
      <trkpt lat="39.671077" lon="-0.232843">
        <ele>31.2</ele>
        <time>2012-08-20T15:27:36Z</time>
      </trkpt>
      <trkpt lat="39.671060" lon="-0.232795">
        <ele>30.8</ele>
        <time>2012-08-20T15:27:37Z</time>
      </trkpt>
      <trkpt lat="39.671042" lon="-0.232748">
        <ele>30.4</ele>
        <time>2012-08-20T15:27:38Z</time>
      </trkpt>
      <trkpt lat="39.670972" lon="-0.232521">
        <ele>30.4</ele>
        <time>2012-08-20T15:27:43Z</time>
      </trkpt>
      <trkpt lat="39.670951" lon="-0.232493">
        <ele>30.4</ele>
        <time>2012-08-20T15:27:44Z</time>
      </trkpt>
      <trkpt lat="39.670902" lon="-0.232467">
        <ele>30.4</ele>
        <time>2012-08-20T15:27:46Z</time>
      </trkpt>
      <trkpt lat="39.670804" lon="-0.232512">
        <ele>30.4</ele>
        <time>2012-08-20T15:27:49Z</time>
      </trkpt>
      <trkpt lat="39.670737" lon="-0.232554">
        <ele>30.4</ele>
        <time>2012-08-20T15:27:51Z</time>
      </trkpt>
      <trkpt lat="39.670666" lon="-0.232577">
        <ele>30.4</ele>
        <time>2012-08-20T15:27:54Z</time>
      </trkpt>
      <trkpt lat="39.670650" lon="-0.232570">
        <ele>30.4</ele>
        <time>2012-08-20T15:27:55Z</time>
      </trkpt>
      <trkpt lat="39.670605" lon="-0.232569">
        <ele>30.4</ele>
        <time>2012-08-20T15:27:57Z</time>
      </trkpt>
      <trkpt lat="39.670549" lon="-0.232594">
        <ele>30.4</ele>
        <time>2012-08-20T15:27:59Z</time>
      </trkpt>
      <trkpt lat="39.670422" lon="-0.232596">
        <ele>30.4</ele>
        <time>2012-08-20T15:28:03Z</time>
      </trkpt>
      <trkpt lat="39.670397" lon="-0.232567">
        <ele>30.4</ele>
        <time>2012-08-20T15:28:04Z</time>
      </trkpt>
      <trkpt lat="39.670349" lon="-0.232454">
        <ele>30.4</ele>
        <time>2012-08-20T15:28:07Z</time>
      </trkpt>
      <trkpt lat="39.670323" lon="-0.232378">
        <ele>30.4</ele>
        <time>2012-08-20T15:28:09Z</time>
      </trkpt>
      <trkpt lat="39.670196" lon="-0.232051">
        <ele>30.4</ele>
        <time>2012-08-20T15:28:17Z</time>
      </trkpt>
      <trkpt lat="39.670076" lon="-0.231672">
        <ele>30.4</ele>
        <time>2012-08-20T15:28:25Z</time>
      </trkpt>
      <trkpt lat="39.670004" lon="-0.231409">
        <ele>30.4</ele>
        <time>2012-08-20T15:28:31Z</time>
      </trkpt>
      <trkpt lat="39.669991" lon="-0.231360">
        <ele>30.0</ele>
        <time>2012-08-20T15:28:32Z</time>
      </trkpt>
      <trkpt lat="39.669975" lon="-0.231312">
        <ele>29.6</ele>
        <time>2012-08-20T15:28:33Z</time>
      </trkpt>
      <trkpt lat="39.669957" lon="-0.231264">
        <ele>29.0</ele>
        <time>2012-08-20T15:28:34Z</time>
      </trkpt>
      <trkpt lat="39.669939" lon="-0.231216">
        <ele>28.6</ele>
        <time>2012-08-20T15:28:35Z</time>
      </trkpt>
      <trkpt lat="39.669925" lon="-0.231166">
        <ele>28.2</ele>
        <time>2012-08-20T15:28:36Z</time>
      </trkpt>
      <trkpt lat="39.669911" lon="-0.231117">
        <ele>28.2</ele>
        <time>2012-08-20T15:28:37Z</time>
      </trkpt>
      <trkpt lat="39.669763" lon="-0.230693">
        <ele>28.2</ele>
        <time>2012-08-20T15:28:45Z</time>
      </trkpt>
      <trkpt lat="39.669572" lon="-0.230054">
        <ele>28.2</ele>
        <time>2012-08-20T15:28:56Z</time>
      </trkpt>
      <trkpt lat="39.669554" lon="-0.230000">
        <ele>28.2</ele>
        <time>2012-08-20T15:28:57Z</time>
      </trkpt>
      <trkpt lat="39.669467" lon="-0.229736">
        <ele>28.2</ele>
        <time>2012-08-20T15:29:02Z</time>
      </trkpt>
      <trkpt lat="39.669460" lon="-0.229687">
        <ele>28.2</ele>
        <time>2012-08-20T15:29:03Z</time>
      </trkpt>
      <trkpt lat="39.669458" lon="-0.229539">
        <ele>28.2</ele>
        <time>2012-08-20T15:29:06Z</time>
      </trkpt>
      <trkpt lat="39.669464" lon="-0.229381">
        <ele>28.2</ele>
        <time>2012-08-20T15:29:09Z</time>
      </trkpt>
      <trkpt lat="39.669436" lon="-0.229222">
        <ele>28.2</ele>
        <time>2012-08-20T15:29:12Z</time>
      </trkpt>
      <trkpt lat="39.669421" lon="-0.229170">
        <ele>28.2</ele>
        <time>2012-08-20T15:29:13Z</time>
      </trkpt>
      <trkpt lat="39.669288" lon="-0.228762">
        <ele>28.2</ele>
        <time>2012-08-20T15:29:20Z</time>
      </trkpt>
      <trkpt lat="39.669164" lon="-0.228401">
        <ele>28.2</ele>
        <time>2012-08-20T15:29:27Z</time>
      </trkpt>
      <trkpt lat="39.669130" lon="-0.228321">
        <ele>28.2</ele>
        <time>2012-08-20T15:29:31Z</time>
      </trkpt>
      <trkpt lat="39.669084" lon="-0.228312">
        <ele>28.2</ele>
        <time>2012-08-20T15:29:33Z</time>
      </trkpt>
      <trkpt lat="39.669020" lon="-0.228352">
        <ele>28.2</ele>
        <time>2012-08-20T15:29:35Z</time>
      </trkpt>
      <trkpt lat="39.668734" lon="-0.228548">
        <ele>28.2</ele>
        <time>2012-08-20T15:29:43Z</time>
      </trkpt>
      <trkpt lat="39.668475" lon="-0.228713">
        <ele>28.2</ele>
        <time>2012-08-20T15:29:50Z</time>
      </trkpt>
      <trkpt lat="39.668200" lon="-0.228890">
        <ele>28.2</ele>
        <time>2012-08-20T15:29:57Z</time>
      </trkpt>
      <trkpt lat="39.667900" lon="-0.229078">
        <ele>28.2</ele>
        <time>2012-08-20T15:30:05Z</time>
      </trkpt>
      <trkpt lat="39.667679" lon="-0.229225">
        <ele>28.2</ele>
        <time>2012-08-20T15:30:12Z</time>
      </trkpt>
      <trkpt lat="39.667662" lon="-0.229256">
        <ele>28.2</ele>
        <time>2012-08-20T15:30:13Z</time>
      </trkpt>
      <trkpt lat="39.667653" lon="-0.229336">
        <ele>28.2</ele>
        <time>2012-08-20T15:30:15Z</time>
      </trkpt>
      <trkpt lat="39.667552" lon="-0.229460">
        <ele>28.2</ele>
        <time>2012-08-20T15:30:20Z</time>
      </trkpt>
      <trkpt lat="39.667383" lon="-0.229558">
        <ele>27.8</ele>
        <time>2012-08-20T15:30:25Z</time>
      </trkpt>
      <trkpt lat="39.667356" lon="-0.229560">
        <ele>27.4</ele>
        <time>2012-08-20T15:30:26Z</time>
      </trkpt>
      <trkpt lat="39.667332" lon="-0.229550">
        <ele>27.0</ele>
        <time>2012-08-20T15:30:27Z</time>
      </trkpt>
      <trkpt lat="39.667305" lon="-0.229529">
        <ele>26.6</ele>
        <time>2012-08-20T15:30:28Z</time>
      </trkpt>
      <trkpt lat="39.667279" lon="-0.229501">
        <ele>26.2</ele>
        <time>2012-08-20T15:30:29Z</time>
      </trkpt>
      <trkpt lat="39.667216" lon="-0.229372">
        <ele>26.2</ele>
        <time>2012-08-20T15:30:32Z</time>
      </trkpt>
      <trkpt lat="39.667179" lon="-0.229283">
        <ele>26.2</ele>
        <time>2012-08-20T15:30:34Z</time>
      </trkpt>
      <trkpt lat="39.667093" lon="-0.228994">
        <ele>26.2</ele>
        <time>2012-08-20T15:30:40Z</time>
      </trkpt>
      <trkpt lat="39.666989" lon="-0.228713">
        <ele>26.2</ele>
        <time>2012-08-20T15:30:46Z</time>
      </trkpt>
      <trkpt lat="39.666968" lon="-0.228668">
        <ele>26.2</ele>
        <time>2012-08-20T15:30:47Z</time>
      </trkpt>
      <trkpt lat="39.666908" lon="-0.228534">
        <ele>26.2</ele>
        <time>2012-08-20T15:30:50Z</time>
      </trkpt>
      <trkpt lat="39.666873" lon="-0.228448">
        <ele>26.2</ele>
        <time>2012-08-20T15:30:52Z</time>
      </trkpt>
      <trkpt lat="39.666785" lon="-0.228225">
        <ele>26.2</ele>
        <time>2012-08-20T15:30:57Z</time>
      </trkpt>
      <trkpt lat="39.666779" lon="-0.228175">
        <ele>26.2</ele>
        <time>2012-08-20T15:30:58Z</time>
      </trkpt>
      <trkpt lat="39.666776" lon="-0.228058">
        <ele>26.2</ele>
        <time>2012-08-20T15:31:01Z</time>
      </trkpt>
      <trkpt lat="39.666749" lon="-0.227906">
        <ele>26.2</ele>
        <time>2012-08-20T15:31:04Z</time>
      </trkpt>
      <trkpt lat="39.666728" lon="-0.227856">
        <ele>26.2</ele>
        <time>2012-08-20T15:31:05Z</time>
      </trkpt>
      <trkpt lat="39.666618" lon="-0.227543">
        <ele>26.2</ele>
        <time>2012-08-20T15:31:11Z</time>
      </trkpt>
      <trkpt lat="39.666440" lon="-0.227037">
        <ele>26.2</ele>
        <time>2012-08-20T15:31:20Z</time>
      </trkpt>
      <trkpt lat="39.666298" lon="-0.226666">
        <ele>26.2</ele>
        <time>2012-08-20T15:31:27Z</time>
      </trkpt>
      <trkpt lat="39.666228" lon="-0.226486">
        <ele>26.2</ele>
        <time>2012-08-20T15:31:31Z</time>
      </trkpt>
      <trkpt lat="39.666186" lon="-0.226434">
        <ele>26.2</ele>
        <time>2012-08-20T15:31:33Z</time>
      </trkpt>
      <trkpt lat="39.666160" lon="-0.226418">
        <ele>26.2</ele>
        <time>2012-08-20T15:31:37Z</time>
      </trkpt>
      <trkpt lat="39.666113" lon="-0.226403">
        <ele>23.8</ele>
        <time>2012-08-20T15:34:02Z</time>
      </trkpt>
      <trkpt lat="39.666070" lon="-0.226364">
        <ele>23.8</ele>
        <time>2012-08-20T15:34:05Z</time>
      </trkpt>
      <trkpt lat="39.665970" lon="-0.226301">
        <ele>23.8</ele>
        <time>2012-08-20T15:34:09Z</time>
      </trkpt>
      <trkpt lat="39.665804" lon="-0.226360">
        <ele>23.8</ele>
        <time>2012-08-20T15:34:14Z</time>
      </trkpt>
      <trkpt lat="39.665775" lon="-0.226375">
        <ele>23.8</ele>
        <time>2012-08-20T15:34:15Z</time>
      </trkpt>
      <trkpt lat="39.665594" lon="-0.226464">
        <ele>23.8</ele>
        <time>2012-08-20T15:34:22Z</time>
      </trkpt>
      <trkpt lat="39.665573" lon="-0.226479">
        <ele>23.8</ele>
        <time>2012-08-20T15:34:25Z</time>
      </trkpt>
      <trkpt lat="39.665573" lon="-0.226479">
        <ele>23.8</ele>
        <time>2012-08-20T15:34:26Z</time>
      </trkpt>
      <trkpt lat="39.665547" lon="-0.226496">
        <ele>23.8</ele>
        <time>2012-08-20T15:34:39Z</time>
      </trkpt>
      <trkpt lat="39.665513" lon="-0.226524">
        <ele>23.8</ele>
        <time>2012-08-20T15:34:41Z</time>
      </trkpt>
      <trkpt lat="39.665374" lon="-0.226616">
        <ele>23.8</ele>
        <time>2012-08-20T15:34:47Z</time>
      </trkpt>
      <trkpt lat="39.665237" lon="-0.226670">
        <ele>23.8</ele>
        <time>2012-08-20T15:34:54Z</time>
      </trkpt>
      <trkpt lat="39.665222" lon="-0.226677">
        <ele>23.8</ele>
        <time>2012-08-20T15:34:56Z</time>
      </trkpt>
      <trkpt lat="39.665220" lon="-0.226680">
        <ele>23.8</ele>
        <time>2012-08-20T15:35:00Z</time>
      </trkpt>
      <trkpt lat="39.665164" lon="-0.226680">
        <ele>23.8</ele>
        <time>2012-08-20T15:35:16Z</time>
      </trkpt>
      <trkpt lat="39.665121" lon="-0.226713">
        <ele>23.8</ele>
        <time>2012-08-20T15:35:18Z</time>
      </trkpt>
      <trkpt lat="39.665027" lon="-0.226761">
        <ele>23.8</ele>
        <time>2012-08-20T15:35:21Z</time>
      </trkpt>
      <trkpt lat="39.664994" lon="-0.226785">
        <ele>23.8</ele>
        <time>2012-08-20T15:35:22Z</time>
      </trkpt>
      <trkpt lat="39.664808" lon="-0.226883">
        <ele>23.8</ele>
        <time>2012-08-20T15:35:28Z</time>
      </trkpt>
      <trkpt lat="39.664661" lon="-0.226994">
        <ele>23.8</ele>
        <time>2012-08-20T15:35:33Z</time>
      </trkpt>
      <trkpt lat="39.664628" lon="-0.227043">
        <ele>23.8</ele>
        <time>2012-08-20T15:35:37Z</time>
      </trkpt>
      <trkpt lat="39.664580" lon="-0.227106">
        <ele>23.8</ele>
        <time>2012-08-20T15:35:42Z</time>
      </trkpt>
      <trkpt lat="39.664559" lon="-0.227131">
        <ele>23.8</ele>
        <time>2012-08-20T15:35:43Z</time>
      </trkpt>
      <trkpt lat="39.664405" lon="-0.227186">
        <ele>23.8</ele>
        <time>2012-08-20T15:35:48Z</time>
      </trkpt>
      <trkpt lat="39.664244" lon="-0.227160">
        <ele>23.8</ele>
        <time>2012-08-20T15:35:52Z</time>
      </trkpt>
      <trkpt lat="39.664162" lon="-0.227179">
        <ele>23.8</ele>
        <time>2012-08-20T15:35:54Z</time>
      </trkpt>
      <trkpt lat="39.663995" lon="-0.227246">
        <ele>23.8</ele>
        <time>2012-08-20T15:35:58Z</time>
      </trkpt>
      <trkpt lat="39.663906" lon="-0.227272">
        <ele>23.8</ele>
        <time>2012-08-20T15:36:00Z</time>
      </trkpt>
      <trkpt lat="39.663820" lon="-0.227305">
        <ele>23.8</ele>
        <time>2012-08-20T15:36:02Z</time>
      </trkpt>
      <trkpt lat="39.663734" lon="-0.227334">
        <ele>23.8</ele>
        <time>2012-08-20T15:36:04Z</time>
      </trkpt>
      <trkpt lat="39.663689" lon="-0.227346">
        <ele>23.8</ele>
        <time>2012-08-20T15:36:05Z</time>
      </trkpt>
      <trkpt lat="39.663419" lon="-0.227440">
        <ele>23.8</ele>
        <time>2012-08-20T15:36:11Z</time>
      </trkpt>
      <trkpt lat="39.663171" lon="-0.227533">
        <ele>23.8</ele>
        <time>2012-08-20T15:36:17Z</time>
      </trkpt>
      <trkpt lat="39.662888" lon="-0.227643">
        <ele>23.8</ele>
        <time>2012-08-20T15:36:24Z</time>
      </trkpt>
      <trkpt lat="39.662782" lon="-0.227689">
        <ele>23.8</ele>
        <time>2012-08-20T15:36:27Z</time>
      </trkpt>
      <trkpt lat="39.662753" lon="-0.227734">
        <ele>23.8</ele>
        <time>2012-08-20T15:36:28Z</time>
      </trkpt>
      <trkpt lat="39.662725" lon="-0.227893">
        <ele>23.8</ele>
        <time>2012-08-20T15:36:31Z</time>
      </trkpt>
      <trkpt lat="39.662702" lon="-0.227993">
        <ele>23.8</ele>
        <time>2012-08-20T15:36:33Z</time>
      </trkpt>
      <trkpt lat="39.662649" lon="-0.228040">
        <ele>23.8</ele>
        <time>2012-08-20T15:36:35Z</time>
      </trkpt>
      <trkpt lat="39.662546" lon="-0.228027">
        <ele>23.8</ele>
        <time>2012-08-20T15:36:38Z</time>
      </trkpt>
      <trkpt lat="39.662520" lon="-0.228006">
        <ele>29.8</ele>
        <time>2012-08-20T16:10:31Z</time>
      </trkpt>
      <trkpt lat="39.662508" lon="-0.228022">
        <ele>29.8</ele>
        <time>2012-08-20T16:10:32Z</time>
      </trkpt>
      <trkpt lat="39.662445" lon="-0.228073">
        <ele>29.8</ele>
        <time>2012-08-20T16:10:35Z</time>
      </trkpt>
      <trkpt lat="39.662398" lon="-0.228112">
        <ele>30.4</ele>
        <time>2012-08-20T16:10:37Z</time>
      </trkpt>
      <trkpt lat="39.662378" lon="-0.228128">
        <ele>30.8</ele>
        <time>2012-08-20T16:10:38Z</time>
      </trkpt>
      <trkpt lat="39.662351" lon="-0.228149">
        <ele>31.2</ele>
        <time>2012-08-20T16:10:39Z</time>
      </trkpt>
      <trkpt lat="39.662327" lon="-0.228168">
        <ele>31.8</ele>
        <time>2012-08-20T16:10:40Z</time>
      </trkpt>
      <trkpt lat="39.662302" lon="-0.228184">
        <ele>32.2</ele>
        <time>2012-08-20T16:10:41Z</time>
      </trkpt>
      <trkpt lat="39.662230" lon="-0.228249">
        <ele>32.2</ele>
        <time>2012-08-20T16:10:44Z</time>
      </trkpt>
      <trkpt lat="39.662120" lon="-0.228337">
        <ele>32.2</ele>
        <time>2012-08-20T16:10:50Z</time>
      </trkpt>
      <trkpt lat="39.662040" lon="-0.228431">
        <ele>32.2</ele>
        <time>2012-08-20T16:10:54Z</time>
      </trkpt>
      <trkpt lat="39.661969" lon="-0.228488">
        <ele>32.2</ele>
        <time>2012-08-20T16:10:58Z</time>
      </trkpt>
      <trkpt lat="39.661828" lon="-0.228626">
        <ele>32.2</ele>
        <time>2012-08-20T16:11:05Z</time>
      </trkpt>
      <trkpt lat="39.661808" lon="-0.228640">
        <ele>32.2</ele>
        <time>2012-08-20T16:11:07Z</time>
      </trkpt>
      <trkpt lat="39.661788" lon="-0.228667">
        <ele>32.2</ele>
        <time>2012-08-20T16:11:10Z</time>
      </trkpt>
      <trkpt lat="39.661627" lon="-0.228782">
        <ele>32.2</ele>
        <time>2012-08-20T16:11:17Z</time>
      </trkpt>
      <trkpt lat="39.661507" lon="-0.228896">
        <ele>32.2</ele>
        <time>2012-08-20T16:11:22Z</time>
      </trkpt>
      <trkpt lat="39.661336" lon="-0.229088">
        <ele>32.2</ele>
        <time>2012-08-20T16:11:28Z</time>
      </trkpt>
      <trkpt lat="39.661194" lon="-0.229213">
        <ele>32.2</ele>
        <time>2012-08-20T16:11:34Z</time>
      </trkpt>
      <trkpt lat="39.661104" lon="-0.229322">
        <ele>32.2</ele>
        <time>2012-08-20T16:11:39Z</time>
      </trkpt>
      <trkpt lat="39.661082" lon="-0.229342">
        <ele>32.2</ele>
        <time>2012-08-20T16:11:41Z</time>
      </trkpt>
      <trkpt lat="39.661048" lon="-0.229369">
        <ele>32.2</ele>
        <time>2012-08-20T16:11:42Z</time>
      </trkpt>
      <trkpt lat="39.660998" lon="-0.229414">
        <ele>32.2</ele>
        <time>2012-08-20T16:11:44Z</time>
      </trkpt>
      <trkpt lat="39.660825" lon="-0.229576">
        <ele>32.2</ele>
        <time>2012-08-20T16:11:50Z</time>
      </trkpt>
      <trkpt lat="39.660788" lon="-0.229625">
        <ele>32.2</ele>
        <time>2012-08-20T16:11:51Z</time>
      </trkpt>
      <trkpt lat="39.660719" lon="-0.229689">
        <ele>32.2</ele>
        <time>2012-08-20T16:11:53Z</time>
      </trkpt>
      <trkpt lat="39.660685" lon="-0.229716">
        <ele>32.2</ele>
        <time>2012-08-20T16:11:54Z</time>
      </trkpt>
      <trkpt lat="39.660568" lon="-0.229796">
        <ele>32.2</ele>
        <time>2012-08-20T16:11:57Z</time>
      </trkpt>
      <trkpt lat="39.660455" lon="-0.229918">
        <ele>32.2</ele>
        <time>2012-08-20T16:12:00Z</time>
      </trkpt>
      <trkpt lat="39.660276" lon="-0.230086">
        <ele>32.2</ele>
        <time>2012-08-20T16:12:06Z</time>
      </trkpt>
      <trkpt lat="39.660222" lon="-0.230151">
        <ele>32.2</ele>
        <time>2012-08-20T16:12:11Z</time>
      </trkpt>
      <trkpt lat="39.660098" lon="-0.230278">
        <ele>32.2</ele>
        <time>2012-08-20T16:12:17Z</time>
      </trkpt>
      <trkpt lat="39.659966" lon="-0.230285">
        <ele>32.2</ele>
        <time>2012-08-20T16:12:20Z</time>
      </trkpt>
      <trkpt lat="39.659920" lon="-0.230254">
        <ele>32.2</ele>
        <time>2012-08-20T16:12:21Z</time>
      </trkpt>
      <trkpt lat="39.659807" lon="-0.230090">
        <ele>32.2</ele>
        <time>2012-08-20T16:12:25Z</time>
      </trkpt>
      <trkpt lat="39.659774" lon="-0.229990">
        <ele>32.2</ele>
        <time>2012-08-20T16:12:27Z</time>
      </trkpt>
      <trkpt lat="39.659702" lon="-0.229831">
        <ele>32.2</ele>
        <time>2012-08-20T16:12:31Z</time>
      </trkpt>
      <trkpt lat="39.659608" lon="-0.229730">
        <ele>32.2</ele>
        <time>2012-08-20T16:12:34Z</time>
      </trkpt>
      <trkpt lat="39.659564" lon="-0.229711">
        <ele>32.2</ele>
        <time>2012-08-20T16:12:35Z</time>
      </trkpt>
      <trkpt lat="39.659432" lon="-0.229666">
        <ele>32.2</ele>
        <time>2012-08-20T16:12:38Z</time>
      </trkpt>
      <trkpt lat="39.659391" lon="-0.229643">
        <ele>32.2</ele>
        <time>2012-08-20T16:12:39Z</time>
      </trkpt>
      <trkpt lat="39.659352" lon="-0.229619">
        <ele>32.2</ele>
        <time>2012-08-20T16:12:40Z</time>
      </trkpt>
      <trkpt lat="39.659315" lon="-0.229582">
        <ele>32.2</ele>
        <time>2012-08-20T16:12:41Z</time>
      </trkpt>
      <trkpt lat="39.659236" lon="-0.229417">
        <ele>32.2</ele>
        <time>2012-08-20T16:12:44Z</time>
      </trkpt>
      <trkpt lat="39.659257" lon="-0.229228">
        <ele>32.2</ele>
        <time>2012-08-20T16:12:47Z</time>
      </trkpt>
      <trkpt lat="39.659345" lon="-0.228953">
        <ele>32.2</ele>
        <time>2012-08-20T16:12:51Z</time>
      </trkpt>
      <trkpt lat="39.659340" lon="-0.228875">
        <ele>31.8</ele>
        <time>2012-08-20T16:12:52Z</time>
      </trkpt>
      <trkpt lat="39.659323" lon="-0.228802">
        <ele>31.4</ele>
        <time>2012-08-20T16:12:53Z</time>
      </trkpt>
      <trkpt lat="39.659296" lon="-0.228740">
        <ele>31.0</ele>
        <time>2012-08-20T16:12:54Z</time>
      </trkpt>
      <trkpt lat="39.659262" lon="-0.228687">
        <ele>30.6</ele>
        <time>2012-08-20T16:12:55Z</time>
      </trkpt>
      <trkpt lat="39.659221" lon="-0.228645">
        <ele>30.2</ele>
        <time>2012-08-20T16:12:56Z</time>
      </trkpt>
      <trkpt lat="39.659171" lon="-0.228619">
        <ele>30.2</ele>
        <time>2012-08-20T16:12:57Z</time>
      </trkpt>
      <trkpt lat="39.659021" lon="-0.228577">
        <ele>30.2</ele>
        <time>2012-08-20T16:13:00Z</time>
      </trkpt>
      <trkpt lat="39.658974" lon="-0.228564">
        <ele>30.2</ele>
        <time>2012-08-20T16:13:01Z</time>
      </trkpt>
      <trkpt lat="39.658830" lon="-0.228554">
        <ele>30.2</ele>
        <time>2012-08-20T16:13:04Z</time>
      </trkpt>
      <trkpt lat="39.658736" lon="-0.228607">
        <ele>30.2</ele>
        <time>2012-08-20T16:13:06Z</time>
      </trkpt>
      <trkpt lat="39.658655" lon="-0.228672">
        <ele>30.2</ele>
        <time>2012-08-20T16:13:08Z</time>
      </trkpt>
      <trkpt lat="39.658468" lon="-0.228805">
        <ele>30.2</ele>
        <time>2012-08-20T16:13:13Z</time>
      </trkpt>
      <trkpt lat="39.658385" lon="-0.228734">
        <ele>30.2</ele>
        <time>2012-08-20T16:13:16Z</time>
      </trkpt>
      <trkpt lat="39.658354" lon="-0.228552">
        <ele>30.2</ele>
        <time>2012-08-20T16:13:19Z</time>
      </trkpt>
      <trkpt lat="39.658280" lon="-0.228377">
        <ele>30.2</ele>
        <time>2012-08-20T16:13:22Z</time>
      </trkpt>
      <trkpt lat="39.658223" lon="-0.228243">
        <ele>30.2</ele>
        <time>2012-08-20T16:13:24Z</time>
      </trkpt>
      <trkpt lat="39.658015" lon="-0.227771">
        <ele>30.2</ele>
        <time>2012-08-20T16:13:31Z</time>
      </trkpt>
      <trkpt lat="39.657929" lon="-0.227574">
        <ele>29.8</ele>
        <time>2012-08-20T16:13:34Z</time>
      </trkpt>
      <trkpt lat="39.657901" lon="-0.227506">
        <ele>29.4</ele>
        <time>2012-08-20T16:13:35Z</time>
      </trkpt>
      <trkpt lat="39.657866" lon="-0.227437">
        <ele>29.0</ele>
        <time>2012-08-20T16:13:36Z</time>
      </trkpt>
      <trkpt lat="39.657836" lon="-0.227372">
        <ele>28.6</ele>
        <time>2012-08-20T16:13:37Z</time>
      </trkpt>
      <trkpt lat="39.657806" lon="-0.227307">
        <ele>28.2</ele>
        <time>2012-08-20T16:13:38Z</time>
      </trkpt>
      <trkpt lat="39.657777" lon="-0.227240">
        <ele>28.2</ele>
        <time>2012-08-20T16:13:39Z</time>
      </trkpt>
      <trkpt lat="39.657543" lon="-0.226729">
        <ele>28.2</ele>
        <time>2012-08-20T16:13:47Z</time>
      </trkpt>
      <trkpt lat="39.657379" lon="-0.226374">
        <ele>28.2</ele>
        <time>2012-08-20T16:13:53Z</time>
      </trkpt>
      <trkpt lat="39.657270" lon="-0.226194">
        <ele>28.2</ele>
        <time>2012-08-20T16:13:57Z</time>
      </trkpt>
      <trkpt lat="39.657215" lon="-0.226077">
        <ele>28.2</ele>
        <time>2012-08-20T16:13:59Z</time>
      </trkpt>
      <trkpt lat="39.657160" lon="-0.225905">
        <ele>28.2</ele>
        <time>2012-08-20T16:14:02Z</time>
      </trkpt>
      <trkpt lat="39.657128" lon="-0.225850">
        <ele>28.2</ele>
        <time>2012-08-20T16:14:03Z</time>
      </trkpt>
      <trkpt lat="39.657011" lon="-0.225622">
        <ele>28.2</ele>
        <time>2012-08-20T16:14:07Z</time>
      </trkpt>
      <trkpt lat="39.656840" lon="-0.225184">
        <ele>28.2</ele>
        <time>2012-08-20T16:14:14Z</time>
      </trkpt>
      <trkpt lat="39.656659" lon="-0.224802">
        <ele>28.2</ele>
        <time>2012-08-20T16:14:21Z</time>
      </trkpt>
      <trkpt lat="39.656481" lon="-0.224464">
        <ele>28.2</ele>
        <time>2012-08-20T16:14:28Z</time>
      </trkpt>
      <trkpt lat="39.656281" lon="-0.224026">
        <ele>28.2</ele>
        <time>2012-08-20T16:14:36Z</time>
      </trkpt>
      <trkpt lat="39.656219" lon="-0.223850">
        <ele>28.2</ele>
        <time>2012-08-20T16:14:39Z</time>
      </trkpt>
      <trkpt lat="39.656176" lon="-0.223740">
        <ele>28.2</ele>
        <time>2012-08-20T16:14:41Z</time>
      </trkpt>
      <trkpt lat="39.656151" lon="-0.223686">
        <ele>28.2</ele>
        <time>2012-08-20T16:14:42Z</time>
      </trkpt>
      <trkpt lat="39.655940" lon="-0.223247">
        <ele>28.2</ele>
        <time>2012-08-20T16:14:50Z</time>
      </trkpt>
      <trkpt lat="39.655914" lon="-0.223190">
        <ele>28.2</ele>
        <time>2012-08-20T16:14:51Z</time>
      </trkpt>
      <trkpt lat="39.655736" lon="-0.222810">
        <ele>27.8</ele>
        <time>2012-08-20T16:14:58Z</time>
      </trkpt>
      <trkpt lat="39.655710" lon="-0.222761">
        <ele>27.4</ele>
        <time>2012-08-20T16:14:59Z</time>
      </trkpt>
      <trkpt lat="39.655686" lon="-0.222708">
        <ele>27.0</ele>
        <time>2012-08-20T16:15:00Z</time>
      </trkpt>
      <trkpt lat="39.655659" lon="-0.222654">
        <ele>26.6</ele>
        <time>2012-08-20T16:15:01Z</time>
      </trkpt>
      <trkpt lat="39.655630" lon="-0.222606">
        <ele>26.2</ele>
        <time>2012-08-20T16:15:02Z</time>
      </trkpt>
      <trkpt lat="39.655554" lon="-0.222459">
        <ele>26.2</ele>
        <time>2012-08-20T16:15:05Z</time>
      </trkpt>
      <trkpt lat="39.655369" lon="-0.222043">
        <ele>26.2</ele>
        <time>2012-08-20T16:15:13Z</time>
      </trkpt>
      <trkpt lat="39.655262" lon="-0.221806">
        <ele>26.2</ele>
        <time>2012-08-20T16:15:18Z</time>
      </trkpt>
      <trkpt lat="39.655255" lon="-0.221707">
        <ele>26.2</ele>
        <time>2012-08-20T16:15:20Z</time>
      </trkpt>
      <trkpt lat="39.655351" lon="-0.221573">
        <ele>26.2</ele>
        <time>2012-08-20T16:15:23Z</time>
      </trkpt>
      <trkpt lat="39.655537" lon="-0.221494">
        <ele>26.2</ele>
        <time>2012-08-20T16:15:27Z</time>
      </trkpt>
      <trkpt lat="39.655586" lon="-0.221489">
        <ele>26.2</ele>
        <time>2012-08-20T16:15:28Z</time>
      </trkpt>
      <trkpt lat="39.655832" lon="-0.221439">
        <ele>26.2</ele>
        <time>2012-08-20T16:15:33Z</time>
      </trkpt>
      <trkpt lat="39.656126" lon="-0.221371">
        <ele>26.2</ele>
        <time>2012-08-20T16:15:39Z</time>
      </trkpt>
      <trkpt lat="39.656224" lon="-0.221345">
        <ele>26.2</ele>
        <time>2012-08-20T16:15:41Z</time>
      </trkpt>
      <trkpt lat="39.656498" lon="-0.221308">
        <ele>26.2</ele>
        <time>2012-08-20T16:15:47Z</time>
      </trkpt>
      <trkpt lat="39.656572" lon="-0.221165">
        <ele>26.2</ele>
        <time>2012-08-20T16:15:50Z</time>
      </trkpt>
      <trkpt lat="39.656609" lon="-0.220937">
        <ele>26.2</ele>
        <time>2012-08-20T16:15:54Z</time>
      </trkpt>
      <trkpt lat="39.656612" lon="-0.220877">
        <ele>26.2</ele>
        <time>2012-08-20T16:15:55Z</time>
      </trkpt>
      <trkpt lat="39.656643" lon="-0.220489">
        <ele>26.2</ele>
        <time>2012-08-20T16:16:02Z</time>
      </trkpt>
      <trkpt lat="39.656639" lon="-0.220436">
        <ele>26.2</ele>
        <time>2012-08-20T16:16:03Z</time>
      </trkpt>
      <trkpt lat="39.656625" lon="-0.220288">
        <ele>26.2</ele>
        <time>2012-08-20T16:16:06Z</time>
      </trkpt>
      <trkpt lat="39.656584" lon="-0.220095">
        <ele>26.2</ele>
        <time>2012-08-20T16:16:10Z</time>
      </trkpt>
      <trkpt lat="39.656508" lon="-0.219963">
        <ele>26.2</ele>
        <time>2012-08-20T16:16:14Z</time>
      </trkpt>
      <trkpt lat="39.656390" lon="-0.219861">
        <ele>26.2</ele>
        <time>2012-08-20T16:16:19Z</time>
      </trkpt>
      <trkpt lat="39.656365" lon="-0.219860">
        <ele>26.2</ele>
        <time>2012-08-20T16:16:23Z</time>
      </trkpt>
      <trkpt lat="39.656339" lon="-0.219837">
        <ele>26.2</ele>
        <time>2012-08-20T16:16:29Z</time>
      </trkpt>
      <trkpt lat="39.656268" lon="-0.219790">
        <ele>26.2</ele>
        <time>2012-08-20T16:16:33Z</time>
      </trkpt>
      <trkpt lat="39.656255" lon="-0.219791">
        <ele>26.2</ele>
        <time>2012-08-20T16:16:34Z</time>
      </trkpt>
      <trkpt lat="39.656239" lon="-0.219779">
        <ele>26.2</ele>
        <time>2012-08-20T16:16:36Z</time>
      </trkpt>
      <trkpt lat="39.656235" lon="-0.219780">
        <ele>26.2</ele>
        <time>2012-08-20T16:16:39Z</time>
      </trkpt>
      <trkpt lat="39.656235" lon="-0.219781">
        <ele>26.2</ele>
        <time>2012-08-20T16:16:40Z</time>
      </trkpt>
      <trkpt lat="39.656164" lon="-0.219820">
        <ele>22.2</ele>
        <time>2012-08-20T16:24:09Z</time>
      </trkpt>
      <trkpt lat="39.656152" lon="-0.219827">
        <ele>22.2</ele>
        <time>2012-08-20T16:24:10Z</time>
      </trkpt>
      <trkpt lat="39.656130" lon="-0.219848">
        <ele>22.2</ele>
        <time>2012-08-20T16:24:12Z</time>
      </trkpt>
      <trkpt lat="39.656072" lon="-0.219859">
        <ele>22.2</ele>
        <time>2012-08-20T16:24:17Z</time>
      </trkpt>
      <trkpt lat="39.655960" lon="-0.219894">
        <ele>22.2</ele>
        <time>2012-08-20T16:24:24Z</time>
      </trkpt>
      <trkpt lat="39.655867" lon="-0.219946">
        <ele>22.2</ele>
        <time>2012-08-20T16:24:30Z</time>
      </trkpt>
      <trkpt lat="39.655806" lon="-0.219958">
        <ele>21.8</ele>
        <time>2012-08-20T16:24:33Z</time>
      </trkpt>
      <trkpt lat="39.655789" lon="-0.219960">
        <ele>21.2</ele>
        <time>2012-08-20T16:24:34Z</time>
      </trkpt>
      <trkpt lat="39.655774" lon="-0.219964">
        <ele>21.2</ele>
        <time>2012-08-20T16:24:35Z</time>
      </trkpt>
      <trkpt lat="39.655759" lon="-0.219968">
        <ele>21.4</ele>
        <time>2012-08-20T16:24:36Z</time>
      </trkpt>
      <trkpt lat="39.655730" lon="-0.219968">
        <ele>22.4</ele>
        <time>2012-08-20T16:24:38Z</time>
      </trkpt>
      <trkpt lat="39.655713" lon="-0.219964">
        <ele>22.0</ele>
        <time>2012-08-20T16:24:39Z</time>
      </trkpt>
    </trkseg>
  </trk></gpx>